<?xml version='1.0' encoding='UTF-8'?><gpx version="1.1" creator="JPX - https://github.com/jenetics/jpx" xmlns="http://www.topografix.com/GPX/1/1"><trk><trkseg><trkpt lat="46.01734068698927" lon="11.890323296870116"><ele>268.0</ele><time>2026-04-17T09:28:55.007Z</time></trkpt><trkpt lat="46.01738321133545" lon="11.890488294895635"><ele>268.0</ele><time>2026-04-17T09:28:58.006Z</time></trkpt><trkpt lat="46.017487985495954" lon="11.890566611219745"><ele>268.0</ele><time>2026-04-17T09:29:07.003Z</time></trkpt><trkpt lat="46.0174363552559" lon="11.89046798139577"><ele>268.0</ele><time>2026-04-17T09:30:11.999Z</time></trkpt><trkpt lat="46.01739249313387" lon="11.890560280775407"><ele>268.0</ele><time>2026-04-17T09:30:23.999Z</time></trkpt><trkpt lat="46.01722001564137" lon="11.890436594220553"><ele>268.0</ele><time>2026-04-17T09:30:25.999Z</time></trkpt><trkpt lat="46.01713435631049" lon="11.89035909998227"><ele>268.0</ele><time>2026-04-17T09:30:27.999Z</time></trkpt><trkpt lat="46.01706145397549" lon="11.890366997386952"><ele>268.0</ele><time>2026-04-17T09:30:28.999Z</time></trkpt><trkpt lat="46.01697723512802" lon="11.890277287351836"><ele>268.0</ele><time>2026-04-17T09:30:30.999Z</time></trkpt><trkpt lat="46.01698069150202" lon="11.890169846595064"><ele>268.0</ele><time>2026-04-17T09:30:32.999Z</time></trkpt><trkpt lat="46.0170189738948" lon="11.890036962966802"><ele>268.2</ele><time>2026-04-17T09:30:34.999Z</time></trkpt><trkpt lat="46.01704414166662" lon="11.889877495492755"><ele>268.4</ele><time>2026-04-17T09:30:36.999Z</time></trkpt><trkpt lat="46.01709013686604" lon="11.889726303056687"><ele>268.59999999999997</ele><time>2026-04-17T09:30:38.999Z</time></trkpt><trkpt lat="46.017208713617116" lon="11.889724561677953"><ele>268.8</ele><time>2026-04-17T09:30:40.999Z</time></trkpt><trkpt lat="46.01728949350463" lon="11.889709723556082"><ele>269.0</ele><time>2026-04-17T09:30:41.999Z</time></trkpt><trkpt lat="46.01738319960688" lon="11.889692023622437"><ele>269.0</ele><time>2026-04-17T09:30:42.999Z</time></trkpt><trkpt lat="46.01748446536285" lon="11.889674835425492"><ele>269.0</ele><time>2026-04-17T09:30:44.999Z</time></trkpt><trkpt lat="46.01756623178507" lon="11.889657174659378"><ele>269.0</ele><time>2026-04-17T09:30:47.999Z</time></trkpt><trkpt lat="46.01763515491626" lon="11.889615514881932"><ele>269.0</ele><time>2026-04-17T09:30:50.999Z</time></trkpt><trkpt lat="46.01766167914899" lon="11.889507197248664"><ele>269.0</ele><time>2026-04-17T09:30:52.999Z</time></trkpt><trkpt lat="46.01764954495409" lon="11.88939304899715"><ele>269.0</ele><time>2026-04-17T09:30:53.999Z</time></trkpt><trkpt lat="46.01762547083909" lon="11.889254101430973"><ele>269.1666666666667</ele><time>2026-04-17T09:30:54.999Z</time></trkpt><trkpt lat="46.01761445496468" lon="11.88913917693238"><ele>269.33333333333337</ele><time>2026-04-17T09:30:55.999Z</time></trkpt><trkpt lat="46.017600860283" lon="11.889029306133912"><ele>269.5</ele><time>2026-04-17T09:30:56.999Z</time></trkpt><trkpt lat="46.01758746376015" lon="11.888912313301876"><ele>269.6666666666667</ele><time>2026-04-17T09:30:57.999Z</time></trkpt><trkpt lat="46.017578732782816" lon="11.888803100860716"><ele>269.8333333333333</ele><time>2026-04-17T09:30:58.999Z</time></trkpt><trkpt lat="46.017566848866736" lon="11.888682060548808"><ele>270.0</ele><time>2026-04-17T09:31:00.999Z</time></trkpt><trkpt lat="46.017594368356775" lon="11.888570059706437"><ele>270.0</ele><time>2026-04-17T09:31:06.999Z</time></trkpt><trkpt lat="46.01772382234874" lon="11.888519584565097"><ele>270.0</ele><time>2026-04-17T09:31:08.999Z</time></trkpt><trkpt lat="46.01782078322789" lon="11.888495580849552"><ele>270.0</ele><time>2026-04-17T09:31:09.999Z</time></trkpt><trkpt lat="46.01790640613664" lon="11.888469720849724"><ele>270.0</ele><time>2026-04-17T09:31:10.999Z</time></trkpt><trkpt lat="46.01799870312525" lon="11.888429788254545"><ele>270.0</ele><time>2026-04-17T09:31:11.999Z</time></trkpt><trkpt lat="46.01810541721159" lon="11.8883867222004"><ele>269.5</ele><time>2026-04-17T09:31:12.999Z</time></trkpt><trkpt lat="46.018215062721644" lon="11.888364267249731"><ele>269.0</ele><time>2026-04-17T09:31:13.999Z</time></trkpt><trkpt lat="46.018310416741166" lon="11.88836958193703"><ele>268.5</ele><time>2026-04-17T09:31:14.999Z</time></trkpt><trkpt lat="46.01838891067283" lon="11.88838603039613"><ele>268.0</ele><time>2026-04-17T09:31:15.999Z</time></trkpt><trkpt lat="46.01846653418015" lon="11.888385423152029"><ele>267.5</ele><time>2026-04-17T09:31:17Z</time></trkpt><trkpt lat="46.018539069292636" lon="11.888341014938915"><ele>267.0</ele><time>2026-04-17T09:31:18Z</time></trkpt><trkpt lat="46.01858467831109" lon="11.888252414127425"><ele>267.0</ele><time>2026-04-17T09:31:19Z</time></trkpt><trkpt lat="46.01859121330036" lon="11.88815047620322"><ele>267.0</ele><time>2026-04-17T09:31:20Z</time></trkpt><trkpt lat="46.01856134612677" lon="11.888045749707057"><ele>267.0</ele><time>2026-04-17T09:31:21Z</time></trkpt><trkpt lat="46.018508430256354" lon="11.887941697923628"><ele>267.0</ele><time>2026-04-17T09:31:22Z</time></trkpt><trkpt lat="46.018470963162095" lon="11.887819330879305"><ele>267.0</ele><time>2026-04-17T09:31:23Z</time></trkpt><trkpt lat="46.01847383363628" lon="11.887680211149483"><ele>267.0</ele><time>2026-04-17T09:31:24Z</time></trkpt><trkpt lat="46.01864817281638" lon="11.88752938049096"><ele>267.0</ele><time>2026-04-17T09:31:25Z</time></trkpt><trkpt lat="46.01864131598956" lon="11.887375538509355"><ele>267.0</ele><time>2026-04-17T09:31:26Z</time></trkpt><trkpt lat="46.01861050347726" lon="11.887194460507489"><ele>267.0</ele><time>2026-04-17T09:31:27Z</time></trkpt><trkpt lat="46.01853272825618" lon="11.887058187814452"><ele>267.0</ele><time>2026-04-17T09:31:28Z</time></trkpt><trkpt lat="46.018492518966404" lon="11.886894484158518"><ele>267.0</ele><time>2026-04-17T09:31:29Z</time></trkpt><trkpt lat="46.01845143480885" lon="11.886726637974038"><ele>267.0</ele><time>2026-04-17T09:31:30Z</time></trkpt><trkpt lat="46.01840508955157" lon="11.886554282462017"><ele>267.0</ele><time>2026-04-17T09:31:31Z</time></trkpt><trkpt lat="46.01833923538827" lon="11.886370473991214"><ele>267.0</ele><time>2026-04-17T09:31:32Z</time></trkpt><trkpt lat="46.01826247243108" lon="11.886158846325113"><ele>266.6666666666667</ele><time>2026-04-17T09:31:33Z</time></trkpt><trkpt lat="46.01817966831" lon="11.885919887190427"><ele>266.33333333333337</ele><time>2026-04-17T09:31:34Z</time></trkpt><trkpt lat="46.018102335234644" lon="11.885714887622248"><ele>266.0</ele><time>2026-04-17T09:31:35Z</time></trkpt><trkpt lat="46.01804824802896" lon="11.885540371703659"><ele>266.0</ele><time>2026-04-17T09:31:36Z</time></trkpt><trkpt lat="46.01799624185875" lon="11.885378772208613"><ele>266.0</ele><time>2026-04-17T09:31:37Z</time></trkpt><trkpt lat="46.01793636022099" lon="11.885204167743147"><ele>266.0</ele><time>2026-04-17T09:31:38Z</time></trkpt><trkpt lat="46.017855560681674" lon="11.884994490557224"><ele>266.0</ele><time>2026-04-17T09:31:39Z</time></trkpt><trkpt lat="46.01777434989487" lon="11.884764515500969"><ele>266.33333333333337</ele><time>2026-04-17T09:31:40Z</time></trkpt><trkpt lat="46.017694351626446" lon="11.884548738199786"><ele>266.6666666666667</ele><time>2026-04-17T09:31:41Z</time></trkpt><trkpt lat="46.01763295418486" lon="11.88435109128048"><ele>267.0</ele><time>2026-04-17T09:31:42Z</time></trkpt><trkpt lat="46.01756068556358" lon="11.884147273762846"><ele>267.6666666666667</ele><time>2026-04-17T09:31:43Z</time></trkpt><trkpt lat="46.017492413189" lon="11.883938078982364"><ele>268.33333333333337</ele><time>2026-04-17T09:31:44Z</time></trkpt><trkpt lat="46.017421492901015" lon="11.883728427880385"><ele>269.0</ele><time>2026-04-17T09:31:45Z</time></trkpt><trkpt lat="46.017350201464076" lon="11.883521663007171"><ele>270.33333333333337</ele><time>2026-04-17T09:31:46Z</time></trkpt><trkpt lat="46.01726885274538" lon="11.88329993277288"><ele>271.6666666666667</ele><time>2026-04-17T09:31:47Z</time></trkpt><trkpt lat="46.0171872534246" lon="11.883062698436447"><ele>273.0</ele><time>2026-04-17T09:31:48Z</time></trkpt><trkpt lat="46.01710168239162" lon="11.882819395457986"><ele>272.3333333333333</ele><time>2026-04-17T09:31:49Z</time></trkpt><trkpt lat="46.0170157857932" lon="11.882573892910717"><ele>271.66666666666663</ele><time>2026-04-17T09:31:50Z</time></trkpt><trkpt lat="46.016932590739124" lon="11.88232692352021"><ele>271.0</ele><time>2026-04-17T09:31:51Z</time></trkpt><trkpt lat="46.016840176365605" lon="11.882073628627632"><ele>271.0</ele><time>2026-04-17T09:31:52Z</time></trkpt><trkpt lat="46.01675241374643" lon="11.881823438495834"><ele>271.0</ele><time>2026-04-17T09:31:53Z</time></trkpt><trkpt lat="46.016665366534134" lon="11.881569273794616"><ele>271.0</ele><time>2026-04-17T09:31:54Z</time></trkpt><trkpt lat="46.0165839661744" lon="11.881316036223314"><ele>271.0</ele><time>2026-04-17T09:31:55Z</time></trkpt><trkpt lat="46.01650067854917" lon="11.881063113574463"><ele>271.0</ele><time>2026-04-17T09:31:56Z</time></trkpt><trkpt lat="46.016411731738664" lon="11.880810835166576"><ele>271.0</ele><time>2026-04-17T09:31:57Z</time></trkpt><trkpt lat="46.016328011827326" lon="11.880561702342936"><ele>271.0</ele><time>2026-04-17T09:31:58Z</time></trkpt><trkpt lat="46.01624358778402" lon="11.880308679357753"><ele>271.0</ele><time>2026-04-17T09:31:59Z</time></trkpt><trkpt lat="46.01615816651801" lon="11.880060205379005"><ele>271.0</ele><time>2026-04-17T09:32:00Z</time></trkpt><trkpt lat="46.01607276588708" lon="11.87981236750985"><ele>271.66666666666663</ele><time>2026-04-17T09:32:01Z</time></trkpt><trkpt lat="46.01598759153406" lon="11.87956326517982"><ele>272.3333333333333</ele><time>2026-04-17T09:32:02Z</time></trkpt><trkpt lat="46.01590378997902" lon="11.879318492555107"><ele>273.0</ele><time>2026-04-17T09:32:03Z</time></trkpt><trkpt lat="46.015826424274614" lon="11.879088631730365"><ele>273.5</ele><time>2026-04-17T09:32:04Z</time></trkpt><trkpt lat="46.015756880857644" lon="11.878889915734417"><ele>274.0</ele><time>2026-04-17T09:32:05Z</time></trkpt><trkpt lat="46.01568967031936" lon="11.878704070302351"><ele>274.5</ele><time>2026-04-17T09:32:06Z</time></trkpt><trkpt lat="46.01563253327863" lon="11.87852462508864"><ele>275.0</ele><time>2026-04-17T09:32:07Z</time></trkpt><trkpt lat="46.015573352511176" lon="11.878349242206836"><ele>275.0</ele><time>2026-04-17T09:32:08Z</time></trkpt><trkpt lat="46.015511854588965" lon="11.878181350565447"><ele>275.0</ele><time>2026-04-17T09:32:09Z</time></trkpt><trkpt lat="46.015452225572616" lon="11.878015300420522"><ele>275.0</ele><time>2026-04-17T09:32:10Z</time></trkpt><trkpt lat="46.015391020692114" lon="11.877843179051126"><ele>275.0</ele><time>2026-04-17T09:32:11Z</time></trkpt><trkpt lat="46.01533781311787" lon="11.87766949712637"><ele>275.0</ele><time>2026-04-17T09:32:12Z</time></trkpt><trkpt lat="46.01527861042786" lon="11.877493546921237"><ele>275.0</ele><time>2026-04-17T09:32:13Z</time></trkpt><trkpt lat="46.015211149259095" lon="11.877312708932783"><ele>275.0</ele><time>2026-04-17T09:32:14Z</time></trkpt><trkpt lat="46.01514687843049" lon="11.877134096990899"><ele>275.0</ele><time>2026-04-17T09:32:15Z</time></trkpt><trkpt lat="46.01508008413873" lon="11.876946580500462"><ele>275.0</ele><time>2026-04-17T09:32:16Z</time></trkpt><trkpt lat="46.01502455234464" lon="11.876773516944034"><ele>275.0</ele><time>2026-04-17T09:32:17Z</time></trkpt><trkpt lat="46.014963925227704" lon="11.87660040213133"><ele>275.0</ele><time>2026-04-17T09:32:18Z</time></trkpt><trkpt lat="46.01490279360218" lon="11.87642433923486"><ele>275.0</ele><time>2026-04-17T09:32:19Z</time></trkpt><trkpt lat="46.014836691629405" lon="11.876233152333533"><ele>275.33333333333337</ele><time>2026-04-17T09:32:20Z</time></trkpt><trkpt lat="46.01475558603683" lon="11.876024822928471"><ele>275.6666666666667</ele><time>2026-04-17T09:32:21Z</time></trkpt><trkpt lat="46.01467127261729" lon="11.875783879829536"><ele>276.0</ele><time>2026-04-17T09:32:22Z</time></trkpt><trkpt lat="46.01457719002345" lon="11.87550482370035"><ele>277.0</ele><time>2026-04-17T09:32:23Z</time></trkpt><trkpt lat="46.01447754981887" lon="11.875200523314216"><ele>278.0</ele><time>2026-04-17T09:32:24Z</time></trkpt><trkpt lat="46.01438092618955" lon="11.87490942373472"><ele>278.5</ele><time>2026-04-17T09:32:25Z</time></trkpt><trkpt lat="46.01428228051561" lon="11.874622532251067"><ele>279.0</ele><time>2026-04-17T09:32:26Z</time></trkpt><trkpt lat="46.01416859040723" lon="11.874312812547247"><ele>279.0</ele><time>2026-04-17T09:32:27Z</time></trkpt><trkpt lat="46.01405703220178" lon="11.87399021660269"><ele>279.0</ele><time>2026-04-17T09:32:28Z</time></trkpt><trkpt lat="46.01394055416632" lon="11.873658705259855"><ele>280.0</ele><time>2026-04-17T09:32:29Z</time></trkpt><trkpt lat="46.01382166195123" lon="11.873319564188709"><ele>281.0</ele><time>2026-04-17T09:32:30Z</time></trkpt><trkpt lat="46.0137306533533" lon="11.873006381150496"><ele>281.0</ele><time>2026-04-17T09:32:31Z</time></trkpt><trkpt lat="46.01364381002399" lon="11.87272203300639"><ele>281.0</ele><time>2026-04-17T09:32:32Z</time></trkpt><trkpt lat="46.01355593465712" lon="11.872450202512095"><ele>281.0</ele><time>2026-04-17T09:32:33Z</time></trkpt><trkpt lat="46.013455530785365" lon="11.872179668523597"><ele>281.0</ele><time>2026-04-17T09:32:34Z</time></trkpt><trkpt lat="46.01336545755677" lon="11.871914877148702"><ele>281.0</ele><time>2026-04-17T09:32:35Z</time></trkpt><trkpt lat="46.01327317959403" lon="11.871639311130831"><ele>281.0</ele><time>2026-04-17T09:32:36Z</time></trkpt><trkpt lat="46.013179818457964" lon="11.871363430420539"><ele>281.33333333333337</ele><time>2026-04-17T09:32:37Z</time></trkpt><trkpt lat="46.0130715698782" lon="11.871082404119463"><ele>281.6666666666667</ele><time>2026-04-17T09:32:38Z</time></trkpt><trkpt lat="46.01297300220087" lon="11.870795991062476"><ele>282.0</ele><time>2026-04-17T09:32:39Z</time></trkpt><trkpt lat="46.012872859197714" lon="11.870505979146122"><ele>282.3333333333333</ele><time>2026-04-17T09:32:40Z</time></trkpt><trkpt lat="46.01278554273814" lon="11.870239361726528"><ele>282.66666666666663</ele><time>2026-04-17T09:32:41Z</time></trkpt><trkpt lat="46.0127205538941" lon="11.870032942452031"><ele>283.0</ele><time>2026-04-17T09:32:42Z</time></trkpt><trkpt lat="46.01266142682049" lon="11.869847859150937"><ele>283.0</ele><time>2026-04-17T09:32:43Z</time></trkpt><trkpt lat="46.012597267792096" lon="11.869666871540778"><ele>283.0</ele><time>2026-04-17T09:32:44Z</time></trkpt><trkpt lat="46.01253499415595" lon="11.869488555234716"><ele>283.0</ele><time>2026-04-17T09:32:45Z</time></trkpt><trkpt lat="46.012469256286494" lon="11.869315724514278"><ele>283.0</ele><time>2026-04-17T09:32:46Z</time></trkpt><trkpt lat="46.01240030908194" lon="11.869155396265427"><ele>283.0</ele><time>2026-04-17T09:32:47Z</time></trkpt><trkpt lat="46.012342149874385" lon="11.868970767194913"><ele>283.0</ele><time>2026-04-17T09:32:48Z</time></trkpt><trkpt lat="46.012279935689754" lon="11.868781162600586"><ele>283.0</ele><time>2026-04-17T09:32:49Z</time></trkpt><trkpt lat="46.012213277780525" lon="11.868590916165424"><ele>283.0</ele><time>2026-04-17T09:32:50Z</time></trkpt><trkpt lat="46.01214112642405" lon="11.86839847117004"><ele>284.0</ele><time>2026-04-17T09:32:51Z</time></trkpt><trkpt lat="46.01206706882671" lon="11.868186339735631"><ele>285.0</ele><time>2026-04-17T09:32:52Z</time></trkpt><trkpt lat="46.011970086906075" lon="11.867931025880175"><ele>286.0</ele><time>2026-04-17T09:32:52.999Z</time></trkpt><trkpt lat="46.01188382693323" lon="11.867632836372627"><ele>286.0</ele><time>2026-04-17T09:32:53.999Z</time></trkpt><trkpt lat="46.01178377740279" lon="11.867342352137914"><ele>286.0</ele><time>2026-04-17T09:32:54.999Z</time></trkpt><trkpt lat="46.01166997074015" lon="11.867011925717867"><ele>286.0</ele><time>2026-04-17T09:32:55.999Z</time></trkpt><trkpt lat="46.01153886222617" lon="11.86667884444525"><ele>286.0</ele><time>2026-04-17T09:32:56.999Z</time></trkpt><trkpt lat="46.011436825846346" lon="11.86634701379984"><ele>286.0</ele><time>2026-04-17T09:32:57.999Z</time></trkpt><trkpt lat="46.011300843023434" lon="11.865973551595404"><ele>286.0</ele><time>2026-04-17T09:32:58.999Z</time></trkpt><trkpt lat="46.011175755539" lon="11.86557561925617"><ele>286.5</ele><time>2026-04-17T09:32:59.999Z</time></trkpt><trkpt lat="46.011051085814294" lon="11.865212981607337"><ele>287.0</ele><time>2026-04-17T09:33:00.999Z</time></trkpt><trkpt lat="46.01091946121858" lon="11.864831103120245"><ele>288.0</ele><time>2026-04-17T09:33:01.999Z</time></trkpt><trkpt lat="46.01078472788573" lon="11.864440097199628"><ele>289.0</ele><time>2026-04-17T09:33:02.999Z</time></trkpt><trkpt lat="46.01063643261491" lon="11.864056275351622"><ele>290.0</ele><time>2026-04-17T09:33:03.999Z</time></trkpt><trkpt lat="46.01052343956468" lon="11.863702797515517"><ele>291.0</ele><time>2026-04-17T09:33:04.999Z</time></trkpt><trkpt lat="46.01040975721294" lon="11.86336749165573"><ele>291.0</ele><time>2026-04-17T09:33:05.999Z</time></trkpt><trkpt lat="46.01029368095925" lon="11.863040097400111"><ele>291.0</ele><time>2026-04-17T09:33:06.999Z</time></trkpt><trkpt lat="46.0101864759658" lon="11.86271976137494"><ele>291.0</ele><time>2026-04-17T09:33:07.999Z</time></trkpt><trkpt lat="46.01006651829242" lon="11.862382724365345"><ele>291.0</ele><time>2026-04-17T09:33:08.999Z</time></trkpt><trkpt lat="46.00994753303131" lon="11.862032276329623"><ele>291.0</ele><time>2026-04-17T09:33:09.999Z</time></trkpt><trkpt lat="46.00982274690117" lon="11.861672257696833"><ele>291.0</ele><time>2026-04-17T09:33:10.999Z</time></trkpt><trkpt lat="46.00969691794056" lon="11.861300183154261"><ele>292.5</ele><time>2026-04-17T09:33:11.999Z</time></trkpt><trkpt lat="46.009563681631306" lon="11.860919228821743"><ele>294.0</ele><time>2026-04-17T09:33:12.999Z</time></trkpt><trkpt lat="46.00942852494518" lon="11.860527777184902"><ele>294.0</ele><time>2026-04-17T09:33:13.999Z</time></trkpt><trkpt lat="46.00929594966083" lon="11.86013520638929"><ele>294.0</ele><time>2026-04-17T09:33:14.999Z</time></trkpt><trkpt lat="46.00917401244562" lon="11.85976844585561"><ele>294.0</ele><time>2026-04-17T09:33:15.999Z</time></trkpt><trkpt lat="46.00905879234673" lon="11.85943653351584"><ele>294.0</ele><time>2026-04-17T09:33:16.999Z</time></trkpt><trkpt lat="46.00893757800999" lon="11.859106237361988"><ele>295.0</ele><time>2026-04-17T09:33:17.999Z</time></trkpt><trkpt lat="46.008824977231804" lon="11.8587816754558"><ele>296.0</ele><time>2026-04-17T09:33:18.999Z</time></trkpt><trkpt lat="46.008703781764865" lon="11.858444387371948"><ele>297.5</ele><time>2026-04-17T09:33:19.999Z</time></trkpt><trkpt lat="46.008590010517416" lon="11.858107806909029"><ele>299.0</ele><time>2026-04-17T09:33:20.999Z</time></trkpt><trkpt lat="46.008482125935394" lon="11.857753122006995"><ele>299.0</ele><time>2026-04-17T09:33:21.999Z</time></trkpt><trkpt lat="46.00835538418489" lon="11.857382545314275"><ele>299.0</ele><time>2026-04-17T09:33:22.999Z</time></trkpt><trkpt lat="46.00822677606569" lon="11.857005430207373"><ele>300.0</ele><time>2026-04-17T09:33:23.999Z</time></trkpt><trkpt lat="46.00809905013827" lon="11.856632937269522"><ele>301.0</ele><time>2026-04-17T09:33:24.999Z</time></trkpt><trkpt lat="46.00798118526278" lon="11.856292932665488"><ele>302.0</ele><time>2026-04-17T09:33:25.999Z</time></trkpt><trkpt lat="46.00786021664072" lon="11.855943974696732"><ele>303.0</ele><time>2026-04-17T09:33:26.999Z</time></trkpt><trkpt lat="46.00774212038038" lon="11.855603302623097"><ele>303.0</ele><time>2026-04-17T09:33:28Z</time></trkpt><trkpt lat="46.00762207005999" lon="11.855301124192401"><ele>303.0</ele><time>2026-04-17T09:33:29Z</time></trkpt><trkpt lat="46.00752865654332" lon="11.855030506954368"><ele>303.3333333333333</ele><time>2026-04-17T09:33:30Z</time></trkpt><trkpt lat="46.00744876965067" lon="11.854789497324425"><ele>303.66666666666663</ele><time>2026-04-17T09:33:31Z</time></trkpt><trkpt lat="46.007368244199704" lon="11.854562989107352"><ele>304.0</ele><time>2026-04-17T09:33:32Z</time></trkpt><trkpt lat="46.00730560350115" lon="11.854331087816945"><ele>304.66666666666663</ele><time>2026-04-17T09:33:33Z</time></trkpt><trkpt lat="46.007221005228324" lon="11.854128637955327"><ele>305.3333333333333</ele><time>2026-04-17T09:33:34Z</time></trkpt><trkpt lat="46.007151998549716" lon="11.853920504152246"><ele>306.0</ele><time>2026-04-17T09:33:35Z</time></trkpt><trkpt lat="46.007078972824445" lon="11.853709068754855"><ele>306.0</ele><time>2026-04-17T09:33:36Z</time></trkpt><trkpt lat="46.00700227694937" lon="11.853494594912682"><ele>306.0</ele><time>2026-04-17T09:33:37Z</time></trkpt><trkpt lat="46.006914243843376" lon="11.853238640989213"><ele>306.0</ele><time>2026-04-17T09:33:38Z</time></trkpt><trkpt lat="46.00684437547827" lon="11.852993265786456"><ele>306.0</ele><time>2026-04-17T09:33:39Z</time></trkpt><trkpt lat="46.006752390311256" lon="11.852724984248363"><ele>306.0</ele><time>2026-04-17T09:33:40Z</time></trkpt><trkpt lat="46.006609636221924" lon="11.852442464612484"><ele>306.5</ele><time>2026-04-17T09:33:41Z</time></trkpt><trkpt lat="46.00649945080976" lon="11.85211623109519"><ele>307.0</ele><time>2026-04-17T09:33:42Z</time></trkpt><trkpt lat="46.006403073326936" lon="11.851819700258373"><ele>308.0</ele><time>2026-04-17T09:33:43Z</time></trkpt><trkpt lat="46.00631397366991" lon="11.851541829403944"><ele>309.0</ele><time>2026-04-17T09:33:44Z</time></trkpt><trkpt lat="46.00625435510676" lon="11.851274008538102"><ele>310.0</ele><time>2026-04-17T09:33:45Z</time></trkpt><trkpt lat="46.00617189599622" lon="11.85103416421602"><ele>310.3333333333333</ele><time>2026-04-17T09:33:46Z</time></trkpt><trkpt lat="46.00607373007487" lon="11.850801532717949"><ele>310.6666666666667</ele><time>2026-04-17T09:33:47Z</time></trkpt><trkpt lat="46.00598623376422" lon="11.850542891030964"><ele>311.0</ele><time>2026-04-17T09:33:48Z</time></trkpt><trkpt lat="46.005910022139524" lon="11.850272466003362"><ele>311.0</ele><time>2026-04-17T09:33:49Z</time></trkpt><trkpt lat="46.00580858763013" lon="11.85002541591413"><ele>311.0</ele><time>2026-04-17T09:33:50Z</time></trkpt><trkpt lat="46.005717959464604" lon="11.849769520827987"><ele>311.0</ele><time>2026-04-17T09:33:51Z</time></trkpt><trkpt lat="46.005634413969084" lon="11.84948836223958"><ele>311.0</ele><time>2026-04-17T09:33:52Z</time></trkpt><trkpt lat="46.00551004419736" lon="11.849180347624598"><ele>311.0</ele><time>2026-04-17T09:33:53Z</time></trkpt><trkpt lat="46.00537536627301" lon="11.84891861765584"><ele>311.0</ele><time>2026-04-17T09:33:54Z</time></trkpt><trkpt lat="46.00523344690574" lon="11.848657700714172"><ele>311.0</ele><time>2026-04-17T09:33:55Z</time></trkpt><trkpt lat="46.00507477285682" lon="11.848385801789822"><ele>311.0</ele><time>2026-04-17T09:33:56Z</time></trkpt><trkpt lat="46.00490262500314" lon="11.848080265467548"><ele>311.0</ele><time>2026-04-17T09:33:57Z</time></trkpt><trkpt lat="46.00470832498515" lon="11.847820144161608"><ele>312.5</ele><time>2026-04-17T09:33:58Z</time></trkpt><trkpt lat="46.00455938927253" lon="11.84752327357937"><ele>314.0</ele><time>2026-04-17T09:33:59Z</time></trkpt><trkpt lat="46.004443152735746" lon="11.847259058237725"><ele>314.0</ele><time>2026-04-17T09:34:00Z</time></trkpt><trkpt lat="46.00433555222521" lon="11.847020499050918"><ele>314.0</ele><time>2026-04-17T09:34:01Z</time></trkpt><trkpt lat="46.00423006447114" lon="11.846781749330608"><ele>314.0</ele><time>2026-04-17T09:34:02Z</time></trkpt><trkpt lat="46.004123468783135" lon="11.846548345698404"><ele>314.0</ele><time>2026-04-17T09:34:03Z</time></trkpt><trkpt lat="46.004014656415315" lon="11.846319341201996"><ele>314.0</ele><time>2026-04-17T09:34:04Z</time></trkpt><trkpt lat="46.00391493115686" lon="11.846091296858864"><ele>314.0</ele><time>2026-04-17T09:34:05Z</time></trkpt><trkpt lat="46.003815128427036" lon="11.84586454335133"><ele>314.6666666666667</ele><time>2026-04-17T09:34:06Z</time></trkpt><trkpt lat="46.00371724319638" lon="11.845649340787897"><ele>315.3333333333333</ele><time>2026-04-17T09:34:07Z</time></trkpt><trkpt lat="46.003622220227776" lon="11.845434153259733"><ele>316.0</ele><time>2026-04-17T09:34:08Z</time></trkpt><trkpt lat="46.003523686964314" lon="11.84520969031637"><ele>316.66666666666663</ele><time>2026-04-17T09:34:09Z</time></trkpt><trkpt lat="46.00343761280174" lon="11.844985111470722"><ele>317.3333333333333</ele><time>2026-04-17T09:34:10Z</time></trkpt><trkpt lat="46.0033673303288" lon="11.844759710473808"><ele>318.0</ele><time>2026-04-17T09:34:11Z</time></trkpt><trkpt lat="46.003300092770296" lon="11.844526518330616"><ele>318.0</ele><time>2026-04-17T09:34:12Z</time></trkpt><trkpt lat="46.003239260834555" lon="11.844302737099534"><ele>318.0</ele><time>2026-04-17T09:34:13Z</time></trkpt><trkpt lat="46.00318519362352" lon="11.84407403746255"><ele>318.0</ele><time>2026-04-17T09:34:14Z</time></trkpt><trkpt lat="46.003131409344604" lon="11.84383441200009"><ele>318.6666666666667</ele><time>2026-04-17T09:34:15Z</time></trkpt><trkpt lat="46.003093892248614" lon="11.843604176881543"><ele>319.33333333333337</ele><time>2026-04-17T09:34:16Z</time></trkpt><trkpt lat="46.00306170669525" lon="11.843374213952904"><ele>320.0</ele><time>2026-04-17T09:34:17Z</time></trkpt><trkpt lat="46.00304063639665" lon="11.843163086617176"><ele>320.5</ele><time>2026-04-17T09:34:18Z</time></trkpt><trkpt lat="46.00303265830524" lon="11.842982611415666"><ele>321.0</ele><time>2026-04-17T09:34:19Z</time></trkpt><trkpt lat="46.0030257437455" lon="11.84279483399339"><ele>321.5</ele><time>2026-04-17T09:34:20Z</time></trkpt><trkpt lat="46.003015327752344" lon="11.84262722538515"><ele>322.0</ele><time>2026-04-17T09:34:21Z</time></trkpt><trkpt lat="46.00300833063018" lon="11.842471987880483"><ele>322.20000000000005</ele><time>2026-04-17T09:34:22Z</time></trkpt><trkpt lat="46.003012255426306" lon="11.84232502559637"><ele>322.4</ele><time>2026-04-17T09:34:23Z</time></trkpt><trkpt lat="46.00301968043984" lon="11.842177168198257"><ele>322.6</ele><time>2026-04-17T09:34:24Z</time></trkpt><trkpt lat="46.003037622692815" lon="11.842032686373303"><ele>322.79999999999995</ele><time>2026-04-17T09:34:25Z</time></trkpt><trkpt lat="46.00305864029785" lon="11.841892530087518"><ele>323.0</ele><time>2026-04-17T09:34:26Z</time></trkpt><trkpt lat="46.003088463987076" lon="11.841738800401663"><ele>322.33333333333337</ele><time>2026-04-17T09:34:27Z</time></trkpt><trkpt lat="46.00312982848027" lon="11.841541350564048"><ele>321.6666666666667</ele><time>2026-04-17T09:34:28Z</time></trkpt><trkpt lat="46.00319074219251" lon="11.841315809730473"><ele>321.0</ele><time>2026-04-17T09:34:29Z</time></trkpt><trkpt lat="46.00326576766793" lon="11.841069131361191"><ele>321.6666666666667</ele><time>2026-04-17T09:34:30Z</time></trkpt><trkpt lat="46.003338932993174" lon="11.840840234475165"><ele>322.33333333333337</ele><time>2026-04-17T09:34:31Z</time></trkpt><trkpt lat="46.00341679888139" lon="11.84059410076222"><ele>323.0</ele><time>2026-04-17T09:34:32Z</time></trkpt><trkpt lat="46.003497218324306" lon="11.840336323677526"><ele>322.6666666666667</ele><time>2026-04-17T09:34:33Z</time></trkpt><trkpt lat="46.003573280292684" lon="11.84009520041869"><ele>322.3333333333333</ele><time>2026-04-17T09:34:34Z</time></trkpt><trkpt lat="46.003634942841835" lon="11.839879000620897"><ele>322.0</ele><time>2026-04-17T09:34:35Z</time></trkpt><trkpt lat="46.00367800121515" lon="11.839704401967822"><ele>322.0</ele><time>2026-04-17T09:34:36Z</time></trkpt><trkpt lat="46.00369474266231" lon="11.839532479665126"><ele>322.0</ele><time>2026-04-17T09:34:37Z</time></trkpt><trkpt lat="46.00372508381026" lon="11.839392695830355"><ele>322.0</ele><time>2026-04-17T09:34:38Z</time></trkpt><trkpt lat="46.00377800267876" lon="11.839292833331239"><ele>322.0</ele><time>2026-04-17T09:34:39Z</time></trkpt><trkpt lat="46.00381756077664" lon="11.83920560184477"><ele>322.0</ele><time>2026-04-17T09:34:40Z</time></trkpt><trkpt lat="46.00381855646039" lon="11.839101926167839"><ele>321.40000000000003</ele><time>2026-04-17T09:34:41Z</time></trkpt><trkpt lat="46.00378336817013" lon="11.839000201232611"><ele>320.8</ele><time>2026-04-17T09:34:42Z</time></trkpt><trkpt lat="46.0037164036706" lon="11.838919986292694"><ele>320.2</ele><time>2026-04-17T09:34:43Z</time></trkpt><trkpt lat="46.003621859672776" lon="11.838913787668904"><ele>319.6</ele><time>2026-04-17T09:34:44Z</time></trkpt><trkpt lat="46.003528100222894" lon="11.83879144459529"><ele>319.0</ele><time>2026-04-17T09:34:45Z</time></trkpt><trkpt lat="46.00345466627777" lon="11.838628767917267"><ele>318.66666666666663</ele><time>2026-04-17T09:34:46Z</time></trkpt><trkpt lat="46.00336762847291" lon="11.838446043311897"><ele>318.3333333333333</ele><time>2026-04-17T09:34:47Z</time></trkpt><trkpt lat="46.00328984256607" lon="11.838251044337353"><ele>318.0</ele><time>2026-04-17T09:34:48Z</time></trkpt><trkpt lat="46.00319865892237" lon="11.838013654875237"><ele>318.0</ele><time>2026-04-17T09:34:49Z</time></trkpt><trkpt lat="46.00310732031884" lon="11.837773241308476"><ele>318.0</ele><time>2026-04-17T09:34:50Z</time></trkpt><trkpt lat="46.00300679817255" lon="11.837516523992367"><ele>318.0</ele><time>2026-04-17T09:34:51Z</time></trkpt><trkpt lat="46.00291445815356" lon="11.83727889868421"><ele>318.0</ele><time>2026-04-17T09:34:52Z</time></trkpt><trkpt lat="46.002822978181136" lon="11.837074864919739"><ele>318.0</ele><time>2026-04-17T09:34:53Z</time></trkpt><trkpt lat="46.00272278547899" lon="11.83689779181188"><ele>318.0</ele><time>2026-04-17T09:34:54Z</time></trkpt><trkpt lat="46.00264131055275" lon="11.836713776963494"><ele>318.0</ele><time>2026-04-17T09:34:55Z</time></trkpt><trkpt lat="46.00255678441531" lon="11.836479818529487"><ele>318.0</ele><time>2026-04-17T09:34:56Z</time></trkpt><trkpt lat="46.002465007687405" lon="11.836221813754323"><ele>318.0</ele><time>2026-04-17T09:34:57Z</time></trkpt><trkpt lat="46.00239031757278" lon="11.835981225566648"><ele>318.0</ele><time>2026-04-17T09:34:58Z</time></trkpt><trkpt lat="46.00234303476172" lon="11.835728292901582"><ele>318.0</ele><time>2026-04-17T09:34:58.999Z</time></trkpt><trkpt lat="46.002310100994315" lon="11.83543833947188"><ele>318.0</ele><time>2026-04-17T09:34:59.999Z</time></trkpt><trkpt lat="46.00229197638626" lon="11.835128102897238"><ele>318.0</ele><time>2026-04-17T09:35:00.999Z</time></trkpt><trkpt lat="46.0022745768968" lon="11.834805348138643"><ele>318.0</ele><time>2026-04-17T09:35:01.999Z</time></trkpt><trkpt lat="46.00225734208943" lon="11.83447518269073"><ele>318.0</ele><time>2026-04-17T09:35:02.999Z</time></trkpt><trkpt lat="46.002246485769355" lon="11.834162992221348"><ele>318.0</ele><time>2026-04-17T09:35:03.999Z</time></trkpt><trkpt lat="46.00224091515313" lon="11.833836642761558"><ele>318.0</ele><time>2026-04-17T09:35:04.999Z</time></trkpt><trkpt lat="46.00223392042581" lon="11.833479584834796"><ele>318.0</ele><time>2026-04-17T09:35:05.999Z</time></trkpt><trkpt lat="46.002244735817" lon="11.83309575835902"><ele>318.0</ele><time>2026-04-17T09:35:06.999Z</time></trkpt><trkpt lat="46.00223881348352" lon="11.832702385818942"><ele>318.0</ele><time>2026-04-17T09:35:07.999Z</time></trkpt><trkpt lat="46.00223277254261" lon="11.832309562800754"><ele>318.0</ele><time>2026-04-17T09:35:08.999Z</time></trkpt><trkpt lat="46.00222719657698" lon="11.83191192316832"><ele>317.5</ele><time>2026-04-17T09:35:09.999Z</time></trkpt><trkpt lat="46.00220859373424" lon="11.831552815794867"><ele>317.0</ele><time>2026-04-17T09:35:10.999Z</time></trkpt><trkpt lat="46.0022013509044" lon="11.831225084507317"><ele>317.33333333333337</ele><time>2026-04-17T09:35:11.999Z</time></trkpt><trkpt lat="46.00219788588578" lon="11.83093386686195"><ele>317.6666666666667</ele><time>2026-04-17T09:35:12.999Z</time></trkpt><trkpt lat="46.00219568374724" lon="11.830652044048767"><ele>318.0</ele><time>2026-04-17T09:35:13.999Z</time></trkpt><trkpt lat="46.002190332760996" lon="11.830379736828851"><ele>317.3333333333333</ele><time>2026-04-17T09:35:14.999Z</time></trkpt><trkpt lat="46.002187779213905" lon="11.83011188586982"><ele>316.66666666666663</ele><time>2026-04-17T09:35:15.999Z</time></trkpt><trkpt lat="46.00218717440131" lon="11.829837592539961"><ele>316.0</ele><time>2026-04-17T09:35:16.999Z</time></trkpt><trkpt lat="46.00218137656502" lon="11.829536663634233"><ele>315.0</ele><time>2026-04-17T09:35:17.999Z</time></trkpt><trkpt lat="46.002185276026125" lon="11.829192158148222"><ele>314.0</ele><time>2026-04-17T09:35:18.999Z</time></trkpt><trkpt lat="46.002179347292525" lon="11.828821294318487"><ele>314.0</ele><time>2026-04-17T09:35:19.999Z</time></trkpt><trkpt lat="46.00216290166063" lon="11.828463947978928"><ele>314.0</ele><time>2026-04-17T09:35:21Z</time></trkpt><trkpt lat="46.00215930622917" lon="11.828135004991928"><ele>314.0</ele><time>2026-04-17T09:35:22Z</time></trkpt><trkpt lat="46.00215448132304" lon="11.827826016695655"><ele>314.0</ele><time>2026-04-17T09:35:23Z</time></trkpt><trkpt lat="46.0021490904432" lon="11.827525080454945"><ele>314.0</ele><time>2026-04-17T09:35:24Z</time></trkpt><trkpt lat="46.002143856007685" lon="11.82722506760508"><ele>314.33333333333337</ele><time>2026-04-17T09:35:25Z</time></trkpt><trkpt lat="46.002138170017076" lon="11.826921979560566"><ele>314.6666666666667</ele><time>2026-04-17T09:35:26Z</time></trkpt><trkpt lat="46.00213368563839" lon="11.826619071083236"><ele>315.0</ele><time>2026-04-17T09:35:27Z</time></trkpt><trkpt lat="46.002128552182384" lon="11.826326216453959"><ele>315.3333333333333</ele><time>2026-04-17T09:35:28Z</time></trkpt><trkpt lat="46.002124845845444" lon="11.826041032180148"><ele>315.66666666666663</ele><time>2026-04-17T09:35:29Z</time></trkpt><trkpt lat="46.00211896325889" lon="11.825753171597189"><ele>316.0</ele><time>2026-04-17T09:35:30Z</time></trkpt><trkpt lat="46.00211150429549" lon="11.825461656719716"><ele>315.0</ele><time>2026-04-17T09:35:31Z</time></trkpt><trkpt lat="46.002106866521636" lon="11.82514790180853"><ele>314.0</ele><time>2026-04-17T09:35:32Z</time></trkpt><trkpt lat="46.00211711941875" lon="11.824809615665398"><ele>313.5</ele><time>2026-04-17T09:35:33Z</time></trkpt><trkpt lat="46.00211165163287" lon="11.824444888733932"><ele>313.0</ele><time>2026-04-17T09:35:34Z</time></trkpt><trkpt lat="46.00210590058345" lon="11.824061266689117"><ele>312.0</ele><time>2026-04-17T09:35:35Z</time></trkpt><trkpt lat="46.00209982014505" lon="11.823655672905357"><ele>311.0</ele><time>2026-04-17T09:35:36Z</time></trkpt><trkpt lat="46.00208354137522" lon="11.823259359440597"><ele>310.0</ele><time>2026-04-17T09:35:37Z</time></trkpt><trkpt lat="46.00208314791735" lon="11.822833462486615"><ele>309.0</ele><time>2026-04-17T09:35:38Z</time></trkpt><trkpt lat="46.00207381165905" lon="11.822388431223263"><ele>309.0</ele><time>2026-04-17T09:35:39Z</time></trkpt><trkpt lat="46.002065496756146" lon="11.821929654937437"><ele>309.0</ele><time>2026-04-17T09:35:40Z</time></trkpt><trkpt lat="46.00205594283114" lon="11.821459547802553"><ele>307.5</ele><time>2026-04-17T09:35:41Z</time></trkpt><trkpt lat="46.00204853155307" lon="11.82098132174994"><ele>306.0</ele><time>2026-04-17T09:35:42Z</time></trkpt><trkpt lat="46.00203866678879" lon="11.820493606105112"><ele>305.5</ele><time>2026-04-17T09:35:43Z</time></trkpt><trkpt lat="46.00203257028829" lon="11.82003213876523"><ele>305.0</ele><time>2026-04-17T09:35:44Z</time></trkpt><trkpt lat="46.002025886852" lon="11.819587367409365"><ele>305.0</ele><time>2026-04-17T09:35:45Z</time></trkpt><trkpt lat="46.002017950177844" lon="11.819138280560013"><ele>305.0</ele><time>2026-04-17T09:35:46Z</time></trkpt><trkpt lat="46.00201098511722" lon="11.81869141925376"><ele>304.0</ele><time>2026-04-17T09:35:47Z</time></trkpt><trkpt lat="46.002002737971736" lon="11.818249420542987"><ele>303.0</ele><time>2026-04-17T09:35:48Z</time></trkpt><trkpt lat="46.00201333725593" lon="11.817811098862565"><ele>303.0</ele><time>2026-04-17T09:35:49Z</time></trkpt><trkpt lat="46.00200697024447" lon="11.817380023671735"><ele>303.0</ele><time>2026-04-17T09:35:50Z</time></trkpt><trkpt lat="46.00200045965707" lon="11.816954806653921"><ele>303.0</ele><time>2026-04-17T09:35:51Z</time></trkpt><trkpt lat="46.00199385982106" lon="11.816536692444926"><ele>303.0</ele><time>2026-04-17T09:35:52Z</time></trkpt><trkpt lat="46.001972135160926" lon="11.816125144711496"><ele>301.5</ele><time>2026-04-17T09:35:53Z</time></trkpt><trkpt lat="46.001966761131605" lon="11.815719982844868"><ele>300.0</ele><time>2026-04-17T09:35:54Z</time></trkpt><trkpt lat="46.001962718541044" lon="11.815365386274065"><ele>299.6666666666667</ele><time>2026-04-17T09:35:55Z</time></trkpt><trkpt lat="46.00196586959666" lon="11.815064346834975"><ele>299.33333333333337</ele><time>2026-04-17T09:35:56Z</time></trkpt><trkpt lat="46.00196513038408" lon="11.814784331096945"><ele>299.0</ele><time>2026-04-17T09:35:57Z</time></trkpt><trkpt lat="46.001962907298264" lon="11.814510913267881"><ele>298.6666666666667</ele><time>2026-04-17T09:35:58Z</time></trkpt><trkpt lat="46.00195953934552" lon="11.814248969794283"><ele>298.3333333333333</ele><time>2026-04-17T09:35:59Z</time></trkpt><trkpt lat="46.00195006166752" lon="11.813980688509142"><ele>298.0</ele><time>2026-04-17T09:36:00Z</time></trkpt><trkpt lat="46.001941708004594" lon="11.813686978460805"><ele>298.0</ele><time>2026-04-17T09:36:01Z</time></trkpt><trkpt lat="46.00193723805241" lon="11.813364205099433"><ele>298.0</ele><time>2026-04-17T09:36:02Z</time></trkpt><trkpt lat="46.00192603896045" lon="11.812998320873858"><ele>296.0</ele><time>2026-04-17T09:36:03Z</time></trkpt><trkpt lat="46.00193053023838" lon="11.812616531926034"><ele>294.0</ele><time>2026-04-17T09:36:04Z</time></trkpt><trkpt lat="46.00191530941237" lon="11.812205723140563"><ele>293.0</ele><time>2026-04-17T09:36:05Z</time></trkpt><trkpt lat="46.001891835937386" lon="11.811811367281503"><ele>292.0</ele><time>2026-04-17T09:36:06Z</time></trkpt><trkpt lat="46.00185906064506" lon="11.81146689910946"><ele>292.0</ele><time>2026-04-17T09:36:07Z</time></trkpt><trkpt lat="46.00184813531532" lon="11.811163809896525"><ele>292.0</ele><time>2026-04-17T09:36:08Z</time></trkpt><trkpt lat="46.00182873345841" lon="11.81089586058732"><ele>292.0</ele><time>2026-04-17T09:36:09Z</time></trkpt><trkpt lat="46.00180803896831" lon="11.810646675194596"><ele>292.3333333333333</ele><time>2026-04-17T09:36:10Z</time></trkpt><trkpt lat="46.001789225362444" lon="11.81040845664466"><ele>292.6666666666667</ele><time>2026-04-17T09:36:11Z</time></trkpt><trkpt lat="46.00177134572279" lon="11.810168828415431"><ele>293.0</ele><time>2026-04-17T09:36:12Z</time></trkpt><trkpt lat="46.001752989680625" lon="11.809919016747081"><ele>293.0</ele><time>2026-04-17T09:36:13Z</time></trkpt><trkpt lat="46.00173360625665" lon="11.809657718025152"><ele>293.0</ele><time>2026-04-17T09:36:14Z</time></trkpt><trkpt lat="46.00170973750947" lon="11.809363309640363"><ele>293.0</ele><time>2026-04-17T09:36:15Z</time></trkpt><trkpt lat="46.00168362141615" lon="11.809034165899558"><ele>293.0</ele><time>2026-04-17T09:36:16Z</time></trkpt><trkpt lat="46.00165913662062" lon="11.808672877613825"><ele>293.0</ele><time>2026-04-17T09:36:17Z</time></trkpt><trkpt lat="46.001631788728425" lon="11.808335106312894"><ele>293.0</ele><time>2026-04-17T09:36:18Z</time></trkpt><trkpt lat="46.001604723470635" lon="11.808009485791867"><ele>293.0</ele><time>2026-04-17T09:36:19Z</time></trkpt><trkpt lat="46.00155885196115" lon="11.807653406126121"><ele>292.5</ele><time>2026-04-17T09:36:20Z</time></trkpt><trkpt lat="46.0014948159659" lon="11.807284309393289"><ele>292.0</ele><time>2026-04-17T09:36:21Z</time></trkpt><trkpt lat="46.00140860138623" lon="11.806910937661273"><ele>293.0</ele><time>2026-04-17T09:36:22Z</time></trkpt><trkpt lat="46.00130244049684" lon="11.806535844582495"><ele>294.0</ele><time>2026-04-17T09:36:23Z</time></trkpt><trkpt lat="46.001175832544284" lon="11.806161945283607"><ele>294.5</ele><time>2026-04-17T09:36:24Z</time></trkpt><trkpt lat="46.001028406543995" lon="11.805802258673667"><ele>295.0</ele><time>2026-04-17T09:36:25Z</time></trkpt><trkpt lat="46.00087249915303" lon="11.805470801272394"><ele>301.0</ele><time>2026-04-17T09:36:26Z</time></trkpt><trkpt lat="46.000699353918385" lon="11.805173878341678"><ele>307.0</ele><time>2026-04-17T09:36:27Z</time></trkpt><trkpt lat="46.00050916448765" lon="11.80489551770324"><ele>307.0</ele><time>2026-04-17T09:36:28Z</time></trkpt><trkpt lat="46.00031342985406" lon="11.804597003196127"><ele>307.0</ele><time>2026-04-17T09:36:29Z</time></trkpt><trkpt lat="46.00009752227625" lon="11.804304559566459"><ele>304.0</ele><time>2026-04-17T09:36:30Z</time></trkpt><trkpt lat="45.9998962501446" lon="11.804036224474155"><ele>301.0</ele><time>2026-04-17T09:36:31Z</time></trkpt><trkpt lat="45.9997018333501" lon="11.803778232948018"><ele>301.0</ele><time>2026-04-17T09:36:32Z</time></trkpt><trkpt lat="45.99949429862452" lon="11.803530295641396"><ele>301.0</ele><time>2026-04-17T09:36:33Z</time></trkpt><trkpt lat="45.999292623455844" lon="11.803265535125117"><ele>305.5</ele><time>2026-04-17T09:36:34Z</time></trkpt><trkpt lat="45.99909530784754" lon="11.80299238683351"><ele>310.0</ele><time>2026-04-17T09:36:35Z</time></trkpt><trkpt lat="45.998903458075425" lon="11.802720313317355"><ele>302.5</ele><time>2026-04-17T09:36:36Z</time></trkpt><trkpt lat="45.998719086380994" lon="11.802446552580129"><ele>295.0</ele><time>2026-04-17T09:36:37Z</time></trkpt><trkpt lat="45.998533809728826" lon="11.802168540809022"><ele>295.0</ele><time>2026-04-17T09:36:38Z</time></trkpt><trkpt lat="45.99834624904744" lon="11.80187661867095"><ele>295.0</ele><time>2026-04-17T09:36:39Z</time></trkpt><trkpt lat="45.99815046323486" lon="11.801565119716559"><ele>295.0</ele><time>2026-04-17T09:36:40Z</time></trkpt><trkpt lat="45.9979597538287" lon="11.801226424123179"><ele>295.0</ele><time>2026-04-17T09:36:41.001Z</time></trkpt><trkpt lat="45.99775281391435" lon="11.800893908350414"><ele>292.5</ele><time>2026-04-17T09:36:42.001Z</time></trkpt><trkpt lat="45.99752942936773" lon="11.800563953288538"><ele>290.0</ele><time>2026-04-17T09:36:43.001Z</time></trkpt><trkpt lat="45.99731776844259" lon="11.800205887481999"><ele>293.0</ele><time>2026-04-17T09:36:44.001Z</time></trkpt><trkpt lat="45.99709742490209" lon="11.799855687476663"><ele>296.0</ele><time>2026-04-17T09:36:45.001Z</time></trkpt><trkpt lat="45.99689178941398" lon="11.799530355458444"><ele>293.5</ele><time>2026-04-17T09:36:46.001Z</time></trkpt><trkpt lat="45.996694330116476" lon="11.79921934304694"><ele>291.0</ele><time>2026-04-17T09:36:47.001Z</time></trkpt><trkpt lat="45.996496037594355" lon="11.798905710812178"><ele>291.0</ele><time>2026-04-17T09:36:48.001Z</time></trkpt><trkpt lat="45.99629792917445" lon="11.798589176887972"><ele>291.0</ele><time>2026-04-17T09:36:49.001Z</time></trkpt><trkpt lat="45.99609691583454" lon="11.798271074410122"><ele>289.5</ele><time>2026-04-17T09:36:50.001Z</time></trkpt><trkpt lat="45.99590649797947" lon="11.797932087965764"><ele>288.0</ele><time>2026-04-17T09:36:51.001Z</time></trkpt><trkpt lat="45.995694609650116" lon="11.79759271111678"><ele>288.0</ele><time>2026-04-17T09:36:52.001Z</time></trkpt><trkpt lat="45.995477209862415" lon="11.797243256816616"><ele>288.0</ele><time>2026-04-17T09:36:53.001Z</time></trkpt><trkpt lat="45.99525847122618" lon="11.79688422991772"><ele>287.5</ele><time>2026-04-17T09:36:54.001Z</time></trkpt><trkpt lat="45.9950399810969" lon="11.796518138064101"><ele>287.0</ele><time>2026-04-17T09:36:55.001Z</time></trkpt><trkpt lat="45.99483206250409" lon="11.796154053043432"><ele>285.0</ele><time>2026-04-17T09:36:56.001Z</time></trkpt><trkpt lat="45.99464563796623" lon="11.795813798822747"><ele>283.0</ele><time>2026-04-17T09:36:57.001Z</time></trkpt><trkpt lat="45.994477332145664" lon="11.795487869837714"><ele>283.0</ele><time>2026-04-17T09:36:58.001Z</time></trkpt><trkpt lat="45.99430553442581" lon="11.795189396818362"><ele>283.0</ele><time>2026-04-17T09:36:59.001Z</time></trkpt><trkpt lat="45.99416969674037" lon="11.794867311816498"><ele>282.5</ele><time>2026-04-17T09:37:00.001Z</time></trkpt><trkpt lat="45.994014452166226" lon="11.7945407754404"><ele>282.0</ele><time>2026-04-17T09:37:01.001Z</time></trkpt><trkpt lat="45.993849090850375" lon="11.794192960091282"><ele>282.0</ele><time>2026-04-17T09:37:02.001Z</time></trkpt><trkpt lat="45.993686311490436" lon="11.793848890895735"><ele>282.0</ele><time>2026-04-17T09:37:03.001Z</time></trkpt><trkpt lat="45.993536405164605" lon="11.793530997058665"><ele>281.5</ele><time>2026-04-17T09:37:04.001Z</time></trkpt><trkpt lat="45.99340299349991" lon="11.79324920862435"><ele>281.0</ele><time>2026-04-17T09:37:05Z</time></trkpt><trkpt lat="45.993276238714365" lon="11.79300021753536"><ele>280.33333333333337</ele><time>2026-04-17T09:37:06Z</time></trkpt><trkpt lat="45.99313794710437" lon="11.792780900023864"><ele>279.6666666666667</ele><time>2026-04-17T09:37:07Z</time></trkpt><trkpt lat="45.99299614356344" lon="11.792542040477597"><ele>279.0</ele><time>2026-04-17T09:37:08Z</time></trkpt><trkpt lat="45.99281335438207" lon="11.792306860544143"><ele>279.0</ele><time>2026-04-17T09:37:09Z</time></trkpt><trkpt lat="45.99260192138881" lon="11.79207771141143"><ele>279.0</ele><time>2026-04-17T09:37:10Z</time></trkpt><trkpt lat="45.99240872175679" lon="11.791889015049046"><ele>280.5</ele><time>2026-04-17T09:37:11Z</time></trkpt><trkpt lat="45.99221909413816" lon="11.791713743157972"><ele>282.0</ele><time>2026-04-17T09:37:12Z</time></trkpt><trkpt lat="45.99202782656136" lon="11.791538996759742"><ele>282.0</ele><time>2026-04-17T09:37:13Z</time></trkpt><trkpt lat="45.991846438484735" lon="11.791372545190699"><ele>282.0</ele><time>2026-04-17T09:37:14Z</time></trkpt><trkpt lat="45.991675253613565" lon="11.79121169098372"><ele>282.0</ele><time>2026-04-17T09:37:15Z</time></trkpt><trkpt lat="45.99149663216588" lon="11.791037856519958"><ele>283.5</ele><time>2026-04-17T09:37:16Z</time></trkpt><trkpt lat="45.99130148182612" lon="11.79083565063416"><ele>285.0</ele><time>2026-04-17T09:37:17Z</time></trkpt><trkpt lat="45.99110052191011" lon="11.79061096272341"><ele>285.0</ele><time>2026-04-17T09:37:18Z</time></trkpt><trkpt lat="45.99089719918541" lon="11.790362405353319"><ele>285.0</ele><time>2026-04-17T09:37:19Z</time></trkpt><trkpt lat="45.99069423832844" lon="11.790088068905852"><ele>288.0</ele><time>2026-04-17T09:37:20Z</time></trkpt><trkpt lat="45.99050725493655" lon="11.789826899771791"><ele>291.0</ele><time>2026-04-17T09:37:21Z</time></trkpt><trkpt lat="45.99033373728983" lon="11.789571890869674"><ele>290.6666666666667</ele><time>2026-04-17T09:37:22Z</time></trkpt><trkpt lat="45.990175911264735" lon="11.78933721589089"><ele>290.33333333333337</ele><time>2026-04-17T09:37:23Z</time></trkpt><trkpt lat="45.99002841713796" lon="11.789126764562123"><ele>290.0</ele><time>2026-04-17T09:37:24Z</time></trkpt><trkpt lat="45.98985661226646" lon="11.788945933595551"><ele>290.0</ele><time>2026-04-17T09:37:25Z</time></trkpt><trkpt lat="45.98968717399443" lon="11.788750760480267"><ele>290.0</ele><time>2026-04-17T09:37:26Z</time></trkpt><trkpt lat="45.98950052601876" lon="11.788573263125505"><ele>290.0</ele><time>2026-04-17T09:37:27Z</time></trkpt><trkpt lat="45.98931504476302" lon="11.78842988214957"><ele>287.33333333333337</ele><time>2026-04-17T09:37:28Z</time></trkpt><trkpt lat="45.98913762967867" lon="11.788309030524587"><ele>284.6666666666667</ele><time>2026-04-17T09:37:29Z</time></trkpt><trkpt lat="45.9889673858356" lon="11.788193625351184"><ele>282.0</ele><time>2026-04-17T09:37:30Z</time></trkpt><trkpt lat="45.98878755823093" lon="11.788073098175143"><ele>282.0</ele><time>2026-04-17T09:37:31Z</time></trkpt><trkpt lat="45.988637049663566" lon="11.78791051389401"><ele>282.0</ele><time>2026-04-17T09:37:32Z</time></trkpt><trkpt lat="45.988464636538204" lon="11.787799902338158"><ele>282.0</ele><time>2026-04-17T09:37:33Z</time></trkpt><trkpt lat="45.988278598161195" lon="11.787683434672795"><ele>281.0</ele><time>2026-04-17T09:37:34Z</time></trkpt><trkpt lat="45.98808964415124" lon="11.787563993251126"><ele>280.0</ele><time>2026-04-17T09:37:35Z</time></trkpt><trkpt lat="45.987911820302664" lon="11.787451335514138"><ele>279.0</ele><time>2026-04-17T09:37:36Z</time></trkpt><trkpt lat="45.98773323520858" lon="11.78733788673167"><ele>279.0</ele><time>2026-04-17T09:37:37Z</time></trkpt><trkpt lat="45.987557042253215" lon="11.787225836843609"><ele>279.0</ele><time>2026-04-17T09:37:38Z</time></trkpt><trkpt lat="45.98737962671406" lon="11.787112562395276"><ele>279.0</ele><time>2026-04-17T09:37:39Z</time></trkpt><trkpt lat="45.98719528274756" lon="11.786994864596272"><ele>278.0</ele><time>2026-04-17T09:37:40Z</time></trkpt><trkpt lat="45.98699063829013" lon="11.786865088198795"><ele>277.0</ele><time>2026-04-17T09:37:41Z</time></trkpt><trkpt lat="45.98675824341013" lon="11.78671778156933"><ele>275.0</ele><time>2026-04-17T09:37:42Z</time></trkpt><trkpt lat="45.986509613753555" lon="11.786560823205022"><ele>273.0</ele><time>2026-04-17T09:37:43Z</time></trkpt><trkpt lat="45.98624370134204" lon="11.786392672704638"><ele>273.0</ele><time>2026-04-17T09:37:44Z</time></trkpt><trkpt lat="45.9859640886885" lon="11.786215858753708"><ele>273.0</ele><time>2026-04-17T09:37:45Z</time></trkpt><trkpt lat="45.98568627177942" lon="11.786040180401063"><ele>271.5</ele><time>2026-04-17T09:37:46Z</time></trkpt><trkpt lat="45.98539944141995" lon="11.785858802333196"><ele>270.0</ele><time>2026-04-17T09:37:47Z</time></trkpt><trkpt lat="45.98510418870166" lon="11.785672364559897"><ele>270.0</ele><time>2026-04-17T09:37:48Z</time></trkpt><trkpt lat="45.984829579542996" lon="11.78549919693525"><ele>270.0</ele><time>2026-04-17T09:37:49Z</time></trkpt><trkpt lat="45.98457807412243" lon="11.785336502032772"><ele>269.5</ele><time>2026-04-17T09:37:50Z</time></trkpt><trkpt lat="45.98432983423138" lon="11.78517774749318"><ele>269.0</ele><time>2026-04-17T09:37:51Z</time></trkpt><trkpt lat="45.98410198257888" lon="11.784977941111382"><ele>269.0</ele><time>2026-04-17T09:37:52Z</time></trkpt><trkpt lat="45.983888787583375" lon="11.784761472692447"><ele>269.0</ele><time>2026-04-17T09:37:53Z</time></trkpt><trkpt lat="45.98369128627232" lon="11.78452928513029"><ele>269.0</ele><time>2026-04-17T09:37:54Z</time></trkpt><trkpt lat="45.98350053042478" lon="11.78427905586059"><ele>269.0</ele><time>2026-04-17T09:37:55Z</time></trkpt><trkpt lat="45.98332244990066" lon="11.784009750808167"><ele>269.0</ele><time>2026-04-17T09:37:56Z</time></trkpt><trkpt lat="45.98316016751383" lon="11.783726404679168"><ele>269.0</ele><time>2026-04-17T09:37:57Z</time></trkpt><trkpt lat="45.98301126957697" lon="11.78341847539868"><ele>269.0</ele><time>2026-04-17T09:37:58Z</time></trkpt><trkpt lat="45.9828702176813" lon="11.783086125001956"><ele>269.0</ele><time>2026-04-17T09:37:59Z</time></trkpt><trkpt lat="45.982745856610315" lon="11.78273421397776"><ele>269.0</ele><time>2026-04-17T09:38:00Z</time></trkpt><trkpt lat="45.98263677074118" lon="11.782362447548167"><ele>269.0</ele><time>2026-04-17T09:38:01Z</time></trkpt><trkpt lat="45.9825367860015" lon="11.781964690142674"><ele>277.0</ele><time>2026-04-17T09:38:02Z</time></trkpt><trkpt lat="45.98243407396045" lon="11.7815544548538"><ele>285.0</ele><time>2026-04-17T09:38:03Z</time></trkpt><trkpt lat="45.98233535239461" lon="11.781129606162615"><ele>308.5</ele><time>2026-04-17T09:38:04Z</time></trkpt><trkpt lat="45.9822358368447" lon="11.780703559928392"><ele>332.0</ele><time>2026-04-17T09:38:05Z</time></trkpt><trkpt lat="45.98213352660014" lon="11.780270853249501"><ele>348.0</ele><time>2026-04-17T09:38:06.016Z</time></trkpt><trkpt lat="45.98203835152443" lon="11.779870912460979"><ele>364.0</ele><time>2026-04-17T09:38:07.018Z</time></trkpt><trkpt lat="45.98192706599757" lon="11.77947033728685"><ele>369.5</ele><time>2026-04-17T09:38:08.015Z</time></trkpt><trkpt lat="45.9818059053558" lon="11.779062587218176"><ele>375.0</ele><time>2026-04-17T09:38:09.018Z</time></trkpt><trkpt lat="45.980971008582024" lon="11.776911495264411"><ele>322.5</ele><time>2026-04-17T09:38:14.001Z</time></trkpt><trkpt lat="45.98080859916231" lon="11.776528182717962"><ele>270.0</ele><time>2026-04-17T09:38:15.001Z</time></trkpt><trkpt lat="45.98062717279061" lon="11.776254514660467"><ele>271.5</ele><time>2026-04-17T09:38:16.001Z</time></trkpt><trkpt lat="45.980485629701676" lon="11.775902992888213"><ele>273.0</ele><time>2026-04-17T09:38:17.001Z</time></trkpt><trkpt lat="45.980364149384144" lon="11.775524817672354"><ele>273.0</ele><time>2026-04-17T09:38:18.001Z</time></trkpt><trkpt lat="45.98025909449724" lon="11.775148813159147"><ele>273.0</ele><time>2026-04-17T09:38:19.001Z</time></trkpt><trkpt lat="45.98017970450388" lon="11.774755113570022"><ele>273.0</ele><time>2026-04-17T09:38:20.001Z</time></trkpt><trkpt lat="45.98012130953394" lon="11.774363848825697"><ele>273.0</ele><time>2026-04-17T09:38:21.001Z</time></trkpt><trkpt lat="45.98009217555385" lon="11.773961522131783"><ele>273.0</ele><time>2026-04-17T09:38:22.001Z</time></trkpt><trkpt lat="45.9800825539386" lon="11.773567264292572"><ele>273.0</ele><time>2026-04-17T09:38:23.001Z</time></trkpt><trkpt lat="45.98009413278448" lon="11.773126511399072"><ele>278.0</ele><time>2026-04-17T09:38:24.001Z</time></trkpt><trkpt lat="45.980127342427835" lon="11.77268848400415"><ele>283.0</ele><time>2026-04-17T09:38:25.001Z</time></trkpt><trkpt lat="45.98017246336271" lon="11.772242881947973"><ele>284.5</ele><time>2026-04-17T09:38:26.001Z</time></trkpt><trkpt lat="45.980223227920234" lon="11.771783782918384"><ele>286.0</ele><time>2026-04-17T09:38:27.001Z</time></trkpt><trkpt lat="45.980266574639536" lon="11.771315589054634"><ele>288.0</ele><time>2026-04-17T09:38:28.001Z</time></trkpt><trkpt lat="45.98028715667793" lon="11.770847439100487"><ele>290.0</ele><time>2026-04-17T09:38:29.001Z</time></trkpt><trkpt lat="45.98028455581863" lon="11.770400278415782"><ele>294.5</ele><time>2026-04-17T09:38:30.001Z</time></trkpt><trkpt lat="45.98026202090813" lon="11.769932835175519"><ele>299.0</ele><time>2026-04-17T09:38:31.001Z</time></trkpt><trkpt lat="45.98024463274321" lon="11.769459435842567"><ele>302.0</ele><time>2026-04-17T09:38:32.001Z</time></trkpt><trkpt lat="45.98022807332484" lon="11.768971309098646"><ele>305.0</ele><time>2026-04-17T09:38:33.001Z</time></trkpt><trkpt lat="45.980213533169" lon="11.768470772766786"><ele>307.5</ele><time>2026-04-17T09:38:34.001Z</time></trkpt><trkpt lat="45.98019701131021" lon="11.767963326804631"><ele>310.0</ele><time>2026-04-17T09:38:35.001Z</time></trkpt><trkpt lat="45.98017683174037" lon="11.767446383450295"><ele>311.0</ele><time>2026-04-17T09:38:36.001Z</time></trkpt><trkpt lat="45.980156635486935" lon="11.766920814749163"><ele>312.0</ele><time>2026-04-17T09:38:37.001Z</time></trkpt><trkpt lat="45.98013711940174" lon="11.766394781449767"><ele>314.0</ele><time>2026-04-17T09:38:38.001Z</time></trkpt><trkpt lat="45.98012381114597" lon="11.765920156151203"><ele>316.0</ele><time>2026-04-17T09:38:39.001Z</time></trkpt><trkpt lat="45.98011795562724" lon="11.765489257399135"><ele>315.5</ele><time>2026-04-17T09:38:40.001Z</time></trkpt><trkpt lat="45.980116796508185" lon="11.765097948203614"><ele>315.0</ele><time>2026-04-17T09:38:41.017Z</time></trkpt><trkpt lat="45.98011767342966" lon="11.764741261548306"><ele>315.0</ele><time>2026-04-17T09:38:42.02Z</time></trkpt><trkpt lat="45.980118151531435" lon="11.764417270135004"><ele>315.0</ele><time>2026-04-17T09:38:43.018Z</time></trkpt><trkpt lat="45.98012913086555" lon="11.764145639860155"><ele>315.0</ele><time>2026-04-17T09:38:44.001Z</time></trkpt><trkpt lat="45.980059252171806" lon="11.763862353875723"><ele>313.6666666666667</ele><time>2026-04-17T09:38:45.001Z</time></trkpt><trkpt lat="45.98003227408074" lon="11.763603488407277"><ele>312.33333333333337</ele><time>2026-04-17T09:38:46.001Z</time></trkpt><trkpt lat="45.97999378957345" lon="11.763355442468907"><ele>311.0</ele><time>2026-04-17T09:38:47.001Z</time></trkpt><trkpt lat="45.979947198853196" lon="11.763110576679818"><ele>309.6666666666667</ele><time>2026-04-17T09:38:48.001Z</time></trkpt><trkpt lat="45.97988867258422" lon="11.762867057244298"><ele>308.3333333333333</ele><time>2026-04-17T09:38:49.001Z</time></trkpt><trkpt lat="45.979824143133754" lon="11.762617046733336"><ele>307.0</ele><time>2026-04-17T09:38:50.001Z</time></trkpt><trkpt lat="45.97974606504539" lon="11.762373169692626"><ele>306.0</ele><time>2026-04-17T09:38:51.001Z</time></trkpt><trkpt lat="45.979660949496505" lon="11.762129049384644"><ele>305.0</ele><time>2026-04-17T09:38:52.001Z</time></trkpt><trkpt lat="45.979572570378174" lon="11.761896245079578"><ele>304.0</ele><time>2026-04-17T09:38:53.001Z</time></trkpt><trkpt lat="45.97947894984887" lon="11.761676247397862"><ele>303.3333333333333</ele><time>2026-04-17T09:38:54.001Z</time></trkpt><trkpt lat="45.9793764648215" lon="11.761467909712357"><ele>302.6666666666667</ele><time>2026-04-17T09:38:55.001Z</time></trkpt><trkpt lat="45.97926664999493" lon="11.761272947308008"><ele>302.0</ele><time>2026-04-17T09:38:56.001Z</time></trkpt><trkpt lat="45.97915262201999" lon="11.761088987408835"><ele>301.33333333333337</ele><time>2026-04-17T09:38:57.001Z</time></trkpt><trkpt lat="45.97903441616663" lon="11.760913781009178"><ele>300.6666666666667</ele><time>2026-04-17T09:38:58.001Z</time></trkpt><trkpt lat="45.97891196319698" lon="11.760745825753355"><ele>300.0</ele><time>2026-04-17T09:38:59.001Z</time></trkpt><trkpt lat="45.978782189927394" lon="11.760587851638643"><ele>300.0</ele><time>2026-04-17T09:39:00.001Z</time></trkpt><trkpt lat="45.978646524683946" lon="11.76043909418453"><ele>300.0</ele><time>2026-04-17T09:39:01.001Z</time></trkpt><trkpt lat="45.97850486403457" lon="11.760305147578187"><ele>300.0</ele><time>2026-04-17T09:39:02.001Z</time></trkpt><trkpt lat="45.978360692714205" lon="11.76017779198565"><ele>298.6666666666667</ele><time>2026-04-17T09:39:03.001Z</time></trkpt><trkpt lat="45.97821085462455" lon="11.760059045128285"><ele>297.33333333333337</ele><time>2026-04-17T09:39:04.001Z</time></trkpt><trkpt lat="45.97804761057569" lon="11.759940551789631"><ele>296.0</ele><time>2026-04-17T09:39:05.001Z</time></trkpt><trkpt lat="45.977852052480294" lon="11.759825680296279"><ele>296.0</ele><time>2026-04-17T09:39:06.001Z</time></trkpt><trkpt lat="45.977622990813224" lon="11.759732903634074"><ele>296.0</ele><time>2026-04-17T09:39:07.001Z</time></trkpt><trkpt lat="45.97737515077054" lon="11.759648006891071"><ele>300.0</ele><time>2026-04-17T09:39:08.001Z</time></trkpt><trkpt lat="45.97710913108134" lon="11.759529746842746"><ele>304.0</ele><time>2026-04-17T09:39:09.001Z</time></trkpt><trkpt lat="45.97682820742875" lon="11.759465929273455"><ele>309.5</ele><time>2026-04-17T09:39:10.001Z</time></trkpt><trkpt lat="45.976554964765995" lon="11.759415745787052"><ele>315.0</ele><time>2026-04-17T09:39:11.001Z</time></trkpt><trkpt lat="45.97625602370589" lon="11.759390374458055"><ele>303.5</ele><time>2026-04-17T09:39:12.001Z</time></trkpt><trkpt lat="45.97594533224767" lon="11.759339170401068"><ele>292.0</ele><time>2026-04-17T09:39:13.001Z</time></trkpt><trkpt lat="45.97562360528402" lon="11.759287806022007"><ele>292.0</ele><time>2026-04-17T09:39:14.001Z</time></trkpt><trkpt lat="45.97529420730311" lon="11.759236407268219"><ele>292.0</ele><time>2026-04-17T09:39:15.001Z</time></trkpt><trkpt lat="45.974959860440286" lon="11.759183929758036"><ele>293.0</ele><time>2026-04-17T09:39:16.001Z</time></trkpt><trkpt lat="45.97463859670452" lon="11.75913544713216"><ele>294.0</ele><time>2026-04-17T09:39:17.001Z</time></trkpt><trkpt lat="45.974342465065774" lon="11.75909737540529"><ele>297.0</ele><time>2026-04-17T09:39:18.001Z</time></trkpt><trkpt lat="45.974057706270315" lon="11.759059616988152"><ele>300.0</ele><time>2026-04-17T09:39:19.001Z</time></trkpt><trkpt lat="45.97377022316029" lon="11.759017156851927"><ele>300.0</ele><time>2026-04-17T09:39:20.001Z</time></trkpt><trkpt lat="45.97347716278364" lon="11.758948380349208"><ele>300.0</ele><time>2026-04-17T09:39:21.001Z</time></trkpt><trkpt lat="45.973179015398834" lon="11.758902418514866"><ele>297.5</ele><time>2026-04-17T09:39:22.001Z</time></trkpt><trkpt lat="45.972873340927045" lon="11.7588616489964"><ele>295.0</ele><time>2026-04-17T09:39:23.001Z</time></trkpt><trkpt lat="45.97257697453075" lon="11.758822209541195"><ele>295.5</ele><time>2026-04-17T09:39:24Z</time></trkpt><trkpt lat="45.97230489559262" lon="11.75876941494835"><ele>296.0</ele><time>2026-04-17T09:39:25Z</time></trkpt><trkpt lat="45.97203215538677" lon="11.758718611857757"><ele>296.0</ele><time>2026-04-17T09:39:26Z</time></trkpt><trkpt lat="45.971769701897095" lon="11.758585960714102"><ele>296.0</ele><time>2026-04-17T09:39:27Z</time></trkpt><trkpt lat="45.971516620409346" lon="11.758447184093487"><ele>293.0</ele><time>2026-04-17T09:39:28Z</time></trkpt><trkpt lat="45.971259076893396" lon="11.758299608017666"><ele>290.0</ele><time>2026-04-17T09:39:29Z</time></trkpt><trkpt lat="45.971024455280535" lon="11.758111599869522"><ele>289.5</ele><time>2026-04-17T09:39:30Z</time></trkpt><trkpt lat="45.97080731819369" lon="11.75791334680017"><ele>289.0</ele><time>2026-04-17T09:39:31Z</time></trkpt><trkpt lat="45.970618038250194" lon="11.75769665996212"><ele>287.5</ele><time>2026-04-17T09:39:32Z</time></trkpt><trkpt lat="45.970436469365104" lon="11.757446039640222"><ele>286.0</ele><time>2026-04-17T09:39:33Z</time></trkpt><trkpt lat="45.97026566092898" lon="11.757174258560894"><ele>285.0</ele><time>2026-04-17T09:39:34Z</time></trkpt><trkpt lat="45.97010328760301" lon="11.756868449281356"><ele>284.0</ele><time>2026-04-17T09:39:35Z</time></trkpt><trkpt lat="45.969946396949325" lon="11.756537133977536"><ele>284.0</ele><time>2026-04-17T09:39:36Z</time></trkpt><trkpt lat="45.9697898334321" lon="11.756188114390202"><ele>284.0</ele><time>2026-04-17T09:39:37Z</time></trkpt><trkpt lat="45.969627916878835" lon="11.7558340290496"><ele>284.0</ele><time>2026-04-17T09:39:38Z</time></trkpt><trkpt lat="45.96946216013137" lon="11.755475472872268"><ele>284.0</ele><time>2026-04-17T09:39:39Z</time></trkpt><trkpt lat="45.969291931345495" lon="11.755114827063764"><ele>286.0</ele><time>2026-04-17T09:39:40Z</time></trkpt><trkpt lat="45.969125515652536" lon="11.754755750148318"><ele>288.0</ele><time>2026-04-17T09:39:41Z</time></trkpt><trkpt lat="45.96896891295115" lon="11.754418704656052"><ele>296.0</ele><time>2026-04-17T09:39:42Z</time></trkpt><trkpt lat="45.968819699796306" lon="11.75408904214842"><ele>304.0</ele><time>2026-04-17T09:39:43Z</time></trkpt><trkpt lat="45.96866832345947" lon="11.753764341063423"><ele>325.0</ele><time>2026-04-17T09:39:44Z</time></trkpt><trkpt lat="45.968521866193164" lon="11.753408585539924"><ele>346.0</ele><time>2026-04-17T09:39:45Z</time></trkpt><trkpt lat="45.968348231782464" lon="11.753029471463444"><ele>370.0</ele><time>2026-04-17T09:39:46.02Z</time></trkpt><trkpt lat="45.968170798784634" lon="11.752642965328997"><ele>394.0</ele><time>2026-04-17T09:39:47.02Z</time></trkpt><trkpt lat="45.96798732364504" lon="11.752243297910178"><ele>407.0</ele><time>2026-04-17T09:39:48.019Z</time></trkpt><trkpt lat="45.96779935568394" lon="11.751833843321945"><ele>420.0</ele><time>2026-04-17T09:39:49.02Z</time></trkpt><trkpt lat="45.96760439321952" lon="11.751408727007211"><ele>566.0</ele><time>2026-04-17T09:39:50.02Z</time></trkpt><trkpt lat="45.966177542149666" lon="11.748333246283886"><ele>631.0</ele><time>2026-04-17T09:39:54.872Z</time></trkpt><trkpt lat="45.9658810142638" lon="11.747687192997056"><ele>631.0</ele><time>2026-04-17T09:39:55.871Z</time></trkpt><trkpt lat="45.965584207700445" lon="11.747040532548075"><ele>651.0</ele><time>2026-04-17T09:39:56.871Z</time></trkpt><trkpt lat="45.96528738362467" lon="11.746393833944307"><ele>652.5</ele><time>2026-04-17T09:39:57.871Z</time></trkpt><trkpt lat="45.9650923" lon="11.7459688"><ele>654.0</ele><time>2026-04-17T09:39:58.872Z</time></trkpt><trkpt lat="45.95368116632658" lon="11.720496006320902"><ele>550.25</ele><time>2026-04-17T09:41:52.001Z</time></trkpt><trkpt lat="45.953676805205795" lon="11.720326255769956"><ele>446.5</ele><time>2026-04-17T09:41:53.001Z</time></trkpt><trkpt lat="45.953832361441066" lon="11.720419867557816"><ele>342.75</ele><time>2026-04-17T09:41:54.001Z</time></trkpt><trkpt lat="45.95386602842087" lon="11.720282681418013"><ele>239.0</ele><time>2026-04-17T09:41:55.001Z</time></trkpt><trkpt lat="45.95390800356656" lon="11.720161564387654"><ele>236.00000000000003</ele><time>2026-04-17T09:41:56.001Z</time></trkpt><trkpt lat="45.95394932628154" lon="11.720056411901531"><ele>233.0</ele><time>2026-04-17T09:41:57.001Z</time></trkpt><trkpt lat="45.95398908382654" lon="11.719953440053303"><ele>230.0</ele><time>2026-04-17T09:41:58.002Z</time></trkpt><trkpt lat="45.95402812609709" lon="11.719854052441313"><ele>227.0</ele><time>2026-04-17T09:41:59.002Z</time></trkpt><trkpt lat="45.95406586385114" lon="11.719752836734948"><ele>224.00000000000003</ele><time>2026-04-17T09:42:00.002Z</time></trkpt><trkpt lat="45.954104942397876" lon="11.719640187859515"><ele>221.0</ele><time>2026-04-17T09:42:01.001Z</time></trkpt><trkpt lat="45.95415242953646" lon="11.719518851005047"><ele>219.33333333333334</ele><time>2026-04-17T09:42:02.001Z</time></trkpt><trkpt lat="45.954202940382245" lon="11.719389331442088"><ele>217.66666666666669</ele><time>2026-04-17T09:42:03.001Z</time></trkpt><trkpt lat="45.95424937662912" lon="11.719273125942184"><ele>216.0</ele><time>2026-04-17T09:42:04.001Z</time></trkpt><trkpt lat="45.95428546548386" lon="11.719163006898139"><ele>214.33333333333331</ele><time>2026-04-17T09:42:05.001Z</time></trkpt><trkpt lat="45.954312666947956" lon="11.71906243642372"><ele>212.66666666666666</ele><time>2026-04-17T09:42:06.001Z</time></trkpt><trkpt lat="45.95433001667857" lon="11.718967965365335"><ele>211.0</ele><time>2026-04-17T09:42:07.001Z</time></trkpt><trkpt lat="45.95436250925324" lon="11.71880027249702"><ele>221.5</ele><time>2026-04-17T09:42:09.001Z</time></trkpt><trkpt lat="45.95437898322376" lon="11.718671217518132"><ele>232.0</ele><time>2026-04-17T09:42:10.001Z</time></trkpt><trkpt lat="45.95439658405792" lon="11.71852615747728"><ele>242.5</ele><time>2026-04-17T09:42:11.001Z</time></trkpt><trkpt lat="45.954414779775554" lon="11.718364860870258"><ele>253.0</ele><time>2026-04-17T09:42:12.001Z</time></trkpt><trkpt lat="45.95444303968659" lon="11.718117214524415"><ele>253.0</ele><time>2026-04-17T09:42:13.001Z</time></trkpt><trkpt lat="45.954474377747985" lon="11.717874629484509"><ele>253.0</ele><time>2026-04-17T09:42:14.001Z</time></trkpt><trkpt lat="45.954505590004764" lon="11.71759508563059"><ele>253.0</ele><time>2026-04-17T09:42:15.001Z</time></trkpt><trkpt lat="45.95452853677637" lon="11.71728878345938"><ele>246.33333333333331</ele><time>2026-04-17T09:42:16.001Z</time></trkpt><trkpt lat="45.95454107106907" lon="11.716985955949365"><ele>239.66666666666669</ele><time>2026-04-17T09:42:17.001Z</time></trkpt><trkpt lat="45.9545521658444" lon="11.716649926263027"><ele>233.0</ele><time>2026-04-17T09:42:18.001Z</time></trkpt><trkpt lat="45.9545718999135" lon="11.716335086060072"><ele>226.5</ele><time>2026-04-17T09:42:19.001Z</time></trkpt><trkpt lat="45.95459988476624" lon="11.715999595416342"><ele>220.0</ele><time>2026-04-17T09:42:20.001Z</time></trkpt><trkpt lat="45.954632896242806" lon="11.71566956306583"><ele>220.0</ele><time>2026-04-17T09:42:21.001Z</time></trkpt><trkpt lat="45.954674887559015" lon="11.715360475842527"><ele>220.0</ele><time>2026-04-17T09:42:22.001Z</time></trkpt><trkpt lat="45.954722506903984" lon="11.715055517946158"><ele>220.0</ele><time>2026-04-17T09:42:23.001Z</time></trkpt><trkpt lat="45.9547782916864" lon="11.714761353676352"><ele>219.5</ele><time>2026-04-17T09:42:24.001Z</time></trkpt><trkpt lat="45.9548532071445" lon="11.71445464811849"><ele>219.0</ele><time>2026-04-17T09:42:25.001Z</time></trkpt><trkpt lat="45.9549443979726" lon="11.714141400754361"><ele>225.66666666666669</ele><time>2026-04-17T09:42:26.001Z</time></trkpt><trkpt lat="45.955054329292906" lon="11.713860146249194"><ele>232.33333333333334</ele><time>2026-04-17T09:42:27.001Z</time></trkpt><trkpt lat="45.95517635711012" lon="11.713598611769775"><ele>239.0</ele><time>2026-04-17T09:42:28.001Z</time></trkpt><trkpt lat="45.95531630591448" lon="11.713349017435926"><ele>239.0</ele><time>2026-04-17T09:42:29.001Z</time></trkpt><trkpt lat="45.95548329658018" lon="11.71310963675465"><ele>239.0</ele><time>2026-04-17T09:42:30.001Z</time></trkpt><trkpt lat="45.95567803802371" lon="11.712864365171557"><ele>243.0</ele><time>2026-04-17T09:42:31.001Z</time></trkpt><trkpt lat="45.95587069694657" lon="11.712590858219867"><ele>247.0</ele><time>2026-04-17T09:42:32.001Z</time></trkpt><trkpt lat="45.956077034672454" lon="11.712318365596616"><ele>247.0</ele><time>2026-04-17T09:42:33.001Z</time></trkpt><trkpt lat="45.95625532789034" lon="11.712050873721985"><ele>247.0</ele><time>2026-04-17T09:42:34.001Z</time></trkpt><trkpt lat="45.95646414028572" lon="11.711794212583474"><ele>246.0</ele><time>2026-04-17T09:42:35.001Z</time></trkpt><trkpt lat="45.95668148852304" lon="11.7115536460963"><ele>245.0</ele><time>2026-04-17T09:42:36.001Z</time></trkpt><trkpt lat="45.95691206571868" lon="11.711326840011282"><ele>245.0</ele><time>2026-04-17T09:42:37.001Z</time></trkpt><trkpt lat="45.957156754007855" lon="11.71109956905643"><ele>245.0</ele><time>2026-04-17T09:42:38.001Z</time></trkpt><trkpt lat="45.957402414054094" lon="11.710864382586996"><ele>240.0</ele><time>2026-04-17T09:42:39.001Z</time></trkpt><trkpt lat="45.95765838850103" lon="11.710638885318948"><ele>235.0</ele><time>2026-04-17T09:42:40.001Z</time></trkpt><trkpt lat="45.95791590421638" lon="11.710406988244578"><ele>230.5</ele><time>2026-04-17T09:42:41.001Z</time></trkpt><trkpt lat="45.95817985997685" lon="11.71016620514013"><ele>226.0</ele><time>2026-04-17T09:42:42.001Z</time></trkpt><trkpt lat="45.958429917066695" lon="11.709930593220776"><ele>226.0</ele><time>2026-04-17T09:42:43.001Z</time></trkpt><trkpt lat="45.958685018573874" lon="11.709689085138288"><ele>226.0</ele><time>2026-04-17T09:42:44.001Z</time></trkpt><trkpt lat="45.958939211599045" lon="11.709455429868077"><ele>225.0</ele><time>2026-04-17T09:42:45.001Z</time></trkpt><trkpt lat="45.959191683986724" lon="11.709220921998154"><ele>224.0</ele><time>2026-04-17T09:42:46.001Z</time></trkpt><trkpt lat="45.95944811970623" lon="11.708986953462736"><ele>224.0</ele><time>2026-04-17T09:42:47.001Z</time></trkpt><trkpt lat="45.95969988032312" lon="11.70874825144761"><ele>224.0</ele><time>2026-04-17T09:42:48.001Z</time></trkpt><trkpt lat="45.95995458777409" lon="11.708512070560056"><ele>219.0</ele><time>2026-04-17T09:42:49.001Z</time></trkpt><trkpt lat="45.96020712503181" lon="11.708271930219125"><ele>214.0</ele><time>2026-04-17T09:42:50.001Z</time></trkpt><trkpt lat="45.96046143677435" lon="11.708034985068814"><ele>214.0</ele><time>2026-04-17T09:42:51.001Z</time></trkpt><trkpt lat="45.96071202835155" lon="11.707796774855492"><ele>214.0</ele><time>2026-04-17T09:42:52.001Z</time></trkpt><trkpt lat="45.96096282627038" lon="11.707557048947006"><ele>216.0</ele><time>2026-04-17T09:42:53.001Z</time></trkpt><trkpt lat="45.96121418341645" lon="11.707319681020017"><ele>218.0</ele><time>2026-04-17T09:42:54.001Z</time></trkpt><trkpt lat="45.96146520698154" lon="11.707082822111344"><ele>216.0</ele><time>2026-04-17T09:42:55.001Z</time></trkpt><trkpt lat="45.96170712587042" lon="11.706847663221367"><ele>214.0</ele><time>2026-04-17T09:42:56.001Z</time></trkpt><trkpt lat="45.96193257428913" lon="11.70662512577134"><ele>214.0</ele><time>2026-04-17T09:42:57.001Z</time></trkpt><trkpt lat="45.96213967421334" lon="11.706382505202427"><ele>214.0</ele><time>2026-04-17T09:42:58.001Z</time></trkpt><trkpt lat="45.962333604996886" lon="11.706125602063999"><ele>214.5</ele><time>2026-04-17T09:42:59.001Z</time></trkpt><trkpt lat="45.96251909810666" lon="11.705838178512634"><ele>215.0</ele><time>2026-04-17T09:43:00.001Z</time></trkpt><trkpt lat="45.962701456980355" lon="11.705540852734138"><ele>214.5</ele><time>2026-04-17T09:43:01.001Z</time></trkpt><trkpt lat="45.96286834248157" lon="11.705233841823082"><ele>214.0</ele><time>2026-04-17T09:43:02.001Z</time></trkpt><trkpt lat="45.96301928832842" lon="11.704889994262137"><ele>214.0</ele><time>2026-04-17T09:43:03.001Z</time></trkpt><trkpt lat="45.96316514559826" lon="11.704523861442768"><ele>214.0</ele><time>2026-04-17T09:43:04.001Z</time></trkpt><trkpt lat="45.96329668936883" lon="11.704148265059882"><ele>214.0</ele><time>2026-04-17T09:43:05.001Z</time></trkpt><trkpt lat="45.963415286840906" lon="11.703761180589751"><ele>214.0</ele><time>2026-04-17T09:43:06.001Z</time></trkpt><trkpt lat="45.963523401768896" lon="11.703346300179097"><ele>214.0</ele><time>2026-04-17T09:43:07.001Z</time></trkpt><trkpt lat="45.96363382258487" lon="11.702926089349402"><ele>214.0</ele><time>2026-04-17T09:43:08.001Z</time></trkpt><trkpt lat="45.96374386144018" lon="11.702520049414563"><ele>214.0</ele><time>2026-04-17T09:43:09.001Z</time></trkpt><trkpt lat="45.963843645298766" lon="11.702137347734995"><ele>214.0</ele><time>2026-04-17T09:43:10.001Z</time></trkpt><trkpt lat="45.96393248726211" lon="11.701743208016191"><ele>214.5</ele><time>2026-04-17T09:43:11.001Z</time></trkpt><trkpt lat="45.96400231160917" lon="11.701330801237512"><ele>215.0</ele><time>2026-04-17T09:43:12.001Z</time></trkpt><trkpt lat="45.96405440244969" lon="11.700912270547725"><ele>215.0</ele><time>2026-04-17T09:43:13.001Z</time></trkpt><trkpt lat="45.964083354534395" lon="11.700483301598194"><ele>215.0</ele><time>2026-04-17T09:43:14.001Z</time></trkpt><trkpt lat="45.96409625412387" lon="11.700052398855071"><ele>214.5</ele><time>2026-04-17T09:43:15.001Z</time></trkpt><trkpt lat="45.964090103515225" lon="11.69963661190426"><ele>214.0</ele><time>2026-04-17T09:43:16.001Z</time></trkpt><trkpt lat="45.964089807823854" lon="11.699237888595402"><ele>214.0</ele><time>2026-04-17T09:43:17.001Z</time></trkpt><trkpt lat="45.96402450531648" lon="11.698822881245455"><ele>214.0</ele><time>2026-04-17T09:43:18.001Z</time></trkpt><trkpt lat="45.963961181013445" lon="11.698404897075521"><ele>214.0</ele><time>2026-04-17T09:43:19.001Z</time></trkpt><trkpt lat="45.96388050866794" lon="11.697979072312828"><ele>214.0</ele><time>2026-04-17T09:43:20.001Z</time></trkpt><trkpt lat="45.96379140502616" lon="11.697542516005628"><ele>214.5</ele><time>2026-04-17T09:43:21.001Z</time></trkpt><trkpt lat="45.963705311306" lon="11.697105992573517"><ele>215.0</ele><time>2026-04-17T09:43:22.001Z</time></trkpt><trkpt lat="45.96362633520258" lon="11.696681426070446"><ele>215.5</ele><time>2026-04-17T09:43:23.001Z</time></trkpt><trkpt lat="45.96355734656108" lon="11.696280897802602"><ele>216.0</ele><time>2026-04-17T09:43:24.001Z</time></trkpt><trkpt lat="45.96349984582901" lon="11.695892130496578"><ele>216.5</ele><time>2026-04-17T09:43:25.001Z</time></trkpt><trkpt lat="45.96345685647705" lon="11.695492976635535"><ele>217.0</ele><time>2026-04-17T09:43:26.001Z</time></trkpt><trkpt lat="45.9634331365666" lon="11.695085611437472"><ele>217.5</ele><time>2026-04-17T09:43:27.001Z</time></trkpt><trkpt lat="45.963427501007914" lon="11.6946654609497"><ele>218.0</ele><time>2026-04-17T09:43:28.001Z</time></trkpt><trkpt lat="45.96343801354211" lon="11.694238557210554"><ele>218.0</ele><time>2026-04-17T09:43:29.001Z</time></trkpt><trkpt lat="45.96347031692128" lon="11.693814523181121"><ele>218.0</ele><time>2026-04-17T09:43:30.001Z</time></trkpt><trkpt lat="45.963522071585764" lon="11.693402236320884"><ele>218.0</ele><time>2026-04-17T09:43:31.001Z</time></trkpt><trkpt lat="45.963594755598834" lon="11.692999924401105"><ele>218.0</ele><time>2026-04-17T09:43:32.001Z</time></trkpt><trkpt lat="45.96368325436428" lon="11.692605227295557"><ele>217.0</ele><time>2026-04-17T09:43:33.001Z</time></trkpt><trkpt lat="45.963789958719715" lon="11.692213417765691"><ele>216.0</ele><time>2026-04-17T09:43:34.001Z</time></trkpt><trkpt lat="45.96391840001355" lon="11.691827675390845"><ele>215.5</ele><time>2026-04-17T09:43:35.001Z</time></trkpt><trkpt lat="45.96406351055599" lon="11.69144894042083"><ele>215.0</ele><time>2026-04-17T09:43:36.001Z</time></trkpt><trkpt lat="45.96422586027587" lon="11.691088250898828"><ele>217.5</ele><time>2026-04-17T09:43:37.001Z</time></trkpt><trkpt lat="45.964406868129785" lon="11.690739888053413"><ele>220.0</ele><time>2026-04-17T09:43:38.001Z</time></trkpt><trkpt lat="45.96459948340538" lon="11.690389832058882"><ele>219.5</ele><time>2026-04-17T09:43:39.001Z</time></trkpt><trkpt lat="45.96479453469986" lon="11.690032396173166"><ele>219.0</ele><time>2026-04-17T09:43:40.001Z</time></trkpt><trkpt lat="45.96498993939206" lon="11.689663232809988"><ele>218.5</ele><time>2026-04-17T09:43:41.001Z</time></trkpt><trkpt lat="45.965187106440275" lon="11.689295217940494"><ele>218.0</ele><time>2026-04-17T09:43:42.001Z</time></trkpt><trkpt lat="45.96537961337081" lon="11.688927242621542"><ele>219.5</ele><time>2026-04-17T09:43:43.001Z</time></trkpt><trkpt lat="45.96556809530307" lon="11.688561586879954"><ele>221.0</ele><time>2026-04-17T09:43:44.001Z</time></trkpt><trkpt lat="45.9657498222616" lon="11.688232338893087"><ele>220.5</ele><time>2026-04-17T09:43:45.001Z</time></trkpt><trkpt lat="45.96592843800291" lon="11.687924122527814"><ele>220.0</ele><time>2026-04-17T09:43:46.001Z</time></trkpt><trkpt lat="45.96611035837483" lon="11.687638452675225"><ele>220.0</ele><time>2026-04-17T09:43:47.001Z</time></trkpt><trkpt lat="45.96630212260689" lon="11.687373673868938"><ele>220.0</ele><time>2026-04-17T09:43:48.001Z</time></trkpt><trkpt lat="45.966506453723056" lon="11.687118748561119"><ele>219.5</ele><time>2026-04-17T09:43:49.001Z</time></trkpt><trkpt lat="45.966721645400746" lon="11.686874038146733"><ele>219.0</ele><time>2026-04-17T09:43:50.001Z</time></trkpt><trkpt lat="45.9669485282232" lon="11.686642984775803"><ele>219.0</ele><time>2026-04-17T09:43:51.001Z</time></trkpt><trkpt lat="45.96718463077346" lon="11.686425389106565"><ele>219.0</ele><time>2026-04-17T09:43:52.001Z</time></trkpt><trkpt lat="45.9674322507835" lon="11.686222356996597"><ele>221.0</ele><time>2026-04-17T09:43:53.001Z</time></trkpt><trkpt lat="45.967693524977975" lon="11.686014591768561"><ele>223.0</ele><time>2026-04-17T09:43:54.001Z</time></trkpt><trkpt lat="45.96795617675746" lon="11.685799802183327"><ele>223.0</ele><time>2026-04-17T09:43:55.001Z</time></trkpt><trkpt lat="45.96819938389553" lon="11.68559917371891"><ele>223.0</ele><time>2026-04-17T09:43:56.001Z</time></trkpt><trkpt lat="45.96843488552193" lon="11.685400433011159"><ele>222.0</ele><time>2026-04-17T09:43:57.001Z</time></trkpt><trkpt lat="45.96867604733018" lon="11.685229475316998"><ele>221.0</ele><time>2026-04-17T09:43:58.001Z</time></trkpt><trkpt lat="45.96891737505137" lon="11.685089010211385"><ele>221.0</ele><time>2026-04-17T09:43:59.001Z</time></trkpt><trkpt lat="45.969160595834005" lon="11.684963033212355"><ele>221.0</ele><time>2026-04-17T09:44:00.001Z</time></trkpt><trkpt lat="45.96941061180253" lon="11.684848639107097"><ele>220.5</ele><time>2026-04-17T09:44:01.001Z</time></trkpt><trkpt lat="45.96966628028694" lon="11.684747302346945"><ele>220.0</ele><time>2026-04-17T09:44:02.001Z</time></trkpt><trkpt lat="45.969940989612866" lon="11.684655538063621"><ele>220.5</ele><time>2026-04-17T09:44:03.001Z</time></trkpt><trkpt lat="45.97022155337748" lon="11.684562140799446"><ele>221.0</ele><time>2026-04-17T09:44:04.001Z</time></trkpt><trkpt lat="45.97050719112034" lon="11.684460695297108"><ele>221.0</ele><time>2026-04-17T09:44:05.001Z</time></trkpt><trkpt lat="45.97079530203022" lon="11.68435022261683"><ele>221.0</ele><time>2026-04-17T09:44:06.001Z</time></trkpt><trkpt lat="45.97107512680789" lon="11.684222223040011"><ele>221.0</ele><time>2026-04-17T09:44:07.001Z</time></trkpt><trkpt lat="45.97135507574749" lon="11.684063030579033"><ele>221.0</ele><time>2026-04-17T09:44:08.001Z</time></trkpt><trkpt lat="45.971632294525364" lon="11.683876433870589"><ele>222.0</ele><time>2026-04-17T09:44:09.001Z</time></trkpt><trkpt lat="45.97190252400988" lon="11.683655689521911"><ele>223.0</ele><time>2026-04-17T09:44:10.001Z</time></trkpt><trkpt lat="45.9721912329292" lon="11.683460298801705"><ele>223.5</ele><time>2026-04-17T09:44:11.001Z</time></trkpt><trkpt lat="45.972450708878185" lon="11.683282986211312"><ele>224.0</ele><time>2026-04-17T09:44:12.001Z</time></trkpt><trkpt lat="45.97269327341547" lon="11.68311225668696"><ele>224.0</ele><time>2026-04-17T09:44:13.001Z</time></trkpt><trkpt lat="45.972923953322216" lon="11.682953737950129"><ele>224.0</ele><time>2026-04-17T09:44:14.001Z</time></trkpt><trkpt lat="45.973141729670644" lon="11.682803886033527"><ele>224.0</ele><time>2026-04-17T09:44:15.001Z</time></trkpt><trkpt lat="45.97333842798922" lon="11.682666654698428"><ele>224.0</ele><time>2026-04-17T09:44:16.001Z</time></trkpt><trkpt lat="45.97352406278518" lon="11.682538728506302"><ele>224.0</ele><time>2026-04-17T09:44:17Z</time></trkpt><trkpt lat="45.973709085718006" lon="11.68241707638391"><ele>224.0</ele><time>2026-04-17T09:44:18Z</time></trkpt><trkpt lat="45.97388388330387" lon="11.682298860298415"><ele>224.0</ele><time>2026-04-17T09:44:19Z</time></trkpt><trkpt lat="45.9740573468428" lon="11.68217482695968"><ele>224.0</ele><time>2026-04-17T09:44:20Z</time></trkpt><trkpt lat="45.974230952923946" lon="11.682059750847506"><ele>224.0</ele><time>2026-04-17T09:44:21Z</time></trkpt><trkpt lat="45.974403411466156" lon="11.681942614624337"><ele>224.0</ele><time>2026-04-17T09:44:22Z</time></trkpt><trkpt lat="45.97456961002497" lon="11.681826423090799"><ele>224.0</ele><time>2026-04-17T09:44:23Z</time></trkpt><trkpt lat="45.97473358032104" lon="11.681701896715968"><ele>224.0</ele><time>2026-04-17T09:44:24Z</time></trkpt><trkpt lat="45.974899276676936" lon="11.681584421617112"><ele>224.0</ele><time>2026-04-17T09:44:25Z</time></trkpt><trkpt lat="45.975069524862086" lon="11.681466699156939"><ele>224.0</ele><time>2026-04-17T09:44:26Z</time></trkpt><trkpt lat="45.9752563935286" lon="11.681337161648964"><ele>225.0</ele><time>2026-04-17T09:44:27Z</time></trkpt><trkpt lat="45.97545080167554" lon="11.68118421736999"><ele>226.0</ele><time>2026-04-17T09:44:28Z</time></trkpt><trkpt lat="45.97565452496943" lon="11.681004741003946"><ele>224.5</ele><time>2026-04-17T09:44:29Z</time></trkpt><trkpt lat="45.975862927602066" lon="11.680803837011625"><ele>223.0</ele><time>2026-04-17T09:44:30Z</time></trkpt><trkpt lat="45.97607518460862" lon="11.68057949696"><ele>223.0</ele><time>2026-04-17T09:44:31Z</time></trkpt><trkpt lat="45.97629276322954" lon="11.680337874992773"><ele>223.0</ele><time>2026-04-17T09:44:32Z</time></trkpt><trkpt lat="45.976524569539784" lon="11.680084269136243"><ele>223.0</ele><time>2026-04-17T09:44:33Z</time></trkpt><trkpt lat="45.97676289884049" lon="11.679836754766079"><ele>223.0</ele><time>2026-04-17T09:44:34Z</time></trkpt><trkpt lat="45.97697529365678" lon="11.679617208593912"><ele>223.5</ele><time>2026-04-17T09:44:35Z</time></trkpt><trkpt lat="45.97718110045922" lon="11.67941152426003"><ele>224.0</ele><time>2026-04-17T09:44:36Z</time></trkpt><trkpt lat="45.97739349758899" lon="11.679224285331543"><ele>225.5</ele><time>2026-04-17T09:44:37Z</time></trkpt><trkpt lat="45.977615999902426" lon="11.679048505574533"><ele>227.0</ele><time>2026-04-17T09:44:38Z</time></trkpt><trkpt lat="45.97783899204952" lon="11.67889213810479"><ele>227.0</ele><time>2026-04-17T09:44:39Z</time></trkpt><trkpt lat="45.97807110481907" lon="11.678749900079843"><ele>227.0</ele><time>2026-04-17T09:44:40Z</time></trkpt><trkpt lat="45.97831047123058" lon="11.67862211325977"><ele>228.0</ele><time>2026-04-17T09:44:41Z</time></trkpt><trkpt lat="45.978552496884525" lon="11.678506196941093"><ele>229.0</ele><time>2026-04-17T09:44:42Z</time></trkpt><trkpt lat="45.97880567429468" lon="11.678395136847152"><ele>229.0</ele><time>2026-04-17T09:44:43Z</time></trkpt><trkpt lat="45.979068488356596" lon="11.678289527019041"><ele>229.0</ele><time>2026-04-17T09:44:44Z</time></trkpt><trkpt lat="45.97934052873526" lon="11.678183063170462"><ele>232.5</ele><time>2026-04-17T09:44:45Z</time></trkpt><trkpt lat="45.97962103954283" lon="11.67807007799105"><ele>236.0</ele><time>2026-04-17T09:44:46Z</time></trkpt><trkpt lat="45.979902459213555" lon="11.677953833326873"><ele>235.5</ele><time>2026-04-17T09:44:47Z</time></trkpt><trkpt lat="45.980191482689364" lon="11.677840240534417"><ele>235.0</ele><time>2026-04-17T09:44:48Z</time></trkpt><trkpt lat="45.98048047297683" lon="11.677724388090033"><ele>235.0</ele><time>2026-04-17T09:44:49Z</time></trkpt><trkpt lat="45.980776163776696" lon="11.677607374322825"><ele>235.0</ele><time>2026-04-17T09:44:50Z</time></trkpt><trkpt lat="45.981075201922366" lon="11.677491204616254"><ele>237.5</ele><time>2026-04-17T09:44:51Z</time></trkpt><trkpt lat="45.98137575819178" lon="11.677373735980828"><ele>240.0</ele><time>2026-04-17T09:44:52Z</time></trkpt><trkpt lat="45.981679519801844" lon="11.677256398847623"><ele>243.0</ele><time>2026-04-17T09:44:53Z</time></trkpt><trkpt lat="45.98198524726491" lon="11.677137990459425"><ele>246.0</ele><time>2026-04-17T09:44:54Z</time></trkpt><trkpt lat="45.98228110142105" lon="11.677022394447567"><ele>246.0</ele><time>2026-04-17T09:44:55Z</time></trkpt><trkpt lat="45.98255613528116" lon="11.676910133487658"><ele>246.0</ele><time>2026-04-17T09:44:56Z</time></trkpt><trkpt lat="45.98284085773982" lon="11.676795942410372"><ele>246.0</ele><time>2026-04-17T09:44:57Z</time></trkpt><trkpt lat="45.983131725830034" lon="11.676674787053182"><ele>246.0</ele><time>2026-04-17T09:44:58Z</time></trkpt><trkpt lat="45.983425578357135" lon="11.676541353944499"><ele>251.5</ele><time>2026-04-17T09:44:59Z</time></trkpt><trkpt lat="45.98371577048788" lon="11.67639736390866"><ele>257.0</ele><time>2026-04-17T09:45:00Z</time></trkpt><trkpt lat="45.98398900939462" lon="11.67624269945059"><ele>252.0</ele><time>2026-04-17T09:45:01Z</time></trkpt><trkpt lat="45.98425770817655" lon="11.676064672102976"><ele>247.0</ele><time>2026-04-17T09:45:02Z</time></trkpt><trkpt lat="45.98452723989865" lon="11.675881416635795"><ele>247.0</ele><time>2026-04-17T09:45:03Z</time></trkpt><trkpt lat="45.98479582779049" lon="11.67568594266784"><ele>247.0</ele><time>2026-04-17T09:45:04Z</time></trkpt><trkpt lat="45.985058103164675" lon="11.675475782967947"><ele>241.5</ele><time>2026-04-17T09:45:05Z</time></trkpt><trkpt lat="45.985314009979646" lon="11.675249957899197"><ele>236.0</ele><time>2026-04-17T09:45:06Z</time></trkpt><trkpt lat="45.98557122320634" lon="11.675008193698915"><ele>236.0</ele><time>2026-04-17T09:45:07Z</time></trkpt><trkpt lat="45.985826722046845" lon="11.674757406520195"><ele>236.0</ele><time>2026-04-17T09:45:08Z</time></trkpt><trkpt lat="45.98607472088703" lon="11.674503632757672"><ele>233.0</ele><time>2026-04-17T09:45:09Z</time></trkpt><trkpt lat="45.98630407609803" lon="11.674268326481826"><ele>230.0</ele><time>2026-04-17T09:45:10Z</time></trkpt><trkpt lat="45.986532955188764" lon="11.6740342172448"><ele>228.5</ele><time>2026-04-17T09:45:11Z</time></trkpt><trkpt lat="45.98675922453943" lon="11.67379303329482"><ele>227.0</ele><time>2026-04-17T09:45:12Z</time></trkpt><trkpt lat="45.98698448214725" lon="11.67354551035771"><ele>227.0</ele><time>2026-04-17T09:45:13Z</time></trkpt><trkpt lat="45.987212591326674" lon="11.673292900844444"><ele>227.0</ele><time>2026-04-17T09:45:14Z</time></trkpt><trkpt lat="45.987446452132424" lon="11.673041037558901"><ele>227.5</ele><time>2026-04-17T09:45:15Z</time></trkpt><trkpt lat="45.98769770652327" lon="11.67277107004926"><ele>228.0</ele><time>2026-04-17T09:45:16Z</time></trkpt><trkpt lat="45.98796089706573" lon="11.67248853520991"><ele>228.0</ele><time>2026-04-17T09:45:17Z</time></trkpt><trkpt lat="45.9882216299254" lon="11.672214001394169"><ele>228.0</ele><time>2026-04-17T09:45:18Z</time></trkpt><trkpt lat="45.98846453765365" lon="11.671975178384193"><ele>228.0</ele><time>2026-04-17T09:45:19Z</time></trkpt><trkpt lat="45.98870771091119" lon="11.671742158854613"><ele>228.0</ele><time>2026-04-17T09:45:20Z</time></trkpt><trkpt lat="45.98894719926195" lon="11.671519661304458"><ele>229.0</ele><time>2026-04-17T09:45:21Z</time></trkpt><trkpt lat="45.989183572127864" lon="11.671296687216831"><ele>230.0</ele><time>2026-04-17T09:45:22Z</time></trkpt><trkpt lat="45.98942385357623" lon="11.671068894863419"><ele>230.0</ele><time>2026-04-17T09:45:23Z</time></trkpt><trkpt lat="45.989683726778665" lon="11.670821962379273"><ele>230.0</ele><time>2026-04-17T09:45:24Z</time></trkpt><trkpt lat="45.98995700632523" lon="11.670565868046129"><ele>230.0</ele><time>2026-04-17T09:45:25Z</time></trkpt><trkpt lat="45.99024045112943" lon="11.670297693024311"><ele>230.0</ele><time>2026-04-17T09:45:26Z</time></trkpt><trkpt lat="45.99053351374847" lon="11.670023387017316"><ele>230.0</ele><time>2026-04-17T09:45:27Z</time></trkpt><trkpt lat="45.990837367040676" lon="11.66973769874467"><ele>230.0</ele><time>2026-04-17T09:45:28Z</time></trkpt><trkpt lat="45.99112267784746" lon="11.669471217045729"><ele>230.0</ele><time>2026-04-17T09:45:29Z</time></trkpt><trkpt lat="45.99138886618324" lon="11.669228700764725"><ele>230.0</ele><time>2026-04-17T09:45:30Z</time></trkpt><trkpt lat="45.99165181216377" lon="11.668992427633238"><ele>230.0</ele><time>2026-04-17T09:45:31Z</time></trkpt><trkpt lat="45.99190739548382" lon="11.668763063741823"><ele>230.0</ele><time>2026-04-17T09:45:32Z</time></trkpt><trkpt lat="45.99215884063413" lon="11.668548476426198"><ele>230.5</ele><time>2026-04-17T09:45:33Z</time></trkpt><trkpt lat="45.992411930244614" lon="11.668347874030582"><ele>231.0</ele><time>2026-04-17T09:45:34Z</time></trkpt><trkpt lat="45.992671925529756" lon="11.668149530728579"><ele>231.5</ele><time>2026-04-17T09:45:35Z</time></trkpt><trkpt lat="45.992929049900845" lon="11.667955108123722"><ele>232.0</ele><time>2026-04-17T09:45:36Z</time></trkpt><trkpt lat="45.99319195657323" lon="11.667768718809018"><ele>231.5</ele><time>2026-04-17T09:45:37Z</time></trkpt><trkpt lat="45.99345918354726" lon="11.667588054562664"><ele>231.0</ele><time>2026-04-17T09:45:38Z</time></trkpt><trkpt lat="45.99372786468698" lon="11.667411933032227"><ele>231.0</ele><time>2026-04-17T09:45:39Z</time></trkpt><trkpt lat="45.99399791557159" lon="11.66724663837744"><ele>231.0</ele><time>2026-04-17T09:45:40Z</time></trkpt><trkpt lat="45.994273481495846" lon="11.667089339699531"><ele>231.5</ele><time>2026-04-17T09:45:41Z</time></trkpt><trkpt lat="45.99454248248455" lon="11.666944883362842"><ele>232.0</ele><time>2026-04-17T09:45:42Z</time></trkpt><trkpt lat="45.99481560877161" lon="11.666803382035702"><ele>232.5</ele><time>2026-04-17T09:45:43Z</time></trkpt><trkpt lat="45.99509856744707" lon="11.666667740981088"><ele>233.0</ele><time>2026-04-17T09:45:44Z</time></trkpt><trkpt lat="45.995386600031765" lon="11.666532144111917"><ele>233.0</ele><time>2026-04-17T09:45:45Z</time></trkpt><trkpt lat="45.99568818431671" lon="11.666403803730772"><ele>233.0</ele><time>2026-04-17T09:45:46Z</time></trkpt><trkpt lat="45.995999037811245" lon="11.666274851937283"><ele>233.0</ele><time>2026-04-17T09:45:47Z</time></trkpt><trkpt lat="45.99631749542445" lon="11.66616174461177"><ele>233.0</ele><time>2026-04-17T09:45:48Z</time></trkpt><trkpt lat="45.99664110768599" lon="11.666038678940978"><ele>233.0</ele><time>2026-04-17T09:45:49Z</time></trkpt><trkpt lat="45.99696686275404" lon="11.665908079695832"><ele>233.0</ele><time>2026-04-17T09:45:50Z</time></trkpt><trkpt lat="45.99729595354387" lon="11.665776817947462"><ele>233.0</ele><time>2026-04-17T09:45:51Z</time></trkpt><trkpt lat="45.9976300396106" lon="11.665649892851336"><ele>233.0</ele><time>2026-04-17T09:45:52Z</time></trkpt><trkpt lat="45.99796469826653" lon="11.665518159773859"><ele>233.0</ele><time>2026-04-17T09:45:53Z</time></trkpt><trkpt lat="45.998298983676825" lon="11.665382098296721"><ele>233.0</ele><time>2026-04-17T09:45:54Z</time></trkpt><trkpt lat="45.998634978415645" lon="11.665246358118823"><ele>233.0</ele><time>2026-04-17T09:45:55Z</time></trkpt><trkpt lat="45.99897208277059" lon="11.665112918155668"><ele>233.0</ele><time>2026-04-17T09:45:56Z</time></trkpt><trkpt lat="45.99929574092178" lon="11.664984890262017"><ele>233.0</ele><time>2026-04-17T09:45:57Z</time></trkpt><trkpt lat="45.99959157407122" lon="11.664866047461153"><ele>233.0</ele><time>2026-04-17T09:45:58Z</time></trkpt><trkpt lat="45.99987146881523" lon="11.664744632314802"><ele>233.0</ele><time>2026-04-17T09:45:59Z</time></trkpt><trkpt lat="46.00014627488" lon="11.664608827559897"><ele>233.0</ele><time>2026-04-17T09:46:00Z</time></trkpt><trkpt lat="46.00041618974624" lon="11.664444940288313"><ele>233.5</ele><time>2026-04-17T09:46:01Z</time></trkpt><trkpt lat="46.00069379535417" lon="11.664255599585182"><ele>234.0</ele><time>2026-04-17T09:46:02Z</time></trkpt><trkpt lat="46.0009474646399" lon="11.66403833536775"><ele>234.5</ele><time>2026-04-17T09:46:03Z</time></trkpt><trkpt lat="46.00119412098764" lon="11.66381182895283"><ele>235.0</ele><time>2026-04-17T09:46:04Z</time></trkpt><trkpt lat="46.00142774965728" lon="11.663578364772848"><ele>235.0</ele><time>2026-04-17T09:46:05Z</time></trkpt><trkpt lat="46.001649631868545" lon="11.663325289891695"><ele>235.0</ele><time>2026-04-17T09:46:06Z</time></trkpt><trkpt lat="46.001862915470355" lon="11.66305196911364"><ele>236.5</ele><time>2026-04-17T09:46:07Z</time></trkpt><trkpt lat="46.00206595510743" lon="11.662761646544451"><ele>238.0</ele><time>2026-04-17T09:46:08Z</time></trkpt><trkpt lat="46.002263411444545" lon="11.662456728623887"><ele>238.0</ele><time>2026-04-17T09:46:09Z</time></trkpt><trkpt lat="46.0024488283341" lon="11.662139891668035"><ele>238.0</ele><time>2026-04-17T09:46:10Z</time></trkpt><trkpt lat="46.00262230310276" lon="11.661808501432885"><ele>237.5</ele><time>2026-04-17T09:46:11Z</time></trkpt><trkpt lat="46.00278291571371" lon="11.661458486688293"><ele>237.0</ele><time>2026-04-17T09:46:12Z</time></trkpt><trkpt lat="46.00293200848213" lon="11.661092611614103"><ele>237.0</ele><time>2026-04-17T09:46:13Z</time></trkpt><trkpt lat="46.00307039626523" lon="11.66070930783642"><ele>237.0</ele><time>2026-04-17T09:46:14Z</time></trkpt><trkpt lat="46.00319486429399" lon="11.66031932134308"><ele>237.0</ele><time>2026-04-17T09:46:15Z</time></trkpt><trkpt lat="46.003306327044655" lon="11.659919758369691"><ele>237.0</ele><time>2026-04-17T09:46:16Z</time></trkpt><trkpt lat="46.00340574314087" lon="11.65950930875666"><ele>238.0</ele><time>2026-04-17T09:46:17Z</time></trkpt><trkpt lat="46.00350558249742" lon="11.659080567306765"><ele>239.0</ele><time>2026-04-17T09:46:18Z</time></trkpt><trkpt lat="46.003610913982605" lon="11.658629509084868"><ele>239.5</ele><time>2026-04-17T09:46:19Z</time></trkpt><trkpt lat="46.00372756864136" lon="11.658173109715298"><ele>240.0</ele><time>2026-04-17T09:46:20Z</time></trkpt><trkpt lat="46.00384778366022" lon="11.6577071416917"><ele>238.5</ele><time>2026-04-17T09:46:21Z</time></trkpt><trkpt lat="46.00396940558193" lon="11.657228284333042"><ele>237.0</ele><time>2026-04-17T09:46:22Z</time></trkpt><trkpt lat="46.00408646863879" lon="11.656749408151452"><ele>237.5</ele><time>2026-04-17T09:46:23Z</time></trkpt><trkpt lat="46.00420142722241" lon="11.6562733372282"><ele>238.0</ele><time>2026-04-17T09:46:24Z</time></trkpt><trkpt lat="46.00431798071199" lon="11.655808917908038"><ele>238.0</ele><time>2026-04-17T09:46:25Z</time></trkpt><trkpt lat="46.00443379544641" lon="11.655353739733346"><ele>238.0</ele><time>2026-04-17T09:46:26Z</time></trkpt><trkpt lat="46.00454450182596" lon="11.654919702862129"><ele>238.0</ele><time>2026-04-17T09:46:27Z</time></trkpt><trkpt lat="46.00464779052542" lon="11.654503782100344"><ele>238.0</ele><time>2026-04-17T09:46:28Z</time></trkpt><trkpt lat="46.00474976956321" lon="11.6540972235374"><ele>238.0</ele><time>2026-04-17T09:46:29Z</time></trkpt><trkpt lat="46.00484975517759" lon="11.653692869814252"><ele>238.0</ele><time>2026-04-17T09:46:30Z</time></trkpt><trkpt lat="46.0049511236851" lon="11.653301737825473"><ele>238.5</ele><time>2026-04-17T09:46:31Z</time></trkpt><trkpt lat="46.005047759802046" lon="11.6529213220286"><ele>239.0</ele><time>2026-04-17T09:46:32Z</time></trkpt><trkpt lat="46.00514739044978" lon="11.652549501890249"><ele>239.0</ele><time>2026-04-17T09:46:33Z</time></trkpt><trkpt lat="46.00525150948726" lon="11.652177248513592"><ele>239.0</ele><time>2026-04-17T09:46:34Z</time></trkpt><trkpt lat="46.00536641903228" lon="11.651810714695836"><ele>239.0</ele><time>2026-04-17T09:46:35Z</time></trkpt><trkpt lat="46.005496245024524" lon="11.651458330181839"><ele>239.0</ele><time>2026-04-17T09:46:36Z</time></trkpt><trkpt lat="46.00564213332694" lon="11.651125261663635"><ele>238.5</ele><time>2026-04-17T09:46:37Z</time></trkpt><trkpt lat="46.00580412151152" lon="11.650796342693766"><ele>238.0</ele><time>2026-04-17T09:46:38Z</time></trkpt><trkpt lat="46.00597801592583" lon="11.650479978997218"><ele>237.5</ele><time>2026-04-17T09:46:39Z</time></trkpt><trkpt lat="46.00616709558" lon="11.650181919940959"><ele>237.0</ele><time>2026-04-17T09:46:40Z</time></trkpt><trkpt lat="46.006371963728384" lon="11.64989022400126"><ele>237.0</ele><time>2026-04-17T09:46:41Z</time></trkpt><trkpt lat="46.006592870808866" lon="11.649597450148438"><ele>237.0</ele><time>2026-04-17T09:46:42Z</time></trkpt><trkpt lat="46.00682133207487" lon="11.649292271892465"><ele>238.5</ele><time>2026-04-17T09:46:43Z</time></trkpt><trkpt lat="46.007052606682315" lon="11.64897778750997"><ele>240.0</ele><time>2026-04-17T09:46:44Z</time></trkpt><trkpt lat="46.007294147595196" lon="11.648648135566827"><ele>240.5</ele><time>2026-04-17T09:46:45Z</time></trkpt><trkpt lat="46.00754087010809" lon="11.6483121938402"><ele>241.0</ele><time>2026-04-17T09:46:46Z</time></trkpt><trkpt lat="46.00778940547336" lon="11.647971050424532"><ele>241.0</ele><time>2026-04-17T09:46:47Z</time></trkpt><trkpt lat="46.00804216868273" lon="11.647630190089469"><ele>241.0</ele><time>2026-04-17T09:46:48Z</time></trkpt><trkpt lat="46.00829864813973" lon="11.647287491033468"><ele>241.0</ele><time>2026-04-17T09:46:49Z</time></trkpt><trkpt lat="46.00855831482856" lon="11.646945009552626"><ele>241.0</ele><time>2026-04-17T09:46:50Z</time></trkpt><trkpt lat="46.00881705385168" lon="11.646598997130818"><ele>241.0</ele><time>2026-04-17T09:46:51Z</time></trkpt><trkpt lat="46.0090672174453" lon="11.646257965305107"><ele>241.0</ele><time>2026-04-17T09:46:52Z</time></trkpt><trkpt lat="46.00930038162625" lon="11.645942368617"><ele>240.5</ele><time>2026-04-17T09:46:53Z</time></trkpt><trkpt lat="46.009523366652054" lon="11.645638900133438"><ele>240.0</ele><time>2026-04-17T09:46:54Z</time></trkpt><trkpt lat="46.00974868672664" lon="11.645332544311632"><ele>239.5</ele><time>2026-04-17T09:46:55Z</time></trkpt><trkpt lat="46.00997067692125" lon="11.645030280193584"><ele>239.0</ele><time>2026-04-17T09:46:56Z</time></trkpt><trkpt lat="46.010172340037634" lon="11.644741482416263"><ele>240.0</ele><time>2026-04-17T09:46:57Z</time></trkpt><trkpt lat="46.01036818266748" lon="11.64443314647516"><ele>241.0</ele><time>2026-04-17T09:46:58Z</time></trkpt><trkpt lat="46.01055945873081" lon="11.644092243610105"><ele>241.0</ele><time>2026-04-17T09:46:59Z</time></trkpt><trkpt lat="46.01074620300213" lon="11.643733240187165"><ele>241.0</ele><time>2026-04-17T09:47:00Z</time></trkpt><trkpt lat="46.01092517761935" lon="11.643356773164728"><ele>243.0</ele><time>2026-04-17T09:47:01Z</time></trkpt><trkpt lat="46.01109341484938" lon="11.642962278352142"><ele>245.0</ele><time>2026-04-17T09:47:02Z</time></trkpt><trkpt lat="46.0112463960838" lon="11.64256288366998"><ele>245.0</ele><time>2026-04-17T09:47:03Z</time></trkpt><trkpt lat="46.011373181267146" lon="11.642183550766577"><ele>245.0</ele><time>2026-04-17T09:47:04Z</time></trkpt><trkpt lat="46.01148814853477" lon="11.641798372774833"><ele>245.0</ele><time>2026-04-17T09:47:05Z</time></trkpt><trkpt lat="46.01159455978928" lon="11.641407630155106"><ele>245.0</ele><time>2026-04-17T09:47:06Z</time></trkpt><trkpt lat="46.011693338914306" lon="11.641010122371053"><ele>246.5</ele><time>2026-04-17T09:47:07Z</time></trkpt><trkpt lat="46.01177839223887" lon="11.64060880997446"><ele>248.0</ele><time>2026-04-17T09:47:08Z</time></trkpt><trkpt lat="46.01184597744557" lon="11.640199218442211"><ele>249.0</ele><time>2026-04-17T09:47:09Z</time></trkpt><trkpt lat="46.01190141968354" lon="11.639786947905076"><ele>250.0</ele><time>2026-04-17T09:47:10Z</time></trkpt><trkpt lat="46.011946202992384" lon="11.639363642034661"><ele>250.0</ele><time>2026-04-17T09:47:11Z</time></trkpt><trkpt lat="46.011982234436836" lon="11.638935742726863"><ele>250.0</ele><time>2026-04-17T09:47:12Z</time></trkpt><trkpt lat="46.01200281182956" lon="11.638515181874649"><ele>250.0</ele><time>2026-04-17T09:47:13Z</time></trkpt><trkpt lat="46.01201950637793" lon="11.638129971696063"><ele>250.0</ele><time>2026-04-17T09:47:14Z</time></trkpt><trkpt lat="46.01203804115396" lon="11.637760649356137"><ele>250.0</ele><time>2026-04-17T09:47:15Z</time></trkpt><trkpt lat="46.01205863723148" lon="11.637371629036608"><ele>250.0</ele><time>2026-04-17T09:47:16Z</time></trkpt><trkpt lat="46.012078964395855" lon="11.636978191393974"><ele>249.5</ele><time>2026-04-17T09:47:17Z</time></trkpt><trkpt lat="46.012100550382485" lon="11.636575521416745"><ele>249.0</ele><time>2026-04-17T09:47:18Z</time></trkpt><trkpt lat="46.012120545855886" lon="11.636164663628504"><ele>249.5</ele><time>2026-04-17T09:47:19Z</time></trkpt><trkpt lat="46.012140766131004" lon="11.635735221295787"><ele>250.0</ele><time>2026-04-17T09:47:20Z</time></trkpt><trkpt lat="46.012163282313885" lon="11.635297365287176"><ele>250.0</ele><time>2026-04-17T09:47:21Z</time></trkpt><trkpt lat="46.012189221647525" lon="11.634855918117875"><ele>250.0</ele><time>2026-04-17T09:47:22Z</time></trkpt><trkpt lat="46.012213097415184" lon="11.6344084888571"><ele>249.5</ele><time>2026-04-17T09:47:23Z</time></trkpt><trkpt lat="46.01223925419993" lon="11.633956529364493"><ele>249.0</ele><time>2026-04-17T09:47:24Z</time></trkpt><trkpt lat="46.012258361496635" lon="11.633499473813664"><ele>249.0</ele><time>2026-04-17T09:47:25Z</time></trkpt><trkpt lat="46.01227714577734" lon="11.633044674631613"><ele>249.0</ele><time>2026-04-17T09:47:26Z</time></trkpt><trkpt lat="46.012297989324686" lon="11.63259018356298"><ele>249.5</ele><time>2026-04-17T09:47:27Z</time></trkpt><trkpt lat="46.012330504470135" lon="11.63213906450767"><ele>250.0</ele><time>2026-04-17T09:47:28Z</time></trkpt><trkpt lat="46.012364677417665" lon="11.631688205657857"><ele>250.0</ele><time>2026-04-17T09:47:29Z</time></trkpt><trkpt lat="46.01241032035434" lon="11.63124839135284"><ele>250.0</ele><time>2026-04-17T09:47:30Z</time></trkpt><trkpt lat="46.01247181513361" lon="11.630837789582573"><ele>249.5</ele><time>2026-04-17T09:47:31Z</time></trkpt><trkpt lat="46.01254481096606" lon="11.63042312079727"><ele>249.0</ele><time>2026-04-17T09:47:32Z</time></trkpt><trkpt lat="46.012620008994645" lon="11.629978122106275"><ele>249.0</ele><time>2026-04-17T09:47:33Z</time></trkpt><trkpt lat="46.01269655701821" lon="11.629523009665096"><ele>249.0</ele><time>2026-04-17T09:47:34Z</time></trkpt><trkpt lat="46.01277636627877" lon="11.629055099218903"><ele>250.0</ele><time>2026-04-17T09:47:35Z</time></trkpt><trkpt lat="46.01285586584569" lon="11.628576026053471"><ele>251.0</ele><time>2026-04-17T09:47:36Z</time></trkpt><trkpt lat="46.01293688317313" lon="11.628088428889843"><ele>251.5</ele><time>2026-04-17T09:47:37Z</time></trkpt><trkpt lat="46.01301969149359" lon="11.627596831768576"><ele>252.0</ele><time>2026-04-17T09:47:38Z</time></trkpt><trkpt lat="46.01310642725994" lon="11.627091720696521"><ele>252.0</ele><time>2026-04-17T09:47:39Z</time></trkpt><trkpt lat="46.013196411216036" lon="11.626563783944798"><ele>252.0</ele><time>2026-04-17T09:47:40Z</time></trkpt><trkpt lat="46.013285275906924" lon="11.626031952573188"><ele>251.5</ele><time>2026-04-17T09:47:41Z</time></trkpt><trkpt lat="46.013365837772405" lon="11.625547308668933"><ele>251.0</ele><time>2026-04-17T09:47:42Z</time></trkpt><trkpt lat="46.013441001011365" lon="11.625088687923956"><ele>251.0</ele><time>2026-04-17T09:47:43Z</time></trkpt><trkpt lat="46.01351218950139" lon="11.624657719593431"><ele>251.0</ele><time>2026-04-17T09:47:44Z</time></trkpt><trkpt lat="46.013584251674324" lon="11.624222386310548"><ele>251.5</ele><time>2026-04-17T09:47:45Z</time></trkpt><trkpt lat="46.01365540754953" lon="11.623789015267612"><ele>252.0</ele><time>2026-04-17T09:47:46Z</time></trkpt><trkpt lat="46.01372633667761" lon="11.623355309312563"><ele>252.0</ele><time>2026-04-17T09:47:47Z</time></trkpt><trkpt lat="46.013796741506845" lon="11.622929233746337"><ele>252.0</ele><time>2026-04-17T09:47:48Z</time></trkpt><trkpt lat="46.013866577222565" lon="11.6225131150407"><ele>252.0</ele><time>2026-04-17T09:47:49Z</time></trkpt><trkpt lat="46.013937248833194" lon="11.62208168347555"><ele>252.0</ele><time>2026-04-17T09:47:50Z</time></trkpt><trkpt lat="46.014007875309325" lon="11.621650628696631"><ele>252.0</ele><time>2026-04-17T09:47:51Z</time></trkpt><trkpt lat="46.014074041073435" lon="11.621244221107533"><ele>252.0</ele><time>2026-04-17T09:47:52Z</time></trkpt><trkpt lat="46.01414242443193" lon="11.620829997364611"><ele>252.0</ele><time>2026-04-17T09:47:53Z</time></trkpt><trkpt lat="46.01421363044461" lon="11.620408262622538"><ele>252.0</ele><time>2026-04-17T09:47:54Z</time></trkpt><trkpt lat="46.01427997842251" lon="11.620015358314083"><ele>252.5</ele><time>2026-04-17T09:47:55Z</time></trkpt><trkpt lat="46.01434356478148" lon="11.619633155817173"><ele>253.0</ele><time>2026-04-17T09:47:56Z</time></trkpt><trkpt lat="46.0144073878805" lon="11.61924056701747"><ele>253.0</ele><time>2026-04-17T09:47:57Z</time></trkpt><trkpt lat="46.014473264202906" lon="11.618851686953672"><ele>253.0</ele><time>2026-04-17T09:47:58Z</time></trkpt><trkpt lat="46.014537724904905" lon="11.618469153386641"><ele>253.0</ele><time>2026-04-17T09:47:59Z</time></trkpt><trkpt lat="46.014601276124" lon="11.61810648302894"><ele>253.0</ele><time>2026-04-17T09:48:00Z</time></trkpt><trkpt lat="46.01465771382355" lon="11.617766502974629"><ele>254.5</ele><time>2026-04-17T09:48:01Z</time></trkpt><trkpt lat="46.014711317597566" lon="11.617439209118281"><ele>256.0</ele><time>2026-04-17T09:48:02Z</time></trkpt><trkpt lat="46.01476242547071" lon="11.617121749713597"><ele>255.66666666666666</ele><time>2026-04-17T09:48:03Z</time></trkpt><trkpt lat="46.014809841061194" lon="11.616825139805234"><ele>255.33333333333331</ele><time>2026-04-17T09:48:04Z</time></trkpt><trkpt lat="46.01485668798382" lon="11.61654634270758"><ele>255.0</ele><time>2026-04-17T09:48:05Z</time></trkpt><trkpt lat="46.01490260430479" lon="11.616276482329681"><ele>255.0</ele><time>2026-04-17T09:48:06Z</time></trkpt><trkpt lat="46.01494678183039" lon="11.616007314752625"><ele>255.0</ele><time>2026-04-17T09:48:07Z</time></trkpt><trkpt lat="46.01499299042658" lon="11.615734544771406"><ele>255.0</ele><time>2026-04-17T09:48:08Z</time></trkpt><trkpt lat="46.01504095912103" lon="11.615456577852909"><ele>255.0</ele><time>2026-04-17T09:48:09Z</time></trkpt><trkpt lat="46.01509225004792" lon="11.61517645841045"><ele>255.0</ele><time>2026-04-17T09:48:10Z</time></trkpt><trkpt lat="46.01515027940319" lon="11.614894875199266"><ele>255.0</ele><time>2026-04-17T09:48:11Z</time></trkpt><trkpt lat="46.0152176674616" lon="11.614613589649613"><ele>255.33333333333331</ele><time>2026-04-17T09:48:12Z</time></trkpt><trkpt lat="46.01528870363502" lon="11.614347351198965"><ele>255.66666666666666</ele><time>2026-04-17T09:48:13Z</time></trkpt><trkpt lat="46.015361497700994" lon="11.614090328770951"><ele>256.0</ele><time>2026-04-17T09:48:14Z</time></trkpt><trkpt lat="46.01544460658475" lon="11.61381182933608"><ele>257.5</ele><time>2026-04-17T09:48:15Z</time></trkpt><trkpt lat="46.01554281250719" lon="11.613517200532069"><ele>259.0</ele><time>2026-04-17T09:48:16Z</time></trkpt><trkpt lat="46.01565545859415" lon="11.613211203436773"><ele>259.0</ele><time>2026-04-17T09:48:17Z</time></trkpt><trkpt lat="46.01577910464687" lon="11.612900653862365"><ele>259.0</ele><time>2026-04-17T09:48:18Z</time></trkpt><trkpt lat="46.0159133492248" lon="11.612584582381466"><ele>259.0</ele><time>2026-04-17T09:48:19Z</time></trkpt><trkpt lat="46.016063979971754" lon="11.612259465085279"><ele>259.0</ele><time>2026-04-17T09:48:20Z</time></trkpt><trkpt lat="46.01623403931636" lon="11.611938179117308"><ele>259.5</ele><time>2026-04-17T09:48:21Z</time></trkpt><trkpt lat="46.016420242333986" lon="11.611610959181832"><ele>260.0</ele><time>2026-04-17T09:48:22Z</time></trkpt><trkpt lat="46.01660662933473" lon="11.61130544675026"><ele>259.0</ele><time>2026-04-17T09:48:23Z</time></trkpt><trkpt lat="46.0167898379831" lon="11.611029712301553"><ele>258.0</ele><time>2026-04-17T09:48:24Z</time></trkpt><trkpt lat="46.016982878850975" lon="11.610758335533978"><ele>258.0</ele><time>2026-04-17T09:48:25Z</time></trkpt><trkpt lat="46.01719307128609" lon="11.610490752843122"><ele>258.0</ele><time>2026-04-17T09:48:26Z</time></trkpt><trkpt lat="46.01741732855825" lon="11.610222840343567"><ele>259.5</ele><time>2026-04-17T09:48:27Z</time></trkpt><trkpt lat="46.01763889041707" lon="11.609954042456458"><ele>261.0</ele><time>2026-04-17T09:48:28Z</time></trkpt><trkpt lat="46.01785715675771" lon="11.609678239449442"><ele>260.5</ele><time>2026-04-17T09:48:29Z</time></trkpt><trkpt lat="46.01806383854141" lon="11.609408293433207"><ele>260.0</ele><time>2026-04-17T09:48:30Z</time></trkpt><trkpt lat="46.0182658106705" lon="11.609141337904394"><ele>260.0</ele><time>2026-04-17T09:48:31Z</time></trkpt><trkpt lat="46.01847763782277" lon="11.608872753948942"><ele>260.0</ele><time>2026-04-17T09:48:32Z</time></trkpt><trkpt lat="46.018688274541205" lon="11.60860816335176"><ele>260.0</ele><time>2026-04-17T09:48:33Z</time></trkpt><trkpt lat="46.01888800040687" lon="11.608361600851797"><ele>260.0</ele><time>2026-04-17T09:48:34Z</time></trkpt><trkpt lat="46.019078874167356" lon="11.608111213844133"><ele>260.0</ele><time>2026-04-17T09:48:35Z</time></trkpt><trkpt lat="46.01926242639508" lon="11.607844810958403"><ele>260.0</ele><time>2026-04-17T09:48:36Z</time></trkpt><trkpt lat="46.01942287079061" lon="11.60755561431642"><ele>260.0</ele><time>2026-04-17T09:48:37Z</time></trkpt><trkpt lat="46.0195551531434" lon="11.607252818467371"><ele>260.0</ele><time>2026-04-17T09:48:38Z</time></trkpt><trkpt lat="46.019668224863146" lon="11.606939765963297"><ele>259.0</ele><time>2026-04-17T09:48:39Z</time></trkpt><trkpt lat="46.019764097095845" lon="11.606584215364942"><ele>258.0</ele><time>2026-04-17T09:48:40Z</time></trkpt><trkpt lat="46.01985572310606" lon="11.606206830496937"><ele>259.0</ele><time>2026-04-17T09:48:41Z</time></trkpt><trkpt lat="46.01995118864835" lon="11.605838811218636"><ele>260.0</ele><time>2026-04-17T09:48:42Z</time></trkpt><trkpt lat="46.020048398305505" lon="11.605497878744636"><ele>265.0</ele><time>2026-04-17T09:48:43Z</time></trkpt><trkpt lat="46.02014527774133" lon="11.605157402226665"><ele>270.0</ele><time>2026-04-17T09:48:44Z</time></trkpt><trkpt lat="46.020243562326286" lon="11.60482226468915"><ele>268.0</ele><time>2026-04-17T09:48:45Z</time></trkpt><trkpt lat="46.02034274540428" lon="11.60448511573423"><ele>266.0</ele><time>2026-04-17T09:48:46Z</time></trkpt><trkpt lat="46.02043957014692" lon="11.60413541505304"><ele>266.0</ele><time>2026-04-17T09:48:47Z</time></trkpt><trkpt lat="46.02052975976234" lon="11.603745488621996"><ele>266.0</ele><time>2026-04-17T09:48:48Z</time></trkpt><trkpt lat="46.02064125746171" lon="11.603353863470149"><ele>265.0</ele><time>2026-04-17T09:48:49Z</time></trkpt><trkpt lat="46.02074122820768" lon="11.60293998432511"><ele>264.0</ele><time>2026-04-17T09:48:50Z</time></trkpt><trkpt lat="46.020829276801436" lon="11.602506877263242"><ele>267.0</ele><time>2026-04-17T09:48:51Z</time></trkpt><trkpt lat="46.020942338271006" lon="11.602072571320747"><ele>270.0</ele><time>2026-04-17T09:48:52Z</time></trkpt><trkpt lat="46.02105974667776" lon="11.601634145918261"><ele>270.0</ele><time>2026-04-17T09:48:53Z</time></trkpt><trkpt lat="46.02118072212779" lon="11.60120212975691"><ele>270.0</ele><time>2026-04-17T09:48:54Z</time></trkpt><trkpt lat="46.02130924398867" lon="11.60078469284642"><ele>270.0</ele><time>2026-04-17T09:48:55Z</time></trkpt><trkpt lat="46.0214465949018" lon="11.600361628622066"><ele>270.0</ele><time>2026-04-17T09:48:56Z</time></trkpt><trkpt lat="46.02158672864676" lon="11.599930753935809"><ele>266.5</ele><time>2026-04-17T09:48:57Z</time></trkpt><trkpt lat="46.021726186597036" lon="11.599495004472768"><ele>263.0</ele><time>2026-04-17T09:48:58Z</time></trkpt><trkpt lat="46.02186433601168" lon="11.599056779031285"><ele>265.5</ele><time>2026-04-17T09:48:59Z</time></trkpt><trkpt lat="46.02200412757592" lon="11.598623937277498"><ele>268.0</ele><time>2026-04-17T09:49:00Z</time></trkpt><trkpt lat="46.02214488012448" lon="11.598188881643393"><ele>268.5</ele><time>2026-04-17T09:49:01Z</time></trkpt><trkpt lat="46.02228758261532" lon="11.597755296117136"><ele>269.0</ele><time>2026-04-17T09:49:02Z</time></trkpt><trkpt lat="46.022432070860305" lon="11.5973200945762"><ele>265.5</ele><time>2026-04-17T09:49:03Z</time></trkpt><trkpt lat="46.02257616867854" lon="11.59688507603321"><ele>262.0</ele><time>2026-04-17T09:49:04Z</time></trkpt><trkpt lat="46.02271844386912" lon="11.596452268550244"><ele>264.0</ele><time>2026-04-17T09:49:05Z</time></trkpt><trkpt lat="46.02285063469695" lon="11.596050697168714"><ele>266.0</ele><time>2026-04-17T09:49:06Z</time></trkpt><trkpt lat="46.02298364165768" lon="11.59565360610989"><ele>269.0</ele><time>2026-04-17T09:49:07Z</time></trkpt><trkpt lat="46.0231195110447" lon="11.59525885553911"><ele>272.0</ele><time>2026-04-17T09:49:08Z</time></trkpt><trkpt lat="46.02325867137853" lon="11.594888919765456"><ele>271.5</ele><time>2026-04-17T09:49:09Z</time></trkpt><trkpt lat="46.02340577708672" lon="11.594519547737344"><ele>271.0</ele><time>2026-04-17T09:49:10Z</time></trkpt><trkpt lat="46.02355868101606" lon="11.594160056839238"><ele>270.5</ele><time>2026-04-17T09:49:11Z</time></trkpt><trkpt lat="46.02371105593143" lon="11.5938290854154"><ele>270.0</ele><time>2026-04-17T09:49:12Z</time></trkpt><trkpt lat="46.02385653806593" lon="11.593520078728487"><ele>269.0</ele><time>2026-04-17T09:49:13Z</time></trkpt><trkpt lat="46.02399828568574" lon="11.593223522271597"><ele>268.0</ele><time>2026-04-17T09:49:14Z</time></trkpt><trkpt lat="46.02414622229422" lon="11.592935860147088"><ele>269.0</ele><time>2026-04-17T09:49:15Z</time></trkpt><trkpt lat="46.02429285877252" lon="11.592654620383678"><ele>270.0</ele><time>2026-04-17T09:49:16Z</time></trkpt><trkpt lat="46.024443603225436" lon="11.59237677546886"><ele>270.0</ele><time>2026-04-17T09:49:17Z</time></trkpt><trkpt lat="46.02459774634094" lon="11.592089749867409"><ele>270.0</ele><time>2026-04-17T09:49:18Z</time></trkpt><trkpt lat="46.02475664522521" lon="11.59178085899303"><ele>270.5</ele><time>2026-04-17T09:49:19Z</time></trkpt><trkpt lat="46.02491879928687" lon="11.59147409912527"><ele>271.0</ele><time>2026-04-17T09:49:20Z</time></trkpt><trkpt lat="46.025082627239826" lon="11.591162031431463"><ele>271.0</ele><time>2026-04-17T09:49:21Z</time></trkpt><trkpt lat="46.02526552413467" lon="11.590843461436886"><ele>271.0</ele><time>2026-04-17T09:49:22Z</time></trkpt><trkpt lat="46.025447030596794" lon="11.59050388652027"><ele>271.0</ele><time>2026-04-17T09:49:23Z</time></trkpt><trkpt lat="46.025630955096354" lon="11.590159792974285"><ele>271.0</ele><time>2026-04-17T09:49:24Z</time></trkpt><trkpt lat="46.02581704634703" lon="11.589808249033727"><ele>271.5</ele><time>2026-04-17T09:49:25Z</time></trkpt><trkpt lat="46.02599167952212" lon="11.58943429169549"><ele>272.0</ele><time>2026-04-17T09:49:26Z</time></trkpt><trkpt lat="46.026191117286444" lon="11.589082207928792"><ele>272.0</ele><time>2026-04-17T09:49:27Z</time></trkpt><trkpt lat="46.02639131095157" lon="11.588727022325655"><ele>272.0</ele><time>2026-04-17T09:49:28Z</time></trkpt><trkpt lat="46.026589963725485" lon="11.5883630627487"><ele>272.0</ele><time>2026-04-17T09:49:29Z</time></trkpt><trkpt lat="46.02678840654575" lon="11.587994478173643"><ele>272.0</ele><time>2026-04-17T09:49:30Z</time></trkpt><trkpt lat="46.02698650299428" lon="11.587622676997347"><ele>272.0</ele><time>2026-04-17T09:49:31Z</time></trkpt><trkpt lat="46.027185727111465" lon="11.587249624517918"><ele>272.0</ele><time>2026-04-17T09:49:32Z</time></trkpt><trkpt lat="46.02738536651544" lon="11.586876108164377"><ele>272.5</ele><time>2026-04-17T09:49:33Z</time></trkpt><trkpt lat="46.02758394597199" lon="11.586501377146664"><ele>273.0</ele><time>2026-04-17T09:49:34Z</time></trkpt><trkpt lat="46.02778326363781" lon="11.58612823561848"><ele>273.0</ele><time>2026-04-17T09:49:35Z</time></trkpt><trkpt lat="46.027974743869294" lon="11.585766162191758"><ele>273.0</ele><time>2026-04-17T09:49:36Z</time></trkpt><trkpt lat="46.02815237104872" lon="11.585436490282229"><ele>276.0</ele><time>2026-04-17T09:49:37Z</time></trkpt><trkpt lat="46.028331374775725" lon="11.585100126612573"><ele>279.0</ele><time>2026-04-17T09:49:38Z</time></trkpt><trkpt lat="46.028508064697505" lon="11.58476576532424"><ele>278.5</ele><time>2026-04-17T09:49:39Z</time></trkpt><trkpt lat="46.028674196078526" lon="11.584450320896334"><ele>278.0</ele><time>2026-04-17T09:49:40Z</time></trkpt><trkpt lat="46.028830871315044" lon="11.584149926110486"><ele>278.0</ele><time>2026-04-17T09:49:41Z</time></trkpt><trkpt lat="46.02898287937575" lon="11.583855773855236"><ele>278.0</ele><time>2026-04-17T09:49:42Z</time></trkpt><trkpt lat="46.029137841146564" lon="11.58355874338941"><ele>280.5</ele><time>2026-04-17T09:49:43Z</time></trkpt><trkpt lat="46.02929048154789" lon="11.583268575837867"><ele>283.0</ele><time>2026-04-17T09:49:44Z</time></trkpt><trkpt lat="46.02943210265514" lon="11.582991585946424"><ele>281.0</ele><time>2026-04-17T09:49:45Z</time></trkpt><trkpt lat="46.029563757081384" lon="11.582712782298154"><ele>279.0</ele><time>2026-04-17T09:49:46Z</time></trkpt><trkpt lat="46.02968763985431" lon="11.582429419910131"><ele>279.0</ele><time>2026-04-17T09:49:47Z</time></trkpt><trkpt lat="46.029803496158316" lon="11.582152556576979"><ele>279.0</ele><time>2026-04-17T09:49:48Z</time></trkpt><trkpt lat="46.02991727908794" lon="11.581876604114886"><ele>279.0</ele><time>2026-04-17T09:49:49Z</time></trkpt><trkpt lat="46.03002360528683" lon="11.581600174434891"><ele>279.5</ele><time>2026-04-17T09:49:50Z</time></trkpt><trkpt lat="46.03012701389091" lon="11.58130150399299"><ele>280.0</ele><time>2026-04-17T09:49:51Z</time></trkpt><trkpt lat="46.030223528808484" lon="11.580991189039262"><ele>280.0</ele><time>2026-04-17T09:49:52Z</time></trkpt><trkpt lat="46.03031578751417" lon="11.580669241942346"><ele>280.0</ele><time>2026-04-17T09:49:53Z</time></trkpt><trkpt lat="46.030403352110795" lon="11.580316366100568"><ele>279.0</ele><time>2026-04-17T09:49:54Z</time></trkpt><trkpt lat="46.03049157070474" lon="11.579944364076198"><ele>278.0</ele><time>2026-04-17T09:49:55Z</time></trkpt><trkpt lat="46.030587953468604" lon="11.579564170872523"><ele>277.5</ele><time>2026-04-17T09:49:56Z</time></trkpt><trkpt lat="46.0306921143919" lon="11.579174519112545"><ele>277.0</ele><time>2026-04-17T09:49:57Z</time></trkpt><trkpt lat="46.03080122018466" lon="11.578775008307804"><ele>278.0</ele><time>2026-04-17T09:49:58Z</time></trkpt><trkpt lat="46.030909122320935" lon="11.578366457325458"><ele>279.0</ele><time>2026-04-17T09:49:59Z</time></trkpt><trkpt lat="46.03101734448042" lon="11.577947932566591"><ele>279.5</ele><time>2026-04-17T09:50:00Z</time></trkpt><trkpt lat="46.031128336471646" lon="11.577524907867996"><ele>280.0</ele><time>2026-04-17T09:50:01Z</time></trkpt><trkpt lat="46.031242322247394" lon="11.577099472175673"><ele>280.0</ele><time>2026-04-17T09:50:02Z</time></trkpt><trkpt lat="46.03135389346986" lon="11.576663454042928"><ele>280.0</ele><time>2026-04-17T09:50:03Z</time></trkpt><trkpt lat="46.0314644591158" lon="11.576220281412578"><ele>281.0</ele><time>2026-04-17T09:50:04Z</time></trkpt><trkpt lat="46.031577895382036" lon="11.575765645325083"><ele>282.0</ele><time>2026-04-17T09:50:05Z</time></trkpt><trkpt lat="46.0316930824018" lon="11.575308468050894"><ele>282.5</ele><time>2026-04-17T09:50:06Z</time></trkpt><trkpt lat="46.031808968728875" lon="11.574850075398254"><ele>283.0</ele><time>2026-04-17T09:50:07Z</time></trkpt><trkpt lat="46.03192234085773" lon="11.57438774526881"><ele>283.5</ele><time>2026-04-17T09:50:08Z</time></trkpt><trkpt lat="46.03203471857509" lon="11.573925030349228"><ele>284.0</ele><time>2026-04-17T09:50:09Z</time></trkpt><trkpt lat="46.032145632564905" lon="11.573464958054247"><ele>284.5</ele><time>2026-04-17T09:50:10Z</time></trkpt><trkpt lat="46.0322575529384" lon="11.573000378352802"><ele>285.0</ele><time>2026-04-17T09:50:11Z</time></trkpt><trkpt lat="46.032370961203156" lon="11.572539821804563"><ele>285.0</ele><time>2026-04-17T09:50:12Z</time></trkpt><trkpt lat="46.03248348572374" lon="11.57212754972293"><ele>285.0</ele><time>2026-04-17T09:50:13Z</time></trkpt><trkpt lat="46.03258614661244" lon="11.571744869861043"><ele>285.0</ele><time>2026-04-17T09:50:14Z</time></trkpt><trkpt lat="46.03267904909521" lon="11.571387429868759"><ele>285.0</ele><time>2026-04-17T09:50:15Z</time></trkpt><trkpt lat="46.032770050494214" lon="11.57104771337175"><ele>285.0</ele><time>2026-04-17T09:50:16Z</time></trkpt><trkpt lat="46.032852986555724" lon="11.570724283266092"><ele>285.0</ele><time>2026-04-17T09:50:17Z</time></trkpt><trkpt lat="46.03292887018363" lon="11.570425550618378"><ele>285.0</ele><time>2026-04-17T09:50:18Z</time></trkpt><trkpt lat="46.0329995902001" lon="11.570146668930962"><ele>285.0</ele><time>2026-04-17T09:50:19Z</time></trkpt><trkpt lat="46.03306667063506" lon="11.569888478254626"><ele>285.0</ele><time>2026-04-17T09:50:20Z</time></trkpt><trkpt lat="46.033129525917815" lon="11.569646267054551"><ele>285.3333333333333</ele><time>2026-04-17T09:50:21Z</time></trkpt><trkpt lat="46.033187278933916" lon="11.56942198910293"><ele>285.66666666666663</ele><time>2026-04-17T09:50:22Z</time></trkpt><trkpt lat="46.03324440533536" lon="11.569197169564701"><ele>286.0</ele><time>2026-04-17T09:50:23Z</time></trkpt><trkpt lat="46.033300508517264" lon="11.56897495836404"><ele>286.3333333333333</ele><time>2026-04-17T09:50:24Z</time></trkpt><trkpt lat="46.033352803707935" lon="11.568768418221032"><ele>286.6666666666667</ele><time>2026-04-17T09:50:25Z</time></trkpt><trkpt lat="46.03340358594388" lon="11.568564666461848"><ele>287.0</ele><time>2026-04-17T09:50:26Z</time></trkpt><trkpt lat="46.03345372080586" lon="11.568356450290786"><ele>287.0</ele><time>2026-04-17T09:50:27Z</time></trkpt><trkpt lat="46.03350459119052" lon="11.568148409226033"><ele>287.0</ele><time>2026-04-17T09:50:28Z</time></trkpt><trkpt lat="46.03355776791413" lon="11.567937434274919"><ele>287.0</ele><time>2026-04-17T09:50:29Z</time></trkpt><trkpt lat="46.03361233659052" lon="11.567719964947615"><ele>287.0</ele><time>2026-04-17T09:50:30Z</time></trkpt><trkpt lat="46.033667091651715" lon="11.567496511663956"><ele>287.0</ele><time>2026-04-17T09:50:31Z</time></trkpt><trkpt lat="46.03372361922911" lon="11.567264359999294"><ele>287.0</ele><time>2026-04-17T09:50:32Z</time></trkpt><trkpt lat="46.03379170176515" lon="11.566993172830639"><ele>287.33333333333337</ele><time>2026-04-17T09:50:33Z</time></trkpt><trkpt lat="46.03386333781586" lon="11.56671764602082"><ele>287.6666666666667</ele><time>2026-04-17T09:50:34Z</time></trkpt><trkpt lat="46.03393140940849" lon="11.56647882427423"><ele>288.0</ele><time>2026-04-17T09:50:35Z</time></trkpt><trkpt lat="46.034000812852604" lon="11.566259732007616"><ele>288.0</ele><time>2026-04-17T09:50:36Z</time></trkpt><trkpt lat="46.03406605979728" lon="11.566052159156289"><ele>288.0</ele><time>2026-04-17T09:50:37Z</time></trkpt><trkpt lat="46.034128732013606" lon="11.565842927952929"><ele>288.0</ele><time>2026-04-17T09:50:38Z</time></trkpt><trkpt lat="46.034194186429055" lon="11.565633643662672"><ele>288.0</ele><time>2026-04-17T09:50:39Z</time></trkpt><trkpt lat="46.034265129313795" lon="11.565431067009545"><ele>288.0</ele><time>2026-04-17T09:50:40Z</time></trkpt><trkpt lat="46.034336705457996" lon="11.565233053117131"><ele>288.0</ele><time>2026-04-17T09:50:41Z</time></trkpt><trkpt lat="46.0344077457582" lon="11.565035160650769"><ele>288.0</ele><time>2026-04-17T09:50:42Z</time></trkpt><trkpt lat="46.03448197372795" lon="11.564837901576192"><ele>288.0</ele><time>2026-04-17T09:50:43Z</time></trkpt><trkpt lat="46.03455635534862" lon="11.564639119735274"><ele>288.0</ele><time>2026-04-17T09:50:44Z</time></trkpt><trkpt lat="46.03463640182017" lon="11.564434503541754"><ele>288.6666666666667</ele><time>2026-04-17T09:50:45Z</time></trkpt><trkpt lat="46.034720215542734" lon="11.56421512166002"><ele>289.33333333333337</ele><time>2026-04-17T09:50:46Z</time></trkpt><trkpt lat="46.03480850349914" lon="11.563957956076655"><ele>290.0</ele><time>2026-04-17T09:50:47Z</time></trkpt><trkpt lat="46.034935039499764" lon="11.563686746156492"><ele>289.5</ele><time>2026-04-17T09:50:48Z</time></trkpt><trkpt lat="46.03505636954285" lon="11.563376473840236"><ele>289.0</ele><time>2026-04-17T09:50:49Z</time></trkpt><trkpt lat="46.03518259317329" lon="11.563055746057614"><ele>290.0</ele><time>2026-04-17T09:50:50Z</time></trkpt><trkpt lat="46.035317862418786" lon="11.562710636032945"><ele>291.0</ele><time>2026-04-17T09:50:51Z</time></trkpt><trkpt lat="46.035458885053686" lon="11.562351737434453"><ele>291.0</ele><time>2026-04-17T09:50:52Z</time></trkpt><trkpt lat="46.03559757811607" lon="11.562000357237087"><ele>291.0</ele><time>2026-04-17T09:50:53Z</time></trkpt><trkpt lat="46.03573407446132" lon="11.561655264548962"><ele>292.5</ele><time>2026-04-17T09:50:54Z</time></trkpt><trkpt lat="46.03587124293954" lon="11.561308472631788"><ele>294.0</ele><time>2026-04-17T09:50:55Z</time></trkpt><trkpt lat="46.036007275374516" lon="11.56096404289709"><ele>294.0</ele><time>2026-04-17T09:50:56Z</time></trkpt><trkpt lat="46.03614240477336" lon="11.560619442130207"><ele>294.0</ele><time>2026-04-17T09:50:57Z</time></trkpt><trkpt lat="46.03627798412717" lon="11.560265387634109"><ele>294.5</ele><time>2026-04-17T09:50:58Z</time></trkpt><trkpt lat="46.036421692301175" lon="11.55989377542379"><ele>295.0</ele><time>2026-04-17T09:50:59Z</time></trkpt><trkpt lat="46.036565364554505" lon="11.559513903643463"><ele>298.5</ele><time>2026-04-17T09:51:00Z</time></trkpt><trkpt lat="46.036709433110985" lon="11.559128444062663"><ele>302.0</ele><time>2026-04-17T09:51:01Z</time></trkpt><trkpt lat="46.0368411137333" lon="11.558735775524772"><ele>300.5</ele><time>2026-04-17T09:51:02Z</time></trkpt><trkpt lat="46.036989980638246" lon="11.55838233335753"><ele>299.0</ele><time>2026-04-17T09:51:03Z</time></trkpt><trkpt lat="46.037131627634366" lon="11.558054928113837"><ele>298.5</ele><time>2026-04-17T09:51:04Z</time></trkpt><trkpt lat="46.037268031207326" lon="11.557734429503286"><ele>298.0</ele><time>2026-04-17T09:51:05Z</time></trkpt><trkpt lat="46.03740046466575" lon="11.557408908026185"><ele>299.0</ele><time>2026-04-17T09:51:06Z</time></trkpt><trkpt lat="46.03752671103894" lon="11.557087890858547"><ele>300.0</ele><time>2026-04-17T09:51:07Z</time></trkpt><trkpt lat="46.037643926948576" lon="11.55679006215989"><ele>300.0</ele><time>2026-04-17T09:51:08Z</time></trkpt><trkpt lat="46.03775410645488" lon="11.556507395202036"><ele>300.0</ele><time>2026-04-17T09:51:09Z</time></trkpt><trkpt lat="46.03785762106396" lon="11.556234359094082"><ele>300.0</ele><time>2026-04-17T09:51:10Z</time></trkpt><trkpt lat="46.03796268332762" lon="11.555962215968794"><ele>299.6666666666667</ele><time>2026-04-17T09:51:11Z</time></trkpt><trkpt lat="46.0380669729707" lon="11.555692762348405"><ele>299.33333333333337</ele><time>2026-04-17T09:51:12Z</time></trkpt><trkpt lat="46.038174584414605" lon="11.55542363203596"><ele>299.0</ele><time>2026-04-17T09:51:13Z</time></trkpt><trkpt lat="46.03828206868263" lon="11.555156451016588"><ele>299.33333333333337</ele><time>2026-04-17T09:51:14Z</time></trkpt><trkpt lat="46.03838956439808" lon="11.554891178946365"><ele>299.6666666666667</ele><time>2026-04-17T09:51:15Z</time></trkpt><trkpt lat="46.03849504310822" lon="11.55462801056728"><ele>300.0</ele><time>2026-04-17T09:51:16Z</time></trkpt><trkpt lat="46.03859621695349" lon="11.554369017278802"><ele>300.0</ele><time>2026-04-17T09:51:17Z</time></trkpt><trkpt lat="46.03869453346585" lon="11.554126112497077"><ele>300.0</ele><time>2026-04-17T09:51:18Z</time></trkpt><trkpt lat="46.038788144827414" lon="11.55388676864804"><ele>300.0</ele><time>2026-04-17T09:51:19Z</time></trkpt><trkpt lat="46.03888202701462" lon="11.5536434674156"><ele>300.0</ele><time>2026-04-17T09:51:20Z</time></trkpt><trkpt lat="46.03897643896255" lon="11.55340224362496"><ele>300.0</ele><time>2026-04-17T09:51:21Z</time></trkpt><trkpt lat="46.039071596649336" lon="11.553162453688902"><ele>300.0</ele><time>2026-04-17T09:51:22Z</time></trkpt><trkpt lat="46.03916567063209" lon="11.552923511407391"><ele>300.6666666666667</ele><time>2026-04-17T09:51:23Z</time></trkpt><trkpt lat="46.03925851540494" lon="11.552683204026978"><ele>301.33333333333337</ele><time>2026-04-17T09:51:24Z</time></trkpt><trkpt lat="46.03935527079449" lon="11.55244542185822"><ele>302.0</ele><time>2026-04-17T09:51:25Z</time></trkpt><trkpt lat="46.03945238824198" lon="11.552199363352283"><ele>301.6666666666667</ele><time>2026-04-17T09:51:26Z</time></trkpt><trkpt lat="46.039547927854024" lon="11.551945993391541"><ele>301.3333333333333</ele><time>2026-04-17T09:51:27Z</time></trkpt><trkpt lat="46.03964439437024" lon="11.551697724833673"><ele>301.0</ele><time>2026-04-17T09:51:28Z</time></trkpt><trkpt lat="46.03974685534565" lon="11.551446038377227"><ele>300.5</ele><time>2026-04-17T09:51:29Z</time></trkpt><trkpt lat="46.03985190668152" lon="11.551160011377661"><ele>300.0</ele><time>2026-04-17T09:51:30Z</time></trkpt><trkpt lat="46.03996216624084" lon="11.550847905057184"><ele>301.0</ele><time>2026-04-17T09:51:31Z</time></trkpt><trkpt lat="46.04008392680914" lon="11.550520238622557"><ele>302.0</ele><time>2026-04-17T09:51:32Z</time></trkpt><trkpt lat="46.04021512449312" lon="11.550181437638377"><ele>302.0</ele><time>2026-04-17T09:51:33Z</time></trkpt><trkpt lat="46.04035912216687" lon="11.549836906918827"><ele>302.0</ele><time>2026-04-17T09:51:34Z</time></trkpt><trkpt lat="46.040510313425244" lon="11.549480818081184"><ele>302.0</ele><time>2026-04-17T09:51:35Z</time></trkpt><trkpt lat="46.04066588667124" lon="11.549115385574899"><ele>302.0</ele><time>2026-04-17T09:51:36Z</time></trkpt><trkpt lat="46.04082314351505" lon="11.548737937945589"><ele>303.5</ele><time>2026-04-17T09:51:37Z</time></trkpt><trkpt lat="46.040976987889486" lon="11.548345210885495"><ele>305.0</ele><time>2026-04-17T09:51:38Z</time></trkpt><trkpt lat="46.04113241045074" lon="11.547944693975674"><ele>304.5</ele><time>2026-04-17T09:51:39Z</time></trkpt><trkpt lat="46.04129111620311" lon="11.54753671280037"><ele>304.0</ele><time>2026-04-17T09:51:40Z</time></trkpt><trkpt lat="46.04145357735055" lon="11.547123702048701"><ele>304.5</ele><time>2026-04-17T09:51:41Z</time></trkpt><trkpt lat="46.04161658640492" lon="11.546714210966504"><ele>305.0</ele><time>2026-04-17T09:51:42Z</time></trkpt><trkpt lat="46.0417794712833" lon="11.54630643038162"><ele>305.0</ele><time>2026-04-17T09:51:43Z</time></trkpt><trkpt lat="46.04193979733613" lon="11.545901661167916"><ele>305.0</ele><time>2026-04-17T09:51:44Z</time></trkpt><trkpt lat="46.04209775141722" lon="11.54549913838667"><ele>305.5</ele><time>2026-04-17T09:51:45Z</time></trkpt><trkpt lat="46.04225434387264" lon="11.545098690896555"><ele>306.0</ele><time>2026-04-17T09:51:46Z</time></trkpt><trkpt lat="46.04240931963071" lon="11.544700859486598"><ele>307.0</ele><time>2026-04-17T09:51:47Z</time></trkpt><trkpt lat="46.04256486132539" lon="11.544303832939827"><ele>308.0</ele><time>2026-04-17T09:51:48Z</time></trkpt><trkpt lat="46.04271910400945" lon="11.543909714588779"><ele>308.0</ele><time>2026-04-17T09:51:49Z</time></trkpt><trkpt lat="46.0428738354867" lon="11.543514132329117"><ele>308.0</ele><time>2026-04-17T09:51:50Z</time></trkpt><trkpt lat="46.043022268830455" lon="11.543116871474206"><ele>308.5</ele><time>2026-04-17T09:51:51Z</time></trkpt><trkpt lat="46.04317476833945" lon="11.542728110111456"><ele>309.0</ele><time>2026-04-17T09:51:52Z</time></trkpt><trkpt lat="46.043325048508756" lon="11.54233907402757"><ele>309.5</ele><time>2026-04-17T09:51:53Z</time></trkpt><trkpt lat="46.0434760470694" lon="11.541953593347705"><ele>310.0</ele><time>2026-04-17T09:51:54Z</time></trkpt><trkpt lat="46.043628332461466" lon="11.541569741370038"><ele>310.0</ele><time>2026-04-17T09:51:55Z</time></trkpt><trkpt lat="46.04378698760236" lon="11.54117689601421"><ele>310.0</ele><time>2026-04-17T09:51:56Z</time></trkpt><trkpt lat="46.04394849058918" lon="11.540780593612663"><ele>310.0</ele><time>2026-04-17T09:51:57Z</time></trkpt><trkpt lat="46.04411220551115" lon="11.540376745950843"><ele>310.0</ele><time>2026-04-17T09:51:58Z</time></trkpt><trkpt lat="46.044277160044395" lon="11.53996796687164"><ele>310.0</ele><time>2026-04-17T09:51:59Z</time></trkpt><trkpt lat="46.04444296832173" lon="11.5395547738924"><ele>310.0</ele><time>2026-04-17T09:52:00Z</time></trkpt><trkpt lat="46.044605668103955" lon="11.53913423420064"><ele>311.0</ele><time>2026-04-17T09:52:01Z</time></trkpt><trkpt lat="46.044768424194594" lon="11.538708344271035"><ele>312.0</ele><time>2026-04-17T09:52:02Z</time></trkpt><trkpt lat="46.04493580982519" lon="11.538286014362056"><ele>313.5</ele><time>2026-04-17T09:52:03Z</time></trkpt><trkpt lat="46.045103122659334" lon="11.537862347575313"><ele>315.0</ele><time>2026-04-17T09:52:04Z</time></trkpt><trkpt lat="46.045272086717056" lon="11.53744330164762"><ele>315.0</ele><time>2026-04-17T09:52:05Z</time></trkpt><trkpt lat="46.04543899045105" lon="11.53702422800259"><ele>315.0</ele><time>2026-04-17T09:52:06Z</time></trkpt><trkpt lat="46.04560317603927" lon="11.536601873024027"><ele>315.0</ele><time>2026-04-17T09:52:07Z</time></trkpt><trkpt lat="46.04576711096623" lon="11.536181325295574"><ele>315.0</ele><time>2026-04-17T09:52:08Z</time></trkpt><trkpt lat="46.04593084358184" lon="11.535762119847778"><ele>317.0</ele><time>2026-04-17T09:52:09Z</time></trkpt><trkpt lat="46.04609235098341" lon="11.535344691131327"><ele>319.0</ele><time>2026-04-17T09:52:10Z</time></trkpt><trkpt lat="46.046255141608164" lon="11.534931471920265"><ele>319.0</ele><time>2026-04-17T09:52:11Z</time></trkpt><trkpt lat="46.046417654804245" lon="11.534520811212433"><ele>319.0</ele><time>2026-04-17T09:52:12Z</time></trkpt><trkpt lat="46.04657803287093" lon="11.53410889826407"><ele>321.0</ele><time>2026-04-17T09:52:13Z</time></trkpt><trkpt lat="46.04673371948972" lon="11.533696797891128"><ele>323.0</ele><time>2026-04-17T09:52:14Z</time></trkpt><trkpt lat="46.046890636432835" lon="11.533288845461877"><ele>323.0</ele><time>2026-04-17T09:52:15Z</time></trkpt><trkpt lat="46.04704854657365" lon="11.53288021491433"><ele>323.0</ele><time>2026-04-17T09:52:16Z</time></trkpt><trkpt lat="46.047207465704695" lon="11.53247001369341"><ele>323.0</ele><time>2026-04-17T09:52:17Z</time></trkpt><trkpt lat="46.0473645486779" lon="11.53206827451807"><ele>323.0</ele><time>2026-04-17T09:52:18Z</time></trkpt><trkpt lat="46.04751249355826" lon="11.531696240994197"><ele>326.0</ele><time>2026-04-17T09:52:19Z</time></trkpt><trkpt lat="46.04764886312545" lon="11.531345621705166"><ele>329.0</ele><time>2026-04-17T09:52:20Z</time></trkpt><trkpt lat="46.04778241420733" lon="11.530972481842891"><ele>329.0</ele><time>2026-04-17T09:52:21Z</time></trkpt><trkpt lat="46.047904685180605" lon="11.530599363032119"><ele>329.0</ele><time>2026-04-17T09:52:22Z</time></trkpt><trkpt lat="46.048013205568985" lon="11.530239701081653"><ele>329.0</ele><time>2026-04-17T09:52:23Z</time></trkpt><trkpt lat="46.048111219001875" lon="11.529881547972401"><ele>329.0</ele><time>2026-04-17T09:52:24Z</time></trkpt><trkpt lat="46.04820313803956" lon="11.5294954241016"><ele>331.5</ele><time>2026-04-17T09:52:25Z</time></trkpt><trkpt lat="46.04829456863728" lon="11.529113729228348"><ele>334.0</ele><time>2026-04-17T09:52:26Z</time></trkpt><trkpt lat="46.04838108401969" lon="11.52876974246241"><ele>334.0</ele><time>2026-04-17T09:52:27Z</time></trkpt><trkpt lat="46.04845640311552" lon="11.528464297059081"><ele>334.0</ele><time>2026-04-17T09:52:28Z</time></trkpt><trkpt lat="46.048522351066104" lon="11.528174714067111"><ele>334.0</ele><time>2026-04-17T09:52:29Z</time></trkpt><trkpt lat="46.04858544951281" lon="11.52783611260436"><ele>334.0</ele><time>2026-04-17T09:52:30Z</time></trkpt><trkpt lat="46.04865454272507" lon="11.527458906387324"><ele>334.0</ele><time>2026-04-17T09:52:31Z</time></trkpt><trkpt lat="46.048735460657845" lon="11.527086750753337"><ele>334.5</ele><time>2026-04-17T09:52:32Z</time></trkpt><trkpt lat="46.048823116630345" lon="11.526729498588026"><ele>335.0</ele><time>2026-04-17T09:52:33Z</time></trkpt><trkpt lat="46.04890735730125" lon="11.526402242407654"><ele>336.33333333333337</ele><time>2026-04-17T09:52:34Z</time></trkpt><trkpt lat="46.04898150358723" lon="11.526092599441693"><ele>337.6666666666667</ele><time>2026-04-17T09:52:35Z</time></trkpt><trkpt lat="46.049043492455304" lon="11.52581167899973"><ele>339.0</ele><time>2026-04-17T09:52:36Z</time></trkpt><trkpt lat="46.049102599737175" lon="11.52554467759077"><ele>340.0</ele><time>2026-04-17T09:52:37Z</time></trkpt><trkpt lat="46.049154703506844" lon="11.525298219344023"><ele>341.0</ele><time>2026-04-17T09:52:38Z</time></trkpt><trkpt lat="46.049203438027796" lon="11.525068832985419"><ele>342.0</ele><time>2026-04-17T09:52:39Z</time></trkpt><trkpt lat="46.04925287833865" lon="11.524839767980668"><ele>342.0</ele><time>2026-04-17T09:52:40Z</time></trkpt><trkpt lat="46.04930307813656" lon="11.524597877144444"><ele>342.0</ele><time>2026-04-17T09:52:41Z</time></trkpt><trkpt lat="46.049355256200045" lon="11.52436500544554"><ele>342.0</ele><time>2026-04-17T09:52:42Z</time></trkpt><trkpt lat="46.04940769863086" lon="11.524136565684097"><ele>343.0</ele><time>2026-04-17T09:52:43Z</time></trkpt><trkpt lat="46.04945910436757" lon="11.523912301479458"><ele>344.0</ele><time>2026-04-17T09:52:44Z</time></trkpt><trkpt lat="46.049507931481315" lon="11.523692402101057"><ele>345.0</ele><time>2026-04-17T09:52:45Z</time></trkpt><trkpt lat="46.04955603076521" lon="11.523472940407862"><ele>345.0</ele><time>2026-04-17T09:52:46Z</time></trkpt><trkpt lat="46.04960711071385" lon="11.52322928201842"><ele>345.0</ele><time>2026-04-17T09:52:47Z</time></trkpt><trkpt lat="46.04966210765881" lon="11.52295243669524"><ele>345.0</ele><time>2026-04-17T09:52:48Z</time></trkpt><trkpt lat="46.04972188299292" lon="11.522647802044872"><ele>345.3333333333333</ele><time>2026-04-17T09:52:49Z</time></trkpt><trkpt lat="46.0497889243828" lon="11.522341769108234"><ele>345.66666666666663</ele><time>2026-04-17T09:52:50Z</time></trkpt><trkpt lat="46.04985332344496" lon="11.522079517293019"><ele>346.0</ele><time>2026-04-17T09:52:51Z</time></trkpt><trkpt lat="46.04991315564215" lon="11.521825764645037"><ele>347.3333333333333</ele><time>2026-04-17T09:52:52Z</time></trkpt><trkpt lat="46.04996651874153" lon="11.521590045999039"><ele>348.6666666666667</ele><time>2026-04-17T09:52:53Z</time></trkpt><trkpt lat="46.05001602887178" lon="11.521371375153878"><ele>350.0</ele><time>2026-04-17T09:52:54Z</time></trkpt><trkpt lat="46.05006554127161" lon="11.52114676190178"><ele>350.33333333333337</ele><time>2026-04-17T09:52:55Z</time></trkpt><trkpt lat="46.05011614914929" lon="11.52092006272821"><ele>350.6666666666667</ele><time>2026-04-17T09:52:56Z</time></trkpt><trkpt lat="46.05016631965753" lon="11.520677795946431"><ele>351.0</ele><time>2026-04-17T09:52:57Z</time></trkpt><trkpt lat="46.05021824192117" lon="11.52043450822409"><ele>351.0</ele><time>2026-04-17T09:52:58Z</time></trkpt><trkpt lat="46.050269855639215" lon="11.52020353907138"><ele>351.0</ele><time>2026-04-17T09:52:59Z</time></trkpt><trkpt lat="46.050320410966705" lon="11.51999206784554"><ele>351.0</ele><time>2026-04-17T09:53:00Z</time></trkpt><trkpt lat="46.05036858980253" lon="11.519787395442808"><ele>351.0</ele><time>2026-04-17T09:53:01Z</time></trkpt><trkpt lat="46.05041699736921" lon="11.519578338062125"><ele>351.0</ele><time>2026-04-17T09:53:02Z</time></trkpt><trkpt lat="46.05046432087605" lon="11.51937220613736"><ele>351.0</ele><time>2026-04-17T09:53:03Z</time></trkpt><trkpt lat="46.05051202636082" lon="11.519166208721757"><ele>350.6666666666667</ele><time>2026-04-17T09:53:04Z</time></trkpt><trkpt lat="46.05055730454024" lon="11.518953511680051"><ele>350.33333333333337</ele><time>2026-04-17T09:53:05Z</time></trkpt><trkpt lat="46.050603623785356" lon="11.518745291725152"><ele>350.0</ele><time>2026-04-17T09:53:06Z</time></trkpt><trkpt lat="46.05064955549734" lon="11.518533618953835"><ele>349.33333333333337</ele><time>2026-04-17T09:53:07Z</time></trkpt><trkpt lat="46.05069619376458" lon="11.518317838823476"><ele>348.6666666666667</ele><time>2026-04-17T09:53:08Z</time></trkpt><trkpt lat="46.0507443090414" lon="11.518095428837492"><ele>348.0</ele><time>2026-04-17T09:53:09Z</time></trkpt><trkpt lat="46.05079584003652" lon="11.517869666693018"><ele>349.3333333333333</ele><time>2026-04-17T09:53:10Z</time></trkpt><trkpt lat="46.05084824453682" lon="11.517635940007505"><ele>350.66666666666663</ele><time>2026-04-17T09:53:11Z</time></trkpt><trkpt lat="46.0509020769441" lon="11.517397566188802"><ele>352.0</ele><time>2026-04-17T09:53:12Z</time></trkpt><trkpt lat="46.05095397594674" lon="11.517154131477993"><ele>350.66666666666663</ele><time>2026-04-17T09:53:13Z</time></trkpt><trkpt lat="46.05100517382047" lon="11.516904727834822"><ele>349.3333333333333</ele><time>2026-04-17T09:53:14Z</time></trkpt><trkpt lat="46.051057583067085" lon="11.516648215186956"><ele>348.0</ele><time>2026-04-17T09:53:15Z</time></trkpt><trkpt lat="46.05113079586022" lon="11.516377390358425"><ele>347.3333333333333</ele><time>2026-04-17T09:53:16Z</time></trkpt><trkpt lat="46.05117931993001" lon="11.516082010541394"><ele>346.66666666666663</ele><time>2026-04-17T09:53:17Z</time></trkpt><trkpt lat="46.05124657316798" lon="11.515786517446525"><ele>346.0</ele><time>2026-04-17T09:53:18Z</time></trkpt><trkpt lat="46.051311296480975" lon="11.515513949908275"><ele>346.0</ele><time>2026-04-17T09:53:19Z</time></trkpt><trkpt lat="46.05136935745893" lon="11.515256077385482"><ele>346.0</ele><time>2026-04-17T09:53:20Z</time></trkpt><trkpt lat="46.05142547834917" lon="11.515013769161648"><ele>346.0</ele><time>2026-04-17T09:53:21Z</time></trkpt><trkpt lat="46.05148210788327" lon="11.514768381490097"><ele>346.3333333333333</ele><time>2026-04-17T09:53:22Z</time></trkpt><trkpt lat="46.051539905679746" lon="11.514525865720634"><ele>346.6666666666667</ele><time>2026-04-17T09:53:23Z</time></trkpt><trkpt lat="46.051595371290915" lon="11.51428187684788"><ele>347.0</ele><time>2026-04-17T09:53:24Z</time></trkpt><trkpt lat="46.051647212733116" lon="11.514039080580305"><ele>347.6666666666667</ele><time>2026-04-17T09:53:25Z</time></trkpt><trkpt lat="46.05169715302242" lon="11.513805838460685"><ele>348.3333333333333</ele><time>2026-04-17T09:53:26Z</time></trkpt><trkpt lat="46.05174793600124" lon="11.513575120579736"><ele>349.0</ele><time>2026-04-17T09:53:27Z</time></trkpt><trkpt lat="46.05179794668323" lon="11.513343065003136"><ele>349.0</ele><time>2026-04-17T09:53:28Z</time></trkpt><trkpt lat="46.05185095445336" lon="11.513114726409778"><ele>349.0</ele><time>2026-04-17T09:53:29Z</time></trkpt><trkpt lat="46.051903939668286" lon="11.512880737427945"><ele>349.0</ele><time>2026-04-17T09:53:30Z</time></trkpt><trkpt lat="46.05195549522138" lon="11.512640310459686"><ele>349.0</ele><time>2026-04-17T09:53:31Z</time></trkpt><trkpt lat="46.052007229759376" lon="11.512396018746168"><ele>349.0</ele><time>2026-04-17T09:53:32Z</time></trkpt><trkpt lat="46.05205651578298" lon="11.512145427915964"><ele>349.0</ele><time>2026-04-17T09:53:33Z</time></trkpt><trkpt lat="46.05210128423456" lon="11.511883428885463"><ele>349.0</ele><time>2026-04-17T09:53:34Z</time></trkpt><trkpt lat="46.052137471410376" lon="11.511620070340506"><ele>349.0</ele><time>2026-04-17T09:53:35Z</time></trkpt><trkpt lat="46.0521696988583" lon="11.5113615734339"><ele>349.0</ele><time>2026-04-17T09:53:36Z</time></trkpt><trkpt lat="46.052197402814116" lon="11.511107513514357"><ele>348.3333333333333</ele><time>2026-04-17T09:53:37Z</time></trkpt><trkpt lat="46.05222021907684" lon="11.510846183175353"><ele>347.6666666666667</ele><time>2026-04-17T09:53:38Z</time></trkpt><trkpt lat="46.05223190304985" lon="11.510582684048645"><ele>347.0</ele><time>2026-04-17T09:53:39Z</time></trkpt><trkpt lat="46.05222113959636" lon="11.510297722299523"><ele>347.0</ele><time>2026-04-17T09:53:40Z</time></trkpt><trkpt lat="46.05219383413492" lon="11.5100001173099"><ele>347.0</ele><time>2026-04-17T09:53:41Z</time></trkpt><trkpt lat="46.05215013478524" lon="11.509717154746621"><ele>347.0</ele><time>2026-04-17T09:53:42Z</time></trkpt><trkpt lat="46.0520890938468" lon="11.509414096126072"><ele>348.0</ele><time>2026-04-17T09:53:43Z</time></trkpt><trkpt lat="46.05201531153321" lon="11.50906289030907"><ele>349.0</ele><time>2026-04-17T09:53:44Z</time></trkpt><trkpt lat="46.051939450251105" lon="11.508676394930836"><ele>349.5</ele><time>2026-04-17T09:53:45Z</time></trkpt><trkpt lat="46.05185723484851" lon="11.50825874440182"><ele>350.0</ele><time>2026-04-17T09:53:46Z</time></trkpt><trkpt lat="46.051780784440204" lon="11.507874656679842"><ele>350.0</ele><time>2026-04-17T09:53:47Z</time></trkpt><trkpt lat="46.05170270607921" lon="11.507504758026725"><ele>350.0</ele><time>2026-04-17T09:53:48Z</time></trkpt><trkpt lat="46.051616538271986" lon="11.507096177586321"><ele>349.0</ele><time>2026-04-17T09:53:49Z</time></trkpt><trkpt lat="46.0515267322203" lon="11.506668280644687"><ele>348.0</ele><time>2026-04-17T09:53:50Z</time></trkpt><trkpt lat="46.05143646539129" lon="11.506222365494907"><ele>347.5</ele><time>2026-04-17T09:53:51Z</time></trkpt><trkpt lat="46.05134348546972" lon="11.505763664308239"><ele>347.0</ele><time>2026-04-17T09:53:52Z</time></trkpt><trkpt lat="46.05124902597972" lon="11.505292104721661"><ele>346.5</ele><time>2026-04-17T09:53:53Z</time></trkpt><trkpt lat="46.051153010887255" lon="11.50480943220855"><ele>346.0</ele><time>2026-04-17T09:53:54Z</time></trkpt><trkpt lat="46.051054729487866" lon="11.504332250860678"><ele>346.0</ele><time>2026-04-17T09:53:55Z</time></trkpt><trkpt lat="46.0509657830725" lon="11.503897306288222"><ele>346.0</ele><time>2026-04-17T09:53:56Z</time></trkpt><trkpt lat="46.05087873709523" lon="11.503469492581079"><ele>346.5</ele><time>2026-04-17T09:53:57Z</time></trkpt><trkpt lat="46.05079392934061" lon="11.503037507980041"><ele>347.0</ele><time>2026-04-17T09:53:58Z</time></trkpt><trkpt lat="46.05071268831341" lon="11.502608369803946"><ele>346.0</ele><time>2026-04-17T09:53:59Z</time></trkpt><trkpt lat="46.05063982272229" lon="11.502187381641841"><ele>345.0</ele><time>2026-04-17T09:54:00Z</time></trkpt><trkpt lat="46.05057793985845" lon="11.501762740800984"><ele>345.0</ele><time>2026-04-17T09:54:01Z</time></trkpt><trkpt lat="46.05053297295493" lon="11.501341717649112"><ele>345.0</ele><time>2026-04-17T09:54:02Z</time></trkpt><trkpt lat="46.05047784521571" lon="11.50092292671154"><ele>345.0</ele><time>2026-04-17T09:54:03Z</time></trkpt><trkpt lat="46.05045348477077" lon="11.500526732004854"><ele>345.0</ele><time>2026-04-17T09:54:04Z</time></trkpt><trkpt lat="46.05044305765476" lon="11.500136563884617"><ele>345.0</ele><time>2026-04-17T09:54:05Z</time></trkpt><trkpt lat="46.05044371853802" lon="11.49975897884121"><ele>345.0</ele><time>2026-04-17T09:54:06Z</time></trkpt><trkpt lat="46.05045886213146" lon="11.499369213272848"><ele>345.0</ele><time>2026-04-17T09:54:07Z</time></trkpt><trkpt lat="46.05048610553093" lon="11.49897506986379"><ele>345.0</ele><time>2026-04-17T09:54:08Z</time></trkpt><trkpt lat="46.05051956247606" lon="11.49855851657773"><ele>345.0</ele><time>2026-04-17T09:54:09Z</time></trkpt><trkpt lat="46.05055669984641" lon="11.498133612961166"><ele>345.0</ele><time>2026-04-17T09:54:10Z</time></trkpt><trkpt lat="46.05059608967862" lon="11.497699932502734"><ele>345.5</ele><time>2026-04-17T09:54:11Z</time></trkpt><trkpt lat="46.05063132896149" lon="11.49725372951942"><ele>346.0</ele><time>2026-04-17T09:54:12Z</time></trkpt><trkpt lat="46.05067037964146" lon="11.496797982062489"><ele>347.0</ele><time>2026-04-17T09:54:13Z</time></trkpt><trkpt lat="46.050706858623435" lon="11.496337555350001"><ele>348.0</ele><time>2026-04-17T09:54:14Z</time></trkpt><trkpt lat="46.05074524246444" lon="11.495867490466019"><ele>348.5</ele><time>2026-04-17T09:54:15Z</time></trkpt><trkpt lat="46.050786761639515" lon="11.495396955215051"><ele>349.0</ele><time>2026-04-17T09:54:16Z</time></trkpt><trkpt lat="46.05082852588221" lon="11.494911799953623"><ele>349.5</ele><time>2026-04-17T09:54:17Z</time></trkpt><trkpt lat="46.050867015910605" lon="11.494418310073028"><ele>350.0</ele><time>2026-04-17T09:54:18Z</time></trkpt><trkpt lat="46.05090923558352" lon="11.49392430588016"><ele>351.0</ele><time>2026-04-17T09:54:19Z</time></trkpt><trkpt lat="46.050949686306076" lon="11.493437367984443"><ele>352.0</ele><time>2026-04-17T09:54:20Z</time></trkpt><trkpt lat="46.05099071378334" lon="11.49296792336791"><ele>351.5</ele><time>2026-04-17T09:54:21Z</time></trkpt><trkpt lat="46.05103162383281" lon="11.492501351839545"><ele>351.0</ele><time>2026-04-17T09:54:22Z</time></trkpt><trkpt lat="46.051073369575974" lon="11.492026165378732"><ele>350.5</ele><time>2026-04-17T09:54:23Z</time></trkpt><trkpt lat="46.051115330892806" lon="11.49154624780557"><ele>350.0</ele><time>2026-04-17T09:54:24Z</time></trkpt><trkpt lat="46.051155054057894" lon="11.491067205412477"><ele>351.0</ele><time>2026-04-17T09:54:25Z</time></trkpt><trkpt lat="46.05119396216758" lon="11.490589972451119"><ele>352.0</ele><time>2026-04-17T09:54:26Z</time></trkpt><trkpt lat="46.05122856671823" lon="11.490148080112668"><ele>352.5</ele><time>2026-04-17T09:54:27Z</time></trkpt><trkpt lat="46.05126004123754" lon="11.489707582615331"><ele>353.0</ele><time>2026-04-17T09:54:28Z</time></trkpt><trkpt lat="46.051283913777496" lon="11.48926225023823"><ele>353.0</ele><time>2026-04-17T09:54:29Z</time></trkpt><trkpt lat="46.05129940382075" lon="11.488803536698365"><ele>353.0</ele><time>2026-04-17T09:54:30Z</time></trkpt><trkpt lat="46.051302224701885" lon="11.48833963066126"><ele>352.5</ele><time>2026-04-17T09:54:31Z</time></trkpt><trkpt lat="46.051292579185265" lon="11.487874483051549"><ele>352.0</ele><time>2026-04-17T09:54:32Z</time></trkpt><trkpt lat="46.05127072185826" lon="11.487406464945199"><ele>353.0</ele><time>2026-04-17T09:54:33Z</time></trkpt><trkpt lat="46.05123761363984" lon="11.486927791809354"><ele>354.0</ele><time>2026-04-17T09:54:34Z</time></trkpt><trkpt lat="46.05120119542534" lon="11.48643844235069"><ele>355.5</ele><time>2026-04-17T09:54:35Z</time></trkpt><trkpt lat="46.051164279194616" lon="11.485946280840201"><ele>357.0</ele><time>2026-04-17T09:54:36Z</time></trkpt><trkpt lat="46.05113033964459" lon="11.485449858545104"><ele>358.5</ele><time>2026-04-17T09:54:37Z</time></trkpt><trkpt lat="46.05109779600942" lon="11.484952524821768"><ele>360.0</ele><time>2026-04-17T09:54:38Z</time></trkpt><trkpt lat="46.051061887440135" lon="11.484452021596214"><ele>360.0</ele><time>2026-04-17T09:54:39Z</time></trkpt><trkpt lat="46.05102447605808" lon="11.48395301574232"><ele>360.0</ele><time>2026-04-17T09:54:40Z</time></trkpt><trkpt lat="46.050985852500965" lon="11.483457324791704"><ele>359.5</ele><time>2026-04-17T09:54:41Z</time></trkpt><trkpt lat="46.05094627172479" lon="11.482968125337804"><ele>359.0</ele><time>2026-04-17T09:54:42Z</time></trkpt><trkpt lat="46.050907869792624" lon="11.482503041523998"><ele>361.0</ele><time>2026-04-17T09:54:43Z</time></trkpt><trkpt lat="46.050863229568364" lon="11.482047125860955"><ele>363.0</ele><time>2026-04-17T09:54:44Z</time></trkpt><trkpt lat="46.0508025329109" lon="11.481581813781286"><ele>363.0</ele><time>2026-04-17T09:54:45Z</time></trkpt><trkpt lat="46.050728132489134" lon="11.481101479147197"><ele>363.0</ele><time>2026-04-17T09:54:46Z</time></trkpt><trkpt lat="46.05064219236613" lon="11.480615481635818"><ele>363.0</ele><time>2026-04-17T09:54:47Z</time></trkpt><trkpt lat="46.05054267195837" lon="11.480133851437076"><ele>363.0</ele><time>2026-04-17T09:54:48Z</time></trkpt><trkpt lat="46.05043138984157" lon="11.479662220154038"><ele>364.0</ele><time>2026-04-17T09:54:49Z</time></trkpt><trkpt lat="46.05030871825353" lon="11.479206691277039"><ele>365.0</ele><time>2026-04-17T09:54:50Z</time></trkpt><trkpt lat="46.05017264412736" lon="11.4787586514916"><ele>366.0</ele><time>2026-04-17T09:54:51Z</time></trkpt><trkpt lat="46.05002796919003" lon="11.478325599052765"><ele>367.0</ele><time>2026-04-17T09:54:52Z</time></trkpt><trkpt lat="46.04987308284673" lon="11.477900657355942"><ele>370.5</ele><time>2026-04-17T09:54:53Z</time></trkpt><trkpt lat="46.049709626163896" lon="11.477477202648915"><ele>374.0</ele><time>2026-04-17T09:54:54Z</time></trkpt><trkpt lat="46.04953457361156" lon="11.477047968942516"><ele>374.0</ele><time>2026-04-17T09:54:55Z</time></trkpt><trkpt lat="46.049356048074095" lon="11.47660184652716"><ele>374.0</ele><time>2026-04-17T09:54:56Z</time></trkpt><trkpt lat="46.04917775204988" lon="11.476145094632237"><ele>378.5</ele><time>2026-04-17T09:54:57Z</time></trkpt><trkpt lat="46.048995364472425" lon="11.475682374286848"><ele>383.0</ele><time>2026-04-17T09:54:58Z</time></trkpt><trkpt lat="46.04880745561546" lon="11.475214899235272"><ele>383.0</ele><time>2026-04-17T09:54:59Z</time></trkpt><trkpt lat="46.04861248968266" lon="11.47473661256978"><ele>383.0</ele><time>2026-04-17T09:55:00Z</time></trkpt><trkpt lat="46.048419338859894" lon="11.474258290968454"><ele>388.5</ele><time>2026-04-17T09:55:01Z</time></trkpt><trkpt lat="46.04822772361503" lon="11.473774864898632"><ele>394.0</ele><time>2026-04-17T09:55:02Z</time></trkpt><trkpt lat="46.048036011403845" lon="11.473288180676327"><ele>393.0</ele><time>2026-04-17T09:55:03Z</time></trkpt><trkpt lat="46.047844053331374" lon="11.472799903494433"><ele>392.0</ele><time>2026-04-17T09:55:04Z</time></trkpt><trkpt lat="46.04764951906117" lon="11.472312218279175"><ele>398.0</ele><time>2026-04-17T09:55:05Z</time></trkpt><trkpt lat="46.04745593886397" lon="11.471823476265364"><ele>404.0</ele><time>2026-04-17T09:55:06Z</time></trkpt><trkpt lat="46.047261925447785" lon="11.471334693630721"><ele>402.0</ele><time>2026-04-17T09:55:07Z</time></trkpt><trkpt lat="46.04706792465731" lon="11.470845063074938"><ele>400.0</ele><time>2026-04-17T09:55:08Z</time></trkpt><trkpt lat="46.04687267971789" lon="11.470353648762535"><ele>400.0</ele><time>2026-04-17T09:55:09Z</time></trkpt><trkpt lat="46.04667827146631" lon="11.469862149402918"><ele>400.0</ele><time>2026-04-17T09:55:10Z</time></trkpt><trkpt lat="46.04648012587786" lon="11.469367265640598"><ele>403.5</ele><time>2026-04-17T09:55:11Z</time></trkpt><trkpt lat="46.04629222569579" lon="11.468898571491753"><ele>407.0</ele><time>2026-04-17T09:55:12Z</time></trkpt><trkpt lat="46.04612589891779" lon="11.468474023493638"><ele>407.0</ele><time>2026-04-17T09:55:13Z</time></trkpt><trkpt lat="46.04597168563019" lon="11.468083412997995"><ele>407.0</ele><time>2026-04-17T09:55:14Z</time></trkpt><trkpt lat="46.045829716566516" lon="11.467724037622796"><ele>408.0</ele><time>2026-04-17T09:55:15Z</time></trkpt><trkpt lat="46.04569862077609" lon="11.467381406329562"><ele>409.0</ele><time>2026-04-17T09:55:16Z</time></trkpt><trkpt lat="46.04557548484854" lon="11.467042933130976"><ele>409.0</ele><time>2026-04-17T09:55:17Z</time></trkpt><trkpt lat="46.04546283557863" lon="11.466699288240237"><ele>409.0</ele><time>2026-04-17T09:55:18Z</time></trkpt><trkpt lat="46.04536749563946" lon="11.466350388927845"><ele>409.0</ele><time>2026-04-17T09:55:19Z</time></trkpt><trkpt lat="46.04528798036158" lon="11.465992461179159"><ele>409.0</ele><time>2026-04-17T09:55:20Z</time></trkpt><trkpt lat="46.045214708593306" lon="11.465629008594455"><ele>409.0</ele><time>2026-04-17T09:55:21Z</time></trkpt><trkpt lat="46.04516377148" lon="11.465262770629794"><ele>409.0</ele><time>2026-04-17T09:55:22Z</time></trkpt><trkpt lat="46.045122630550125" lon="11.464915409531983"><ele>408.5</ele><time>2026-04-17T09:55:23Z</time></trkpt><trkpt lat="46.04509383475835" lon="11.464569654450845"><ele>408.0</ele><time>2026-04-17T09:55:24Z</time></trkpt><trkpt lat="46.04507320451372" lon="11.464216028771252"><ele>408.0</ele><time>2026-04-17T09:55:25Z</time></trkpt><trkpt lat="46.04506567100565" lon="11.46386061662668"><ele>408.0</ele><time>2026-04-17T09:55:26Z</time></trkpt><trkpt lat="46.045071592479495" lon="11.463519203901834"><ele>409.5</ele><time>2026-04-17T09:55:27Z</time></trkpt><trkpt lat="46.04508726755476" lon="11.463178399656062"><ele>411.0</ele><time>2026-04-17T09:55:28Z</time></trkpt><trkpt lat="46.045114289138674" lon="11.462844395678628"><ele>413.5</ele><time>2026-04-17T09:55:29Z</time></trkpt><trkpt lat="46.04514939321292" lon="11.462517808377743"><ele>416.0</ele><time>2026-04-17T09:55:30.019Z</time></trkpt><trkpt lat="46.045187778881875" lon="11.462175726897918"><ele>417.0</ele><time>2026-04-17T09:55:31.018Z</time></trkpt><trkpt lat="46.04523123174777" lon="11.461826218520608"><ele>418.0</ele><time>2026-04-17T09:55:32.017Z</time></trkpt><trkpt lat="46.045273503931284" lon="11.46147517894612"><ele>419.0</ele><time>2026-04-17T09:55:33.017Z</time></trkpt><trkpt lat="46.04531463449828" lon="11.461114174253346"><ele>420.0</ele><time>2026-04-17T09:55:34.017Z</time></trkpt><trkpt lat="46.0456022294667" lon="11.458520209427418"><ele>433.0</ele><time>2026-04-17T09:55:40Z</time></trkpt><trkpt lat="46.04565130495205" lon="11.458098698798008"><ele>446.0</ele><time>2026-04-17T09:55:41Z</time></trkpt><trkpt lat="46.045685250332454" lon="11.457719170823832"><ele>457.0</ele><time>2026-04-17T09:55:42Z</time></trkpt><trkpt lat="46.045720681612565" lon="11.4573776597412"><ele>468.0</ele><time>2026-04-17T09:55:43Z</time></trkpt><trkpt lat="46.04576103416303" lon="11.457007580560642"><ele>478.0</ele><time>2026-04-17T09:55:44Z</time></trkpt><trkpt lat="46.045787398187294" lon="11.456626279946516"><ele>488.0</ele><time>2026-04-17T09:55:45Z</time></trkpt><trkpt lat="46.04580652915469" lon="11.456251976718846"><ele>463.5</ele><time>2026-04-17T09:55:46Z</time></trkpt><trkpt lat="46.04582131161606" lon="11.455872285972887"><ele>439.0</ele><time>2026-04-17T09:55:47Z</time></trkpt><trkpt lat="46.045842850926014" lon="11.45549739966819"><ele>453.0</ele><time>2026-04-17T09:55:48Z</time></trkpt><trkpt lat="46.045863927165776" lon="11.455115438526967"><ele>467.0</ele><time>2026-04-17T09:55:49.014Z</time></trkpt><trkpt lat="46.046229837977094" lon="11.452263934126846"><ele>491.0</ele><time>2026-04-17T09:55:52.872Z</time></trkpt><trkpt lat="46.046415050110234" lon="11.451132160941572"><ele>422.0</ele><time>2026-04-17T09:55:53.872Z</time></trkpt><trkpt lat="46.04675788436648" lon="11.449008677165441"><ele>423.0</ele><time>2026-04-17T09:56:04Z</time></trkpt><trkpt lat="46.04681407989402" lon="11.448602949713017"><ele>424.0</ele><time>2026-04-17T09:56:05Z</time></trkpt><trkpt lat="46.04682205738691" lon="11.448183823154729"><ele>426.0</ele><time>2026-04-17T09:56:06Z</time></trkpt><trkpt lat="46.04684287907704" lon="11.447760166540503"><ele>428.0</ele><time>2026-04-17T09:56:07Z</time></trkpt><trkpt lat="46.04685560612968" lon="11.447326501663657"><ele>427.0</ele><time>2026-04-17T09:56:08Z</time></trkpt><trkpt lat="46.04686040161889" lon="11.446882837548971"><ele>426.0</ele><time>2026-04-17T09:56:09Z</time></trkpt><trkpt lat="46.046857774154624" lon="11.446464820267817"><ele>426.0</ele><time>2026-04-17T09:56:10Z</time></trkpt><trkpt lat="46.0468420901979" lon="11.446051670775931"><ele>426.0</ele><time>2026-04-17T09:56:11Z</time></trkpt><trkpt lat="46.046815048636844" lon="11.445643243794429"><ele>426.5</ele><time>2026-04-17T09:56:12Z</time></trkpt><trkpt lat="46.0467791201519" lon="11.44524568656148"><ele>427.0</ele><time>2026-04-17T09:56:13Z</time></trkpt><trkpt lat="46.04673794347204" lon="11.444848974316415"><ele>426.5</ele><time>2026-04-17T09:56:14Z</time></trkpt><trkpt lat="46.04669484715086" lon="11.444444044322502"><ele>426.0</ele><time>2026-04-17T09:56:15Z</time></trkpt><trkpt lat="46.0466541224574" lon="11.444032330458114"><ele>431.5</ele><time>2026-04-17T09:56:16Z</time></trkpt><trkpt lat="46.046614408480536" lon="11.443617216432981"><ele>437.0</ele><time>2026-04-17T09:56:17Z</time></trkpt><trkpt lat="46.04657509589347" lon="11.44319884899269"><ele>437.0</ele><time>2026-04-17T09:56:18Z</time></trkpt><trkpt lat="46.04653365470832" lon="11.44277794188866"><ele>437.0</ele><time>2026-04-17T09:56:19Z</time></trkpt><trkpt lat="46.046488858132406" lon="11.44235101560024"><ele>434.5</ele><time>2026-04-17T09:56:20Z</time></trkpt><trkpt lat="46.046443743345606" lon="11.441916876356387"><ele>432.0</ele><time>2026-04-17T09:56:21Z</time></trkpt><trkpt lat="46.04639812209614" lon="11.441474846441931"><ele>429.0</ele><time>2026-04-17T09:56:22Z</time></trkpt><trkpt lat="46.04635161616561" lon="11.44102399781924"><ele>426.0</ele><time>2026-04-17T09:56:23Z</time></trkpt><trkpt lat="46.04630598334386" lon="11.440563254495393"><ele>425.0</ele><time>2026-04-17T09:56:24Z</time></trkpt><trkpt lat="46.04625911926642" lon="11.440095669174424"><ele>424.0</ele><time>2026-04-17T09:56:25Z</time></trkpt><trkpt lat="46.046213276307185" lon="11.439623390465355"><ele>421.0</ele><time>2026-04-17T09:56:26Z</time></trkpt><trkpt lat="46.04616769601956" lon="11.439158607859554"><ele>418.0</ele><time>2026-04-17T09:56:27Z</time></trkpt><trkpt lat="46.04612770125894" lon="11.438721188187577"><ele>415.5</ele><time>2026-04-17T09:56:28Z</time></trkpt><trkpt lat="46.0460861192083" lon="11.43828610823035"><ele>413.0</ele><time>2026-04-17T09:56:29Z</time></trkpt><trkpt lat="46.04604680940881" lon="11.437853463498787"><ele>410.5</ele><time>2026-04-17T09:56:30Z</time></trkpt><trkpt lat="46.046015550946045" lon="11.43743479645203"><ele>408.0</ele><time>2026-04-17T09:56:31Z</time></trkpt><trkpt lat="46.04599361034996" lon="11.437019091430976"><ele>405.0</ele><time>2026-04-17T09:56:32Z</time></trkpt><trkpt lat="46.045984475283355" lon="11.436596148496829"><ele>402.0</ele><time>2026-04-17T09:56:33Z</time></trkpt><trkpt lat="46.04598276375296" lon="11.436164666998382"><ele>401.5</ele><time>2026-04-17T09:56:34Z</time></trkpt><trkpt lat="46.045990860616925" lon="11.43572533207811"><ele>401.0</ele><time>2026-04-17T09:56:35Z</time></trkpt><trkpt lat="46.04601159991193" lon="11.435297125040197"><ele>400.0</ele><time>2026-04-17T09:56:36Z</time></trkpt><trkpt lat="46.04604030213608" lon="11.434876258110815"><ele>399.0</ele><time>2026-04-17T09:56:37Z</time></trkpt><trkpt lat="46.04608134089579" lon="11.434452451778485"><ele>397.5</ele><time>2026-04-17T09:56:38Z</time></trkpt><trkpt lat="46.04613448440278" lon="11.434007526322493"><ele>396.0</ele><time>2026-04-17T09:56:39Z</time></trkpt><trkpt lat="46.046196821269874" lon="11.433538867358898"><ele>396.0</ele><time>2026-04-17T09:56:40Z</time></trkpt><trkpt lat="46.04626309662498" lon="11.433051338015503"><ele>396.0</ele><time>2026-04-17T09:56:41Z</time></trkpt><trkpt lat="46.046326611896596" lon="11.432544724759804"><ele>396.5</ele><time>2026-04-17T09:56:42Z</time></trkpt><trkpt lat="46.04638748480088" lon="11.432023673210692"><ele>397.0</ele><time>2026-04-17T09:56:43Z</time></trkpt><trkpt lat="46.0464474659647" lon="11.431498108631166"><ele>394.5</ele><time>2026-04-17T09:56:44Z</time></trkpt><trkpt lat="46.04650568146943" lon="11.431018346903487"><ele>392.0</ele><time>2026-04-17T09:56:45Z</time></trkpt><trkpt lat="46.04655859149957" lon="11.430573376811502"><ele>391.5</ele><time>2026-04-17T09:56:46Z</time></trkpt><trkpt lat="46.04659868925128" lon="11.43014199992503"><ele>391.0</ele><time>2026-04-17T09:56:47Z</time></trkpt><trkpt lat="46.046621296692834" lon="11.429707848158126"><ele>391.5</ele><time>2026-04-17T09:56:48Z</time></trkpt><trkpt lat="46.04662412792613" lon="11.429264487596571"><ele>392.0</ele><time>2026-04-17T09:56:49Z</time></trkpt><trkpt lat="46.046613162134555" lon="11.428823627601371"><ele>393.0</ele><time>2026-04-17T09:56:50Z</time></trkpt><trkpt lat="46.04658413831916" lon="11.428413485822304"><ele>394.0</ele><time>2026-04-17T09:56:51Z</time></trkpt><trkpt lat="46.04653972311706" lon="11.42800120223312"><ele>395.0</ele><time>2026-04-17T09:56:52Z</time></trkpt><trkpt lat="46.046480990172945" lon="11.427601029928665"><ele>396.0</ele><time>2026-04-17T09:56:53Z</time></trkpt><trkpt lat="46.04641380532009" lon="11.427234135963563"><ele>395.5</ele><time>2026-04-17T09:56:54Z</time></trkpt><trkpt lat="46.046337166064134" lon="11.42687894193798"><ele>395.0</ele><time>2026-04-17T09:56:55Z</time></trkpt><trkpt lat="46.046242726301074" lon="11.42649937332657"><ele>396.5</ele><time>2026-04-17T09:56:56Z</time></trkpt><trkpt lat="46.046129333698964" lon="11.42611320555837"><ele>398.0</ele><time>2026-04-17T09:56:57Z</time></trkpt><trkpt lat="46.045998503278966" lon="11.42572534736394"><ele>398.0</ele><time>2026-04-17T09:56:58Z</time></trkpt><trkpt lat="46.04585013923354" lon="11.425346032909992"><ele>398.0</ele><time>2026-04-17T09:56:59Z</time></trkpt><trkpt lat="46.045687476037514" lon="11.424987507084477"><ele>399.0</ele><time>2026-04-17T09:57:00Z</time></trkpt><trkpt lat="46.04550993095944" lon="11.424641178620137"><ele>400.0</ele><time>2026-04-17T09:57:01Z</time></trkpt><trkpt lat="46.04532201872397" lon="11.424288362509058"><ele>400.0</ele><time>2026-04-17T09:57:02Z</time></trkpt><trkpt lat="46.04512654535872" lon="11.423926259122222"><ele>400.0</ele><time>2026-04-17T09:57:03Z</time></trkpt><trkpt lat="46.044933743612695" lon="11.423555938385409"><ele>399.5</ele><time>2026-04-17T09:57:04Z</time></trkpt><trkpt lat="46.04473733041256" lon="11.423177233326449"><ele>399.0</ele><time>2026-04-17T09:57:05Z</time></trkpt><trkpt lat="46.04453851650143" lon="11.422795238456516"><ele>400.0</ele><time>2026-04-17T09:57:06Z</time></trkpt><trkpt lat="46.04433509815967" lon="11.422409802287621"><ele>401.0</ele><time>2026-04-17T09:57:07Z</time></trkpt><trkpt lat="46.044129861986754" lon="11.422020399560067"><ele>401.0</ele><time>2026-04-17T09:57:08Z</time></trkpt><trkpt lat="46.04392443661226" lon="11.421629328899074"><ele>401.0</ele><time>2026-04-17T09:57:09Z</time></trkpt><trkpt lat="46.04371867493398" lon="11.42123112611962"><ele>402.0</ele><time>2026-04-17T09:57:10Z</time></trkpt><trkpt lat="46.043508974055264" lon="11.42082926789946"><ele>403.0</ele><time>2026-04-17T09:57:11Z</time></trkpt><trkpt lat="46.04329814526731" lon="11.420428532329279"><ele>403.5</ele><time>2026-04-17T09:57:12Z</time></trkpt><trkpt lat="46.04308559916" lon="11.420028262228225"><ele>404.0</ele><time>2026-04-17T09:57:13Z</time></trkpt><trkpt lat="46.042872412464774" lon="11.419628866520563"><ele>405.5</ele><time>2026-04-17T09:57:14Z</time></trkpt><trkpt lat="46.042659573994335" lon="11.41922509780387"><ele>407.0</ele><time>2026-04-17T09:57:15Z</time></trkpt><trkpt lat="46.042448960759955" lon="11.418818877081764"><ele>408.5</ele><time>2026-04-17T09:57:16Z</time></trkpt><trkpt lat="46.042235296401785" lon="11.418414222348245"><ele>410.0</ele><time>2026-04-17T09:57:17Z</time></trkpt><trkpt lat="46.04202344368925" lon="11.418016907087036"><ele>410.0</ele><time>2026-04-17T09:57:18Z</time></trkpt><trkpt lat="46.04183063127101" lon="11.41764692817408"><ele>410.0</ele><time>2026-04-17T09:57:19Z</time></trkpt><trkpt lat="46.041659118405114" lon="11.417294765794788"><ele>411.0</ele><time>2026-04-17T09:57:20Z</time></trkpt><trkpt lat="46.041507820618456" lon="11.416951027782689"><ele>412.0</ele><time>2026-04-17T09:57:21Z</time></trkpt><trkpt lat="46.041382186707" lon="11.41660533551815"><ele>411.5</ele><time>2026-04-17T09:57:22Z</time></trkpt><trkpt lat="46.04126241097726" lon="11.416231178258805"><ele>411.0</ele><time>2026-04-17T09:57:23Z</time></trkpt><trkpt lat="46.041139415103274" lon="11.41584189145751"><ele>412.0</ele><time>2026-04-17T09:57:24Z</time></trkpt><trkpt lat="46.04100922494797" lon="11.41544363487536"><ele>413.0</ele><time>2026-04-17T09:57:25Z</time></trkpt><trkpt lat="46.040875072305276" lon="11.415041390518574"><ele>414.0</ele><time>2026-04-17T09:57:26Z</time></trkpt><trkpt lat="46.04073772893075" lon="11.414631272978175"><ele>415.0</ele><time>2026-04-17T09:57:27Z</time></trkpt><trkpt lat="46.04059966679629" lon="11.414216841818918"><ele>414.0</ele><time>2026-04-17T09:57:28Z</time></trkpt><trkpt lat="46.04045975893651" lon="11.41379825270655"><ele>413.0</ele><time>2026-04-17T09:57:29Z</time></trkpt><trkpt lat="46.04033012011221" lon="11.413390954931998"><ele>413.0</ele><time>2026-04-17T09:57:30Z</time></trkpt><trkpt lat="46.04021115732616" lon="11.412989052356602"><ele>413.0</ele><time>2026-04-17T09:57:31Z</time></trkpt><trkpt lat="46.04010478209261" lon="11.412592605381164"><ele>413.0</ele><time>2026-04-17T09:57:32Z</time></trkpt><trkpt lat="46.0400138456382" lon="11.412200073030435"><ele>413.0</ele><time>2026-04-17T09:57:33Z</time></trkpt><trkpt lat="46.039933892795446" lon="11.411809278416113"><ele>414.5</ele><time>2026-04-17T09:57:34Z</time></trkpt><trkpt lat="46.03987128565449" lon="11.411438364286154"><ele>416.0</ele><time>2026-04-17T09:57:35Z</time></trkpt><trkpt lat="46.03981657218379" lon="11.411049213206683"><ele>416.0</ele><time>2026-04-17T09:57:36Z</time></trkpt><trkpt lat="46.039773421457305" lon="11.410647932299776"><ele>416.0</ele><time>2026-04-17T09:57:37Z</time></trkpt><trkpt lat="46.03974056016187" lon="11.410233192130367"><ele>415.5</ele><time>2026-04-17T09:57:38Z</time></trkpt><trkpt lat="46.039708382207905" lon="11.409797423242054"><ele>415.0</ele><time>2026-04-17T09:57:39Z</time></trkpt><trkpt lat="46.039681615596734" lon="11.409350145558692"><ele>414.0</ele><time>2026-04-17T09:57:40Z</time></trkpt><trkpt lat="46.03965023475471" lon="11.408893497726158"><ele>413.0</ele><time>2026-04-17T09:57:41Z</time></trkpt><trkpt lat="46.03961712047346" lon="11.408430921569721"><ele>414.0</ele><time>2026-04-17T09:57:42Z</time></trkpt><trkpt lat="46.03958350427951" lon="11.407950487767973"><ele>415.0</ele><time>2026-04-17T09:57:43Z</time></trkpt><trkpt lat="46.03954917683075" lon="11.407460121109374"><ele>414.0</ele><time>2026-04-17T09:57:44Z</time></trkpt><trkpt lat="46.03951702011256" lon="11.406962901977046"><ele>413.0</ele><time>2026-04-17T09:57:45Z</time></trkpt><trkpt lat="46.03948574216386" lon="11.406461640053132"><ele>413.0</ele><time>2026-04-17T09:57:46Z</time></trkpt><trkpt lat="46.0394522368141" lon="11.405968806795102"><ele>413.0</ele><time>2026-04-17T09:57:47Z</time></trkpt><trkpt lat="46.03941956715841" lon="11.405518292768404"><ele>414.5</ele><time>2026-04-17T09:57:48Z</time></trkpt><trkpt lat="46.03939021288531" lon="11.405084387927694"><ele>416.0</ele><time>2026-04-17T09:57:49Z</time></trkpt><trkpt lat="46.03935677362478" lon="11.404656659889623"><ele>416.5</ele><time>2026-04-17T09:57:50Z</time></trkpt><trkpt lat="46.03930475908842" lon="11.404237562653304"><ele>417.0</ele><time>2026-04-17T09:57:51Z</time></trkpt><trkpt lat="46.039230625899954" lon="11.403825035103747"><ele>416.0</ele><time>2026-04-17T09:57:52Z</time></trkpt><trkpt lat="46.039146701528644" lon="11.403426010515085"><ele>415.0</ele><time>2026-04-17T09:57:53Z</time></trkpt><trkpt lat="46.03904770340828" lon="11.403036315523078"><ele>415.0</ele><time>2026-04-17T09:57:54Z</time></trkpt><trkpt lat="46.038932235986245" lon="11.402641953349024"><ele>415.0</ele><time>2026-04-17T09:57:55Z</time></trkpt><trkpt lat="46.03880489954882" lon="11.40225735844072"><ele>417.0</ele><time>2026-04-17T09:57:56Z</time></trkpt><trkpt lat="46.03867271915375" lon="11.401916522504505"><ele>419.0</ele><time>2026-04-17T09:57:57Z</time></trkpt><trkpt lat="46.038528904307604" lon="11.401593970352234"><ele>420.0</ele><time>2026-04-17T09:57:58Z</time></trkpt><trkpt lat="46.03836244637756" lon="11.40126005342874"><ele>421.0</ele><time>2026-04-17T09:57:59Z</time></trkpt><trkpt lat="46.038182851585496" lon="11.400925644364607"><ele>421.0</ele><time>2026-04-17T09:58:00Z</time></trkpt><trkpt lat="46.037988689632584" lon="11.400592494762494"><ele>421.0</ele><time>2026-04-17T09:58:01Z</time></trkpt><trkpt lat="46.03778178678611" lon="11.400262562548741"><ele>421.0</ele><time>2026-04-17T09:58:02Z</time></trkpt><trkpt lat="46.03756432920355" lon="11.399924572590603"><ele>421.0</ele><time>2026-04-17T09:58:03Z</time></trkpt><trkpt lat="46.03734333094725" lon="11.39957830677948"><ele>419.5</ele><time>2026-04-17T09:58:04Z</time></trkpt><trkpt lat="46.037125543669404" lon="11.3992273820137"><ele>418.0</ele><time>2026-04-17T09:58:05Z</time></trkpt><trkpt lat="46.03690429601145" lon="11.398872049077843"><ele>418.0</ele><time>2026-04-17T09:58:06Z</time></trkpt><trkpt lat="46.0366805594759" lon="11.398508767521877"><ele>418.0</ele><time>2026-04-17T09:58:07Z</time></trkpt><trkpt lat="46.036450925746834" lon="11.398138686099024"><ele>417.0</ele><time>2026-04-17T09:58:08Z</time></trkpt><trkpt lat="46.036219808264335" lon="11.397765903398202"><ele>416.0</ele><time>2026-04-17T09:58:09Z</time></trkpt><trkpt lat="46.03598766939011" lon="11.397395078816723"><ele>415.0</ele><time>2026-04-17T09:58:10Z</time></trkpt><trkpt lat="46.03575579301782" lon="11.397025412273699"><ele>414.0</ele><time>2026-04-17T09:58:11Z</time></trkpt><trkpt lat="46.035523285460236" lon="11.396660371600634"><ele>415.0</ele><time>2026-04-17T09:58:12Z</time></trkpt><trkpt lat="46.035291460231115" lon="11.396295368752826"><ele>416.0</ele><time>2026-04-17T09:58:13Z</time></trkpt><trkpt lat="46.03505556570807" lon="11.395932219214856"><ele>416.5</ele><time>2026-04-17T09:58:14Z</time></trkpt><trkpt lat="46.03481181650663" lon="11.395585496974459"><ele>417.0</ele><time>2026-04-17T09:58:15Z</time></trkpt><trkpt lat="46.03456072696893" lon="11.395253483931723"><ele>417.0</ele><time>2026-04-17T09:58:16Z</time></trkpt><trkpt lat="46.03430042405422" lon="11.394921997486982"><ele>417.0</ele><time>2026-04-17T09:58:17Z</time></trkpt><trkpt lat="46.03404314546447" lon="11.39458366495618"><ele>418.5</ele><time>2026-04-17T09:58:18Z</time></trkpt><trkpt lat="46.033789386370906" lon="11.394237373446856"><ele>420.0</ele><time>2026-04-17T09:58:19Z</time></trkpt><trkpt lat="46.033562186777246" lon="11.393913558236203"><ele>421.0</ele><time>2026-04-17T09:58:20Z</time></trkpt><trkpt lat="46.033332174039096" lon="11.39360849023583"><ele>422.0</ele><time>2026-04-17T09:58:21Z</time></trkpt><trkpt lat="46.03309184962852" lon="11.39330852736508"><ele>422.0</ele><time>2026-04-17T09:58:22Z</time></trkpt><trkpt lat="46.03283624062114" lon="11.393016445483688"><ele>422.0</ele><time>2026-04-17T09:58:23Z</time></trkpt><trkpt lat="46.03257216560583" lon="11.39272223277761"><ele>421.0</ele><time>2026-04-17T09:58:24Z</time></trkpt><trkpt lat="46.032312336545" lon="11.392423347251937"><ele>420.0</ele><time>2026-04-17T09:58:25Z</time></trkpt><trkpt lat="46.032046818717994" lon="11.392125748940503"><ele>420.0</ele><time>2026-04-17T09:58:26Z</time></trkpt><trkpt lat="46.031777709737774" lon="11.391825102291623"><ele>420.0</ele><time>2026-04-17T09:58:27Z</time></trkpt><trkpt lat="46.0315023093754" lon="11.391533755856267"><ele>421.0</ele><time>2026-04-17T09:58:28Z</time></trkpt><trkpt lat="46.03122724977509" lon="11.391244101849482"><ele>422.0</ele><time>2026-04-17T09:58:29Z</time></trkpt><trkpt lat="46.03097299864112" lon="11.390974347849253"><ele>422.0</ele><time>2026-04-17T09:58:30Z</time></trkpt><trkpt lat="46.030748110232" lon="11.390724977359943"><ele>422.0</ele><time>2026-04-17T09:58:31Z</time></trkpt><trkpt lat="46.030533455280484" lon="11.39049483998146"><ele>422.0</ele><time>2026-04-17T09:58:32Z</time></trkpt><trkpt lat="46.030335863980945" lon="11.390275590081357"><ele>422.0</ele><time>2026-04-17T09:58:33Z</time></trkpt><trkpt lat="46.03015145465687" lon="11.390040442169752"><ele>422.0</ele><time>2026-04-17T09:58:34Z</time></trkpt><trkpt lat="46.02997808616714" lon="11.389792250020426"><ele>422.0</ele><time>2026-04-17T09:58:35Z</time></trkpt><trkpt lat="46.02982867123812" lon="11.38955107561703"><ele>423.5</ele><time>2026-04-17T09:58:36Z</time></trkpt><trkpt lat="46.029688793088475" lon="11.389297020799836"><ele>425.0</ele><time>2026-04-17T09:58:37Z</time></trkpt><trkpt lat="46.029566407317326" lon="11.389018768165764"><ele>424.5</ele><time>2026-04-17T09:58:38Z</time></trkpt><trkpt lat="46.02945716952002" lon="11.388720264067976"><ele>424.0</ele><time>2026-04-17T09:58:39Z</time></trkpt><trkpt lat="46.02936346821593" lon="11.388406583011653"><ele>424.0</ele><time>2026-04-17T09:58:40Z</time></trkpt><trkpt lat="46.0292836773666" lon="11.388079241849267"><ele>424.0</ele><time>2026-04-17T09:58:41Z</time></trkpt><trkpt lat="46.02923024700795" lon="11.387736149088912"><ele>423.33333333333337</ele><time>2026-04-17T09:58:42Z</time></trkpt><trkpt lat="46.029206137249034" lon="11.38741676789023"><ele>422.66666666666663</ele><time>2026-04-17T09:58:43Z</time></trkpt><trkpt lat="46.02920136920391" lon="11.387106034152556"><ele>422.0</ele><time>2026-04-17T09:58:44Z</time></trkpt><trkpt lat="46.02920758740224" lon="11.38677982515626"><ele>422.0</ele><time>2026-04-17T09:58:45Z</time></trkpt><trkpt lat="46.02922675056789" lon="11.386438079328956"><ele>422.0</ele><time>2026-04-17T09:58:46Z</time></trkpt><trkpt lat="46.02926033414089" lon="11.386078083724142"><ele>422.0</ele><time>2026-04-17T09:58:47Z</time></trkpt><trkpt lat="46.02929492818597" lon="11.385692730515066"><ele>422.0</ele><time>2026-04-17T09:58:48Z</time></trkpt><trkpt lat="46.029323591099825" lon="11.385294544092577"><ele>422.5</ele><time>2026-04-17T09:58:49Z</time></trkpt><trkpt lat="46.0293387967823" lon="11.384879447996324"><ele>423.0</ele><time>2026-04-17T09:58:50Z</time></trkpt><trkpt lat="46.02934202881463" lon="11.384455536950057"><ele>423.0</ele><time>2026-04-17T09:58:51Z</time></trkpt><trkpt lat="46.029326290053426" lon="11.384037587499241"><ele>423.0</ele><time>2026-04-17T09:58:52Z</time></trkpt><trkpt lat="46.029294466894264" lon="11.383619025334347"><ele>423.0</ele><time>2026-04-17T09:58:53Z</time></trkpt><trkpt lat="46.029252836611725" lon="11.38316863800688"><ele>423.0</ele><time>2026-04-17T09:58:54Z</time></trkpt><trkpt lat="46.029219655098686" lon="11.382705864046915"><ele>424.0</ele><time>2026-04-17T09:58:55Z</time></trkpt><trkpt lat="46.029189270681535" lon="11.382228365059293"><ele>425.0</ele><time>2026-04-17T09:58:56Z</time></trkpt><trkpt lat="46.02915507657069" lon="11.381745532364286"><ele>423.5</ele><time>2026-04-17T09:58:57Z</time></trkpt><trkpt lat="46.029116497504695" lon="11.381253953006723"><ele>422.0</ele><time>2026-04-17T09:58:58Z</time></trkpt><trkpt lat="46.0290779600474" lon="11.380759366409427"><ele>422.0</ele><time>2026-04-17T09:58:59Z</time></trkpt><trkpt lat="46.02904047596434" lon="11.380283366165783"><ele>422.0</ele><time>2026-04-17T09:59:00Z</time></trkpt><trkpt lat="46.029006938031806" lon="11.379843065840662"><ele>421.5</ele><time>2026-04-17T09:59:01Z</time></trkpt><trkpt lat="46.02897271136961" lon="11.379427524906367"><ele>421.0</ele><time>2026-04-17T09:59:02Z</time></trkpt><trkpt lat="46.02893691417098" lon="11.379028406008509"><ele>422.0</ele><time>2026-04-17T09:59:03Z</time></trkpt><trkpt lat="46.02890301772082" lon="11.378644719658045"><ele>423.0</ele><time>2026-04-17T09:59:04Z</time></trkpt><trkpt lat="46.02886162426072" lon="11.378285827866444"><ele>424.0</ele><time>2026-04-17T09:59:05Z</time></trkpt><trkpt lat="46.02880445010485" lon="11.377919959228679"><ele>425.0</ele><time>2026-04-17T09:59:06Z</time></trkpt><trkpt lat="46.02872472793513" lon="11.377553282599674"><ele>425.0</ele><time>2026-04-17T09:59:07Z</time></trkpt><trkpt lat="46.02863150122245" lon="11.377191066681322"><ele>425.0</ele><time>2026-04-17T09:59:08Z</time></trkpt><trkpt lat="46.028528079785204" lon="11.37683228326513"><ele>425.0</ele><time>2026-04-17T09:59:09Z</time></trkpt><trkpt lat="46.02841399794373" lon="11.376496699205905"><ele>425.0</ele><time>2026-04-17T09:59:10Z</time></trkpt><trkpt lat="46.028275403926735" lon="11.376160895465999"><ele>426.0</ele><time>2026-04-17T09:59:11Z</time></trkpt><trkpt lat="46.02811652666484" lon="11.375819640707187"><ele>427.0</ele><time>2026-04-17T09:59:12Z</time></trkpt><trkpt lat="46.027941042882226" lon="11.375492919658702"><ele>427.5</ele><time>2026-04-17T09:59:13Z</time></trkpt><trkpt lat="46.02774638991538" lon="11.37518065388704"><ele>428.0</ele><time>2026-04-17T09:59:14Z</time></trkpt><trkpt lat="46.02754008265669" lon="11.374879400469213"><ele>427.5</ele><time>2026-04-17T09:59:15Z</time></trkpt><trkpt lat="46.027320589049545" lon="11.374596460321461"><ele>427.0</ele><time>2026-04-17T09:59:16Z</time></trkpt><trkpt lat="46.02708895708177" lon="11.374344299194354"><ele>427.0</ele><time>2026-04-17T09:59:17Z</time></trkpt><trkpt lat="46.026845996043114" lon="11.374103492749324"><ele>427.0</ele><time>2026-04-17T09:59:18Z</time></trkpt><trkpt lat="46.02658694462767" lon="11.373879305075087"><ele>430.0</ele><time>2026-04-17T09:59:19Z</time></trkpt><trkpt lat="46.026323884063025" lon="11.37365657851932"><ele>433.0</ele><time>2026-04-17T09:59:20Z</time></trkpt><trkpt lat="46.026059439087796" lon="11.373425656758275"><ele>432.0</ele><time>2026-04-17T09:59:21Z</time></trkpt><trkpt lat="46.02579604260612" lon="11.373190613349777"><ele>431.0</ele><time>2026-04-17T09:59:22Z</time></trkpt><trkpt lat="46.02552587250579" lon="11.372961167400048"><ele>434.0</ele><time>2026-04-17T09:59:23Z</time></trkpt><trkpt lat="46.025255879039115" lon="11.372729765508321"><ele>437.0</ele><time>2026-04-17T09:59:24Z</time></trkpt><trkpt lat="46.02498385518639" lon="11.372500043966989"><ele>437.0</ele><time>2026-04-17T09:59:25Z</time></trkpt><trkpt lat="46.024709289083106" lon="11.372270128474963"><ele>437.0</ele><time>2026-04-17T09:59:26Z</time></trkpt><trkpt lat="46.02443471989514" lon="11.372038773348793"><ele>439.5</ele><time>2026-04-17T09:59:27Z</time></trkpt><trkpt lat="46.02415881631155" lon="11.371807892204263"><ele>442.0</ele><time>2026-04-17T09:59:28Z</time></trkpt><trkpt lat="46.023883499666546" lon="11.371575991565564"><ele>445.5</ele><time>2026-04-17T09:59:29Z</time></trkpt><trkpt lat="46.02360803491978" lon="11.371340822292243"><ele>449.0</ele><time>2026-04-17T09:59:30Z</time></trkpt><trkpt lat="46.023349269671485" lon="11.371118798488617"><ele>447.5</ele><time>2026-04-17T09:59:31Z</time></trkpt><trkpt lat="46.023111305124935" lon="11.370913683687366"><ele>446.0</ele><time>2026-04-17T09:59:32Z</time></trkpt><trkpt lat="46.02288847686569" lon="11.370718952474657"><ele>447.0</ele><time>2026-04-17T09:59:33Z</time></trkpt><trkpt lat="46.022680955837274" lon="11.370511677632162"><ele>448.0</ele><time>2026-04-17T09:59:34Z</time></trkpt><trkpt lat="46.02247783584163" lon="11.370289055770863"><ele>448.0</ele><time>2026-04-17T09:59:35Z</time></trkpt><trkpt lat="46.02227989810682" lon="11.370041779511567"><ele>448.0</ele><time>2026-04-17T09:59:36Z</time></trkpt><trkpt lat="46.02209149686375" lon="11.369776361332072"><ele>448.5</ele><time>2026-04-17T09:59:37Z</time></trkpt><trkpt lat="46.02191396666985" lon="11.369494386056607"><ele>449.0</ele><time>2026-04-17T09:59:38Z</time></trkpt><trkpt lat="46.02174479460542" lon="11.369193184551863"><ele>446.5</ele><time>2026-04-17T09:59:39Z</time></trkpt><trkpt lat="46.02158393492051" lon="11.368871658181307"><ele>444.0</ele><time>2026-04-17T09:59:40Z</time></trkpt><trkpt lat="46.021446007849406" lon="11.368553509851171"><ele>444.0</ele><time>2026-04-17T09:59:41Z</time></trkpt><trkpt lat="46.02132182574019" lon="11.36823790295563"><ele>444.0</ele><time>2026-04-17T09:59:42Z</time></trkpt><trkpt lat="46.021207377354564" lon="11.367904708460436"><ele>446.5</ele><time>2026-04-17T09:59:43Z</time></trkpt><trkpt lat="46.0211034086806" lon="11.367557108090677"><ele>449.0</ele><time>2026-04-17T09:59:44Z</time></trkpt><trkpt lat="46.020998898165935" lon="11.367182222560535"><ele>451.0</ele><time>2026-04-17T09:59:45Z</time></trkpt><trkpt lat="46.020890119679834" lon="11.366795852075928"><ele>453.0</ele><time>2026-04-17T09:59:46Z</time></trkpt><trkpt lat="46.020772940044075" lon="11.366397271427807"><ele>450.0</ele><time>2026-04-17T09:59:47Z</time></trkpt><trkpt lat="46.02065077165664" lon="11.365988426799499"><ele>447.0</ele><time>2026-04-17T09:59:48Z</time></trkpt><trkpt lat="46.02052748637084" lon="11.365566454001687"><ele>449.0</ele><time>2026-04-17T09:59:49Z</time></trkpt><trkpt lat="46.020402186697254" lon="11.36513632469197"><ele>451.0</ele><time>2026-04-17T09:59:50Z</time></trkpt><trkpt lat="46.02027557837141" lon="11.364697454573092"><ele>452.0</ele><time>2026-04-17T09:59:51Z</time></trkpt><trkpt lat="46.02014604180649" lon="11.364253324036603"><ele>453.0</ele><time>2026-04-17T09:59:52Z</time></trkpt><trkpt lat="46.02003442977717" lon="11.363845235478879"><ele>449.5</ele><time>2026-04-17T09:59:53Z</time></trkpt><trkpt lat="46.019932342754146" lon="11.363469693006898"><ele>446.0</ele><time>2026-04-17T09:59:54Z</time></trkpt><trkpt lat="46.0198433889654" lon="11.363115893999684"><ele>446.5</ele><time>2026-04-17T09:59:55Z</time></trkpt><trkpt lat="46.01976509208639" lon="11.362779689761789"><ele>447.0</ele><time>2026-04-17T09:59:56Z</time></trkpt><trkpt lat="46.01969614935673" lon="11.362457685604596"><ele>447.66666666666663</ele><time>2026-04-17T09:59:57Z</time></trkpt><trkpt lat="46.019639397933766" lon="11.36215613579366"><ele>448.3333333333333</ele><time>2026-04-17T09:59:58Z</time></trkpt><trkpt lat="46.01958669107878" lon="11.361858589388548"><ele>449.0</ele><time>2026-04-17T09:59:59Z</time></trkpt><trkpt lat="46.019534389525994" lon="11.361548293538121"><ele>451.0</ele><time>2026-04-17T10:00:00Z</time></trkpt><trkpt lat="46.01948639068697" lon="11.361225826989873"><ele>453.0</ele><time>2026-04-17T10:00:01Z</time></trkpt><trkpt lat="46.01944414185055" lon="11.360900920801921"><ele>453.0</ele><time>2026-04-17T10:00:02Z</time></trkpt><trkpt lat="46.019408259787305" lon="11.36057275029101"><ele>453.0</ele><time>2026-04-17T10:00:03Z</time></trkpt><trkpt lat="46.01937168011018" lon="11.360216429085709"><ele>453.5</ele><time>2026-04-17T10:00:04Z</time></trkpt><trkpt lat="46.0193299279438" lon="11.359835730802287"><ele>454.0</ele><time>2026-04-17T10:00:05Z</time></trkpt><trkpt lat="46.019287100607755" lon="11.359439641905004"><ele>454.0</ele><time>2026-04-17T10:00:06Z</time></trkpt><trkpt lat="46.01924138391828" lon="11.359022256660447"><ele>454.0</ele><time>2026-04-17T10:00:07Z</time></trkpt><trkpt lat="46.01919948241793" lon="11.358612995836191"><ele>454.0</ele><time>2026-04-17T10:00:08Z</time></trkpt><trkpt lat="46.01915562735875" lon="11.358209827234138"><ele>454.0</ele><time>2026-04-17T10:00:09Z</time></trkpt><trkpt lat="46.01911031654215" lon="11.357785361268828"><ele>447.5</ele><time>2026-04-17T10:00:10Z</time></trkpt><trkpt lat="46.019064535488226" lon="11.357348909366923"><ele>441.0</ele><time>2026-04-17T10:00:11Z</time></trkpt><trkpt lat="46.0190187232345" lon="11.356903055460648"><ele>441.0</ele><time>2026-04-17T10:00:12Z</time></trkpt><trkpt lat="46.0189710263306" lon="11.356447275812853"><ele>441.0</ele><time>2026-04-17T10:00:13Z</time></trkpt><trkpt lat="46.018919256956266" lon="11.355985962688994"><ele>443.5</ele><time>2026-04-17T10:00:14Z</time></trkpt><trkpt lat="46.018862751318096" lon="11.355520704240293"><ele>446.0</ele><time>2026-04-17T10:00:15Z</time></trkpt><trkpt lat="46.01880407526591" lon="11.355050878634353"><ele>446.5</ele><time>2026-04-17T10:00:16Z</time></trkpt><trkpt lat="46.018740208632146" lon="11.354575537199368"><ele>447.0</ele><time>2026-04-17T10:00:17Z</time></trkpt><trkpt lat="46.018670502397114" lon="11.354096252425666"><ele>447.0</ele><time>2026-04-17T10:00:18Z</time></trkpt><trkpt lat="46.01860217319204" lon="11.35361390922469"><ele>447.0</ele><time>2026-04-17T10:00:19Z</time></trkpt><trkpt lat="46.01853355083519" lon="11.353124162267585"><ele>447.0</ele><time>2026-04-17T10:00:20Z</time></trkpt><trkpt lat="46.01846451867625" lon="11.352630553323616"><ele>447.0</ele><time>2026-04-17T10:00:21Z</time></trkpt><trkpt lat="46.0183930653818" lon="11.352132863073322"><ele>447.5</ele><time>2026-04-17T10:00:22Z</time></trkpt><trkpt lat="46.0183295446191" lon="11.351664129372972"><ele>448.0</ele><time>2026-04-17T10:00:23Z</time></trkpt><trkpt lat="46.018271780376416" lon="11.351222941497966"><ele>444.5</ele><time>2026-04-17T10:00:24Z</time></trkpt><trkpt lat="46.018216208575126" lon="11.350805235431046"><ele>441.0</ele><time>2026-04-17T10:00:25Z</time></trkpt><trkpt lat="46.018166713304645" lon="11.350406818196427"><ele>441.0</ele><time>2026-04-17T10:00:26Z</time></trkpt><trkpt lat="46.01811958523466" lon="11.350009698782332"><ele>441.0</ele><time>2026-04-17T10:00:27Z</time></trkpt><trkpt lat="46.018074693461955" lon="11.349607966764665"><ele>440.5</ele><time>2026-04-17T10:00:28Z</time></trkpt><trkpt lat="46.01803143754207" lon="11.349209835912697"><ele>440.0</ele><time>2026-04-17T10:00:29Z</time></trkpt><trkpt lat="46.01798932172091" lon="11.348816175081636"><ele>439.5</ele><time>2026-04-17T10:00:30Z</time></trkpt><trkpt lat="46.01794296653377" lon="11.348428427303581"><ele>439.0</ele><time>2026-04-17T10:00:31Z</time></trkpt><trkpt lat="46.01789306219817" lon="11.348052153906643"><ele>440.0</ele><time>2026-04-17T10:00:32Z</time></trkpt><trkpt lat="46.017832006876354" lon="11.347648020240113"><ele>441.0</ele><time>2026-04-17T10:00:33Z</time></trkpt><trkpt lat="46.01777617447062" lon="11.347234479402754"><ele>439.5</ele><time>2026-04-17T10:00:34Z</time></trkpt><trkpt lat="46.017727872043345" lon="11.346840073218452"><ele>438.0</ele><time>2026-04-17T10:00:35Z</time></trkpt><trkpt lat="46.017683762992164" lon="11.346457686348854"><ele>437.0</ele><time>2026-04-17T10:00:36Z</time></trkpt><trkpt lat="46.01764227692413" lon="11.346091169528147"><ele>436.0</ele><time>2026-04-17T10:00:37Z</time></trkpt><trkpt lat="46.017598477822744" lon="11.345742571550115"><ele>435.0</ele><time>2026-04-17T10:00:38Z</time></trkpt><trkpt lat="46.017550859230994" lon="11.345396540005908"><ele>434.0</ele><time>2026-04-17T10:00:39Z</time></trkpt><trkpt lat="46.01750436793717" lon="11.345045892034033"><ele>431.5</ele><time>2026-04-17T10:00:40Z</time></trkpt><trkpt lat="46.01745789964459" lon="11.344690999124456"><ele>429.0</ele><time>2026-04-17T10:00:41Z</time></trkpt><trkpt lat="46.01741147849497" lon="11.344336533172367"><ele>429.0</ele><time>2026-04-17T10:00:42Z</time></trkpt><trkpt lat="46.01736038994568" lon="11.3439782854605"><ele>429.0</ele><time>2026-04-17T10:00:43Z</time></trkpt><trkpt lat="46.017326133226696" lon="11.343588892160945"><ele>429.0</ele><time>2026-04-17T10:00:44Z</time></trkpt><trkpt lat="46.01727412822579" lon="11.34318210778075"><ele>429.0</ele><time>2026-04-17T10:00:45Z</time></trkpt><trkpt lat="46.01722143741826" lon="11.34277084886281"><ele>430.5</ele><time>2026-04-17T10:00:46Z</time></trkpt><trkpt lat="46.01716803997933" lon="11.342354390104278"><ele>432.0</ele><time>2026-04-17T10:00:47Z</time></trkpt><trkpt lat="46.01711423596537" lon="11.341935426695718"><ele>433.0</ele><time>2026-04-17T10:00:48Z</time></trkpt><trkpt lat="46.0170457657443" lon="11.341519645083068"><ele>434.0</ele><time>2026-04-17T10:00:49Z</time></trkpt><trkpt lat="46.01699401887471" lon="11.341125316819408"><ele>437.5</ele><time>2026-04-17T10:00:50Z</time></trkpt><trkpt lat="46.016941206643196" lon="11.340758608135253"><ele>441.0</ele><time>2026-04-17T10:00:51Z</time></trkpt><trkpt lat="46.016880321681604" lon="11.340389082191559"><ele>443.0</ele><time>2026-04-17T10:00:52Z</time></trkpt><trkpt lat="46.01681098552994" lon="11.340023979770862"><ele>445.0</ele><time>2026-04-17T10:00:53Z</time></trkpt><trkpt lat="46.01673715945025" lon="11.339664418587333"><ele>446.0</ele><time>2026-04-17T10:00:54Z</time></trkpt><trkpt lat="46.01665847623226" lon="11.33930588957283"><ele>447.0</ele><time>2026-04-17T10:00:55Z</time></trkpt><trkpt lat="46.016566903651764" lon="11.338953768648059"><ele>447.5</ele><time>2026-04-17T10:00:56Z</time></trkpt><trkpt lat="46.01647076179663" lon="11.338603698835833"><ele>448.0</ele><time>2026-04-17T10:00:57Z</time></trkpt><trkpt lat="46.01636497282221" lon="11.33825578499185"><ele>446.5</ele><time>2026-04-17T10:00:58Z</time></trkpt><trkpt lat="46.01625274703769" lon="11.337916493669269"><ele>445.0</ele><time>2026-04-17T10:00:59Z</time></trkpt><trkpt lat="46.01613408422443" lon="11.337584823409205"><ele>445.0</ele><time>2026-04-17T10:01:00Z</time></trkpt><trkpt lat="46.016011864993565" lon="11.337256675239473"><ele>445.0</ele><time>2026-04-17T10:01:01Z</time></trkpt><trkpt lat="46.01588619132908" lon="11.33692950439841"><ele>437.5</ele><time>2026-04-17T10:01:02Z</time></trkpt><trkpt lat="46.015758902275195" lon="11.336597589316032"><ele>430.0</ele><time>2026-04-17T10:01:03Z</time></trkpt><trkpt lat="46.01562923855827" lon="11.336260072675055"><ele>430.0</ele><time>2026-04-17T10:01:04Z</time></trkpt><trkpt lat="46.01549890056821" lon="11.335917491044068"><ele>430.0</ele><time>2026-04-17T10:01:05Z</time></trkpt><trkpt lat="46.015364465086854" lon="11.335571773741242"><ele>431.0</ele><time>2026-04-17T10:01:06Z</time></trkpt><trkpt lat="46.01522581482853" lon="11.335219761890846"><ele>432.0</ele><time>2026-04-17T10:01:07Z</time></trkpt><trkpt lat="46.01508514484883" lon="11.33486451084439"><ele>431.0</ele><time>2026-04-17T10:01:08Z</time></trkpt><trkpt lat="46.0149450230443" lon="11.334509022629582"><ele>430.0</ele><time>2026-04-17T10:01:09Z</time></trkpt><trkpt lat="46.01481140786458" lon="11.3341669889375"><ele>430.5</ele><time>2026-04-17T10:01:10Z</time></trkpt><trkpt lat="46.0146773127227" lon="11.333816951547739"><ele>431.0</ele><time>2026-04-17T10:01:11Z</time></trkpt><trkpt lat="46.01453971265143" lon="11.333461841077208"><ele>431.0</ele><time>2026-04-17T10:01:12Z</time></trkpt><trkpt lat="46.014404535094144" lon="11.333109845391013"><ele>431.0</ele><time>2026-04-17T10:01:13Z</time></trkpt><trkpt lat="46.01426924019405" lon="11.332757310367517"><ele>429.5</ele><time>2026-04-17T10:01:14Z</time></trkpt><trkpt lat="46.014130676817544" lon="11.332402043584853"><ele>428.0</ele><time>2026-04-17T10:01:15Z</time></trkpt><trkpt lat="46.01398700003863" lon="11.332036726408242"><ele>428.0</ele><time>2026-04-17T10:01:16Z</time></trkpt><trkpt lat="46.01384149187153" lon="11.331668162557762"><ele>428.0</ele><time>2026-04-17T10:01:17Z</time></trkpt><trkpt lat="46.013700463706336" lon="11.331299124098797"><ele>428.0</ele><time>2026-04-17T10:01:18Z</time></trkpt><trkpt lat="46.01356740626159" lon="11.330951926400283"><ele>428.0</ele><time>2026-04-17T10:01:19Z</time></trkpt><trkpt lat="46.01343408131877" lon="11.330614129138832"><ele>428.0</ele><time>2026-04-17T10:01:20Z</time></trkpt><trkpt lat="46.013303286134324" lon="11.330279525518653"><ele>428.0</ele><time>2026-04-17T10:01:21Z</time></trkpt><trkpt lat="46.013175153571005" lon="11.329947083356256"><ele>429.5</ele><time>2026-04-17T10:01:22Z</time></trkpt><trkpt lat="46.013050417166056" lon="11.329619283743387"><ele>431.0</ele><time>2026-04-17T10:01:23Z</time></trkpt><trkpt lat="46.01292236708705" lon="11.32930334655462"><ele>431.0</ele><time>2026-04-17T10:01:24Z</time></trkpt><trkpt lat="46.01278434003568" lon="11.328991084515481"><ele>431.0</ele><time>2026-04-17T10:01:25Z</time></trkpt><trkpt lat="46.01263267614022" lon="11.328684787639926"><ele>430.0</ele><time>2026-04-17T10:01:26Z</time></trkpt><trkpt lat="46.01246427981896" lon="11.328382131456708"><ele>429.0</ele><time>2026-04-17T10:01:27Z</time></trkpt><trkpt lat="46.012282918911644" lon="11.328087382106634"><ele>431.0</ele><time>2026-04-17T10:01:28Z</time></trkpt><trkpt lat="46.01209655026393" lon="11.327805546427955"><ele>433.0</ele><time>2026-04-17T10:01:29Z</time></trkpt><trkpt lat="46.011915504579996" lon="11.327556998885074"><ele>433.0</ele><time>2026-04-17T10:01:30Z</time></trkpt><trkpt lat="46.01172443971418" lon="11.32731271900503"><ele>433.0</ele><time>2026-04-17T10:01:31Z</time></trkpt><trkpt lat="46.01152525795402" lon="11.327085797486138"><ele>433.0</ele><time>2026-04-17T10:01:32Z</time></trkpt><trkpt lat="46.0113265586925" lon="11.326875732414711"><ele>433.0</ele><time>2026-04-17T10:01:33Z</time></trkpt><trkpt lat="46.011122236364585" lon="11.326676682544958"><ele>433.0</ele><time>2026-04-17T10:01:34Z</time></trkpt><trkpt lat="46.010912918277924" lon="11.326490742639079"><ele>433.0</ele><time>2026-04-17T10:01:35Z</time></trkpt><trkpt lat="46.01069761765247" lon="11.326311973211139"><ele>435.0</ele><time>2026-04-17T10:01:36Z</time></trkpt><trkpt lat="46.01047714697982" lon="11.326143388526061"><ele>437.0</ele><time>2026-04-17T10:01:37Z</time></trkpt><trkpt lat="46.010259681115635" lon="11.325983154337255"><ele>437.0</ele><time>2026-04-17T10:01:38Z</time></trkpt><trkpt lat="46.01004943370096" lon="11.3258257704804"><ele>437.0</ele><time>2026-04-17T10:01:39Z</time></trkpt><trkpt lat="46.00984639286839" lon="11.325662409648189"><ele>436.0</ele><time>2026-04-17T10:01:40Z</time></trkpt><trkpt lat="46.00964363918221" lon="11.325479491464424"><ele>435.0</ele><time>2026-04-17T10:01:41Z</time></trkpt><trkpt lat="46.009432900751406" lon="11.325275697676092"><ele>435.0</ele><time>2026-04-17T10:01:42Z</time></trkpt><trkpt lat="46.00924320744369" lon="11.325084503550313"><ele>435.0</ele><time>2026-04-17T10:01:43Z</time></trkpt><trkpt lat="46.00905028076277" lon="11.324886460155476"><ele>435.5</ele><time>2026-04-17T10:01:44Z</time></trkpt><trkpt lat="46.00884540677381" lon="11.324659568674754"><ele>436.0</ele><time>2026-04-17T10:01:45Z</time></trkpt><trkpt lat="46.00864864904605" lon="11.324412500636702"><ele>436.0</ele><time>2026-04-17T10:01:46Z</time></trkpt><trkpt lat="46.008472082314576" lon="11.324172200236067"><ele>436.0</ele><time>2026-04-17T10:01:47Z</time></trkpt><trkpt lat="46.008301272785815" lon="11.323925316873027"><ele>436.0</ele><time>2026-04-17T10:01:48Z</time></trkpt><trkpt lat="46.0081332158184" lon="11.323675784368998"><ele>436.0</ele><time>2026-04-17T10:01:49Z</time></trkpt><trkpt lat="46.0079728524496" lon="11.323415184790365"><ele>436.0</ele><time>2026-04-17T10:01:50Z</time></trkpt><trkpt lat="46.00782068908978" lon="11.323149654332592"><ele>436.0</ele><time>2026-04-17T10:01:51Z</time></trkpt><trkpt lat="46.00768031885289" lon="11.322887359817573"><ele>436.33333333333337</ele><time>2026-04-17T10:01:52Z</time></trkpt><trkpt lat="46.007549262002804" lon="11.322625704693255"><ele>436.66666666666663</ele><time>2026-04-17T10:01:53Z</time></trkpt><trkpt lat="46.00742596566654" lon="11.322359673392704"><ele>437.0</ele><time>2026-04-17T10:01:54Z</time></trkpt><trkpt lat="46.00730922383981" lon="11.322096459311865"><ele>438.0</ele><time>2026-04-17T10:01:55Z</time></trkpt><trkpt lat="46.00720237919354" lon="11.32185120984962"><ele>439.0</ele><time>2026-04-17T10:01:56Z</time></trkpt><trkpt lat="46.00710006121996" lon="11.321616007775122"><ele>440.0</ele><time>2026-04-17T10:01:57Z</time></trkpt><trkpt lat="46.00699329959764" lon="11.321377645557"><ele>439.0</ele><time>2026-04-17T10:01:58Z</time></trkpt><trkpt lat="46.00687614095518" lon="11.321126413881649"><ele>438.0</ele><time>2026-04-17T10:01:59Z</time></trkpt><trkpt lat="46.00675115199858" lon="11.320850901360867"><ele>437.0</ele><time>2026-04-17T10:02:00Z</time></trkpt><trkpt lat="46.00663059723508" lon="11.320572529055692"><ele>438.0</ele><time>2026-04-17T10:02:01Z</time></trkpt><trkpt lat="46.00651248752737" lon="11.320283500910001"><ele>439.0</ele><time>2026-04-17T10:02:02Z</time></trkpt><trkpt lat="46.0063985219711" lon="11.32002284632566"><ele>440.0</ele><time>2026-04-17T10:02:03Z</time></trkpt><trkpt lat="46.006288297103914" lon="11.319765973713269"><ele>440.3333333333333</ele><time>2026-04-17T10:02:04Z</time></trkpt><trkpt lat="46.00618543097923" lon="11.31952011704269"><ele>440.66666666666663</ele><time>2026-04-17T10:02:05Z</time></trkpt><trkpt lat="46.00607827635967" lon="11.319274135426246"><ele>441.0</ele><time>2026-04-17T10:02:06Z</time></trkpt><trkpt lat="46.005968266092175" lon="11.319028441084747"><ele>440.0</ele><time>2026-04-17T10:02:07Z</time></trkpt><trkpt lat="46.00586004085094" lon="11.318782111107017"><ele>439.0</ele><time>2026-04-17T10:02:08Z</time></trkpt><trkpt lat="46.00575675717261" lon="11.318537232299816"><ele>438.0</ele><time>2026-04-17T10:02:09Z</time></trkpt><trkpt lat="46.00565543088692" lon="11.31829400406744"><ele>439.0</ele><time>2026-04-17T10:02:10Z</time></trkpt><trkpt lat="46.005555147655656" lon="11.318053418328413"><ele>440.0</ele><time>2026-04-17T10:02:11Z</time></trkpt><trkpt lat="46.00546004058371" lon="11.31781605585867"><ele>441.0</ele><time>2026-04-17T10:02:12Z</time></trkpt><trkpt lat="46.00536537010937" lon="11.317576519488771"><ele>441.0</ele><time>2026-04-17T10:02:13Z</time></trkpt><trkpt lat="46.005275765168896" lon="11.31733476257743"><ele>441.0</ele><time>2026-04-17T10:02:14Z</time></trkpt><trkpt lat="46.005191140497296" lon="11.317091820179616"><ele>441.0</ele><time>2026-04-17T10:02:15Z</time></trkpt><trkpt lat="46.005114921203635" lon="11.3168484331052"><ele>441.0</ele><time>2026-04-17T10:02:16Z</time></trkpt><trkpt lat="46.00503744834765" lon="11.316604051499409"><ele>441.0</ele><time>2026-04-17T10:02:17Z</time></trkpt><trkpt lat="46.0049589615679" lon="11.316360946045608"><ele>441.0</ele><time>2026-04-17T10:02:18Z</time></trkpt><trkpt lat="46.004883016576045" lon="11.316116097844237"><ele>440.33333333333337</ele><time>2026-04-17T10:02:19Z</time></trkpt><trkpt lat="46.004808872344356" lon="11.315865820884866"><ele>439.6666666666667</ele><time>2026-04-17T10:02:20Z</time></trkpt><trkpt lat="46.004740016186254" lon="11.315610506081796"><ele>439.0</ele><time>2026-04-17T10:02:21Z</time></trkpt><trkpt lat="46.00467257443327" lon="11.315350285915759"><ele>439.0</ele><time>2026-04-17T10:02:22Z</time></trkpt><trkpt lat="46.00460562022896" lon="11.31508852362181"><ele>439.0</ele><time>2026-04-17T10:02:23Z</time></trkpt><trkpt lat="46.00453699793445" lon="11.314827737413914"><ele>439.0</ele><time>2026-04-17T10:02:24Z</time></trkpt><trkpt lat="46.004474947742864" lon="11.314559051032617"><ele>439.6666666666667</ele><time>2026-04-17T10:02:25Z</time></trkpt><trkpt lat="46.00441579470046" lon="11.31428632059969"><ele>440.33333333333337</ele><time>2026-04-17T10:02:26Z</time></trkpt><trkpt lat="46.00435548067415" lon="11.3140111440895"><ele>441.0</ele><time>2026-04-17T10:02:27Z</time></trkpt><trkpt lat="46.00430205192476" lon="11.313728501248685"><ele>441.33333333333337</ele><time>2026-04-17T10:02:28Z</time></trkpt><trkpt lat="46.004250141486615" lon="11.313440695118269"><ele>441.6666666666667</ele><time>2026-04-17T10:02:29Z</time></trkpt><trkpt lat="46.0041982243081" lon="11.313149973753129"><ele>442.0</ele><time>2026-04-17T10:02:30Z</time></trkpt><trkpt lat="46.00414761896195" lon="11.312858911299486"><ele>441.33333333333337</ele><time>2026-04-17T10:02:31Z</time></trkpt><trkpt lat="46.004105999174925" lon="11.312573086121981"><ele>440.66666666666663</ele><time>2026-04-17T10:02:32Z</time></trkpt><trkpt lat="46.004070647488646" lon="11.31229477370294"><ele>440.0</ele><time>2026-04-17T10:02:33Z</time></trkpt><trkpt lat="46.004041854211245" lon="11.312030165489036"><ele>440.0</ele><time>2026-04-17T10:02:34Z</time></trkpt><trkpt lat="46.004015188174215" lon="11.311767390731367"><ele>440.0</ele><time>2026-04-17T10:02:35Z</time></trkpt><trkpt lat="46.00398768969408" lon="11.31149997030336"><ele>440.0</ele><time>2026-04-17T10:02:36Z</time></trkpt><trkpt lat="46.00396236834393" lon="11.31122955179328"><ele>440.3333333333333</ele><time>2026-04-17T10:02:37Z</time></trkpt><trkpt lat="46.00394241283986" lon="11.310961457305192"><ele>440.66666666666663</ele><time>2026-04-17T10:02:38Z</time></trkpt><trkpt lat="46.0039270637186" lon="11.310691252597536"><ele>441.0</ele><time>2026-04-17T10:02:39Z</time></trkpt><trkpt lat="46.00391083509843" lon="11.310419353781482"><ele>441.0</ele><time>2026-04-17T10:02:40Z</time></trkpt><trkpt lat="46.00389523967737" lon="11.310152850922949"><ele>441.0</ele><time>2026-04-17T10:02:41Z</time></trkpt><trkpt lat="46.003883397125364" lon="11.309897873126562"><ele>441.0</ele><time>2026-04-17T10:02:42.001Z</time></trkpt><trkpt lat="46.00387491539882" lon="11.309627050199103"><ele>441.0</ele><time>2026-04-17T10:02:43.001Z</time></trkpt><trkpt lat="46.003869282875286" lon="11.309341594754818"><ele>441.0</ele><time>2026-04-17T10:02:44.001Z</time></trkpt><trkpt lat="46.003868162502535" lon="11.309044608051709"><ele>441.0</ele><time>2026-04-17T10:02:45.001Z</time></trkpt><trkpt lat="46.00386842013355" lon="11.308739610571504"><ele>440.33333333333337</ele><time>2026-04-17T10:02:46.001Z</time></trkpt><trkpt lat="46.00386973950118" lon="11.30844131234755"><ele>439.6666666666667</ele><time>2026-04-17T10:02:47.001Z</time></trkpt><trkpt lat="46.00387439434073" lon="11.308145310573739"><ele>439.0</ele><time>2026-04-17T10:02:48.001Z</time></trkpt><trkpt lat="46.00388259130536" lon="11.307852600850799"><ele>438.6666666666667</ele><time>2026-04-17T10:02:49.001Z</time></trkpt><trkpt lat="46.003892117738474" lon="11.30756181706678"><ele>438.33333333333337</ele><time>2026-04-17T10:02:50.001Z</time></trkpt><trkpt lat="46.00390074046091" lon="11.30726920902651"><ele>438.0</ele><time>2026-04-17T10:02:51.001Z</time></trkpt><trkpt lat="46.003908316684026" lon="11.306978325252834"><ele>438.0</ele><time>2026-04-17T10:02:52.001Z</time></trkpt><trkpt lat="46.003914237414115" lon="11.306678824427154"><ele>438.0</ele><time>2026-04-17T10:02:53.001Z</time></trkpt><trkpt lat="46.003920241089205" lon="11.306380726149852"><ele>438.0</ele><time>2026-04-17T10:02:54.001Z</time></trkpt><trkpt lat="46.00392770032315" lon="11.306083330867137"><ele>438.33333333333337</ele><time>2026-04-17T10:02:55.001Z</time></trkpt><trkpt lat="46.00393734684153" lon="11.305794393138715"><ele>438.6666666666667</ele><time>2026-04-17T10:02:56.001Z</time></trkpt><trkpt lat="46.00394569341107" lon="11.305523682422665"><ele>439.0</ele><time>2026-04-17T10:02:57Z</time></trkpt><trkpt lat="46.00395366795673" lon="11.30526311825986"><ele>438.6666666666667</ele><time>2026-04-17T10:02:58Z</time></trkpt><trkpt lat="46.00396566140462" lon="11.305005287793527"><ele>438.33333333333337</ele><time>2026-04-17T10:02:59Z</time></trkpt><trkpt lat="46.00397395255585" lon="11.304747508425065"><ele>438.0</ele><time>2026-04-17T10:03:00Z</time></trkpt><trkpt lat="46.003977851508004" lon="11.304484183100717"><ele>438.0</ele><time>2026-04-17T10:03:01Z</time></trkpt><trkpt lat="46.00399027845213" lon="11.304206844152315"><ele>438.0</ele><time>2026-04-17T10:03:02Z</time></trkpt><trkpt lat="46.00399940555026" lon="11.303943120594965"><ele>438.0</ele><time>2026-04-17T10:03:03Z</time></trkpt><trkpt lat="46.004005746278466" lon="11.303672947677988"><ele>437.66666666666663</ele><time>2026-04-17T10:03:04Z</time></trkpt><trkpt lat="46.00401351764891" lon="11.303408148531991"><ele>437.3333333333333</ele><time>2026-04-17T10:03:05Z</time></trkpt><trkpt lat="46.00402297821495" lon="11.303148151116652"><ele>437.0</ele><time>2026-04-17T10:03:06Z</time></trkpt><trkpt lat="46.00403177027717" lon="11.30288757866853"><ele>437.0</ele><time>2026-04-17T10:03:07Z</time></trkpt><trkpt lat="46.00404057594122" lon="11.302624803141224"><ele>437.0</ele><time>2026-04-17T10:03:08Z</time></trkpt><trkpt lat="46.004045530734956" lon="11.302361515648508"><ele>437.0</ele><time>2026-04-17T10:03:09Z</time></trkpt><trkpt lat="46.00404609152845" lon="11.302096030120989"><ele>437.3333333333333</ele><time>2026-04-17T10:03:10Z</time></trkpt><trkpt lat="46.00404373570737" lon="11.301838899136646"><ele>437.66666666666663</ele><time>2026-04-17T10:03:11Z</time></trkpt><trkpt lat="46.004043709013196" lon="11.301587066406915"><ele>438.0</ele><time>2026-04-17T10:03:12Z</time></trkpt><trkpt lat="46.00403948186077" lon="11.301318277764109"><ele>438.0</ele><time>2026-04-17T10:03:13Z</time></trkpt><trkpt lat="46.00403007998204" lon="11.301037494935537"><ele>438.0</ele><time>2026-04-17T10:03:14Z</time></trkpt><trkpt lat="46.00401189991897" lon="11.300743721132376"><ele>438.0</ele><time>2026-04-17T10:03:15Z</time></trkpt><trkpt lat="46.003988483716086" lon="11.300441785210289"><ele>437.66666666666663</ele><time>2026-04-17T10:03:16Z</time></trkpt><trkpt lat="46.00396646529458" lon="11.30014536082391"><ele>437.3333333333333</ele><time>2026-04-17T10:03:17Z</time></trkpt><trkpt lat="46.00393882854297" lon="11.299852057973307"><ele>437.0</ele><time>2026-04-17T10:03:18Z</time></trkpt><trkpt lat="46.003908129088074" lon="11.299557915120731"><ele>437.0</ele><time>2026-04-17T10:03:19Z</time></trkpt><trkpt lat="46.003859942163565" lon="11.299256547170756"><ele>437.0</ele><time>2026-04-17T10:03:20Z</time></trkpt><trkpt lat="46.003803336449295" lon="11.298932411455507"><ele>437.0</ele><time>2026-04-17T10:03:21Z</time></trkpt><trkpt lat="46.003727792346766" lon="11.298583910049917"><ele>436.5</ele><time>2026-04-17T10:03:22Z</time></trkpt><trkpt lat="46.00364946029534" lon="11.298217507944283"><ele>436.0</ele><time>2026-04-17T10:03:23Z</time></trkpt><trkpt lat="46.003569009097596" lon="11.297831189065764"><ele>437.0</ele><time>2026-04-17T10:03:24Z</time></trkpt><trkpt lat="46.003481700441085" lon="11.297420548513758"><ele>438.0</ele><time>2026-04-17T10:03:25Z</time></trkpt><trkpt lat="46.003424325799" lon="11.296982394711604"><ele>438.0</ele><time>2026-04-17T10:03:26Z</time></trkpt><trkpt lat="46.00334184580693" lon="11.296597876432658"><ele>438.0</ele><time>2026-04-17T10:03:27Z</time></trkpt><trkpt lat="46.00326811311756" lon="11.29625524897243"><ele>439.5</ele><time>2026-04-17T10:03:28Z</time></trkpt><trkpt lat="46.00318870338594" lon="11.295934353307102"><ele>441.0</ele><time>2026-04-17T10:03:29Z</time></trkpt><trkpt lat="46.00313220704983" lon="11.295617814912777"><ele>441.5</ele><time>2026-04-17T10:03:30Z</time></trkpt><trkpt lat="46.003074106079076" lon="11.295290509766016"><ele>442.0</ele><time>2026-04-17T10:03:31Z</time></trkpt><trkpt lat="46.003015975378666" lon="11.294946498143762"><ele>441.0</ele><time>2026-04-17T10:03:32Z</time></trkpt><trkpt lat="46.002966796065536" lon="11.294609717805026"><ele>440.0</ele><time>2026-04-17T10:03:33Z</time></trkpt><trkpt lat="46.00294289402938" lon="11.294260391676634"><ele>440.0</ele><time>2026-04-17T10:03:34Z</time></trkpt><trkpt lat="46.002909820803815" lon="11.29389950693994"><ele>440.0</ele><time>2026-04-17T10:03:35Z</time></trkpt><trkpt lat="46.00288416481078" lon="11.293540599874653"><ele>440.0</ele><time>2026-04-17T10:03:36Z</time></trkpt><trkpt lat="46.0028598900943" lon="11.293152060708747"><ele>440.0</ele><time>2026-04-17T10:03:37Z</time></trkpt><trkpt lat="46.00282264879261" lon="11.292741980870927"><ele>440.0</ele><time>2026-04-17T10:03:38Z</time></trkpt><trkpt lat="46.00280180489146" lon="11.292309713173195"><ele>440.0</ele><time>2026-04-17T10:03:39Z</time></trkpt><trkpt lat="46.00277814328564" lon="11.291860056632524"><ele>441.5</ele><time>2026-04-17T10:03:40Z</time></trkpt><trkpt lat="46.002752205395815" lon="11.291395380564104"><ele>443.0</ele><time>2026-04-17T10:03:41Z</time></trkpt><trkpt lat="46.00272721172503" lon="11.29092038659149"><ele>444.0</ele><time>2026-04-17T10:03:42Z</time></trkpt><trkpt lat="46.002701298718925" lon="11.29043133185589"><ele>445.0</ele><time>2026-04-17T10:03:43Z</time></trkpt><trkpt lat="46.00267500043338" lon="11.289935123790999"><ele>445.5</ele><time>2026-04-17T10:03:44Z</time></trkpt><trkpt lat="46.00264396899579" lon="11.289427444273628"><ele>446.0</ele><time>2026-04-17T10:03:45Z</time></trkpt><trkpt lat="46.00261101060036" lon="11.288906735822371"><ele>446.0</ele><time>2026-04-17T10:03:46Z</time></trkpt><trkpt lat="46.00258179819248" lon="11.288411548205515"><ele>446.0</ele><time>2026-04-17T10:03:47Z</time></trkpt><trkpt lat="46.00255484031631" lon="11.287986332803284"><ele>446.5</ele><time>2026-04-17T10:03:48Z</time></trkpt><trkpt lat="46.00252797059097" lon="11.287604979686774"><ele>447.0</ele><time>2026-04-17T10:03:49Z</time></trkpt><trkpt lat="46.00250703352163" lon="11.287256187932455"><ele>447.33333333333337</ele><time>2026-04-17T10:03:50Z</time></trkpt><trkpt lat="46.002485908248154" lon="11.286932943020972"><ele>447.6666666666667</ele><time>2026-04-17T10:03:51Z</time></trkpt><trkpt lat="46.002463875582166" lon="11.286613505104913"><ele>448.0</ele><time>2026-04-17T10:03:52Z</time></trkpt><trkpt lat="46.00244840186634" lon="11.286291396208497"><ele>448.0</ele><time>2026-04-17T10:03:53Z</time></trkpt><trkpt lat="46.0024341528781" lon="11.285987495318114"><ele>448.0</ele><time>2026-04-17T10:03:54Z</time></trkpt><trkpt lat="46.00242822611214" lon="11.285683961729475"><ele>448.0</ele><time>2026-04-17T10:03:55Z</time></trkpt><trkpt lat="46.00243982061092" lon="11.285358048921958"><ele>448.5</ele><time>2026-04-17T10:03:56Z</time></trkpt><trkpt lat="46.00246815750246" lon="11.285026663982418"><ele>449.0</ele><time>2026-04-17T10:03:57Z</time></trkpt><trkpt lat="46.00250942642491" lon="11.284679322928996"><ele>451.5</ele><time>2026-04-17T10:03:58Z</time></trkpt><trkpt lat="46.00256276680151" lon="11.284315447166069"><ele>454.0</ele><time>2026-04-17T10:03:59Z</time></trkpt><trkpt lat="46.0026236033564" lon="11.28393633352157"><ele>452.5</ele><time>2026-04-17T10:04:00Z</time></trkpt><trkpt lat="46.00269073745479" lon="11.283538695981598"><ele>451.0</ele><time>2026-04-17T10:04:01Z</time></trkpt><trkpt lat="46.00275759298753" lon="11.283126651867548"><ele>451.5</ele><time>2026-04-17T10:04:02Z</time></trkpt><trkpt lat="46.002827909043084" lon="11.2827130702414"><ele>452.0</ele><time>2026-04-17T10:04:03Z</time></trkpt><trkpt lat="46.00290213497203" lon="11.282306245799404"><ele>451.0</ele><time>2026-04-17T10:04:04Z</time></trkpt><trkpt lat="46.00298320567822" lon="11.281915995033174"><ele>450.0</ele><time>2026-04-17T10:04:05Z</time></trkpt><trkpt lat="46.00307091351795" lon="11.281517417732333"><ele>451.0</ele><time>2026-04-17T10:04:06Z</time></trkpt><trkpt lat="46.003157862544846" lon="11.281107197467202"><ele>452.0</ele><time>2026-04-17T10:04:07Z</time></trkpt><trkpt lat="46.003240413812414" lon="11.280706925171296"><ele>452.0</ele><time>2026-04-17T10:04:08Z</time></trkpt><trkpt lat="46.00331916354133" lon="11.280330375972465"><ele>452.0</ele><time>2026-04-17T10:04:09Z</time></trkpt><trkpt lat="46.003397121242905" lon="11.2799564002416"><ele>453.0</ele><time>2026-04-17T10:04:10Z</time></trkpt><trkpt lat="46.00347537136256" lon="11.279585072543302"><ele>454.0</ele><time>2026-04-17T10:04:11Z</time></trkpt><trkpt lat="46.00354874265179" lon="11.27921984156096"><ele>452.5</ele><time>2026-04-17T10:04:12Z</time></trkpt><trkpt lat="46.00362226139682" lon="11.278856404829972"><ele>451.0</ele><time>2026-04-17T10:04:13Z</time></trkpt><trkpt lat="46.003697455927046" lon="11.27848107523885"><ele>451.0</ele><time>2026-04-17T10:04:14Z</time></trkpt><trkpt lat="46.00377608993703" lon="11.278113418254353"><ele>451.0</ele><time>2026-04-17T10:04:15Z</time></trkpt><trkpt lat="46.00385663479764" lon="11.277776273230733"><ele>450.5</ele><time>2026-04-17T10:04:16Z</time></trkpt><trkpt lat="46.00393967725538" lon="11.277464560255133"><ele>450.0</ele><time>2026-04-17T10:04:17Z</time></trkpt><trkpt lat="46.00402760841641" lon="11.277158203612235"><ele>450.0</ele><time>2026-04-17T10:04:18Z</time></trkpt><trkpt lat="46.00412157846802" lon="11.276847548500125"><ele>450.0</ele><time>2026-04-17T10:04:19Z</time></trkpt><trkpt lat="46.004217884742644" lon="11.276534477964349"><ele>451.5</ele><time>2026-04-17T10:04:20Z</time></trkpt><trkpt lat="46.00431072536315" lon="11.276221124775473"><ele>453.0</ele><time>2026-04-17T10:04:21Z</time></trkpt><trkpt lat="46.004403726096754" lon="11.275914443817994"><ele>453.0</ele><time>2026-04-17T10:04:22Z</time></trkpt><trkpt lat="46.004494149575656" lon="11.275617922808662"><ele>453.0</ele><time>2026-04-17T10:04:23Z</time></trkpt><trkpt lat="46.00458176882867" lon="11.275330315281744"><ele>453.0</ele><time>2026-04-17T10:04:24Z</time></trkpt><trkpt lat="46.00466696423964" lon="11.275052847681344"><ele>452.66666666666663</ele><time>2026-04-17T10:04:25Z</time></trkpt><trkpt lat="46.004747646103894" lon="11.274789010336281"><ele>452.3333333333333</ele><time>2026-04-17T10:04:26Z</time></trkpt><trkpt lat="46.00482546233848" lon="11.274535202804593"><ele>452.0</ele><time>2026-04-17T10:04:27Z</time></trkpt><trkpt lat="46.00490252072285" lon="11.274279757932531"><ele>452.0</ele><time>2026-04-17T10:04:28Z</time></trkpt><trkpt lat="46.004979877456655" lon="11.27402842880334"><ele>452.0</ele><time>2026-04-17T10:04:29Z</time></trkpt><trkpt lat="46.005055484673996" lon="11.273782170510252"><ele>452.0</ele><time>2026-04-17T10:04:30Z</time></trkpt><trkpt lat="46.005128483045645" lon="11.273538296767857"><ele>452.0</ele><time>2026-04-17T10:04:31Z</time></trkpt><trkpt lat="46.005201513820225" lon="11.273295359884568"><ele>452.0</ele><time>2026-04-17T10:04:32Z</time></trkpt><trkpt lat="46.00527781874446" lon="11.273048720634925"><ele>452.0</ele><time>2026-04-17T10:04:33Z</time></trkpt><trkpt lat="46.00535940672517" lon="11.272779841483487"><ele>452.3333333333333</ele><time>2026-04-17T10:04:34Z</time></trkpt><trkpt lat="46.00544052058685" lon="11.272509874666598"><ele>452.66666666666663</ele><time>2026-04-17T10:04:35Z</time></trkpt><trkpt lat="46.00551911650744" lon="11.272251389644046"><ele>453.0</ele><time>2026-04-17T10:04:36Z</time></trkpt><trkpt lat="46.005597983065925" lon="11.27199941422487"><ele>453.0</ele><time>2026-04-17T10:04:37Z</time></trkpt><trkpt lat="46.00567569786234" lon="11.27175874063573"><ele>453.0</ele><time>2026-04-17T10:04:38Z</time></trkpt><trkpt lat="46.005753315879495" lon="11.271518404133682"><ele>453.0</ele><time>2026-04-17T10:04:39Z</time></trkpt><trkpt lat="46.00584102013273" lon="11.271256200926125"><ele>453.0</ele><time>2026-04-17T10:04:40Z</time></trkpt><trkpt lat="46.00593133438748" lon="11.270969990534239"><ele>453.0</ele><time>2026-04-17T10:04:41Z</time></trkpt><trkpt lat="46.00602670481833" lon="11.270663675703542"><ele>452.0</ele><time>2026-04-17T10:04:42Z</time></trkpt><trkpt lat="46.00613589911688" lon="11.270342797717877"><ele>451.0</ele><time>2026-04-17T10:04:43Z</time></trkpt><trkpt lat="46.00625178670597" lon="11.270023038379124"><ele>450.0</ele><time>2026-04-17T10:04:44Z</time></trkpt><trkpt lat="46.006363859134304" lon="11.269719883302917"><ele>449.0</ele><time>2026-04-17T10:04:45Z</time></trkpt><trkpt lat="46.006468761356956" lon="11.269431506706741"><ele>449.0</ele><time>2026-04-17T10:04:46Z</time></trkpt><trkpt lat="46.006569772270794" lon="11.269151642114117"><ele>449.0</ele><time>2026-04-17T10:04:47Z</time></trkpt><trkpt lat="46.00666598347709" lon="11.268883055881108"><ele>449.0</ele><time>2026-04-17T10:04:48Z</time></trkpt><trkpt lat="46.00676255015036" lon="11.26861585481708"><ele>449.3333333333333</ele><time>2026-04-17T10:04:49Z</time></trkpt><trkpt lat="46.006855422591386" lon="11.26834696012981"><ele>449.66666666666663</ele><time>2026-04-17T10:04:50Z</time></trkpt><trkpt lat="46.006944385330705" lon="11.268088955487698"><ele>450.0</ele><time>2026-04-17T10:04:51Z</time></trkpt><trkpt lat="46.00702910281617" lon="11.267846119873742"><ele>450.0</ele><time>2026-04-17T10:04:52Z</time></trkpt><trkpt lat="46.007116271943964" lon="11.267606512302843"><ele>450.0</ele><time>2026-04-17T10:04:53Z</time></trkpt><trkpt lat="46.00720104384183" lon="11.267382992908209"><ele>450.0</ele><time>2026-04-17T10:04:54.001Z</time></trkpt><trkpt lat="46.00728592800795" lon="11.267172308970045"><ele>450.0</ele><time>2026-04-17T10:04:55.001Z</time></trkpt><trkpt lat="46.00737647218601" lon="11.266967240832273"><ele>450.0</ele><time>2026-04-17T10:04:56.001Z</time></trkpt><trkpt lat="46.00747869903722" lon="11.266765704430284"><ele>450.0</ele><time>2026-04-17T10:04:57.001Z</time></trkpt><trkpt lat="46.00757979896548" lon="11.266586824381886"><ele>450.25</ele><time>2026-04-17T10:04:58.001Z</time></trkpt><trkpt lat="46.00767489244287" lon="11.266421125612075"><ele>450.5</ele><time>2026-04-17T10:04:59.001Z</time></trkpt><trkpt lat="46.00777554607348" lon="11.266272363405905"><ele>450.75</ele><time>2026-04-17T10:05:00.001Z</time></trkpt><trkpt lat="46.00787549892833" lon="11.266136699098988"><ele>451.0</ele><time>2026-04-17T10:05:01.001Z</time></trkpt><trkpt lat="46.00797910877044" lon="11.265999179234974"><ele>451.0</ele><time>2026-04-17T10:05:02.001Z</time></trkpt><trkpt lat="46.00808411894938" lon="11.265863752727402"><ele>451.0</ele><time>2026-04-17T10:05:03Z</time></trkpt><trkpt lat="46.00818434393808" lon="11.265729938216944"><ele>451.0</ele><time>2026-04-17T10:05:04Z</time></trkpt><trkpt lat="46.00828172174224" lon="11.265596889328203"><ele>451.0</ele><time>2026-04-17T10:05:05Z</time></trkpt><trkpt lat="46.00837795795389" lon="11.26546588781358"><ele>451.6666666666667</ele><time>2026-04-17T10:05:06Z</time></trkpt><trkpt lat="46.008483461343175" lon="11.265321134024608"><ele>452.33333333333337</ele><time>2026-04-17T10:05:07Z</time></trkpt><trkpt lat="46.008606892969276" lon="11.265145691632144"><ele>453.0</ele><time>2026-04-17T10:05:08Z</time></trkpt><trkpt lat="46.00874529225243" lon="11.264951073163807"><ele>452.0</ele><time>2026-04-17T10:05:09Z</time></trkpt><trkpt lat="46.00889589116162" lon="11.26473057912217"><ele>451.0</ele><time>2026-04-17T10:05:10Z</time></trkpt><trkpt lat="46.009083211428475" lon="11.264526460233672"><ele>454.0</ele><time>2026-04-17T10:05:11Z</time></trkpt><trkpt lat="46.00923352343434" lon="11.264322762206673"><ele>457.0</ele><time>2026-04-17T10:05:12Z</time></trkpt><trkpt lat="46.00935533699324" lon="11.264127757475483"><ele>460.0</ele><time>2026-04-17T10:05:13Z</time></trkpt><trkpt lat="46.00948512304632" lon="11.263968951448248"><ele>456.33333333333337</ele><time>2026-04-17T10:05:14Z</time></trkpt><trkpt lat="46.009610558504924" lon="11.263821382908995"><ele>452.66666666666663</ele><time>2026-04-17T10:05:15Z</time></trkpt><trkpt lat="46.00975126974074" lon="11.263683755705987"><ele>449.0</ele><time>2026-04-17T10:05:16Z</time></trkpt><trkpt lat="46.00990393171102" lon="11.263559112005668"><ele>451.0</ele><time>2026-04-17T10:05:17Z</time></trkpt><trkpt lat="46.01004801220894" lon="11.263464518116473"><ele>453.0</ele><time>2026-04-17T10:05:18Z</time></trkpt><trkpt lat="46.010186194220196" lon="11.263383682063644"><ele>455.0</ele><time>2026-04-17T10:05:19Z</time></trkpt><trkpt lat="46.01031925123927" lon="11.26331946358598"><ele>457.0</ele><time>2026-04-17T10:05:20Z</time></trkpt><trkpt lat="46.01044369226983" lon="11.263268924420663"><ele>457.0</ele><time>2026-04-17T10:05:21Z</time></trkpt><trkpt lat="46.01057387858942" lon="11.263223783772304"><ele>457.0</ele><time>2026-04-17T10:05:22Z</time></trkpt><trkpt lat="46.0107129649804" lon="11.26317233645145"><ele>457.0</ele><time>2026-04-17T10:05:23Z</time></trkpt><trkpt lat="46.01084650315901" lon="11.263121184172844"><ele>457.0</ele><time>2026-04-17T10:05:24Z</time></trkpt><trkpt lat="46.01096776636823" lon="11.263070470820518"><ele>455.5</ele><time>2026-04-17T10:05:25Z</time></trkpt><trkpt lat="46.01109143248668" lon="11.263024607353898"><ele>454.0</ele><time>2026-04-17T10:05:26Z</time></trkpt><trkpt lat="46.01121884577867" lon="11.262976922611797"><ele>452.5</ele><time>2026-04-17T10:05:27Z</time></trkpt><trkpt lat="46.011350854156966" lon="11.262921153221022"><ele>451.0</ele><time>2026-04-17T10:05:28Z</time></trkpt><trkpt lat="46.01149532543473" lon="11.262852155263452"><ele>452.33333333333337</ele><time>2026-04-17T10:05:29Z</time></trkpt><trkpt lat="46.0116690780414" lon="11.262769173332643"><ele>453.66666666666663</ele><time>2026-04-17T10:05:30Z</time></trkpt><trkpt lat="46.011835523357654" lon="11.262656931488394"><ele>455.0</ele><time>2026-04-17T10:05:31Z</time></trkpt><trkpt lat="46.011984478175165" lon="11.262539764076257"><ele>455.0</ele><time>2026-04-17T10:05:32Z</time></trkpt><trkpt lat="46.01217130340962" lon="11.26239130128724"><ele>455.0</ele><time>2026-04-17T10:05:33Z</time></trkpt><trkpt lat="46.01236429739958" lon="11.262195107602745"><ele>454.5</ele><time>2026-04-17T10:05:34Z</time></trkpt><trkpt lat="46.01253205637949" lon="11.261984052491579"><ele>454.0</ele><time>2026-04-17T10:05:35Z</time></trkpt><trkpt lat="46.012720142923484" lon="11.261800555115641"><ele>454.0</ele><time>2026-04-17T10:05:36Z</time></trkpt><trkpt lat="46.01289341610517" lon="11.26162052964547"><ele>454.0</ele><time>2026-04-17T10:05:37Z</time></trkpt><trkpt lat="46.01304740019474" lon="11.261455391114874"><ele>454.0</ele><time>2026-04-17T10:05:38Z</time></trkpt><trkpt lat="46.01318680071031" lon="11.261298977092837"><ele>453.0</ele><time>2026-04-17T10:05:39Z</time></trkpt><trkpt lat="46.01332207089055" lon="11.261147955553191"><ele>452.0</ele><time>2026-04-17T10:05:40Z</time></trkpt><trkpt lat="46.01346440873496" lon="11.260985099885522"><ele>451.0</ele><time>2026-04-17T10:05:41Z</time></trkpt><trkpt lat="46.01363511743125" lon="11.26082051272317"><ele>450.33333333333337</ele><time>2026-04-17T10:05:42Z</time></trkpt><trkpt lat="46.01379704320409" lon="11.260645152832488"><ele>449.66666666666663</ele><time>2026-04-17T10:05:43Z</time></trkpt><trkpt lat="46.0139484678648" lon="11.260462591845604"><ele>449.0</ele><time>2026-04-17T10:05:44Z</time></trkpt><trkpt lat="46.014093233206665" lon="11.26030562408422"><ele>451.0</ele><time>2026-04-17T10:05:45Z</time></trkpt><trkpt lat="46.014230232901475" lon="11.260154116313489"><ele>453.0</ele><time>2026-04-17T10:05:46Z</time></trkpt><trkpt lat="46.014354874083686" lon="11.2600178884562"><ele>455.0</ele><time>2026-04-17T10:05:47Z</time></trkpt><trkpt lat="46.01449423871411" lon="11.259892019674021"><ele>456.66666666666663</ele><time>2026-04-17T10:05:48Z</time></trkpt><trkpt lat="46.01466007515273" lon="11.25971414988732"><ele>458.33333333333337</ele><time>2026-04-17T10:05:49Z</time></trkpt><trkpt lat="46.014852359623056" lon="11.259508517937748"><ele>460.0</ele><time>2026-04-17T10:05:50Z</time></trkpt><trkpt lat="46.01506411827619" lon="11.259280655815399"><ele>460.0</ele><time>2026-04-17T10:05:51Z</time></trkpt><trkpt lat="46.015252853298364" lon="11.259077568149147"><ele>460.0</ele><time>2026-04-17T10:05:52Z</time></trkpt><trkpt lat="46.015418640130406" lon="11.258899174093715"><ele>460.0</ele><time>2026-04-17T10:05:53Z</time></trkpt><trkpt lat="46.01557049081589" lon="11.258735575717298"><ele>460.33333333333337</ele><time>2026-04-17T10:05:54Z</time></trkpt><trkpt lat="46.01570273080243" lon="11.258563746246201"><ele>460.66666666666663</ele><time>2026-04-17T10:05:55Z</time></trkpt><trkpt lat="46.01583850318448" lon="11.258419174777595"><ele>461.0</ele><time>2026-04-17T10:05:56Z</time></trkpt><trkpt lat="46.01596943885658" lon="11.258275886792491"><ele>461.0</ele><time>2026-04-17T10:05:57Z</time></trkpt><trkpt lat="46.01610442068337" lon="11.25813166228432"><ele>461.0</ele><time>2026-04-17T10:05:58Z</time></trkpt><trkpt lat="46.01623235578269" lon="11.25799599167697"><ele>461.0</ele><time>2026-04-17T10:05:59Z</time></trkpt><trkpt lat="46.01636023292401" lon="11.257859865805566"><ele>461.3333333333333</ele><time>2026-04-17T10:06:00Z</time></trkpt><trkpt lat="46.01649339865203" lon="11.257751408216109"><ele>461.66666666666663</ele><time>2026-04-17T10:06:01Z</time></trkpt><trkpt lat="46.016614301231556" lon="11.257639438354627"><ele>462.0</ele><time>2026-04-17T10:06:02Z</time></trkpt><trkpt lat="46.016747469758265" lon="11.257529512849704"><ele>462.0</ele><time>2026-04-17T10:06:03Z</time></trkpt><trkpt lat="46.01687989197868" lon="11.257406971274966"><ele>462.0</ele><time>2026-04-17T10:06:04Z</time></trkpt><trkpt lat="46.01701837061548" lon="11.25732043868136"><ele>462.0</ele><time>2026-04-17T10:06:05Z</time></trkpt><trkpt lat="46.017149033029376" lon="11.257241986304605"><ele>461.25</ele><time>2026-04-17T10:06:06Z</time></trkpt><trkpt lat="46.01728073042976" lon="11.25718960696187"><ele>460.5</ele><time>2026-04-17T10:06:07Z</time></trkpt><trkpt lat="46.017410051504115" lon="11.257089980722883"><ele>459.75</ele><time>2026-04-17T10:06:08Z</time></trkpt><trkpt lat="46.01754691027927" lon="11.257013130770098"><ele>459.0</ele><time>2026-04-17T10:06:09Z</time></trkpt><trkpt lat="46.01767642188788" lon="11.25691507650736"><ele>459.0</ele><time>2026-04-17T10:06:10Z</time></trkpt><trkpt lat="46.017801790454016" lon="11.256824353433199"><ele>459.0</ele><time>2026-04-17T10:06:11Z</time></trkpt><trkpt lat="46.01790677980039" lon="11.256703731500357"><ele>459.0</ele><time>2026-04-17T10:06:12Z</time></trkpt><trkpt lat="46.01800696778428" lon="11.256568487462118"><ele>459.0</ele><time>2026-04-17T10:06:13Z</time></trkpt><trkpt lat="46.01810416530485" lon="11.256417114208793"><ele>455.75</ele><time>2026-04-17T10:06:14Z</time></trkpt><trkpt lat="46.01817609229782" lon="11.256234967275711"><ele>452.5</ele><time>2026-04-17T10:06:15Z</time></trkpt><trkpt lat="46.01825815453327" lon="11.256059661641276"><ele>449.25</ele><time>2026-04-17T10:06:16Z</time></trkpt><trkpt lat="46.0183448823355" lon="11.255878454996731"><ele>446.0</ele><time>2026-04-17T10:06:17Z</time></trkpt><trkpt lat="46.01843989028619" lon="11.255723799390445"><ele>451.0</ele><time>2026-04-17T10:06:18Z</time></trkpt><trkpt lat="46.018504998823424" lon="11.255549213292335"><ele>456.0</ele><time>2026-04-17T10:06:19Z</time></trkpt><trkpt lat="46.01859635260948" lon="11.255401330388493"><ele>461.0</ele><time>2026-04-17T10:06:20Z</time></trkpt><trkpt lat="46.01867435299151" lon="11.255240571997888"><ele>466.0</ele><time>2026-04-17T10:06:21.015Z</time></trkpt><trkpt lat="46.01874878395511" lon="11.255086515051774"><ele>466.0</ele><time>2026-04-17T10:06:22.019Z</time></trkpt><trkpt lat="46.01882644411186" lon="11.25492310966891"><ele>466.0</ele><time>2026-04-17T10:06:23.024Z</time></trkpt><trkpt lat="46.01890770956285" lon="11.254752118428403"><ele>466.0</ele><time>2026-04-17T10:06:24.019Z</time></trkpt><trkpt lat="46.01898755594956" lon="11.25458632768451"><ele>466.0</ele><time>2026-04-17T10:06:25.019Z</time></trkpt><trkpt lat="46.01987311936067" lon="11.252704009726324"><ele>460.0</ele><time>2026-04-17T10:06:38.93Z</time></trkpt><trkpt lat="46.01992441291769" lon="11.252614996692317"><ele>454.0</ele><time>2026-04-17T10:06:40.023Z</time></trkpt><trkpt lat="46.02029721059038" lon="11.25164574281041"><ele>454.0</ele><time>2026-04-17T10:06:41Z</time></trkpt><trkpt lat="46.020472828661475" lon="11.2515228058242"><ele>454.0</ele><time>2026-04-17T10:06:42Z</time></trkpt><trkpt lat="46.02056690233358" lon="11.2513521657826"><ele>454.0</ele><time>2026-04-17T10:06:43Z</time></trkpt><trkpt lat="46.020665241736275" lon="11.25118532944018"><ele>452.6666666666667</ele><time>2026-04-17T10:06:44Z</time></trkpt><trkpt lat="46.020779466610115" lon="11.25100015244312"><ele>451.33333333333337</ele><time>2026-04-17T10:06:45Z</time></trkpt><trkpt lat="46.02091356939664" lon="11.250790705869173"><ele>450.0</ele><time>2026-04-17T10:06:46Z</time></trkpt><trkpt lat="46.02105354211654" lon="11.250585593712934"><ele>450.0</ele><time>2026-04-17T10:06:47Z</time></trkpt><trkpt lat="46.02118946439802" lon="11.250390935334217"><ele>450.0</ele><time>2026-04-17T10:06:48Z</time></trkpt><trkpt lat="46.02132091591531" lon="11.250206345020377"><ele>450.0</ele><time>2026-04-17T10:06:49Z</time></trkpt><trkpt lat="46.02143661229331" lon="11.2500208614818"><ele>450.0</ele><time>2026-04-17T10:06:50Z</time></trkpt><trkpt lat="46.02157484809528" lon="11.249875803699416"><ele>450.0</ele><time>2026-04-17T10:06:51Z</time></trkpt><trkpt lat="46.02170241524794" lon="11.249716326451239"><ele>450.0</ele><time>2026-04-17T10:06:52Z</time></trkpt><trkpt lat="46.02181389366345" lon="11.249555112231189"><ele>450.66666666666663</ele><time>2026-04-17T10:06:53Z</time></trkpt><trkpt lat="46.02194041907431" lon="11.249406417602588"><ele>451.3333333333333</ele><time>2026-04-17T10:06:54Z</time></trkpt><trkpt lat="46.022103765108525" lon="11.249237395789638"><ele>452.0</ele><time>2026-04-17T10:06:55Z</time></trkpt><trkpt lat="46.02227153691758" lon="11.249039028283907"><ele>453.3333333333333</ele><time>2026-04-17T10:06:56Z</time></trkpt><trkpt lat="46.02243910901188" lon="11.248840979037803"><ele>454.66666666666663</ele><time>2026-04-17T10:06:57Z</time></trkpt><trkpt lat="46.022603608817626" lon="11.248622906451686"><ele>456.0</ele><time>2026-04-17T10:06:58Z</time></trkpt><trkpt lat="46.022773303589574" lon="11.248426747170974"><ele>456.0</ele><time>2026-04-17T10:06:59Z</time></trkpt><trkpt lat="46.02292853998992" lon="11.248245019956899"><ele>456.0</ele><time>2026-04-17T10:07:00Z</time></trkpt><trkpt lat="46.023083736886356" lon="11.248047806829101"><ele>456.0</ele><time>2026-04-17T10:07:01Z</time></trkpt><trkpt lat="46.02327058723969" lon="11.247853998942375"><ele>458.0</ele><time>2026-04-17T10:07:02Z</time></trkpt><trkpt lat="46.02344530893677" lon="11.247642252561194"><ele>460.0</ele><time>2026-04-17T10:07:03Z</time></trkpt><trkpt lat="46.02361825631792" lon="11.247428780286107"><ele>454.0</ele><time>2026-04-17T10:07:04Z</time></trkpt><trkpt lat="46.023799811420176" lon="11.247176015337715"><ele>448.0</ele><time>2026-04-17T10:07:05Z</time></trkpt><trkpt lat="46.02395707648103" lon="11.246920658100036"><ele>448.0</ele><time>2026-04-17T10:07:06Z</time></trkpt><trkpt lat="46.024097086738394" lon="11.246692781338494"><ele>448.0</ele><time>2026-04-17T10:07:07Z</time></trkpt><trkpt lat="46.024217431034195" lon="11.246471470242946"><ele>448.0</ele><time>2026-04-17T10:07:08Z</time></trkpt><trkpt lat="46.024335438600545" lon="11.246283515998265"><ele>449.25</ele><time>2026-04-17T10:07:09Z</time></trkpt><trkpt lat="46.02444664274631" lon="11.246126373877326"><ele>450.5</ele><time>2026-04-17T10:07:10Z</time></trkpt><trkpt lat="46.02456421390116" lon="11.246002112082111"><ele>451.75</ele><time>2026-04-17T10:07:11Z</time></trkpt><trkpt lat="46.02468753508849" lon="11.245909088041087"><ele>453.0</ele><time>2026-04-17T10:07:12Z</time></trkpt><trkpt lat="46.02480709971765" lon="11.245838415133548"><ele>453.0</ele><time>2026-04-17T10:07:13Z</time></trkpt><trkpt lat="46.02492038196739" lon="11.245785731784324"><ele>452.99999999999994</ele><time>2026-04-17T10:07:14Z</time></trkpt><trkpt lat="46.02502877554667" lon="11.245746205184515"><ele>452.99999999999994</ele><time>2026-04-17T10:07:15Z</time></trkpt><trkpt lat="46.02513244112543" lon="11.24571911445895"><ele>453.0</ele><time>2026-04-17T10:07:16Z</time></trkpt><trkpt lat="46.025242531265114" lon="11.245709517103442"><ele>453.0</ele><time>2026-04-17T10:07:17Z</time></trkpt><trkpt lat="46.02535651546026" lon="11.24570698242723"><ele>456.75</ele><time>2026-04-17T10:07:18Z</time></trkpt><trkpt lat="46.02547726052247" lon="11.245722023218217"><ele>460.5</ele><time>2026-04-17T10:07:19Z</time></trkpt><trkpt lat="46.0256135148334" lon="11.24573731094225"><ele>464.25</ele><time>2026-04-17T10:07:20Z</time></trkpt><trkpt lat="46.02578008626953" lon="11.245757619594155"><ele>468.0</ele><time>2026-04-17T10:07:21.022Z</time></trkpt><trkpt lat="46.02592463673339" lon="11.245786231872572"><ele>473.25</ele><time>2026-04-17T10:07:22.021Z</time></trkpt><trkpt lat="46.02607123523379" lon="11.245810156290855"><ele>478.5</ele><time>2026-04-17T10:07:23.019Z</time></trkpt><trkpt lat="46.02622126664034" lon="11.245833672554056"><ele>483.75</ele><time>2026-04-17T10:07:24.021Z</time></trkpt><trkpt lat="46.02636619993004" lon="11.245865136726069"><ele>489.0</ele><time>2026-04-17T10:07:25.018Z</time></trkpt><trkpt lat="46.02652542648541" lon="11.245890394755474"><ele>487.5</ele><time>2026-04-17T10:07:26.021Z</time></trkpt><trkpt lat="46.02668655375233" lon="11.245915921021941"><ele>486.0</ele><time>2026-04-17T10:07:27.017Z</time></trkpt><trkpt lat="46.028143186165046" lon="11.246005520235045"><ele>480.66666666666663</ele><time>2026-04-17T10:07:36Z</time></trkpt><trkpt lat="46.02830225274214" lon="11.246022365132577"><ele>475.3333333333333</ele><time>2026-04-17T10:07:37Z</time></trkpt><trkpt lat="46.02849608866242" lon="11.246059060754732"><ele>470.0</ele><time>2026-04-17T10:07:38Z</time></trkpt><trkpt lat="46.028657427302434" lon="11.24607396625514"><ele>465.66666666666663</ele><time>2026-04-17T10:07:39Z</time></trkpt><trkpt lat="46.028811111723506" lon="11.246075869549792"><ele>461.33333333333337</ele><time>2026-04-17T10:07:40Z</time></trkpt><trkpt lat="46.028969465951874" lon="11.246089083687904"><ele>457.0</ele><time>2026-04-17T10:07:41Z</time></trkpt><trkpt lat="46.02912773781631" lon="11.246107433780322"><ele>457.25</ele><time>2026-04-17T10:07:42Z</time></trkpt><trkpt lat="46.02928432472361" lon="11.246115814399698"><ele>457.5</ele><time>2026-04-17T10:07:43Z</time></trkpt><trkpt lat="46.0294324766775" lon="11.246084505857219"><ele>457.75</ele><time>2026-04-17T10:07:44Z</time></trkpt><trkpt lat="46.02956454389863" lon="11.246041971365553"><ele>458.0</ele><time>2026-04-17T10:07:45Z</time></trkpt><trkpt lat="46.029711951393054" lon="11.24599362003939"><ele>458.0</ele><time>2026-04-17T10:07:46Z</time></trkpt><trkpt lat="46.02985349631735" lon="11.245929360868372"><ele>458.0</ele><time>2026-04-17T10:07:47Z</time></trkpt><trkpt lat="46.030021871231526" lon="11.245822801429265"><ele>458.0</ele><time>2026-04-17T10:07:48Z</time></trkpt><trkpt lat="46.03018179442576" lon="11.245710056239142"><ele>455.0</ele><time>2026-04-17T10:07:49Z</time></trkpt><trkpt lat="46.03037130624023" lon="11.245583260246"><ele>452.0</ele><time>2026-04-17T10:07:50Z</time></trkpt><trkpt lat="46.03054139720003" lon="11.24549561333696"><ele>449.0</ele><time>2026-04-17T10:07:51Z</time></trkpt><trkpt lat="46.03070119291172" lon="11.245406227365876"><ele>449.3333333333333</ele><time>2026-04-17T10:07:52Z</time></trkpt><trkpt lat="46.030850387892045" lon="11.24532874462356"><ele>449.66666666666663</ele><time>2026-04-17T10:07:53Z</time></trkpt><trkpt lat="46.030997856289694" lon="11.245275123354366"><ele>450.0</ele><time>2026-04-17T10:07:54Z</time></trkpt><trkpt lat="46.03114855815032" lon="11.245239729065796"><ele>450.0</ele><time>2026-04-17T10:07:55Z</time></trkpt><trkpt lat="46.031304817989486" lon="11.2452197403813"><ele>450.0</ele><time>2026-04-17T10:07:56Z</time></trkpt><trkpt lat="46.031452554175615" lon="11.245214909743678"><ele>450.0</ele><time>2026-04-17T10:07:57Z</time></trkpt><trkpt lat="46.0316031093812" lon="11.245216533176919"><ele>450.75</ele><time>2026-04-17T10:07:58Z</time></trkpt><trkpt lat="46.03175140018201" lon="11.245220460120697"><ele>451.5</ele><time>2026-04-17T10:07:59Z</time></trkpt><trkpt lat="46.03189178594735" lon="11.245223774840289"><ele>452.25</ele><time>2026-04-17T10:08:00Z</time></trkpt><trkpt lat="46.03203250362401" lon="11.245220411491346"><ele>453.0</ele><time>2026-04-17T10:08:01Z</time></trkpt><trkpt lat="46.032182664795236" lon="11.24521717499181"><ele>453.0</ele><time>2026-04-17T10:08:02Z</time></trkpt><trkpt lat="46.03232560338668" lon="11.245220126775347"><ele>453.0</ele><time>2026-04-17T10:08:03Z</time></trkpt><trkpt lat="46.032468395959924" lon="11.245219515609618"><ele>453.0</ele><time>2026-04-17T10:08:04Z</time></trkpt><trkpt lat="46.03260549642485" lon="11.245223121237004"><ele>453.0</ele><time>2026-04-17T10:08:05Z</time></trkpt><trkpt lat="46.032743319156666" lon="11.245223493619182"><ele>453.25</ele><time>2026-04-17T10:08:06Z</time></trkpt><trkpt lat="46.032886823664334" lon="11.245216163158236"><ele>453.5</ele><time>2026-04-17T10:08:07Z</time></trkpt><trkpt lat="46.033030266589144" lon="11.245196565523244"><ele>453.75</ele><time>2026-04-17T10:08:08Z</time></trkpt><trkpt lat="46.03317471650187" lon="11.245146216961116"><ele>454.0</ele><time>2026-04-17T10:08:09Z</time></trkpt><trkpt lat="46.03330949635428" lon="11.245087265323226"><ele>452.5</ele><time>2026-04-17T10:08:10Z</time></trkpt><trkpt lat="46.03343663161757" lon="11.245013091978594"><ele>451.0</ele><time>2026-04-17T10:08:11Z</time></trkpt><trkpt lat="46.03356076400473" lon="11.244923515837153"><ele>449.5</ele><time>2026-04-17T10:08:12Z</time></trkpt><trkpt lat="46.033683846954254" lon="11.244827750547602"><ele>448.0</ele><time>2026-04-17T10:08:13Z</time></trkpt><trkpt lat="46.03380794425528" lon="11.244723831011607"><ele>448.0</ele><time>2026-04-17T10:08:14Z</time></trkpt><trkpt lat="46.0339335002078" lon="11.244627296008327"><ele>448.0</ele><time>2026-04-17T10:08:15Z</time></trkpt><trkpt lat="46.03406225700961" lon="11.244533027797253"><ele>448.0</ele><time>2026-04-17T10:08:16Z</time></trkpt><trkpt lat="46.034196951505024" lon="11.244445869926716"><ele>448.0</ele><time>2026-04-17T10:08:17Z</time></trkpt><trkpt lat="46.034335659670326" lon="11.244363786041657"><ele>450.0</ele><time>2026-04-17T10:08:18Z</time></trkpt><trkpt lat="46.034475792323725" lon="11.24429643726693"><ele>452.0</ele><time>2026-04-17T10:08:19Z</time></trkpt><trkpt lat="46.034616019317426" lon="11.244237621607184"><ele>454.0</ele><time>2026-04-17T10:08:20Z</time></trkpt><trkpt lat="46.03475675592661" lon="11.244196875026624"><ele>456.0</ele><time>2026-04-17T10:08:21Z</time></trkpt><trkpt lat="46.03489786928833" lon="11.244165668208986"><ele>457.0</ele><time>2026-04-17T10:08:22Z</time></trkpt><trkpt lat="46.03503996772857" lon="11.244152181469845"><ele>458.0</ele><time>2026-04-17T10:08:23Z</time></trkpt><trkpt lat="46.03518401541194" lon="11.244158529533125"><ele>459.0</ele><time>2026-04-17T10:08:24Z</time></trkpt><trkpt lat="46.03532950895092" lon="11.244189821727945"><ele>460.0</ele><time>2026-04-17T10:08:25Z</time></trkpt><trkpt lat="46.03547515977633" lon="11.244243866321254"><ele>460.0</ele><time>2026-04-17T10:08:26Z</time></trkpt><trkpt lat="46.03561503580419" lon="11.244299181448755"><ele>460.0</ele><time>2026-04-17T10:08:27Z</time></trkpt><trkpt lat="46.035750750083714" lon="11.244344945594525"><ele>460.0</ele><time>2026-04-17T10:08:28Z</time></trkpt><trkpt lat="46.035893354319306" lon="11.244373618158154"><ele>460.0</ele><time>2026-04-17T10:08:29Z</time></trkpt><trkpt lat="46.036032928294716" lon="11.244369789410147"><ele>459.25</ele><time>2026-04-17T10:08:30Z</time></trkpt><trkpt lat="46.03616532723935" lon="11.244356316567188"><ele>458.5</ele><time>2026-04-17T10:08:31Z</time></trkpt><trkpt lat="46.036295621451934" lon="11.244322494388692"><ele>457.75</ele><time>2026-04-17T10:08:32Z</time></trkpt><trkpt lat="46.036428522158324" lon="11.24427298175552"><ele>457.0</ele><time>2026-04-17T10:08:33Z</time></trkpt><trkpt lat="46.03656164108419" lon="11.244199440907742"><ele>458.5</ele><time>2026-04-17T10:08:34Z</time></trkpt><trkpt lat="46.03668686142255" lon="11.24410775418469"><ele>460.0</ele><time>2026-04-17T10:08:35Z</time></trkpt><trkpt lat="46.03679644466498" lon="11.244017788408197"><ele>461.5</ele><time>2026-04-17T10:08:36Z</time></trkpt><trkpt lat="46.036901352218955" lon="11.243936625142169"><ele>463.0</ele><time>2026-04-17T10:08:37Z</time></trkpt><trkpt lat="46.037003917992415" lon="11.243862281686795"><ele>460.5</ele><time>2026-04-17T10:08:38Z</time></trkpt><trkpt lat="46.037114153721106" lon="11.243781288320507"><ele>458.0</ele><time>2026-04-17T10:08:39Z</time></trkpt><trkpt lat="46.037252098940954" lon="11.243694696464736"><ele>455.5</ele><time>2026-04-17T10:08:40Z</time></trkpt><trkpt lat="46.03739656699763" lon="11.243626869464329"><ele>453.0</ele><time>2026-04-17T10:08:41Z</time></trkpt><trkpt lat="46.03752425018802" lon="11.24357663235375"><ele>453.0</ele><time>2026-04-17T10:08:42Z</time></trkpt><trkpt lat="46.03764897175853" lon="11.243534054040975"><ele>453.0</ele><time>2026-04-17T10:08:43Z</time></trkpt><trkpt lat="46.03777800138093" lon="11.243503358722695"><ele>453.0</ele><time>2026-04-17T10:08:44Z</time></trkpt><trkpt lat="46.03791175650012" lon="11.24348559107853"><ele>453.0</ele><time>2026-04-17T10:08:45Z</time></trkpt><trkpt lat="46.03804758805242" lon="11.243464246006441"><ele>453.0</ele><time>2026-04-17T10:08:46Z</time></trkpt><trkpt lat="46.0381802147813" lon="11.24344171518982"><ele>453.0</ele><time>2026-04-17T10:08:47Z</time></trkpt><trkpt lat="46.038307174369784" lon="11.243419461728527"><ele>453.0</ele><time>2026-04-17T10:08:48Z</time></trkpt><trkpt lat="46.03843394566301" lon="11.24338560078383"><ele>453.0</ele><time>2026-04-17T10:08:49Z</time></trkpt><trkpt lat="46.03856718065439" lon="11.243326812950267"><ele>452.0</ele><time>2026-04-17T10:08:50Z</time></trkpt><trkpt lat="46.03869554350473" lon="11.243252785256654"><ele>451.0</ele><time>2026-04-17T10:08:51Z</time></trkpt><trkpt lat="46.03881156336946" lon="11.243163227580848"><ele>450.0</ele><time>2026-04-17T10:08:52Z</time></trkpt><trkpt lat="46.03891918413883" lon="11.243062690858821"><ele>449.0</ele><time>2026-04-17T10:08:53Z</time></trkpt><trkpt lat="46.03902342440261" lon="11.242941062354559"><ele>449.0</ele><time>2026-04-17T10:08:54Z</time></trkpt><trkpt lat="46.03911781673146" lon="11.242798088386708"><ele>449.0</ele><time>2026-04-17T10:08:55Z</time></trkpt><trkpt lat="46.0392023512556" lon="11.242656403569207"><ele>449.0</ele><time>2026-04-17T10:08:56Z</time></trkpt><trkpt lat="46.03927842914183" lon="11.242509837328999"><ele>449.0</ele><time>2026-04-17T10:08:57Z</time></trkpt><trkpt lat="46.039343550631465" lon="11.242360940700012"><ele>450.25</ele><time>2026-04-17T10:08:58Z</time></trkpt><trkpt lat="46.03940002361822" lon="11.242184366585555"><ele>451.5</ele><time>2026-04-17T10:08:59Z</time></trkpt><trkpt lat="46.03945110202235" lon="11.242000290334225"><ele>452.75</ele><time>2026-04-17T10:09:00Z</time></trkpt><trkpt lat="46.039485725231295" lon="11.24182733724122"><ele>454.0</ele><time>2026-04-17T10:09:01Z</time></trkpt><trkpt lat="46.03952470428694" lon="11.241649273655613"><ele>453.33333333333337</ele><time>2026-04-17T10:09:02Z</time></trkpt><trkpt lat="46.03957071512198" lon="11.241453241334725"><ele>452.66666666666663</ele><time>2026-04-17T10:09:03Z</time></trkpt><trkpt lat="46.03961729192435" lon="11.241235703065232"><ele>452.0</ele><time>2026-04-17T10:09:04Z</time></trkpt><trkpt lat="46.03966532340506" lon="11.241028437419802"><ele>452.0</ele><time>2026-04-17T10:09:05Z</time></trkpt><trkpt lat="46.039725484831266" lon="11.240844883998609"><ele>452.0</ele><time>2026-04-17T10:09:06Z</time></trkpt><trkpt lat="46.03977042420893" lon="11.24066899364379"><ele>452.0</ele><time>2026-04-17T10:09:07Z</time></trkpt><trkpt lat="46.03981121788481" lon="11.24048833304491"><ele>452.0</ele><time>2026-04-17T10:09:08Z</time></trkpt><trkpt lat="46.0398585292089" lon="11.240302367012282"><ele>452.0</ele><time>2026-04-17T10:09:09Z</time></trkpt><trkpt lat="46.03990887600876" lon="11.240114919319858"><ele>452.0</ele><time>2026-04-17T10:09:10Z</time></trkpt><trkpt lat="46.03995515975013" lon="11.23993540956907"><ele>452.0</ele><time>2026-04-17T10:09:11Z</time></trkpt><trkpt lat="46.040000627686936" lon="11.239758933349751"><ele>452.0</ele><time>2026-04-17T10:09:12Z</time></trkpt><trkpt lat="46.04005012901915" lon="11.239583986736285"><ele>452.0</ele><time>2026-04-17T10:09:13Z</time></trkpt><trkpt lat="46.04010222822096" lon="11.239404941884803"><ele>452.0</ele><time>2026-04-17T10:09:14Z</time></trkpt><trkpt lat="46.04015177579615" lon="11.239212570724673"><ele>452.0</ele><time>2026-04-17T10:09:15Z</time></trkpt><trkpt lat="46.040201345690164" lon="11.239008477019718"><ele>452.0</ele><time>2026-04-17T10:09:15.999Z</time></trkpt><trkpt lat="46.04025086374435" lon="11.238801156252277"><ele>452.25</ele><time>2026-04-17T10:09:16.999Z</time></trkpt><trkpt lat="46.040305467161126" lon="11.238594042975391"><ele>452.5</ele><time>2026-04-17T10:09:17.999Z</time></trkpt><trkpt lat="46.04035532783346" lon="11.238402968381044"><ele>452.75</ele><time>2026-04-17T10:09:18.999Z</time></trkpt><trkpt lat="46.0404031606082" lon="11.238223706199385"><ele>453.0</ele><time>2026-04-17T10:09:19.999Z</time></trkpt><trkpt lat="46.04045254367621" lon="11.238043981729268"><ele>453.0</ele><time>2026-04-17T10:09:20.999Z</time></trkpt><trkpt lat="46.040508095246096" lon="11.237859588402292"><ele>453.0</ele><time>2026-04-17T10:09:21.999Z</time></trkpt><trkpt lat="46.04057325952216" lon="11.237673342195935"><ele>453.0</ele><time>2026-04-17T10:09:22.999Z</time></trkpt><trkpt lat="46.0406472456685" lon="11.237486755893295"><ele>453.0</ele><time>2026-04-17T10:09:23.999Z</time></trkpt><trkpt lat="46.040726119395025" lon="11.237310422426194"><ele>453.0</ele><time>2026-04-17T10:09:24.999Z</time></trkpt><trkpt lat="46.04081268545891" lon="11.237143176090292"><ele>453.0</ele><time>2026-04-17T10:09:25.999Z</time></trkpt><trkpt lat="46.0409039632863" lon="11.236987210801173"><ele>453.0</ele><time>2026-04-17T10:09:26.999Z</time></trkpt><trkpt lat="46.04099758398347" lon="11.236837783676677"><ele>453.0</ele><time>2026-04-17T10:09:27.999Z</time></trkpt><trkpt lat="46.04109544599361" lon="11.236689163943229"><ele>453.0</ele><time>2026-04-17T10:09:28.999Z</time></trkpt><trkpt lat="46.041213951969894" lon="11.236537552466064"><ele>453.0</ele><time>2026-04-17T10:09:29.999Z</time></trkpt><trkpt lat="46.04133607157657" lon="11.236401955899922"><ele>453.0</ele><time>2026-04-17T10:09:30.999Z</time></trkpt><trkpt lat="46.04145499070051" lon="11.236281906530293"><ele>453.0</ele><time>2026-04-17T10:09:31.999Z</time></trkpt><trkpt lat="46.04157270244058" lon="11.23617610370693"><ele>453.0</ele><time>2026-04-17T10:09:33Z</time></trkpt><trkpt lat="46.04169749354861" lon="11.236081127535446"><ele>453.0</ele><time>2026-04-17T10:09:34Z</time></trkpt><trkpt lat="46.04183383412167" lon="11.235989922232191"><ele>453.0</ele><time>2026-04-17T10:09:35Z</time></trkpt><trkpt lat="46.04198097088779" lon="11.235905081111836"><ele>453.0</ele><time>2026-04-17T10:09:36Z</time></trkpt><trkpt lat="46.042132771407765" lon="11.235826899034139"><ele>453.0</ele><time>2026-04-17T10:09:37Z</time></trkpt><trkpt lat="46.042276957662025" lon="11.235763805419134"><ele>453.0</ele><time>2026-04-17T10:09:38Z</time></trkpt><trkpt lat="46.04243288790118" lon="11.23571007570569"><ele>452.66666666666663</ele><time>2026-04-17T10:09:39Z</time></trkpt><trkpt lat="46.042597960186576" lon="11.235671922403569"><ele>452.3333333333333</ele><time>2026-04-17T10:09:40Z</time></trkpt><trkpt lat="46.04275608124685" lon="11.235647302314003"><ele>452.0</ele><time>2026-04-17T10:09:41Z</time></trkpt><trkpt lat="46.0429071114014" lon="11.235632272161958"><ele>452.0</ele><time>2026-04-17T10:09:42Z</time></trkpt><trkpt lat="46.043059202688255" lon="11.235622243514532"><ele>452.0</ele><time>2026-04-17T10:09:43Z</time></trkpt><trkpt lat="46.04321843709326" lon="11.235607837298955"><ele>452.0</ele><time>2026-04-17T10:09:44Z</time></trkpt><trkpt lat="46.04339000055366" lon="11.235588298383755"><ele>452.0</ele><time>2026-04-17T10:09:45Z</time></trkpt><trkpt lat="46.043558448590424" lon="11.235572200463368"><ele>452.0</ele><time>2026-04-17T10:09:46Z</time></trkpt><trkpt lat="46.04372215870045" lon="11.235555710566572"><ele>452.0</ele><time>2026-04-17T10:09:47Z</time></trkpt><trkpt lat="46.043884638629265" lon="11.23554172197213"><ele>452.0</ele><time>2026-04-17T10:09:48Z</time></trkpt><trkpt lat="46.04405953526349" lon="11.235530120630845"><ele>452.0</ele><time>2026-04-17T10:09:49Z</time></trkpt><trkpt lat="46.04427566458049" lon="11.235506802577495"><ele>452.0</ele><time>2026-04-17T10:09:50Z</time></trkpt><trkpt lat="46.0445178637556" lon="11.235475601510183"><ele>452.5</ele><time>2026-04-17T10:09:51Z</time></trkpt><trkpt lat="46.04477661178156" lon="11.235450879780583"><ele>453.0</ele><time>2026-04-17T10:09:52Z</time></trkpt><trkpt lat="46.045048203927294" lon="11.235433805961941"><ele>453.5</ele><time>2026-04-17T10:09:53Z</time></trkpt><trkpt lat="46.04531455517218" lon="11.235430919565285"><ele>454.0</ele><time>2026-04-17T10:09:54Z</time></trkpt><trkpt lat="46.04555543071694" lon="11.235425504795973"><ele>454.0</ele><time>2026-04-17T10:09:55Z</time></trkpt><trkpt lat="46.045782678078325" lon="11.23541604008187"><ele>454.0</ele><time>2026-04-17T10:09:56Z</time></trkpt><trkpt lat="46.04599821195375" lon="11.235401520046494"><ele>454.0</ele><time>2026-04-17T10:09:57Z</time></trkpt><trkpt lat="46.04620438404382" lon="11.235382725411043"><ele>454.0</ele><time>2026-04-17T10:09:58Z</time></trkpt><trkpt lat="46.046389959564536" lon="11.235360451736456"><ele>454.0</ele><time>2026-04-17T10:09:59Z</time></trkpt><trkpt lat="46.04655615500364" lon="11.235345364730236"><ele>454.0</ele><time>2026-04-17T10:10:00Z</time></trkpt><trkpt lat="46.04673511376264" lon="11.23532990467202"><ele>454.0</ele><time>2026-04-17T10:10:01Z</time></trkpt><trkpt lat="46.04691726099732" lon="11.235316468156238"><ele>454.0</ele><time>2026-04-17T10:10:02Z</time></trkpt><trkpt lat="46.04710780759348" lon="11.235304724540129"><ele>454.0</ele><time>2026-04-17T10:10:03Z</time></trkpt><trkpt lat="46.04730531373722" lon="11.235291962093365"><ele>454.33333333333337</ele><time>2026-04-17T10:10:04Z</time></trkpt><trkpt lat="46.04749564743178" lon="11.235276840084529"><ele>454.66666666666663</ele><time>2026-04-17T10:10:05Z</time></trkpt><trkpt lat="46.047683349300804" lon="11.235256393107802"><ele>455.0</ele><time>2026-04-17T10:10:06Z</time></trkpt><trkpt lat="46.047902463270056" lon="11.235233979807942"><ele>455.0</ele><time>2026-04-17T10:10:07Z</time></trkpt><trkpt lat="46.04813685923901" lon="11.235218324903103"><ele>455.0</ele><time>2026-04-17T10:10:08Z</time></trkpt><trkpt lat="46.048363307216746" lon="11.235211556917235"><ele>455.66666666666663</ele><time>2026-04-17T10:10:09Z</time></trkpt><trkpt lat="46.04857899386302" lon="11.235199639829887"><ele>456.33333333333337</ele><time>2026-04-17T10:10:10Z</time></trkpt><trkpt lat="46.04880462725768" lon="11.235172830010006"><ele>457.0</ele><time>2026-04-17T10:10:11Z</time></trkpt><trkpt lat="46.04904941494478" lon="11.235127221443461"><ele>456.0</ele><time>2026-04-17T10:10:12Z</time></trkpt><trkpt lat="46.049309442364745" lon="11.235071637608979"><ele>455.0</ele><time>2026-04-17T10:10:13Z</time></trkpt><trkpt lat="46.04958095724147" lon="11.23500320718172"><ele>455.0</ele><time>2026-04-17T10:10:14Z</time></trkpt><trkpt lat="46.049832510219034" lon="11.234936874150748"><ele>455.0</ele><time>2026-04-17T10:10:15Z</time></trkpt><trkpt lat="46.050060239213266" lon="11.234877275600955"><ele>456.0</ele><time>2026-04-17T10:10:16Z</time></trkpt><trkpt lat="46.05029960946735" lon="11.234810521312253"><ele>457.0</ele><time>2026-04-17T10:10:17Z</time></trkpt><trkpt lat="46.05055622836817" lon="11.23473459305273"><ele>458.0</ele><time>2026-04-17T10:10:18Z</time></trkpt><trkpt lat="46.05082258029275" lon="11.234650776581478"><ele>459.0</ele><time>2026-04-17T10:10:19Z</time></trkpt><trkpt lat="46.051091636413425" lon="11.23456051007017"><ele>459.0</ele><time>2026-04-17T10:10:20Z</time></trkpt><trkpt lat="46.05136423510216" lon="11.234457814090712"><ele>459.0</ele><time>2026-04-17T10:10:21Z</time></trkpt><trkpt lat="46.05164171488288" lon="11.234343124934178"><ele>460.0</ele><time>2026-04-17T10:10:22Z</time></trkpt><trkpt lat="46.05192504151149" lon="11.234214066186958"><ele>461.0</ele><time>2026-04-17T10:10:23Z</time></trkpt><trkpt lat="46.05221930954744" lon="11.234078414671055"><ele>462.0</ele><time>2026-04-17T10:10:24Z</time></trkpt><trkpt lat="46.05252142944753" lon="11.233942275859727"><ele>463.0</ele><time>2026-04-17T10:10:25Z</time></trkpt><trkpt lat="46.05283255644999" lon="11.233801602626325"><ele>463.0</ele><time>2026-04-17T10:10:26Z</time></trkpt><trkpt lat="46.05315023491323" lon="11.23365582677542"><ele>463.0</ele><time>2026-04-17T10:10:27Z</time></trkpt><trkpt lat="46.05347437649565" lon="11.233506942590061"><ele>462.0</ele><time>2026-04-17T10:10:28Z</time></trkpt><trkpt lat="46.05380778690437" lon="11.233360164080482"><ele>461.0</ele><time>2026-04-17T10:10:29Z</time></trkpt><trkpt lat="46.054141083179154" lon="11.233212088289978"><ele>461.5</ele><time>2026-04-17T10:10:30Z</time></trkpt><trkpt lat="46.0544596926023" lon="11.233069603552655"><ele>462.0</ele><time>2026-04-17T10:10:31Z</time></trkpt><trkpt lat="46.054749657566525" lon="11.232937446451775"><ele>462.5</ele><time>2026-04-17T10:10:32Z</time></trkpt><trkpt lat="46.055025124503025" lon="11.232819827046661"><ele>463.0</ele><time>2026-04-17T10:10:33Z</time></trkpt><trkpt lat="46.05530035240632" lon="11.232692236373012"><ele>463.0</ele><time>2026-04-17T10:10:34Z</time></trkpt><trkpt lat="46.055588803778676" lon="11.232559532674296"><ele>463.0</ele><time>2026-04-17T10:10:35Z</time></trkpt><trkpt lat="46.05588368422505" lon="11.232407568415994"><ele>462.5</ele><time>2026-04-17T10:10:36Z</time></trkpt><trkpt lat="46.05618151885331" lon="11.232232080706078"><ele>462.0</ele><time>2026-04-17T10:10:37Z</time></trkpt><trkpt lat="46.0564740428027" lon="11.232036129700344"><ele>462.5</ele><time>2026-04-17T10:10:38Z</time></trkpt><trkpt lat="46.056778842352955" lon="11.231819163606033"><ele>463.0</ele><time>2026-04-17T10:10:39Z</time></trkpt><trkpt lat="46.05708710364237" lon="11.231587113671598"><ele>463.0</ele><time>2026-04-17T10:10:40Z</time></trkpt><trkpt lat="46.05739834560322" lon="11.231360362679814"><ele>463.0</ele><time>2026-04-17T10:10:41Z</time></trkpt><trkpt lat="46.05768821318594" lon="11.231154470281197"><ele>463.5</ele><time>2026-04-17T10:10:42Z</time></trkpt><trkpt lat="46.05795811192388" lon="11.230962024474584"><ele>464.0</ele><time>2026-04-17T10:10:43Z</time></trkpt><trkpt lat="46.058231535070014" lon="11.230761388934251"><ele>464.0</ele><time>2026-04-17T10:10:44Z</time></trkpt><trkpt lat="46.05850742094568" lon="11.230559768422626"><ele>464.0</ele><time>2026-04-17T10:10:45Z</time></trkpt><trkpt lat="46.058784661756775" lon="11.230358163723041"><ele>464.0</ele><time>2026-04-17T10:10:46Z</time></trkpt><trkpt lat="46.05906443490739" lon="11.230153558014228"><ele>464.0</ele><time>2026-04-17T10:10:47Z</time></trkpt><trkpt lat="46.05934846618796" lon="11.229948343271206"><ele>464.0</ele><time>2026-04-17T10:10:48Z</time></trkpt><trkpt lat="46.05963548492055" lon="11.229738383902069"><ele>464.0</ele><time>2026-04-17T10:10:49Z</time></trkpt><trkpt lat="46.05992150882197" lon="11.229525817270776"><ele>464.0</ele><time>2026-04-17T10:10:50Z</time></trkpt><trkpt lat="46.06020670397358" lon="11.229316995141906"><ele>464.0</ele><time>2026-04-17T10:10:51Z</time></trkpt><trkpt lat="46.060488956558345" lon="11.229107486786619"><ele>463.0</ele><time>2026-04-17T10:10:52Z</time></trkpt><trkpt lat="46.06078299230673" lon="11.228891103594483"><ele>462.0</ele><time>2026-04-17T10:10:53Z</time></trkpt><trkpt lat="46.06107977925614" lon="11.228669920243087"><ele>462.0</ele><time>2026-04-17T10:10:54Z</time></trkpt><trkpt lat="46.061363903643695" lon="11.22846052246773"><ele>462.0</ele><time>2026-04-17T10:10:55Z</time></trkpt><trkpt lat="46.06161889186354" lon="11.228277095936361"><ele>460.5</ele><time>2026-04-17T10:10:56Z</time></trkpt><trkpt lat="46.06185584308338" lon="11.228105054628468"><ele>459.0</ele><time>2026-04-17T10:10:57Z</time></trkpt><trkpt lat="46.06207744862369" lon="11.227945027246966"><ele>459.0</ele><time>2026-04-17T10:10:58Z</time></trkpt><trkpt lat="46.06228794031532" lon="11.227788837620604"><ele>459.0</ele><time>2026-04-17T10:10:59Z</time></trkpt><trkpt lat="46.06248693779413" lon="11.227642145104639"><ele>459.33333333333337</ele><time>2026-04-17T10:11:00Z</time></trkpt><trkpt lat="46.06267551185202" lon="11.227500801616596"><ele>459.6666666666667</ele><time>2026-04-17T10:11:01Z</time></trkpt><trkpt lat="46.06285570239802" lon="11.227366935920221"><ele>460.0</ele><time>2026-04-17T10:11:02Z</time></trkpt><trkpt lat="46.06302740851638" lon="11.227238948644098"><ele>460.33333333333337</ele><time>2026-04-17T10:11:03Z</time></trkpt><trkpt lat="46.06319091506517" lon="11.227113457374598"><ele>460.66666666666663</ele><time>2026-04-17T10:11:04Z</time></trkpt><trkpt lat="46.06335506501942" lon="11.22697491654299"><ele>461.0</ele><time>2026-04-17T10:11:05Z</time></trkpt><trkpt lat="46.06352151424666" lon="11.226827288457388"><ele>461.0</ele><time>2026-04-17T10:11:06Z</time></trkpt><trkpt lat="46.063683023279935" lon="11.22668098094031"><ele>461.0</ele><time>2026-04-17T10:11:07Z</time></trkpt><trkpt lat="46.063831857525074" lon="11.226540218171367"><ele>461.0</ele><time>2026-04-17T10:11:08Z</time></trkpt><trkpt lat="46.063982708001234" lon="11.226391329579812"><ele>460.0</ele><time>2026-04-17T10:11:09Z</time></trkpt><trkpt lat="46.06413258737309" lon="11.226244714937616"><ele>459.0</ele><time>2026-04-17T10:11:10Z</time></trkpt><trkpt lat="46.06427335656187" lon="11.226094081482858"><ele>458.0</ele><time>2026-04-17T10:11:11Z</time></trkpt><trkpt lat="46.064411606459046" lon="11.225937913025293"><ele>458.0</ele><time>2026-04-17T10:11:12Z</time></trkpt><trkpt lat="46.064562519248106" lon="11.225756947216224"><ele>458.0</ele><time>2026-04-17T10:11:13Z</time></trkpt><trkpt lat="46.0647304186826" lon="11.225550767660598"><ele>458.0</ele><time>2026-04-17T10:11:14Z</time></trkpt><trkpt lat="46.06491228551766" lon="11.225320072258613"><ele>458.0</ele><time>2026-04-17T10:11:15Z</time></trkpt><trkpt lat="46.065107222406255" lon="11.225066206032391"><ele>458.0</ele><time>2026-04-17T10:11:16Z</time></trkpt><trkpt lat="46.065313673128784" lon="11.22479167470988"><ele>456.0</ele><time>2026-04-17T10:11:17Z</time></trkpt><trkpt lat="46.06553195213199" lon="11.224503331246655"><ele>454.0</ele><time>2026-04-17T10:11:18Z</time></trkpt><trkpt lat="46.06575335465856" lon="11.224212477532987"><ele>455.0</ele><time>2026-04-17T10:11:19Z</time></trkpt><trkpt lat="46.06598278779284" lon="11.22390494598488"><ele>456.0</ele><time>2026-04-17T10:11:20Z</time></trkpt><trkpt lat="46.0662211825468" lon="11.223589088796636"><ele>456.0</ele><time>2026-04-17T10:11:20.999Z</time></trkpt><trkpt lat="46.06646666455692" lon="11.223262555361893"><ele>456.0</ele><time>2026-04-17T10:11:21.999Z</time></trkpt><trkpt lat="46.06672070667498" lon="11.222924965021708"><ele>455.5</ele><time>2026-04-17T10:11:22.999Z</time></trkpt><trkpt lat="46.06695617622629" lon="11.222609767370148"><ele>455.0</ele><time>2026-04-17T10:11:23.999Z</time></trkpt><trkpt lat="46.067177358744985" lon="11.222313392341935"><ele>454.5</ele><time>2026-04-17T10:11:24.999Z</time></trkpt><trkpt lat="46.067407995475556" lon="11.222004457025246"><ele>454.0</ele><time>2026-04-17T10:11:25.999Z</time></trkpt><trkpt lat="46.067643148070864" lon="11.221689686763892"><ele>451.5</ele><time>2026-04-17T10:11:26.999Z</time></trkpt><trkpt lat="46.06788987532967" lon="11.221368608526546"><ele>449.0</ele><time>2026-04-17T10:11:27.999Z</time></trkpt><trkpt lat="46.068143735587746" lon="11.221040357598913"><ele>449.5</ele><time>2026-04-17T10:11:28.999Z</time></trkpt><trkpt lat="46.06839114090264" lon="11.220710331527014"><ele>450.0</ele><time>2026-04-17T10:11:29.999Z</time></trkpt><trkpt lat="46.06862092525892" lon="11.220414803802088"><ele>449.0</ele><time>2026-04-17T10:11:30.999Z</time></trkpt><trkpt lat="46.06883530480558" lon="11.220130991755171"><ele>448.0</ele><time>2026-04-17T10:11:31.999Z</time></trkpt><trkpt lat="46.06903171315791" lon="11.219866806997002"><ele>446.0</ele><time>2026-04-17T10:11:32.999Z</time></trkpt><trkpt lat="46.06921384362874" lon="11.219617724875752"><ele>444.0</ele><time>2026-04-17T10:11:33.999Z</time></trkpt><trkpt lat="46.069389253933956" lon="11.219379974417256"><ele>444.0</ele><time>2026-04-17T10:11:34.999Z</time></trkpt><trkpt lat="46.0695590441871" lon="11.219153050965533"><ele>444.0</ele><time>2026-04-17T10:11:35.999Z</time></trkpt><trkpt lat="46.06972436983144" lon="11.218931566249719"><ele>443.33333333333337</ele><time>2026-04-17T10:11:36.999Z</time></trkpt><trkpt lat="46.06988074814421" lon="11.218723224216086"><ele>442.6666666666667</ele><time>2026-04-17T10:11:37.999Z</time></trkpt><trkpt lat="46.070024644870124" lon="11.218530265227386"><ele>442.0</ele><time>2026-04-17T10:11:38.999Z</time></trkpt><trkpt lat="46.070160208777224" lon="11.218349309830582"><ele>442.33333333333337</ele><time>2026-04-17T10:11:39.999Z</time></trkpt><trkpt lat="46.07028672548963" lon="11.218175234602239"><ele>442.66666666666663</ele><time>2026-04-17T10:11:40.999Z</time></trkpt><trkpt lat="46.07041217665648" lon="11.21800947064689"><ele>443.0</ele><time>2026-04-17T10:11:41.999Z</time></trkpt><trkpt lat="46.07053958934876" lon="11.217842304717704"><ele>443.0</ele><time>2026-04-17T10:11:42.999Z</time></trkpt><trkpt lat="46.07066849647729" lon="11.217675661895848"><ele>443.0</ele><time>2026-04-17T10:11:43.999Z</time></trkpt><trkpt lat="46.07079742942814" lon="11.21750582978555"><ele>443.0</ele><time>2026-04-17T10:11:44.999Z</time></trkpt><trkpt lat="46.07092802889368" lon="11.217333814527025"><ele>443.3333333333333</ele><time>2026-04-17T10:11:46Z</time></trkpt><trkpt lat="46.07106163712048" lon="11.217156276531826"><ele>443.66666666666663</ele><time>2026-04-17T10:11:47Z</time></trkpt><trkpt lat="46.07121733933352" lon="11.216947690004941"><ele>444.0</ele><time>2026-04-17T10:11:48Z</time></trkpt><trkpt lat="46.07138843412316" lon="11.216720418214566"><ele>444.0</ele><time>2026-04-17T10:11:49Z</time></trkpt><trkpt lat="46.071564343806266" lon="11.216491022404009"><ele>444.0</ele><time>2026-04-17T10:11:50Z</time></trkpt><trkpt lat="46.07173926991658" lon="11.216257540858171"><ele>442.5</ele><time>2026-04-17T10:11:51Z</time></trkpt><trkpt lat="46.071933045716655" lon="11.21600072994873"><ele>441.0</ele><time>2026-04-17T10:11:52Z</time></trkpt><trkpt lat="46.072134654307916" lon="11.215733526973438"><ele>441.0</ele><time>2026-04-17T10:11:53Z</time></trkpt><trkpt lat="46.07233154997876" lon="11.215471961914302"><ele>441.0</ele><time>2026-04-17T10:11:54Z</time></trkpt><trkpt lat="46.072515000402625" lon="11.215221315434482"><ele>441.0</ele><time>2026-04-17T10:11:55Z</time></trkpt><trkpt lat="46.07269016884688" lon="11.214942564051642"><ele>441.0</ele><time>2026-04-17T10:11:56Z</time></trkpt><trkpt lat="46.072853460232324" lon="11.214641691398883"><ele>439.5</ele><time>2026-04-17T10:11:57Z</time></trkpt><trkpt lat="46.07302227262869" lon="11.214304290423298"><ele>438.0</ele><time>2026-04-17T10:11:58Z</time></trkpt><trkpt lat="46.073202582689426" lon="11.213964513346038"><ele>438.5</ele><time>2026-04-17T10:11:59Z</time></trkpt><trkpt lat="46.07339079479197" lon="11.213617864865624"><ele>439.0</ele><time>2026-04-17T10:12:00Z</time></trkpt><trkpt lat="46.07357888132946" lon="11.21326087944691"><ele>435.5</ele><time>2026-04-17T10:12:01Z</time></trkpt><trkpt lat="46.07376453572208" lon="11.21291112238208"><ele>432.0</ele><time>2026-04-17T10:12:02Z</time></trkpt><trkpt lat="46.073944213648154" lon="11.21256576823967"><ele>433.5</ele><time>2026-04-17T10:12:03Z</time></trkpt><trkpt lat="46.07411881094871" lon="11.212233960298681"><ele>435.0</ele><time>2026-04-17T10:12:04Z</time></trkpt><trkpt lat="46.07428957882231" lon="11.21191035278384"><ele>435.0</ele><time>2026-04-17T10:12:05Z</time></trkpt><trkpt lat="46.07445924783784" lon="11.211589389294708"><ele>435.0</ele><time>2026-04-17T10:12:06Z</time></trkpt><trkpt lat="46.0746293820624" lon="11.21127282532919"><ele>434.5</ele><time>2026-04-17T10:12:07Z</time></trkpt><trkpt lat="46.074795701904534" lon="11.210958551865323"><ele>434.0</ele><time>2026-04-17T10:12:08Z</time></trkpt><trkpt lat="46.07495854384019" lon="11.210647591118958"><ele>434.0</ele><time>2026-04-17T10:12:09Z</time></trkpt><trkpt lat="46.07511768265875" lon="11.210339253043125"><ele>434.0</ele><time>2026-04-17T10:12:10Z</time></trkpt><trkpt lat="46.07526352025389" lon="11.210024827016113"><ele>432.5</ele><time>2026-04-17T10:12:11Z</time></trkpt><trkpt lat="46.07540066477356" lon="11.20970943399752"><ele>431.0</ele><time>2026-04-17T10:12:12Z</time></trkpt><trkpt lat="46.07552900684379" lon="11.209380391159957"><ele>431.0</ele><time>2026-04-17T10:12:13Z</time></trkpt><trkpt lat="46.07564578992806" lon="11.209040315888302"><ele>431.0</ele><time>2026-04-17T10:12:14Z</time></trkpt><trkpt lat="46.07576170093984" lon="11.208682152972537"><ele>431.0</ele><time>2026-04-17T10:12:15Z</time></trkpt><trkpt lat="46.07587408955842" lon="11.208347948690884"><ele>431.0</ele><time>2026-04-17T10:12:16Z</time></trkpt><trkpt lat="46.075978222207404" lon="11.208034873862955"><ele>429.0</ele><time>2026-04-17T10:12:17Z</time></trkpt><trkpt lat="46.076082423169204" lon="11.207720491018527"><ele>427.0</ele><time>2026-04-17T10:12:18Z</time></trkpt><trkpt lat="46.0761876038281" lon="11.20741297381711"><ele>426.5</ele><time>2026-04-17T10:12:19Z</time></trkpt><trkpt lat="46.07629048618843" lon="11.207110567871373"><ele>426.0</ele><time>2026-04-17T10:12:20Z</time></trkpt><trkpt lat="46.076396010304755" lon="11.206808738897829"><ele>426.0</ele><time>2026-04-17T10:12:21Z</time></trkpt><trkpt lat="46.076507674835725" lon="11.206516744798979"><ele>426.0</ele><time>2026-04-17T10:12:22Z</time></trkpt><trkpt lat="46.07663306377177" lon="11.20623681913688"><ele>427.0</ele><time>2026-04-17T10:12:23Z</time></trkpt><trkpt lat="46.07676188532118" lon="11.205966887215634"><ele>428.0</ele><time>2026-04-17T10:12:24Z</time></trkpt><trkpt lat="46.07690113989187" lon="11.205695095577635"><ele>427.0</ele><time>2026-04-17T10:12:25Z</time></trkpt><trkpt lat="46.0770500913542" lon="11.205435942887378"><ele>426.0</ele><time>2026-04-17T10:12:26Z</time></trkpt><trkpt lat="46.077212156530045" lon="11.205174868997911"><ele>426.0</ele><time>2026-04-17T10:12:27Z</time></trkpt><trkpt lat="46.07737726680273" lon="11.204925644716685"><ele>426.0</ele><time>2026-04-17T10:12:28Z</time></trkpt><trkpt lat="46.07754357952849" lon="11.204689367768482"><ele>425.5</ele><time>2026-04-17T10:12:29Z</time></trkpt><trkpt lat="46.07771413315105" lon="11.20445803727714"><ele>425.0</ele><time>2026-04-17T10:12:30Z</time></trkpt><trkpt lat="46.07788867652297" lon="11.204221643264814"><ele>424.0</ele><time>2026-04-17T10:12:31Z</time></trkpt><trkpt lat="46.078059789526264" lon="11.203989284128399"><ele>423.0</ele><time>2026-04-17T10:12:32Z</time></trkpt><trkpt lat="46.078249424729414" lon="11.203740540800954"><ele>422.5</ele><time>2026-04-17T10:12:33Z</time></trkpt><trkpt lat="46.07844658373184" lon="11.203477903624549"><ele>422.0</ele><time>2026-04-17T10:12:34Z</time></trkpt><trkpt lat="46.078648988151926" lon="11.203198729106651"><ele>422.0</ele><time>2026-04-17T10:12:35Z</time></trkpt><trkpt lat="46.078860773251904" lon="11.20290997058706"><ele>422.0</ele><time>2026-04-17T10:12:36Z</time></trkpt><trkpt lat="46.07908060573479" lon="11.202616461177776"><ele>422.0</ele><time>2026-04-17T10:12:37Z</time></trkpt><trkpt lat="46.079293727351086" lon="11.202331695310097"><ele>422.0</ele><time>2026-04-17T10:12:38Z</time></trkpt><trkpt lat="46.07949062209852" lon="11.202063390773597"><ele>421.5</ele><time>2026-04-17T10:12:39Z</time></trkpt><trkpt lat="46.07967879295314" lon="11.201800563177216"><ele>421.0</ele><time>2026-04-17T10:12:40Z</time></trkpt><trkpt lat="46.07986430613863" lon="11.201531203254232"><ele>418.5</ele><time>2026-04-17T10:12:41Z</time></trkpt><trkpt lat="46.08003250323986" lon="11.201246793832706"><ele>416.0</ele><time>2026-04-17T10:12:42Z</time></trkpt><trkpt lat="46.08018824756572" lon="11.200944967456202"><ele>416.5</ele><time>2026-04-17T10:12:43Z</time></trkpt><trkpt lat="46.08033997619533" lon="11.200607111531134"><ele>417.0</ele><time>2026-04-17T10:12:44Z</time></trkpt><trkpt lat="46.080487748307746" lon="11.200249739027315"><ele>417.0</ele><time>2026-04-17T10:12:45Z</time></trkpt><trkpt lat="46.080645611721636" lon="11.199880357335887"><ele>417.0</ele><time>2026-04-17T10:12:46Z</time></trkpt><trkpt lat="46.08080946827663" lon="11.199497463906015"><ele>413.5</ele><time>2026-04-17T10:12:47Z</time></trkpt><trkpt lat="46.08097413692706" lon="11.199118419295868"><ele>410.0</ele><time>2026-04-17T10:12:48Z</time></trkpt><trkpt lat="46.0811285752832" lon="11.19877397490492"><ele>409.5</ele><time>2026-04-17T10:12:49Z</time></trkpt><trkpt lat="46.081271878831764" lon="11.19844064991284"><ele>409.0</ele><time>2026-04-17T10:12:50Z</time></trkpt><trkpt lat="46.08140324197635" lon="11.198134089290694"><ele>409.0</ele><time>2026-04-17T10:12:51Z</time></trkpt><trkpt lat="46.08151849123774" lon="11.197864626140689"><ele>409.0</ele><time>2026-04-17T10:12:52Z</time></trkpt><trkpt lat="46.081613473870355" lon="11.197627201485572"><ele>409.0</ele><time>2026-04-17T10:12:53Z</time></trkpt><trkpt lat="46.08168291391814" lon="11.197414427194744"><ele>407.75</ele><time>2026-04-17T10:12:54Z</time></trkpt><trkpt lat="46.08174499608929" lon="11.197216366391263"><ele>406.5</ele><time>2026-04-17T10:12:55Z</time></trkpt><trkpt lat="46.08180023953841" lon="11.197034621787132"><ele>405.25</ele><time>2026-04-17T10:12:56Z</time></trkpt><trkpt lat="46.08185203958656" lon="11.196868053141827"><ele>404.0</ele><time>2026-04-17T10:12:57Z</time></trkpt><trkpt lat="46.081899313436935" lon="11.196723038871854"><ele>403.99999999999994</ele><time>2026-04-17T10:12:58Z</time></trkpt><trkpt lat="46.081923319441856" lon="11.196596533549727"><ele>404.0</ele><time>2026-04-17T10:12:59Z</time></trkpt><trkpt lat="46.08194405468346" lon="11.196485093138946"><ele>404.0</ele><time>2026-04-17T10:13:00Z</time></trkpt><trkpt lat="46.08196414638733" lon="11.196380993150132"><ele>404.0</ele><time>2026-04-17T10:13:02Z</time></trkpt><trkpt lat="46.08197260186107" lon="11.196281011272475"><ele>403.99999999999994</ele><time>2026-04-17T10:17:52.001Z</time></trkpt><trkpt lat="46.08197919203491" lon="11.196173864976181"><ele>404.0</ele><time>2026-04-17T10:17:54.001Z</time></trkpt><trkpt lat="46.08199161247318" lon="11.196068372517505"><ele>403.99999999999994</ele><time>2026-04-17T10:17:56.001Z</time></trkpt><trkpt lat="46.08199905448993" lon="11.195970234313972"><ele>404.0</ele><time>2026-04-17T10:17:58.001Z</time></trkpt><trkpt lat="46.082000869820035" lon="11.195852443468668"><ele>404.0</ele><time>2026-04-17T10:18:00.001Z</time></trkpt><trkpt lat="46.082001182561854" lon="11.195744138811154"><ele>404.0</ele><time>2026-04-17T10:18:02.001Z</time></trkpt><trkpt lat="46.081975602579554" lon="11.195578856367177"><ele>403.99999999999994</ele><time>2026-04-17T10:18:25.001Z</time></trkpt><trkpt lat="46.081981026137626" lon="11.195439051493828"><ele>404.0</ele><time>2026-04-17T10:18:26.001Z</time></trkpt><trkpt lat="46.081984201269734" lon="11.195271756581793"><ele>403.5</ele><time>2026-04-17T10:18:27.001Z</time></trkpt><trkpt lat="46.08200261060587" lon="11.195102086292527"><ele>403.0</ele><time>2026-04-17T10:18:28.001Z</time></trkpt><trkpt lat="46.08201863336586" lon="11.19488053562358"><ele>402.5</ele><time>2026-04-17T10:18:29.001Z</time></trkpt><trkpt lat="46.08204582929188" lon="11.194661707263817"><ele>402.0</ele><time>2026-04-17T10:18:30.001Z</time></trkpt><trkpt lat="46.08206075241551" lon="11.194434489938946"><ele>401.0</ele><time>2026-04-17T10:18:31.001Z</time></trkpt><trkpt lat="46.082078621113865" lon="11.194178065306316"><ele>400.0</ele><time>2026-04-17T10:18:32.001Z</time></trkpt><trkpt lat="46.08210315245649" lon="11.19390601505235"><ele>399.0</ele><time>2026-04-17T10:18:33.001Z</time></trkpt><trkpt lat="46.08212644702111" lon="11.19363160258712"><ele>398.0</ele><time>2026-04-17T10:18:34.001Z</time></trkpt><trkpt lat="46.082152048856095" lon="11.193321993522664"><ele>397.0</ele><time>2026-04-17T10:18:35.001Z</time></trkpt><trkpt lat="46.08217925920619" lon="11.192992227236141"><ele>396.0</ele><time>2026-04-17T10:18:36.001Z</time></trkpt><trkpt lat="46.082208244103754" lon="11.192683430353199"><ele>394.66666666666663</ele><time>2026-04-17T10:18:37.001Z</time></trkpt><trkpt lat="46.08223162283811" lon="11.192373461716368"><ele>393.3333333333333</ele><time>2026-04-17T10:18:38.001Z</time></trkpt><trkpt lat="46.08225287433537" lon="11.192059314224919"><ele>392.0</ele><time>2026-04-17T10:18:39.001Z</time></trkpt><trkpt lat="46.08227909537865" lon="11.191737598451935"><ele>389.0</ele><time>2026-04-17T10:18:40.001Z</time></trkpt><trkpt lat="46.08231180416046" lon="11.191391711079527"><ele>386.0</ele><time>2026-04-17T10:18:41.001Z</time></trkpt><trkpt lat="46.08234890871439" lon="11.19105396013648"><ele>386.0</ele><time>2026-04-17T10:18:42.001Z</time></trkpt><trkpt lat="46.08238712571574" lon="11.19071943612341"><ele>386.0</ele><time>2026-04-17T10:18:43.001Z</time></trkpt><trkpt lat="46.08242644333959" lon="11.19037929225595"><ele>390.0</ele><time>2026-04-17T10:18:44.001Z</time></trkpt><trkpt lat="46.08246231319994" lon="11.190032641854394"><ele>394.0</ele><time>2026-04-17T10:18:45.001Z</time></trkpt><trkpt lat="46.08248990671368" lon="11.189698333076748"><ele>394.0</ele><time>2026-04-17T10:18:46.001Z</time></trkpt><trkpt lat="46.08249774761307" lon="11.189366575404405"><ele>394.0</ele><time>2026-04-17T10:18:47.001Z</time></trkpt><trkpt lat="46.08248776884979" lon="11.18901262110377"><ele>392.5</ele><time>2026-04-17T10:18:48.001Z</time></trkpt><trkpt lat="46.08246717213384" lon="11.18866354557232"><ele>391.0</ele><time>2026-04-17T10:18:49.001Z</time></trkpt><trkpt lat="46.08243167116136" lon="11.188316937624803"><ele>388.0</ele><time>2026-04-17T10:18:50.001Z</time></trkpt><trkpt lat="46.08239974628409" lon="11.187995083445767"><ele>385.0</ele><time>2026-04-17T10:18:51.001Z</time></trkpt><trkpt lat="46.08237074325363" lon="11.187683445701067"><ele>382.0</ele><time>2026-04-17T10:18:52.001Z</time></trkpt><trkpt lat="46.08234496804681" lon="11.18739020437936"><ele>382.66666666666663</ele><time>2026-04-17T10:18:53.001Z</time></trkpt><trkpt lat="46.0823214657168" lon="11.187117995241072"><ele>383.3333333333333</ele><time>2026-04-17T10:18:54.001Z</time></trkpt><trkpt lat="46.082305934325674" lon="11.186862028153362"><ele>384.0</ele><time>2026-04-17T10:18:55.001Z</time></trkpt><trkpt lat="46.082303454420234" lon="11.186598590674631"><ele>384.66666666666663</ele><time>2026-04-17T10:18:56.001Z</time></trkpt><trkpt lat="46.08232233694899" lon="11.186343589880254"><ele>385.3333333333333</ele><time>2026-04-17T10:18:57.001Z</time></trkpt><trkpt lat="46.08234862782457" lon="11.186094565150658"><ele>386.0</ele><time>2026-04-17T10:18:58.001Z</time></trkpt><trkpt lat="46.08239758390901" lon="11.185856504104363"><ele>388.66666666666663</ele><time>2026-04-17T10:18:59.001Z</time></trkpt><trkpt lat="46.082466759838994" lon="11.185619476410018"><ele>391.33333333333337</ele><time>2026-04-17T10:19:00.001Z</time></trkpt><trkpt lat="46.08255000499935" lon="11.185377891636481"><ele>394.0</ele><time>2026-04-17T10:19:01.001Z</time></trkpt><trkpt lat="46.082642891358255" lon="11.185124526909972"><ele>394.0</ele><time>2026-04-17T10:19:02.001Z</time></trkpt><trkpt lat="46.08274404438877" lon="11.1848607683328"><ele>394.0</ele><time>2026-04-17T10:19:03.001Z</time></trkpt><trkpt lat="46.08284726129881" lon="11.184587005898077"><ele>394.0</ele><time>2026-04-17T10:19:04.001Z</time></trkpt><trkpt lat="46.08294658766721" lon="11.184304648230915"><ele>391.33333333333337</ele><time>2026-04-17T10:19:05.001Z</time></trkpt><trkpt lat="46.08304492233709" lon="11.184019957708962"><ele>388.66666666666663</ele><time>2026-04-17T10:19:06.001Z</time></trkpt><trkpt lat="46.08314442229271" lon="11.183731181934869"><ele>386.0</ele><time>2026-04-17T10:19:07.001Z</time></trkpt><trkpt lat="46.0832413601047" lon="11.183451884413712"><ele>390.66666666666663</ele><time>2026-04-17T10:19:08.001Z</time></trkpt><trkpt lat="46.08331362744483" lon="11.183175727166516"><ele>395.33333333333337</ele><time>2026-04-17T10:19:09.001Z</time></trkpt><trkpt lat="46.08336266959842" lon="11.182901699658158"><ele>400.0</ele><time>2026-04-17T10:19:10.001Z</time></trkpt><trkpt lat="46.08339370086175" lon="11.182618969207832"><ele>401.0</ele><time>2026-04-17T10:19:11.001Z</time></trkpt><trkpt lat="46.083401207089445" lon="11.182332054357163"><ele>402.0</ele><time>2026-04-17T10:19:12.001Z</time></trkpt><trkpt lat="46.08339291685151" lon="11.182040089733388"><ele>403.0</ele><time>2026-04-17T10:19:13.001Z</time></trkpt><trkpt lat="46.083361740628256" lon="11.181748610005883"><ele>405.6666666666667</ele><time>2026-04-17T10:19:14.001Z</time></trkpt><trkpt lat="46.08331884739987" lon="11.181456355393909"><ele>408.33333333333337</ele><time>2026-04-17T10:19:15.001Z</time></trkpt><trkpt lat="46.08327255969974" lon="11.181162134867302"><ele>411.0</ele><time>2026-04-17T10:19:16.001Z</time></trkpt><trkpt lat="46.08323520623783" lon="11.180862532855846"><ele>400.6666666666667</ele><time>2026-04-17T10:19:17.001Z</time></trkpt><trkpt lat="46.083202782497004" lon="11.18057293747837"><ele>390.33333333333337</ele><time>2026-04-17T10:19:18.001Z</time></trkpt><trkpt lat="46.08318256934892" lon="11.180290977962914"><ele>380.0</ele><time>2026-04-17T10:19:19.022Z</time></trkpt><trkpt lat="46.083168407122876" lon="11.180008260136104"><ele>380.33333333333337</ele><time>2026-04-17T10:19:20.019Z</time></trkpt><trkpt lat="46.083164232217705" lon="11.179721450997045"><ele>380.6666666666667</ele><time>2026-04-17T10:19:21.001Z</time></trkpt><trkpt lat="46.08312137451808" lon="11.179406196115787"><ele>381.0</ele><time>2026-04-17T10:19:22.001Z</time></trkpt><trkpt lat="46.08311780963245" lon="11.179046370585784"><ele>379.5</ele><time>2026-04-17T10:19:23.001Z</time></trkpt><trkpt lat="46.08311774946109" lon="11.178707613558322"><ele>378.0</ele><time>2026-04-17T10:19:24.001Z</time></trkpt><trkpt lat="46.08311474180904" lon="11.178373174124937"><ele>376.5</ele><time>2026-04-17T10:19:25.001Z</time></trkpt><trkpt lat="46.08310610319568" lon="11.178032315137195"><ele>375.0</ele><time>2026-04-17T10:19:26.001Z</time></trkpt><trkpt lat="46.083092553890715" lon="11.177693250180363"><ele>375.0</ele><time>2026-04-17T10:19:27.001Z</time></trkpt><trkpt lat="46.08307617737228" lon="11.177375939022328"><ele>375.0</ele><time>2026-04-17T10:19:28.001Z</time></trkpt><trkpt lat="46.083056348091816" lon="11.17707396041791"><ele>375.0</ele><time>2026-04-17T10:19:29.001Z</time></trkpt><trkpt lat="46.08303092822449" lon="11.17678053460147"><ele>382.33333333333337</ele><time>2026-04-17T10:19:30.001Z</time></trkpt><trkpt lat="46.083003596266195" lon="11.17648864522327"><ele>389.6666666666667</ele><time>2026-04-17T10:19:31.001Z</time></trkpt><trkpt lat="46.08297743934039" lon="11.17619991408913"><ele>397.0</ele><time>2026-04-17T10:19:32.001Z</time></trkpt><trkpt lat="46.08295187662595" lon="11.175909365376477"><ele>413.33333333333337</ele><time>2026-04-17T10:19:33.001Z</time></trkpt><trkpt lat="46.082924813607015" lon="11.17561489771071"><ele>429.66666666666663</ele><time>2026-04-17T10:19:34.001Z</time></trkpt><trkpt lat="46.08289454239077" lon="11.175304879310938"><ele>446.0</ele><time>2026-04-17T10:19:35.019Z</time></trkpt><trkpt lat="46.082862161337395" lon="11.174984436683259"><ele>454.0</ele><time>2026-04-17T10:19:36.021Z</time></trkpt><trkpt lat="46.0828304339666" lon="11.17466026127577"><ele>462.0</ele><time>2026-04-17T10:19:37.02Z</time></trkpt><trkpt lat="46.082798689359144" lon="11.17433984261626"><ele>345.0</ele><time>2026-04-17T10:19:38.021Z</time></trkpt><trkpt lat="46.0778652644214" lon="11.155065642680185"><ele>350.3333333333333</ele><time>2026-04-17T10:20:35.002Z</time></trkpt><trkpt lat="46.07777285926655" lon="11.154817230927133"><ele>355.66666666666663</ele><time>2026-04-17T10:20:36.002Z</time></trkpt><trkpt lat="46.07770253613961" lon="11.154548177895288"><ele>361.0</ele><time>2026-04-17T10:20:37.002Z</time></trkpt><trkpt lat="46.07763318014631" lon="11.154287239958613"><ele>365.66666666666663</ele><time>2026-04-17T10:20:38.002Z</time></trkpt><trkpt lat="46.07756990015635" lon="11.154025314319444"><ele>370.3333333333333</ele><time>2026-04-17T10:20:39.002Z</time></trkpt><trkpt lat="46.07752521215594" lon="11.153768385440998"><ele>375.0</ele><time>2026-04-17T10:20:40.002Z</time></trkpt><trkpt lat="46.07747254759545" lon="11.153504213420582"><ele>367.0</ele><time>2026-04-17T10:20:41.002Z</time></trkpt><trkpt lat="46.07742877098437" lon="11.153253373659435"><ele>359.0</ele><time>2026-04-17T10:20:42.002Z</time></trkpt><trkpt lat="46.077396445604904" lon="11.153018706501724"><ele>351.0</ele><time>2026-04-17T10:20:43.002Z</time></trkpt><trkpt lat="46.077349592509705" lon="11.152780761986401"><ele>351.0</ele><time>2026-04-17T10:20:44.002Z</time></trkpt><trkpt lat="46.077306756674" lon="11.152533145146467"><ele>351.0</ele><time>2026-04-17T10:20:45.018Z</time></trkpt><trkpt lat="46.077001891026114" lon="11.150217981304825"><ele>360.75</ele><time>2026-04-17T10:20:55.074Z</time></trkpt><trkpt lat="46.07697377030052" lon="11.150056665722039"><ele>370.5</ele><time>2026-04-17T10:20:55.852Z</time></trkpt><trkpt lat="46.07694143878478" lon="11.149829870508535"><ele>380.25</ele><time>2026-04-17T10:20:56.951Z</time></trkpt><trkpt lat="46.0769122464256" lon="11.14962435427738"><ele>390.0</ele><time>2026-04-17T10:20:57.962Z</time></trkpt><trkpt lat="46.07678137894388" lon="11.148727793787657"><ele>395.5</ele><time>2026-04-17T10:21:02.561Z</time></trkpt><trkpt lat="46.07671518369082" lon="11.148226190322857"><ele>401.0</ele><time>2026-04-17T10:21:05.267Z</time></trkpt><trkpt lat="46.091109467713245" lon="11.122689703489767"><ele>343.66666666666663</ele><time>2026-04-17T10:22:18.001Z</time></trkpt><trkpt lat="46.09126450260071" lon="11.12259256197705"><ele>286.3333333333333</ele><time>2026-04-17T10:22:19.001Z</time></trkpt><trkpt lat="46.09141813097367" lon="11.122491796906226"><ele>229.0</ele><time>2026-04-17T10:22:20.001Z</time></trkpt><trkpt lat="46.091580406677245" lon="11.122449428056289"><ele>219.66666666666666</ele><time>2026-04-17T10:22:21.001Z</time></trkpt><trkpt lat="46.091755433556905" lon="11.122389217919284"><ele>210.33333333333331</ele><time>2026-04-17T10:22:22.001Z</time></trkpt><trkpt lat="46.09192847317704" lon="11.12233542812678"><ele>201.0</ele><time>2026-04-17T10:22:23.001Z</time></trkpt><trkpt lat="46.092099394976394" lon="11.122280068533922"><ele>201.0</ele><time>2026-04-17T10:22:24.001Z</time></trkpt><trkpt lat="46.09228792493062" lon="11.122222381119267"><ele>201.0</ele><time>2026-04-17T10:22:25.001Z</time></trkpt><trkpt lat="46.092527811176744" lon="11.122153805203963"><ele>201.0</ele><time>2026-04-17T10:22:26.001Z</time></trkpt><trkpt lat="46.09274237088955" lon="11.122075690035299"><ele>206.0</ele><time>2026-04-17T10:22:27.001Z</time></trkpt><trkpt lat="46.093098335595585" lon="11.12202457523405"><ele>211.0</ele><time>2026-04-17T10:22:28.001Z</time></trkpt><trkpt lat="46.09333786306557" lon="11.121973441569269"><ele>213.0</ele><time>2026-04-17T10:22:29.001Z</time></trkpt><trkpt lat="46.09361544495424" lon="11.121917876626066"><ele>215.0</ele><time>2026-04-17T10:22:30.001Z</time></trkpt><trkpt lat="46.09388456383673" lon="11.121861560689169"><ele>213.5</ele><time>2026-04-17T10:22:31.001Z</time></trkpt><trkpt lat="46.09413156002314" lon="11.121803714011639"><ele>212.0</ele><time>2026-04-17T10:22:32.001Z</time></trkpt><trkpt lat="46.09435768827721" lon="11.121741701223451"><ele>212.0</ele><time>2026-04-17T10:22:33.001Z</time></trkpt><trkpt lat="46.09457075656418" lon="11.121665299725771"><ele>212.0</ele><time>2026-04-17T10:22:34.001Z</time></trkpt><trkpt lat="46.09477138915548" lon="11.12155032344764"><ele>212.0</ele><time>2026-04-17T10:22:35.001Z</time></trkpt><trkpt lat="46.09496941153925" lon="11.121406738698337"><ele>206.66666666666669</ele><time>2026-04-17T10:22:36.001Z</time></trkpt><trkpt lat="46.09515789088883" lon="11.121236781336977"><ele>201.33333333333331</ele><time>2026-04-17T10:22:37.001Z</time></trkpt><trkpt lat="46.09532893943709" lon="11.121047166381482"><ele>196.0</ele><time>2026-04-17T10:22:38.001Z</time></trkpt><trkpt lat="46.09548401844186" lon="11.120845476443094"><ele>195.0</ele><time>2026-04-17T10:22:39.001Z</time></trkpt><trkpt lat="46.095630893016136" lon="11.120611481879632"><ele>194.0</ele><time>2026-04-17T10:22:40.001Z</time></trkpt><trkpt lat="46.09577083267551" lon="11.120352722468983"><ele>193.0</ele><time>2026-04-17T10:22:41.001Z</time></trkpt><trkpt lat="46.09589135172489" lon="11.12006288682152"><ele>191.5</ele><time>2026-04-17T10:22:42.001Z</time></trkpt><trkpt lat="46.0959937064277" lon="11.119763051128675"><ele>190.0</ele><time>2026-04-17T10:22:43.001Z</time></trkpt><trkpt lat="46.09608320701976" lon="11.119430309214213"><ele>191.5</ele><time>2026-04-17T10:22:44.001Z</time></trkpt><trkpt lat="46.09617604382905" lon="11.11906690097595"><ele>193.0</ele><time>2026-04-17T10:22:45.001Z</time></trkpt><trkpt lat="46.096277224872395" lon="11.118684432562079"><ele>193.0</ele><time>2026-04-17T10:22:46.001Z</time></trkpt><trkpt lat="46.096376730554624" lon="11.118323833068356"><ele>193.0</ele><time>2026-04-17T10:22:47.001Z</time></trkpt><trkpt lat="46.096461767636654" lon="11.117996971137597"><ele>193.33333333333331</ele><time>2026-04-17T10:22:48.001Z</time></trkpt><trkpt lat="46.09653335877842" lon="11.117697035095457"><ele>193.66666666666669</ele><time>2026-04-17T10:22:49.001Z</time></trkpt><trkpt lat="46.096584573624405" lon="11.11740282721723"><ele>194.0</ele><time>2026-04-17T10:22:50.001Z</time></trkpt><trkpt lat="46.0966173953816" lon="11.117090326179756"><ele>193.66666666666669</ele><time>2026-04-17T10:22:51.001Z</time></trkpt><trkpt lat="46.096632788149684" lon="11.116766908417034"><ele>193.33333333333331</ele><time>2026-04-17T10:22:52.001Z</time></trkpt><trkpt lat="46.096632082762646" lon="11.116444051627141"><ele>193.0</ele><time>2026-04-17T10:22:53.001Z</time></trkpt><trkpt lat="46.09661499415515" lon="11.11612086760286"><ele>192.66666666666666</ele><time>2026-04-17T10:22:54.001Z</time></trkpt><trkpt lat="46.09657905785963" lon="11.115802462969611"><ele>192.33333333333331</ele><time>2026-04-17T10:22:55.001Z</time></trkpt><trkpt lat="46.09652414731804" lon="11.115495244284025"><ele>192.0</ele><time>2026-04-17T10:22:56.001Z</time></trkpt><trkpt lat="46.09645208443639" lon="11.115173174222576"><ele>191.0</ele><time>2026-04-17T10:22:57.001Z</time></trkpt><trkpt lat="46.09637473416758" lon="11.114827823767145"><ele>190.0</ele><time>2026-04-17T10:22:58.001Z</time></trkpt><trkpt lat="46.0962970769512" lon="11.114445812995692"><ele>191.5</ele><time>2026-04-17T10:22:59.001Z</time></trkpt><trkpt lat="46.09622864181956" lon="11.114058317756454"><ele>193.0</ele><time>2026-04-17T10:23:00.001Z</time></trkpt><trkpt lat="46.096158962158405" lon="11.113676092291238"><ele>193.0</ele><time>2026-04-17T10:23:01.001Z</time></trkpt><trkpt lat="46.09608757088416" lon="11.113291276435113"><ele>193.0</ele><time>2026-04-17T10:23:02.001Z</time></trkpt><trkpt lat="46.09601282021831" lon="11.112906497852936"><ele>194.0</ele><time>2026-04-17T10:23:03.001Z</time></trkpt><trkpt lat="46.09594300226471" lon="11.112534909218253"><ele>195.0</ele><time>2026-04-17T10:23:04.001Z</time></trkpt><trkpt lat="46.09587817046844" lon="11.112179702473753"><ele>193.0</ele><time>2026-04-17T10:23:05.001Z</time></trkpt><trkpt lat="46.09581204415284" lon="11.111824582081587"><ele>191.0</ele><time>2026-04-17T10:23:06.001Z</time></trkpt><trkpt lat="46.095743573673154" lon="11.111463222547316"><ele>191.0</ele><time>2026-04-17T10:23:07.001Z</time></trkpt><trkpt lat="46.09567608821182" lon="11.11109829874986"><ele>191.0</ele><time>2026-04-17T10:23:08.001Z</time></trkpt><trkpt lat="46.09560963760935" lon="11.11072847106932"><ele>191.5</ele><time>2026-04-17T10:23:09.001Z</time></trkpt><trkpt lat="46.095539879421274" lon="11.110347928074765"><ele>192.0</ele><time>2026-04-17T10:23:10.001Z</time></trkpt><trkpt lat="46.09546850965717" lon="11.109956125961972"><ele>192.5</ele><time>2026-04-17T10:23:11.001Z</time></trkpt><trkpt lat="46.095399121546095" lon="11.109576931648716"><ele>193.0</ele><time>2026-04-17T10:23:12.001Z</time></trkpt><trkpt lat="46.09533325911558" lon="11.109205537980369"><ele>192.5</ele><time>2026-04-17T10:23:13.001Z</time></trkpt><trkpt lat="46.095271196992975" lon="11.108865520971523"><ele>192.0</ele><time>2026-04-17T10:23:14.001Z</time></trkpt><trkpt lat="46.09521224352263" lon="11.108547041186755"><ele>192.0</ele><time>2026-04-17T10:23:15.001Z</time></trkpt><trkpt lat="46.095154495208256" lon="11.108243615583334"><ele>192.0</ele><time>2026-04-17T10:23:16.001Z</time></trkpt><trkpt lat="46.09510027833913" lon="11.107951970782675"><ele>192.0</ele><time>2026-04-17T10:23:17.001Z</time></trkpt><trkpt lat="46.09503952031718" lon="11.107670975082488"><ele>192.0</ele><time>2026-04-17T10:23:18.001Z</time></trkpt><trkpt lat="46.094973651230525" lon="11.107393093329287"><ele>192.0</ele><time>2026-04-17T10:23:19.001Z</time></trkpt><trkpt lat="46.09489932810801" lon="11.107116844005166"><ele>192.0</ele><time>2026-04-17T10:23:20.001Z</time></trkpt><trkpt lat="46.09480823249361" lon="11.106823770593671"><ele>193.0</ele><time>2026-04-17T10:23:21.001Z</time></trkpt><trkpt lat="46.094702246295604" lon="11.106513202496332"><ele>194.0</ele><time>2026-04-17T10:23:22.001Z</time></trkpt><trkpt lat="46.094598082603255" lon="11.106213021065491"><ele>194.0</ele><time>2026-04-17T10:23:23.001Z</time></trkpt><trkpt lat="46.094499601692696" lon="11.1059222165251"><ele>194.0</ele><time>2026-04-17T10:23:24.001Z</time></trkpt><trkpt lat="46.09440233062394" lon="11.105635611514947"><ele>194.0</ele><time>2026-04-17T10:23:25.001Z</time></trkpt><trkpt lat="46.09430637200219" lon="11.105362183377741"><ele>193.33333333333334</ele><time>2026-04-17T10:23:26.001Z</time></trkpt><trkpt lat="46.09421478478891" lon="11.105099931154484"><ele>192.66666666666669</ele><time>2026-04-17T10:23:27.001Z</time></trkpt><trkpt lat="46.09412261921393" lon="11.104836562894867"><ele>192.0</ele><time>2026-04-17T10:23:28.001Z</time></trkpt><trkpt lat="46.094030093983534" lon="11.104565249541485"><ele>192.33333333333331</ele><time>2026-04-17T10:23:29.001Z</time></trkpt><trkpt lat="46.09394524710622" lon="11.104290922748385"><ele>192.66666666666666</ele><time>2026-04-17T10:23:30.001Z</time></trkpt><trkpt lat="46.09386943160851" lon="11.104014496657566"><ele>193.0</ele><time>2026-04-17T10:23:31.001Z</time></trkpt><trkpt lat="46.09379783083551" lon="11.103747014293877"><ele>193.0</ele><time>2026-04-17T10:23:32.001Z</time></trkpt><trkpt lat="46.09372599005726" lon="11.103506957485754"><ele>193.0</ele><time>2026-04-17T10:23:33.001Z</time></trkpt><trkpt lat="46.09364364563466" lon="11.103289340876167"><ele>193.0</ele><time>2026-04-17T10:23:34.001Z</time></trkpt><trkpt lat="46.09354212633157" lon="11.103086648723595"><ele>192.66666666666666</ele><time>2026-04-17T10:23:35.001Z</time></trkpt><trkpt lat="46.09342641716363" lon="11.102921317540721"><ele>192.33333333333331</ele><time>2026-04-17T10:23:36.001Z</time></trkpt><trkpt lat="46.09328830266303" lon="11.10278518613039"><ele>192.0</ele><time>2026-04-17T10:23:37.001Z</time></trkpt><trkpt lat="46.0931663367431" lon="11.10265836947504"><ele>191.75</ele><time>2026-04-17T10:23:38.001Z</time></trkpt><trkpt lat="46.09307638302736" lon="11.102528439467681"><ele>191.5</ele><time>2026-04-17T10:23:39.001Z</time></trkpt><trkpt lat="46.09301086304638" lon="11.102375912024032"><ele>191.25</ele><time>2026-04-17T10:23:40.001Z</time></trkpt><trkpt lat="46.092968739638195" lon="11.102208127798434"><ele>191.0</ele><time>2026-04-17T10:23:41.001Z</time></trkpt><trkpt lat="46.09296203516362" lon="11.102026595894474"><ele>191.0</ele><time>2026-04-17T10:23:42.001Z</time></trkpt><trkpt lat="46.092991379730975" lon="11.101845188821677"><ele>191.0</ele><time>2026-04-17T10:23:43.001Z</time></trkpt><trkpt lat="46.09303496324087" lon="11.101655189099478"><ele>191.0</ele><time>2026-04-17T10:23:44.001Z</time></trkpt><trkpt lat="46.09309907971217" lon="11.101449545809812"><ele>191.0</ele><time>2026-04-17T10:23:45.001Z</time></trkpt><trkpt lat="46.09316498937573" lon="11.101225318355102"><ele>190.66666666666666</ele><time>2026-04-17T10:23:46.001Z</time></trkpt><trkpt lat="46.09322437791933" lon="11.100999554799088"><ele>190.33333333333334</ele><time>2026-04-17T10:23:47.001Z</time></trkpt><trkpt lat="46.0932802258996" lon="11.100785911405415"><ele>190.0</ele><time>2026-04-17T10:23:48.001Z</time></trkpt><trkpt lat="46.09333498507268" lon="11.100586707451432"><ele>190.0</ele><time>2026-04-17T10:23:49.001Z</time></trkpt><trkpt lat="46.09338379667087" lon="11.100395850351477"><ele>190.0</ele><time>2026-04-17T10:23:50.001Z</time></trkpt><trkpt lat="46.0934221507822" lon="11.100199384497836"><ele>190.0</ele><time>2026-04-17T10:23:51.001Z</time></trkpt><trkpt lat="46.0934691801538" lon="11.099994842099646"><ele>190.0</ele><time>2026-04-17T10:23:52.001Z</time></trkpt><trkpt lat="46.09353224680033" lon="11.099792688124285"><ele>190.0</ele><time>2026-04-17T10:23:53.001Z</time></trkpt><trkpt lat="46.093614538288335" lon="11.099586585479898"><ele>190.0</ele><time>2026-04-17T10:23:54.001Z</time></trkpt><trkpt lat="46.09372029791701" lon="11.099385625545855"><ele>190.0</ele><time>2026-04-17T10:23:55.001Z</time></trkpt><trkpt lat="46.09383980134072" lon="11.099198054833037"><ele>190.0</ele><time>2026-04-17T10:23:56.001Z</time></trkpt><trkpt lat="46.0939762674042" lon="11.099026813441938"><ele>190.0</ele><time>2026-04-17T10:23:57.001Z</time></trkpt><trkpt lat="46.09412871127904" lon="11.098865354670908"><ele>190.0</ele><time>2026-04-17T10:23:58.001Z</time></trkpt><trkpt lat="46.09429237641093" lon="11.098701670879294"><ele>190.0</ele><time>2026-04-17T10:23:59.001Z</time></trkpt><trkpt lat="46.09447073840073" lon="11.098532103835794"><ele>190.0</ele><time>2026-04-17T10:24:00.001Z</time></trkpt><trkpt lat="46.09463678781722" lon="11.098373773467712"><ele>190.0</ele><time>2026-04-17T10:24:01.001Z</time></trkpt><trkpt lat="46.09480506527706" lon="11.098208412910017"><ele>190.33333333333334</ele><time>2026-04-17T10:24:02.001Z</time></trkpt><trkpt lat="46.09498130895354" lon="11.098022983407787"><ele>190.66666666666666</ele><time>2026-04-17T10:24:03.001Z</time></trkpt><trkpt lat="46.095165813745425" lon="11.0978325621524"><ele>191.0</ele><time>2026-04-17T10:24:04.001Z</time></trkpt><trkpt lat="46.09533143636371" lon="11.09767495793578"><ele>191.0</ele><time>2026-04-17T10:24:05.001Z</time></trkpt><trkpt lat="46.09549376021395" lon="11.097522678179653"><ele>191.0</ele><time>2026-04-17T10:24:06.001Z</time></trkpt><trkpt lat="46.09566341975227" lon="11.097364345178361"><ele>191.0</ele><time>2026-04-17T10:24:07.001Z</time></trkpt><trkpt lat="46.09584337868357" lon="11.097193026337644"><ele>191.5</ele><time>2026-04-17T10:24:08.001Z</time></trkpt><trkpt lat="46.09602997808393" lon="11.097011973914649"><ele>192.0</ele><time>2026-04-17T10:24:09.001Z</time></trkpt><trkpt lat="46.09621948657224" lon="11.096835561097931"><ele>192.0</ele><time>2026-04-17T10:24:10.001Z</time></trkpt><trkpt lat="46.09640810105877" lon="11.096662975940617"><ele>192.0</ele><time>2026-04-17T10:24:11.001Z</time></trkpt><trkpt lat="46.096596696225355" lon="11.096486509989033"><ele>192.0</ele><time>2026-04-17T10:24:12.001Z</time></trkpt><trkpt lat="46.09679522740214" lon="11.096298985224225"><ele>192.5</ele><time>2026-04-17T10:24:13.001Z</time></trkpt><trkpt lat="46.097018114251554" lon="11.096088169774745"><ele>193.0</ele><time>2026-04-17T10:24:14.001Z</time></trkpt><trkpt lat="46.09725482787904" lon="11.095868102253297"><ele>192.0</ele><time>2026-04-17T10:24:15.001Z</time></trkpt><trkpt lat="46.097484409556074" lon="11.095650462615662"><ele>191.0</ele><time>2026-04-17T10:24:16.001Z</time></trkpt><trkpt lat="46.097697346218446" lon="11.09544679976584"><ele>191.0</ele><time>2026-04-17T10:24:17Z</time></trkpt><trkpt lat="46.09791042053664" lon="11.095242096857543"><ele>191.0</ele><time>2026-04-17T10:24:18Z</time></trkpt><trkpt lat="46.09812479695022" lon="11.095036497476416"><ele>191.5</ele><time>2026-04-17T10:24:19Z</time></trkpt><trkpt lat="46.098354132767874" lon="11.094820570792777"><ele>192.0</ele><time>2026-04-17T10:24:20Z</time></trkpt><trkpt lat="46.09860012438381" lon="11.0945940064874"><ele>192.0</ele><time>2026-04-17T10:24:21Z</time></trkpt><trkpt lat="46.098845676792294" lon="11.094365558902126"><ele>192.0</ele><time>2026-04-17T10:24:22Z</time></trkpt><trkpt lat="46.09906984147934" lon="11.094151671306753"><ele>191.0</ele><time>2026-04-17T10:24:23Z</time></trkpt><trkpt lat="46.09931738073486" lon="11.09391958536958"><ele>190.0</ele><time>2026-04-17T10:24:24Z</time></trkpt><trkpt lat="46.099581040605436" lon="11.093674592762744"><ele>190.0</ele><time>2026-04-17T10:24:25Z</time></trkpt><trkpt lat="46.09983188070084" lon="11.093440615755847"><ele>190.0</ele><time>2026-04-17T10:24:26Z</time></trkpt><trkpt lat="46.10006468152177" lon="11.093222344011929"><ele>192.0</ele><time>2026-04-17T10:24:27Z</time></trkpt><trkpt lat="46.100312985508296" lon="11.09300012778262"><ele>194.0</ele><time>2026-04-17T10:24:28Z</time></trkpt><trkpt lat="46.10056958354432" lon="11.092774012955307"><ele>193.0</ele><time>2026-04-17T10:24:29Z</time></trkpt><trkpt lat="46.10084001364576" lon="11.09255406808699"><ele>192.0</ele><time>2026-04-17T10:24:30Z</time></trkpt><trkpt lat="46.10111439189155" lon="11.092338212034472"><ele>192.0</ele><time>2026-04-17T10:24:31Z</time></trkpt><trkpt lat="46.101397247979065" lon="11.092125618147294"><ele>192.0</ele><time>2026-04-17T10:24:32Z</time></trkpt><trkpt lat="46.10168722520655" lon="11.091920069844694"><ele>192.0</ele><time>2026-04-17T10:24:33Z</time></trkpt><trkpt lat="46.10197294427331" lon="11.091726283999947"><ele>192.0</ele><time>2026-04-17T10:24:34Z</time></trkpt><trkpt lat="46.102272014023626" lon="11.09153809190046"><ele>193.5</ele><time>2026-04-17T10:24:35Z</time></trkpt><trkpt lat="46.10258147624732" lon="11.091354851897927"><ele>195.0</ele><time>2026-04-17T10:24:36Z</time></trkpt><trkpt lat="46.1028883921112" lon="11.091182877232223"><ele>195.0</ele><time>2026-04-17T10:24:37Z</time></trkpt><trkpt lat="46.10318688089943" lon="11.091023893922483"><ele>195.0</ele><time>2026-04-17T10:24:38Z</time></trkpt><trkpt lat="46.103480499115655" lon="11.090878765895585"><ele>193.5</ele><time>2026-04-17T10:24:39Z</time></trkpt><trkpt lat="46.103767492351395" lon="11.090750808191789"><ele>192.0</ele><time>2026-04-17T10:24:40Z</time></trkpt><trkpt lat="46.10404683662449" lon="11.09063249108308"><ele>191.5</ele><time>2026-04-17T10:24:41Z</time></trkpt><trkpt lat="46.10432770435404" lon="11.090522974598553"><ele>191.0</ele><time>2026-04-17T10:24:42Z</time></trkpt><trkpt lat="46.10461282000645" lon="11.090422598442688"><ele>191.0</ele><time>2026-04-17T10:24:43Z</time></trkpt><trkpt lat="46.104904918676326" lon="11.090326986794818"><ele>191.0</ele><time>2026-04-17T10:24:44Z</time></trkpt><trkpt lat="46.10520470490923" lon="11.090234344185655"><ele>191.5</ele><time>2026-04-17T10:24:45Z</time></trkpt><trkpt lat="46.105512265234836" lon="11.090142697591967"><ele>192.0</ele><time>2026-04-17T10:24:46Z</time></trkpt><trkpt lat="46.10582013955997" lon="11.090051328445083"><ele>192.0</ele><time>2026-04-17T10:24:47Z</time></trkpt><trkpt lat="46.10613082332656" lon="11.08996224977671"><ele>192.0</ele><time>2026-04-17T10:24:48Z</time></trkpt><trkpt lat="46.10644176846884" lon="11.089872628757147"><ele>193.0</ele><time>2026-04-17T10:24:49Z</time></trkpt><trkpt lat="46.1067486395888" lon="11.089787409453423"><ele>194.0</ele><time>2026-04-17T10:24:50Z</time></trkpt><trkpt lat="46.1070489047539" lon="11.089700056431333"><ele>194.0</ele><time>2026-04-17T10:24:51Z</time></trkpt><trkpt lat="46.107346861485055" lon="11.089613078039728"><ele>194.0</ele><time>2026-04-17T10:24:52Z</time></trkpt><trkpt lat="46.1076440401695" lon="11.089526968140573"><ele>192.5</ele><time>2026-04-17T10:24:53Z</time></trkpt><trkpt lat="46.10794111330171" lon="11.08943826936432"><ele>191.0</ele><time>2026-04-17T10:24:54Z</time></trkpt><trkpt lat="46.10824014653193" lon="11.089350359636319"><ele>192.5</ele><time>2026-04-17T10:24:55Z</time></trkpt><trkpt lat="46.10854019630321" lon="11.089266093539065"><ele>194.0</ele><time>2026-04-17T10:24:56Z</time></trkpt><trkpt lat="46.108841393271646" lon="11.089183026825381"><ele>194.0</ele><time>2026-04-17T10:24:57.001Z</time></trkpt><trkpt lat="46.10914056481747" lon="11.089096056016203"><ele>194.0</ele><time>2026-04-17T10:24:58.001Z</time></trkpt><trkpt lat="46.10943567291367" lon="11.089012115042543"><ele>194.0</ele><time>2026-04-17T10:24:59.001Z</time></trkpt><trkpt lat="46.10972331067832" lon="11.088928793443257"><ele>194.0</ele><time>2026-04-17T10:25:00.001Z</time></trkpt><trkpt lat="46.11000936620373" lon="11.088844990432156"><ele>194.5</ele><time>2026-04-17T10:25:01.001Z</time></trkpt><trkpt lat="46.110296341392" lon="11.088762149822731"><ele>195.0</ele><time>2026-04-17T10:25:02.001Z</time></trkpt><trkpt lat="46.110586852373864" lon="11.088678231176273"><ele>195.0</ele><time>2026-04-17T10:25:03.001Z</time></trkpt><trkpt lat="46.11087685774589" lon="11.088595689802558"><ele>195.0</ele><time>2026-04-17T10:25:04.001Z</time></trkpt><trkpt lat="46.11116842651218" lon="11.088514326034566"><ele>195.0</ele><time>2026-04-17T10:25:05.001Z</time></trkpt><trkpt lat="46.111459080357434" lon="11.088432123985577"><ele>195.0</ele><time>2026-04-17T10:25:06.001Z</time></trkpt><trkpt lat="46.111747003392644" lon="11.088349551277597"><ele>194.5</ele><time>2026-04-17T10:25:07.001Z</time></trkpt><trkpt lat="46.1120331137204" lon="11.088265811919648"><ele>194.0</ele><time>2026-04-17T10:25:08.001Z</time></trkpt><trkpt lat="46.11231004934341" lon="11.088186423687624"><ele>194.0</ele><time>2026-04-17T10:25:09.001Z</time></trkpt><trkpt lat="46.1125634325912" lon="11.088114435970862"><ele>194.0</ele><time>2026-04-17T10:25:10.001Z</time></trkpt><trkpt lat="46.11279746650029" lon="11.088048759058315"><ele>194.0</ele><time>2026-04-17T10:25:11.001Z</time></trkpt><trkpt lat="46.11303288941754" lon="11.08798937319759"><ele>194.0</ele><time>2026-04-17T10:25:12.001Z</time></trkpt><trkpt lat="46.11328751751433" lon="11.08794814929749"><ele>195.0</ele><time>2026-04-17T10:25:13.001Z</time></trkpt><trkpt lat="46.113550024411275" lon="11.08794331569042"><ele>196.0</ele><time>2026-04-17T10:25:14.001Z</time></trkpt><trkpt lat="46.11381743698369" lon="11.087962844118888"><ele>195.0</ele><time>2026-04-17T10:25:15.001Z</time></trkpt><trkpt lat="46.114080556081824" lon="11.088008142081856"><ele>194.0</ele><time>2026-04-17T10:25:16.001Z</time></trkpt><trkpt lat="46.114350247431844" lon="11.088081727784852"><ele>194.0</ele><time>2026-04-17T10:25:17.001Z</time></trkpt><trkpt lat="46.11463109263058" lon="11.088169247108567"><ele>194.0</ele><time>2026-04-17T10:25:18.001Z</time></trkpt><trkpt lat="46.11491994401583" lon="11.088259408419136"><ele>195.5</ele><time>2026-04-17T10:25:19.001Z</time></trkpt><trkpt lat="46.11521392226528" lon="11.088353486023262"><ele>197.0</ele><time>2026-04-17T10:25:20.001Z</time></trkpt><trkpt lat="46.115513505342214" lon="11.088451965780514"><ele>198.0</ele><time>2026-04-17T10:25:21.001Z</time></trkpt><trkpt lat="46.11580130504793" lon="11.0885470988752"><ele>199.0</ele><time>2026-04-17T10:25:22.001Z</time></trkpt><trkpt lat="46.116068695066744" lon="11.088635427497039"><ele>199.0</ele><time>2026-04-17T10:25:23.001Z</time></trkpt><trkpt lat="46.11632541434592" lon="11.088718628233472"><ele>199.0</ele><time>2026-04-17T10:25:24.001Z</time></trkpt><trkpt lat="46.11657143632104" lon="11.088792680647039"><ele>197.0</ele><time>2026-04-17T10:25:25.001Z</time></trkpt><trkpt lat="46.11681752091446" lon="11.088848208142602"><ele>195.0</ele><time>2026-04-17T10:25:26Z</time></trkpt><trkpt lat="46.11707392248434" lon="11.088886806309201"><ele>195.0</ele><time>2026-04-17T10:25:27Z</time></trkpt><trkpt lat="46.11732934008471" lon="11.088901251716905"><ele>195.0</ele><time>2026-04-17T10:25:28Z</time></trkpt><trkpt lat="46.117589546225894" lon="11.08889602177123"><ele>197.0</ele><time>2026-04-17T10:25:29Z</time></trkpt><trkpt lat="46.11785196297474" lon="11.088870064847141"><ele>199.0</ele><time>2026-04-17T10:25:30Z</time></trkpt><trkpt lat="46.118111664447014" lon="11.088818815819364"><ele>199.0</ele><time>2026-04-17T10:25:31Z</time></trkpt><trkpt lat="46.11837257775716" lon="11.088743995380554"><ele>199.0</ele><time>2026-04-17T10:25:32Z</time></trkpt><trkpt lat="46.11862469466124" lon="11.088647995526356"><ele>199.0</ele><time>2026-04-17T10:25:33Z</time></trkpt><trkpt lat="46.11887600692281" lon="11.088528539700159"><ele>199.0</ele><time>2026-04-17T10:25:34Z</time></trkpt><trkpt lat="46.11912709703979" lon="11.08838694764335"><ele>198.0</ele><time>2026-04-17T10:25:35Z</time></trkpt><trkpt lat="46.11937290291591" lon="11.088220077360587"><ele>197.0</ele><time>2026-04-17T10:25:36Z</time></trkpt><trkpt lat="46.11961528572921" lon="11.088033088239202"><ele>197.0</ele><time>2026-04-17T10:25:37Z</time></trkpt><trkpt lat="46.11986193398209" lon="11.087832099513541"><ele>197.0</ele><time>2026-04-17T10:25:38Z</time></trkpt><trkpt lat="46.12011713639392" lon="11.087625252006433"><ele>197.5</ele><time>2026-04-17T10:25:39Z</time></trkpt><trkpt lat="46.12036966798055" lon="11.087423108948132"><ele>198.0</ele><time>2026-04-17T10:25:40Z</time></trkpt><trkpt lat="46.12062311674739" lon="11.087216028227735"><ele>198.0</ele><time>2026-04-17T10:25:41Z</time></trkpt><trkpt lat="46.12087385713628" lon="11.087006628490034"><ele>198.0</ele><time>2026-04-17T10:25:42Z</time></trkpt><trkpt lat="46.12112145805075" lon="11.086798658334796"><ele>198.0</ele><time>2026-04-17T10:25:43Z</time></trkpt><trkpt lat="46.12137664439928" lon="11.086585178689756"><ele>198.0</ele><time>2026-04-17T10:25:44Z</time></trkpt><trkpt lat="46.12163480107919" lon="11.086377487147455"><ele>199.0</ele><time>2026-04-17T10:25:45Z</time></trkpt><trkpt lat="46.121866889381536" lon="11.08618730676245"><ele>200.0</ele><time>2026-04-17T10:25:46Z</time></trkpt><trkpt lat="46.122076328623166" lon="11.086005684553031"><ele>200.0</ele><time>2026-04-17T10:25:47Z</time></trkpt><trkpt lat="46.12227687977913" lon="11.085816952901261"><ele>200.0</ele><time>2026-04-17T10:25:48Z</time></trkpt><trkpt lat="46.122460258406434" lon="11.085623418211464"><ele>199.5</ele><time>2026-04-17T10:25:49Z</time></trkpt><trkpt lat="46.12263186135406" lon="11.085410140150215"><ele>199.0</ele><time>2026-04-17T10:25:50Z</time></trkpt><trkpt lat="46.122801921311094" lon="11.085176134141754"><ele>198.5</ele><time>2026-04-17T10:25:51Z</time></trkpt><trkpt lat="46.12296635537521" lon="11.084926332167758"><ele>198.0</ele><time>2026-04-17T10:25:52Z</time></trkpt><trkpt lat="46.123122017316625" lon="11.084673851943105"><ele>198.33333333333331</ele><time>2026-04-17T10:25:53Z</time></trkpt><trkpt lat="46.12327523904746" lon="11.084444153828978"><ele>198.66666666666666</ele><time>2026-04-17T10:25:54Z</time></trkpt><trkpt lat="46.12342806857752" lon="11.084226057396947"><ele>199.0</ele><time>2026-04-17T10:25:55Z</time></trkpt><trkpt lat="46.1235903017264" lon="11.08401462996123"><ele>199.0</ele><time>2026-04-17T10:25:56Z</time></trkpt><trkpt lat="46.12376093872327" lon="11.083822908680137"><ele>199.0</ele><time>2026-04-17T10:25:57Z</time></trkpt><trkpt lat="46.12393407498614" lon="11.083645937103167"><ele>199.0</ele><time>2026-04-17T10:25:58Z</time></trkpt><trkpt lat="46.124111162793064" lon="11.08347962556746"><ele>199.0</ele><time>2026-04-17T10:25:59Z</time></trkpt><trkpt lat="46.12430629959724" lon="11.083329550639805"><ele>199.0</ele><time>2026-04-17T10:26:00Z</time></trkpt><trkpt lat="46.124520075118205" lon="11.083190661798515"><ele>199.5</ele><time>2026-04-17T10:26:01Z</time></trkpt><trkpt lat="46.12474359292445" lon="11.083068079467465"><ele>200.0</ele><time>2026-04-17T10:26:02Z</time></trkpt><trkpt lat="46.124979785039855" lon="11.08296094353283"><ele>201.0</ele><time>2026-04-17T10:26:03Z</time></trkpt><trkpt lat="46.125238588017524" lon="11.082863463779155"><ele>202.0</ele><time>2026-04-17T10:26:04Z</time></trkpt><trkpt lat="46.12551354684788" lon="11.082772137416617"><ele>199.5</ele><time>2026-04-17T10:26:05Z</time></trkpt><trkpt lat="46.12579874064625" lon="11.082676979979057"><ele>197.0</ele><time>2026-04-17T10:26:06Z</time></trkpt><trkpt lat="46.12607914068097" lon="11.082583959860251"><ele>197.0</ele><time>2026-04-17T10:26:07Z</time></trkpt><trkpt lat="46.1263364634718" lon="11.082495049065644"><ele>197.0</ele><time>2026-04-17T10:26:08Z</time></trkpt><trkpt lat="46.12657906729456" lon="11.082411049261092"><ele>198.0</ele><time>2026-04-17T10:26:09Z</time></trkpt><trkpt lat="46.126810420409086" lon="11.082332146442237"><ele>199.0</ele><time>2026-04-17T10:26:10Z</time></trkpt><trkpt lat="46.12703704916422" lon="11.082256248357117"><ele>199.0</ele><time>2026-04-17T10:26:11Z</time></trkpt><trkpt lat="46.1272688102464" lon="11.082178119401716"><ele>199.0</ele><time>2026-04-17T10:26:12Z</time></trkpt><trkpt lat="46.12751908899085" lon="11.082094488447387"><ele>198.0</ele><time>2026-04-17T10:26:13Z</time></trkpt><trkpt lat="46.12778158351926" lon="11.082007415305887"><ele>197.0</ele><time>2026-04-17T10:26:14Z</time></trkpt><trkpt lat="46.12805506740783" lon="11.081921827172863"><ele>197.5</ele><time>2026-04-17T10:26:15Z</time></trkpt><trkpt lat="46.1283374116692" lon="11.081846444345377"><ele>198.0</ele><time>2026-04-17T10:26:16Z</time></trkpt><trkpt lat="46.1286373449602" lon="11.081780222708769"><ele>198.0</ele><time>2026-04-17T10:26:17Z</time></trkpt><trkpt lat="46.12894622447383" lon="11.081725613929493"><ele>198.0</ele><time>2026-04-17T10:26:18Z</time></trkpt><trkpt lat="46.12926445856241" lon="11.081679113655836"><ele>198.5</ele><time>2026-04-17T10:26:19Z</time></trkpt><trkpt lat="46.12958738290121" lon="11.08164963134563"><ele>199.0</ele><time>2026-04-17T10:26:20Z</time></trkpt><trkpt lat="46.12988829127718" lon="11.081633141633489"><ele>201.0</ele><time>2026-04-17T10:26:21Z</time></trkpt><trkpt lat="46.13018660422613" lon="11.081626897685585"><ele>203.0</ele><time>2026-04-17T10:26:22Z</time></trkpt><trkpt lat="46.130499985165365" lon="11.081633437471279"><ele>201.5</ele><time>2026-04-17T10:26:23Z</time></trkpt><trkpt lat="46.13081967540928" lon="11.081656679817305"><ele>200.0</ele><time>2026-04-17T10:26:24Z</time></trkpt><trkpt lat="46.13114464485426" lon="11.081694301997935"><ele>200.0</ele><time>2026-04-17T10:26:25Z</time></trkpt><trkpt lat="46.131469767025266" lon="11.08174765085403"><ele>200.0</ele><time>2026-04-17T10:26:26Z</time></trkpt><trkpt lat="46.13179326224306" lon="11.081813456380344"><ele>200.5</ele><time>2026-04-17T10:26:27Z</time></trkpt><trkpt lat="46.13211030305075" lon="11.08188905817764"><ele>201.0</ele><time>2026-04-17T10:26:28Z</time></trkpt><trkpt lat="46.13242310805604" lon="11.081976339691808"><ele>201.0</ele><time>2026-04-17T10:26:29Z</time></trkpt><trkpt lat="46.132727810280755" lon="11.082072862803829"><ele>201.0</ele><time>2026-04-17T10:26:30Z</time></trkpt><trkpt lat="46.133018790562005" lon="11.082178567604679"><ele>200.5</ele><time>2026-04-17T10:26:31Z</time></trkpt><trkpt lat="46.1332924758628" lon="11.082290814266308"><ele>200.0</ele><time>2026-04-17T10:26:32Z</time></trkpt><trkpt lat="46.133565540365375" lon="11.08241278573921"><ele>200.0</ele><time>2026-04-17T10:26:33Z</time></trkpt><trkpt lat="46.13383538137059" lon="11.082541216012833"><ele>200.0</ele><time>2026-04-17T10:26:34Z</time></trkpt><trkpt lat="46.13410213172227" lon="11.082670815426779"><ele>199.0</ele><time>2026-04-17T10:26:35Z</time></trkpt><trkpt lat="46.13436608764888" lon="11.082800537384989"><ele>198.0</ele><time>2026-04-17T10:26:36Z</time></trkpt><trkpt lat="46.1346285720697" lon="11.082929337058662"><ele>198.0</ele><time>2026-04-17T10:26:37Z</time></trkpt><trkpt lat="46.134884032594805" lon="11.083057746607285"><ele>198.0</ele><time>2026-04-17T10:26:38Z</time></trkpt><trkpt lat="46.135129224825455" lon="11.083180783603169"><ele>199.0</ele><time>2026-04-17T10:26:39Z</time></trkpt><trkpt lat="46.13537248909402" lon="11.083300704696834"><ele>200.0</ele><time>2026-04-17T10:26:40Z</time></trkpt><trkpt lat="46.13561257382111" lon="11.083418973788177"><ele>201.5</ele><time>2026-04-17T10:26:41Z</time></trkpt><trkpt lat="46.13585251156691" lon="11.08353640622658"><ele>203.0</ele><time>2026-04-17T10:26:42Z</time></trkpt><trkpt lat="46.13609227784886" lon="11.083652569351122"><ele>203.0</ele><time>2026-04-17T10:26:43Z</time></trkpt><trkpt lat="46.13633031802163" lon="11.083770948567643"><ele>203.0</ele><time>2026-04-17T10:26:44Z</time></trkpt><trkpt lat="46.13656382808208" lon="11.083884594867552"><ele>201.5</ele><time>2026-04-17T10:26:45Z</time></trkpt><trkpt lat="46.13678743148846" lon="11.08399099867566"><ele>200.0</ele><time>2026-04-17T10:26:46Z</time></trkpt><trkpt lat="46.13699900703808" lon="11.0840913457315"><ele>199.33333333333334</ele><time>2026-04-17T10:26:47Z</time></trkpt><trkpt lat="46.13720190433042" lon="11.084190869087799"><ele>198.66666666666669</ele><time>2026-04-17T10:26:48Z</time></trkpt><trkpt lat="46.137407288817364" lon="11.08428694481554"><ele>198.0</ele><time>2026-04-17T10:26:49Z</time></trkpt><trkpt lat="46.1376131743441" lon="11.08436738627494"><ele>197.0</ele><time>2026-04-17T10:26:50Z</time></trkpt><trkpt lat="46.137816730159635" lon="11.084426550063467"><ele>196.0</ele><time>2026-04-17T10:26:51Z</time></trkpt><trkpt lat="46.13800901582709" lon="11.084463179259203"><ele>195.0</ele><time>2026-04-17T10:26:52Z</time></trkpt><trkpt lat="46.13818983916915" lon="11.084479920329388"><ele>195.33333333333331</ele><time>2026-04-17T10:26:53Z</time></trkpt><trkpt lat="46.13836657436421" lon="11.084488056956102"><ele>195.66666666666666</ele><time>2026-04-17T10:26:54Z</time></trkpt><trkpt lat="46.13854179607893" lon="11.084482344887952"><ele>196.0</ele><time>2026-04-17T10:26:55Z</time></trkpt><trkpt lat="46.1387162763838" lon="11.084457117263963"><ele>196.0</ele><time>2026-04-17T10:26:56Z</time></trkpt><trkpt lat="46.13889052371967" lon="11.084415915301104"><ele>196.0</ele><time>2026-04-17T10:26:57Z</time></trkpt><trkpt lat="46.13906417562974" lon="11.084362733819527"><ele>196.0</ele><time>2026-04-17T10:26:58Z</time></trkpt><trkpt lat="46.13923743196821" lon="11.084295529243818"><ele>197.0</ele><time>2026-04-17T10:26:59Z</time></trkpt><trkpt lat="46.139407020097394" lon="11.084212118761167"><ele>198.0</ele><time>2026-04-17T10:27:00Z</time></trkpt><trkpt lat="46.13957053082811" lon="11.084116458077602"><ele>199.0</ele><time>2026-04-17T10:27:01Z</time></trkpt><trkpt lat="46.13972359597838" lon="11.08401313505638"><ele>199.0</ele><time>2026-04-17T10:27:02Z</time></trkpt><trkpt lat="46.139869389170364" lon="11.083893721284973"><ele>199.0</ele><time>2026-04-17T10:27:03.001Z</time></trkpt><trkpt lat="46.14001933733823" lon="11.08376288440821"><ele>199.0</ele><time>2026-04-17T10:27:04.001Z</time></trkpt><trkpt lat="46.140165014116285" lon="11.083619530655136"><ele>199.33333333333331</ele><time>2026-04-17T10:27:05.001Z</time></trkpt><trkpt lat="46.140304459524614" lon="11.083460385914005"><ele>199.66666666666669</ele><time>2026-04-17T10:27:06.001Z</time></trkpt><trkpt lat="46.14043789288112" lon="11.083287874751722"><ele>200.0</ele><time>2026-04-17T10:27:07.001Z</time></trkpt><trkpt lat="46.140565541178454" lon="11.083103008108381"><ele>199.66666666666669</ele><time>2026-04-17T10:27:08.001Z</time></trkpt><trkpt lat="46.14068769293809" lon="11.082907169696876"><ele>199.33333333333331</ele><time>2026-04-17T10:27:09.001Z</time></trkpt><trkpt lat="46.14080044004644" lon="11.08270180121528"><ele>199.0</ele><time>2026-04-17T10:27:10.001Z</time></trkpt><trkpt lat="46.14091985361785" lon="11.082522440736856"><ele>199.0</ele><time>2026-04-17T10:27:11.001Z</time></trkpt><trkpt lat="46.14102155050703" lon="11.082340532907418"><ele>199.0</ele><time>2026-04-17T10:27:12.001Z</time></trkpt><trkpt lat="46.141086457306294" lon="11.082120344190399"><ele>199.0</ele><time>2026-04-17T10:27:13.001Z</time></trkpt><trkpt lat="46.14117543609526" lon="11.081925559442452"><ele>199.0</ele><time>2026-04-17T10:27:14.001Z</time></trkpt><trkpt lat="46.14126803296807" lon="11.081730221568511"><ele>199.0</ele><time>2026-04-17T10:27:15.001Z</time></trkpt><trkpt lat="46.1412974619618" lon="11.081453423947584"><ele>199.0</ele><time>2026-04-17T10:27:16.001Z</time></trkpt><trkpt lat="46.141398170943894" lon="11.081267554533877"><ele>198.66666666666666</ele><time>2026-04-17T10:27:17Z</time></trkpt><trkpt lat="46.1414972152825" lon="11.081066813930036"><ele>198.33333333333331</ele><time>2026-04-17T10:27:18Z</time></trkpt><trkpt lat="46.14160160689918" lon="11.08085124659647"><ele>198.0</ele><time>2026-04-17T10:27:19Z</time></trkpt><trkpt lat="46.14172643454595" lon="11.080597284651088"><ele>198.0</ele><time>2026-04-17T10:27:20Z</time></trkpt><trkpt lat="46.14185304165673" lon="11.080344905512385"><ele>198.0</ele><time>2026-04-17T10:27:21Z</time></trkpt><trkpt lat="46.14196517907848" lon="11.080121364271388"><ele>198.0</ele><time>2026-04-17T10:27:22Z</time></trkpt><trkpt lat="46.14207139265614" lon="11.079909631966942"><ele>198.0</ele><time>2026-04-17T10:27:23Z</time></trkpt><trkpt lat="46.142185739111774" lon="11.079719534103182"><ele>198.0</ele><time>2026-04-17T10:27:24Z</time></trkpt><trkpt lat="46.14258397653561" lon="11.079835218489638"><ele>198.0</ele><time>2026-04-17T10:27:25Z</time></trkpt><trkpt lat="46.14274565109584" lon="11.079723850389714"><ele>198.0</ele><time>2026-04-17T10:27:26Z</time></trkpt><trkpt lat="46.142903713687986" lon="11.079635472612631"><ele>198.0</ele><time>2026-04-17T10:27:27Z</time></trkpt><trkpt lat="46.14306180585709" lon="11.079565625225257"><ele>197.66666666666669</ele><time>2026-04-17T10:27:28Z</time></trkpt><trkpt lat="46.14322369334955" lon="11.079509363793004"><ele>197.33333333333334</ele><time>2026-04-17T10:27:29Z</time></trkpt><trkpt lat="46.143389163463716" lon="11.07946856618477"><ele>197.0</ele><time>2026-04-17T10:27:30Z</time></trkpt><trkpt lat="46.143563491910136" lon="11.079443510440491"><ele>197.0</ele><time>2026-04-17T10:27:31Z</time></trkpt><trkpt lat="46.143753808094196" lon="11.079427947124966"><ele>197.0</ele><time>2026-04-17T10:27:32Z</time></trkpt><trkpt lat="46.14394347315231" lon="11.079417721547138"><ele>197.0</ele><time>2026-04-17T10:27:33Z</time></trkpt><trkpt lat="46.144127431260166" lon="11.079413320910504"><ele>197.33333333333334</ele><time>2026-04-17T10:27:34Z</time></trkpt><trkpt lat="46.14430788389101" lon="11.079413157579372"><ele>197.66666666666669</ele><time>2026-04-17T10:27:35Z</time></trkpt><trkpt lat="46.144487250941474" lon="11.079423380132662"><ele>198.0</ele><time>2026-04-17T10:27:36Z</time></trkpt><trkpt lat="46.1446664490131" lon="11.079440648393254"><ele>198.0</ele><time>2026-04-17T10:27:37Z</time></trkpt><trkpt lat="46.14484611282636" lon="11.07945169242304"><ele>198.0</ele><time>2026-04-17T10:27:38Z</time></trkpt><trkpt lat="46.14502995082798" lon="11.079454224449293"><ele>198.0</ele><time>2026-04-17T10:27:39Z</time></trkpt><trkpt lat="46.1452210247663" lon="11.079452089430065"><ele>198.0</ele><time>2026-04-17T10:27:40Z</time></trkpt><trkpt lat="46.145418505227944" lon="11.079435510747585"><ele>198.0</ele><time>2026-04-17T10:27:41Z</time></trkpt><trkpt lat="46.14561889709024" lon="11.079400431656074"><ele>198.0</ele><time>2026-04-17T10:27:42Z</time></trkpt><trkpt lat="46.14581274958027" lon="11.079350970655938"><ele>198.0</ele><time>2026-04-17T10:27:43Z</time></trkpt><trkpt lat="46.14599125889956" lon="11.07929332547402"><ele>198.0</ele><time>2026-04-17T10:27:44Z</time></trkpt><trkpt lat="46.14616792155749" lon="11.0792212177571"><ele>198.0</ele><time>2026-04-17T10:27:45Z</time></trkpt><trkpt lat="46.14633887575481" lon="11.07913591665926"><ele>198.66666666666669</ele><time>2026-04-17T10:27:46Z</time></trkpt><trkpt lat="46.1464984214851" lon="11.079042344537301"><ele>199.33333333333334</ele><time>2026-04-17T10:27:47Z</time></trkpt><trkpt lat="46.14665110957796" lon="11.078945811921804"><ele>200.0</ele><time>2026-04-17T10:27:48Z</time></trkpt><trkpt lat="46.14680382629696" lon="11.07884665247806"><ele>200.66666666666669</ele><time>2026-04-17T10:27:49Z</time></trkpt><trkpt lat="46.14695104510582" lon="11.078750349505164"><ele>201.33333333333331</ele><time>2026-04-17T10:27:50Z</time></trkpt><trkpt lat="46.14709477443357" lon="11.078657759724845"><ele>202.0</ele><time>2026-04-17T10:27:51Z</time></trkpt><trkpt lat="46.14724001934279" lon="11.078562193096817"><ele>201.0</ele><time>2026-04-17T10:27:52Z</time></trkpt><trkpt lat="46.147385950314145" lon="11.078465099907406"><ele>200.0</ele><time>2026-04-17T10:27:53Z</time></trkpt><trkpt lat="46.14753569922597" lon="11.078363343178259"><ele>199.0</ele><time>2026-04-17T10:27:54Z</time></trkpt><trkpt lat="46.147690387212094" lon="11.078257141097934"><ele>198.66666666666666</ele><time>2026-04-17T10:27:55Z</time></trkpt><trkpt lat="46.14784486979292" lon="11.078152703011153"><ele>198.33333333333331</ele><time>2026-04-17T10:27:56Z</time></trkpt><trkpt lat="46.14799896110603" lon="11.078047463660184"><ele>198.0</ele><time>2026-04-17T10:27:57Z</time></trkpt><trkpt lat="46.14814907390141" lon="11.077944315365597"><ele>198.66666666666669</ele><time>2026-04-17T10:27:58Z</time></trkpt><trkpt lat="46.14829721393228" lon="11.077841111776996"><ele>199.33333333333334</ele><time>2026-04-17T10:27:59Z</time></trkpt><trkpt lat="46.148446776644676" lon="11.07773897501875"><ele>200.0</ele><time>2026-04-17T10:28:00Z</time></trkpt><trkpt lat="46.14859465791472" lon="11.077639795219143"><ele>200.0</ele><time>2026-04-17T10:28:01Z</time></trkpt><trkpt lat="46.14874790569628" lon="11.077545862163971"><ele>200.0</ele><time>2026-04-17T10:28:02Z</time></trkpt><trkpt lat="46.14890367275522" lon="11.07745674438045"><ele>200.0</ele><time>2026-04-17T10:28:03Z</time></trkpt><trkpt lat="46.14906832870256" lon="11.077377061354266"><ele>199.0</ele><time>2026-04-17T10:28:04Z</time></trkpt><trkpt lat="46.14923827165629" lon="11.077303870223972"><ele>198.0</ele><time>2026-04-17T10:28:05Z</time></trkpt><trkpt lat="46.14941499985095" lon="11.077237231613928"><ele>197.0</ele><time>2026-04-17T10:28:06Z</time></trkpt><trkpt lat="46.14960231477533" lon="11.077173387395984"><ele>197.0</ele><time>2026-04-17T10:28:07Z</time></trkpt><trkpt lat="46.14980345467961" lon="11.077118225322122"><ele>197.0</ele><time>2026-04-17T10:28:08Z</time></trkpt><trkpt lat="46.149996752781924" lon="11.077079718758926"><ele>197.0</ele><time>2026-04-17T10:28:09Z</time></trkpt><trkpt lat="46.15018278576725" lon="11.077047630756997"><ele>197.66666666666669</ele><time>2026-04-17T10:28:10Z</time></trkpt><trkpt lat="46.1503681925672" lon="11.077023527617593"><ele>198.33333333333331</ele><time>2026-04-17T10:28:11Z</time></trkpt><trkpt lat="46.150555554499775" lon="11.077007169172422"><ele>199.0</ele><time>2026-04-17T10:28:12Z</time></trkpt><trkpt lat="46.15075472194305" lon="11.076988685802693"><ele>199.0</ele><time>2026-04-17T10:28:13Z</time></trkpt><trkpt lat="46.15098484668118" lon="11.07700559240261"><ele>199.0</ele><time>2026-04-17T10:28:14Z</time></trkpt><trkpt lat="46.15123879695339" lon="11.076985994161978"><ele>199.0</ele><time>2026-04-17T10:28:15Z</time></trkpt><trkpt lat="46.151510012405936" lon="11.0769663023941"><ele>199.0</ele><time>2026-04-17T10:28:16Z</time></trkpt><trkpt lat="46.15178289086464" lon="11.076947667652481"><ele>198.0</ele><time>2026-04-17T10:28:17Z</time></trkpt><trkpt lat="46.15207395550051" lon="11.076928790293838"><ele>197.0</ele><time>2026-04-17T10:28:18Z</time></trkpt><trkpt lat="46.152345498235576" lon="11.076909789213543"><ele>197.0</ele><time>2026-04-17T10:28:19Z</time></trkpt><trkpt lat="46.152602055094825" lon="11.076876431544319"><ele>197.0</ele><time>2026-04-17T10:28:20Z</time></trkpt><trkpt lat="46.152854373266855" lon="11.07685660885419"><ele>197.0</ele><time>2026-04-17T10:28:21Z</time></trkpt><trkpt lat="46.15309746066667" lon="11.076834037708807"><ele>197.0</ele><time>2026-04-17T10:28:22Z</time></trkpt><trkpt lat="46.153330468899874" lon="11.076815440774492"><ele>198.0</ele><time>2026-04-17T10:28:23Z</time></trkpt><trkpt lat="46.15357244818926" lon="11.076802199708755"><ele>199.0</ele><time>2026-04-17T10:28:24Z</time></trkpt><trkpt lat="46.15381030050735" lon="11.076790396691633"><ele>199.5</ele><time>2026-04-17T10:28:25Z</time></trkpt><trkpt lat="46.15404103384771" lon="11.07678872073515"><ele>200.0</ele><time>2026-04-17T10:28:26Z</time></trkpt><trkpt lat="46.15426910196668" lon="11.07680001570659"><ele>200.0</ele><time>2026-04-17T10:28:27Z</time></trkpt><trkpt lat="46.15449517547046" lon="11.076820168124017"><ele>200.0</ele><time>2026-04-17T10:28:28Z</time></trkpt><trkpt lat="46.15471010759072" lon="11.076853434990154"><ele>200.0</ele><time>2026-04-17T10:28:29Z</time></trkpt><trkpt lat="46.15492209485464" lon="11.07690743515003"><ele>199.33333333333334</ele><time>2026-04-17T10:28:30Z</time></trkpt><trkpt lat="46.15512930537765" lon="11.076983724668676"><ele>198.66666666666669</ele><time>2026-04-17T10:28:31Z</time></trkpt><trkpt lat="46.15532478990738" lon="11.077073111792142"><ele>198.0</ele><time>2026-04-17T10:28:32Z</time></trkpt><trkpt lat="46.15550295768022" lon="11.077172196806512"><ele>198.0</ele><time>2026-04-17T10:28:33Z</time></trkpt><trkpt lat="46.15566769846522" lon="11.077276627063787"><ele>198.0</ele><time>2026-04-17T10:28:34Z</time></trkpt><trkpt lat="46.1558148237286" lon="11.077389695787819"><ele>198.0</ele><time>2026-04-17T10:28:35Z</time></trkpt><trkpt lat="46.155938192299416" lon="11.077505977481005"><ele>198.25</ele><time>2026-04-17T10:28:36Z</time></trkpt><trkpt lat="46.1560475349313" lon="11.077630513388614"><ele>198.5</ele><time>2026-04-17T10:28:37Z</time></trkpt><trkpt lat="46.15614959120066" lon="11.077774189044742"><ele>198.75</ele><time>2026-04-17T10:28:38Z</time></trkpt><trkpt lat="46.15624798480748" lon="11.077927871528535"><ele>199.0</ele><time>2026-04-17T10:28:39Z</time></trkpt><trkpt lat="46.156339491628586" lon="11.078060671701648"><ele>199.0</ele><time>2026-04-17T10:28:40Z</time></trkpt><trkpt lat="46.15640584372733" lon="11.078164282671336"><ele>199.0</ele><time>2026-04-17T10:28:41Z</time></trkpt><trkpt lat="46.156461997407824" lon="11.078277462063328"><ele>199.0</ele><time>2026-04-17T10:28:42Z</time></trkpt><trkpt lat="46.15649977781239" lon="11.078402070616807"><ele>199.0</ele><time>2026-04-17T10:28:43Z</time></trkpt><trkpt lat="46.156524685199265" lon="11.078539028928091"><ele>199.0</ele><time>2026-04-17T10:28:44Z</time></trkpt><trkpt lat="46.15656881994432" lon="11.078642693896281"><ele>198.6</ele><time>2026-04-17T10:28:45Z</time></trkpt><trkpt lat="46.156637764513626" lon="11.078706903100558"><ele>198.2</ele><time>2026-04-17T10:28:46Z</time></trkpt><trkpt lat="46.156721751086366" lon="11.078742585523633"><ele>197.79999999999998</ele><time>2026-04-17T10:28:47Z</time></trkpt><trkpt lat="46.15681800237915" lon="11.078744385993414"><ele>197.39999999999998</ele><time>2026-04-17T10:28:48Z</time></trkpt><trkpt lat="46.15692132495014" lon="11.078718101430765"><ele>197.0</ele><time>2026-04-17T10:28:49Z</time></trkpt><trkpt lat="46.15703232834098" lon="11.07868704160746"><ele>197.0</ele><time>2026-04-17T10:28:50Z</time></trkpt><trkpt lat="46.15714537491737" lon="11.078693948160511"><ele>197.0</ele><time>2026-04-17T10:28:51Z</time></trkpt><trkpt lat="46.15725855941483" lon="11.078738841673488"><ele>197.0</ele><time>2026-04-17T10:28:52Z</time></trkpt><trkpt lat="46.157390679149565" lon="11.078797967117122"><ele>197.0</ele><time>2026-04-17T10:28:53Z</time></trkpt><trkpt lat="46.157553945463015" lon="11.078872825256772"><ele>197.33333333333334</ele><time>2026-04-17T10:28:54Z</time></trkpt><trkpt lat="46.157719489784455" lon="11.078955704855158"><ele>197.66666666666669</ele><time>2026-04-17T10:28:55Z</time></trkpt><trkpt lat="46.157901931028235" lon="11.07904414693016"><ele>198.0</ele><time>2026-04-17T10:28:56Z</time></trkpt><trkpt lat="46.15811272017427" lon="11.07914253430219"><ele>199.33333333333331</ele><time>2026-04-17T10:28:57Z</time></trkpt><trkpt lat="46.15831697537598" lon="11.079216362069351"><ele>200.66666666666666</ele><time>2026-04-17T10:28:58Z</time></trkpt><trkpt lat="46.15854340213064" lon="11.07927408279246"><ele>202.0</ele><time>2026-04-17T10:28:59Z</time></trkpt><trkpt lat="46.158781834683204" lon="11.079319118265333"><ele>202.0</ele><time>2026-04-17T10:29:00Z</time></trkpt><trkpt lat="46.15902171047931" lon="11.079350264814027"><ele>202.0</ele><time>2026-04-17T10:29:01Z</time></trkpt><trkpt lat="46.15925827984999" lon="11.079376854439749"><ele>201.5</ele><time>2026-04-17T10:29:02Z</time></trkpt><trkpt lat="46.159494883813736" lon="11.07940390317324"><ele>201.0</ele><time>2026-04-17T10:29:03Z</time></trkpt><trkpt lat="46.15973043213685" lon="11.07943067847889"><ele>200.0</ele><time>2026-04-17T10:29:04Z</time></trkpt><trkpt lat="46.15998430617535" lon="11.079467502642594"><ele>199.0</ele><time>2026-04-17T10:29:05Z</time></trkpt><trkpt lat="46.16023724001346" lon="11.079523172952651"><ele>199.0</ele><time>2026-04-17T10:29:06Z</time></trkpt><trkpt lat="46.16046395251025" lon="11.079587803121894"><ele>199.0</ele><time>2026-04-17T10:29:07Z</time></trkpt><trkpt lat="46.16067841540961" lon="11.079659788010296"><ele>199.33333333333331</ele><time>2026-04-17T10:29:08Z</time></trkpt><trkpt lat="46.16087804487619" lon="11.079736391480733"><ele>199.66666666666669</ele><time>2026-04-17T10:29:09Z</time></trkpt><trkpt lat="46.16106920952737" lon="11.079814527120126"><ele>200.0</ele><time>2026-04-17T10:29:10Z</time></trkpt><trkpt lat="46.16126258722091" lon="11.079896492366206"><ele>199.66666666666669</ele><time>2026-04-17T10:29:11Z</time></trkpt><trkpt lat="46.16145234654802" lon="11.079977459582805"><ele>199.33333333333331</ele><time>2026-04-17T10:29:12Z</time></trkpt><trkpt lat="46.16163711440173" lon="11.080066529362215"><ele>199.0</ele><time>2026-04-17T10:29:13Z</time></trkpt><trkpt lat="46.16182543506891" lon="11.080161350583282"><ele>199.0</ele><time>2026-04-17T10:29:14Z</time></trkpt><trkpt lat="46.16202034304547" lon="11.0802547477886"><ele>199.0</ele><time>2026-04-17T10:29:15Z</time></trkpt><trkpt lat="46.16223098677878" lon="11.080380294970519"><ele>199.0</ele><time>2026-04-17T10:29:16Z</time></trkpt><trkpt lat="46.162474080101134" lon="11.080498714598974"><ele>198.5</ele><time>2026-04-17T10:29:17Z</time></trkpt><trkpt lat="46.16272513737272" lon="11.080621013812038"><ele>198.0</ele><time>2026-04-17T10:29:18Z</time></trkpt><trkpt lat="46.16297481032758" lon="11.080742638615993"><ele>198.33333333333331</ele><time>2026-04-17T10:29:19Z</time></trkpt><trkpt lat="46.16319597650465" lon="11.080835138301364"><ele>198.66666666666666</ele><time>2026-04-17T10:29:20Z</time></trkpt><trkpt lat="46.16339025234447" lon="11.080942873125592"><ele>199.0</ele><time>2026-04-17T10:29:21Z</time></trkpt><trkpt lat="46.16357423783886" lon="11.081041013951705"><ele>199.0</ele><time>2026-04-17T10:29:22Z</time></trkpt><trkpt lat="46.16375282365532" lon="11.081137871564577"><ele>199.0</ele><time>2026-04-17T10:29:23Z</time></trkpt><trkpt lat="46.1639346229758" lon="11.081239942102801"><ele>199.0</ele><time>2026-04-17T10:29:24Z</time></trkpt><trkpt lat="46.16412928539456" lon="11.08135415064441"><ele>199.0</ele><time>2026-04-17T10:29:25Z</time></trkpt><trkpt lat="46.16432411136259" lon="11.081473240136066"><ele>199.0</ele><time>2026-04-17T10:29:26Z</time></trkpt><trkpt lat="46.16451756547036" lon="11.081603531514727"><ele>199.0</ele><time>2026-04-17T10:29:27Z</time></trkpt><trkpt lat="46.16469754419679" lon="11.081733988904368"><ele>199.0</ele><time>2026-04-17T10:29:28Z</time></trkpt><trkpt lat="46.1648708331611" lon="11.081871823276046"><ele>199.0</ele><time>2026-04-17T10:29:29Z</time></trkpt><trkpt lat="46.16504786421159" lon="11.08202193384701"><ele>199.0</ele><time>2026-04-17T10:29:30Z</time></trkpt><trkpt lat="46.16522269793255" lon="11.082182372664487"><ele>199.0</ele><time>2026-04-17T10:29:31Z</time></trkpt><trkpt lat="46.16539823399568" lon="11.082346234651943"><ele>199.0</ele><time>2026-04-17T10:29:32Z</time></trkpt><trkpt lat="46.16557465874593" lon="11.08251397836304"><ele>199.0</ele><time>2026-04-17T10:29:33Z</time></trkpt><trkpt lat="46.16575091634713" lon="11.082690131854402"><ele>199.0</ele><time>2026-04-17T10:29:34Z</time></trkpt><trkpt lat="46.1659383367813" lon="11.082885182858561"><ele>199.0</ele><time>2026-04-17T10:29:35Z</time></trkpt><trkpt lat="46.16612320586663" lon="11.083083081618314"><ele>199.0</ele><time>2026-04-17T10:29:36Z</time></trkpt><trkpt lat="46.16630850182974" lon="11.083278819751945"><ele>199.0</ele><time>2026-04-17T10:29:37Z</time></trkpt><trkpt lat="46.16650602624497" lon="11.083485280427292"><ele>198.0</ele><time>2026-04-17T10:29:38Z</time></trkpt><trkpt lat="46.16672418640391" lon="11.08370806518689"><ele>197.0</ele><time>2026-04-17T10:29:39Z</time></trkpt><trkpt lat="46.16693861422186" lon="11.083969939991952"><ele>198.5</ele><time>2026-04-17T10:29:40Z</time></trkpt><trkpt lat="46.1671649308255" lon="11.084217233466806"><ele>200.0</ele><time>2026-04-17T10:29:41Z</time></trkpt><trkpt lat="46.16737024229391" lon="11.084439988142897"><ele>200.5</ele><time>2026-04-17T10:29:42Z</time></trkpt><trkpt lat="46.167579697859196" lon="11.08463840170104"><ele>201.0</ele><time>2026-04-17T10:29:43Z</time></trkpt><trkpt lat="46.167773529821076" lon="11.084850924864126"><ele>201.0</ele><time>2026-04-17T10:29:44Z</time></trkpt><trkpt lat="46.16795898994451" lon="11.08505054946559"><ele>201.0</ele><time>2026-04-17T10:29:45Z</time></trkpt><trkpt lat="46.16814289086302" lon="11.085250708792557"><ele>200.0</ele><time>2026-04-17T10:29:46Z</time></trkpt><trkpt lat="46.168323556947215" lon="11.08545108085983"><ele>199.0</ele><time>2026-04-17T10:29:47Z</time></trkpt><trkpt lat="46.168504672650364" lon="11.085646107729604"><ele>199.33333333333331</ele><time>2026-04-17T10:29:48Z</time></trkpt><trkpt lat="46.168684799924364" lon="11.085839589538026"><ele>199.66666666666669</ele><time>2026-04-17T10:29:49Z</time></trkpt><trkpt lat="46.168861990035644" lon="11.086033838689644"><ele>200.0</ele><time>2026-04-17T10:29:50Z</time></trkpt><trkpt lat="46.16903913490284" lon="11.086227574049726"><ele>200.0</ele><time>2026-04-17T10:29:51Z</time></trkpt><trkpt lat="46.16922034927147" lon="11.086416180932416"><ele>200.0</ele><time>2026-04-17T10:29:52Z</time></trkpt><trkpt lat="46.16939627763521" lon="11.086605965293291"><ele>200.0</ele><time>2026-04-17T10:29:53Z</time></trkpt><trkpt lat="46.16957039567502" lon="11.086797078322594"><ele>200.0</ele><time>2026-04-17T10:29:54Z</time></trkpt><trkpt lat="46.16975040600707" lon="11.086996955918963"><ele>200.0</ele><time>2026-04-17T10:29:55Z</time></trkpt><trkpt lat="46.16994905731381" lon="11.087213813835628"><ele>199.5</ele><time>2026-04-17T10:29:56Z</time></trkpt><trkpt lat="46.17015636954343" lon="11.087434780989549"><ele>199.0</ele><time>2026-04-17T10:29:57Z</time></trkpt><trkpt lat="46.17035102348363" lon="11.08764663552633"><ele>199.0</ele><time>2026-04-17T10:29:58Z</time></trkpt><trkpt lat="46.1705531301818" lon="11.087865409685358"><ele>199.0</ele><time>2026-04-17T10:29:59Z</time></trkpt><trkpt lat="46.17075735241614" lon="11.08808158580859"><ele>200.5</ele><time>2026-04-17T10:30:00Z</time></trkpt><trkpt lat="46.170959834646375" lon="11.088294698038519"><ele>202.0</ele><time>2026-04-17T10:30:01Z</time></trkpt><trkpt lat="46.171163042448" lon="11.088501678400965"><ele>202.0</ele><time>2026-04-17T10:30:02Z</time></trkpt><trkpt lat="46.17135759339798" lon="11.088726752569718"><ele>202.0</ele><time>2026-04-17T10:30:03Z</time></trkpt><trkpt lat="46.17156940056887" lon="11.088933691956864"><ele>200.5</ele><time>2026-04-17T10:30:04Z</time></trkpt><trkpt lat="46.17177748213265" lon="11.08913229381075"><ele>199.0</ele><time>2026-04-17T10:30:05Z</time></trkpt><trkpt lat="46.17198476707996" lon="11.089327536299647"><ele>199.0</ele><time>2026-04-17T10:30:06Z</time></trkpt><trkpt lat="46.172209350991196" lon="11.089538385435457"><ele>199.0</ele><time>2026-04-17T10:30:07Z</time></trkpt><trkpt lat="46.17244260523418" lon="11.089757356385904"><ele>200.5</ele><time>2026-04-17T10:30:08Z</time></trkpt><trkpt lat="46.17267814531051" lon="11.089978515649648"><ele>202.0</ele><time>2026-04-17T10:30:09Z</time></trkpt><trkpt lat="46.17293800398025" lon="11.090143710824671"><ele>202.0</ele><time>2026-04-17T10:30:10Z</time></trkpt><trkpt lat="46.17317592299189" lon="11.090351904977265"><ele>202.0</ele><time>2026-04-17T10:30:11Z</time></trkpt><trkpt lat="46.17341163267963" lon="11.090555213729976"><ele>202.0</ele><time>2026-04-17T10:30:12Z</time></trkpt><trkpt lat="46.17363846655816" lon="11.090741499508727"><ele>202.0</ele><time>2026-04-17T10:30:13Z</time></trkpt><trkpt lat="46.17386784703225" lon="11.090923010611812"><ele>202.0</ele><time>2026-04-17T10:30:14Z</time></trkpt><trkpt lat="46.174122987192675" lon="11.091116566880112"><ele>202.0</ele><time>2026-04-17T10:30:15Z</time></trkpt><trkpt lat="46.17438500249842" lon="11.091309659048441"><ele>202.0</ele><time>2026-04-17T10:30:16Z</time></trkpt><trkpt lat="46.17464445506393" lon="11.091495490461277"><ele>202.0</ele><time>2026-04-17T10:30:17Z</time></trkpt><trkpt lat="46.17490732670586" lon="11.091685397002548"><ele>201.0</ele><time>2026-04-17T10:30:18Z</time></trkpt><trkpt lat="46.17517591806271" lon="11.091873613345307"><ele>200.0</ele><time>2026-04-17T10:30:19Z</time></trkpt><trkpt lat="46.17543288020034" lon="11.092049169598187"><ele>200.0</ele><time>2026-04-17T10:30:20Z</time></trkpt><trkpt lat="46.1756973123252" lon="11.092216770599917"><ele>200.0</ele><time>2026-04-17T10:30:21Z</time></trkpt><trkpt lat="46.175982715545295" lon="11.09239217712084"><ele>200.0</ele><time>2026-04-17T10:30:22Z</time></trkpt><trkpt lat="46.176259344210614" lon="11.092569289535678"><ele>200.0</ele><time>2026-04-17T10:30:23Z</time></trkpt><trkpt lat="46.17652444475295" lon="11.092750568662767"><ele>200.0</ele><time>2026-04-17T10:30:24Z</time></trkpt><trkpt lat="46.17678892410022" lon="11.092929836386613"><ele>200.0</ele><time>2026-04-17T10:30:25Z</time></trkpt><trkpt lat="46.177033734044734" lon="11.093085527876415"><ele>200.0</ele><time>2026-04-17T10:30:26Z</time></trkpt><trkpt lat="46.177266263576215" lon="11.093234592939854"><ele>200.0</ele><time>2026-04-17T10:30:27Z</time></trkpt><trkpt lat="46.177486692768866" lon="11.093379538866646"><ele>198.5</ele><time>2026-04-17T10:30:28Z</time></trkpt><trkpt lat="46.17769583215379" lon="11.09351904566398"><ele>197.0</ele><time>2026-04-17T10:30:29Z</time></trkpt><trkpt lat="46.17790512928265" lon="11.093653172365267"><ele>197.0</ele><time>2026-04-17T10:30:30Z</time></trkpt><trkpt lat="46.17812445934293" lon="11.093793276632118"><ele>197.0</ele><time>2026-04-17T10:30:31Z</time></trkpt><trkpt lat="46.178358993035204" lon="11.093937180108266"><ele>198.0</ele><time>2026-04-17T10:30:32Z</time></trkpt><trkpt lat="46.17859979617129" lon="11.094092780153641"><ele>199.0</ele><time>2026-04-17T10:30:33Z</time></trkpt><trkpt lat="46.178842904749466" lon="11.094254771608227"><ele>199.5</ele><time>2026-04-17T10:30:34Z</time></trkpt><trkpt lat="46.179075036736144" lon="11.09441397024118"><ele>200.0</ele><time>2026-04-17T10:30:35Z</time></trkpt><trkpt lat="46.179290953619066" lon="11.094556073611459"><ele>200.0</ele><time>2026-04-17T10:30:36Z</time></trkpt><trkpt lat="46.179496096317656" lon="11.094687699998175"><ele>200.0</ele><time>2026-04-17T10:30:37Z</time></trkpt><trkpt lat="46.1796992803888" lon="11.094817853662283"><ele>200.0</ele><time>2026-04-17T10:30:38Z</time></trkpt><trkpt lat="46.1799267351315" lon="11.094959569825038"><ele>200.5</ele><time>2026-04-17T10:30:39Z</time></trkpt><trkpt lat="46.180167363010284" lon="11.09510856970309"><ele>201.0</ele><time>2026-04-17T10:30:40Z</time></trkpt><trkpt lat="46.180411200172486" lon="11.09527419151039"><ele>201.0</ele><time>2026-04-17T10:30:41Z</time></trkpt><trkpt lat="46.18066957879502" lon="11.095448843842338"><ele>201.0</ele><time>2026-04-17T10:30:42Z</time></trkpt><trkpt lat="46.18093827070216" lon="11.095622934986613"><ele>202.0</ele><time>2026-04-17T10:30:43Z</time></trkpt><trkpt lat="46.181209746501096" lon="11.095802349684112"><ele>203.0</ele><time>2026-04-17T10:30:44Z</time></trkpt><trkpt lat="46.18148714342329" lon="11.095986218516973"><ele>203.0</ele><time>2026-04-17T10:30:45Z</time></trkpt><trkpt lat="46.18176765410445" lon="11.096170286884387"><ele>203.0</ele><time>2026-04-17T10:30:46Z</time></trkpt><trkpt lat="46.1820523587315" lon="11.096355917058426"><ele>203.0</ele><time>2026-04-17T10:30:47Z</time></trkpt><trkpt lat="46.18234005452369" lon="11.096545721777398"><ele>203.0</ele><time>2026-04-17T10:30:48Z</time></trkpt><trkpt lat="46.18263177456067" lon="11.096736113678391"><ele>203.5</ele><time>2026-04-17T10:30:49Z</time></trkpt><trkpt lat="46.18292743800763" lon="11.096928532839957"><ele>204.0</ele><time>2026-04-17T10:30:50Z</time></trkpt><trkpt lat="46.18322535436319" lon="11.097122521190222"><ele>204.0</ele><time>2026-04-17T10:30:51Z</time></trkpt><trkpt lat="46.183526070919875" lon="11.09731712510115"><ele>204.0</ele><time>2026-04-17T10:30:52Z</time></trkpt><trkpt lat="46.183828340615925" lon="11.097512671776887"><ele>204.5</ele><time>2026-04-17T10:30:53Z</time></trkpt><trkpt lat="46.18412521462405" lon="11.097705179165754"><ele>205.0</ele><time>2026-04-17T10:30:54Z</time></trkpt><trkpt lat="46.18439682270265" lon="11.09788236113947"><ele>205.0</ele><time>2026-04-17T10:30:55Z</time></trkpt><trkpt lat="46.18465694122731" lon="11.09805254729555"><ele>205.0</ele><time>2026-04-17T10:30:56Z</time></trkpt><trkpt lat="46.184921322714565" lon="11.098227616186982"><ele>205.5</ele><time>2026-04-17T10:30:57Z</time></trkpt><trkpt lat="46.18518751451817" lon="11.098404040151504"><ele>206.0</ele><time>2026-04-17T10:30:58Z</time></trkpt><trkpt lat="46.185433790366815" lon="11.098565067091085"><ele>206.0</ele><time>2026-04-17T10:30:59Z</time></trkpt><trkpt lat="46.18566480946395" lon="11.09871359704481"><ele>206.0</ele><time>2026-04-17T10:31:00Z</time></trkpt><trkpt lat="46.18589242514277" lon="11.098858708686043"><ele>205.5</ele><time>2026-04-17T10:31:01Z</time></trkpt><trkpt lat="46.186112585236145" lon="11.099004691683303"><ele>205.0</ele><time>2026-04-17T10:31:02Z</time></trkpt><trkpt lat="46.18632224714127" lon="11.099157412157913"><ele>204.0</ele><time>2026-04-17T10:31:03Z</time></trkpt><trkpt lat="46.186519649766495" lon="11.099319748695063"><ele>203.0</ele><time>2026-04-17T10:31:04Z</time></trkpt><trkpt lat="46.186707923771635" lon="11.099495927027025"><ele>203.0</ele><time>2026-04-17T10:31:05Z</time></trkpt><trkpt lat="46.186894647173105" lon="11.09969833590199"><ele>203.0</ele><time>2026-04-17T10:31:06Z</time></trkpt><trkpt lat="46.18707154118056" lon="11.099913291926269"><ele>203.5</ele><time>2026-04-17T10:31:07Z</time></trkpt><trkpt lat="46.18724265342944" lon="11.100136210770593"><ele>204.0</ele><time>2026-04-17T10:31:08Z</time></trkpt><trkpt lat="46.187408165846726" lon="11.100379269968416"><ele>204.0</ele><time>2026-04-17T10:31:09Z</time></trkpt><trkpt lat="46.187566531290365" lon="11.100633481527364"><ele>204.0</ele><time>2026-04-17T10:31:10Z</time></trkpt><trkpt lat="46.187720719002506" lon="11.10088726133336"><ele>205.33333333333331</ele><time>2026-04-17T10:31:11Z</time></trkpt><trkpt lat="46.18787016616741" lon="11.10113357022119"><ele>206.66666666666666</ele><time>2026-04-17T10:31:12Z</time></trkpt><trkpt lat="46.18802033558924" lon="11.101365012412142"><ele>208.0</ele><time>2026-04-17T10:31:13Z</time></trkpt><trkpt lat="46.18817938204544" lon="11.101582167490648"><ele>208.66666666666666</ele><time>2026-04-17T10:31:14Z</time></trkpt><trkpt lat="46.18834921548738" lon="11.101775118783616"><ele>209.33333333333331</ele><time>2026-04-17T10:31:15Z</time></trkpt><trkpt lat="46.18852616589994" lon="11.101936290635031"><ele>210.0</ele><time>2026-04-17T10:31:16Z</time></trkpt><trkpt lat="46.18870947641149" lon="11.102056260036486"><ele>210.0</ele><time>2026-04-17T10:31:17Z</time></trkpt><trkpt lat="46.188906373535595" lon="11.102147703094085"><ele>210.0</ele><time>2026-04-17T10:31:18Z</time></trkpt><trkpt lat="46.18911191130518" lon="11.10221608321588"><ele>210.0</ele><time>2026-04-17T10:31:19Z</time></trkpt><trkpt lat="46.18932506041494" lon="11.102237621704996"><ele>210.0</ele><time>2026-04-17T10:31:20Z</time></trkpt><trkpt lat="46.189544131732376" lon="11.102228035830192"><ele>210.0</ele><time>2026-04-17T10:31:21Z</time></trkpt><trkpt lat="46.189760456258696" lon="11.102179426229322"><ele>210.0</ele><time>2026-04-17T10:31:22Z</time></trkpt><trkpt lat="46.1899668189188" lon="11.102098436191483"><ele>208.66666666666669</ele><time>2026-04-17T10:31:23Z</time></trkpt><trkpt lat="46.190148810965916" lon="11.101988579025454"><ele>207.33333333333334</ele><time>2026-04-17T10:31:24Z</time></trkpt><trkpt lat="46.19031507334865" lon="11.10185321679692"><ele>206.0</ele><time>2026-04-17T10:31:25Z</time></trkpt><trkpt lat="46.19046985817605" lon="11.101700256483012"><ele>206.33333333333334</ele><time>2026-04-17T10:31:26Z</time></trkpt><trkpt lat="46.19061067260347" lon="11.101523824234807"><ele>206.66666666666669</ele><time>2026-04-17T10:31:27Z</time></trkpt><trkpt lat="46.190742894777415" lon="11.101321075430969"><ele>207.0</ele><time>2026-04-17T10:31:28Z</time></trkpt><trkpt lat="46.190867976690306" lon="11.101084225222184"><ele>207.66666666666669</ele><time>2026-04-17T10:31:29Z</time></trkpt><trkpt lat="46.19096625223629" lon="11.10082513606435"><ele>208.33333333333334</ele><time>2026-04-17T10:31:30Z</time></trkpt><trkpt lat="46.19105006702998" lon="11.100558407158754"><ele>209.0</ele><time>2026-04-17T10:31:31Z</time></trkpt><trkpt lat="46.19112879860769" lon="11.100284094130505"><ele>209.0</ele><time>2026-04-17T10:31:32Z</time></trkpt><trkpt lat="46.1911675222516" lon="11.100000372093339"><ele>209.0</ele><time>2026-04-17T10:31:33Z</time></trkpt><trkpt lat="46.191188691366065" lon="11.099707830435545"><ele>209.0</ele><time>2026-04-17T10:31:34Z</time></trkpt><trkpt lat="46.19118610531238" lon="11.099396698560753"><ele>209.0</ele><time>2026-04-17T10:31:35Z</time></trkpt><trkpt lat="46.19116031525552" lon="11.099095359357987"><ele>209.0</ele><time>2026-04-17T10:31:36Z</time></trkpt><trkpt lat="46.191153532108885" lon="11.09881396917432"><ele>209.0</ele><time>2026-04-17T10:31:37Z</time></trkpt><trkpt lat="46.19115885497801" lon="11.098529414818788"><ele>209.0</ele><time>2026-04-17T10:31:38Z</time></trkpt><trkpt lat="46.19118589886552" lon="11.098230711069647"><ele>209.0</ele><time>2026-04-17T10:31:39Z</time></trkpt><trkpt lat="46.19124184639861" lon="11.09795469976103"><ele>209.0</ele><time>2026-04-17T10:31:40Z</time></trkpt><trkpt lat="46.19131328419035" lon="11.097698596929009"><ele>209.0</ele><time>2026-04-17T10:31:41Z</time></trkpt><trkpt lat="46.19140299782235" lon="11.097454836167676"><ele>209.0</ele><time>2026-04-17T10:31:42Z</time></trkpt><trkpt lat="46.19151147511343" lon="11.097218536003732"><ele>209.0</ele><time>2026-04-17T10:31:43Z</time></trkpt><trkpt lat="46.19163714921839" lon="11.096996798433903"><ele>208.66666666666669</ele><time>2026-04-17T10:31:44Z</time></trkpt><trkpt lat="46.19178230877643" lon="11.096790876531315"><ele>208.33333333333331</ele><time>2026-04-17T10:31:45Z</time></trkpt><trkpt lat="46.19194478194253" lon="11.096590032025212"><ele>208.0</ele><time>2026-04-17T10:31:46Z</time></trkpt><trkpt lat="46.192125868848635" lon="11.096384870996829"><ele>212.5</ele><time>2026-04-17T10:31:47Z</time></trkpt><trkpt lat="46.1923175253275" lon="11.096179474232668"><ele>217.0</ele><time>2026-04-17T10:31:48Z</time></trkpt><trkpt lat="46.192512009978614" lon="11.095989252658875"><ele>217.0</ele><time>2026-04-17T10:31:49Z</time></trkpt><trkpt lat="46.192699812135096" lon="11.095827434759268"><ele>217.0</ele><time>2026-04-17T10:31:50Z</time></trkpt><trkpt lat="46.19289761561635" lon="11.095677575651727"><ele>217.0</ele><time>2026-04-17T10:31:51Z</time></trkpt><trkpt lat="46.19310675285465" lon="11.095535190973681"><ele>217.0</ele><time>2026-04-17T10:31:52.014Z</time></trkpt><trkpt lat="46.19332152326526" lon="11.095396091351056"><ele>217.0</ele><time>2026-04-17T10:31:53.016Z</time></trkpt><trkpt lat="46.19354718392754" lon="11.095242487500542"><ele>217.0</ele><time>2026-04-17T10:31:54.017Z</time></trkpt><trkpt lat="46.19377913814752" lon="11.095074313409937"><ele>217.0</ele><time>2026-04-17T10:31:55.014Z</time></trkpt><trkpt lat="46.19401509378139" lon="11.094891286680683"><ele>793.0</ele><time>2026-04-17T10:31:56.016Z</time></trkpt><trkpt lat="46.19635225502637" lon="11.092826379089736"><ele>802.0</ele><time>2026-04-17T10:32:00.877Z</time></trkpt><trkpt lat="46.19696210819747" lon="11.092274339926076"><ele>765.0</ele><time>2026-04-17T10:32:01.878Z</time></trkpt><trkpt lat="46.19757976258028" lon="11.091741854911746"><ele>799.0</ele><time>2026-04-17T10:32:02.879Z</time></trkpt><trkpt lat="46.198185587535356" lon="11.091184221845584"><ele>835.0</ele><time>2026-04-17T10:32:03.878Z</time></trkpt><trkpt lat="46.1987926446682" lon="11.090627551397253"><ele>832.0</ele><time>2026-04-17T10:32:04.878Z</time></trkpt><trkpt lat="46.19939881437007" lon="11.090067605666695"><ele>824.0</ele><time>2026-04-17T10:32:05.879Z</time></trkpt><trkpt lat="46.20000501683724" lon="11.089510187276641"><ele>810.0</ele><time>2026-04-17T10:32:06.878Z</time></trkpt><trkpt lat="46.20061196569132" lon="11.088952441288985"><ele>787.0</ele><time>2026-04-17T10:32:07.878Z</time></trkpt><trkpt lat="46.20121922871268" lon="11.088396813320422"><ele>732.0</ele><time>2026-04-17T10:32:08.878Z</time></trkpt><trkpt lat="46.20183121364267" lon="11.08785229152081"><ele>674.0</ele><time>2026-04-17T10:32:09.878Z</time></trkpt><trkpt lat="46.20245407178814" lon="11.087331019700681"><ele>674.0</ele><time>2026-04-17T10:32:10.879Z</time></trkpt><trkpt lat="46.2026464" lon="11.08717"><ele>674.0</ele><time>2026-04-17T10:32:11.878Z</time></trkpt><trkpt lat="46.20325790089439" lon="11.086625511341843"><ele>641.0</ele><time>2026-04-17T10:32:27.877Z</time></trkpt><trkpt lat="46.20387729183551" lon="11.08609564894867"><ele>638.0</ele><time>2026-04-17T10:32:28.878Z</time></trkpt><trkpt lat="46.204508007357205" lon="11.085594274742819"><ele>618.0</ele><time>2026-04-17T10:32:29.879Z</time></trkpt><trkpt lat="46.20514743650071" lon="11.085119696922332"><ele>629.0</ele><time>2026-04-17T10:32:30.878Z</time></trkpt><trkpt lat="46.20580130251845" lon="11.084687865518745"><ele>629.0</ele><time>2026-04-17T10:32:31.878Z</time></trkpt><trkpt lat="46.206461508201286" lon="11.084273166458003"><ele>674.0</ele><time>2026-04-17T10:32:32.879Z</time></trkpt><trkpt lat="46.207133296142516" lon="11.08390389572838"><ele>698.0</ele><time>2026-04-17T10:32:33.878Z</time></trkpt><trkpt lat="46.20781281489698" lon="11.083562419779845"><ele>738.0</ele><time>2026-04-17T10:32:34.878Z</time></trkpt><trkpt lat="46.20849878849038" lon="11.083246107137612"><ele>738.0</ele><time>2026-04-17T10:32:35.879Z</time></trkpt><trkpt lat="46.20919040634045" lon="11.082962624266168"><ele>715.0</ele><time>2026-04-17T10:32:36.878Z</time></trkpt><trkpt lat="46.20988888925689" lon="11.08271298280314"><ele>715.0</ele><time>2026-04-17T10:32:37.878Z</time></trkpt><trkpt lat="46.21059244639359" lon="11.082495795800831"><ele>729.0</ele><time>2026-04-17T10:32:38.878Z</time></trkpt><trkpt lat="46.21130112201974" lon="11.082308005283597"><ele>709.0</ele><time>2026-04-17T10:32:39.879Z</time></trkpt><trkpt lat="46.21201172431189" lon="11.0821508293291"><ele>700.0</ele><time>2026-04-17T10:32:40.878Z</time></trkpt><trkpt lat="46.21272467275355" lon="11.082009198245341"><ele>678.0</ele><time>2026-04-17T10:32:41.878Z</time></trkpt><trkpt lat="46.21343790374341" lon="11.081870366126848"><ele>656.0</ele><time>2026-04-17T10:32:42.878Z</time></trkpt><trkpt lat="46.21415060779152" lon="11.08173343019716"><ele>640.0</ele><time>2026-04-17T10:32:43.877Z</time></trkpt><trkpt lat="46.21486451565308" lon="11.081594302832263"><ele>640.0</ele><time>2026-04-17T10:32:44.878Z</time></trkpt><trkpt lat="46.21557750776814" lon="11.081453189137061"><ele>616.0</ele><time>2026-04-17T10:32:45.878Z</time></trkpt><trkpt lat="46.2162924255969" lon="11.081328996577339"><ele>589.0</ele><time>2026-04-17T10:32:46.878Z</time></trkpt><trkpt lat="46.217004511636596" lon="11.081182464469894"><ele>564.0</ele><time>2026-04-17T10:32:47.878Z</time></trkpt><trkpt lat="46.21771700970128" lon="11.081036640537132"><ele>533.0</ele><time>2026-04-17T10:32:48.878Z</time></trkpt><trkpt lat="46.21843258700268" lon="11.080927986109968"><ele>507.0</ele><time>2026-04-17T10:32:49.878Z</time></trkpt><trkpt lat="46.21915124157924" lon="11.080959034009686"><ele>475.0</ele><time>2026-04-17T10:32:50.878Z</time></trkpt><trkpt lat="46.219856252399104" lon="11.08116265117069"><ele>475.0</ele><time>2026-04-17T10:32:51.878Z</time></trkpt><trkpt lat="46.22054820044587" lon="11.081451282262575"><ele>444.0</ele><time>2026-04-17T10:32:52.879Z</time></trkpt><trkpt lat="46.22116426316702" lon="11.081631212099046"><ele>398.0</ele><time>2026-04-17T10:32:53.878Z</time></trkpt><trkpt lat="46.22179221598418" lon="11.081705273614553"><ele>326.0</ele><time>2026-04-17T10:32:54.879Z</time></trkpt><trkpt lat="46.2224213294755" lon="11.081677953056682"><ele>351.0</ele><time>2026-04-17T10:32:55.879Z</time></trkpt><trkpt lat="46.22304455150371" lon="11.081555867304491"><ele>351.0</ele><time>2026-04-17T10:32:56.878Z</time></trkpt><trkpt lat="46.2227059331475" lon="11.08142874910512"><ele>351.0</ele><time>2026-04-17T10:32:58.878Z</time></trkpt><trkpt lat="46.22198625352351" lon="11.081432376676677"><ele>449.0</ele><time>2026-04-17T10:32:59.879Z</time></trkpt><trkpt lat="46.22127322883868" lon="11.081295749139501"><ele>475.0</ele><time>2026-04-17T10:33:00.879Z</time></trkpt><trkpt lat="46.220580947403626" lon="11.081016754635007"><ele>475.0</ele><time>2026-04-17T10:33:01.878Z</time></trkpt><trkpt lat="46.21989514309548" lon="11.080703605377176"><ele>507.0</ele><time>2026-04-17T10:33:02.878Z</time></trkpt><trkpt lat="46.21918695735154" lon="11.080525084869869"><ele>531.0</ele><time>2026-04-17T10:33:03.878Z</time></trkpt><trkpt lat="46.21846831769679" lon="11.080513021899007"><ele>557.0</ele><time>2026-04-17T10:33:04.877Z</time></trkpt><trkpt lat="46.21775339607562" lon="11.080631537185054"><ele>589.0</ele><time>2026-04-17T10:33:05.878Z</time></trkpt><trkpt lat="46.217040118456495" lon="11.080769770448132"><ele>616.0</ele><time>2026-04-17T10:33:06.878Z</time></trkpt><trkpt lat="46.216325542985416" lon="11.080892081543444"><ele>640.0</ele><time>2026-04-17T10:33:07.878Z</time></trkpt><trkpt lat="46.21561147091066" lon="11.081020821754496"><ele>640.0</ele><time>2026-04-17T10:33:08.878Z</time></trkpt><trkpt lat="46.2148984678454" lon="11.081161610661503"><ele>661.0</ele><time>2026-04-17T10:33:09.878Z</time></trkpt><trkpt lat="46.214188014274015" lon="11.081321342068671"><ele>693.0</ele><time>2026-04-17T10:33:10.877Z</time></trkpt><trkpt lat="46.2134740105687" lon="11.081458431115953"><ele>719.0</ele><time>2026-04-17T10:33:11.878Z</time></trkpt><trkpt lat="46.212759933389016" lon="11.081587240196079"><ele>709.0</ele><time>2026-04-17T10:33:12.878Z</time></trkpt><trkpt lat="46.212045508056086" lon="11.081712413311132"><ele>729.0</ele><time>2026-04-17T10:33:13.878Z</time></trkpt><trkpt lat="46.211332731122695" lon="11.081861750347825"><ele>753.0</ele><time>2026-04-17T10:33:14.879Z</time></trkpt><trkpt lat="46.21062255611083" lon="11.082023907605588"><ele>753.0</ele><time>2026-04-17T10:33:15.878Z</time></trkpt><trkpt lat="46.20991525578685" lon="11.082215359484493"><ele>738.0</ele><time>2026-04-17T10:33:16.878Z</time></trkpt><trkpt lat="46.209212510348394" lon="11.082439358738215"><ele>738.0</ele><time>2026-04-17T10:33:17.878Z</time></trkpt><trkpt lat="46.20851564701309" lon="11.0826979926358"><ele>729.0</ele><time>2026-04-17T10:33:18.878Z</time></trkpt><trkpt lat="46.20782441919732" lon="11.082986604520064"><ele>674.0</ele><time>2026-04-17T10:33:19.878Z</time></trkpt><trkpt lat="46.2071393724786" lon="11.083304767915358"><ele>659.0</ele><time>2026-04-17T10:33:20.878Z</time></trkpt><trkpt lat="46.20646359407889" lon="11.083660739958605"><ele>659.0</ele><time>2026-04-17T10:33:21.878Z</time></trkpt><trkpt lat="46.20579487158099" lon="11.08404391491165"><ele>654.0</ele><time>2026-04-17T10:33:22.878Z</time></trkpt><trkpt lat="46.205133667192804" lon="11.084453322893404"><ele>676.0</ele><time>2026-04-17T10:33:23.878Z</time></trkpt><trkpt lat="46.20448508483282" lon="11.084902253322829"><ele>650.0</ele><time>2026-04-17T10:33:24.878Z</time></trkpt><trkpt lat="46.203844285389664" lon="11.085373960302798"><ele>641.0</ele><time>2026-04-17T10:33:25.878Z</time></trkpt><trkpt lat="46.203213864939535" lon="11.085873279378475"><ele>652.0</ele><time>2026-04-17T10:33:26.877Z</time></trkpt><trkpt lat="46.2025916948934" lon="11.086393141776677"><ele>687.0</ele><time>2026-04-17T10:33:27.877Z</time></trkpt><trkpt lat="46.20197954150582" lon="11.086939897603061"><ele>747.0</ele><time>2026-04-17T10:33:28.878Z</time></trkpt><trkpt lat="46.20136774108405" lon="11.08748580502361"><ele>747.0</ele><time>2026-04-17T10:33:29.878Z</time></trkpt><trkpt lat="46.2007585233597" lon="11.088037662634818"><ele>810.0</ele><time>2026-04-17T10:33:30.878Z</time></trkpt><trkpt lat="46.20014871822587" lon="11.088588263030054"><ele>841.0</ele><time>2026-04-17T10:33:31.878Z</time></trkpt><trkpt lat="46.199537506616124" lon="11.08913546432227"><ele>843.0</ele><time>2026-04-17T10:33:32.878Z</time></trkpt><trkpt lat="46.19892855200671" lon="11.089688619912097"><ele>835.0</ele><time>2026-04-17T10:33:33.878Z</time></trkpt><trkpt lat="46.19832041143298" lon="11.090241430273736"><ele>809.0</ele><time>2026-04-17T10:33:34.877Z</time></trkpt><trkpt lat="46.19770996859404" lon="11.090793395111273"><ele>833.0</ele><time>2026-04-17T10:33:35.879Z</time></trkpt><trkpt lat="46.19710089209147" lon="11.09134335616551"><ele>837.0</ele><time>2026-04-17T10:33:36.878Z</time></trkpt><trkpt lat="46.19649642452366" lon="11.09190564685934"><ele>793.0</ele><time>2026-04-17T10:33:37.877Z</time></trkpt><trkpt lat="46.19589196869869" lon="11.092468017310765"><ele>783.0</ele><time>2026-04-17T10:33:38.877Z</time></trkpt><trkpt lat="46.19529223463217" lon="11.093040416770863"><ele>728.0</ele><time>2026-04-17T10:33:39.877Z</time></trkpt><trkpt lat="46.19473072897875" lon="11.093688046887475"><ele>728.0</ele><time>2026-04-17T10:33:40.877Z</time></trkpt><trkpt lat="46.194171419070585" lon="11.094340070953308"><ele>728.0</ele><time>2026-04-17T10:33:41.877Z</time></trkpt><trkpt lat="46.19364921205847" lon="11.094846602252805"><ele>728.0</ele><time>2026-04-17T10:33:42.878Z</time></trkpt><trkpt lat="46.19310216111053" lon="11.095295416271462"><ele>217.0</ele><time>2026-04-17T10:33:43.877Z</time></trkpt><trkpt lat="46.192559172058914" lon="11.095755491043244"><ele>267.0</ele><time>2026-04-17T10:33:44.878Z</time></trkpt><trkpt lat="46.223778939877576" lon="11.081282984731851"><ele>267.0</ele><time>2026-04-17T10:33:47.999Z</time></trkpt><trkpt lat="46.22397681942782" lon="11.081162259738864"><ele>267.0</ele><time>2026-04-17T10:33:48.999Z</time></trkpt><trkpt lat="46.22418229737865" lon="11.081046318498615"><ele>267.0</ele><time>2026-04-17T10:33:49.999Z</time></trkpt><trkpt lat="46.22439177860987" lon="11.080890648519397"><ele>268.6666666666667</ele><time>2026-04-17T10:33:50.999Z</time></trkpt><trkpt lat="46.22460617322848" lon="11.080730167067111"><ele>270.33333333333337</ele><time>2026-04-17T10:33:51.999Z</time></trkpt><trkpt lat="46.22478216348612" lon="11.080587475699566"><ele>272.0</ele><time>2026-04-17T10:33:53Z</time></trkpt><trkpt lat="46.22496584146184" lon="11.080435576168908"><ele>269.33333333333337</ele><time>2026-04-17T10:33:54Z</time></trkpt><trkpt lat="46.225140134089784" lon="11.080281702103008"><ele>266.6666666666667</ele><time>2026-04-17T10:33:55Z</time></trkpt><trkpt lat="46.225316654193136" lon="11.080094842113757"><ele>264.0</ele><time>2026-04-17T10:33:56Z</time></trkpt><trkpt lat="46.225501379474494" lon="11.079876922418748"><ele>255.66666666666669</ele><time>2026-04-17T10:33:57Z</time></trkpt><trkpt lat="46.225675151083784" lon="11.079681081056227"><ele>247.33333333333334</ele><time>2026-04-17T10:33:58Z</time></trkpt><trkpt lat="46.225843395767946" lon="11.079487528346906"><ele>239.0</ele><time>2026-04-17T10:33:59Z</time></trkpt><trkpt lat="46.22598132464089" lon="11.079238818802805"><ele>239.33333333333334</ele><time>2026-04-17T10:34:00Z</time></trkpt><trkpt lat="46.22610605078418" lon="11.079058308059244"><ele>239.66666666666669</ele><time>2026-04-17T10:34:01Z</time></trkpt><trkpt lat="46.22624269855672" lon="11.078869812307431"><ele>240.0</ele><time>2026-04-17T10:34:02Z</time></trkpt><trkpt lat="46.226371905128815" lon="11.07867749977521"><ele>240.0</ele><time>2026-04-17T10:34:03Z</time></trkpt><trkpt lat="46.226528794287994" lon="11.078480205742883"><ele>240.0</ele><time>2026-04-17T10:34:04Z</time></trkpt><trkpt lat="46.22667301786287" lon="11.078271898867255"><ele>240.0</ele><time>2026-04-17T10:34:05Z</time></trkpt><trkpt lat="46.22678304167393" lon="11.078081715983856"><ele>240.0</ele><time>2026-04-17T10:34:06Z</time></trkpt><trkpt lat="46.226908577751594" lon="11.077909792543677"><ele>240.0</ele><time>2026-04-17T10:34:07Z</time></trkpt><trkpt lat="46.22700781418612" lon="11.077758235175747"><ele>240.0</ele><time>2026-04-17T10:34:08Z</time></trkpt><trkpt lat="46.22709967799269" lon="11.077623147518855"><ele>240.0</ele><time>2026-04-17T10:34:09Z</time></trkpt><trkpt lat="46.227198645794836" lon="11.077512717101847"><ele>240.75</ele><time>2026-04-17T10:34:10Z</time></trkpt><trkpt lat="46.227289370076136" lon="11.077376256945191"><ele>241.5</ele><time>2026-04-17T10:34:11Z</time></trkpt><trkpt lat="46.22735784411896" lon="11.07724258602429"><ele>242.25</ele><time>2026-04-17T10:34:12Z</time></trkpt><trkpt lat="46.22742720891034" lon="11.077099445299073"><ele>243.0</ele><time>2026-04-17T10:34:13Z</time></trkpt><trkpt lat="46.22747410297568" lon="11.076925534739296"><ele>243.0</ele><time>2026-04-17T10:34:14Z</time></trkpt><trkpt lat="46.22749937675314" lon="11.07674040668393"><ele>243.0</ele><time>2026-04-17T10:34:15Z</time></trkpt><trkpt lat="46.22750248889499" lon="11.07655667982474"><ele>243.0</ele><time>2026-04-17T10:34:16Z</time></trkpt><trkpt lat="46.22750437370249" lon="11.076393178826631"><ele>243.0</ele><time>2026-04-17T10:34:17Z</time></trkpt><trkpt lat="46.22751249262495" lon="11.07624040822157"><ele>245.0</ele><time>2026-04-17T10:34:18Z</time></trkpt><trkpt lat="46.22752916146606" lon="11.076078897164697"><ele>247.0</ele><time>2026-04-17T10:34:19Z</time></trkpt><trkpt lat="46.227558429604976" lon="11.075911565334422"><ele>249.0</ele><time>2026-04-17T10:34:20Z</time></trkpt><trkpt lat="46.227600929767874" lon="11.075747253709437"><ele>251.0</ele><time>2026-04-17T10:34:21Z</time></trkpt><trkpt lat="46.22765294856145" lon="11.075587735165048"><ele>252.75</ele><time>2026-04-17T10:34:22Z</time></trkpt><trkpt lat="46.22771002925085" lon="11.075435409326728"><ele>254.5</ele><time>2026-04-17T10:34:23Z</time></trkpt><trkpt lat="46.22778778521877" lon="11.075301163372314"><ele>256.25</ele><time>2026-04-17T10:34:24Z</time></trkpt><trkpt lat="46.22784701017387" lon="11.075141935524883"><ele>258.0</ele><time>2026-04-17T10:34:25Z</time></trkpt><trkpt lat="46.22792604711124" lon="11.074992200254265"><ele>255.75</ele><time>2026-04-17T10:34:26Z</time></trkpt><trkpt lat="46.22800820067513" lon="11.07484511745956"><ele>253.5</ele><time>2026-04-17T10:34:27Z</time></trkpt><trkpt lat="46.228088059159326" lon="11.074698762122965"><ele>251.25</ele><time>2026-04-17T10:34:28Z</time></trkpt><trkpt lat="46.228159661539046" lon="11.074561863478461"><ele>249.0</ele><time>2026-04-17T10:34:29Z</time></trkpt><trkpt lat="46.22822651634611" lon="11.074434259919649"><ele>249.0</ele><time>2026-04-17T10:34:30Z</time></trkpt><trkpt lat="46.22829609499222" lon="11.074293438182517"><ele>249.0</ele><time>2026-04-17T10:34:31Z</time></trkpt><trkpt lat="46.22837164941445" lon="11.074144733623497"><ele>249.0</ele><time>2026-04-17T10:34:32Z</time></trkpt><trkpt lat="46.22845212959677" lon="11.073991579335615"><ele>249.0</ele><time>2026-04-17T10:34:33Z</time></trkpt><trkpt lat="46.22854107537325" lon="11.073835308467482"><ele>253.75</ele><time>2026-04-17T10:34:34Z</time></trkpt><trkpt lat="46.22864144798436" lon="11.073671128672366"><ele>258.5</ele><time>2026-04-17T10:34:35Z</time></trkpt><trkpt lat="46.22873385984891" lon="11.073530253495965"><ele>263.25</ele><time>2026-04-17T10:34:36Z</time></trkpt><trkpt lat="46.228817736483634" lon="11.07341678925485"><ele>268.0</ele><time>2026-04-17T10:34:37Z</time></trkpt><trkpt lat="46.22890562577916" lon="11.073315187079318"><ele>269.5</ele><time>2026-04-17T10:34:38Z</time></trkpt><trkpt lat="46.22900439639323" lon="11.073218126805662"><ele>271.0</ele><time>2026-04-17T10:34:39Z</time></trkpt><trkpt lat="46.22911685069688" lon="11.073124937960527"><ele>272.5</ele><time>2026-04-17T10:34:40Z</time></trkpt><trkpt lat="46.22922903283845" lon="11.073041272487991"><ele>274.0</ele><time>2026-04-17T10:34:41Z</time></trkpt><trkpt lat="46.229329648470674" lon="11.07298512871409"><ele>274.0</ele><time>2026-04-17T10:34:42Z</time></trkpt><trkpt lat="46.229417989674985" lon="11.072935857468229"><ele>274.0</ele><time>2026-04-17T10:34:43Z</time></trkpt><trkpt lat="46.22950321208421" lon="11.072872526555757"><ele>274.0</ele><time>2026-04-17T10:34:44Z</time></trkpt><trkpt lat="46.22958382758145" lon="11.072779165977218"><ele>274.0</ele><time>2026-04-17T10:34:45Z</time></trkpt><trkpt lat="46.229645774153255" lon="11.07265015077803"><ele>274.0</ele><time>2026-04-17T10:34:46Z</time></trkpt><trkpt lat="46.229665698942505" lon="11.072498855330757"><ele>276.8</ele><time>2026-04-17T10:34:47Z</time></trkpt><trkpt lat="46.22966878986702" lon="11.072355062026544"><ele>279.59999999999997</ele><time>2026-04-17T10:34:48Z</time></trkpt><trkpt lat="46.22966158369399" lon="11.072215019337143"><ele>282.4</ele><time>2026-04-17T10:34:49Z</time></trkpt><trkpt lat="46.229650735075815" lon="11.07206671719363"><ele>285.2</ele><time>2026-04-17T10:34:50Z</time></trkpt><trkpt lat="46.229646210296174" lon="11.07191916926845"><ele>288.0</ele><time>2026-04-17T10:34:51Z</time></trkpt><trkpt lat="46.229664032991984" lon="11.071754506641575"><ele>289.6</ele><time>2026-04-17T10:34:52Z</time></trkpt><trkpt lat="46.229703731203" lon="11.071583162455628"><ele>291.20000000000005</ele><time>2026-04-17T10:34:53Z</time></trkpt><trkpt lat="46.22975106974959" lon="11.071437140163681"><ele>292.8</ele><time>2026-04-17T10:34:54Z</time></trkpt><trkpt lat="46.22979431068352" lon="11.071324062693753"><ele>294.40000000000003</ele><time>2026-04-17T10:34:55Z</time></trkpt><trkpt lat="46.2298361588391" lon="11.071204806513203"><ele>296.0</ele><time>2026-04-17T10:34:56Z</time></trkpt><trkpt lat="46.22989182468959" lon="11.071059374004307"><ele>298.0</ele><time>2026-04-17T10:34:57Z</time></trkpt><trkpt lat="46.22997399229598" lon="11.070909804090846"><ele>300.0</ele><time>2026-04-17T10:34:58Z</time></trkpt><trkpt lat="46.23006611548029" lon="11.070778383415504"><ele>302.0</ele><time>2026-04-17T10:34:59Z</time></trkpt><trkpt lat="46.23015984291022" lon="11.070666838462367"><ele>304.0</ele><time>2026-04-17T10:35:00Z</time></trkpt><trkpt lat="46.230253114069754" lon="11.07056102970138"><ele>304.0</ele><time>2026-04-17T10:35:01Z</time></trkpt><trkpt lat="46.23034096326569" lon="11.070446093108506"><ele>304.0</ele><time>2026-04-17T10:35:02Z</time></trkpt><trkpt lat="46.230427033903105" lon="11.070326129389048"><ele>304.0</ele><time>2026-04-17T10:35:03Z</time></trkpt><trkpt lat="46.23051702519855" lon="11.070209929999274"><ele>304.0</ele><time>2026-04-17T10:35:04Z</time></trkpt><trkpt lat="46.2306046716859" lon="11.070090422395852"><ele>301.0</ele><time>2026-04-17T10:35:05Z</time></trkpt><trkpt lat="46.230688828765494" lon="11.069979167451686"><ele>298.0</ele><time>2026-04-17T10:35:06Z</time></trkpt><trkpt lat="46.230770533188824" lon="11.069881551402844"><ele>295.0</ele><time>2026-04-17T10:35:07Z</time></trkpt><trkpt lat="46.23086325537744" lon="11.069804272131954"><ele>292.0</ele><time>2026-04-17T10:35:08Z</time></trkpt><trkpt lat="46.23097424057668" lon="11.069739452878466"><ele>289.0</ele><time>2026-04-17T10:35:09Z</time></trkpt><trkpt lat="46.23109466097054" lon="11.069677548750798"><ele>289.0</ele><time>2026-04-17T10:35:10Z</time></trkpt><trkpt lat="46.23121021020622" lon="11.069621811440596"><ele>289.0</ele><time>2026-04-17T10:35:11Z</time></trkpt><trkpt lat="46.23130339311473" lon="11.069569833233734"><ele>289.0</ele><time>2026-04-17T10:35:12Z</time></trkpt><trkpt lat="46.231390010403395" lon="11.069526025517488"><ele>289.0</ele><time>2026-04-17T10:35:13Z</time></trkpt><trkpt lat="46.23147356544393" lon="11.069483999254437"><ele>289.0</ele><time>2026-04-17T10:35:14Z</time></trkpt><trkpt lat="46.231561398009745" lon="11.069431425525604"><ele>286.0</ele><time>2026-04-17T10:35:15Z</time></trkpt><trkpt lat="46.23165122736127" lon="11.06936169804616"><ele>283.0</ele><time>2026-04-17T10:35:16Z</time></trkpt><trkpt lat="46.231733076629375" lon="11.069271740418847"><ele>280.0</ele><time>2026-04-17T10:35:17Z</time></trkpt><trkpt lat="46.23179042742875" lon="11.069154336858837"><ele>277.0</ele><time>2026-04-17T10:35:18Z</time></trkpt><trkpt lat="46.23183260455517" lon="11.069028994862785"><ele>274.0</ele><time>2026-04-17T10:35:19Z</time></trkpt><trkpt lat="46.231859975900335" lon="11.068877787552893"><ele>273.25</ele><time>2026-04-17T10:35:20Z</time></trkpt><trkpt lat="46.23188331110406" lon="11.068713483903526"><ele>272.5</ele><time>2026-04-17T10:35:21Z</time></trkpt><trkpt lat="46.231914222303374" lon="11.068541521230046"><ele>271.75</ele><time>2026-04-17T10:35:22Z</time></trkpt><trkpt lat="46.23195730826446" lon="11.06837315988691"><ele>271.0</ele><time>2026-04-17T10:35:23Z</time></trkpt><trkpt lat="46.23202427989027" lon="11.068189207536722"><ele>271.0</ele><time>2026-04-17T10:35:24Z</time></trkpt><trkpt lat="46.23209713259585" lon="11.068005378868946"><ele>271.0</ele><time>2026-04-17T10:35:25Z</time></trkpt><trkpt lat="46.23217358513744" lon="11.06781682398747"><ele>271.0</ele><time>2026-04-17T10:35:26.017Z</time></trkpt><trkpt lat="46.23225078152238" lon="11.067632092759236"><ele>271.0</ele><time>2026-04-17T10:35:27.018Z</time></trkpt><trkpt lat="46.23234281901104" lon="11.06745509390876"><ele>273.75</ele><time>2026-04-17T10:35:28.02Z</time></trkpt><trkpt lat="46.232447812018705" lon="11.067287678512287"><ele>276.5</ele><time>2026-04-17T10:35:29.017Z</time></trkpt><trkpt lat="46.232437404016224" lon="11.067092970140573"><ele>279.25</ele><time>2026-04-17T10:35:30.018Z</time></trkpt><trkpt lat="46.232402588591555" lon="11.066976970687408"><ele>282.0</ele><time>2026-04-17T10:35:31.017Z</time></trkpt><trkpt lat="46.232186872555154" lon="11.06623129920202"><ele>283.0</ele><time>2026-04-17T10:35:36.999Z</time></trkpt><trkpt lat="46.232166092193935" lon="11.06607046983573"><ele>284.0</ele><time>2026-04-17T10:35:37.999Z</time></trkpt><trkpt lat="46.232176872945814" lon="11.065880266926426"><ele>285.0</ele><time>2026-04-17T10:35:38.999Z</time></trkpt><trkpt lat="46.232166982298345" lon="11.065695948875273"><ele>286.0</ele><time>2026-04-17T10:35:39.999Z</time></trkpt><trkpt lat="46.232162314728356" lon="11.065495988944303"><ele>284.0</ele><time>2026-04-17T10:35:40.999Z</time></trkpt><trkpt lat="46.23215467281088" lon="11.06529890603293"><ele>282.0</ele><time>2026-04-17T10:35:41.999Z</time></trkpt><trkpt lat="46.23214663474195" lon="11.065127225026446"><ele>280.0</ele><time>2026-04-17T10:35:42.999Z</time></trkpt><trkpt lat="46.2321247409188" lon="11.064952658002833"><ele>278.0</ele><time>2026-04-17T10:35:43.999Z</time></trkpt><trkpt lat="46.232124163924055" lon="11.064760034833087"><ele>275.6666666666667</ele><time>2026-04-17T10:35:44.999Z</time></trkpt><trkpt lat="46.23214364728742" lon="11.064557761895955"><ele>273.3333333333333</ele><time>2026-04-17T10:35:45.999Z</time></trkpt><trkpt lat="46.23214718605256" lon="11.064329393965718"><ele>271.0</ele><time>2026-04-17T10:35:46.999Z</time></trkpt><trkpt lat="46.232192055339205" lon="11.064090217218046"><ele>270.66666666666663</ele><time>2026-04-17T10:35:47.999Z</time></trkpt><trkpt lat="46.23224989299194" lon="11.063857652921824"><ele>270.3333333333333</ele><time>2026-04-17T10:35:48.999Z</time></trkpt><trkpt lat="46.23232215505851" lon="11.063661130443128"><ele>270.0</ele><time>2026-04-17T10:35:49.999Z</time></trkpt><trkpt lat="46.23240148830528" lon="11.06347236910791"><ele>270.0</ele><time>2026-04-17T10:35:50.999Z</time></trkpt><trkpt lat="46.232483157801795" lon="11.063285066688705"><ele>270.0</ele><time>2026-04-17T10:35:51.999Z</time></trkpt><trkpt lat="46.2325603386055" lon="11.063096523063088"><ele>270.0</ele><time>2026-04-17T10:35:52.999Z</time></trkpt><trkpt lat="46.232636574590224" lon="11.062931024910663"><ele>270.0</ele><time>2026-04-17T10:35:53.999Z</time></trkpt><trkpt lat="46.23271059004941" lon="11.062759327445603"><ele>266.0</ele><time>2026-04-17T10:35:54.999Z</time></trkpt><trkpt lat="46.23279238471022" lon="11.062578471221894"><ele>262.0</ele><time>2026-04-17T10:35:55.999Z</time></trkpt><trkpt lat="46.23287676213048" lon="11.062378193647012"><ele>258.0</ele><time>2026-04-17T10:35:56.999Z</time></trkpt><trkpt lat="46.23296101575615" lon="11.062175020427697"><ele>263.5</ele><time>2026-04-17T10:35:57.999Z</time></trkpt><trkpt lat="46.233038434192366" lon="11.061993519422916"><ele>269.0</ele><time>2026-04-17T10:35:59Z</time></trkpt><trkpt lat="46.233121843789554" lon="11.061840108462583"><ele>274.5</ele><time>2026-04-17T10:36:00Z</time></trkpt><trkpt lat="46.23321629429842" lon="11.061711576570021"><ele>280.0</ele><time>2026-04-17T10:36:01Z</time></trkpt><trkpt lat="46.23332672288511" lon="11.061595256038164"><ele>294.0</ele><time>2026-04-17T10:36:02Z</time></trkpt><trkpt lat="46.23345464597734" lon="11.06149516012192"><ele>308.0</ele><time>2026-04-17T10:36:03Z</time></trkpt><trkpt lat="46.23359924888693" lon="11.061415027278425"><ele>322.0</ele><time>2026-04-17T10:36:04Z</time></trkpt><trkpt lat="46.23374789874001" lon="11.061365880458062"><ele>322.0</ele><time>2026-04-17T10:36:05Z</time></trkpt><trkpt lat="46.23390171395422" lon="11.061330212332471"><ele>322.0</ele><time>2026-04-17T10:36:06Z</time></trkpt><trkpt lat="46.234060162017585" lon="11.06128776710629"><ele>322.0</ele><time>2026-04-17T10:36:07Z</time></trkpt><trkpt lat="46.234214892779846" lon="11.061236320387039"><ele>312.66666666666663</ele><time>2026-04-17T10:36:08Z</time></trkpt><trkpt lat="46.2343733252244" lon="11.061181579762481"><ele>303.3333333333333</ele><time>2026-04-17T10:36:09Z</time></trkpt><trkpt lat="46.23453324752856" lon="11.061127843298337"><ele>294.0</ele><time>2026-04-17T10:36:10Z</time></trkpt><trkpt lat="46.234690977792965" lon="11.061081801250293"><ele>290.0</ele><time>2026-04-17T10:36:11Z</time></trkpt><trkpt lat="46.23484714816363" lon="11.061032308546082"><ele>286.0</ele><time>2026-04-17T10:36:12Z</time></trkpt><trkpt lat="46.23499133222236" lon="11.060974670072975"><ele>282.0</ele><time>2026-04-17T10:36:13Z</time></trkpt><trkpt lat="46.23512076786218" lon="11.06090610000245"><ele>278.0</ele><time>2026-04-17T10:36:14Z</time></trkpt><trkpt lat="46.23525433358445" lon="11.060808382011928"><ele>288.0</ele><time>2026-04-17T10:36:15Z</time></trkpt><trkpt lat="46.2353814971876" lon="11.060663190472225"><ele>298.0</ele><time>2026-04-17T10:36:16Z</time></trkpt><trkpt lat="46.23550211702265" lon="11.060501490401352"><ele>308.0</ele><time>2026-04-17T10:36:17Z</time></trkpt><trkpt lat="46.23561228543402" lon="11.060316937579266"><ele>304.6666666666667</ele><time>2026-04-17T10:36:18Z</time></trkpt><trkpt lat="46.23570836599929" lon="11.06012759181521"><ele>301.3333333333333</ele><time>2026-04-17T10:36:19Z</time></trkpt><trkpt lat="46.235775107436325" lon="11.059936727811808"><ele>298.0</ele><time>2026-04-17T10:36:20Z</time></trkpt><trkpt lat="46.23583788318051" lon="11.059756585689705"><ele>298.0</ele><time>2026-04-17T10:36:21Z</time></trkpt><trkpt lat="46.23590323597387" lon="11.059605219163037"><ele>298.0</ele><time>2026-04-17T10:36:22Z</time></trkpt><trkpt lat="46.235989987082995" lon="11.059480225962904"><ele>298.0</ele><time>2026-04-17T10:36:23Z</time></trkpt><trkpt lat="46.23609274142286" lon="11.05936989217679"><ele>298.0</ele><time>2026-04-17T10:36:24Z</time></trkpt><trkpt lat="46.23620477280087" lon="11.059296812225796"><ele>298.0</ele><time>2026-04-17T10:36:25Z</time></trkpt><trkpt lat="46.23631737371024" lon="11.059250565037566"><ele>298.0</ele><time>2026-04-17T10:36:26Z</time></trkpt><trkpt lat="46.23643624208301" lon="11.059214798841264"><ele>298.0</ele><time>2026-04-17T10:36:27Z</time></trkpt><trkpt lat="46.23655937306395" lon="11.059184406857321"><ele>298.0</ele><time>2026-04-17T10:36:28Z</time></trkpt><trkpt lat="46.23668560983966" lon="11.059167406001967"><ele>298.0</ele><time>2026-04-17T10:36:29Z</time></trkpt><trkpt lat="46.23681470229705" lon="11.059116173645387"><ele>298.0</ele><time>2026-04-17T10:36:30Z</time></trkpt><trkpt lat="46.236933819057626" lon="11.05903550626254"><ele>298.0</ele><time>2026-04-17T10:36:31Z</time></trkpt><trkpt lat="46.23704093053674" lon="11.058936313067743"><ele>298.0</ele><time>2026-04-17T10:36:32Z</time></trkpt><trkpt lat="46.23714732689299" lon="11.058817817639055"><ele>298.0</ele><time>2026-04-17T10:36:33Z</time></trkpt><trkpt lat="46.237238055698185" lon="11.058673932178273"><ele>298.0</ele><time>2026-04-17T10:36:34Z</time></trkpt><trkpt lat="46.237311698237924" lon="11.058520593291401"><ele>298.0</ele><time>2026-04-17T10:36:35Z</time></trkpt><trkpt lat="46.23737198841507" lon="11.05835757660443"><ele>298.0</ele><time>2026-04-17T10:36:36Z</time></trkpt><trkpt lat="46.23743273615941" lon="11.058187488057344"><ele>291.25</ele><time>2026-04-17T10:36:37Z</time></trkpt><trkpt lat="46.23744209800651" lon="11.057992764173122"><ele>284.5</ele><time>2026-04-17T10:36:38Z</time></trkpt><trkpt lat="46.237457302703824" lon="11.0578005062281"><ele>277.75</ele><time>2026-04-17T10:36:39Z</time></trkpt><trkpt lat="46.23746517431059" lon="11.057599469769368"><ele>271.0</ele><time>2026-04-17T10:36:40Z</time></trkpt><trkpt lat="46.23747788089798" lon="11.05741414855988"><ele>270.5</ele><time>2026-04-17T10:36:41Z</time></trkpt><trkpt lat="46.23749396911136" lon="11.05724272455746"><ele>270.0</ele><time>2026-04-17T10:36:42Z</time></trkpt><trkpt lat="46.23752136831496" lon="11.057069411177693"><ele>269.5</ele><time>2026-04-17T10:36:43Z</time></trkpt><trkpt lat="46.2375685309279" lon="11.056889246058459"><ele>269.0</ele><time>2026-04-17T10:36:44Z</time></trkpt><trkpt lat="46.23763445922041" lon="11.056709233783852"><ele>269.75</ele><time>2026-04-17T10:36:45Z</time></trkpt><trkpt lat="46.23771592087537" lon="11.05654947692305"><ele>270.5</ele><time>2026-04-17T10:36:46Z</time></trkpt><trkpt lat="46.23780947526257" lon="11.056404369806591"><ele>271.25</ele><time>2026-04-17T10:36:47Z</time></trkpt><trkpt lat="46.237910739352614" lon="11.056285915348717"><ele>272.0</ele><time>2026-04-17T10:36:48Z</time></trkpt><trkpt lat="46.23802249582295" lon="11.056185511163962"><ele>270.0</ele><time>2026-04-17T10:36:49Z</time></trkpt><trkpt lat="46.238146804282486" lon="11.056110145024443"><ele>268.0</ele><time>2026-04-17T10:36:50Z</time></trkpt><trkpt lat="46.23827724047123" lon="11.056052317121717"><ele>266.0</ele><time>2026-04-17T10:36:51Z</time></trkpt><trkpt lat="46.238405729855614" lon="11.056019520305773"><ele>264.0</ele><time>2026-04-17T10:36:52Z</time></trkpt><trkpt lat="46.238532563266986" lon="11.05601247044779"><ele>264.0</ele><time>2026-04-17T10:36:53Z</time></trkpt><trkpt lat="46.23866469002187" lon="11.056032986931438"><ele>264.0</ele><time>2026-04-17T10:36:54Z</time></trkpt><trkpt lat="46.238798048398486" lon="11.056078504344297"><ele>264.0</ele><time>2026-04-17T10:36:55Z</time></trkpt><trkpt lat="46.23893645812853" lon="11.056147041524483"><ele>264.0</ele><time>2026-04-17T10:36:56Z</time></trkpt><trkpt lat="46.239083290643585" lon="11.056231618365995"><ele>268.0</ele><time>2026-04-17T10:36:57Z</time></trkpt><trkpt lat="46.23924881471236" lon="11.056326289915908"><ele>272.0</ele><time>2026-04-17T10:36:58Z</time></trkpt><trkpt lat="46.23942922639424" lon="11.056414730833835"><ele>276.0</ele><time>2026-04-17T10:36:59Z</time></trkpt><trkpt lat="46.23959318381308" lon="11.05650053492875"><ele>276.0</ele><time>2026-04-17T10:37:00Z</time></trkpt><trkpt lat="46.23974653728497" lon="11.056589336351566"><ele>276.0</ele><time>2026-04-17T10:37:01Z</time></trkpt><trkpt lat="46.23989569212394" lon="11.056682900204882"><ele>276.0</ele><time>2026-04-17T10:37:02Z</time></trkpt><trkpt lat="46.240052375300024" lon="11.056786020779054"><ele>272.6666666666667</ele><time>2026-04-17T10:37:03Z</time></trkpt><trkpt lat="46.240205735675026" lon="11.056891960701135"><ele>269.33333333333337</ele><time>2026-04-17T10:37:04Z</time></trkpt><trkpt lat="46.24035187653519" lon="11.05699599027244"><ele>266.0</ele><time>2026-04-17T10:37:05Z</time></trkpt><trkpt lat="46.24050501959421" lon="11.057102976244948"><ele>265.0</ele><time>2026-04-17T10:37:06Z</time></trkpt><trkpt lat="46.240654596381795" lon="11.057210497486265"><ele>264.0</ele><time>2026-04-17T10:37:07Z</time></trkpt><trkpt lat="46.240797801527506" lon="11.057327655643762"><ele>263.0</ele><time>2026-04-17T10:37:08Z</time></trkpt><trkpt lat="46.24093548331034" lon="11.057472539764198"><ele>263.0</ele><time>2026-04-17T10:37:09Z</time></trkpt><trkpt lat="46.24106871163286" lon="11.057634512575742"><ele>263.0</ele><time>2026-04-17T10:37:10Z</time></trkpt><trkpt lat="46.24119363991565" lon="11.057796857599538"><ele>263.0</ele><time>2026-04-17T10:37:11Z</time></trkpt><trkpt lat="46.24130863215561" lon="11.05795888454438"><ele>263.0</ele><time>2026-04-17T10:37:12Z</time></trkpt><trkpt lat="46.241423316094114" lon="11.058124166210266"><ele>263.0</ele><time>2026-04-17T10:37:13Z</time></trkpt><trkpt lat="46.24154016326191" lon="11.058275432822457"><ele>263.0</ele><time>2026-04-17T10:37:14Z</time></trkpt><trkpt lat="46.24166900851857" lon="11.058409271588006"><ele>262.33333333333337</ele><time>2026-04-17T10:37:15Z</time></trkpt><trkpt lat="46.2418125030469" lon="11.058512845538512"><ele>261.6666666666667</ele><time>2026-04-17T10:37:16Z</time></trkpt><trkpt lat="46.24197045600085" lon="11.058591248639948"><ele>261.0</ele><time>2026-04-17T10:37:17Z</time></trkpt><trkpt lat="46.242130741907204" lon="11.05865589679303"><ele>261.0</ele><time>2026-04-17T10:37:18Z</time></trkpt><trkpt lat="46.242285515716055" lon="11.05870340661417"><ele>261.0</ele><time>2026-04-17T10:37:19Z</time></trkpt><trkpt lat="46.24244171805718" lon="11.058744680477675"><ele>261.0</ele><time>2026-04-17T10:37:20Z</time></trkpt><trkpt lat="46.242597695138855" lon="11.058786779786402"><ele>261.6666666666667</ele><time>2026-04-17T10:37:21Z</time></trkpt><trkpt lat="46.242750457235886" lon="11.058827412373875"><ele>262.33333333333337</ele><time>2026-04-17T10:37:22Z</time></trkpt><trkpt lat="46.24290342367608" lon="11.058872761855568"><ele>263.0</ele><time>2026-04-17T10:37:23Z</time></trkpt><trkpt lat="46.243052450992074" lon="11.058909168609022"><ele>264.25</ele><time>2026-04-17T10:37:24Z</time></trkpt><trkpt lat="46.24319424677601" lon="11.058933205710863"><ele>265.5</ele><time>2026-04-17T10:37:25Z</time></trkpt><trkpt lat="46.24332849121508" lon="11.058939311507592"><ele>266.75</ele><time>2026-04-17T10:37:26Z</time></trkpt><trkpt lat="46.24344940299605" lon="11.058914675554707"><ele>268.0</ele><time>2026-04-17T10:37:27Z</time></trkpt><trkpt lat="46.243555315453925" lon="11.058875148446713"><ele>268.0</ele><time>2026-04-17T10:37:28Z</time></trkpt><trkpt lat="46.24364817412505" lon="11.058822867355229"><ele>268.0</ele><time>2026-04-17T10:37:29Z</time></trkpt><trkpt lat="46.24374599157646" lon="11.05874947330573"><ele>268.0</ele><time>2026-04-17T10:37:30Z</time></trkpt><trkpt lat="46.24385019278653" lon="11.058633161495115"><ele>268.0</ele><time>2026-04-17T10:37:31Z</time></trkpt><trkpt lat="46.24395167400166" lon="11.05846391369109"><ele>268.0</ele><time>2026-04-17T10:37:32Z</time></trkpt><trkpt lat="46.24403837507568" lon="11.058298089993723"><ele>268.0</ele><time>2026-04-17T10:37:33Z</time></trkpt><trkpt lat="46.24411912783574" lon="11.058150423162983"><ele>268.0</ele><time>2026-04-17T10:37:34Z</time></trkpt><trkpt lat="46.244205339347474" lon="11.057997368719022"><ele>268.0</ele><time>2026-04-17T10:37:35Z</time></trkpt><trkpt lat="46.24429632074046" lon="11.057835935063972"><ele>270.3333333333333</ele><time>2026-04-17T10:37:36Z</time></trkpt><trkpt lat="46.244383039092014" lon="11.05766838883496"><ele>272.6666666666667</ele><time>2026-04-17T10:37:37Z</time></trkpt><trkpt lat="46.24447999587613" lon="11.057503882269561"><ele>275.0</ele><time>2026-04-17T10:37:38Z</time></trkpt><trkpt lat="46.244612709943034" lon="11.057336687688322"><ele>275.33333333333337</ele><time>2026-04-17T10:37:39Z</time></trkpt><trkpt lat="46.24474016284362" lon="11.057198758770248"><ele>275.6666666666667</ele><time>2026-04-17T10:37:40Z</time></trkpt><trkpt lat="46.244861420510354" lon="11.05707986197185"><ele>276.0</ele><time>2026-04-17T10:37:41Z</time></trkpt><trkpt lat="46.2449890462697" lon="11.056978733892159"><ele>276.3333333333333</ele><time>2026-04-17T10:37:42Z</time></trkpt><trkpt lat="46.24514091282775" lon="11.056878678732973"><ele>276.66666666666663</ele><time>2026-04-17T10:37:43Z</time></trkpt><trkpt lat="46.24530625841578" lon="11.056793350568132"><ele>277.0</ele><time>2026-04-17T10:37:44Z</time></trkpt><trkpt lat="46.24546444512091" lon="11.056732242943129"><ele>275.0</ele><time>2026-04-17T10:37:45Z</time></trkpt><trkpt lat="46.24563457869563" lon="11.05669018263452"><ele>273.0</ele><time>2026-04-17T10:37:45.999Z</time></trkpt><trkpt lat="46.24580872377881" lon="11.056664314223575"><ele>271.0</ele><time>2026-04-17T10:37:46.999Z</time></trkpt><trkpt lat="46.24598045533437" lon="11.056662902280465"><ele>271.0</ele><time>2026-04-17T10:37:47.999Z</time></trkpt><trkpt lat="46.24615255274895" lon="11.056686414290605"><ele>271.0</ele><time>2026-04-17T10:37:48.999Z</time></trkpt><trkpt lat="46.246332009906105" lon="11.056734036874614"><ele>271.0</ele><time>2026-04-17T10:37:49.999Z</time></trkpt><trkpt lat="46.24654040289074" lon="11.056815638159627"><ele>271.3333333333333</ele><time>2026-04-17T10:37:50.999Z</time></trkpt><trkpt lat="46.246746047270285" lon="11.056902149153185"><ele>271.6666666666667</ele><time>2026-04-17T10:37:51.999Z</time></trkpt><trkpt lat="46.246960383737076" lon="11.057024145645931"><ele>272.0</ele><time>2026-04-17T10:37:52.999Z</time></trkpt><trkpt lat="46.24721369629145" lon="11.057141369241211"><ele>275.0</ele><time>2026-04-17T10:37:53.999Z</time></trkpt><trkpt lat="46.24748762919742" lon="11.05726936089666"><ele>278.0</ele><time>2026-04-17T10:37:54.999Z</time></trkpt><trkpt lat="46.24776840389581" lon="11.057402656209353"><ele>273.5</ele><time>2026-04-17T10:37:55.999Z</time></trkpt><trkpt lat="46.24803519301687" lon="11.057527696377148"><ele>269.0</ele><time>2026-04-17T10:37:56.999Z</time></trkpt><trkpt lat="46.2483009809835" lon="11.0576526336839"><ele>269.0</ele><time>2026-04-17T10:37:57.999Z</time></trkpt><trkpt lat="46.24854377953581" lon="11.057755797183212"><ele>269.0</ele><time>2026-04-17T10:37:58.999Z</time></trkpt><trkpt lat="46.2487687031343" lon="11.057864179044994"><ele>271.0</ele><time>2026-04-17T10:37:59.999Z</time></trkpt><trkpt lat="46.24897672668882" lon="11.057957835454584"><ele>273.0</ele><time>2026-04-17T10:38:00.999Z</time></trkpt><trkpt lat="46.249175766505786" lon="11.058032923646394"><ele>275.0</ele><time>2026-04-17T10:38:01.999Z</time></trkpt><trkpt lat="46.24938118144936" lon="11.058076237487168"><ele>275.0</ele><time>2026-04-17T10:38:02.999Z</time></trkpt><trkpt lat="46.2495997134507" lon="11.058101197886547"><ele>275.0</ele><time>2026-04-17T10:38:03.999Z</time></trkpt><trkpt lat="46.24981889476572" lon="11.058103850582617"><ele>275.0</ele><time>2026-04-17T10:38:05Z</time></trkpt><trkpt lat="46.25004152215216" lon="11.058084624449156"><ele>272.0</ele><time>2026-04-17T10:38:06Z</time></trkpt><trkpt lat="46.25026417144057" lon="11.058037503833823"><ele>269.0</ele><time>2026-04-17T10:38:07Z</time></trkpt><trkpt lat="46.250484544928504" lon="11.057966747420288"><ele>269.33333333333337</ele><time>2026-04-17T10:38:08Z</time></trkpt><trkpt lat="46.25068454163644" lon="11.057885982239"><ele>269.6666666666667</ele><time>2026-04-17T10:38:09Z</time></trkpt><trkpt lat="46.25087371805637" lon="11.05781594089136"><ele>270.0</ele><time>2026-04-17T10:38:10Z</time></trkpt><trkpt lat="46.25107098035793" lon="11.057760040686235"><ele>270.0</ele><time>2026-04-17T10:38:11Z</time></trkpt><trkpt lat="46.25129055257924" lon="11.05773377979052"><ele>270.0</ele><time>2026-04-17T10:38:12Z</time></trkpt><trkpt lat="46.25152983680748" lon="11.057733996026087"><ele>271.5</ele><time>2026-04-17T10:38:13Z</time></trkpt><trkpt lat="46.251774330641425" lon="11.057753115370824"><ele>273.0</ele><time>2026-04-17T10:38:14Z</time></trkpt><trkpt lat="46.25200598346481" lon="11.057785042328431"><ele>273.0</ele><time>2026-04-17T10:38:15Z</time></trkpt><trkpt lat="46.25223118763424" lon="11.057820463376599"><ele>273.0</ele><time>2026-04-17T10:38:16Z</time></trkpt><trkpt lat="46.25245246683201" lon="11.05785910506922"><ele>273.0</ele><time>2026-04-17T10:38:17Z</time></trkpt><trkpt lat="46.25266245135185" lon="11.057897080387189"><ele>273.6666666666667</ele><time>2026-04-17T10:38:18Z</time></trkpt><trkpt lat="46.25287544692388" lon="11.057935154196201"><ele>274.33333333333337</ele><time>2026-04-17T10:38:19Z</time></trkpt><trkpt lat="46.25309039561162" lon="11.05797553730708"><ele>275.0</ele><time>2026-04-17T10:38:20Z</time></trkpt><trkpt lat="46.2532950458396" lon="11.058015748940562"><ele>275.0</ele><time>2026-04-17T10:38:21Z</time></trkpt><trkpt lat="46.25349075618914" lon="11.058055203502668"><ele>275.0</ele><time>2026-04-17T10:38:22Z</time></trkpt><trkpt lat="46.253686041404556" lon="11.058095992130555"><ele>275.0</ele><time>2026-04-17T10:38:23Z</time></trkpt><trkpt lat="46.253883853971864" lon="11.058138731236607"><ele>277.5</ele><time>2026-04-17T10:38:24Z</time></trkpt><trkpt lat="46.254093140677405" lon="11.058171831849862"><ele>280.0</ele><time>2026-04-17T10:38:25Z</time></trkpt><trkpt lat="46.25433238921072" lon="11.058231839095908"><ele>280.0</ele><time>2026-04-17T10:38:26Z</time></trkpt><trkpt lat="46.25458744215434" lon="11.058280892028174"><ele>280.0</ele><time>2026-04-17T10:38:27Z</time></trkpt><trkpt lat="46.25485777130275" lon="11.058332882901706"><ele>277.0</ele><time>2026-04-17T10:38:28Z</time></trkpt><trkpt lat="46.255123419011625" lon="11.058383973182343"><ele>274.0</ele><time>2026-04-17T10:38:29Z</time></trkpt><trkpt lat="46.2553624778274" lon="11.058430029009031"><ele>274.0</ele><time>2026-04-17T10:38:30Z</time></trkpt><trkpt lat="46.255586555469286" lon="11.0584589210269"><ele>274.0</ele><time>2026-04-17T10:38:31Z</time></trkpt><trkpt lat="46.25580230173187" lon="11.058510640717348"><ele>274.0</ele><time>2026-04-17T10:38:32Z</time></trkpt><trkpt lat="46.25601598826274" lon="11.058549011462192"><ele>275.3333333333333</ele><time>2026-04-17T10:38:33Z</time></trkpt><trkpt lat="46.25621618841223" lon="11.058584020112873"><ele>276.6666666666667</ele><time>2026-04-17T10:38:34Z</time></trkpt><trkpt lat="46.25641886607467" lon="11.058620655409031"><ele>278.0</ele><time>2026-04-17T10:38:35Z</time></trkpt><trkpt lat="46.25661785225348" lon="11.058640194155373"><ele>280.33333333333337</ele><time>2026-04-17T10:38:36Z</time></trkpt><trkpt lat="46.256807077768386" lon="11.05863233886327"><ele>282.6666666666667</ele><time>2026-04-17T10:38:37Z</time></trkpt><trkpt lat="46.25700034687697" lon="11.058605346532497"><ele>285.0</ele><time>2026-04-17T10:38:38Z</time></trkpt><trkpt lat="46.25720343042465" lon="11.058549818445863"><ele>284.6666666666667</ele><time>2026-04-17T10:38:39Z</time></trkpt><trkpt lat="46.25738608695725" lon="11.058481322945395"><ele>284.33333333333337</ele><time>2026-04-17T10:38:40Z</time></trkpt><trkpt lat="46.257563283669214" lon="11.058396532397321"><ele>284.0</ele><time>2026-04-17T10:38:41Z</time></trkpt><trkpt lat="46.257750128600826" lon="11.058275594115921"><ele>288.5</ele><time>2026-04-17T10:38:42Z</time></trkpt><trkpt lat="46.25795067608408" lon="11.058125459461044"><ele>293.0</ele><time>2026-04-17T10:38:43Z</time></trkpt><trkpt lat="46.25817286429334" lon="11.057954733126856"><ele>293.0</ele><time>2026-04-17T10:38:44Z</time></trkpt><trkpt lat="46.25839626268823" lon="11.05778137908155"><ele>293.0</ele><time>2026-04-17T10:38:45Z</time></trkpt><trkpt lat="46.25860354217571" lon="11.05763691935078"><ele>293.0</ele><time>2026-04-17T10:38:46Z</time></trkpt><trkpt lat="46.2588090808183" lon="11.057493309802128"><ele>293.0</ele><time>2026-04-17T10:38:47Z</time></trkpt><trkpt lat="46.25901191396582" lon="11.057335938480483"><ele>296.33333333333337</ele><time>2026-04-17T10:38:48Z</time></trkpt><trkpt lat="46.25919564938743" lon="11.057205021041364"><ele>299.6666666666667</ele><time>2026-04-17T10:38:49Z</time></trkpt><trkpt lat="46.259373044864304" lon="11.05710490744353"><ele>303.0</ele><time>2026-04-17T10:38:50Z</time></trkpt><trkpt lat="46.25954445216893" lon="11.057026155793505"><ele>303.0</ele><time>2026-04-17T10:38:51Z</time></trkpt><trkpt lat="46.25972826641006" lon="11.05695721075621"><ele>303.0</ele><time>2026-04-17T10:38:52Z</time></trkpt><trkpt lat="46.259926134289444" lon="11.056897960262877"><ele>303.0</ele><time>2026-04-17T10:38:53Z</time></trkpt><trkpt lat="46.2601390449414" lon="11.056851322821787"><ele>302.6666666666667</ele><time>2026-04-17T10:38:54Z</time></trkpt><trkpt lat="46.26033799464476" lon="11.056821897863964"><ele>302.33333333333337</ele><time>2026-04-17T10:38:55Z</time></trkpt><trkpt lat="46.260514015176454" lon="11.056807270377108"><ele>302.0</ele><time>2026-04-17T10:38:56Z</time></trkpt><trkpt lat="46.26069469062065" lon="11.05680263718213"><ele>302.0</ele><time>2026-04-17T10:38:57Z</time></trkpt><trkpt lat="46.2608958837088" lon="11.05681658323427"><ele>302.0</ele><time>2026-04-17T10:38:58Z</time></trkpt><trkpt lat="46.26109040013229" lon="11.056843032580497"><ele>302.0</ele><time>2026-04-17T10:38:59Z</time></trkpt><trkpt lat="46.26127468985098" lon="11.056881247562155"><ele>304.6666666666667</ele><time>2026-04-17T10:39:00Z</time></trkpt><trkpt lat="46.26147589834063" lon="11.056939353930531"><ele>307.3333333333333</ele><time>2026-04-17T10:39:01Z</time></trkpt><trkpt lat="46.26167943743644" lon="11.057019857125221"><ele>310.0</ele><time>2026-04-17T10:39:02Z</time></trkpt><trkpt lat="46.26188938942293" lon="11.057137183902038"><ele>310.0</ele><time>2026-04-17T10:39:03Z</time></trkpt><trkpt lat="46.26211479361421" lon="11.057276472253085"><ele>310.0</ele><time>2026-04-17T10:39:04Z</time></trkpt><trkpt lat="46.262311863874494" lon="11.05741234280492"><ele>307.3333333333333</ele><time>2026-04-17T10:39:05Z</time></trkpt><trkpt lat="46.262489102169546" lon="11.05754021612405"><ele>304.6666666666667</ele><time>2026-04-17T10:39:06Z</time></trkpt><trkpt lat="46.262649040304574" lon="11.057670973334545"><ele>302.0</ele><time>2026-04-17T10:39:07Z</time></trkpt><trkpt lat="46.26280911430277" lon="11.057821873019023"><ele>302.0</ele><time>2026-04-17T10:39:08Z</time></trkpt><trkpt lat="46.26296118700821" lon="11.057982567104977"><ele>302.0</ele><time>2026-04-17T10:39:09Z</time></trkpt><trkpt lat="46.26308693998314" lon="11.058124131332475"><ele>302.0</ele><time>2026-04-17T10:39:10Z</time></trkpt><trkpt lat="46.263204673667644" lon="11.058266638041479"><ele>300.75</ele><time>2026-04-17T10:39:11Z</time></trkpt><trkpt lat="46.263318688625226" lon="11.058420728007526"><ele>299.5</ele><time>2026-04-17T10:39:12Z</time></trkpt><trkpt lat="46.26342096762331" lon="11.058574747994816"><ele>298.25</ele><time>2026-04-17T10:39:13Z</time></trkpt><trkpt lat="46.263513654941825" lon="11.058716974522799"><ele>297.0</ele><time>2026-04-17T10:39:14Z</time></trkpt><trkpt lat="46.26359560759641" lon="11.05885592160299"><ele>297.0</ele><time>2026-04-17T10:39:15Z</time></trkpt><trkpt lat="46.26367657269492" lon="11.059005454793956"><ele>297.0</ele><time>2026-04-17T10:39:16Z</time></trkpt><trkpt lat="46.263757072244154" lon="11.059165684287185"><ele>297.0</ele><time>2026-04-17T10:39:17Z</time></trkpt><trkpt lat="46.2638343259218" lon="11.059322103894893"><ele>297.0</ele><time>2026-04-17T10:39:18Z</time></trkpt><trkpt lat="46.263908998706725" lon="11.05948607671804"><ele>299.75</ele><time>2026-04-17T10:39:19Z</time></trkpt><trkpt lat="46.26398033300063" lon="11.059646999146963"><ele>302.5</ele><time>2026-04-17T10:39:20Z</time></trkpt><trkpt lat="46.26405112823269" lon="11.059807059265834"><ele>305.25</ele><time>2026-04-17T10:39:21Z</time></trkpt><trkpt lat="46.26413094840643" lon="11.059979314409278"><ele>308.0</ele><time>2026-04-17T10:39:22Z</time></trkpt><trkpt lat="46.26422432419423" lon="11.06016395393893"><ele>308.0</ele><time>2026-04-17T10:39:23Z</time></trkpt><trkpt lat="46.26434143862997" lon="11.060343492640484"><ele>308.0</ele><time>2026-04-17T10:39:24Z</time></trkpt><trkpt lat="46.264470631258305" lon="11.060508011519257"><ele>308.0</ele><time>2026-04-17T10:39:25Z</time></trkpt><trkpt lat="46.26459227639393" lon="11.060637413443361"><ele>308.0</ele><time>2026-04-17T10:39:26Z</time></trkpt><trkpt lat="46.26471481726162" lon="11.06075540831206"><ele>308.0</ele><time>2026-04-17T10:39:27Z</time></trkpt><trkpt lat="46.264848257748746" lon="11.06086205552706"><ele>308.0</ele><time>2026-04-17T10:39:28Z</time></trkpt><trkpt lat="46.264982848845094" lon="11.060946389400062"><ele>308.0</ele><time>2026-04-17T10:39:29Z</time></trkpt><trkpt lat="46.26512253032896" lon="11.061006252096075"><ele>308.33333333333337</ele><time>2026-04-17T10:39:30Z</time></trkpt><trkpt lat="46.26526797701909" lon="11.061051253120317"><ele>308.6666666666667</ele><time>2026-04-17T10:39:31Z</time></trkpt><trkpt lat="46.26543873905831" lon="11.061072881107126"><ele>309.0</ele><time>2026-04-17T10:39:32Z</time></trkpt><trkpt lat="46.26563855903143" lon="11.061074965578047"><ele>309.3333333333333</ele><time>2026-04-17T10:39:33Z</time></trkpt><trkpt lat="46.265860040325585" lon="11.061079566667106"><ele>309.66666666666663</ele><time>2026-04-17T10:39:34Z</time></trkpt><trkpt lat="46.266070802730646" lon="11.061104501430389"><ele>310.0</ele><time>2026-04-17T10:39:35Z</time></trkpt><trkpt lat="46.266249445417955" lon="11.061146327911253"><ele>310.0</ele><time>2026-04-17T10:39:36Z</time></trkpt><trkpt lat="46.266428847902844" lon="11.061206810342599"><ele>310.0</ele><time>2026-04-17T10:39:37Z</time></trkpt><trkpt lat="46.26659687746385" lon="11.061295287862013"><ele>310.0</ele><time>2026-04-17T10:39:38Z</time></trkpt><trkpt lat="46.26675607124995" lon="11.061403057883672"><ele>310.3333333333333</ele><time>2026-04-17T10:39:39Z</time></trkpt><trkpt lat="46.26690364364685" lon="11.06152570640929"><ele>310.6666666666667</ele><time>2026-04-17T10:39:40Z</time></trkpt><trkpt lat="46.267046512667385" lon="11.061672334691988"><ele>311.0</ele><time>2026-04-17T10:39:41Z</time></trkpt><trkpt lat="46.26719333713376" lon="11.06185310598091"><ele>311.0</ele><time>2026-04-17T10:39:42Z</time></trkpt><trkpt lat="46.26734016709959" lon="11.06205170847279"><ele>311.0</ele><time>2026-04-17T10:39:43Z</time></trkpt><trkpt lat="46.26750298299196" lon="11.062264051994674"><ele>311.0</ele><time>2026-04-17T10:39:44Z</time></trkpt><trkpt lat="46.26763960509353" lon="11.062451132037456"><ele>309.6666666666667</ele><time>2026-04-17T10:39:45Z</time></trkpt><trkpt lat="46.26776553378192" lon="11.062597098926812"><ele>308.3333333333333</ele><time>2026-04-17T10:39:46Z</time></trkpt><trkpt lat="46.267895836377235" lon="11.06270647360976"><ele>307.0</ele><time>2026-04-17T10:39:46.999Z</time></trkpt><trkpt lat="46.26803868626767" lon="11.062799784607392"><ele>310.3333333333333</ele><time>2026-04-17T10:39:47.999Z</time></trkpt><trkpt lat="46.26818514062523" lon="11.062883799636207"><ele>313.6666666666667</ele><time>2026-04-17T10:39:48.999Z</time></trkpt><trkpt lat="46.268335491323015" lon="11.062945980712385"><ele>317.0</ele><time>2026-04-17T10:39:49.999Z</time></trkpt><trkpt lat="46.26848767326882" lon="11.063002322629115"><ele>317.0</ele><time>2026-04-17T10:39:50.999Z</time></trkpt><trkpt lat="46.2686621127379" lon="11.063062026641909"><ele>317.0</ele><time>2026-04-17T10:39:51.999Z</time></trkpt><trkpt lat="46.268864835199714" lon="11.063142870905725"><ele>317.0</ele><time>2026-04-17T10:39:52.999Z</time></trkpt><trkpt lat="46.26909230031223" lon="11.063193653916553"><ele>315.0</ele><time>2026-04-17T10:39:53.999Z</time></trkpt><trkpt lat="46.26933228523685" lon="11.063278819981461"><ele>313.0</ele><time>2026-04-17T10:39:54.999Z</time></trkpt><trkpt lat="46.2695750912593" lon="11.063361777569602"><ele>302.0</ele><time>2026-04-17T10:39:55.999Z</time></trkpt><trkpt lat="46.269829563281945" lon="11.063440383692216"><ele>291.0</ele><time>2026-04-17T10:39:56.999Z</time></trkpt><trkpt lat="46.27009998617716" lon="11.063518268989265"><ele>291.0</ele><time>2026-04-17T10:39:57.999Z</time></trkpt><trkpt lat="46.270361878911736" lon="11.063593913032632"><ele>291.0</ele><time>2026-04-17T10:39:58.999Z</time></trkpt><trkpt lat="46.27061879001898" lon="11.063667683339846"><ele>293.5</ele><time>2026-04-17T10:39:59.999Z</time></trkpt><trkpt lat="46.27087922643668" lon="11.063740634364937"><ele>296.0</ele><time>2026-04-17T10:40:00.999Z</time></trkpt><trkpt lat="46.271138110298395" lon="11.063807440831482"><ele>296.0</ele><time>2026-04-17T10:40:01.999Z</time></trkpt><trkpt lat="46.2713998546771" lon="11.0638719588984"><ele>296.0</ele><time>2026-04-17T10:40:02.999Z</time></trkpt><trkpt lat="46.271663735199944" lon="11.0639338392776"><ele>298.0</ele><time>2026-04-17T10:40:03.999Z</time></trkpt><trkpt lat="46.27192996306636" lon="11.063990200736953"><ele>300.0</ele><time>2026-04-17T10:40:04.999Z</time></trkpt><trkpt lat="46.27219875377978" lon="11.064067486698518"><ele>313.5</ele><time>2026-04-17T10:40:05.999Z</time></trkpt><trkpt lat="46.272486618569616" lon="11.064128740827774"><ele>327.0</ele><time>2026-04-17T10:40:06.999Z</time></trkpt><trkpt lat="46.272783979924725" lon="11.06419194372111"><ele>327.0</ele><time>2026-04-17T10:40:07.999Z</time></trkpt><trkpt lat="46.27308627728087" lon="11.064256291000051"><ele>327.0</ele><time>2026-04-17T10:40:08.999Z</time></trkpt><trkpt lat="46.27339720104167" lon="11.064306348997942"><ele>328.0</ele><time>2026-04-17T10:40:09.999Z</time></trkpt><trkpt lat="46.273712790457076" lon="11.064385851206152"><ele>329.0</ele><time>2026-04-17T10:40:11Z</time></trkpt><trkpt lat="46.27403152446007" lon="11.064454294279496"><ele>330.0</ele><time>2026-04-17T10:40:12Z</time></trkpt><trkpt lat="46.274353443045904" lon="11.06452366283581"><ele>331.0</ele><time>2026-04-17T10:40:13Z</time></trkpt><trkpt lat="46.27467424459073" lon="11.064594050939698"><ele>333.0</ele><time>2026-04-17T10:40:14Z</time></trkpt><trkpt lat="46.27499130724161" lon="11.064662593926554"><ele>335.0</ele><time>2026-04-17T10:40:15Z</time></trkpt><trkpt lat="46.275277327771924" lon="11.064724866602605"><ele>335.0</ele><time>2026-04-17T10:40:16Z</time></trkpt><trkpt lat="46.27554809136194" lon="11.064789066027116"><ele>335.0</ele><time>2026-04-17T10:40:17Z</time></trkpt><trkpt lat="46.27579500992755" lon="11.064842587228263"><ele>336.0</ele><time>2026-04-17T10:40:18Z</time></trkpt><trkpt lat="46.27601429783902" lon="11.064886505690998"><ele>337.0</ele><time>2026-04-17T10:40:19Z</time></trkpt><trkpt lat="46.27622036591021" lon="11.064925545007828"><ele>338.0</ele><time>2026-04-17T10:40:20Z</time></trkpt><trkpt lat="46.276411241108775" lon="11.064961885879898"><ele>342.6666666666667</ele><time>2026-04-17T10:40:21Z</time></trkpt><trkpt lat="46.27658878524997" lon="11.064982806204602"><ele>347.3333333333333</ele><time>2026-04-17T10:40:22Z</time></trkpt><trkpt lat="46.27676226854068" lon="11.064989392023687"><ele>352.0</ele><time>2026-04-17T10:40:23Z</time></trkpt><trkpt lat="46.27693442533245" lon="11.064984693559055"><ele>352.0</ele><time>2026-04-17T10:40:24Z</time></trkpt><trkpt lat="46.27709735862186" lon="11.06497526572873"><ele>352.0</ele><time>2026-04-17T10:40:25Z</time></trkpt><trkpt lat="46.27726235371263" lon="11.064955049191791"><ele>352.0</ele><time>2026-04-17T10:40:26Z</time></trkpt><trkpt lat="46.27744377998979" lon="11.064916548210327"><ele>351.3333333333333</ele><time>2026-04-17T10:40:27Z</time></trkpt><trkpt lat="46.27760656671392" lon="11.06487139074908"><ele>350.6666666666667</ele><time>2026-04-17T10:40:28Z</time></trkpt><trkpt lat="46.277760976946766" lon="11.064827439099469"><ele>350.0</ele><time>2026-04-17T10:40:29Z</time></trkpt><trkpt lat="46.277917724057325" lon="11.064766391269583"><ele>350.0</ele><time>2026-04-17T10:40:30Z</time></trkpt><trkpt lat="46.27808412586637" lon="11.064669627159647"><ele>350.0</ele><time>2026-04-17T10:40:31Z</time></trkpt><trkpt lat="46.27826906141235" lon="11.064589394623168"><ele>350.0</ele><time>2026-04-17T10:40:32Z</time></trkpt><trkpt lat="46.27846205645104" lon="11.064491066297093"><ele>350.0</ele><time>2026-04-17T10:40:33Z</time></trkpt><trkpt lat="46.278634624679164" lon="11.064258646086836"><ele>350.0</ele><time>2026-04-17T10:40:34Z</time></trkpt><trkpt lat="46.27883444780538" lon="11.064089914234323"><ele>355.0</ele><time>2026-04-17T10:40:35Z</time></trkpt><trkpt lat="46.27904741818949" lon="11.063912746098596"><ele>360.0</ele><time>2026-04-17T10:40:36Z</time></trkpt><trkpt lat="46.27927051598214" lon="11.063727926970241"><ele>360.0</ele><time>2026-04-17T10:40:37Z</time></trkpt><trkpt lat="46.27949902667076" lon="11.06353130555376"><ele>360.0</ele><time>2026-04-17T10:40:38Z</time></trkpt><trkpt lat="46.27973100215153" lon="11.063329508064115"><ele>362.0</ele><time>2026-04-17T10:40:39Z</time></trkpt><trkpt lat="46.27996677923082" lon="11.063128583275361"><ele>364.0</ele><time>2026-04-17T10:40:40Z</time></trkpt><trkpt lat="46.280179236034314" lon="11.062947343392395"><ele>364.0</ele><time>2026-04-17T10:40:41Z</time></trkpt><trkpt lat="46.280386139005984" lon="11.06277857907965"><ele>364.0</ele><time>2026-04-17T10:40:42Z</time></trkpt><trkpt lat="46.280581659063834" lon="11.062634234036459"><ele>366.0</ele><time>2026-04-17T10:40:43Z</time></trkpt><trkpt lat="46.28078750728137" lon="11.06250165157743"><ele>368.0</ele><time>2026-04-17T10:40:44Z</time></trkpt><trkpt lat="46.2810170058202" lon="11.062374234294117"><ele>368.0</ele><time>2026-04-17T10:40:45Z</time></trkpt><trkpt lat="46.28125327248295" lon="11.062254679931208"><ele>368.0</ele><time>2026-04-17T10:40:46Z</time></trkpt><trkpt lat="46.28147899282802" lon="11.062168498013238"><ele>374.0</ele><time>2026-04-17T10:40:47Z</time></trkpt><trkpt lat="46.28169866719009" lon="11.062103244103184"><ele>380.0</ele><time>2026-04-17T10:40:48Z</time></trkpt><trkpt lat="46.2819239476227" lon="11.062056029116107"><ele>380.0</ele><time>2026-04-17T10:40:49Z</time></trkpt><trkpt lat="46.28216699639999" lon="11.062035959389823"><ele>380.0</ele><time>2026-04-17T10:40:50Z</time></trkpt><trkpt lat="46.28240412376573" lon="11.062038899548064"><ele>383.0</ele><time>2026-04-17T10:40:51Z</time></trkpt><trkpt lat="46.28264346693614" lon="11.06206944701011"><ele>386.0</ele><time>2026-04-17T10:40:52Z</time></trkpt><trkpt lat="46.28287391258101" lon="11.062118223868042"><ele>388.0</ele><time>2026-04-17T10:40:53Z</time></trkpt><trkpt lat="46.283106965096" lon="11.062183126699436"><ele>390.0</ele><time>2026-04-17T10:40:54Z</time></trkpt><trkpt lat="46.283347923936425" lon="11.062273054559933"><ele>390.0</ele><time>2026-04-17T10:40:55Z</time></trkpt><trkpt lat="46.283568154586035" lon="11.06237193749519"><ele>390.0</ele><time>2026-04-17T10:40:56Z</time></trkpt><trkpt lat="46.28378248364305" lon="11.062457591563"><ele>397.0</ele><time>2026-04-17T10:40:57Z</time></trkpt><trkpt lat="46.284006209909464" lon="11.062521586907854"><ele>404.0</ele><time>2026-04-17T10:40:58Z</time></trkpt><trkpt lat="46.28423760845894" lon="11.062557200997084"><ele>404.0</ele><time>2026-04-17T10:40:59Z</time></trkpt><trkpt lat="46.28446328256797" lon="11.062552826944309"><ele>404.0</ele><time>2026-04-17T10:41:00Z</time></trkpt><trkpt lat="46.28470086300794" lon="11.062522420147529"><ele>407.5</ele><time>2026-04-17T10:41:01Z</time></trkpt><trkpt lat="46.284950460991126" lon="11.062486587356634"><ele>411.0</ele><time>2026-04-17T10:41:02Z</time></trkpt><trkpt lat="46.28520998190345" lon="11.062481860006644"><ele>411.0</ele><time>2026-04-17T10:41:03Z</time></trkpt><trkpt lat="46.285475942872665" lon="11.062507276052735"><ele>411.0</ele><time>2026-04-17T10:41:04Z</time></trkpt><trkpt lat="46.2857512757686" lon="11.06256239485514"><ele>412.0</ele><time>2026-04-17T10:41:05Z</time></trkpt><trkpt lat="46.28602758531363" lon="11.062604873539676"><ele>413.0</ele><time>2026-04-17T10:41:06Z</time></trkpt><trkpt lat="46.28630876020161" lon="11.062633109524091"><ele>412.5</ele><time>2026-04-17T10:41:07Z</time></trkpt><trkpt lat="46.286599492938095" lon="11.062650551280386"><ele>412.0</ele><time>2026-04-17T10:41:08Z</time></trkpt><trkpt lat="46.28689310368923" lon="11.062652823389815"><ele>412.0</ele><time>2026-04-17T10:41:09Z</time></trkpt><trkpt lat="46.287168450811684" lon="11.062646793561688"><ele>412.0</ele><time>2026-04-17T10:41:10Z</time></trkpt><trkpt lat="46.287409404004826" lon="11.062643808546763"><ele>412.5</ele><time>2026-04-17T10:41:11Z</time></trkpt><trkpt lat="46.287640174710084" lon="11.062650066866459"><ele>413.0</ele><time>2026-04-17T10:41:12Z</time></trkpt><trkpt lat="46.28787643408594" lon="11.062671258388555"><ele>414.0</ele><time>2026-04-17T10:41:13Z</time></trkpt><trkpt lat="46.28812168252703" lon="11.06272864094983"><ele>415.0</ele><time>2026-04-17T10:41:14Z</time></trkpt><trkpt lat="46.288376236450155" lon="11.06281289853805"><ele>415.0</ele><time>2026-04-17T10:41:15Z</time></trkpt><trkpt lat="46.28863133366002" lon="11.062908705633923"><ele>415.0</ele><time>2026-04-17T10:41:16Z</time></trkpt><trkpt lat="46.28887937166649" lon="11.06302306261946"><ele>410.33333333333337</ele><time>2026-04-17T10:41:17Z</time></trkpt><trkpt lat="46.289087433615414" lon="11.063127358707979"><ele>405.66666666666663</ele><time>2026-04-17T10:41:18Z</time></trkpt><trkpt lat="46.28927816390268" lon="11.063245593012772"><ele>401.0</ele><time>2026-04-17T10:41:19Z</time></trkpt><trkpt lat="46.28946189363016" lon="11.063402756151312"><ele>399.5</ele><time>2026-04-17T10:41:20Z</time></trkpt><trkpt lat="46.28964637348093" lon="11.063594733444694"><ele>398.0</ele><time>2026-04-17T10:41:21Z</time></trkpt><trkpt lat="46.28983573100006" lon="11.063804029251033"><ele>398.0</ele><time>2026-04-17T10:41:22Z</time></trkpt><trkpt lat="46.29003026630291" lon="11.064024895990942"><ele>398.0</ele><time>2026-04-17T10:41:23Z</time></trkpt><trkpt lat="46.29023062916139" lon="11.064234045314352"><ele>409.66666666666663</ele><time>2026-04-17T10:41:24Z</time></trkpt><trkpt lat="46.29042440879625" lon="11.064401987555737"><ele>421.33333333333337</ele><time>2026-04-17T10:41:25Z</time></trkpt><trkpt lat="46.29061589422752" lon="11.064530560289208"><ele>433.0</ele><time>2026-04-17T10:41:26Z</time></trkpt><trkpt lat="46.29083164792464" lon="11.06463561344457"><ele>433.0</ele><time>2026-04-17T10:41:27Z</time></trkpt><trkpt lat="46.29105723134625" lon="11.064712854405723"><ele>433.0</ele><time>2026-04-17T10:41:28Z</time></trkpt><trkpt lat="46.29127397171013" lon="11.064772124340108"><ele>436.33333333333337</ele><time>2026-04-17T10:41:29Z</time></trkpt><trkpt lat="46.29145756107267" lon="11.064820765490284"><ele>439.66666666666663</ele><time>2026-04-17T10:41:30Z</time></trkpt><trkpt lat="46.291633472394345" lon="11.064901552787308"><ele>443.0</ele><time>2026-04-17T10:41:31Z</time></trkpt><trkpt lat="46.291805475395044" lon="11.065031762507063"><ele>445.0</ele><time>2026-04-17T10:41:32Z</time></trkpt><trkpt lat="46.29196190756333" lon="11.065187526852714"><ele>447.0</ele><time>2026-04-17T10:41:33Z</time></trkpt><trkpt lat="46.29210951149298" lon="11.065378179637277"><ele>449.0</ele><time>2026-04-17T10:41:34Z</time></trkpt><trkpt lat="46.292264506465344" lon="11.06559734645204"><ele>454.0</ele><time>2026-04-17T10:41:35Z</time></trkpt><trkpt lat="46.29242611129387" lon="11.065837718174823"><ele>459.0</ele><time>2026-04-17T10:41:36Z</time></trkpt><trkpt lat="46.292606420600116" lon="11.06608626157031"><ele>459.0</ele><time>2026-04-17T10:41:37Z</time></trkpt><trkpt lat="46.29279037717861" lon="11.066322409286565"><ele>459.0</ele><time>2026-04-17T10:41:38Z</time></trkpt><trkpt lat="46.29294970155201" lon="11.066522342374311"><ele>460.33333333333337</ele><time>2026-04-17T10:41:39Z</time></trkpt><trkpt lat="46.29310304091084" lon="11.066680979506222"><ele>461.6666666666667</ele><time>2026-04-17T10:41:40Z</time></trkpt><trkpt lat="46.29325526530565" lon="11.066812933016852"><ele>463.0</ele><time>2026-04-17T10:41:41Z</time></trkpt><trkpt lat="46.29342507763361" lon="11.06693742461318"><ele>463.0</ele><time>2026-04-17T10:41:42Z</time></trkpt><trkpt lat="46.293615036961015" lon="11.067048938130176"><ele>463.0</ele><time>2026-04-17T10:41:43Z</time></trkpt><trkpt lat="46.29382966576286" lon="11.067160063658683"><ele>463.0</ele><time>2026-04-17T10:41:44Z</time></trkpt><trkpt lat="46.29406653821499" lon="11.067274876122163"><ele>462.5</ele><time>2026-04-17T10:41:45Z</time></trkpt><trkpt lat="46.29431687845499" lon="11.06739883774689"><ele>462.0</ele><time>2026-04-17T10:41:46Z</time></trkpt><trkpt lat="46.29454563879855" lon="11.06751117022127"><ele>466.0</ele><time>2026-04-17T10:41:47Z</time></trkpt><trkpt lat="46.294761467698486" lon="11.067615661254443"><ele>470.0</ele><time>2026-04-17T10:41:48Z</time></trkpt><trkpt lat="46.29499452017058" lon="11.067726024814693"><ele>470.0</ele><time>2026-04-17T10:41:49Z</time></trkpt><trkpt lat="46.295236023193844" lon="11.06784968491157"><ele>470.0</ele><time>2026-04-17T10:41:50Z</time></trkpt><trkpt lat="46.295481342558496" lon="11.067975039567976"><ele>465.5</ele><time>2026-04-17T10:41:50.999Z</time></trkpt><trkpt lat="46.29574546135983" lon="11.068086145016538"><ele>461.0</ele><time>2026-04-17T10:41:51.999Z</time></trkpt><trkpt lat="46.29602336229636" lon="11.068181768508879"><ele>461.0</ele><time>2026-04-17T10:41:52.999Z</time></trkpt><trkpt lat="46.296290014916515" lon="11.068266126084945"><ele>461.0</ele><time>2026-04-17T10:41:53.999Z</time></trkpt><trkpt lat="46.296529204166696" lon="11.06835205989325"><ele>461.66666666666663</ele><time>2026-04-17T10:41:54.999Z</time></trkpt><trkpt lat="46.29675794543239" lon="11.068449873691533"><ele>462.33333333333337</ele><time>2026-04-17T10:41:55.999Z</time></trkpt><trkpt lat="46.296953479389806" lon="11.068556628293177"><ele>463.0</ele><time>2026-04-17T10:41:56.999Z</time></trkpt><trkpt lat="46.29714063362099" lon="11.068669690980826"><ele>461.6666666666667</ele><time>2026-04-17T10:41:57.999Z</time></trkpt><trkpt lat="46.297307610205365" lon="11.06878191247132"><ele>460.33333333333337</ele><time>2026-04-17T10:41:58.999Z</time></trkpt><trkpt lat="46.29746369321121" lon="11.068890386884492"><ele>459.0</ele><time>2026-04-17T10:41:59.999Z</time></trkpt><trkpt lat="46.29761366774737" lon="11.068996441318758"><ele>459.0</ele><time>2026-04-17T10:42:00.999Z</time></trkpt><trkpt lat="46.297759175981156" lon="11.06909215252456"><ele>459.0</ele><time>2026-04-17T10:42:01.999Z</time></trkpt><trkpt lat="46.29788238361465" lon="11.06917090679164"><ele>459.0</ele><time>2026-04-17T10:42:02.999Z</time></trkpt><trkpt lat="46.29799503956527" lon="11.069235229794797"><ele>459.0</ele><time>2026-04-17T10:42:03.999Z</time></trkpt><trkpt lat="46.29810081412091" lon="11.06928765239105"><ele>462.0</ele><time>2026-04-17T10:42:04.999Z</time></trkpt><trkpt lat="46.29820998961414" lon="11.06934015529738"><ele>465.0</ele><time>2026-04-17T10:42:05.999Z</time></trkpt><trkpt lat="46.2983360724262" lon="11.069376241981246"><ele>468.0</ele><time>2026-04-17T10:42:06.999Z</time></trkpt><trkpt lat="46.298475482898795" lon="11.069407990156707"><ele>471.0</ele><time>2026-04-17T10:42:07.999Z</time></trkpt><trkpt lat="46.29863254349669" lon="11.069435103591541"><ele>471.0</ele><time>2026-04-17T10:42:08.999Z</time></trkpt><trkpt lat="46.29876252647911" lon="11.069510776080952"><ele>471.0</ele><time>2026-04-17T10:42:09.999Z</time></trkpt><trkpt lat="46.29892427466804" lon="11.06953938267677"><ele>471.0</ele><time>2026-04-17T10:42:10.999Z</time></trkpt><trkpt lat="46.299119269022796" lon="11.069618223304996"><ele>470.66666666666663</ele><time>2026-04-17T10:42:11.999Z</time></trkpt><trkpt lat="46.29932232192837" lon="11.069698282465568"><ele>470.3333333333333</ele><time>2026-04-17T10:42:12.999Z</time></trkpt><trkpt lat="46.299537736370795" lon="11.069785933798466"><ele>470.0</ele><time>2026-04-17T10:42:13.999Z</time></trkpt><trkpt lat="46.299777824196944" lon="11.069889214185759"><ele>472.5</ele><time>2026-04-17T10:42:14.999Z</time></trkpt><trkpt lat="46.3000364948428" lon="11.069998412523606"><ele>475.0</ele><time>2026-04-17T10:42:15.999Z</time></trkpt><trkpt lat="46.300266787710385" lon="11.070094626681003"><ele>475.0</ele><time>2026-04-17T10:42:17Z</time></trkpt><trkpt lat="46.30050788122129" lon="11.07019326127484"><ele>475.0</ele><time>2026-04-17T10:42:18Z</time></trkpt><trkpt lat="46.300770673395" lon="11.070302737240826"><ele>473.0</ele><time>2026-04-17T10:42:19Z</time></trkpt><trkpt lat="46.30104405409965" lon="11.0704211943089"><ele>471.0</ele><time>2026-04-17T10:42:20Z</time></trkpt><trkpt lat="46.30132721814457" lon="11.07054451291419"><ele>470.0</ele><time>2026-04-17T10:42:21Z</time></trkpt><trkpt lat="46.301584904321906" lon="11.070658005404795"><ele>469.0</ele><time>2026-04-17T10:42:22Z</time></trkpt><trkpt lat="46.30183378308802" lon="11.070766820209199"><ele>473.5</ele><time>2026-04-17T10:42:23Z</time></trkpt><trkpt lat="46.302088270686305" lon="11.070874484751778"><ele>478.0</ele><time>2026-04-17T10:42:24Z</time></trkpt><trkpt lat="46.30232235810906" lon="11.070972925764613"><ele>478.0</ele><time>2026-04-17T10:42:25Z</time></trkpt><trkpt lat="46.30253214587499" lon="11.07106416955883"><ele>478.0</ele><time>2026-04-17T10:42:26Z</time></trkpt><trkpt lat="46.30272846822527" lon="11.071131248870975"><ele>478.0</ele><time>2026-04-17T10:42:27Z</time></trkpt><trkpt lat="46.30292420190671" lon="11.071170504659632"><ele>475.6666666666667</ele><time>2026-04-17T10:42:28Z</time></trkpt><trkpt lat="46.30313075048678" lon="11.071180461472334"><ele>473.33333333333337</ele><time>2026-04-17T10:42:29Z</time></trkpt><trkpt lat="46.30335253333875" lon="11.071168304624628"><ele>471.0</ele><time>2026-04-17T10:42:30Z</time></trkpt><trkpt lat="46.303586740168186" lon="11.071140361288561"><ele>471.0</ele><time>2026-04-17T10:42:31Z</time></trkpt><trkpt lat="46.30383560373247" lon="11.071105896673632"><ele>471.0</ele><time>2026-04-17T10:42:32Z</time></trkpt><trkpt lat="46.30409676049317" lon="11.07106617259899"><ele>473.0</ele><time>2026-04-17T10:42:33Z</time></trkpt><trkpt lat="46.304369063119225" lon="11.071028638477154"><ele>475.0</ele><time>2026-04-17T10:42:34Z</time></trkpt><trkpt lat="46.30465088625469" lon="11.070990877347345"><ele>475.0</ele><time>2026-04-17T10:42:35Z</time></trkpt><trkpt lat="46.30491961467824" lon="11.070954122612996"><ele>475.0</ele><time>2026-04-17T10:42:36Z</time></trkpt><trkpt lat="46.30516976639217" lon="11.07091598757126"><ele>475.0</ele><time>2026-04-17T10:42:37Z</time></trkpt><trkpt lat="46.30540401818825" lon="11.070865365217724"><ele>475.0</ele><time>2026-04-17T10:42:38Z</time></trkpt><trkpt lat="46.30562636886803" lon="11.07079581395182"><ele>473.33333333333337</ele><time>2026-04-17T10:42:39Z</time></trkpt><trkpt lat="46.30584115102152" lon="11.070692080267857"><ele>471.66666666666663</ele><time>2026-04-17T10:42:40Z</time></trkpt><trkpt lat="46.306040448819566" lon="11.070564033918597"><ele>470.0</ele><time>2026-04-17T10:42:41Z</time></trkpt><trkpt lat="46.30623181004867" lon="11.070410698418932"><ele>474.0</ele><time>2026-04-17T10:42:42Z</time></trkpt><trkpt lat="46.30643198362682" lon="11.070230014016625"><ele>478.0</ele><time>2026-04-17T10:42:43Z</time></trkpt><trkpt lat="46.30663808359476" lon="11.070029776538531"><ele>471.0</ele><time>2026-04-17T10:42:44Z</time></trkpt><trkpt lat="46.3068425209745" lon="11.069831070433342"><ele>464.0</ele><time>2026-04-17T10:42:45Z</time></trkpt><trkpt lat="46.30701604719453" lon="11.069668615920412"><ele>464.0</ele><time>2026-04-17T10:42:46Z</time></trkpt><trkpt lat="46.30716823506581" lon="11.069524414225029"><ele>464.0</ele><time>2026-04-17T10:42:47Z</time></trkpt><trkpt lat="46.307310539111974" lon="11.069394937013758"><ele>464.0</ele><time>2026-04-17T10:42:48Z</time></trkpt><trkpt lat="46.307451159107856" lon="11.069285561786936"><ele>467.66666666666663</ele><time>2026-04-17T10:42:49Z</time></trkpt><trkpt lat="46.30760093550802" lon="11.069198729819542"><ele>471.33333333333337</ele><time>2026-04-17T10:42:50Z</time></trkpt><trkpt lat="46.307757973597596" lon="11.069141377575695"><ele>475.0</ele><time>2026-04-17T10:42:51Z</time></trkpt><trkpt lat="46.30791831771852" lon="11.069124247706"><ele>475.33333333333337</ele><time>2026-04-17T10:42:52Z</time></trkpt><trkpt lat="46.308080914417125" lon="11.069146066214646"><ele>475.66666666666663</ele><time>2026-04-17T10:42:53Z</time></trkpt><trkpt lat="46.30823940916002" lon="11.069197286050546"><ele>476.0</ele><time>2026-04-17T10:42:54Z</time></trkpt><trkpt lat="46.30840260083695" lon="11.069283119899119"><ele>476.0</ele><time>2026-04-17T10:42:55Z</time></trkpt><trkpt lat="46.308580933044894" lon="11.069386786763369"><ele>476.0</ele><time>2026-04-17T10:42:56Z</time></trkpt><trkpt lat="46.30877385582597" lon="11.069499788316167"><ele>476.0</ele><time>2026-04-17T10:42:57Z</time></trkpt><trkpt lat="46.308982816898684" lon="11.06960326996424"><ele>476.5</ele><time>2026-04-17T10:42:58Z</time></trkpt><trkpt lat="46.30920759874966" lon="11.06968597678436"><ele>477.0</ele><time>2026-04-17T10:42:59Z</time></trkpt><trkpt lat="46.3094484863652" lon="11.069753671797345"><ele>477.0</ele><time>2026-04-17T10:43:00Z</time></trkpt><trkpt lat="46.30970959974447" lon="11.06981243165842"><ele>477.0</ele><time>2026-04-17T10:43:01Z</time></trkpt><trkpt lat="46.30998820848304" lon="11.069874409354245"><ele>480.5</ele><time>2026-04-17T10:43:02Z</time></trkpt><trkpt lat="46.310271148607555" lon="11.06993840926947"><ele>484.0</ele><time>2026-04-17T10:43:03Z</time></trkpt><trkpt lat="46.31054358557412" lon="11.0699980146792"><ele>487.5</ele><time>2026-04-17T10:43:04Z</time></trkpt><trkpt lat="46.310841224961734" lon="11.07005567325428"><ele>491.0</ele><time>2026-04-17T10:43:05Z</time></trkpt><trkpt lat="46.31112071451603" lon="11.070111522951978"><ele>491.0</ele><time>2026-04-17T10:43:06Z</time></trkpt><trkpt lat="46.31137264535545" lon="11.070155952951206"><ele>491.0</ele><time>2026-04-17T10:43:07Z</time></trkpt><trkpt lat="46.311592673881876" lon="11.070186776200723"><ele>491.0</ele><time>2026-04-17T10:43:08Z</time></trkpt><trkpt lat="46.311793321775994" lon="11.070205114447647"><ele>491.0</ele><time>2026-04-17T10:43:09.015Z</time></trkpt><trkpt lat="46.31198087474598" lon="11.070204608164849"><ele>491.0</ele><time>2026-04-17T10:43:10.019Z</time></trkpt><trkpt lat="46.31216356243878" lon="11.07016798284507"><ele>490.3333333333333</ele><time>2026-04-17T10:43:11.021Z</time></trkpt><trkpt lat="46.31235070741478" lon="11.070098464825763"><ele>489.66666666666663</ele><time>2026-04-17T10:43:12Z</time></trkpt><trkpt lat="46.31249544127381" lon="11.070067377849462"><ele>489.0</ele><time>2026-04-17T10:43:13Z</time></trkpt><trkpt lat="46.3126713813042" lon="11.069948750954655"><ele>488.33333333333337</ele><time>2026-04-17T10:43:14Z</time></trkpt><trkpt lat="46.312833309076765" lon="11.069794962000993"><ele>487.6666666666667</ele><time>2026-04-17T10:43:15Z</time></trkpt><trkpt lat="46.31299578696295" lon="11.069598628549706"><ele>487.0</ele><time>2026-04-17T10:43:16Z</time></trkpt><trkpt lat="46.31315780861741" lon="11.069377557896757"><ele>486.0</ele><time>2026-04-17T10:43:17Z</time></trkpt><trkpt lat="46.31332274286581" lon="11.06913508666464"><ele>485.0</ele><time>2026-04-17T10:43:18Z</time></trkpt><trkpt lat="46.313502957686815" lon="11.068858767886233"><ele>478.5</ele><time>2026-04-17T10:43:19Z</time></trkpt><trkpt lat="46.313690296742294" lon="11.06857312025369"><ele>472.0</ele><time>2026-04-17T10:43:20Z</time></trkpt><trkpt lat="46.313860921367166" lon="11.068326381461771"><ele>473.33333333333337</ele><time>2026-04-17T10:43:21Z</time></trkpt><trkpt lat="46.31401063278037" lon="11.068094285668563"><ele>474.66666666666663</ele><time>2026-04-17T10:43:22Z</time></trkpt><trkpt lat="46.314149221159276" lon="11.06788129279691"><ele>476.0</ele><time>2026-04-17T10:43:23Z</time></trkpt><trkpt lat="46.31429196342252" lon="11.067702826001135"><ele>476.0</ele><time>2026-04-17T10:43:24Z</time></trkpt><trkpt lat="46.31444289536157" lon="11.067551016873725"><ele>476.0</ele><time>2026-04-17T10:43:25Z</time></trkpt><trkpt lat="46.31461132834081" lon="11.067412777546172"><ele>476.0</ele><time>2026-04-17T10:43:26Z</time></trkpt><trkpt lat="46.314794025377985" lon="11.06729975048679"><ele>472.3333333333333</ele><time>2026-04-17T10:43:27Z</time></trkpt><trkpt lat="46.31498766519729" lon="11.067220977286159"><ele>468.66666666666663</ele><time>2026-04-17T10:43:28Z</time></trkpt><trkpt lat="46.315183737202794" lon="11.06718077939495"><ele>465.0</ele><time>2026-04-17T10:43:29Z</time></trkpt><trkpt lat="46.315370521730365" lon="11.067175927288515"><ele>465.0</ele><time>2026-04-17T10:43:30Z</time></trkpt><trkpt lat="46.315556440486674" lon="11.06719880451113"><ele>465.0</ele><time>2026-04-17T10:43:31Z</time></trkpt><trkpt lat="46.31576233718706" lon="11.067248085168877"><ele>465.0</ele><time>2026-04-17T10:43:32Z</time></trkpt><trkpt lat="46.31599426485135" lon="11.067326771812063"><ele>465.5</ele><time>2026-04-17T10:43:33Z</time></trkpt><trkpt lat="46.31623470646167" lon="11.067409645490832"><ele>466.0</ele><time>2026-04-17T10:43:34Z</time></trkpt><trkpt lat="46.31644499140095" lon="11.067463882215991"><ele>464.33333333333337</ele><time>2026-04-17T10:43:35Z</time></trkpt><trkpt lat="46.316653809024054" lon="11.067477886635757"><ele>462.66666666666663</ele><time>2026-04-17T10:43:36Z</time></trkpt><trkpt lat="46.31687886149803" lon="11.067454702157033"><ele>461.0</ele><time>2026-04-17T10:43:37Z</time></trkpt><trkpt lat="46.3170966284708" lon="11.06738918798098"><ele>459.5</ele><time>2026-04-17T10:43:38Z</time></trkpt><trkpt lat="46.31731483001091" lon="11.067288051407916"><ele>458.0</ele><time>2026-04-17T10:43:39Z</time></trkpt><trkpt lat="46.31755001798543" lon="11.067159210303243"><ele>458.0</ele><time>2026-04-17T10:43:40Z</time></trkpt><trkpt lat="46.3178039761294" lon="11.067015655047507"><ele>458.0</ele><time>2026-04-17T10:43:41Z</time></trkpt><trkpt lat="46.318070510070264" lon="11.066856339754608"><ele>463.0</ele><time>2026-04-17T10:43:42Z</time></trkpt><trkpt lat="46.31833280751691" lon="11.066697043108297"><ele>468.0</ele><time>2026-04-17T10:43:43Z</time></trkpt><trkpt lat="46.31857602442941" lon="11.066537451650502"><ele>476.0</ele><time>2026-04-17T10:43:44Z</time></trkpt><trkpt lat="46.318832264033674" lon="11.066341938386476"><ele>484.0</ele><time>2026-04-17T10:43:45Z</time></trkpt><trkpt lat="46.31908646770485" lon="11.066145368315183"><ele>492.0</ele><time>2026-04-17T10:43:46Z</time></trkpt><trkpt lat="46.3193123529176" lon="11.065973655092831"><ele>500.0</ele><time>2026-04-17T10:43:47Z</time></trkpt><trkpt lat="46.31952182534632" lon="11.065812606091631"><ele>504.0</ele><time>2026-04-17T10:43:48Z</time></trkpt><trkpt lat="46.319724004721834" lon="11.065658356913882"><ele>508.0</ele><time>2026-04-17T10:43:49.017Z</time></trkpt><trkpt lat="46.31991360396245" lon="11.065516928410753"><ele>512.0</ele><time>2026-04-17T10:43:50.019Z</time></trkpt><trkpt lat="46.32011425399767" lon="11.065382200162876"><ele>512.0</ele><time>2026-04-17T10:43:51.014Z</time></trkpt><trkpt lat="46.32033628842206" lon="11.065262913119593"><ele>512.0</ele><time>2026-04-17T10:43:52.017Z</time></trkpt><trkpt lat="46.32056321802382" lon="11.0651552742019"><ele>495.0</ele><time>2026-04-17T10:43:53.017Z</time></trkpt><trkpt lat="46.32278246343724" lon="11.064009340490273"><ele>495.0</ele><time>2026-04-17T10:44:03.999Z</time></trkpt><trkpt lat="46.3229252907055" lon="11.063922462199972"><ele>495.0</ele><time>2026-04-17T10:44:04.999Z</time></trkpt><trkpt lat="46.32310958801093" lon="11.063745560123989"><ele>495.0</ele><time>2026-04-17T10:44:05.999Z</time></trkpt><trkpt lat="46.32327921535356" lon="11.063682169872871"><ele>491.66666666666663</ele><time>2026-04-17T10:44:06.999Z</time></trkpt><trkpt lat="46.32345456194524" lon="11.063631704706754"><ele>488.3333333333333</ele><time>2026-04-17T10:44:07.999Z</time></trkpt><trkpt lat="46.323610636282865" lon="11.063621103571695"><ele>485.0</ele><time>2026-04-17T10:44:08.999Z</time></trkpt><trkpt lat="46.32377095275009" lon="11.06362943851957"><ele>492.0</ele><time>2026-04-17T10:44:09.999Z</time></trkpt><trkpt lat="46.323941491105494" lon="11.063661350034472"><ele>499.0</ele><time>2026-04-17T10:44:10.999Z</time></trkpt><trkpt lat="46.324117060345884" lon="11.063712166047635"><ele>506.0</ele><time>2026-04-17T10:44:11.999Z</time></trkpt><trkpt lat="46.32430016853495" lon="11.063785759105267"><ele>506.0</ele><time>2026-04-17T10:44:12.999Z</time></trkpt><trkpt lat="46.324479532233035" lon="11.06387014488434"><ele>506.0</ele><time>2026-04-17T10:44:13.999Z</time></trkpt><trkpt lat="46.32463000701701" lon="11.063931089291623"><ele>506.0</ele><time>2026-04-17T10:44:14.999Z</time></trkpt><trkpt lat="46.32479386591295" lon="11.063994911492093"><ele>509.3333333333333</ele><time>2026-04-17T10:44:15.999Z</time></trkpt><trkpt lat="46.32496758606957" lon="11.064066149112973"><ele>512.6666666666666</ele><time>2026-04-17T10:44:16.999Z</time></trkpt><trkpt lat="46.325126239722415" lon="11.064112213122566"><ele>516.0</ele><time>2026-04-17T10:44:17.999Z</time></trkpt><trkpt lat="46.325292890885585" lon="11.064139435406851"><ele>515.0</ele><time>2026-04-17T10:44:18.999Z</time></trkpt><trkpt lat="46.32548132216137" lon="11.064138000294985"><ele>514.0</ele><time>2026-04-17T10:44:19.999Z</time></trkpt><trkpt lat="46.32567593406224" lon="11.06411159772889"><ele>513.0</ele><time>2026-04-17T10:44:20.999Z</time></trkpt><trkpt lat="46.3259032637633" lon="11.064101973985359"><ele>513.0</ele><time>2026-04-17T10:44:21.999Z</time></trkpt><trkpt lat="46.32614720833963" lon="11.064075679191706"><ele>513.0</ele><time>2026-04-17T10:44:23Z</time></trkpt><trkpt lat="46.32636754407133" lon="11.06403247740085"><ele>513.0</ele><time>2026-04-17T10:44:24Z</time></trkpt><trkpt lat="46.32657073085169" lon="11.064025250808351"><ele>513.0</ele><time>2026-04-17T10:44:25Z</time></trkpt><trkpt lat="46.32677564719562" lon="11.064004355602549"><ele>513.0</ele><time>2026-04-17T10:44:26Z</time></trkpt><trkpt lat="46.32696444718566" lon="11.063981414370796"><ele>513.0</ele><time>2026-04-17T10:44:27Z</time></trkpt><trkpt lat="46.32714256861199" lon="11.06396251280192"><ele>513.0</ele><time>2026-04-17T10:44:28Z</time></trkpt><trkpt lat="46.3273211501165" lon="11.063945289781744"><ele>513.0</ele><time>2026-04-17T10:44:29Z</time></trkpt><trkpt lat="46.3275023204366" lon="11.063929037566997"><ele>513.0</ele><time>2026-04-17T10:44:30Z</time></trkpt><trkpt lat="46.327690773742205" lon="11.063913529608193"><ele>513.0</ele><time>2026-04-17T10:44:31Z</time></trkpt><trkpt lat="46.32788192246295" lon="11.063906027360195"><ele>513.0</ele><time>2026-04-17T10:44:32Z</time></trkpt><trkpt lat="46.32807094911567" lon="11.063917662327249"><ele>513.0</ele><time>2026-04-17T10:44:33Z</time></trkpt><trkpt lat="46.328258822981" lon="11.063940161503982"><ele>513.0</ele><time>2026-04-17T10:44:34Z</time></trkpt><trkpt lat="46.328469473581315" lon="11.063950875582679"><ele>513.0</ele><time>2026-04-17T10:44:35Z</time></trkpt><trkpt lat="46.32867795759324" lon="11.063958743764713"><ele>513.0</ele><time>2026-04-17T10:44:36Z</time></trkpt><trkpt lat="46.32887092420453" lon="11.063973900541432"><ele>513.0</ele><time>2026-04-17T10:44:37Z</time></trkpt><trkpt lat="46.32906713069694" lon="11.063987348666233"><ele>513.0</ele><time>2026-04-17T10:44:38Z</time></trkpt><trkpt lat="46.32926759123339" lon="11.06400129014146"><ele>512.3333333333334</ele><time>2026-04-17T10:44:39Z</time></trkpt><trkpt lat="46.329466588462964" lon="11.064014129046962"><ele>511.6666666666667</ele><time>2026-04-17T10:44:40Z</time></trkpt><trkpt lat="46.329668648804805" lon="11.064023460670796"><ele>511.0</ele><time>2026-04-17T10:44:41Z</time></trkpt><trkpt lat="46.3298658053761" lon="11.064034527368893"><ele>510.6666666666667</ele><time>2026-04-17T10:44:42Z</time></trkpt><trkpt lat="46.33006430189273" lon="11.064047337533454"><ele>510.33333333333337</ele><time>2026-04-17T10:44:43Z</time></trkpt><trkpt lat="46.33027136052015" lon="11.064060416387697"><ele>510.0</ele><time>2026-04-17T10:44:44Z</time></trkpt><trkpt lat="46.33047896883571" lon="11.06407471048991"><ele>506.33333333333337</ele><time>2026-04-17T10:44:45Z</time></trkpt><trkpt lat="46.33068191994368" lon="11.064088615637178"><ele>502.6666666666667</ele><time>2026-04-17T10:44:46Z</time></trkpt><trkpt lat="46.33087397625562" lon="11.064101784984581"><ele>499.0</ele><time>2026-04-17T10:44:47Z</time></trkpt><trkpt lat="46.331068817983194" lon="11.064113596647585"><ele>499.0</ele><time>2026-04-17T10:44:48Z</time></trkpt><trkpt lat="46.331277878900096" lon="11.06412188411977"><ele>499.0</ele><time>2026-04-17T10:44:49Z</time></trkpt><trkpt lat="46.33148584432467" lon="11.064119353673663"><ele>499.0</ele><time>2026-04-17T10:44:50Z</time></trkpt><trkpt lat="46.33168331289267" lon="11.064103322054615"><ele>499.0</ele><time>2026-04-17T10:44:51Z</time></trkpt><trkpt lat="46.33186705889273" lon="11.064080861859445"><ele>499.0</ele><time>2026-04-17T10:44:52Z</time></trkpt><trkpt lat="46.33204457707898" lon="11.064056925827693"><ele>499.0</ele><time>2026-04-17T10:44:53Z</time></trkpt><trkpt lat="46.332223542326176" lon="11.064034965964334"><ele>503.33333333333337</ele><time>2026-04-17T10:44:54Z</time></trkpt><trkpt lat="46.33240008291452" lon="11.064013050529054"><ele>507.66666666666663</ele><time>2026-04-17T10:44:55Z</time></trkpt><trkpt lat="46.332576215676276" lon="11.063992908067046"><ele>512.0</ele><time>2026-04-17T10:44:56Z</time></trkpt><trkpt lat="46.332755766410855" lon="11.063968697957764"><ele>512.0</ele><time>2026-04-17T10:44:57Z</time></trkpt><trkpt lat="46.33293512026536" lon="11.06394312518699"><ele>512.0</ele><time>2026-04-17T10:44:58Z</time></trkpt><trkpt lat="46.333103632540315" lon="11.063920267436863"><ele>512.0</ele><time>2026-04-17T10:44:59Z</time></trkpt><trkpt lat="46.33326739193006" lon="11.063899435813957"><ele>513.6666666666666</ele><time>2026-04-17T10:45:00Z</time></trkpt><trkpt lat="46.333430948933426" lon="11.063875984640973"><ele>515.3333333333334</ele><time>2026-04-17T10:45:01Z</time></trkpt><trkpt lat="46.33359020239602" lon="11.063854273099272"><ele>517.0</ele><time>2026-04-17T10:45:02Z</time></trkpt><trkpt lat="46.33373755883261" lon="11.063838136674189"><ele>517.0</ele><time>2026-04-17T10:45:03Z</time></trkpt><trkpt lat="46.33387108682446" lon="11.063823434618511"><ele>517.0</ele><time>2026-04-17T10:45:04Z</time></trkpt><trkpt lat="46.33399892924573" lon="11.063809508890275"><ele>517.0</ele><time>2026-04-17T10:45:05Z</time></trkpt><trkpt lat="46.33411727273917" lon="11.063789848955873"><ele>517.0</ele><time>2026-04-17T10:45:06Z</time></trkpt><trkpt lat="46.33422322497148" lon="11.063776343755643"><ele>519.5</ele><time>2026-04-17T10:45:07Z</time></trkpt><trkpt lat="46.33432586849055" lon="11.063751869671387"><ele>522.0</ele><time>2026-04-17T10:45:08Z</time></trkpt><trkpt lat="46.33443945211439" lon="11.063718013828279"><ele>524.5</ele><time>2026-04-17T10:45:09Z</time></trkpt><trkpt lat="46.33455541146707" lon="11.063677773554556"><ele>527.0</ele><time>2026-04-17T10:45:10Z</time></trkpt><trkpt lat="46.334657440046804" lon="11.063586957104253"><ele>526.2</ele><time>2026-04-17T10:45:11Z</time></trkpt><trkpt lat="46.334759453150625" lon="11.06351508020963"><ele>525.4000000000001</ele><time>2026-04-17T10:45:12Z</time></trkpt><trkpt lat="46.334850590198556" lon="11.063449997881472"><ele>524.5999999999999</ele><time>2026-04-17T10:45:13Z</time></trkpt><trkpt lat="46.334919909656406" lon="11.063396237689288"><ele>523.8</ele><time>2026-04-17T10:45:14Z</time></trkpt><trkpt lat="46.33497823765689" lon="11.06335240017054"><ele>523.0</ele><time>2026-04-17T10:45:15Z</time></trkpt><trkpt lat="46.33511689822275" lon="11.063274508476724"><ele>523.0</ele><time>2026-04-17T10:45:17Z</time></trkpt><trkpt lat="46.33523005472089" lon="11.063193026615405"><ele>523.0</ele><time>2026-04-17T10:45:18Z</time></trkpt><trkpt lat="46.33537753432533" lon="11.063086627970247"><ele>523.0</ele><time>2026-04-17T10:45:19Z</time></trkpt><trkpt lat="46.33553645719638" lon="11.062970541343628"><ele>527.25</ele><time>2026-04-17T10:45:20Z</time></trkpt><trkpt lat="46.33568439140262" lon="11.062867251368123"><ele>531.5</ele><time>2026-04-17T10:45:21Z</time></trkpt><trkpt lat="46.33581511968603" lon="11.062737117567359"><ele>535.75</ele><time>2026-04-17T10:45:22Z</time></trkpt><trkpt lat="46.33592903681527" lon="11.062669515123552"><ele>540.0</ele><time>2026-04-17T10:45:23Z</time></trkpt><trkpt lat="46.336010964083634" lon="11.062625293575161"><ele>540.0</ele><time>2026-04-17T10:45:24Z</time></trkpt><trkpt lat="46.33608414458671" lon="11.062583460198432"><ele>540.0</ele><time>2026-04-17T10:45:25Z</time></trkpt><trkpt lat="46.336149360398935" lon="11.062543246587712"><ele>540.0</ele><time>2026-04-17T10:45:26Z</time></trkpt><trkpt lat="46.336218122971566" lon="11.062496539096296"><ele>540.0</ele><time>2026-04-17T10:45:27Z</time></trkpt><trkpt lat="46.33629793159715" lon="11.062444123370975"><ele>540.0</ele><time>2026-04-17T10:45:28Z</time></trkpt><trkpt lat="46.33638413711921" lon="11.062391959330904"><ele>540.0</ele><time>2026-04-17T10:45:29Z</time></trkpt><trkpt lat="46.336474334250305" lon="11.062338044332952"><ele>538.6666666666666</ele><time>2026-04-17T10:45:30Z</time></trkpt><trkpt lat="46.33656179446394" lon="11.062293979029628"><ele>537.3333333333334</ele><time>2026-04-17T10:45:31Z</time></trkpt><trkpt lat="46.33664924122301" lon="11.062275006590786"><ele>536.0</ele><time>2026-04-17T10:45:32Z</time></trkpt><trkpt lat="46.33674014814965" lon="11.06227561781424"><ele>534.6666666666667</ele><time>2026-04-17T10:45:33Z</time></trkpt><trkpt lat="46.33682649444715" lon="11.062286856562546"><ele>533.3333333333334</ele><time>2026-04-17T10:45:34Z</time></trkpt><trkpt lat="46.33691087906267" lon="11.062301402951208"><ele>532.0</ele><time>2026-04-17T10:45:35Z</time></trkpt><trkpt lat="46.336990725478664" lon="11.062334002729036"><ele>532.0</ele><time>2026-04-17T10:45:36Z</time></trkpt><trkpt lat="46.33706589679059" lon="11.062368191571444"><ele>532.0</ele><time>2026-04-17T10:45:37Z</time></trkpt><trkpt lat="46.337133457632476" lon="11.062409213453227"><ele>532.0</ele><time>2026-04-17T10:45:38Z</time></trkpt><trkpt lat="46.33719877222758" lon="11.062460147876875"><ele>532.0</ele><time>2026-04-17T10:45:39Z</time></trkpt><trkpt lat="46.33726271761996" lon="11.062517732345095"><ele>532.0</ele><time>2026-04-17T10:45:40Z</time></trkpt><trkpt lat="46.337320807615015" lon="11.062579410952583"><ele>532.0</ele><time>2026-04-17T10:45:41Z</time></trkpt><trkpt lat="46.33737976036278" lon="11.0626517768271"><ele>533.2857142857143</ele><time>2026-04-17T10:45:42Z</time></trkpt><trkpt lat="46.33743446091298" lon="11.062729722848271"><ele>534.5714285714286</ele><time>2026-04-17T10:45:43Z</time></trkpt><trkpt lat="46.33748221732947" lon="11.062799575767082"><ele>535.8571428571429</ele><time>2026-04-17T10:45:44Z</time></trkpt><trkpt lat="46.33753184394036" lon="11.062859659251552"><ele>537.1428571428571</ele><time>2026-04-17T10:45:45Z</time></trkpt><trkpt lat="46.33758511099282" lon="11.062934202665701"><ele>538.4285714285714</ele><time>2026-04-17T10:45:46Z</time></trkpt><trkpt lat="46.337642756299346" lon="11.063013157384718"><ele>539.7142857142858</ele><time>2026-04-17T10:45:47Z</time></trkpt><trkpt lat="46.33770111547606" lon="11.063099110753134"><ele>541.0</ele><time>2026-04-17T10:45:48Z</time></trkpt><trkpt lat="46.33776222515294" lon="11.06318216306481"><ele>542.0</ele><time>2026-04-17T10:45:49Z</time></trkpt><trkpt lat="46.337824462490794" lon="11.063283772823503"><ele>543.0</ele><time>2026-04-17T10:45:50Z</time></trkpt><trkpt lat="46.33788805514664" lon="11.063397387828546"><ele>544.0</ele><time>2026-04-17T10:45:51Z</time></trkpt><trkpt lat="46.33797665974842" lon="11.06355215141855"><ele>545.0</ele><time>2026-04-17T10:45:52Z</time></trkpt><trkpt lat="46.33805780260677" lon="11.06370937136188"><ele>545.0</ele><time>2026-04-17T10:45:53Z</time></trkpt><trkpt lat="46.33816670771091" lon="11.06388021805475"><ele>545.0</ele><time>2026-04-17T10:45:54Z</time></trkpt><trkpt lat="46.338293876841924" lon="11.06405293293732"><ele>545.0</ele><time>2026-04-17T10:45:55Z</time></trkpt><trkpt lat="46.338407303043134" lon="11.064182251229408"><ele>545.0</ele><time>2026-04-17T10:45:56Z</time></trkpt><trkpt lat="46.338494133369736" lon="11.064264875974336"><ele>545.0</ele><time>2026-04-17T10:45:57Z</time></trkpt><trkpt lat="46.33857377641984" lon="11.064308072832578"><ele>545.0</ele><time>2026-04-17T10:45:58Z</time></trkpt><trkpt lat="46.33865133707" lon="11.064313115804147"><ele>545.0</ele><time>2026-04-17T10:45:59Z</time></trkpt><trkpt lat="46.33872454681783" lon="11.064262286473843"><ele>545.0</ele><time>2026-04-17T10:46:00Z</time></trkpt><trkpt lat="46.33879212226441" lon="11.064160152223842"><ele>545.0</ele><time>2026-04-17T10:46:01Z</time></trkpt><trkpt lat="46.338844318068055" lon="11.064024473566207"><ele>545.0</ele><time>2026-04-17T10:46:02Z</time></trkpt><trkpt lat="46.33886761220265" lon="11.063866147616265"><ele>545.0</ele><time>2026-04-17T10:46:03Z</time></trkpt><trkpt lat="46.33887301359202" lon="11.0637151660823"><ele>545.0</ele><time>2026-04-17T10:46:04Z</time></trkpt><trkpt lat="46.33886856901437" lon="11.063532299692678"><ele>545.0</ele><time>2026-04-17T10:46:04.999Z</time></trkpt><trkpt lat="46.338872513827745" lon="11.063352841059995"><ele>544.8</ele><time>2026-04-17T10:46:05.999Z</time></trkpt><trkpt lat="46.338900936835664" lon="11.063202453957436"><ele>544.6</ele><time>2026-04-17T10:46:06.999Z</time></trkpt><trkpt lat="46.338963633823035" lon="11.063077073101665"><ele>544.4</ele><time>2026-04-17T10:46:07.999Z</time></trkpt><trkpt lat="46.339051561501755" lon="11.062987397691003"><ele>544.2</ele><time>2026-04-17T10:46:08.999Z</time></trkpt><trkpt lat="46.339161341461036" lon="11.062937122800657"><ele>544.0</ele><time>2026-04-17T10:46:09.999Z</time></trkpt><trkpt lat="46.33928906887281" lon="11.062926264487116"><ele>544.0</ele><time>2026-04-17T10:46:10.999Z</time></trkpt><trkpt lat="46.339452059062" lon="11.062936510562778"><ele>544.0</ele><time>2026-04-17T10:46:11.999Z</time></trkpt><trkpt lat="46.339633811075956" lon="11.062956215247878"><ele>544.0</ele><time>2026-04-17T10:46:12.999Z</time></trkpt><trkpt lat="46.33977233561274" lon="11.062965720633155"><ele>545.5</ele><time>2026-04-17T10:46:13.999Z</time></trkpt><trkpt lat="46.33988363635913" lon="11.06297153855096"><ele>547.0</ele><time>2026-04-17T10:46:14.999Z</time></trkpt><trkpt lat="46.33999152646775" lon="11.062974011684846"><ele>548.5</ele><time>2026-04-17T10:46:15.999Z</time></trkpt><trkpt lat="46.34013652643313" lon="11.062953955421367"><ele>550.0</ele><time>2026-04-17T10:46:16.999Z</time></trkpt><trkpt lat="46.340329365488536" lon="11.062893852136579"><ele>550.0</ele><time>2026-04-17T10:46:17.999Z</time></trkpt><trkpt lat="46.34052720834553" lon="11.062826025611077"><ele>550.0</ele><time>2026-04-17T10:46:18.999Z</time></trkpt><trkpt lat="46.340742177795825" lon="11.06276405001601"><ele>550.0</ele><time>2026-04-17T10:46:19.999Z</time></trkpt><trkpt lat="46.34095925955223" lon="11.062714451161073"><ele>553.3333333333334</ele><time>2026-04-17T10:46:20.999Z</time></trkpt><trkpt lat="46.34114151885916" lon="11.062676189339134"><ele>556.6666666666666</ele><time>2026-04-17T10:46:21.999Z</time></trkpt><trkpt lat="46.34130415263781" lon="11.062648955181706"><ele>560.0</ele><time>2026-04-17T10:46:22.999Z</time></trkpt><trkpt lat="46.341455695405166" lon="11.062638065643249"><ele>560.3333333333333</ele><time>2026-04-17T10:46:23.999Z</time></trkpt><trkpt lat="46.34160847251018" lon="11.062633885676886"><ele>560.6666666666666</ele><time>2026-04-17T10:46:24.999Z</time></trkpt><trkpt lat="46.341770669223514" lon="11.06265347980236"><ele>561.0</ele><time>2026-04-17T10:46:25.999Z</time></trkpt><trkpt lat="46.341952854578764" lon="11.062716926409093"><ele>561.0</ele><time>2026-04-17T10:46:26.999Z</time></trkpt><trkpt lat="46.34212745554597" lon="11.062798186948879"><ele>561.0</ele><time>2026-04-17T10:46:27.999Z</time></trkpt><trkpt lat="46.34228215922579" lon="11.062884202230515"><ele>561.0</ele><time>2026-04-17T10:46:29Z</time></trkpt><trkpt lat="46.34243410049643" lon="11.06296681930428"><ele>561.75</ele><time>2026-04-17T10:46:30Z</time></trkpt><trkpt lat="46.34256305319404" lon="11.063038128530945"><ele>562.5</ele><time>2026-04-17T10:46:31Z</time></trkpt><trkpt lat="46.34267668290757" lon="11.063103253895989"><ele>563.25</ele><time>2026-04-17T10:46:32Z</time></trkpt><trkpt lat="46.34279834776499" lon="11.063170999003148"><ele>564.0</ele><time>2026-04-17T10:46:33Z</time></trkpt><trkpt lat="46.34294794543396" lon="11.063251073795458"><ele>564.6666666666666</ele><time>2026-04-17T10:46:34Z</time></trkpt><trkpt lat="46.34314348774186" lon="11.063358329607174"><ele>565.3333333333333</ele><time>2026-04-17T10:46:35Z</time></trkpt><trkpt lat="46.34334600247043" lon="11.063470790882278"><ele>566.0</ele><time>2026-04-17T10:46:36Z</time></trkpt><trkpt lat="46.34355548939929" lon="11.063601674816265"><ele>566.0</ele><time>2026-04-17T10:46:37Z</time></trkpt><trkpt lat="46.34377556657532" lon="11.063767194895338"><ele>566.0</ele><time>2026-04-17T10:46:38Z</time></trkpt><trkpt lat="46.343990280753665" lon="11.063943647710143"><ele>566.6666666666666</ele><time>2026-04-17T10:46:39Z</time></trkpt><trkpt lat="46.344168680483406" lon="11.06413085295017"><ele>567.3333333333334</ele><time>2026-04-17T10:46:40Z</time></trkpt><trkpt lat="46.344315545545584" lon="11.064262663969949"><ele>568.0</ele><time>2026-04-17T10:46:41Z</time></trkpt><trkpt lat="46.34444377019234" lon="11.06436913236112"><ele>568.0</ele><time>2026-04-17T10:46:42Z</time></trkpt><trkpt lat="46.344580522269105" lon="11.064444121745176"><ele>568.0</ele><time>2026-04-17T10:46:43Z</time></trkpt><trkpt lat="46.3447381687071" lon="11.06447754613583"><ele>568.0</ele><time>2026-04-17T10:46:44Z</time></trkpt><trkpt lat="46.3449183154593" lon="11.064471221448148"><ele>567.3333333333334</ele><time>2026-04-17T10:46:45Z</time></trkpt><trkpt lat="46.34510973016912" lon="11.064429695035495"><ele>566.6666666666666</ele><time>2026-04-17T10:46:46Z</time></trkpt><trkpt lat="46.345316152584374" lon="11.064356179858455"><ele>566.0</ele><time>2026-04-17T10:46:47Z</time></trkpt><trkpt lat="46.34549898901375" lon="11.064288379565376"><ele>567.6666666666666</ele><time>2026-04-17T10:46:48Z</time></trkpt><trkpt lat="46.34567304796592" lon="11.064235827438246"><ele>569.3333333333334</ele><time>2026-04-17T10:46:49Z</time></trkpt><trkpt lat="46.34582690637766" lon="11.064210386943895"><ele>571.0</ele><time>2026-04-17T10:46:50Z</time></trkpt><trkpt lat="46.345992335384715" lon="11.064207812121314"><ele>571.0</ele><time>2026-04-17T10:46:51Z</time></trkpt><trkpt lat="46.34618934235676" lon="11.064226231283982"><ele>571.0</ele><time>2026-04-17T10:46:52Z</time></trkpt><trkpt lat="46.34636185734336" lon="11.064243236036456"><ele>571.0</ele><time>2026-04-17T10:46:53Z</time></trkpt><trkpt lat="46.3465204998515" lon="11.064259006755659"><ele>572.6666666666667</ele><time>2026-04-17T10:46:54Z</time></trkpt><trkpt lat="46.34666653668368" lon="11.064278185043392"><ele>574.3333333333334</ele><time>2026-04-17T10:46:55Z</time></trkpt><trkpt lat="46.3468210390248" lon="11.06429651677192"><ele>576.0</ele><time>2026-04-17T10:46:56Z</time></trkpt><trkpt lat="46.34697839934054" lon="11.064322347349957"><ele>576.0</ele><time>2026-04-17T10:46:57Z</time></trkpt><trkpt lat="46.34712460006727" lon="11.06437153497569"><ele>576.0</ele><time>2026-04-17T10:46:58Z</time></trkpt><trkpt lat="46.34727116135002" lon="11.064448518882523"><ele>576.0</ele><time>2026-04-17T10:46:59Z</time></trkpt><trkpt lat="46.347422813228896" lon="11.064552625886007"><ele>578.6666666666666</ele><time>2026-04-17T10:47:00Z</time></trkpt><trkpt lat="46.34759362372147" lon="11.064681640336547"><ele>581.3333333333333</ele><time>2026-04-17T10:47:01Z</time></trkpt><trkpt lat="46.347785493246995" lon="11.064854733109911"><ele>584.0</ele><time>2026-04-17T10:47:02Z</time></trkpt><trkpt lat="46.3479793552556" lon="11.065008315517018"><ele>581.0</ele><time>2026-04-17T10:47:03Z</time></trkpt><trkpt lat="46.34815207379193" lon="11.065132021114241"><ele>578.0</ele><time>2026-04-17T10:47:04Z</time></trkpt><trkpt lat="46.348304681398965" lon="11.065252582094415"><ele>575.0</ele><time>2026-04-17T10:47:05Z</time></trkpt><trkpt lat="46.34846498203344" lon="11.065332639350396"><ele>575.0</ele><time>2026-04-17T10:47:06Z</time></trkpt><trkpt lat="46.348628241450996" lon="11.065361522115007"><ele>575.0</ele><time>2026-04-17T10:47:07Z</time></trkpt><trkpt lat="46.34880113586617" lon="11.065350429116942"><ele>575.0</ele><time>2026-04-17T10:47:08Z</time></trkpt><trkpt lat="46.34899538467428" lon="11.065345762193152"><ele>573.6666666666666</ele><time>2026-04-17T10:47:09Z</time></trkpt><trkpt lat="46.34918080936519" lon="11.06538235916644"><ele>572.3333333333334</ele><time>2026-04-17T10:47:10Z</time></trkpt><trkpt lat="46.34936469747179" lon="11.065432910368616"><ele>571.0</ele><time>2026-04-17T10:47:11Z</time></trkpt><trkpt lat="46.349533982503964" lon="11.065485637560743"><ele>571.0</ele><time>2026-04-17T10:47:12Z</time></trkpt><trkpt lat="46.34965899680245" lon="11.065532408740815"><ele>571.0</ele><time>2026-04-17T10:47:13Z</time></trkpt><trkpt lat="46.34976376574902" lon="11.065571657823595"><ele>571.0</ele><time>2026-04-17T10:47:14Z</time></trkpt><trkpt lat="46.34986229808786" lon="11.065611660813689"><ele>571.0</ele><time>2026-04-17T10:47:15Z</time></trkpt><trkpt lat="46.349976478717586" lon="11.065653610431028"><ele>571.0</ele><time>2026-04-17T10:47:16Z</time></trkpt><trkpt lat="46.35009862186456" lon="11.065690786307643"><ele>571.0</ele><time>2026-04-17T10:47:17Z</time></trkpt><trkpt lat="46.35021890839279" lon="11.06572508179425"><ele>571.0</ele><time>2026-04-17T10:47:18Z</time></trkpt><trkpt lat="46.35032951047335" lon="11.065761191019105"><ele>571.0</ele><time>2026-04-17T10:47:19Z</time></trkpt><trkpt lat="46.35044137552625" lon="11.065803767537606"><ele>573.5</ele><time>2026-04-17T10:47:20Z</time></trkpt><trkpt lat="46.35056811699463" lon="11.065849203034139"><ele>576.0</ele><time>2026-04-17T10:47:21Z</time></trkpt><trkpt lat="46.35070211810811" lon="11.065897098556835"><ele>578.5</ele><time>2026-04-17T10:47:22Z</time></trkpt><trkpt lat="46.3508418359347" lon="11.065970922366436"><ele>581.0</ele><time>2026-04-17T10:47:23Z</time></trkpt><trkpt lat="46.35098606644319" lon="11.066081179555908"><ele>581.0</ele><time>2026-04-17T10:47:24Z</time></trkpt><trkpt lat="46.3511425955442" lon="11.066205018400167"><ele>581.0</ele><time>2026-04-17T10:47:25Z</time></trkpt><trkpt lat="46.35132079669322" lon="11.066381551908512"><ele>581.0</ele><time>2026-04-17T10:47:26Z</time></trkpt><trkpt lat="46.35152232291886" lon="11.06655052631276"><ele>585.0</ele><time>2026-04-17T10:47:27Z</time></trkpt><trkpt lat="46.35173309267404" lon="11.06672576684986"><ele>589.0</ele><time>2026-04-17T10:47:28Z</time></trkpt><trkpt lat="46.35196409073622" lon="11.066917817794849"><ele>589.0</ele><time>2026-04-17T10:47:29Z</time></trkpt><trkpt lat="46.35219696902011" lon="11.06711152670905"><ele>589.0</ele><time>2026-04-17T10:47:30Z</time></trkpt><trkpt lat="46.35239964358438" lon="11.067264784643926"><ele>587.5</ele><time>2026-04-17T10:47:31Z</time></trkpt><trkpt lat="46.352598570803785" lon="11.067439329128318"><ele>586.0</ele><time>2026-04-17T10:47:32Z</time></trkpt><trkpt lat="46.352808793077934" lon="11.067615812824236"><ele>588.0</ele><time>2026-04-17T10:47:33Z</time></trkpt><trkpt lat="46.35303913747858" lon="11.06778947492199"><ele>590.0</ele><time>2026-04-17T10:47:34Z</time></trkpt><trkpt lat="46.35328152134627" lon="11.067952569937992"><ele>590.0</ele><time>2026-04-17T10:47:35Z</time></trkpt><trkpt lat="46.35349717602395" lon="11.068087538110406"><ele>590.0</ele><time>2026-04-17T10:47:36Z</time></trkpt><trkpt lat="46.353681206210695" lon="11.068206526563902"><ele>590.0</ele><time>2026-04-17T10:47:37Z</time></trkpt><trkpt lat="46.35384337383366" lon="11.068314882800175"><ele>591.6666666666666</ele><time>2026-04-17T10:47:38Z</time></trkpt><trkpt lat="46.3540058352809" lon="11.068404127591055"><ele>593.3333333333334</ele><time>2026-04-17T10:47:39Z</time></trkpt><trkpt lat="46.35418209284191" lon="11.06846693548869"><ele>595.0</ele><time>2026-04-17T10:47:40Z</time></trkpt><trkpt lat="46.35437111452792" lon="11.068507823145886"><ele>595.0</ele><time>2026-04-17T10:47:41Z</time></trkpt><trkpt lat="46.35458496333275" lon="11.068524377030577"><ele>595.0</ele><time>2026-04-17T10:47:42Z</time></trkpt><trkpt lat="46.35482409149439" lon="11.068531520532611"><ele>597.5</ele><time>2026-04-17T10:47:43Z</time></trkpt><trkpt lat="46.355081005216206" lon="11.068551082148598"><ele>600.0</ele><time>2026-04-17T10:47:44Z</time></trkpt><trkpt lat="46.355328808762145" lon="11.068580483277808"><ele>600.5</ele><time>2026-04-17T10:47:45Z</time></trkpt><trkpt lat="46.35558911584597" lon="11.068625579464165"><ele>601.0</ele><time>2026-04-17T10:47:46Z</time></trkpt><trkpt lat="46.355855155904436" lon="11.068679583984618"><ele>601.0</ele><time>2026-04-17T10:47:47Z</time></trkpt><trkpt lat="46.35607916298269" lon="11.068728035678639"><ele>601.0</ele><time>2026-04-17T10:47:48Z</time></trkpt><trkpt lat="46.3562805690029" lon="11.068768565094706"><ele>601.0</ele><time>2026-04-17T10:47:49Z</time></trkpt><trkpt lat="46.35646778160466" lon="11.06881356261182"><ele>598.0</ele><time>2026-04-17T10:47:50Z</time></trkpt><trkpt lat="46.35664800769417" lon="11.068868120833988"><ele>595.0</ele><time>2026-04-17T10:47:51Z</time></trkpt><trkpt lat="46.35681830876895" lon="11.068956267258136"><ele>592.0</ele><time>2026-04-17T10:47:52Z</time></trkpt><trkpt lat="46.35698760395042" lon="11.069085844571212"><ele>594.3333333333334</ele><time>2026-04-17T10:47:53Z</time></trkpt><trkpt lat="46.3571603791891" lon="11.06924709363595"><ele>596.6666666666666</ele><time>2026-04-17T10:47:54Z</time></trkpt><trkpt lat="46.35733986613761" lon="11.069438569000642"><ele>599.0</ele><time>2026-04-17T10:47:55Z</time></trkpt><trkpt lat="46.357534903587485" lon="11.069642044904139"><ele>599.0</ele><time>2026-04-17T10:47:56Z</time></trkpt><trkpt lat="46.35774098530198" lon="11.06983870746551"><ele>599.0</ele><time>2026-04-17T10:47:57Z</time></trkpt><trkpt lat="46.35792345700864" lon="11.070012223803767"><ele>599.6666666666666</ele><time>2026-04-17T10:47:58Z</time></trkpt><trkpt lat="46.35809007421826" lon="11.070192964172046"><ele>600.3333333333334</ele><time>2026-04-17T10:47:59Z</time></trkpt><trkpt lat="46.35824472124994" lon="11.070393009462304"><ele>601.0</ele><time>2026-04-17T10:48:00Z</time></trkpt><trkpt lat="46.35841804210661" lon="11.070583947750235"><ele>601.0</ele><time>2026-04-17T10:48:01Z</time></trkpt><trkpt lat="46.35862663309786" lon="11.070767418910998"><ele>601.0</ele><time>2026-04-17T10:48:02Z</time></trkpt><trkpt lat="46.358812503299845" lon="11.07093611280994"><ele>600.6666666666667</ele><time>2026-04-17T10:48:03Z</time></trkpt><trkpt lat="46.35896653058864" lon="11.071084556076313"><ele>600.3333333333334</ele><time>2026-04-17T10:48:04Z</time></trkpt><trkpt lat="46.35909460750501" lon="11.071204885328497"><ele>600.0</ele><time>2026-04-17T10:48:05Z</time></trkpt><trkpt lat="46.35919939759271" lon="11.071299021567476"><ele>600.0</ele><time>2026-04-17T10:48:06Z</time></trkpt><trkpt lat="46.35928937753188" lon="11.071393202679673"><ele>600.0</ele><time>2026-04-17T10:48:06.999Z</time></trkpt><trkpt lat="46.359357172941536" lon="11.071498200551837"><ele>600.0</ele><time>2026-04-17T10:48:07.999Z</time></trkpt><trkpt lat="46.35939591332916" lon="11.071633487499248"><ele>600.0</ele><time>2026-04-17T10:48:08.999Z</time></trkpt><trkpt lat="46.35942515828751" lon="11.071801083409053"><ele>600.0</ele><time>2026-04-17T10:48:09.999Z</time></trkpt><trkpt lat="46.35944197588527" lon="11.072004314087854"><ele>604.5</ele><time>2026-04-17T10:48:10.999Z</time></trkpt><trkpt lat="46.35945255491011" lon="11.072229683715738"><ele>609.0</ele><time>2026-04-17T10:48:11.999Z</time></trkpt><trkpt lat="46.35944873928136" lon="11.07243609078171"><ele>613.5</ele><time>2026-04-17T10:48:12.999Z</time></trkpt><trkpt lat="46.35942981408945" lon="11.072620960647132"><ele>618.0</ele><time>2026-04-17T10:48:13.999Z</time></trkpt><trkpt lat="46.35940237475904" lon="11.072794789781742"><ele>621.0</ele><time>2026-04-17T10:48:14.999Z</time></trkpt><trkpt lat="46.359446530748755" lon="11.072988668641761"><ele>624.0</ele><time>2026-04-17T10:48:15.999Z</time></trkpt><trkpt lat="46.359499893652966" lon="11.073187134571418"><ele>627.0</ele><time>2026-04-17T10:48:16.999Z</time></trkpt><trkpt lat="46.359568338044106" lon="11.073366889075764"><ele>630.0</ele><time>2026-04-17T10:48:17.999Z</time></trkpt><trkpt lat="46.359627905986486" lon="11.073528004300686"><ele>624.0</ele><time>2026-04-17T10:48:18.999Z</time></trkpt><trkpt lat="46.359734960080445" lon="11.073644164577004"><ele>618.0</ele><time>2026-04-17T10:48:19.999Z</time></trkpt><trkpt lat="46.35983700365595" lon="11.073784758293915"><ele>612.0</ele><time>2026-04-17T10:48:20.999Z</time></trkpt><trkpt lat="46.359976812679434" lon="11.073898941225295"><ele>606.0</ele><time>2026-04-17T10:48:21.999Z</time></trkpt><trkpt lat="46.360128835072835" lon="11.073954804544096"><ele>606.0</ele><time>2026-04-17T10:48:22.999Z</time></trkpt><trkpt lat="46.36029705440139" lon="11.074013953414697"><ele>606.0</ele><time>2026-04-17T10:48:23.999Z</time></trkpt><trkpt lat="46.36048690314529" lon="11.074097475791733"><ele>606.0</ele><time>2026-04-17T10:48:24.999Z</time></trkpt><trkpt lat="46.36069591185628" lon="11.074170813201558"><ele>608.0</ele><time>2026-04-17T10:48:25.999Z</time></trkpt><trkpt lat="46.3609050010221" lon="11.074240988504943"><ele>610.0</ele><time>2026-04-17T10:48:26.999Z</time></trkpt><trkpt lat="46.361097149483946" lon="11.074241449506985"><ele>612.0</ele><time>2026-04-17T10:48:27.999Z</time></trkpt><trkpt lat="46.36125561131052" lon="11.07430605084513"><ele>609.6666666666666</ele><time>2026-04-17T10:48:28.999Z</time></trkpt><trkpt lat="46.3613942010349" lon="11.074408020596179"><ele>607.3333333333333</ele><time>2026-04-17T10:48:29.999Z</time></trkpt><trkpt lat="46.3615427527213" lon="11.074539147100275"><ele>605.0</ele><time>2026-04-17T10:48:30.999Z</time></trkpt><trkpt lat="46.36171113870504" lon="11.074704807724807"><ele>605.0</ele><time>2026-04-17T10:48:31.999Z</time></trkpt><trkpt lat="46.36188793450072" lon="11.07487450088784"><ele>605.0</ele><time>2026-04-17T10:48:32.999Z</time></trkpt><trkpt lat="46.362047520988014" lon="11.075006893231714"><ele>605.0</ele><time>2026-04-17T10:48:33.999Z</time></trkpt><trkpt lat="46.36221233871311" lon="11.075089844547799"><ele>608.25</ele><time>2026-04-17T10:48:35Z</time></trkpt><trkpt lat="46.36237658757716" lon="11.075137352609635"><ele>611.5</ele><time>2026-04-17T10:48:36Z</time></trkpt><trkpt lat="46.36250869494941" lon="11.07518805571647"><ele>614.75</ele><time>2026-04-17T10:48:37Z</time></trkpt><trkpt lat="46.362623560066936" lon="11.075258725021753"><ele>618.0</ele><time>2026-04-17T10:48:38Z</time></trkpt><trkpt lat="46.36272979821268" lon="11.07535920485854"><ele>618.0</ele><time>2026-04-17T10:48:39Z</time></trkpt><trkpt lat="46.362830472325705" lon="11.075498454741734"><ele>618.0</ele><time>2026-04-17T10:48:40Z</time></trkpt><trkpt lat="46.36294397593741" lon="11.075690382018587"><ele>618.0</ele><time>2026-04-17T10:48:41Z</time></trkpt><trkpt lat="46.363077075401456" lon="11.075911446394107"><ele>616.6666666666666</ele><time>2026-04-17T10:48:42Z</time></trkpt><trkpt lat="46.36320609501813" lon="11.076131337727048"><ele>615.3333333333333</ele><time>2026-04-17T10:48:43Z</time></trkpt><trkpt lat="46.363353226179754" lon="11.076387730468873"><ele>614.0</ele><time>2026-04-17T10:48:44Z</time></trkpt><trkpt lat="46.363498515152116" lon="11.076666490657184"><ele>620.0</ele><time>2026-04-17T10:48:45Z</time></trkpt><trkpt lat="46.36361787475337" lon="11.076900490038977"><ele>626.0</ele><time>2026-04-17T10:48:46Z</time></trkpt><trkpt lat="46.3637320261529" lon="11.077115471472686"><ele>632.0</ele><time>2026-04-17T10:48:47Z</time></trkpt><trkpt lat="46.36382009854712" lon="11.077306907353435"><ele>631.2</ele><time>2026-04-17T10:48:48Z</time></trkpt><trkpt lat="46.36388657449668" lon="11.077466388379355"><ele>630.4000000000001</ele><time>2026-04-17T10:48:49Z</time></trkpt><trkpt lat="46.36393983105716" lon="11.077572871952166"><ele>629.5999999999999</ele><time>2026-04-17T10:48:50Z</time></trkpt><trkpt lat="46.364005078373886" lon="11.077642055664777"><ele>628.8</ele><time>2026-04-17T10:48:51Z</time></trkpt><trkpt lat="46.36408639155138" lon="11.077660457288903"><ele>628.0</ele><time>2026-04-17T10:48:52Z</time></trkpt><trkpt lat="46.364161240542664" lon="11.07762985319522"><ele>628.0</ele><time>2026-04-17T10:48:53Z</time></trkpt><trkpt lat="46.36423554976957" lon="11.077554891842425"><ele>628.0</ele><time>2026-04-17T10:48:54Z</time></trkpt><trkpt lat="46.3643301900783" lon="11.077442838893047"><ele>628.0</ele><time>2026-04-17T10:48:55Z</time></trkpt><trkpt lat="46.364440845075336" lon="11.0772845185153"><ele>628.0</ele><time>2026-04-17T10:48:56Z</time></trkpt><trkpt lat="46.36452523994303" lon="11.07714187084843"><ele>630.3333333333334</ele><time>2026-04-17T10:48:57Z</time></trkpt><trkpt lat="46.36460501898716" lon="11.076976714336313"><ele>632.6666666666666</ele><time>2026-04-17T10:48:58Z</time></trkpt><trkpt lat="46.3646801565836" lon="11.076788387712885"><ele>635.0</ele><time>2026-04-17T10:48:59Z</time></trkpt><trkpt lat="46.3647385091306" lon="11.076569016463433"><ele>635.0</ele><time>2026-04-17T10:49:00Z</time></trkpt><trkpt lat="46.36478481327342" lon="11.076333212730448"><ele>635.0</ele><time>2026-04-17T10:49:01Z</time></trkpt><trkpt lat="46.36481781839354" lon="11.076134576267796"><ele>635.0</ele><time>2026-04-17T10:49:02Z</time></trkpt><trkpt lat="46.364835178128004" lon="11.075954544819737"><ele>635.0</ele><time>2026-04-17T10:49:03Z</time></trkpt><trkpt lat="46.364822257343995" lon="11.075763080194058"><ele>638.0</ele><time>2026-04-17T10:49:04Z</time></trkpt><trkpt lat="46.36479168513204" lon="11.075523129087056"><ele>641.0</ele><time>2026-04-17T10:49:05Z</time></trkpt><trkpt lat="46.36476078547" lon="11.075255898794005"><ele>644.0</ele><time>2026-04-17T10:49:06Z</time></trkpt><trkpt lat="46.364734928348874" lon="11.075022687713476"><ele>645.3333333333333</ele><time>2026-04-17T10:49:07Z</time></trkpt><trkpt lat="46.364708300875506" lon="11.07477929677173"><ele>646.6666666666666</ele><time>2026-04-17T10:49:08Z</time></trkpt><trkpt lat="46.36466688537777" lon="11.074560714866182"><ele>648.0</ele><time>2026-04-17T10:49:09Z</time></trkpt><trkpt lat="46.36459573942161" lon="11.074366823790363"><ele>646.25</ele><time>2026-04-17T10:49:10Z</time></trkpt><trkpt lat="46.364512845635865" lon="11.074194862955817"><ele>644.5</ele><time>2026-04-17T10:49:11Z</time></trkpt><trkpt lat="46.36441437644445" lon="11.07403663618214"><ele>642.75</ele><time>2026-04-17T10:49:12Z</time></trkpt><trkpt lat="46.36429572550584" lon="11.073887160785384"><ele>641.0</ele><time>2026-04-17T10:49:13Z</time></trkpt><trkpt lat="46.3642119380238" lon="11.073774149902968"><ele>641.0</ele><time>2026-04-17T10:49:14Z</time></trkpt><trkpt lat="46.364151943696115" lon="11.073649240553646"><ele>641.0</ele><time>2026-04-17T10:49:15Z</time></trkpt><trkpt lat="46.36411551769059" lon="11.073498281715002"><ele>641.0</ele><time>2026-04-17T10:49:16Z</time></trkpt><trkpt lat="46.36410388023198" lon="11.073343801338167"><ele>641.0</ele><time>2026-04-17T10:49:17Z</time></trkpt><trkpt lat="46.364119413086705" lon="11.073191762844848"><ele>641.0</ele><time>2026-04-17T10:49:18Z</time></trkpt><trkpt lat="46.36415469702963" lon="11.073043534451614"><ele>641.75</ele><time>2026-04-17T10:49:19Z</time></trkpt><trkpt lat="46.364221528954" lon="11.07291293396593"><ele>642.5</ele><time>2026-04-17T10:49:20Z</time></trkpt><trkpt lat="46.364314674446746" lon="11.072805604443635"><ele>643.25</ele><time>2026-04-17T10:49:21Z</time></trkpt><trkpt lat="46.36442319503581" lon="11.072740672868457"><ele>644.0</ele><time>2026-04-17T10:49:22Z</time></trkpt><trkpt lat="46.36453665514814" lon="11.07272450958082"><ele>644.0</ele><time>2026-04-17T10:49:23Z</time></trkpt><trkpt lat="46.36463774961409" lon="11.072753956598863"><ele>644.0</ele><time>2026-04-17T10:49:24Z</time></trkpt><trkpt lat="46.3647244222426" lon="11.072810330928007"><ele>644.0</ele><time>2026-04-17T10:49:25Z</time></trkpt><trkpt lat="46.36481625279481" lon="11.07290683288187"><ele>644.0</ele><time>2026-04-17T10:49:26Z</time></trkpt><trkpt lat="46.364904437016584" lon="11.073047946832935"><ele>644.0</ele><time>2026-04-17T10:49:27Z</time></trkpt><trkpt lat="46.36500170511209" lon="11.073220854511902"><ele>646.3333333333333</ele><time>2026-04-17T10:49:28Z</time></trkpt><trkpt lat="46.36512867151941" lon="11.073418428437462"><ele>648.6666666666666</ele><time>2026-04-17T10:49:29Z</time></trkpt><trkpt lat="46.36524876168568" lon="11.073602797268574"><ele>651.0</ele><time>2026-04-17T10:49:30Z</time></trkpt><trkpt lat="46.36535812143123" lon="11.073783821975004"><ele>651.0</ele><time>2026-04-17T10:49:31Z</time></trkpt><trkpt lat="46.365469563455335" lon="11.073954165934587"><ele>651.0</ele><time>2026-04-17T10:49:32Z</time></trkpt><trkpt lat="46.365590755802195" lon="11.074112960261749"><ele>651.0</ele><time>2026-04-17T10:49:33Z</time></trkpt><trkpt lat="46.36572546516794" lon="11.074259579715111"><ele>652.0</ele><time>2026-04-17T10:49:34Z</time></trkpt><trkpt lat="46.36588303755905" lon="11.074421880919244"><ele>653.0</ele><time>2026-04-17T10:49:35Z</time></trkpt><trkpt lat="46.36603893072313" lon="11.074587714522444"><ele>654.0</ele><time>2026-04-17T10:49:36Z</time></trkpt><trkpt lat="46.36618042631389" lon="11.074734412061815"><ele>654.0</ele><time>2026-04-17T10:49:37Z</time></trkpt><trkpt lat="46.36629769936855" lon="11.074870256285255"><ele>654.0</ele><time>2026-04-17T10:49:38Z</time></trkpt><trkpt lat="46.366424898635834" lon="11.074989215613648"><ele>654.0</ele><time>2026-04-17T10:49:39Z</time></trkpt><trkpt lat="46.36653616840614" lon="11.075130167195383"><ele>654.0</ele><time>2026-04-17T10:49:40Z</time></trkpt><trkpt lat="46.36665335930703" lon="11.075259434649906"><ele>655.6666666666666</ele><time>2026-04-17T10:49:41Z</time></trkpt><trkpt lat="46.36675727746664" lon="11.075432464991"><ele>657.3333333333333</ele><time>2026-04-17T10:49:41.999Z</time></trkpt><trkpt lat="46.36686965219117" lon="11.075617709225819"><ele>659.0</ele><time>2026-04-17T10:49:42.999Z</time></trkpt><trkpt lat="46.36697968461334" lon="11.075819251041763"><ele>659.6666666666666</ele><time>2026-04-17T10:49:43.999Z</time></trkpt><trkpt lat="46.367081860712524" lon="11.07600647744978"><ele>660.3333333333334</ele><time>2026-04-17T10:49:44.999Z</time></trkpt><trkpt lat="46.36717878990004" lon="11.076169430853929"><ele>661.0</ele><time>2026-04-17T10:49:45.999Z</time></trkpt><trkpt lat="46.367273216007874" lon="11.076317224395998"><ele>661.6666666666667</ele><time>2026-04-17T10:49:46.999Z</time></trkpt><trkpt lat="46.367350920350574" lon="11.076440025996575"><ele>662.3333333333334</ele><time>2026-04-17T10:49:47.999Z</time></trkpt><trkpt lat="46.36741597520966" lon="11.076537998972832"><ele>663.0</ele><time>2026-04-17T10:49:48.999Z</time></trkpt><trkpt lat="46.36746428823872" lon="11.076618017685451"><ele>663.6666666666666</ele><time>2026-04-17T10:49:49.999Z</time></trkpt><trkpt lat="46.36753058685137" lon="11.076718320434027"><ele>664.3333333333333</ele><time>2026-04-17T10:49:51.999Z</time></trkpt><trkpt lat="46.367576172610576" lon="11.076787310567909"><ele>665.0</ele><time>2026-04-17T10:49:54.999Z</time></trkpt><trkpt lat="46.36765026911602" lon="11.076740647711837"><ele>665.5</ele><time>2026-04-17T10:50:45Z</time></trkpt><trkpt lat="46.367676170806014" lon="11.076829307855057"><ele>666.0</ele><time>2026-04-17T10:54:12.999Z</time></trkpt><trkpt lat="46.367747354976565" lon="11.076942996049398"><ele>666.5</ele><time>2026-04-17T10:54:14.999Z</time></trkpt><trkpt lat="46.367795842875005" lon="11.077054313141964"><ele>667.0</ele><time>2026-04-17T10:54:16.999Z</time></trkpt><trkpt lat="46.3678321902379" lon="11.07718523373793"><ele>667.5</ele><time>2026-04-17T10:54:22.999Z</time></trkpt><trkpt lat="46.367881996215814" lon="11.07729129564628"><ele>668.0</ele><time>2026-04-17T10:54:23.999Z</time></trkpt><trkpt lat="46.367956071900096" lon="11.077420706924299"><ele>668.75</ele><time>2026-04-17T10:54:24.999Z</time></trkpt><trkpt lat="46.36802391761016" lon="11.077536706871111"><ele>669.5</ele><time>2026-04-17T10:54:25.999Z</time></trkpt><trkpt lat="46.368095338143526" lon="11.077662066004851"><ele>670.25</ele><time>2026-04-17T10:54:26.999Z</time></trkpt><trkpt lat="46.36818867250384" lon="11.077817549526548"><ele>671.0</ele><time>2026-04-17T10:54:27.999Z</time></trkpt><trkpt lat="46.368293219205704" lon="11.077978377807385"><ele>671.0</ele><time>2026-04-17T10:54:28.999Z</time></trkpt><trkpt lat="46.368415612696296" lon="11.078149542894039"><ele>671.0</ele><time>2026-04-17T10:54:29.999Z</time></trkpt><trkpt lat="46.3685502035927" lon="11.078342221460014"><ele>671.0</ele><time>2026-04-17T10:54:30.999Z</time></trkpt><trkpt lat="46.36867067540621" lon="11.07851833138467"><ele>672.3333333333333</ele><time>2026-04-17T10:54:31.999Z</time></trkpt><trkpt lat="46.368784571717164" lon="11.078688381402774"><ele>673.6666666666666</ele><time>2026-04-17T10:54:32.999Z</time></trkpt><trkpt lat="46.36889526055744" lon="11.078874740838716"><ele>675.0</ele><time>2026-04-17T10:54:33.999Z</time></trkpt><trkpt lat="46.36901926225046" lon="11.079090057250209"><ele>676.0</ele><time>2026-04-17T10:54:34.999Z</time></trkpt><trkpt lat="46.36914710391713" lon="11.079320839110375"><ele>677.0</ele><time>2026-04-17T10:54:35.999Z</time></trkpt><trkpt lat="46.369279062608754" lon="11.07955081874382"><ele>678.0</ele><time>2026-04-17T10:54:36.999Z</time></trkpt><trkpt lat="46.36942428508484" lon="11.079797123167443"><ele>677.3333333333334</ele><time>2026-04-17T10:54:37.999Z</time></trkpt><trkpt lat="46.36955747295482" lon="11.080031543923596"><ele>676.6666666666667</ele><time>2026-04-17T10:54:38.999Z</time></trkpt><trkpt lat="46.3696756843863" lon="11.080248878837022"><ele>676.0</ele><time>2026-04-17T10:54:39.999Z</time></trkpt><trkpt lat="46.369784067723906" lon="11.080450346850538"><ele>675.6666666666667</ele><time>2026-04-17T10:54:40.999Z</time></trkpt><trkpt lat="46.36988679004738" lon="11.080644981873233"><ele>675.3333333333334</ele><time>2026-04-17T10:54:41.999Z</time></trkpt><trkpt lat="46.3699899336035" lon="11.08082591369547"><ele>675.0</ele><time>2026-04-17T10:54:42.999Z</time></trkpt><trkpt lat="46.370093735290375" lon="11.08100856787496"><ele>675.0</ele><time>2026-04-17T10:54:43.999Z</time></trkpt><trkpt lat="46.37019544788492" lon="11.081194119685906"><ele>675.0</ele><time>2026-04-17T10:54:44.999Z</time></trkpt><trkpt lat="46.370282983480685" lon="11.081358173703624"><ele>675.0</ele><time>2026-04-17T10:54:45.999Z</time></trkpt><trkpt lat="46.37037261024373" lon="11.081535569095326"><ele>670.0</ele><time>2026-04-17T10:54:46.999Z</time></trkpt><trkpt lat="46.37044241170035" lon="11.08173182578584"><ele>665.0</ele><time>2026-04-17T10:54:47.999Z</time></trkpt><trkpt lat="46.370485059329766" lon="11.081956378780125"><ele>660.0</ele><time>2026-04-17T10:54:48.999Z</time></trkpt><trkpt lat="46.37051540083665" lon="11.082198973110629"><ele>664.0</ele><time>2026-04-17T10:54:49.999Z</time></trkpt><trkpt lat="46.37055298541904" lon="11.082419085280147"><ele>668.0</ele><time>2026-04-17T10:54:50.999Z</time></trkpt><trkpt lat="46.370614527051885" lon="11.082610511186658"><ele>672.0</ele><time>2026-04-17T10:54:51.999Z</time></trkpt><trkpt lat="46.37071322754291" lon="11.082785862792363"><ele>672.3333333333334</ele><time>2026-04-17T10:54:53Z</time></trkpt><trkpt lat="46.37084186073973" lon="11.082964171921994"><ele>672.6666666666667</ele><time>2026-04-17T10:54:54Z</time></trkpt><trkpt lat="46.37098944196772" lon="11.083145603241315"><ele>673.0</ele><time>2026-04-17T10:54:55Z</time></trkpt><trkpt lat="46.371119727526285" lon="11.08331628510976"><ele>672.0</ele><time>2026-04-17T10:54:56Z</time></trkpt><trkpt lat="46.37122264731933" lon="11.083468009037183"><ele>671.0</ele><time>2026-04-17T10:54:57Z</time></trkpt><trkpt lat="46.37130178251548" lon="11.083631677683622"><ele>670.0</ele><time>2026-04-17T10:54:58Z</time></trkpt><trkpt lat="46.371357905561446" lon="11.083818242728007"><ele>669.0</ele><time>2026-04-17T10:54:59Z</time></trkpt><trkpt lat="46.37138474501214" lon="11.084017955582883"><ele>671.0</ele><time>2026-04-17T10:55:00Z</time></trkpt><trkpt lat="46.37138385396166" lon="11.084228499971035"><ele>673.0</ele><time>2026-04-17T10:55:01Z</time></trkpt><trkpt lat="46.37136117689243" lon="11.084474717793995"><ele>675.0</ele><time>2026-04-17T10:55:02Z</time></trkpt><trkpt lat="46.37133982711009" lon="11.084686942260161"><ele>675.0</ele><time>2026-04-17T10:55:03Z</time></trkpt><trkpt lat="46.37131709462797" lon="11.084845944544014"><ele>675.0</ele><time>2026-04-17T10:55:04Z</time></trkpt><trkpt lat="46.37126384430254" lon="11.08498146512772"><ele>675.0</ele><time>2026-04-17T10:55:05Z</time></trkpt><trkpt lat="46.371185673197495" lon="11.085079928556796"><ele>675.0</ele><time>2026-04-17T10:55:06Z</time></trkpt><trkpt lat="46.37108610429198" lon="11.085138594746798"><ele>675.0</ele><time>2026-04-17T10:55:07Z</time></trkpt><trkpt lat="46.370969515483516" lon="11.085151427908219"><ele>676.0</ele><time>2026-04-17T10:55:08Z</time></trkpt><trkpt lat="46.37083070643139" lon="11.085129214921015"><ele>677.0</ele><time>2026-04-17T10:55:09Z</time></trkpt><trkpt lat="46.370691163081815" lon="11.085097809691952"><ele>678.0</ele><time>2026-04-17T10:55:10Z</time></trkpt><trkpt lat="46.3705729689562" lon="11.085100849241291"><ele>679.0</ele><time>2026-04-17T10:55:11Z</time></trkpt><trkpt lat="46.3704778676284" lon="11.085159748470403"><ele>679.0</ele><time>2026-04-17T10:55:12Z</time></trkpt><trkpt lat="46.370404888069416" lon="11.085271136342577"><ele>679.0</ele><time>2026-04-17T10:55:13Z</time></trkpt><trkpt lat="46.37037269653027" lon="11.085413805207242"><ele>679.0</ele><time>2026-04-17T10:55:14Z</time></trkpt><trkpt lat="46.37034999370061" lon="11.085573824986117"><ele>679.0</ele><time>2026-04-17T10:55:15Z</time></trkpt><trkpt lat="46.37033215780805" lon="11.085753289045673"><ele>679.0</ele><time>2026-04-17T10:55:16Z</time></trkpt><trkpt lat="46.37030924494867" lon="11.085938672976512"><ele>685.25</ele><time>2026-04-17T10:55:17Z</time></trkpt><trkpt lat="46.37022912165426" lon="11.086099879297368"><ele>691.5</ele><time>2026-04-17T10:55:18Z</time></trkpt><trkpt lat="46.37012720971985" lon="11.086248568071628"><ele>697.75</ele><time>2026-04-17T10:55:19Z</time></trkpt><trkpt lat="46.37006337674317" lon="11.086390441547943"><ele>704.0</ele><time>2026-04-17T10:55:20Z</time></trkpt><trkpt lat="46.37002758253948" lon="11.086494439377246"><ele>704.0</ele><time>2026-04-17T10:55:21Z</time></trkpt><trkpt lat="46.370047404937964" lon="11.086590856832549"><ele>704.0</ele><time>2026-04-17T10:55:22Z</time></trkpt><trkpt lat="46.37010864070862" lon="11.086663381092789"><ele>704.0</ele><time>2026-04-17T10:55:23Z</time></trkpt><trkpt lat="46.370184064404924" lon="11.086679010229258"><ele>704.0</ele><time>2026-04-17T10:55:24Z</time></trkpt><trkpt lat="46.37026393376753" lon="11.08662022326127"><ele>704.0</ele><time>2026-04-17T10:55:25Z</time></trkpt><trkpt lat="46.370320774747306" lon="11.086532337091427"><ele>704.0</ele><time>2026-04-17T10:55:26Z</time></trkpt><trkpt lat="46.370366763684586" lon="11.086416011603546"><ele>704.0</ele><time>2026-04-17T10:55:27Z</time></trkpt><trkpt lat="46.37041873493806" lon="11.08627319393262"><ele>704.0</ele><time>2026-04-17T10:55:28Z</time></trkpt><trkpt lat="46.37048942712615" lon="11.086102463999712"><ele>704.0</ele><time>2026-04-17T10:55:29Z</time></trkpt><trkpt lat="46.370554658900076" lon="11.085935542076724"><ele>704.0</ele><time>2026-04-17T10:55:30Z</time></trkpt><trkpt lat="46.370599365558014" lon="11.085811575552093"><ele>704.3333333333333</ele><time>2026-04-17T10:55:31Z</time></trkpt><trkpt lat="46.37061585068949" lon="11.085690545482265"><ele>704.6666666666666</ele><time>2026-04-17T10:55:32Z</time></trkpt><trkpt lat="46.37064861151555" lon="11.085605289453651"><ele>705.0</ele><time>2026-04-17T10:55:33Z</time></trkpt><trkpt lat="46.3707083027544" lon="11.085574227723997"><ele>705.3333333333334</ele><time>2026-04-17T10:55:34Z</time></trkpt><trkpt lat="46.37076901342017" lon="11.085603262511526"><ele>705.6666666666667</ele><time>2026-04-17T10:55:35Z</time></trkpt><trkpt lat="46.37081330740749" lon="11.085692918397708"><ele>706.0</ele><time>2026-04-17T10:55:36Z</time></trkpt><trkpt lat="46.37081883385886" lon="11.085834048981628"><ele>706.0</ele><time>2026-04-17T10:55:37Z</time></trkpt><trkpt lat="46.37084446763564" lon="11.08601205645188"><ele>706.0</ele><time>2026-04-17T10:55:38Z</time></trkpt><trkpt lat="46.370894123405286" lon="11.086242109887792"><ele>706.0</ele><time>2026-04-17T10:55:39Z</time></trkpt><trkpt lat="46.37092576426972" lon="11.086476288114333"><ele>709.0</ele><time>2026-04-17T10:55:40Z</time></trkpt><trkpt lat="46.37095561328023" lon="11.086642069620444"><ele>712.0</ele><time>2026-04-17T10:55:41Z</time></trkpt><trkpt lat="46.37100935087835" lon="11.086751532680147"><ele>715.0</ele><time>2026-04-17T10:55:42Z</time></trkpt><trkpt lat="46.37108637502934" lon="11.086823923760301"><ele>718.0</ele><time>2026-04-17T10:55:43Z</time></trkpt><trkpt lat="46.37117784421243" lon="11.086827174405949"><ele>721.0</ele><time>2026-04-17T10:55:44Z</time></trkpt><trkpt lat="46.37125530760455" lon="11.086777466767849"><ele>721.0</ele><time>2026-04-17T10:55:45Z</time></trkpt><trkpt lat="46.37132346194405" lon="11.08670501056373"><ele>721.0</ele><time>2026-04-17T10:55:46Z</time></trkpt><trkpt lat="46.37139296767976" lon="11.086603039299915"><ele>721.0</ele><time>2026-04-17T10:55:47Z</time></trkpt><trkpt lat="46.37147937527682" lon="11.086472650676965"><ele>721.0</ele><time>2026-04-17T10:55:48Z</time></trkpt><trkpt lat="46.371591944964585" lon="11.086309834635443"><ele>719.75</ele><time>2026-04-17T10:55:49Z</time></trkpt><trkpt lat="46.37168875280501" lon="11.086175393248636"><ele>718.5</ele><time>2026-04-17T10:55:50Z</time></trkpt><trkpt lat="46.37178516939543" lon="11.086051793635246"><ele>717.25</ele><time>2026-04-17T10:55:51Z</time></trkpt><trkpt lat="46.371878632860486" lon="11.08593377532406"><ele>716.0</ele><time>2026-04-17T10:55:52Z</time></trkpt><trkpt lat="46.3719485029323" lon="11.085796067253902"><ele>714.0</ele><time>2026-04-17T10:55:53Z</time></trkpt><trkpt lat="46.371974923373706" lon="11.085629148042033"><ele>712.0</ele><time>2026-04-17T10:55:54Z</time></trkpt><trkpt lat="46.37197756002844" lon="11.085445066548454"><ele>710.0</ele><time>2026-04-17T10:55:55Z</time></trkpt><trkpt lat="46.37197638020954" lon="11.085264375366345"><ele>708.0</ele><time>2026-04-17T10:55:56Z</time></trkpt><trkpt lat="46.372016913934374" lon="11.085128619406948"><ele>708.0</ele><time>2026-04-17T10:55:57Z</time></trkpt><trkpt lat="46.37209570826541" lon="11.08502355822709"><ele>708.0</ele><time>2026-04-17T10:55:58Z</time></trkpt><trkpt lat="46.37220421736937" lon="11.0849436101188"><ele>708.0</ele><time>2026-04-17T10:55:59Z</time></trkpt><trkpt lat="46.37231869285288" lon="11.084900016817658"><ele>708.0</ele><time>2026-04-17T10:56:00Z</time></trkpt><trkpt lat="46.372427404559815" lon="11.08492024972504"><ele>711.0</ele><time>2026-04-17T10:56:01Z</time></trkpt><trkpt lat="46.37251702877324" lon="11.084972229077184"><ele>714.0</ele><time>2026-04-17T10:56:02Z</time></trkpt><trkpt lat="46.37257217300844" lon="11.085099330531438"><ele>717.0</ele><time>2026-04-17T10:56:03Z</time></trkpt><trkpt lat="46.37262943479909" lon="11.085231515062814"><ele>720.0</ele><time>2026-04-17T10:56:04Z</time></trkpt><trkpt lat="46.372696612542754" lon="11.08537164895636"><ele>723.0</ele><time>2026-04-17T10:56:05Z</time></trkpt><trkpt lat="46.37275506507481" lon="11.085525016419426"><ele>723.0</ele><time>2026-04-17T10:56:06Z</time></trkpt><trkpt lat="46.37283129439558" lon="11.085676581803282"><ele>723.0</ele><time>2026-04-17T10:56:07Z</time></trkpt><trkpt lat="46.37293315262717" lon="11.085809281332605"><ele>723.0</ele><time>2026-04-17T10:56:08Z</time></trkpt><trkpt lat="46.37306377893946" lon="11.085928690059154"><ele>723.0</ele><time>2026-04-17T10:56:09Z</time></trkpt><trkpt lat="46.37321161548053" lon="11.086052593666565"><ele>724.5999999999999</ele><time>2026-04-17T10:56:10Z</time></trkpt><trkpt lat="46.373317944217995" lon="11.08614534580957"><ele>726.1999999999999</ele><time>2026-04-17T10:56:11Z</time></trkpt><trkpt lat="46.37338617973846" lon="11.08623577589092"><ele>727.8</ele><time>2026-04-17T10:56:12Z</time></trkpt><trkpt lat="46.37342363490248" lon="11.086355541006222"><ele>729.4</ele><time>2026-04-17T10:56:13Z</time></trkpt><trkpt lat="46.373438890388336" lon="11.086506427565222"><ele>731.0</ele><time>2026-04-17T10:56:14Z</time></trkpt><trkpt lat="46.373427863849344" lon="11.086682510294025"><ele>733.0</ele><time>2026-04-17T10:56:15Z</time></trkpt><trkpt lat="46.37340234154323" lon="11.086880975445057"><ele>735.0</ele><time>2026-04-17T10:56:16Z</time></trkpt><trkpt lat="46.373393786212084" lon="11.087065226130846"><ele>737.0</ele><time>2026-04-17T10:56:17Z</time></trkpt><trkpt lat="46.373427235619396" lon="11.08724628747485"><ele>739.0</ele><time>2026-04-17T10:56:18Z</time></trkpt><trkpt lat="46.37350488316728" lon="11.087400563750657"><ele>740.75</ele><time>2026-04-17T10:56:19Z</time></trkpt><trkpt lat="46.37361175302207" lon="11.087515285886807"><ele>742.5</ele><time>2026-04-17T10:56:20Z</time></trkpt><trkpt lat="46.37374347180956" lon="11.087598258153285"><ele>744.25</ele><time>2026-04-17T10:56:21Z</time></trkpt><trkpt lat="46.37389398382268" lon="11.08769939611078"><ele>746.0</ele><time>2026-04-17T10:56:22Z</time></trkpt><trkpt lat="46.37405126766845" lon="11.087806625713997"><ele>746.4</ele><time>2026-04-17T10:56:23Z</time></trkpt><trkpt lat="46.37414811775126" lon="11.087885159321925"><ele>746.8</ele><time>2026-04-17T10:56:24Z</time></trkpt><trkpt lat="46.374233211079876" lon="11.087935522060626"><ele>747.1999999999999</ele><time>2026-04-17T10:56:25Z</time></trkpt><trkpt lat="46.37432417789949" lon="11.087922814896878"><ele>747.5999999999999</ele><time>2026-04-17T10:56:26Z</time></trkpt><trkpt lat="46.37441267657724" lon="11.087861647544317"><ele>748.0</ele><time>2026-04-17T10:56:27Z</time></trkpt><trkpt lat="46.37448133803321" lon="11.087763589966695"><ele>748.0</ele><time>2026-04-17T10:56:28Z</time></trkpt><trkpt lat="46.374533445755084" lon="11.087611452495091"><ele>748.0</ele><time>2026-04-17T10:56:29Z</time></trkpt><trkpt lat="46.37459541346691" lon="11.087423953124476"><ele>748.0</ele><time>2026-04-17T10:56:30Z</time></trkpt><trkpt lat="46.37467406143315" lon="11.08728742150169"><ele>748.0</ele><time>2026-04-17T10:56:31Z</time></trkpt><trkpt lat="46.37477140147029" lon="11.087205288919195"><ele>748.25</ele><time>2026-04-17T10:56:32Z</time></trkpt><trkpt lat="46.374894101744005" lon="11.08715353398037"><ele>748.5</ele><time>2026-04-17T10:56:33Z</time></trkpt><trkpt lat="46.3750273207793" lon="11.087148736757081"><ele>748.75</ele><time>2026-04-17T10:56:34Z</time></trkpt><trkpt lat="46.375174338783665" lon="11.087182353465701"><ele>749.0</ele><time>2026-04-17T10:56:35Z</time></trkpt><trkpt lat="46.3753007401198" lon="11.08723021239221"><ele>749.0</ele><time>2026-04-17T10:56:36Z</time></trkpt><trkpt lat="46.37541650990305" lon="11.08723459229586"><ele>749.0</ele><time>2026-04-17T10:56:37Z</time></trkpt><trkpt lat="46.375549630397934" lon="11.087163792450768"><ele>749.0</ele><time>2026-04-17T10:56:38Z</time></trkpt><trkpt lat="46.37568934749694" lon="11.087026535774196"><ele>749.0</ele><time>2026-04-17T10:56:39Z</time></trkpt><trkpt lat="46.37583553583412" lon="11.086881532479193"><ele>750.25</ele><time>2026-04-17T10:56:40Z</time></trkpt><trkpt lat="46.375965721057064" lon="11.086770589111126"><ele>751.5</ele><time>2026-04-17T10:56:41Z</time></trkpt><trkpt lat="46.37607212221362" lon="11.08667920184139"><ele>752.75</ele><time>2026-04-17T10:56:42Z</time></trkpt><trkpt lat="46.3761751149453" lon="11.086619640332888"><ele>754.0</ele><time>2026-04-17T10:56:43Z</time></trkpt><trkpt lat="46.37627959660816" lon="11.086608280081586"><ele>755.6</ele><time>2026-04-17T10:56:44Z</time></trkpt><trkpt lat="46.376378196985286" lon="11.086664637610562"><ele>757.2</ele><time>2026-04-17T10:56:45Z</time></trkpt><trkpt lat="46.37645026858869" lon="11.08677067282998"><ele>758.8000000000001</ele><time>2026-04-17T10:56:46Z</time></trkpt><trkpt lat="46.37648774521197" lon="11.08691396439208"><ele>760.4000000000001</ele><time>2026-04-17T10:56:47Z</time></trkpt><trkpt lat="46.37648656819645" lon="11.08707359465165"><ele>762.0</ele><time>2026-04-17T10:56:48Z</time></trkpt><trkpt lat="46.37642801320934" lon="11.087217509066079"><ele>762.0</ele><time>2026-04-17T10:56:49Z</time></trkpt><trkpt lat="46.37638036115267" lon="11.087396935336082"><ele>762.0</ele><time>2026-04-17T10:56:50Z</time></trkpt><trkpt lat="46.376299442502535" lon="11.087594451361882"><ele>762.0</ele><time>2026-04-17T10:56:51Z</time></trkpt><trkpt lat="46.37623498130074" lon="11.08776739192942"><ele>762.0</ele><time>2026-04-17T10:56:52Z</time></trkpt><trkpt lat="46.37619786463964" lon="11.087918915191528"><ele>762.0</ele><time>2026-04-17T10:56:53Z</time></trkpt><trkpt lat="46.37620072951228" lon="11.088070240635089"><ele>762.0</ele><time>2026-04-17T10:56:54Z</time></trkpt><trkpt lat="46.376232632284825" lon="11.088195441774943"><ele>762.0</ele><time>2026-04-17T10:56:55Z</time></trkpt><trkpt lat="46.37629992353252" lon="11.088286994074286"><ele>762.0</ele><time>2026-04-17T10:56:56Z</time></trkpt><trkpt lat="46.37639474104142" lon="11.088348668083942"><ele>762.0</ele><time>2026-04-17T10:56:57Z</time></trkpt><trkpt lat="46.376513772897" lon="11.088373791942011"><ele>766.6666666666667</ele><time>2026-04-17T10:56:58Z</time></trkpt><trkpt lat="46.37665489876956" lon="11.08836118839274"><ele>771.3333333333334</ele><time>2026-04-17T10:56:59Z</time></trkpt><trkpt lat="46.37683897835464" lon="11.08832243555295"><ele>776.0</ele><time>2026-04-17T10:57:00Z</time></trkpt><trkpt lat="46.3770203763766" lon="11.088299911515811"><ele>776.3333333333334</ele><time>2026-04-17T10:57:01Z</time></trkpt><trkpt lat="46.377208783652044" lon="11.088303038918667"><ele>776.6666666666667</ele><time>2026-04-17T10:57:02Z</time></trkpt><trkpt lat="46.37739448951602" lon="11.088342876458507"><ele>777.0</ele><time>2026-04-17T10:57:03Z</time></trkpt><trkpt lat="46.377582969341375" lon="11.088427294323807"><ele>777.0</ele><time>2026-04-17T10:57:04Z</time></trkpt><trkpt lat="46.37779574548142" lon="11.088546955278352"><ele>777.0</ele><time>2026-04-17T10:57:05Z</time></trkpt><trkpt lat="46.378009700243005" lon="11.088671879685279"><ele>779.5</ele><time>2026-04-17T10:57:06Z</time></trkpt><trkpt lat="46.37824198879232" lon="11.088791810010566"><ele>782.0</ele><time>2026-04-17T10:57:07Z</time></trkpt><trkpt lat="46.37849215152404" lon="11.088912134252707"><ele>782.0</ele><time>2026-04-17T10:57:08Z</time></trkpt><trkpt lat="46.37873095519097" lon="11.089027257629711"><ele>782.0</ele><time>2026-04-17T10:57:09Z</time></trkpt><trkpt lat="46.378987546194594" lon="11.089144146278278"><ele>787.0</ele><time>2026-04-17T10:57:10Z</time></trkpt><trkpt lat="46.379256281528015" lon="11.089253001593507"><ele>792.0</ele><time>2026-04-17T10:57:11Z</time></trkpt><trkpt lat="46.37951048896979" lon="11.089344525698694"><ele>792.0</ele><time>2026-04-17T10:57:12Z</time></trkpt><trkpt lat="46.37972827983861" lon="11.089420843470123"><ele>792.0</ele><time>2026-04-17T10:57:13Z</time></trkpt><trkpt lat="46.379933782007924" lon="11.089502830641528"><ele>792.0</ele><time>2026-04-17T10:57:14Z</time></trkpt><trkpt lat="46.380145626430675" lon="11.089638481528873"><ele>792.0</ele><time>2026-04-17T10:57:15Z</time></trkpt><trkpt lat="46.38038449632133" lon="11.089776018042622"><ele>792.0</ele><time>2026-04-17T10:57:16Z</time></trkpt><trkpt lat="46.380603350119884" lon="11.089936037024144"><ele>795.0</ele><time>2026-04-17T10:57:17Z</time></trkpt><trkpt lat="46.38078347655491" lon="11.090059094592029"><ele>798.0</ele><time>2026-04-17T10:57:18Z</time></trkpt><trkpt lat="46.38093807719906" lon="11.09018174521791"><ele>801.0</ele><time>2026-04-17T10:57:19Z</time></trkpt><trkpt lat="46.38105937404794" lon="11.090352102394036"><ele>801.0</ele><time>2026-04-17T10:57:20Z</time></trkpt><trkpt lat="46.381176026354005" lon="11.090542691628205"><ele>801.0</ele><time>2026-04-17T10:57:21Z</time></trkpt><trkpt lat="46.38128490823977" lon="11.09077289122479"><ele>801.0</ele><time>2026-04-17T10:57:22Z</time></trkpt><trkpt lat="46.381406085189774" lon="11.091020960991491"><ele>801.6666666666667</ele><time>2026-04-17T10:57:23Z</time></trkpt><trkpt lat="46.38153263222182" lon="11.091268048306068"><ele>802.3333333333334</ele><time>2026-04-17T10:57:24Z</time></trkpt><trkpt lat="46.38169168537102" lon="11.091483281396918"><ele>803.0</ele><time>2026-04-17T10:57:25Z</time></trkpt><trkpt lat="46.38188041313257" lon="11.091686995571099"><ele>805.0</ele><time>2026-04-17T10:57:26Z</time></trkpt><trkpt lat="46.38205265929875" lon="11.0918709898595"><ele>807.0</ele><time>2026-04-17T10:57:27Z</time></trkpt><trkpt lat="46.382235159462184" lon="11.092006846164063"><ele>809.0</ele><time>2026-04-17T10:57:28Z</time></trkpt><trkpt lat="46.38245581509681" lon="11.092159865828345"><ele>809.5</ele><time>2026-04-17T10:57:29Z</time></trkpt><trkpt lat="46.38267736719609" lon="11.09229100406491"><ele>810.0</ele><time>2026-04-17T10:57:30Z</time></trkpt><trkpt lat="46.382886335223354" lon="11.092404668119864"><ele>813.0</ele><time>2026-04-17T10:57:31Z</time></trkpt><trkpt lat="46.3831142552257" lon="11.092488961566689"><ele>816.0</ele><time>2026-04-17T10:57:32Z</time></trkpt><trkpt lat="46.383356871123695" lon="11.092540273270227"><ele>816.0</ele><time>2026-04-17T10:57:33Z</time></trkpt><trkpt lat="46.383550138500325" lon="11.092613515854541"><ele>816.0</ele><time>2026-04-17T10:57:34Z</time></trkpt><trkpt lat="46.38374933985234" lon="11.092733262681511"><ele>816.0</ele><time>2026-04-17T10:57:35Z</time></trkpt><trkpt lat="46.38393374451828" lon="11.092870596179951"><ele>817.25</ele><time>2026-04-17T10:57:36Z</time></trkpt><trkpt lat="46.38407568954669" lon="11.092970350909331"><ele>818.5</ele><time>2026-04-17T10:57:37Z</time></trkpt><trkpt lat="46.38420493878142" lon="11.093059313354653"><ele>819.75</ele><time>2026-04-17T10:57:38Z</time></trkpt><trkpt lat="46.3843100979113" lon="11.093177238312512"><ele>821.0</ele><time>2026-04-17T10:57:39Z</time></trkpt><trkpt lat="46.38438272818391" lon="11.093342841535973"><ele>822.6666666666667</ele><time>2026-04-17T10:57:40Z</time></trkpt><trkpt lat="46.38445348773732" lon="11.093471643868071"><ele>824.3333333333333</ele><time>2026-04-17T10:57:41Z</time></trkpt><trkpt lat="46.38442945703064" lon="11.093752157248982"><ele>826.0</ele><time>2026-04-17T10:57:42Z</time></trkpt><trkpt lat="46.3844283359705" lon="11.094013076209043"><ele>827.3333333333333</ele><time>2026-04-17T10:57:43Z</time></trkpt><trkpt lat="46.38444712565733" lon="11.094294143756454"><ele>828.6666666666667</ele><time>2026-04-17T10:57:44Z</time></trkpt><trkpt lat="46.38450057549049" lon="11.094584336859924"><ele>830.0</ele><time>2026-04-17T10:57:45Z</time></trkpt><trkpt lat="46.38456379279752" lon="11.09488614212013"><ele>830.3333333333334</ele><time>2026-04-17T10:57:46Z</time></trkpt><trkpt lat="46.384617164853644" lon="11.095171304031004"><ele>830.6666666666667</ele><time>2026-04-17T10:57:47Z</time></trkpt><trkpt lat="46.384652372162094" lon="11.09540900321502"><ele>831.0</ele><time>2026-04-17T10:57:48Z</time></trkpt><trkpt lat="46.38469096455911" lon="11.095602246224676"><ele>832.75</ele><time>2026-04-17T10:57:49Z</time></trkpt><trkpt lat="46.38475476749121" lon="11.095775152278076"><ele>834.5</ele><time>2026-04-17T10:57:50Z</time></trkpt><trkpt lat="46.38484250451533" lon="11.09592450475057"><ele>836.25</ele><time>2026-04-17T10:57:51Z</time></trkpt><trkpt lat="46.38496599710983" lon="11.096045373112606"><ele>838.0</ele><time>2026-04-17T10:57:52Z</time></trkpt><trkpt lat="46.38511167239665" lon="11.096151717542856"><ele>838.0</ele><time>2026-04-17T10:57:53Z</time></trkpt><trkpt lat="46.38528964196864" lon="11.096274276932146"><ele>838.0</ele><time>2026-04-17T10:57:54Z</time></trkpt><trkpt lat="46.38548393232534" lon="11.096419996033397"><ele>838.0</ele><time>2026-04-17T10:57:55Z</time></trkpt><trkpt lat="46.38566321136389" lon="11.096561002726672"><ele>842.0</ele><time>2026-04-17T10:57:56Z</time></trkpt><trkpt lat="46.38587226758134" lon="11.096717914746737"><ele>846.0</ele><time>2026-04-17T10:57:57Z</time></trkpt><trkpt lat="46.38609439620538" lon="11.096882873377396"><ele>846.0</ele><time>2026-04-17T10:57:58Z</time></trkpt><trkpt lat="46.38631391465212" lon="11.097039121636248"><ele>846.0</ele><time>2026-04-17T10:57:59Z</time></trkpt><trkpt lat="46.386556714822696" lon="11.097193554548733"><ele>847.0</ele><time>2026-04-17T10:58:00Z</time></trkpt><trkpt lat="46.38681667921154" lon="11.097342821877675"><ele>848.0</ele><time>2026-04-17T10:58:01Z</time></trkpt><trkpt lat="46.387068294327776" lon="11.09749985421364"><ele>855.5</ele><time>2026-04-17T10:58:02Z</time></trkpt><trkpt lat="46.38729075678526" lon="11.097635639779096"><ele>863.0</ele><time>2026-04-17T10:58:03Z</time></trkpt><trkpt lat="46.38752442058385" lon="11.09775112156142"><ele>863.0</ele><time>2026-04-17T10:58:04Z</time></trkpt><trkpt lat="46.38778281781744" lon="11.09784069724145"><ele>863.0</ele><time>2026-04-17T10:58:05Z</time></trkpt><trkpt lat="46.3880384305298" lon="11.09791411740816"><ele>863.6666666666667</ele><time>2026-04-17T10:58:06Z</time></trkpt><trkpt lat="46.388249071862454" lon="11.097975103931791"><ele>864.3333333333333</ele><time>2026-04-17T10:58:07Z</time></trkpt><trkpt lat="46.38842989784516" lon="11.09802786776032"><ele>865.0</ele><time>2026-04-17T10:58:08Z</time></trkpt><trkpt lat="46.38859573344198" lon="11.098085096806557"><ele>865.0</ele><time>2026-04-17T10:58:09Z</time></trkpt><trkpt lat="46.388737085160095" lon="11.09816281472011"><ele>865.0</ele><time>2026-04-17T10:58:10Z</time></trkpt><trkpt lat="46.38886344775184" lon="11.098271737365764"><ele>865.0</ele><time>2026-04-17T10:58:11Z</time></trkpt><trkpt lat="46.38897691008675" lon="11.098420026334828"><ele>868.3333333333333</ele><time>2026-04-17T10:58:12Z</time></trkpt><trkpt lat="46.38907409821496" lon="11.098601460422307"><ele>871.6666666666667</ele><time>2026-04-17T10:58:13Z</time></trkpt><trkpt lat="46.38916250022751" lon="11.098821681435176"><ele>875.0</ele><time>2026-04-17T10:58:14Z</time></trkpt><trkpt lat="46.389257121069306" lon="11.099071120490878"><ele>877.3333333333334</ele><time>2026-04-17T10:58:15Z</time></trkpt><trkpt lat="46.38933887969241" lon="11.099309277012988"><ele>879.6666666666667</ele><time>2026-04-17T10:58:16Z</time></trkpt><trkpt lat="46.38940595973016" lon="11.099512767585146"><ele>882.0</ele><time>2026-04-17T10:58:17Z</time></trkpt><trkpt lat="46.3894458557764" lon="11.099726711452034"><ele>884.3333333333333</ele><time>2026-04-17T10:58:18Z</time></trkpt><trkpt lat="46.38945628521361" lon="11.099963725653526"><ele>886.6666666666666</ele><time>2026-04-17T10:58:19Z</time></trkpt><trkpt lat="46.38944898293637" lon="11.100200571183196"><ele>889.0</ele><time>2026-04-17T10:58:20Z</time></trkpt><trkpt lat="46.38943875073122" lon="11.10042245201203"><ele>889.0</ele><time>2026-04-17T10:58:21Z</time></trkpt><trkpt lat="46.38944685784579" lon="11.100642368646094"><ele>889.0</ele><time>2026-04-17T10:58:22Z</time></trkpt><trkpt lat="46.389480776518" lon="11.100839592224125"><ele>889.0</ele><time>2026-04-17T10:58:23Z</time></trkpt><trkpt lat="46.389557659693224" lon="11.101021776565023"><ele>889.0</ele><time>2026-04-17T10:58:24Z</time></trkpt><trkpt lat="46.38966780420041" lon="11.101184011455713"><ele>887.3333333333333</ele><time>2026-04-17T10:58:25Z</time></trkpt><trkpt lat="46.38980667277354" lon="11.101361887613841"><ele>885.6666666666667</ele><time>2026-04-17T10:58:26Z</time></trkpt><trkpt lat="46.389959129413036" lon="11.101569956417697"><ele>884.0</ele><time>2026-04-17T10:58:27Z</time></trkpt><trkpt lat="46.39009913476917" lon="11.101773446970434"><ele>889.3333333333334</ele><time>2026-04-17T10:58:28Z</time></trkpt><trkpt lat="46.39024692827493" lon="11.101996464022905"><ele>894.6666666666667</ele><time>2026-04-17T10:58:29Z</time></trkpt><trkpt lat="46.39038223653764" lon="11.102248869681615"><ele>900.0</ele><time>2026-04-17T10:58:30Z</time></trkpt><trkpt lat="46.39048001177417" lon="11.102480940720971"><ele>899.0</ele><time>2026-04-17T10:58:31Z</time></trkpt><trkpt lat="46.39055213815906" lon="11.102719034894937"><ele>898.0</ele><time>2026-04-17T10:58:32Z</time></trkpt><trkpt lat="46.390603441090576" lon="11.1029860441476"><ele>897.0</ele><time>2026-04-17T10:58:33Z</time></trkpt><trkpt lat="46.39063027217119" lon="11.10326872358544"><ele>897.0</ele><time>2026-04-17T10:58:34Z</time></trkpt><trkpt lat="46.39064252233957" lon="11.103569980830484"><ele>897.0</ele><time>2026-04-17T10:58:35Z</time></trkpt><trkpt lat="46.390644214160716" lon="11.103899458430638"><ele>897.0</ele><time>2026-04-17T10:58:36Z</time></trkpt><trkpt lat="46.390644196254975" lon="11.104193877222809"><ele>898.6666666666667</ele><time>2026-04-17T10:58:37Z</time></trkpt><trkpt lat="46.39064096695857" lon="11.104431694935085"><ele>900.3333333333334</ele><time>2026-04-17T10:58:38Z</time></trkpt><trkpt lat="46.390621955344066" lon="11.104673214955861"><ele>902.0</ele><time>2026-04-17T10:58:39Z</time></trkpt><trkpt lat="46.390567687723944" lon="11.104917250725661"><ele>908.3333333333334</ele><time>2026-04-17T10:58:40Z</time></trkpt><trkpt lat="46.39048540027672" lon="11.10516623969831"><ele>914.6666666666667</ele><time>2026-04-17T10:58:41Z</time></trkpt><trkpt lat="46.390391542947356" lon="11.105420888433168"><ele>921.0</ele><time>2026-04-17T10:58:42Z</time></trkpt><trkpt lat="46.39029567972637" lon="11.105643261884362"><ele>918.3333333333333</ele><time>2026-04-17T10:58:43Z</time></trkpt><trkpt lat="46.39020082643856" lon="11.105880055514673"><ele>915.6666666666666</ele><time>2026-04-17T10:58:44Z</time></trkpt><trkpt lat="46.390093000078934" lon="11.10617073644469"><ele>913.0</ele><time>2026-04-17T10:58:45Z</time></trkpt><trkpt lat="46.389939246267815" lon="11.106448058057955"><ele>911.0</ele><time>2026-04-17T10:58:46Z</time></trkpt><trkpt lat="46.38982817896266" lon="11.106713986975974"><ele>909.0</ele><time>2026-04-17T10:58:47Z</time></trkpt><trkpt lat="46.389732743565006" lon="11.106941832749145"><ele>907.0</ele><time>2026-04-17T10:58:48Z</time></trkpt><trkpt lat="46.389665946818106" lon="11.107142640595647"><ele>908.0</ele><time>2026-04-17T10:58:49Z</time></trkpt><trkpt lat="46.38959226555554" lon="11.107308012002415"><ele>909.0</ele><time>2026-04-17T10:58:50Z</time></trkpt><trkpt lat="46.38952479051669" lon="11.107475852947442"><ele>910.0</ele><time>2026-04-17T10:58:51Z</time></trkpt><trkpt lat="46.38945999934054" lon="11.107650068739035"><ele>911.0</ele><time>2026-04-17T10:58:52Z</time></trkpt><trkpt lat="46.38940771981313" lon="11.107827490107136"><ele>911.0</ele><time>2026-04-17T10:58:53Z</time></trkpt><trkpt lat="46.38936759252499" lon="11.108007032913871"><ele>911.0</ele><time>2026-04-17T10:58:54Z</time></trkpt><trkpt lat="46.389333055025155" lon="11.108189792604811"><ele>911.0</ele><time>2026-04-17T10:58:55Z</time></trkpt><trkpt lat="46.38931085855202" lon="11.108388386059117"><ele>911.0</ele><time>2026-04-17T10:58:56Z</time></trkpt><trkpt lat="46.38927739153709" lon="11.10861744762869"><ele>913.3333333333334</ele><time>2026-04-17T10:58:57Z</time></trkpt><trkpt lat="46.38927080318841" lon="11.108902899935133"><ele>915.6666666666667</ele><time>2026-04-17T10:58:58Z</time></trkpt><trkpt lat="46.38927348425375" lon="11.109217743688866"><ele>918.0</ele><time>2026-04-17T10:58:59Z</time></trkpt><trkpt lat="46.38927776058473" lon="11.109537190529567"><ele>920.0</ele><time>2026-04-17T10:59:00Z</time></trkpt><trkpt lat="46.38928441707959" lon="11.109894491736844"><ele>922.0</ele><time>2026-04-17T10:59:01Z</time></trkpt><trkpt lat="46.389292932236195" lon="11.110281511179064"><ele>922.5</ele><time>2026-04-17T10:59:02Z</time></trkpt><trkpt lat="46.389300818705514" lon="11.110695337495107"><ele>923.0</ele><time>2026-04-17T10:59:03Z</time></trkpt><trkpt lat="46.38931019210897" lon="11.111131694147586"><ele>927.0</ele><time>2026-04-17T10:59:04Z</time></trkpt><trkpt lat="46.38932142747133" lon="11.111576164100473"><ele>931.0</ele><time>2026-04-17T10:59:05Z</time></trkpt><trkpt lat="46.389330640630625" lon="11.111971582817485"><ele>931.0</ele><time>2026-04-17T10:59:06Z</time></trkpt><trkpt lat="46.38935477502469" lon="11.112344016502297"><ele>931.0</ele><time>2026-04-17T10:59:07Z</time></trkpt><trkpt lat="46.38936036050426" lon="11.112723352826254"><ele>930.6666666666666</ele><time>2026-04-17T10:59:08Z</time></trkpt><trkpt lat="46.389365338681216" lon="11.113063740788578"><ele>930.3333333333333</ele><time>2026-04-17T10:59:09Z</time></trkpt><trkpt lat="46.38936810010638" lon="11.113364458387945"><ele>930.0</ele><time>2026-04-17T10:59:10Z</time></trkpt><trkpt lat="46.3893745303637" lon="11.113642213827266"><ele>930.3333333333333</ele><time>2026-04-17T10:59:11Z</time></trkpt><trkpt lat="46.3893891947307" lon="11.113912890692083"><ele>930.6666666666666</ele><time>2026-04-17T10:59:12Z</time></trkpt><trkpt lat="46.38942620588927" lon="11.114192957168022"><ele>931.0</ele><time>2026-04-17T10:59:13Z</time></trkpt><trkpt lat="46.38949250609203" lon="11.114455886334682"><ele>931.0</ele><time>2026-04-17T10:59:14Z</time></trkpt><trkpt lat="46.3895814769701" lon="11.114694417916814"><ele>931.0</ele><time>2026-04-17T10:59:15Z</time></trkpt><trkpt lat="46.38968935591643" lon="11.114912660605603"><ele>931.0</ele><time>2026-04-17T10:59:16Z</time></trkpt><trkpt lat="46.38981265723001" lon="11.115101838185522"><ele>932.6666666666666</ele><time>2026-04-17T10:59:17Z</time></trkpt><trkpt lat="46.38995894809636" lon="11.115271844138343"><ele>934.3333333333333</ele><time>2026-04-17T10:59:18Z</time></trkpt><trkpt lat="46.390130974084734" lon="11.115433928685494"><ele>936.0</ele><time>2026-04-17T10:59:19Z</time></trkpt><trkpt lat="46.39032332402944" lon="11.115598663458963"><ele>939.0</ele><time>2026-04-17T10:59:20Z</time></trkpt><trkpt lat="46.39053091205637" lon="11.115780729003726"><ele>942.0</ele><time>2026-04-17T10:59:21Z</time></trkpt><trkpt lat="46.3907379704207" lon="11.115960438334623"><ele>942.0</ele><time>2026-04-17T10:59:22Z</time></trkpt><trkpt lat="46.39096326848284" lon="11.116153681194156"><ele>942.0</ele><time>2026-04-17T10:59:23Z</time></trkpt><trkpt lat="46.39119845799306" lon="11.116364239270531"><ele>942.5</ele><time>2026-04-17T10:59:24Z</time></trkpt><trkpt lat="46.39143477625187" lon="11.116568204641487"><ele>943.0</ele><time>2026-04-17T10:59:25Z</time></trkpt><trkpt lat="46.391639520963935" lon="11.116745089275879"><ele>946.0</ele><time>2026-04-17T10:59:26Z</time></trkpt><trkpt lat="46.39181498105049" lon="11.116899009078375"><ele>949.0</ele><time>2026-04-17T10:59:27Z</time></trkpt><trkpt lat="46.391962738708436" lon="11.117036414692814"><ele>952.0</ele><time>2026-04-17T10:59:28Z</time></trkpt><trkpt lat="46.39208147721206" lon="11.117184400974777"><ele>952.5</ele><time>2026-04-17T10:59:29Z</time></trkpt><trkpt lat="46.39217542578616" lon="11.117337630504407"><ele>953.0</ele><time>2026-04-17T10:59:30Z</time></trkpt><trkpt lat="46.392258226187565" lon="11.117498241586855"><ele>953.5</ele><time>2026-04-17T10:59:31Z</time></trkpt><trkpt lat="46.39233332910583" lon="11.117694704743968"><ele>954.0</ele><time>2026-04-17T10:59:32Z</time></trkpt><trkpt lat="46.39239313067345" lon="11.11787338374422"><ele>955.75</ele><time>2026-04-17T10:59:33Z</time></trkpt><trkpt lat="46.39245062177714" lon="11.118016625314587"><ele>957.5</ele><time>2026-04-17T10:59:34Z</time></trkpt><trkpt lat="46.392528568636614" lon="11.118166520362292"><ele>959.25</ele><time>2026-04-17T10:59:35Z</time></trkpt><trkpt lat="46.39263470200475" lon="11.118343807753329"><ele>961.0</ele><time>2026-04-17T10:59:36Z</time></trkpt><trkpt lat="46.39275573459778" lon="11.118517131860498"><ele>961.0</ele><time>2026-04-17T10:59:37Z</time></trkpt><trkpt lat="46.39285483759456" lon="11.118665385625555"><ele>961.0</ele><time>2026-04-17T10:59:38Z</time></trkpt><trkpt lat="46.39294703320772" lon="11.118813503693874"><ele>961.0</ele><time>2026-04-17T10:59:39Z</time></trkpt><trkpt lat="46.39305692122766" lon="11.118989395208212"><ele>961.0</ele><time>2026-04-17T10:59:40Z</time></trkpt><trkpt lat="46.39314509240528" lon="11.11917465724557"><ele>961.75</ele><time>2026-04-17T10:59:41Z</time></trkpt><trkpt lat="46.393225629563084" lon="11.119336215591481"><ele>962.5</ele><time>2026-04-17T10:59:42Z</time></trkpt><trkpt lat="46.393292416405146" lon="11.119481150567182"><ele>963.25</ele><time>2026-04-17T10:59:43Z</time></trkpt><trkpt lat="46.393350629283525" lon="11.119602641825091"><ele>964.0</ele><time>2026-04-17T10:59:44Z</time></trkpt><trkpt lat="46.39341316362736" lon="11.119709472145074"><ele>964.0</ele><time>2026-04-17T10:59:45Z</time></trkpt><trkpt lat="46.39348607795539" lon="11.119784420294257"><ele>964.0000000000001</ele><time>2026-04-17T10:59:46Z</time></trkpt><trkpt lat="46.39355818925883" lon="11.119840077985272"><ele>964.0000000000001</ele><time>2026-04-17T10:59:47Z</time></trkpt><trkpt lat="46.39364014160695" lon="11.119867633929584"><ele>964.0</ele><time>2026-04-17T10:59:48Z</time></trkpt><trkpt lat="46.39373335393383" lon="11.119860031768857"><ele>964.0</ele><time>2026-04-17T10:59:49Z</time></trkpt><trkpt lat="46.393856691685144" lon="11.119879063390686"><ele>963.75</ele><time>2026-04-17T10:59:50Z</time></trkpt><trkpt lat="46.393992642647035" lon="11.119959756473207"><ele>963.5</ele><time>2026-04-17T10:59:51Z</time></trkpt><trkpt lat="46.39413460599979" lon="11.12003171754977"><ele>963.25</ele><time>2026-04-17T10:59:52Z</time></trkpt><trkpt lat="46.39424438825457" lon="11.120082807301863"><ele>963.0</ele><time>2026-04-17T10:59:53Z</time></trkpt><trkpt lat="46.39433831659023" lon="11.120171669952002"><ele>963.0</ele><time>2026-04-17T10:59:54Z</time></trkpt><trkpt lat="46.39444311093395" lon="11.120289215097682"><ele>963.0</ele><time>2026-04-17T10:59:55Z</time></trkpt><trkpt lat="46.39456040368017" lon="11.120456739415346"><ele>963.0</ele><time>2026-04-17T10:59:56Z</time></trkpt><trkpt lat="46.394686752183205" lon="11.120594276219002"><ele>963.0</ele><time>2026-04-17T10:59:57Z</time></trkpt><trkpt lat="46.394840503755304" lon="11.120722256354373"><ele>963.0</ele><time>2026-04-17T10:59:58Z</time></trkpt><trkpt lat="46.3949762153454" lon="11.120856515615348"><ele>963.0</ele><time>2026-04-17T10:59:59Z</time></trkpt><trkpt lat="46.39509664914795" lon="11.120989229821868"><ele>962.75</ele><time>2026-04-17T11:00:00Z</time></trkpt><trkpt lat="46.3951944500038" lon="11.121116535709248"><ele>962.5</ele><time>2026-04-17T11:00:01Z</time></trkpt><trkpt lat="46.39528793219336" lon="11.121233942262924"><ele>962.25</ele><time>2026-04-17T11:00:02Z</time></trkpt><trkpt lat="46.39537661657837" lon="11.121358690916907"><ele>962.0</ele><time>2026-04-17T11:00:03Z</time></trkpt><trkpt lat="46.395448627808186" lon="11.121470336179739"><ele>962.0000000000001</ele><time>2026-04-17T11:00:04Z</time></trkpt><trkpt lat="46.39549296124804" lon="11.121558185910832"><ele>962.0</ele><time>2026-04-17T11:00:05Z</time></trkpt><trkpt lat="46.39552040517218" lon="11.121651916437248"><ele>962.0</ele><time>2026-04-17T11:00:06Z</time></trkpt><trkpt lat="46.39553313021148" lon="11.121749196212367"><ele>962.0</ele><time>2026-04-17T11:00:07Z</time></trkpt><trkpt lat="46.395601105735615" lon="11.121895479532036"><ele>962.0000000000001</ele><time>2026-04-17T11:00:09Z</time></trkpt><trkpt lat="46.39565438342213" lon="11.12197618834314"><ele>962.0</ele><time>2026-04-17T11:00:10Z</time></trkpt><trkpt lat="46.39574527698519" lon="11.1220328668175"><ele>960.75</ele><time>2026-04-17T11:00:11Z</time></trkpt><trkpt lat="46.39584934078728" lon="11.12213544524642"><ele>959.5</ele><time>2026-04-17T11:00:12Z</time></trkpt><trkpt lat="46.395959814901694" lon="11.122273778007369"><ele>958.25</ele><time>2026-04-17T11:00:13Z</time></trkpt><trkpt lat="46.39606616152311" lon="11.122429589738362"><ele>957.0</ele><time>2026-04-17T11:00:14Z</time></trkpt><trkpt lat="46.39618440687076" lon="11.122648634166978"><ele>957.3333333333333</ele><time>2026-04-17T11:00:15Z</time></trkpt><trkpt lat="46.3963182069874" lon="11.122858374899392"><ele>957.6666666666666</ele><time>2026-04-17T11:00:16Z</time></trkpt><trkpt lat="46.39645197154691" lon="11.12306524259897"><ele>958.0</ele><time>2026-04-17T11:00:17Z</time></trkpt><trkpt lat="46.396618473050644" lon="11.123285502343133"><ele>955.5</ele><time>2026-04-17T11:00:18Z</time></trkpt><trkpt lat="46.39676826346774" lon="11.123556711758816"><ele>953.0</ele><time>2026-04-17T11:00:19Z</time></trkpt><trkpt lat="46.396920420031265" lon="11.123793176307856"><ele>953.0</ele><time>2026-04-17T11:00:20Z</time></trkpt><trkpt lat="46.397084110167405" lon="11.1240125724777"><ele>953.0</ele><time>2026-04-17T11:00:21Z</time></trkpt><trkpt lat="46.39722744370933" lon="11.124278962485695"><ele>954.0</ele><time>2026-04-17T11:00:22Z</time></trkpt><trkpt lat="46.397391875869594" lon="11.124534381634378"><ele>955.0</ele><time>2026-04-17T11:00:23Z</time></trkpt><trkpt lat="46.39756215947174" lon="11.12479662062685"><ele>952.0</ele><time>2026-04-17T11:00:24Z</time></trkpt><trkpt lat="46.397727219575685" lon="11.12505902558179"><ele>949.0</ele><time>2026-04-17T11:00:25Z</time></trkpt><trkpt lat="46.39788779978519" lon="11.125308412500818"><ele>948.0</ele><time>2026-04-17T11:00:26Z</time></trkpt><trkpt lat="46.398047498109726" lon="11.125555341017371"><ele>947.0</ele><time>2026-04-17T11:00:27Z</time></trkpt><trkpt lat="46.3982047200266" lon="11.125767591903344"><ele>946.0</ele><time>2026-04-17T11:00:28Z</time></trkpt><trkpt lat="46.39835507879026" lon="11.12598283681781"><ele>946.0</ele><time>2026-04-17T11:00:29Z</time></trkpt><trkpt lat="46.39853193355722" lon="11.126184911457798"><ele>946.0</ele><time>2026-04-17T11:00:30Z</time></trkpt><trkpt lat="46.39873454572926" lon="11.126390901135837"><ele>946.0</ele><time>2026-04-17T11:00:31Z</time></trkpt><trkpt lat="46.398958042249404" lon="11.126607498909387"><ele>946.0</ele><time>2026-04-17T11:00:32Z</time></trkpt><trkpt lat="46.39917346812702" lon="11.126858038516115"><ele>946.0</ele><time>2026-04-17T11:00:33Z</time></trkpt><trkpt lat="46.399384982548696" lon="11.127076275240041"><ele>946.0</ele><time>2026-04-17T11:00:34Z</time></trkpt><trkpt lat="46.399592099970455" lon="11.127262645062483"><ele>944.0</ele><time>2026-04-17T11:00:35Z</time></trkpt><trkpt lat="46.3997818572236" lon="11.127482666250376"><ele>942.0</ele><time>2026-04-17T11:00:36Z</time></trkpt><trkpt lat="46.39999895099272" lon="11.127662106574116"><ele>942.0</ele><time>2026-04-17T11:00:37Z</time></trkpt><trkpt lat="46.4002158463628" lon="11.127851084579758"><ele>942.0</ele><time>2026-04-17T11:00:38Z</time></trkpt><trkpt lat="46.40043156497241" lon="11.128039395401862"><ele>941.5</ele><time>2026-04-17T11:00:39Z</time></trkpt><trkpt lat="46.40064956803091" lon="11.128235138214244"><ele>941.0</ele><time>2026-04-17T11:00:40Z</time></trkpt><trkpt lat="46.400858402290595" lon="11.12842595655492"><ele>941.0</ele><time>2026-04-17T11:00:41Z</time></trkpt><trkpt lat="46.40105970229739" lon="11.128601629687825"><ele>941.0</ele><time>2026-04-17T11:00:42Z</time></trkpt><trkpt lat="46.40125457126021" lon="11.128773168247697"><ele>940.5</ele><time>2026-04-17T11:00:43Z</time></trkpt><trkpt lat="46.40145223669422" lon="11.128946857678105"><ele>940.0</ele><time>2026-04-17T11:00:44Z</time></trkpt><trkpt lat="46.401648464574365" lon="11.129110975076438"><ele>938.6666666666666</ele><time>2026-04-17T11:00:45Z</time></trkpt><trkpt lat="46.4018296215289" lon="11.129265988784155"><ele>937.3333333333333</ele><time>2026-04-17T11:00:46Z</time></trkpt><trkpt lat="46.40199332678323" lon="11.129412668174325"><ele>936.0</ele><time>2026-04-17T11:00:47Z</time></trkpt><trkpt lat="46.40214904860148" lon="11.129551194706"><ele>935.3333333333333</ele><time>2026-04-17T11:00:48Z</time></trkpt><trkpt lat="46.40230157535908" lon="11.129679725097073"><ele>934.6666666666666</ele><time>2026-04-17T11:00:49Z</time></trkpt><trkpt lat="46.402445159406895" lon="11.129808946853855"><ele>934.0</ele><time>2026-04-17T11:00:50Z</time></trkpt><trkpt lat="46.4025746045433" lon="11.129928504836796"><ele>934.0</ele><time>2026-04-17T11:00:51Z</time></trkpt><trkpt lat="46.402686735005275" lon="11.130029093097312"><ele>934.0</ele><time>2026-04-17T11:00:52Z</time></trkpt><trkpt lat="46.402786798720996" lon="11.130135556742871"><ele>934.0</ele><time>2026-04-17T11:00:53Z</time></trkpt><trkpt lat="46.40285944673297" lon="11.13028317414591"><ele>934.0</ele><time>2026-04-17T11:00:54Z</time></trkpt><trkpt lat="46.40290721374662" lon="11.130459168881577"><ele>934.0</ele><time>2026-04-17T11:00:55Z</time></trkpt><trkpt lat="46.402942663955315" lon="11.130659711400583"><ele>934.0</ele><time>2026-04-17T11:00:56Z</time></trkpt><trkpt lat="46.402947978358824" lon="11.130860199472245"><ele>934.0</ele><time>2026-04-17T11:00:57Z</time></trkpt><trkpt lat="46.402917881231986" lon="11.131062740385987"><ele>934.0</ele><time>2026-04-17T11:00:58Z</time></trkpt><trkpt lat="46.402860628141944" lon="11.131282293220183"><ele>933.5</ele><time>2026-04-17T11:00:59Z</time></trkpt><trkpt lat="46.40281731731004" lon="11.131488644067534"><ele>933.0</ele><time>2026-04-17T11:01:00Z</time></trkpt><trkpt lat="46.40280450182141" lon="11.131679375233277"><ele>932.5</ele><time>2026-04-17T11:01:01Z</time></trkpt><trkpt lat="46.40282154526786" lon="11.131873816486753"><ele>932.0</ele><time>2026-04-17T11:01:02Z</time></trkpt><trkpt lat="46.40286782855219" lon="11.132036587668185"><ele>932.0</ele><time>2026-04-17T11:01:03Z</time></trkpt><trkpt lat="46.40294081589382" lon="11.132178094858922"><ele>932.0</ele><time>2026-04-17T11:01:04Z</time></trkpt><trkpt lat="46.4030450832694" lon="11.13230112760036"><ele>932.0</ele><time>2026-04-17T11:01:05Z</time></trkpt><trkpt lat="46.40317917430178" lon="11.132427737233085"><ele>932.0</ele><time>2026-04-17T11:01:06Z</time></trkpt><trkpt lat="46.40333946958065" lon="11.132576361780508"><ele>934.3333333333334</ele><time>2026-04-17T11:01:07Z</time></trkpt><trkpt lat="46.40350498184522" lon="11.132755873071536"><ele>936.6666666666667</ele><time>2026-04-17T11:01:08Z</time></trkpt><trkpt lat="46.4036788156152" lon="11.132925808356353"><ele>939.0</ele><time>2026-04-17T11:01:09Z</time></trkpt><trkpt lat="46.403872540919295" lon="11.133115188974884"><ele>942.0</ele><time>2026-04-17T11:01:10Z</time></trkpt><trkpt lat="46.40408557920197" lon="11.133298358280534"><ele>945.0</ele><time>2026-04-17T11:01:11.001Z</time></trkpt><trkpt lat="46.404282230704666" lon="11.133502096904074"><ele>945.0</ele><time>2026-04-17T11:01:12.001Z</time></trkpt><trkpt lat="46.40448174624504" lon="11.133696447089376"><ele>945.0</ele><time>2026-04-17T11:01:13.001Z</time></trkpt><trkpt lat="46.40465749843114" lon="11.133875971564258"><ele>949.5</ele><time>2026-04-17T11:01:14.001Z</time></trkpt><trkpt lat="46.40483375531906" lon="11.134070009761203"><ele>954.0</ele><time>2026-04-17T11:01:15.001Z</time></trkpt><trkpt lat="46.40500772872538" lon="11.134292018198726"><ele>954.0</ele><time>2026-04-17T11:01:16.001Z</time></trkpt><trkpt lat="46.40519019122798" lon="11.134543713950656"><ele>954.0</ele><time>2026-04-17T11:01:17.001Z</time></trkpt><trkpt lat="46.405381257277135" lon="11.134806548317801"><ele>956.0</ele><time>2026-04-17T11:01:18.001Z</time></trkpt><trkpt lat="46.40557338049158" lon="11.135070110771156"><ele>958.0</ele><time>2026-04-17T11:01:19.001Z</time></trkpt><trkpt lat="46.405752627128614" lon="11.135317360581197"><ele>958.0</ele><time>2026-04-17T11:01:20.001Z</time></trkpt><trkpt lat="46.405913354811034" lon="11.135544996426779"><ele>958.0</ele><time>2026-04-17T11:01:21.001Z</time></trkpt><trkpt lat="46.406066613211784" lon="11.135754121562714"><ele>958.0</ele><time>2026-04-17T11:01:22.001Z</time></trkpt><trkpt lat="46.406215419446994" lon="11.135964049450871"><ele>959.6666666666666</ele><time>2026-04-17T11:01:23.001Z</time></trkpt><trkpt lat="46.40637169158994" lon="11.136177203830455"><ele>961.3333333333333</ele><time>2026-04-17T11:01:24.001Z</time></trkpt><trkpt lat="46.406515752404346" lon="11.136373469434208"><ele>963.0</ele><time>2026-04-17T11:01:25.001Z</time></trkpt><trkpt lat="46.40663558062151" lon="11.136539645860404"><ele>963.0</ele><time>2026-04-17T11:01:26.001Z</time></trkpt><trkpt lat="46.40673400987277" lon="11.136669529740455"><ele>963.0</ele><time>2026-04-17T11:01:27.001Z</time></trkpt><trkpt lat="46.40682755215899" lon="11.136784734084577"><ele>963.0</ele><time>2026-04-17T11:01:28.001Z</time></trkpt><trkpt lat="46.40690857559809" lon="11.136852173490084"><ele>963.0</ele><time>2026-04-17T11:01:29Z</time></trkpt><trkpt lat="46.40698141948172" lon="11.136902545177891"><ele>963.0</ele><time>2026-04-17T11:01:30Z</time></trkpt><trkpt lat="46.407056524416085" lon="11.136961417958597"><ele>963.0</ele><time>2026-04-17T11:01:31Z</time></trkpt><trkpt lat="46.40714987618714" lon="11.136981075403353"><ele>963.0</ele><time>2026-04-17T11:01:32Z</time></trkpt><trkpt lat="46.407266169745235" lon="11.136975317148693"><ele>963.0</ele><time>2026-04-17T11:01:33Z</time></trkpt><trkpt lat="46.40741024695114" lon="11.136972509999577"><ele>963.0</ele><time>2026-04-17T11:01:34Z</time></trkpt><trkpt lat="46.40755061707235" lon="11.13695610767022"><ele>964.75</ele><time>2026-04-17T11:01:35Z</time></trkpt><trkpt lat="46.40770360668544" lon="11.13693869943293"><ele>966.5</ele><time>2026-04-17T11:01:36Z</time></trkpt><trkpt lat="46.40783883242066" lon="11.136938912991177"><ele>968.25</ele><time>2026-04-17T11:01:37Z</time></trkpt><trkpt lat="46.407956621850424" lon="11.136974131783106"><ele>970.0</ele><time>2026-04-17T11:01:38Z</time></trkpt><trkpt lat="46.40805295590237" lon="11.137021897978121"><ele>970.75</ele><time>2026-04-17T11:01:39Z</time></trkpt><trkpt lat="46.40816312694031" lon="11.13709104248949"><ele>971.5</ele><time>2026-04-17T11:01:40Z</time></trkpt><trkpt lat="46.40828557319642" lon="11.137163614160112"><ele>972.25</ele><time>2026-04-17T11:01:41Z</time></trkpt><trkpt lat="46.40841317961326" lon="11.137237895006313"><ele>973.0</ele><time>2026-04-17T11:01:42Z</time></trkpt><trkpt lat="46.40853119604008" lon="11.137290707136422"><ele>973.0</ele><time>2026-04-17T11:01:43Z</time></trkpt><trkpt lat="46.4086414450412" lon="11.137314909135041"><ele>973.0</ele><time>2026-04-17T11:01:44Z</time></trkpt><trkpt lat="46.40874182545258" lon="11.137341893361203"><ele>973.0</ele><time>2026-04-17T11:01:45Z</time></trkpt><trkpt lat="46.40883287028274" lon="11.137376195099836"><ele>973.0</ele><time>2026-04-17T11:01:46Z</time></trkpt><trkpt lat="46.40891639780031" lon="11.13740578120669"><ele>973.0</ele><time>2026-04-17T11:01:47Z</time></trkpt><trkpt lat="46.408995030212274" lon="11.137420487921235"><ele>972.5999999999999</ele><time>2026-04-17T11:01:48Z</time></trkpt><trkpt lat="46.40906785365653" lon="11.137433393222258"><ele>972.1999999999999</ele><time>2026-04-17T11:01:49Z</time></trkpt><trkpt lat="46.40915747509683" lon="11.137458662704484"><ele>971.8</ele><time>2026-04-17T11:01:50Z</time></trkpt><trkpt lat="46.40927601203269" lon="11.13750681209627"><ele>971.4</ele><time>2026-04-17T11:01:51Z</time></trkpt><trkpt lat="46.409394651028556" lon="11.137555554742772"><ele>971.0</ele><time>2026-04-17T11:01:52Z</time></trkpt><trkpt lat="46.409494046112236" lon="11.137593380415026"><ele>971.0</ele><time>2026-04-17T11:01:53Z</time></trkpt><trkpt lat="46.40958664404382" lon="11.137612953583126"><ele>970.9999999999999</ele><time>2026-04-17T11:01:54Z</time></trkpt><trkpt lat="46.40967179477555" lon="11.137640293255151"><ele>970.9999999999999</ele><time>2026-04-17T11:01:55Z</time></trkpt><trkpt lat="46.40973690495728" lon="11.137616482873213"><ele>971.0</ele><time>2026-04-17T11:01:56Z</time></trkpt><trkpt lat="46.40983552415605" lon="11.137633439566816"><ele>971.0</ele><time>2026-04-17T11:01:58Z</time></trkpt><trkpt lat="46.40996792347424" lon="11.137654587932458"><ele>970.3333333333334</ele><time>2026-04-17T11:02:00Z</time></trkpt><trkpt lat="46.41006676710137" lon="11.137671836526023"><ele>969.6666666666667</ele><time>2026-04-17T11:02:01Z</time></trkpt><trkpt lat="46.4101579955016" lon="11.137690712964355"><ele>969.0</ele><time>2026-04-17T11:02:02Z</time></trkpt><trkpt lat="46.41023073230064" lon="11.137707745656781"><ele>968.3333333333333</ele><time>2026-04-17T11:02:03Z</time></trkpt><trkpt lat="46.41031421967501" lon="11.137739822929"><ele>967.6666666666666</ele><time>2026-04-17T11:02:04Z</time></trkpt><trkpt lat="46.41039930481903" lon="11.13778595313769"><ele>967.0</ele><time>2026-04-17T11:02:05Z</time></trkpt><trkpt lat="46.41047675788692" lon="11.137855698250345"><ele>966.9999999999999</ele><time>2026-04-17T11:02:06Z</time></trkpt><trkpt lat="46.41053190669253" lon="11.137970347668027"><ele>967.0</ele><time>2026-04-17T11:02:07Z</time></trkpt><trkpt lat="46.41060097532816" lon="11.138073794708337"><ele>967.0</ele><time>2026-04-17T11:02:08Z</time></trkpt><trkpt lat="46.41065816513563" lon="11.138188944788606"><ele>967.0</ele><time>2026-04-17T11:02:09Z</time></trkpt><trkpt lat="46.410706373446985" lon="11.13827734997504"><ele>966.9999999999999</ele><time>2026-04-17T11:02:10Z</time></trkpt><trkpt lat="46.41075142102986" lon="11.13835169906965"><ele>967.0</ele><time>2026-04-17T11:02:11Z</time></trkpt><trkpt lat="46.410796851133135" lon="11.13841536663832"><ele>967.9999999999999</ele><time>2026-04-17T11:02:12Z</time></trkpt><trkpt lat="46.41085759084613" lon="11.13847368470273"><ele>969.0</ele><time>2026-04-17T11:02:13Z</time></trkpt><trkpt lat="46.410927338007106" lon="11.13853134036237"><ele>970.0</ele><time>2026-04-17T11:02:14Z</time></trkpt><trkpt lat="46.41098444096179" lon="11.138596440189309"><ele>971.0</ele><time>2026-04-17T11:02:15Z</time></trkpt><trkpt lat="46.41102594748532" lon="11.13867200068357"><ele>971.9999999999999</ele><time>2026-04-17T11:02:16Z</time></trkpt><trkpt lat="46.41107867878939" lon="11.138772394039833"><ele>973.0</ele><time>2026-04-17T11:02:17Z</time></trkpt><trkpt lat="46.41115161884348" lon="11.138893209262086"><ele>972.0</ele><time>2026-04-17T11:02:18Z</time></trkpt><trkpt lat="46.411238439845015" lon="11.139051954358532"><ele>971.0</ele><time>2026-04-17T11:02:19Z</time></trkpt><trkpt lat="46.41134517893026" lon="11.13923322660872"><ele>970.0</ele><time>2026-04-17T11:02:20Z</time></trkpt><trkpt lat="46.41147439501106" lon="11.139385539968071"><ele>970.0</ele><time>2026-04-17T11:02:21Z</time></trkpt><trkpt lat="46.411627575045955" lon="11.13957073891949"><ele>970.0</ele><time>2026-04-17T11:02:22Z</time></trkpt><trkpt lat="46.41178031604487" lon="11.139778470813646"><ele>970.0</ele><time>2026-04-17T11:02:23Z</time></trkpt><trkpt lat="46.41193469465246" lon="11.139976082217848"><ele>974.0</ele><time>2026-04-17T11:02:24Z</time></trkpt><trkpt lat="46.41212900404746" lon="11.140161051575214"><ele>978.0</ele><time>2026-04-17T11:02:25Z</time></trkpt><trkpt lat="46.41233836407554" lon="11.140349517090806"><ele>978.0</ele><time>2026-04-17T11:02:26Z</time></trkpt><trkpt lat="46.412542363415604" lon="11.140535853401182"><ele>978.0</ele><time>2026-04-17T11:02:27Z</time></trkpt><trkpt lat="46.412755594921855" lon="11.140734293891983"><ele>979.5</ele><time>2026-04-17T11:02:28Z</time></trkpt><trkpt lat="46.41297939925191" lon="11.140939728753922"><ele>981.0</ele><time>2026-04-17T11:02:29Z</time></trkpt><trkpt lat="46.41320395513726" lon="11.141134767944335"><ele>981.0</ele><time>2026-04-17T11:02:30Z</time></trkpt><trkpt lat="46.41343493891353" lon="11.14129677733222"><ele>981.0</ele><time>2026-04-17T11:02:31Z</time></trkpt><trkpt lat="46.413676922149826" lon="11.141453299734833"><ele>986.5</ele><time>2026-04-17T11:02:32Z</time></trkpt><trkpt lat="46.4139248451112" lon="11.141603560797137"><ele>992.0</ele><time>2026-04-17T11:02:33Z</time></trkpt><trkpt lat="46.41412868175156" lon="11.141735793468456"><ele>992.0</ele><time>2026-04-17T11:02:34Z</time></trkpt><trkpt lat="46.41427035806053" lon="11.141836108456078"><ele>992.0</ele><time>2026-04-17T11:02:35Z</time></trkpt><trkpt lat="46.41437295710818" lon="11.141913173881795"><ele>992.0</ele><time>2026-04-17T11:02:36Z</time></trkpt><trkpt lat="46.414466794969" lon="11.142007262458936"><ele>992.0</ele><time>2026-04-17T11:02:37Z</time></trkpt><trkpt lat="46.41455236537569" lon="11.142142338835578"><ele>992.0</ele><time>2026-04-17T11:02:38Z</time></trkpt><trkpt lat="46.41463269161452" lon="11.142314836878532"><ele>992.0</ele><time>2026-04-17T11:02:39Z</time></trkpt><trkpt lat="46.41471594534935" lon="11.142513331773971"><ele>992.0</ele><time>2026-04-17T11:02:40Z</time></trkpt><trkpt lat="46.4148091627483" lon="11.142722926043758"><ele>993.5</ele><time>2026-04-17T11:02:41Z</time></trkpt><trkpt lat="46.414903882757116" lon="11.14292102701706"><ele>995.0</ele><time>2026-04-17T11:02:42Z</time></trkpt><trkpt lat="46.41498510628339" lon="11.14308792786809"><ele>996.5</ele><time>2026-04-17T11:02:43Z</time></trkpt><trkpt lat="46.41506475862122" lon="11.143196514963604"><ele>998.0</ele><time>2026-04-17T11:02:44Z</time></trkpt><trkpt lat="46.41515501345205" lon="11.143275379192822"><ele>999.25</ele><time>2026-04-17T11:02:45Z</time></trkpt><trkpt lat="46.41525419774263" lon="11.143317602142897"><ele>1000.5</ele><time>2026-04-17T11:02:46Z</time></trkpt><trkpt lat="46.415371386583566" lon="11.143341411988846"><ele>1001.75</ele><time>2026-04-17T11:02:47Z</time></trkpt><trkpt lat="46.41550393086203" lon="11.1433450421852"><ele>1003.0</ele><time>2026-04-17T11:02:48Z</time></trkpt><trkpt lat="46.41564282020437" lon="11.14333416790133"><ele>1003.0</ele><time>2026-04-17T11:02:49Z</time></trkpt><trkpt lat="46.41578583471051" lon="11.143334596458375"><ele>1003.0</ele><time>2026-04-17T11:02:50Z</time></trkpt><trkpt lat="46.41595180114276" lon="11.143353294242477"><ele>1003.0</ele><time>2026-04-17T11:02:51Z</time></trkpt><trkpt lat="46.41610664907317" lon="11.143390654424273"><ele>1003.0</ele><time>2026-04-17T11:02:52Z</time></trkpt><trkpt lat="46.416237562973194" lon="11.143435808053955"><ele>1003.0</ele><time>2026-04-17T11:02:53Z</time></trkpt><trkpt lat="46.416357071912266" lon="11.143487796029435"><ele>1003.0</ele><time>2026-04-17T11:02:54Z</time></trkpt><trkpt lat="46.41647716024492" lon="11.143549996898967"><ele>1003.0</ele><time>2026-04-17T11:02:55Z</time></trkpt><trkpt lat="46.41660424598868" lon="11.143614357111362"><ele>1004.5</ele><time>2026-04-17T11:02:56Z</time></trkpt><trkpt lat="46.416742697639215" lon="11.14367578356828"><ele>1006.0</ele><time>2026-04-17T11:02:57Z</time></trkpt><trkpt lat="46.416873478635296" lon="11.143754134274602"><ele>1007.5</ele><time>2026-04-17T11:02:58Z</time></trkpt><trkpt lat="46.41700740134782" lon="11.143882739978842"><ele>1009.0</ele><time>2026-04-17T11:02:59Z</time></trkpt><trkpt lat="46.41713823625069" lon="11.144036957655253"><ele>1011.0</ele><time>2026-04-17T11:03:00Z</time></trkpt><trkpt lat="46.417264642863195" lon="11.144195451273871"><ele>1013.0</ele><time>2026-04-17T11:03:01Z</time></trkpt><trkpt lat="46.417387338279" lon="11.1443505103897"><ele>1015.0</ele><time>2026-04-17T11:03:02Z</time></trkpt><trkpt lat="46.41749911065615" lon="11.144492725080417"><ele>1015.0</ele><time>2026-04-17T11:03:03Z</time></trkpt><trkpt lat="46.417604655349734" lon="11.144630775670565"><ele>1015.0</ele><time>2026-04-17T11:03:04Z</time></trkpt><trkpt lat="46.417710929052156" lon="11.144765608155755"><ele>1015.0</ele><time>2026-04-17T11:03:05Z</time></trkpt><trkpt lat="46.41782117235928" lon="11.1448995109267"><ele>1015.0</ele><time>2026-04-17T11:03:06Z</time></trkpt><trkpt lat="46.417960352757056" lon="11.14504397396119"><ele>1018.3333333333333</ele><time>2026-04-17T11:03:07Z</time></trkpt><trkpt lat="46.418120855227926" lon="11.145218440473"><ele>1021.6666666666667</ele><time>2026-04-17T11:03:08Z</time></trkpt><trkpt lat="46.418312210653156" lon="11.145361154227341"><ele>1025.0</ele><time>2026-04-17T11:03:09Z</time></trkpt><trkpt lat="46.41850082267388" lon="11.145523946575345"><ele>1025.0</ele><time>2026-04-17T11:03:10Z</time></trkpt><trkpt lat="46.418706383713584" lon="11.145701393809503"><ele>1025.0</ele><time>2026-04-17T11:03:11Z</time></trkpt><trkpt lat="46.41889017929809" lon="11.14585678939494"><ele>1029.3333333333335</ele><time>2026-04-17T11:03:12Z</time></trkpt><trkpt lat="46.419059982075986" lon="11.146000975009166"><ele>1033.6666666666667</ele><time>2026-04-17T11:03:13Z</time></trkpt><trkpt lat="46.4192219174015" lon="11.146171147480947"><ele>1038.0</ele><time>2026-04-17T11:03:14Z</time></trkpt><trkpt lat="46.41934992422757" lon="11.146340223272572"><ele>1038.0</ele><time>2026-04-17T11:03:15Z</time></trkpt><trkpt lat="46.419452894404444" lon="11.146498353218677"><ele>1038.0</ele><time>2026-04-17T11:03:16Z</time></trkpt><trkpt lat="46.419572059502336" lon="11.146641954703462"><ele>1038.0</ele><time>2026-04-17T11:03:17.001Z</time></trkpt><trkpt lat="46.41971968102471" lon="11.146760028322513"><ele>1039.3333333333333</ele><time>2026-04-17T11:03:18.001Z</time></trkpt><trkpt lat="46.419901414006425" lon="11.146859599852556"><ele>1040.6666666666665</ele><time>2026-04-17T11:03:19.001Z</time></trkpt><trkpt lat="46.42010130694984" lon="11.146946916697974"><ele>1042.0</ele><time>2026-04-17T11:03:20.001Z</time></trkpt><trkpt lat="46.42028738054267" lon="11.147032579822513"><ele>1042.5</ele><time>2026-04-17T11:03:21.001Z</time></trkpt><trkpt lat="46.4204986440071" lon="11.147144674021733"><ele>1043.0</ele><time>2026-04-17T11:03:22.001Z</time></trkpt><trkpt lat="46.42070900014032" lon="11.147279360107044"><ele>1048.5</ele><time>2026-04-17T11:03:23.001Z</time></trkpt><trkpt lat="46.420907610304745" lon="11.147445312466868"><ele>1054.0</ele><time>2026-04-17T11:03:24.001Z</time></trkpt><trkpt lat="46.42112074379797" lon="11.147641870817779"><ele>1053.0</ele><time>2026-04-17T11:03:25.001Z</time></trkpt><trkpt lat="46.42132142280462" lon="11.147829516764213"><ele>1052.0</ele><time>2026-04-17T11:03:26.001Z</time></trkpt><trkpt lat="46.421529482752945" lon="11.148017544809068"><ele>1052.0</ele><time>2026-04-17T11:03:27.001Z</time></trkpt><trkpt lat="46.42170489673964" lon="11.148178292148625"><ele>1052.0</ele><time>2026-04-17T11:03:28.001Z</time></trkpt><trkpt lat="46.4218522363925" lon="11.148301036437779"><ele>1052.0</ele><time>2026-04-17T11:03:29.001Z</time></trkpt><trkpt lat="46.42201585334629" lon="11.148403977384023"><ele>1054.6666666666667</ele><time>2026-04-17T11:03:30.001Z</time></trkpt><trkpt lat="46.422190568954505" lon="11.148498326144846"><ele>1057.3333333333333</ele><time>2026-04-17T11:03:31.001Z</time></trkpt><trkpt lat="46.422334158823666" lon="11.148585875586512"><ele>1060.0</ele><time>2026-04-17T11:03:32.001Z</time></trkpt><trkpt lat="46.422461814083874" lon="11.148692607607499"><ele>1060.0</ele><time>2026-04-17T11:03:33Z</time></trkpt><trkpt lat="46.42259001087989" lon="11.148850010167777"><ele>1060.0</ele><time>2026-04-17T11:03:34Z</time></trkpt><trkpt lat="46.4227262069098" lon="11.149057570379501"><ele>1060.0</ele><time>2026-04-17T11:03:35Z</time></trkpt><trkpt lat="46.42285155993464" lon="11.14926562228768"><ele>1061.3333333333333</ele><time>2026-04-17T11:03:36Z</time></trkpt><trkpt lat="46.42298631733552" lon="11.149482634589212"><ele>1062.6666666666667</ele><time>2026-04-17T11:03:37Z</time></trkpt><trkpt lat="46.42313276442122" lon="11.149708695836669"><ele>1064.0</ele><time>2026-04-17T11:03:38Z</time></trkpt><trkpt lat="46.42329122378363" lon="11.14994092532514"><ele>1069.0</ele><time>2026-04-17T11:03:39Z</time></trkpt><trkpt lat="46.4234539449628" lon="11.150188120764108"><ele>1074.0</ele><time>2026-04-17T11:03:40Z</time></trkpt><trkpt lat="46.423609281300955" lon="11.1504221212507"><ele>1074.0</ele><time>2026-04-17T11:03:41Z</time></trkpt><trkpt lat="46.42374409885267" lon="11.150618947120547"><ele>1074.0</ele><time>2026-04-17T11:03:42Z</time></trkpt><trkpt lat="46.423853398957334" lon="11.1507799611896"><ele>1074.0</ele><time>2026-04-17T11:03:43Z</time></trkpt><trkpt lat="46.42395549220956" lon="11.150930431410368"><ele>1074.3333333333333</ele><time>2026-04-17T11:03:44Z</time></trkpt><trkpt lat="46.42405575781895" lon="11.15108937707727"><ele>1074.6666666666665</ele><time>2026-04-17T11:03:45Z</time></trkpt><trkpt lat="46.42414255099746" lon="11.151284811992229"><ele>1075.0</ele><time>2026-04-17T11:03:46Z</time></trkpt><trkpt lat="46.424203196291344" lon="11.151475115174184"><ele>1079.0</ele><time>2026-04-17T11:03:47Z</time></trkpt><trkpt lat="46.424273741898105" lon="11.151709440545305"><ele>1083.0</ele><time>2026-04-17T11:03:48Z</time></trkpt><trkpt lat="46.42439418759861" lon="11.151948692438852"><ele>1087.0</ele><time>2026-04-17T11:03:49Z</time></trkpt><trkpt lat="46.42450986910738" lon="11.152174636364308"><ele>1088.6666666666665</ele><time>2026-04-17T11:03:50Z</time></trkpt><trkpt lat="46.424622394139185" lon="11.152436610666893"><ele>1090.3333333333333</ele><time>2026-04-17T11:03:51Z</time></trkpt><trkpt lat="46.42474475795205" lon="11.152627804334056"><ele>1092.0</ele><time>2026-04-17T11:03:52Z</time></trkpt><trkpt lat="46.42483848054542" lon="11.152795600419694"><ele>1092.0</ele><time>2026-04-17T11:03:53Z</time></trkpt><trkpt lat="46.42495523951312" lon="11.152942616601736"><ele>1092.0</ele><time>2026-04-17T11:03:54Z</time></trkpt><trkpt lat="46.425099876220095" lon="11.153057306868332"><ele>1092.0</ele><time>2026-04-17T11:03:55Z</time></trkpt><trkpt lat="46.425254284500724" lon="11.153138742170029"><ele>1092.0</ele><time>2026-04-17T11:03:56Z</time></trkpt><trkpt lat="46.42542856298272" lon="11.153178610947618"><ele>1092.0</ele><time>2026-04-17T11:03:57Z</time></trkpt><trkpt lat="46.425625661205736" lon="11.153196966939161"><ele>1092.0</ele><time>2026-04-17T11:03:58Z</time></trkpt><trkpt lat="46.42583643511374" lon="11.153231427994529"><ele>1094.6666666666667</ele><time>2026-04-17T11:03:59Z</time></trkpt><trkpt lat="46.42600254966623" lon="11.15329266096458"><ele>1097.3333333333335</ele><time>2026-04-17T11:04:00Z</time></trkpt><trkpt lat="46.42615430385229" lon="11.153377546506999"><ele>1100.0</ele><time>2026-04-17T11:04:01Z</time></trkpt><trkpt lat="46.426312598730284" lon="11.153503589874429"><ele>1100.6666666666667</ele><time>2026-04-17T11:04:02Z</time></trkpt><trkpt lat="46.42647803577692" lon="11.153676726546697"><ele>1101.3333333333333</ele><time>2026-04-17T11:04:03Z</time></trkpt><trkpt lat="46.426654736868414" lon="11.15387066836007"><ele>1102.0</ele><time>2026-04-17T11:04:04Z</time></trkpt><trkpt lat="46.42681916903445" lon="11.15404598810619"><ele>1105.3333333333333</ele><time>2026-04-17T11:04:05Z</time></trkpt><trkpt lat="46.4270023552871" lon="11.154212863976445"><ele>1108.6666666666667</ele><time>2026-04-17T11:04:06Z</time></trkpt><trkpt lat="46.42716900437977" lon="11.15431887238377"><ele>1112.0</ele><time>2026-04-17T11:04:07Z</time></trkpt><trkpt lat="46.427331403321716" lon="11.15438385247359"><ele>1112.0</ele><time>2026-04-17T11:04:08Z</time></trkpt><trkpt lat="46.42751136358024" lon="11.15441851468614"><ele>1112.0</ele><time>2026-04-17T11:04:09Z</time></trkpt><trkpt lat="46.42766789707194" lon="11.154420635360479"><ele>1112.0</ele><time>2026-04-17T11:04:10Z</time></trkpt><trkpt lat="46.42780561791939" lon="11.154418022888086"><ele>1112.0</ele><time>2026-04-17T11:04:11Z</time></trkpt><trkpt lat="46.42793183374867" lon="11.1544443160594"><ele>1112.0</ele><time>2026-04-17T11:04:12Z</time></trkpt><trkpt lat="46.42804458428001" lon="11.154501436915826"><ele>1112.0</ele><time>2026-04-17T11:04:13Z</time></trkpt><trkpt lat="46.42815188651062" lon="11.154589788006858"><ele>1112.0</ele><time>2026-04-17T11:04:14Z</time></trkpt><trkpt lat="46.42826020648872" lon="11.15472259916938"><ele>1116.0</ele><time>2026-04-17T11:04:15Z</time></trkpt><trkpt lat="46.42836366949292" lon="11.154885561693778"><ele>1120.0</ele><time>2026-04-17T11:04:16Z</time></trkpt><trkpt lat="46.428466549765275" lon="11.155067265910537"><ele>1124.0</ele><time>2026-04-17T11:04:17Z</time></trkpt><trkpt lat="46.42859299541764" lon="11.15523540093593"><ele>1124.0</ele><time>2026-04-17T11:04:18Z</time></trkpt><trkpt lat="46.42875712368208" lon="11.155393538393445"><ele>1124.0</ele><time>2026-04-17T11:04:19Z</time></trkpt><trkpt lat="46.42893744570284" lon="11.155560615398885"><ele>1124.0</ele><time>2026-04-17T11:04:20Z</time></trkpt><trkpt lat="46.42911155535063" lon="11.155721734142743"><ele>1129.6666666666667</ele><time>2026-04-17T11:04:21Z</time></trkpt><trkpt lat="46.429305129842604" lon="11.155904950415595"><ele>1135.3333333333333</ele><time>2026-04-17T11:04:22Z</time></trkpt><trkpt lat="46.429477428547955" lon="11.156078491975155"><ele>1141.0</ele><time>2026-04-17T11:04:23Z</time></trkpt><trkpt lat="46.42960838540766" lon="11.156206776305526"><ele>1139.6</ele><time>2026-04-17T11:04:24Z</time></trkpt><trkpt lat="46.42971708020303" lon="11.156306123959556"><ele>1138.1999999999998</ele><time>2026-04-17T11:04:25Z</time></trkpt><trkpt lat="46.429804295209436" lon="11.156379747653524"><ele>1136.8000000000002</ele><time>2026-04-17T11:04:26Z</time></trkpt><trkpt lat="46.429863537465806" lon="11.156465956283217"><ele>1135.4</ele><time>2026-04-17T11:04:27Z</time></trkpt><trkpt lat="46.42987661068291" lon="11.1565686734861"><ele>1134.0</ele><time>2026-04-17T11:04:28Z</time></trkpt><trkpt lat="46.42980074046551" lon="11.156716968029588"><ele>1137.5</ele><time>2026-04-17T11:04:30Z</time></trkpt><trkpt lat="46.42971206688169" lon="11.156739580206443"><ele>1141.0</ele><time>2026-04-17T11:04:31Z</time></trkpt><trkpt lat="46.42960405687072" lon="11.15671575482472"><ele>1144.5</ele><time>2026-04-17T11:04:32Z</time></trkpt><trkpt lat="46.4294654172359" lon="11.156678972976886"><ele>1148.0</ele><time>2026-04-17T11:04:33Z</time></trkpt><trkpt lat="46.429309804042525" lon="11.15667714961867"><ele>1148.6666666666667</ele><time>2026-04-17T11:04:34Z</time></trkpt><trkpt lat="46.42916506405039" lon="11.156718541086494"><ele>1149.3333333333333</ele><time>2026-04-17T11:04:35Z</time></trkpt><trkpt lat="46.42899202792612" lon="11.156804824549491"><ele>1150.0</ele><time>2026-04-17T11:04:36Z</time></trkpt><trkpt lat="46.42881323845859" lon="11.156901067402057"><ele>1148.6666666666665</ele><time>2026-04-17T11:04:37Z</time></trkpt><trkpt lat="46.42862461414904" lon="11.15698144896083"><ele>1147.3333333333333</ele><time>2026-04-17T11:04:38Z</time></trkpt><trkpt lat="46.42841384888685" lon="11.157037731624564"><ele>1146.0</ele><time>2026-04-17T11:04:39Z</time></trkpt><trkpt lat="46.42822111177704" lon="11.157111635961476"><ele>1146.0</ele><time>2026-04-17T11:04:40Z</time></trkpt><trkpt lat="46.428014374965294" lon="11.15724198933812"><ele>1146.0</ele><time>2026-04-17T11:04:41Z</time></trkpt><trkpt lat="46.427791584987744" lon="11.157391345985259"><ele>1152.0</ele><time>2026-04-17T11:04:42Z</time></trkpt><trkpt lat="46.427557788343634" lon="11.157552772359852"><ele>1158.0</ele><time>2026-04-17T11:04:43Z</time></trkpt><trkpt lat="46.427342413641654" lon="11.157690754316462"><ele>1158.0</ele><time>2026-04-17T11:04:44Z</time></trkpt><trkpt lat="46.427168684963256" lon="11.157796890570006"><ele>1158.0</ele><time>2026-04-17T11:04:45Z</time></trkpt><trkpt lat="46.427042568659175" lon="11.157897881763056"><ele>1158.0</ele><time>2026-04-17T11:04:46Z</time></trkpt><trkpt lat="46.42693868699848" lon="11.158029051592425"><ele>1160.0</ele><time>2026-04-17T11:04:47Z</time></trkpt><trkpt lat="46.42682304694756" lon="11.158221713850553"><ele>1162.0</ele><time>2026-04-17T11:04:48Z</time></trkpt><trkpt lat="46.42671245157168" lon="11.158479810170547"><ele>1164.0</ele><time>2026-04-17T11:04:49Z</time></trkpt><trkpt lat="46.42661063615358" lon="11.15873389294615"><ele>1164.0</ele><time>2026-04-17T11:04:50Z</time></trkpt><trkpt lat="46.426497705041555" lon="11.15896983519607"><ele>1164.0</ele><time>2026-04-17T11:04:51Z</time></trkpt><trkpt lat="46.42635660965468" lon="11.159192430788195"><ele>1164.0</ele><time>2026-04-17T11:04:52Z</time></trkpt><trkpt lat="46.42618677360147" lon="11.159405763990181"><ele>1164.6666666666667</ele><time>2026-04-17T11:04:53Z</time></trkpt><trkpt lat="46.426014262443196" lon="11.159635638469682"><ele>1165.3333333333335</ele><time>2026-04-17T11:04:54Z</time></trkpt><trkpt lat="46.425864639002" lon="11.159842654639423"><ele>1166.0</ele><time>2026-04-17T11:04:55Z</time></trkpt><trkpt lat="46.42575323769262" lon="11.160003642883023"><ele>1169.0</ele><time>2026-04-17T11:04:56Z</time></trkpt><trkpt lat="46.425652048400245" lon="11.160131253452922"><ele>1172.0</ele><time>2026-04-17T11:04:57Z</time></trkpt><trkpt lat="46.42552707608705" lon="11.160196842011176"><ele>1175.0</ele><time>2026-04-17T11:04:58Z</time></trkpt><trkpt lat="46.425381525522994" lon="11.160244228895799"><ele>1178.0</ele><time>2026-04-17T11:04:59Z</time></trkpt><trkpt lat="46.42521172127612" lon="11.160257732733267"><ele>1180.6666666666667</ele><time>2026-04-17T11:05:00Z</time></trkpt><trkpt lat="46.425010933259294" lon="11.16028932803676"><ele>1183.3333333333333</ele><time>2026-04-17T11:05:01Z</time></trkpt><trkpt lat="46.4248028780897" lon="11.160296347569913"><ele>1186.0</ele><time>2026-04-17T11:05:02Z</time></trkpt><trkpt lat="46.424619275181804" lon="11.160305468496523"><ele>1187.3333333333333</ele><time>2026-04-17T11:05:03Z</time></trkpt><trkpt lat="46.424461218029435" lon="11.160281286560826"><ele>1188.6666666666667</ele><time>2026-04-17T11:05:04Z</time></trkpt><trkpt lat="46.42431098753703" lon="11.160190440628147"><ele>1190.0</ele><time>2026-04-17T11:05:05Z</time></trkpt><trkpt lat="46.424137312006216" lon="11.160133887031112"><ele>1190.0</ele><time>2026-04-17T11:05:06Z</time></trkpt><trkpt lat="46.42397827881248" lon="11.160093397546495"><ele>1190.0</ele><time>2026-04-17T11:05:07Z</time></trkpt><trkpt lat="46.42381583026788" lon="11.160100754710003"><ele>1190.0</ele><time>2026-04-17T11:05:08Z</time></trkpt><trkpt lat="46.42366106210889" lon="11.160140970813456"><ele>1191.6666666666667</ele><time>2026-04-17T11:05:09Z</time></trkpt><trkpt lat="46.42350799634309" lon="11.160187853465532"><ele>1193.3333333333333</ele><time>2026-04-17T11:05:10Z</time></trkpt><trkpt lat="46.42333809298709" lon="11.160238929205274"><ele>1195.0</ele><time>2026-04-17T11:05:11Z</time></trkpt><trkpt lat="46.423171188444854" lon="11.160304026337215"><ele>1195.0</ele><time>2026-04-17T11:05:12Z</time></trkpt><trkpt lat="46.42304606372762" lon="11.160368605480818"><ele>1195.0</ele><time>2026-04-17T11:05:13Z</time></trkpt><trkpt lat="46.4229406159064" lon="11.1604512707844"><ele>1195.0</ele><time>2026-04-17T11:05:14Z</time></trkpt><trkpt lat="46.422835694130384" lon="11.16056886951773"><ele>1195.0</ele><time>2026-04-17T11:05:15Z</time></trkpt><trkpt lat="46.42272487146682" lon="11.160710625340757"><ele>1199.0</ele><time>2026-04-17T11:05:16Z</time></trkpt><trkpt lat="46.42260610960675" lon="11.160815018162872"><ele>1203.0</ele><time>2026-04-17T11:05:17Z</time></trkpt><trkpt lat="46.42248615840776" lon="11.160865613411703"><ele>1207.0</ele><time>2026-04-17T11:05:18Z</time></trkpt><trkpt lat="46.422358896508925" lon="11.160838155173321"><ele>1211.0</ele><time>2026-04-17T11:05:19Z</time></trkpt><trkpt lat="46.422226453598675" lon="11.160836012446161"><ele>1211.75</ele><time>2026-04-17T11:05:20Z</time></trkpt><trkpt lat="46.42210349746665" lon="11.160872117740475"><ele>1212.5</ele><time>2026-04-17T11:05:21Z</time></trkpt><trkpt lat="46.421987202327344" lon="11.160947584591998"><ele>1213.25</ele><time>2026-04-17T11:05:22Z</time></trkpt><trkpt lat="46.42188708464176" lon="11.161024231161832"><ele>1214.0</ele><time>2026-04-17T11:05:23.001Z</time></trkpt><trkpt lat="46.42179234332613" lon="11.16107836049329"><ele>1214.0</ele><time>2026-04-17T11:05:24.001Z</time></trkpt><trkpt lat="46.42169124866975" lon="11.16109787098455"><ele>1214.0</ele><time>2026-04-17T11:05:25.001Z</time></trkpt><trkpt lat="46.421587905093716" lon="11.161082133377393"><ele>1214.0</ele><time>2026-04-17T11:05:26.001Z</time></trkpt><trkpt lat="46.42148075988396" lon="11.161044892345734"><ele>1214.0</ele><time>2026-04-17T11:05:27.001Z</time></trkpt><trkpt lat="46.42137006391783" lon="11.160998380851643"><ele>1214.0</ele><time>2026-04-17T11:05:28.001Z</time></trkpt><trkpt lat="46.42125210854977" lon="11.160958498770725"><ele>1214.6666666666667</ele><time>2026-04-17T11:05:29Z</time></trkpt><trkpt lat="46.421111320360666" lon="11.160953871282862"><ele>1215.3333333333333</ele><time>2026-04-17T11:05:30Z</time></trkpt><trkpt lat="46.42094754837151" lon="11.160991676557149"><ele>1216.0</ele><time>2026-04-17T11:05:31Z</time></trkpt><trkpt lat="46.42079556308382" lon="11.161041788721052"><ele>1216.0</ele><time>2026-04-17T11:05:32Z</time></trkpt><trkpt lat="46.42069143406472" lon="11.16108278800893"><ele>1216.0</ele><time>2026-04-17T11:05:33Z</time></trkpt><trkpt lat="46.420604653655005" lon="11.161145818462067"><ele>1216.0</ele><time>2026-04-17T11:05:34Z</time></trkpt><trkpt lat="46.4205257301543" lon="11.16125042722812"><ele>1216.0</ele><time>2026-04-17T11:05:35Z</time></trkpt><trkpt lat="46.42046871467543" lon="11.16138090022586"><ele>1216.0</ele><time>2026-04-17T11:05:36Z</time></trkpt><trkpt lat="46.42043538789027" lon="11.161539538951713"><ele>1218.5</ele><time>2026-04-17T11:05:37Z</time></trkpt><trkpt lat="46.4204076115847" lon="11.161715301137"><ele>1221.0</ele><time>2026-04-17T11:05:38Z</time></trkpt><trkpt lat="46.420385252848156" lon="11.161890808375368"><ele>1223.5</ele><time>2026-04-17T11:05:39Z</time></trkpt><trkpt lat="46.420344434185246" lon="11.162028558149691"><ele>1226.0</ele><time>2026-04-17T11:05:40Z</time></trkpt><trkpt lat="46.420268918839504" lon="11.162143301540768"><ele>1226.0</ele><time>2026-04-17T11:05:41Z</time></trkpt><trkpt lat="46.42017279447289" lon="11.162210691925203"><ele>1226.0</ele><time>2026-04-17T11:05:42Z</time></trkpt><trkpt lat="46.42006753946384" lon="11.16223020405803"><ele>1226.0</ele><time>2026-04-17T11:05:43Z</time></trkpt><trkpt lat="46.419967037426424" lon="11.16219327935587"><ele>1226.0</ele><time>2026-04-17T11:05:44Z</time></trkpt><trkpt lat="46.41986653651434" lon="11.162210068942544"><ele>1226.0</ele><time>2026-04-17T11:05:45Z</time></trkpt><trkpt lat="46.41975884277661" lon="11.162239570881216"><ele>1227.0</ele><time>2026-04-17T11:05:46Z</time></trkpt><trkpt lat="46.419647682793865" lon="11.162320251992103"><ele>1228.0</ele><time>2026-04-17T11:05:47Z</time></trkpt><trkpt lat="46.41955456842558" lon="11.162450607687575"><ele>1229.0</ele><time>2026-04-17T11:05:48Z</time></trkpt><trkpt lat="46.41944982531434" lon="11.162613728025619"><ele>1230.0</ele><time>2026-04-17T11:05:49Z</time></trkpt><trkpt lat="46.41932870761505" lon="11.162789388537636"><ele>1230.0</ele><time>2026-04-17T11:05:50Z</time></trkpt><trkpt lat="46.41923703529353" lon="11.162921957385377"><ele>1230.0</ele><time>2026-04-17T11:05:51Z</time></trkpt><trkpt lat="46.41918323670946" lon="11.163009305126154"><ele>1230.0</ele><time>2026-04-17T11:05:52Z</time></trkpt><trkpt lat="46.4191501976943" lon="11.163126088385152"><ele>1230.0</ele><time>2026-04-17T11:05:53Z</time></trkpt><trkpt lat="46.41913985868431" lon="11.163293456030367"><ele>1230.0</ele><time>2026-04-17T11:05:54Z</time></trkpt><trkpt lat="46.41914839752577" lon="11.163510805265307"><ele>1232.75</ele><time>2026-04-17T11:05:55Z</time></trkpt><trkpt lat="46.419154624655725" lon="11.163717592198084"><ele>1235.5</ele><time>2026-04-17T11:05:56Z</time></trkpt><trkpt lat="46.41912351366951" lon="11.163931482842887"><ele>1238.25</ele><time>2026-04-17T11:05:57Z</time></trkpt><trkpt lat="46.41908555743983" lon="11.164138961421669"><ele>1241.0</ele><time>2026-04-17T11:05:58Z</time></trkpt><trkpt lat="46.41902941002925" lon="11.164312489254474"><ele>1241.75</ele><time>2026-04-17T11:05:59Z</time></trkpt><trkpt lat="46.41895439921533" lon="11.164471012858382"><ele>1242.5</ele><time>2026-04-17T11:06:00Z</time></trkpt><trkpt lat="46.418866477252585" lon="11.164591579630653"><ele>1243.25</ele><time>2026-04-17T11:06:01Z</time></trkpt><trkpt lat="46.41877002061375" lon="11.164692282737997"><ele>1244.0</ele><time>2026-04-17T11:06:02Z</time></trkpt><trkpt lat="46.41866057871755" lon="11.164753428161344"><ele>1244.0</ele><time>2026-04-17T11:06:03Z</time></trkpt><trkpt lat="46.41855079485965" lon="11.164812313744374"><ele>1244.0</ele><time>2026-04-17T11:06:04Z</time></trkpt><trkpt lat="46.41842073281392" lon="11.164811832550885"><ele>1244.0</ele><time>2026-04-17T11:06:05Z</time></trkpt><trkpt lat="46.41826829230966" lon="11.164792921119933"><ele>1244.0</ele><time>2026-04-17T11:06:06Z</time></trkpt><trkpt lat="46.4181142096475" lon="11.16477684801751"><ele>1244.5</ele><time>2026-04-17T11:06:07Z</time></trkpt><trkpt lat="46.41798064396594" lon="11.164780221860829"><ele>1245.0</ele><time>2026-04-17T11:06:08Z</time></trkpt><trkpt lat="46.417871618442994" lon="11.164806642960196"><ele>1245.5</ele><time>2026-04-17T11:06:09Z</time></trkpt><trkpt lat="46.41778047505" lon="11.164883475825393"><ele>1246.0</ele><time>2026-04-17T11:06:10Z</time></trkpt><trkpt lat="46.41769631477575" lon="11.164990456069667"><ele>1247.5</ele><time>2026-04-17T11:06:11Z</time></trkpt><trkpt lat="46.417622438948804" lon="11.165126807268454"><ele>1249.0</ele><time>2026-04-17T11:06:12Z</time></trkpt><trkpt lat="46.41756459712472" lon="11.165284269225815"><ele>1250.5</ele><time>2026-04-17T11:06:13Z</time></trkpt><trkpt lat="46.417530133487624" lon="11.16545996877902"><ele>1252.0</ele><time>2026-04-17T11:06:14Z</time></trkpt><trkpt lat="46.41751952545321" lon="11.165654614958388"><ele>1251.5</ele><time>2026-04-17T11:06:15Z</time></trkpt><trkpt lat="46.41751418868876" lon="11.165845683291922"><ele>1251.0</ele><time>2026-04-17T11:06:16Z</time></trkpt><trkpt lat="46.417565437771394" lon="11.165989382961484"><ele>1250.5</ele><time>2026-04-17T11:06:17Z</time></trkpt><trkpt lat="46.41761701920738" lon="11.166142556583544"><ele>1250.0</ele><time>2026-04-17T11:06:18Z</time></trkpt><trkpt lat="46.417700926258334" lon="11.166300549931414"><ele>1250.0</ele><time>2026-04-17T11:06:19Z</time></trkpt><trkpt lat="46.41780462956461" lon="11.166469618484888"><ele>1250.0</ele><time>2026-04-17T11:06:20Z</time></trkpt><trkpt lat="46.41792661678858" lon="11.166616664848814"><ele>1250.0</ele><time>2026-04-17T11:06:21Z</time></trkpt><trkpt lat="46.418063876741826" lon="11.16671799133239"><ele>1254.0</ele><time>2026-04-17T11:06:22Z</time></trkpt><trkpt lat="46.418222261935334" lon="11.166797087982946"><ele>1258.0</ele><time>2026-04-17T11:06:23Z</time></trkpt><trkpt lat="46.418391459958855" lon="11.166867470641025"><ele>1262.0</ele><time>2026-04-17T11:06:24Z</time></trkpt><trkpt lat="46.41852294090592" lon="11.166925646063127"><ele>1262.0</ele><time>2026-04-17T11:06:25Z</time></trkpt><trkpt lat="46.41862240414053" lon="11.166988291639544"><ele>1262.0</ele><time>2026-04-17T11:06:26Z</time></trkpt><trkpt lat="46.4186975916443" lon="11.167099419315255"><ele>1262.0</ele><time>2026-04-17T11:06:27Z</time></trkpt><trkpt lat="46.41875781681817" lon="11.16723593660485"><ele>1262.0</ele><time>2026-04-17T11:06:28Z</time></trkpt><trkpt lat="46.418789563323045" lon="11.167401771556"><ele>1262.0</ele><time>2026-04-17T11:06:29Z</time></trkpt><trkpt lat="46.41880005291206" lon="11.167584646176579"><ele>1261.25</ele><time>2026-04-17T11:06:30Z</time></trkpt><trkpt lat="46.41878292676909" lon="11.167758267729063"><ele>1260.5</ele><time>2026-04-17T11:06:31Z</time></trkpt><trkpt lat="46.41872940146974" lon="11.167916503760527"><ele>1259.75</ele><time>2026-04-17T11:06:32Z</time></trkpt><trkpt lat="46.418649319352795" lon="11.168084087502248"><ele>1259.0</ele><time>2026-04-17T11:06:33Z</time></trkpt><trkpt lat="46.4185270558532" lon="11.168248166294177"><ele>1258.6666666666667</ele><time>2026-04-17T11:06:34Z</time></trkpt><trkpt lat="46.41843007558267" lon="11.168424325201647"><ele>1258.3333333333333</ele><time>2026-04-17T11:06:35Z</time></trkpt><trkpt lat="46.41835694280335" lon="11.168670708050325"><ele>1258.0</ele><time>2026-04-17T11:06:36Z</time></trkpt><trkpt lat="46.41827697565086" lon="11.16893308443637"><ele>1258.75</ele><time>2026-04-17T11:06:37Z</time></trkpt><trkpt lat="46.418211106756495" lon="11.169189313557242"><ele>1259.5</ele><time>2026-04-17T11:06:38Z</time></trkpt><trkpt lat="46.418152916998906" lon="11.169386484322677"><ele>1260.25</ele><time>2026-04-17T11:06:39Z</time></trkpt><trkpt lat="46.41812368637327" lon="11.169526348450102"><ele>1261.0</ele><time>2026-04-17T11:06:40Z</time></trkpt><trkpt lat="46.41808958933769" lon="11.16966742144662"><ele>1261.0</ele><time>2026-04-17T11:06:41Z</time></trkpt><trkpt lat="46.41809634213732" lon="11.16982712745244"><ele>1261.0</ele><time>2026-04-17T11:06:42Z</time></trkpt><trkpt lat="46.418144261761476" lon="11.170007180754588"><ele>1261.0</ele><time>2026-04-17T11:06:43Z</time></trkpt><trkpt lat="46.41821898522392" lon="11.170201524803193"><ele>1261.0</ele><time>2026-04-17T11:06:44Z</time></trkpt><trkpt lat="46.41829592621303" lon="11.170351749074378"><ele>1261.5</ele><time>2026-04-17T11:06:45Z</time></trkpt><trkpt lat="46.41837472642632" lon="11.17048000502153"><ele>1262.0</ele><time>2026-04-17T11:06:46Z</time></trkpt><trkpt lat="46.41846402847573" lon="11.170612110518093"><ele>1262.5</ele><time>2026-04-17T11:06:47Z</time></trkpt><trkpt lat="46.41858025252443" lon="11.17072273848307"><ele>1263.0</ele><time>2026-04-17T11:06:48Z</time></trkpt><trkpt lat="46.41871555673504" lon="11.170810083554795"><ele>1266.6666666666667</ele><time>2026-04-17T11:06:49Z</time></trkpt><trkpt lat="46.4188838646478" lon="11.170904194218975"><ele>1270.3333333333335</ele><time>2026-04-17T11:06:50Z</time></trkpt><trkpt lat="46.41902127662795" lon="11.17105034233951"><ele>1274.0</ele><time>2026-04-17T11:06:51Z</time></trkpt><trkpt lat="46.4191184118107" lon="11.1711766704568"><ele>1274.0</ele><time>2026-04-17T11:06:52Z</time></trkpt><trkpt lat="46.41918763876087" lon="11.171308257067949"><ele>1274.0</ele><time>2026-04-17T11:06:53Z</time></trkpt><trkpt lat="46.41923444827354" lon="11.171455130118073"><ele>1274.0</ele><time>2026-04-17T11:06:54Z</time></trkpt><trkpt lat="46.41926084520486" lon="11.171624501357604"><ele>1274.0</ele><time>2026-04-17T11:06:55Z</time></trkpt><trkpt lat="46.41926880972949" lon="11.171815050896772"><ele>1271.6666666666667</ele><time>2026-04-17T11:06:56Z</time></trkpt><trkpt lat="46.41925674377893" lon="11.172058942595315"><ele>1269.3333333333333</ele><time>2026-04-17T11:06:57Z</time></trkpt><trkpt lat="46.4192459018856" lon="11.172342433553105"><ele>1267.0</ele><time>2026-04-17T11:06:58Z</time></trkpt><trkpt lat="46.41925678047394" lon="11.172629208603905"><ele>1267.0</ele><time>2026-04-17T11:06:59Z</time></trkpt><trkpt lat="46.41926221779984" lon="11.172894189428618"><ele>1267.0</ele><time>2026-04-17T11:07:00Z</time></trkpt><trkpt lat="46.41925836088993" lon="11.173135876659476"><ele>1267.0</ele><time>2026-04-17T11:07:01Z</time></trkpt><trkpt lat="46.419283115678766" lon="11.17334708962324"><ele>1265.75</ele><time>2026-04-17T11:07:02Z</time></trkpt><trkpt lat="46.419334558211695" lon="11.173512168628847"><ele>1264.5</ele><time>2026-04-17T11:07:03Z</time></trkpt><trkpt lat="46.419393172259014" lon="11.173665936550714"><ele>1263.25</ele><time>2026-04-17T11:07:04Z</time></trkpt><trkpt lat="46.41947516027379" lon="11.173814326777846"><ele>1262.0</ele><time>2026-04-17T11:07:05Z</time></trkpt><trkpt lat="46.419588825548026" lon="11.173957615649842"><ele>1268.6666666666667</ele><time>2026-04-17T11:07:06Z</time></trkpt><trkpt lat="46.4197225745161" lon="11.174093031852003"><ele>1275.3333333333333</ele><time>2026-04-17T11:07:07Z</time></trkpt><trkpt lat="46.41988502888171" lon="11.174227382515776"><ele>1282.0</ele><time>2026-04-17T11:07:08Z</time></trkpt><trkpt lat="46.420048603303016" lon="11.174418906227558"><ele>1282.0</ele><time>2026-04-17T11:07:08.999Z</time></trkpt><trkpt lat="46.42020871453013" lon="11.174603788720152"><ele>1282.0</ele><time>2026-04-17T11:07:09.999Z</time></trkpt><trkpt lat="46.420381827065604" lon="11.17481122715332"><ele>1282.0</ele><time>2026-04-17T11:07:10.999Z</time></trkpt><trkpt lat="46.420564528574616" lon="11.175022937968823"><ele>1284.0</ele><time>2026-04-17T11:07:11.999Z</time></trkpt><trkpt lat="46.42073642046808" lon="11.17519753135216"><ele>1286.0</ele><time>2026-04-17T11:07:12.999Z</time></trkpt><trkpt lat="46.42091676224543" lon="11.175336711869951"><ele>1288.0</ele><time>2026-04-17T11:07:13.999Z</time></trkpt><trkpt lat="46.4211097685538" lon="11.17548644678024"><ele>1285.0</ele><time>2026-04-17T11:07:14.999Z</time></trkpt><trkpt lat="46.42133263563373" lon="11.175610932079062"><ele>1282.0</ele><time>2026-04-17T11:07:15.999Z</time></trkpt><trkpt lat="46.42155402240012" lon="11.175745738890038"><ele>1282.0</ele><time>2026-04-17T11:07:16.999Z</time></trkpt><trkpt lat="46.42175734712277" lon="11.1758649200953"><ele>1282.0</ele><time>2026-04-17T11:07:17.999Z</time></trkpt><trkpt lat="46.421973676736485" lon="11.17598489441859"><ele>1292.5</ele><time>2026-04-17T11:07:18.999Z</time></trkpt><trkpt lat="46.422201791733066" lon="11.1761155595528"><ele>1303.0</ele><time>2026-04-17T11:07:19.999Z</time></trkpt><trkpt lat="46.42241359073597" lon="11.176269006204272"><ele>1303.0</ele><time>2026-04-17T11:07:20.999Z</time></trkpt><trkpt lat="46.42261057012669" lon="11.176428543210665"><ele>1303.0</ele><time>2026-04-17T11:07:21.999Z</time></trkpt><trkpt lat="46.42277200294192" lon="11.176588406098475"><ele>1303.0</ele><time>2026-04-17T11:07:22.999Z</time></trkpt><trkpt lat="46.42291104585612" lon="11.176734303883707"><ele>1303.0</ele><time>2026-04-17T11:07:23.999Z</time></trkpt><trkpt lat="46.42301995417137" lon="11.176860557517644"><ele>1303.0</ele><time>2026-04-17T11:07:24.999Z</time></trkpt><trkpt lat="46.42309895588136" lon="11.17699340175356"><ele>1303.0</ele><time>2026-04-17T11:07:25.999Z</time></trkpt><trkpt lat="46.4231578851171" lon="11.177149336660001"><ele>1303.0</ele><time>2026-04-17T11:07:26.999Z</time></trkpt><trkpt lat="46.42317955713246" lon="11.177342730288721"><ele>1296.3333333333333</ele><time>2026-04-17T11:07:27.999Z</time></trkpt><trkpt lat="46.42322629342429" lon="11.177569714350177"><ele>1289.6666666666667</ele><time>2026-04-17T11:07:29Z</time></trkpt><trkpt lat="46.42324650751507" lon="11.177807379982424"><ele>1283.0</ele><time>2026-04-17T11:07:30Z</time></trkpt><trkpt lat="46.423285569265374" lon="11.178005498677718"><ele>1283.0</ele><time>2026-04-17T11:07:31Z</time></trkpt><trkpt lat="46.42334753453472" lon="11.17816685543016"><ele>1283.0</ele><time>2026-04-17T11:07:32Z</time></trkpt><trkpt lat="46.423437909139494" lon="11.178315188478502"><ele>1283.0</ele><time>2026-04-17T11:07:33Z</time></trkpt><trkpt lat="46.42355807662802" lon="11.17841258697097"><ele>1283.0</ele><time>2026-04-17T11:07:34Z</time></trkpt><trkpt lat="46.42369201484062" lon="11.178480211713714"><ele>1282.3333333333335</ele><time>2026-04-17T11:07:35Z</time></trkpt><trkpt lat="46.423839167015245" lon="11.178498341733974"><ele>1281.6666666666667</ele><time>2026-04-17T11:07:36Z</time></trkpt><trkpt lat="46.42400935141921" lon="11.178518801399191"><ele>1281.0</ele><time>2026-04-17T11:07:37Z</time></trkpt><trkpt lat="46.42419161979351" lon="11.178533532327073"><ele>1281.0</ele><time>2026-04-17T11:07:38Z</time></trkpt><trkpt lat="46.42435309976703" lon="11.178572081674815"><ele>1281.0</ele><time>2026-04-17T11:07:39Z</time></trkpt><trkpt lat="46.42449471686779" lon="11.178645384475548"><ele>1281.0</ele><time>2026-04-17T11:07:40Z</time></trkpt><trkpt lat="46.424641662354794" lon="11.178758423822366"><ele>1283.3333333333333</ele><time>2026-04-17T11:07:41Z</time></trkpt><trkpt lat="46.4247839171973" lon="11.178950446058165"><ele>1285.6666666666665</ele><time>2026-04-17T11:07:42Z</time></trkpt><trkpt lat="46.424937987970964" lon="11.179124538271475"><ele>1288.0</ele><time>2026-04-17T11:07:43Z</time></trkpt><trkpt lat="46.42507770222661" lon="11.179252893713416"><ele>1288.0</ele><time>2026-04-17T11:07:44Z</time></trkpt><trkpt lat="46.425168736437236" lon="11.179384958262688"><ele>1288.0</ele><time>2026-04-17T11:07:45Z</time></trkpt><trkpt lat="46.42524451267702" lon="11.179469725384356"><ele>1288.0</ele><time>2026-04-17T11:07:46Z</time></trkpt><trkpt lat="46.425303560491194" lon="11.179566064414816"><ele>1288.0</ele><time>2026-04-17T11:07:47Z</time></trkpt><trkpt lat="46.42533814427358" lon="11.179664457381685"><ele>1288.0</ele><time>2026-04-17T11:07:48Z</time></trkpt><trkpt lat="46.425316139228705" lon="11.179777802081146"><ele>1288.8000000000002</ele><time>2026-04-17T11:07:49Z</time></trkpt><trkpt lat="46.425266945706355" lon="11.179884433040685"><ele>1289.6</ele><time>2026-04-17T11:07:50Z</time></trkpt><trkpt lat="46.4251862995334" lon="11.17994845048545"><ele>1290.4</ele><time>2026-04-17T11:07:51Z</time></trkpt><trkpt lat="46.425088647528604" lon="11.17998576721303"><ele>1291.1999999999998</ele><time>2026-04-17T11:07:52Z</time></trkpt><trkpt lat="46.424953758484584" lon="11.180037777774132"><ele>1292.0</ele><time>2026-04-17T11:07:53Z</time></trkpt><trkpt lat="46.42479965962106" lon="11.180094883243108"><ele>1292.0</ele><time>2026-04-17T11:07:54Z</time></trkpt><trkpt lat="46.424670670334706" lon="11.180155588331644"><ele>1292.0</ele><time>2026-04-17T11:07:55Z</time></trkpt><trkpt lat="46.4245448948392" lon="11.18023241974421"><ele>1292.0</ele><time>2026-04-17T11:07:56Z</time></trkpt><trkpt lat="46.424443673817734" lon="11.180320715270836"><ele>1292.0</ele><time>2026-04-17T11:07:57Z</time></trkpt><trkpt lat="46.424356425527385" lon="11.180465388190397"><ele>1292.0</ele><time>2026-04-17T11:07:58Z</time></trkpt><trkpt lat="46.42429472600322" lon="11.180641985007691"><ele>1292.0</ele><time>2026-04-17T11:07:59Z</time></trkpt><trkpt lat="46.42425203440054" lon="11.18086295268216"><ele>1292.0</ele><time>2026-04-17T11:08:00Z</time></trkpt><trkpt lat="46.424204403656745" lon="11.18112169748634"><ele>1293.3333333333335</ele><time>2026-04-17T11:08:01Z</time></trkpt><trkpt lat="46.424143664712716" lon="11.181363439862766"><ele>1294.6666666666667</ele><time>2026-04-17T11:08:02Z</time></trkpt><trkpt lat="46.42410579675782" lon="11.181624963526716"><ele>1296.0</ele><time>2026-04-17T11:08:03Z</time></trkpt><trkpt lat="46.42401868414977" lon="11.181882870534174"><ele>1296.6666666666667</ele><time>2026-04-17T11:08:04Z</time></trkpt><trkpt lat="46.423917155918375" lon="11.182136519986233"><ele>1297.3333333333335</ele><time>2026-04-17T11:08:05Z</time></trkpt><trkpt lat="46.42378784967053" lon="11.182388848824397"><ele>1298.0</ele><time>2026-04-17T11:08:06Z</time></trkpt><trkpt lat="46.423658755530305" lon="11.182638590468093"><ele>1298.0</ele><time>2026-04-17T11:08:07Z</time></trkpt><trkpt lat="46.42355694997387" lon="11.182872675974245"><ele>1298.0</ele><time>2026-04-17T11:08:08Z</time></trkpt><trkpt lat="46.42347107010152" lon="11.183084363108229"><ele>1298.0</ele><time>2026-04-17T11:08:09Z</time></trkpt><trkpt lat="46.42339951582367" lon="11.183330950122071"><ele>1301.6666666666667</ele><time>2026-04-17T11:08:10Z</time></trkpt><trkpt lat="46.42334593974003" lon="11.18360791680029"><ele>1305.3333333333333</ele><time>2026-04-17T11:08:11Z</time></trkpt><trkpt lat="46.42331596925967" lon="11.18389298792583"><ele>1309.0</ele><time>2026-04-17T11:08:12Z</time></trkpt><trkpt lat="46.42329935080697" lon="11.184120442982323"><ele>1310.25</ele><time>2026-04-17T11:08:13Z</time></trkpt><trkpt lat="46.42327559827704" lon="11.184295888987942"><ele>1311.5</ele><time>2026-04-17T11:08:14Z</time></trkpt><trkpt lat="46.423217455381646" lon="11.184430958570188"><ele>1312.75</ele><time>2026-04-17T11:08:15Z</time></trkpt><trkpt lat="46.4231574733738" lon="11.184580186376113"><ele>1314.0</ele><time>2026-04-17T11:08:16Z</time></trkpt><trkpt lat="46.42304689088845" lon="11.184682126575415"><ele>1312.0</ele><time>2026-04-17T11:08:17Z</time></trkpt><trkpt lat="46.422921137657525" lon="11.184807966698871"><ele>1310.0</ele><time>2026-04-17T11:08:18Z</time></trkpt><trkpt lat="46.42280368568251" lon="11.184986916623025"><ele>1308.0</ele><time>2026-04-17T11:08:19Z</time></trkpt><trkpt lat="46.42267266945651" lon="11.185189403140983"><ele>1308.0</ele><time>2026-04-17T11:08:20Z</time></trkpt><trkpt lat="46.42257113073845" lon="11.18543495781291"><ele>1308.0</ele><time>2026-04-17T11:08:21Z</time></trkpt><trkpt lat="46.422462396093735" lon="11.185691383945736"><ele>1308.0</ele><time>2026-04-17T11:08:22Z</time></trkpt><trkpt lat="46.42232975360678" lon="11.185957097847835"><ele>1306.6666666666667</ele><time>2026-04-17T11:08:23Z</time></trkpt><trkpt lat="46.42221820280259" lon="11.186208133020015"><ele>1305.3333333333335</ele><time>2026-04-17T11:08:24Z</time></trkpt><trkpt lat="46.42214511709314" lon="11.186402798930134"><ele>1304.0</ele><time>2026-04-17T11:08:25Z</time></trkpt><trkpt lat="46.42206488898027" lon="11.186564291325507"><ele>1306.25</ele><time>2026-04-17T11:08:26Z</time></trkpt><trkpt lat="46.42196167500682" lon="11.186684969969587"><ele>1308.5</ele><time>2026-04-17T11:08:27Z</time></trkpt><trkpt lat="46.42184805870492" lon="11.186812234660692"><ele>1310.75</ele><time>2026-04-17T11:08:28Z</time></trkpt><trkpt lat="46.42170885599911" lon="11.186908207301403"><ele>1313.0</ele><time>2026-04-17T11:08:29Z</time></trkpt><trkpt lat="46.421557350461626" lon="11.186993642529307"><ele>1313.0</ele><time>2026-04-17T11:08:30Z</time></trkpt><trkpt lat="46.421434647528656" lon="11.187059893426204"><ele>1313.0</ele><time>2026-04-17T11:08:31Z</time></trkpt><trkpt lat="46.42133899259344" lon="11.187188697130015"><ele>1313.0</ele><time>2026-04-17T11:08:32Z</time></trkpt><trkpt lat="46.42126752144436" lon="11.187334375917048"><ele>1313.0</ele><time>2026-04-17T11:08:33Z</time></trkpt><trkpt lat="46.421221401637084" lon="11.187505723413722"><ele>1314.4</ele><time>2026-04-17T11:08:34Z</time></trkpt><trkpt lat="46.42117857610248" lon="11.18767726634002"><ele>1315.8000000000002</ele><time>2026-04-17T11:08:35Z</time></trkpt><trkpt lat="46.42115204163277" lon="11.187825295477257"><ele>1317.2</ele><time>2026-04-17T11:08:36Z</time></trkpt><trkpt lat="46.421104238256916" lon="11.18793200415145"><ele>1318.6</ele><time>2026-04-17T11:08:37Z</time></trkpt><trkpt lat="46.42102209711353" lon="11.188013652374696"><ele>1320.0</ele><time>2026-04-17T11:08:38Z</time></trkpt><trkpt lat="46.42091853803796" lon="11.188058021019227"><ele>1320.0</ele><time>2026-04-17T11:08:39Z</time></trkpt><trkpt lat="46.42081970405797" lon="11.188070998254055"><ele>1320.0</ele><time>2026-04-17T11:08:40Z</time></trkpt><trkpt lat="46.42071155432626" lon="11.188019923203283"><ele>1320.0</ele><time>2026-04-17T11:08:41Z</time></trkpt><trkpt lat="46.420598933084975" lon="11.187955930925929"><ele>1320.0</ele><time>2026-04-17T11:08:42Z</time></trkpt><trkpt lat="46.420460424938405" lon="11.187888811568003"><ele>1319.25</ele><time>2026-04-17T11:08:43Z</time></trkpt><trkpt lat="46.42032906906301" lon="11.187816090301611"><ele>1318.5</ele><time>2026-04-17T11:08:44Z</time></trkpt><trkpt lat="46.420196930399634" lon="11.187803103670058"><ele>1317.75</ele><time>2026-04-17T11:08:45Z</time></trkpt><trkpt lat="46.4200573712126" lon="11.187832332146494"><ele>1317.0</ele><time>2026-04-17T11:08:46Z</time></trkpt><trkpt lat="46.41989472967247" lon="11.187857586811377"><ele>1317.0</ele><time>2026-04-17T11:08:47Z</time></trkpt><trkpt lat="46.419712381506095" lon="11.187866733403412"><ele>1317.0</ele><time>2026-04-17T11:08:48Z</time></trkpt><trkpt lat="46.419571979214204" lon="11.18790380508913"><ele>1317.0</ele><time>2026-04-17T11:08:49Z</time></trkpt><trkpt lat="46.419456282455656" lon="11.187924638932865"><ele>1317.0</ele><time>2026-04-17T11:08:50Z</time></trkpt><trkpt lat="46.419356849532484" lon="11.18798237782046"><ele>1318.75</ele><time>2026-04-17T11:08:51Z</time></trkpt><trkpt lat="46.419271100652225" lon="11.188087230371536"><ele>1320.5</ele><time>2026-04-17T11:08:52Z</time></trkpt><trkpt lat="46.41918806535223" lon="11.188231333647865"><ele>1322.25</ele><time>2026-04-17T11:08:53Z</time></trkpt><trkpt lat="46.41911896134135" lon="11.188404300896115"><ele>1324.0</ele><time>2026-04-17T11:08:54Z</time></trkpt><trkpt lat="46.419035919450835" lon="11.188614484153366"><ele>1323.6666666666665</ele><time>2026-04-17T11:08:55Z</time></trkpt><trkpt lat="46.41893714252496" lon="11.18885861649627"><ele>1323.3333333333333</ele><time>2026-04-17T11:08:56Z</time></trkpt><trkpt lat="46.41884430668628" lon="11.189055416918777"><ele>1323.0</ele><time>2026-04-17T11:08:57Z</time></trkpt><trkpt lat="46.41875921719895" lon="11.189189760966604"><ele>1323.0</ele><time>2026-04-17T11:08:58Z</time></trkpt><trkpt lat="46.418657432483116" lon="11.189309008920201"><ele>1323.0</ele><time>2026-04-17T11:08:59Z</time></trkpt><trkpt lat="46.41854234150659" lon="11.189386646251224"><ele>1323.0</ele><time>2026-04-17T11:09:00Z</time></trkpt><trkpt lat="46.41841098133335" lon="11.189442380277029"><ele>1323.0</ele><time>2026-04-17T11:09:00.999Z</time></trkpt><trkpt lat="46.418266534000196" lon="11.189500201275198"><ele>1323.0</ele><time>2026-04-17T11:09:01.999Z</time></trkpt><trkpt lat="46.41809544724915" lon="11.189553412685811"><ele>1323.0</ele><time>2026-04-17T11:09:02.999Z</time></trkpt><trkpt lat="46.41793266143015" lon="11.189596697206781"><ele>1323.0</ele><time>2026-04-17T11:09:03.999Z</time></trkpt><trkpt lat="46.41779195414595" lon="11.18964590553179"><ele>1322.5</ele><time>2026-04-17T11:09:04.999Z</time></trkpt><trkpt lat="46.417677017380925" lon="11.189698298607412"><ele>1322.0</ele><time>2026-04-17T11:09:05.999Z</time></trkpt><trkpt lat="46.417569345407074" lon="11.189755414931746"><ele>1321.5</ele><time>2026-04-17T11:09:06.999Z</time></trkpt><trkpt lat="46.417467183618314" lon="11.18985266561675"><ele>1321.0</ele><time>2026-04-17T11:09:07.999Z</time></trkpt><trkpt lat="46.417363482905145" lon="11.18999051231611"><ele>1321.0</ele><time>2026-04-17T11:09:08.999Z</time></trkpt><trkpt lat="46.41725763415356" lon="11.190161772840474"><ele>1321.0</ele><time>2026-04-17T11:09:09.999Z</time></trkpt><trkpt lat="46.41713819300672" lon="11.190361686987961"><ele>1321.0</ele><time>2026-04-17T11:09:10.999Z</time></trkpt><trkpt lat="46.417037188793344" lon="11.190600894916193"><ele>1319.3333333333333</ele><time>2026-04-17T11:09:11.999Z</time></trkpt><trkpt lat="46.416946570159105" lon="11.190828028319089"><ele>1317.6666666666667</ele><time>2026-04-17T11:09:12.999Z</time></trkpt><trkpt lat="46.41684915766377" lon="11.191062432085275"><ele>1316.0</ele><time>2026-04-17T11:09:13.999Z</time></trkpt><trkpt lat="46.41674598304382" lon="11.191246656454283"><ele>1316.0</ele><time>2026-04-17T11:09:14.999Z</time></trkpt><trkpt lat="46.416661248727316" lon="11.191390899771957"><ele>1316.0</ele><time>2026-04-17T11:09:15.999Z</time></trkpt><trkpt lat="46.416605978892576" lon="11.191531971511505"><ele>1316.0</ele><time>2026-04-17T11:09:16.999Z</time></trkpt><trkpt lat="46.41657132873576" lon="11.191663068376592"><ele>1316.0</ele><time>2026-04-17T11:09:17.999Z</time></trkpt><trkpt lat="46.41656463564487" lon="11.191806845673886"><ele>1316.0</ele><time>2026-04-17T11:09:18.999Z</time></trkpt><trkpt lat="46.41657987427444" lon="11.191967781809096"><ele>1318.25</ele><time>2026-04-17T11:09:19.999Z</time></trkpt><trkpt lat="46.416607222071804" lon="11.192155715084786"><ele>1320.5</ele><time>2026-04-17T11:09:20.999Z</time></trkpt><trkpt lat="46.41663383959962" lon="11.192362306369013"><ele>1322.75</ele><time>2026-04-17T11:09:21.999Z</time></trkpt><trkpt lat="46.41664136599637" lon="11.192554684339827"><ele>1325.0</ele><time>2026-04-17T11:09:22.999Z</time></trkpt><trkpt lat="46.41665110851674" lon="11.192722532485279"><ele>1325.25</ele><time>2026-04-17T11:09:23.999Z</time></trkpt><trkpt lat="46.41669211194976" lon="11.192878609720504"><ele>1325.5</ele><time>2026-04-17T11:09:24.999Z</time></trkpt><trkpt lat="46.41675873823467" lon="11.193049173150015"><ele>1325.75</ele><time>2026-04-17T11:09:25.999Z</time></trkpt><trkpt lat="46.416848547252684" lon="11.193249849386547"><ele>1326.0</ele><time>2026-04-17T11:09:26.999Z</time></trkpt><trkpt lat="46.41695236659127" lon="11.19347962520862"><ele>1326.0</ele><time>2026-04-17T11:09:27.999Z</time></trkpt><trkpt lat="46.41705175348485" lon="11.193723089425001"><ele>1326.0</ele><time>2026-04-17T11:09:28.999Z</time></trkpt><trkpt lat="46.41714645133146" lon="11.193974581533938"><ele>1326.0</ele><time>2026-04-17T11:09:29.999Z</time></trkpt><trkpt lat="46.417236695022225" lon="11.194252306616459"><ele>1330.3333333333333</ele><time>2026-04-17T11:09:30.999Z</time></trkpt><trkpt lat="46.41730732955957" lon="11.19449852666665"><ele>1334.6666666666665</ele><time>2026-04-17T11:09:31.999Z</time></trkpt><trkpt lat="46.41736421394954" lon="11.194732269228362"><ele>1339.0</ele><time>2026-04-17T11:09:32.999Z</time></trkpt><trkpt lat="46.41742269797812" lon="11.194933630765892"><ele>1339.0</ele><time>2026-04-17T11:09:33.999Z</time></trkpt><trkpt lat="46.41750902648186" lon="11.195135029987037"><ele>1339.0</ele><time>2026-04-17T11:09:35Z</time></trkpt><trkpt lat="46.417633242882765" lon="11.195369021759321"><ele>1339.0</ele><time>2026-04-17T11:09:36Z</time></trkpt><trkpt lat="46.417758289091104" lon="11.19559497469131"><ele>1336.0</ele><time>2026-04-17T11:09:37Z</time></trkpt><trkpt lat="46.41787702986878" lon="11.195801877556745"><ele>1333.0</ele><time>2026-04-17T11:09:38Z</time></trkpt><trkpt lat="46.41800767216846" lon="11.196008170264774"><ele>1330.0</ele><time>2026-04-17T11:09:39Z</time></trkpt><trkpt lat="46.4181302552322" lon="11.196173324230392"><ele>1334.75</ele><time>2026-04-17T11:09:40Z</time></trkpt><trkpt lat="46.41823393678572" lon="11.19630196271648"><ele>1339.5</ele><time>2026-04-17T11:09:41Z</time></trkpt><trkpt lat="46.418315326977" lon="11.196460449633351"><ele>1344.25</ele><time>2026-04-17T11:09:42Z</time></trkpt><trkpt lat="46.4183688831828" lon="11.196691880637845"><ele>1349.0</ele><time>2026-04-17T11:09:43Z</time></trkpt><trkpt lat="46.41844809079875" lon="11.196923649154455"><ele>1349.0</ele><time>2026-04-17T11:09:44Z</time></trkpt><trkpt lat="46.41848194777792" lon="11.197122648300148"><ele>1349.0</ele><time>2026-04-17T11:09:45Z</time></trkpt><trkpt lat="46.418530972025415" lon="11.197259374142947"><ele>1349.0</ele><time>2026-04-17T11:09:46Z</time></trkpt><trkpt lat="46.418544920124276" lon="11.197402917246642"><ele>1349.0</ele><time>2026-04-17T11:09:47Z</time></trkpt><trkpt lat="46.41852771507722" lon="11.197560463079933"><ele>1347.6</ele><time>2026-04-17T11:09:48Z</time></trkpt><trkpt lat="46.41848519632212" lon="11.197703994446051"><ele>1346.2</ele><time>2026-04-17T11:09:49Z</time></trkpt><trkpt lat="46.41842698715941" lon="11.197825048989554"><ele>1344.8</ele><time>2026-04-17T11:09:50Z</time></trkpt><trkpt lat="46.418348943197174" lon="11.197920835294251"><ele>1343.3999999999999</ele><time>2026-04-17T11:09:51Z</time></trkpt><trkpt lat="46.41829500746267" lon="11.19805444569202"><ele>1342.0</ele><time>2026-04-17T11:09:52Z</time></trkpt><trkpt lat="46.418238631181694" lon="11.1981900130403"><ele>1342.0</ele><time>2026-04-17T11:09:53Z</time></trkpt><trkpt lat="46.41820997658988" lon="11.198324159580721"><ele>1342.0</ele><time>2026-04-17T11:09:54Z</time></trkpt><trkpt lat="46.41819124511863" lon="11.198458935415879"><ele>1342.0</ele><time>2026-04-17T11:09:55Z</time></trkpt><trkpt lat="46.4182335688276" lon="11.198607890169715"><ele>1342.0</ele><time>2026-04-17T11:09:56Z</time></trkpt><trkpt lat="46.41828862442872" lon="11.19878104948511"><ele>1342.0</ele><time>2026-04-17T11:09:57Z</time></trkpt><trkpt lat="46.41830922349151" lon="11.198961941927438"><ele>1342.25</ele><time>2026-04-17T11:09:58Z</time></trkpt><trkpt lat="46.41829973324191" lon="11.199123676463962"><ele>1342.5</ele><time>2026-04-17T11:09:59Z</time></trkpt><trkpt lat="46.41829112284584" lon="11.19932290238901"><ele>1342.75</ele><time>2026-04-17T11:10:00Z</time></trkpt><trkpt lat="46.418303643495946" lon="11.199506120587108"><ele>1343.0</ele><time>2026-04-17T11:10:01Z</time></trkpt><trkpt lat="46.418360734761166" lon="11.199675244426505"><ele>1344.0</ele><time>2026-04-17T11:10:02Z</time></trkpt><trkpt lat="46.41843508060806" lon="11.19986533149367"><ele>1345.0</ele><time>2026-04-17T11:10:03Z</time></trkpt><trkpt lat="46.41851774563325" lon="11.200057558236178"><ele>1346.0</ele><time>2026-04-17T11:10:04Z</time></trkpt><trkpt lat="46.41859257071201" lon="11.200279487032237"><ele>1346.0</ele><time>2026-04-17T11:10:05Z</time></trkpt><trkpt lat="46.4186231595365" lon="11.200564371677528"><ele>1346.0</ele><time>2026-04-17T11:10:06Z</time></trkpt><trkpt lat="46.4186667604125" lon="11.200840925469407"><ele>1346.0</ele><time>2026-04-17T11:10:07Z</time></trkpt><trkpt lat="46.41872859640509" lon="11.20107999052902"><ele>1346.25</ele><time>2026-04-17T11:10:08Z</time></trkpt><trkpt lat="46.41879383236905" lon="11.201315369653562"><ele>1346.5</ele><time>2026-04-17T11:10:09Z</time></trkpt><trkpt lat="46.41886388403179" lon="11.201505829306752"><ele>1346.75</ele><time>2026-04-17T11:10:10Z</time></trkpt><trkpt lat="46.41890768576312" lon="11.201659608635381"><ele>1347.0</ele><time>2026-04-17T11:10:11Z</time></trkpt><trkpt lat="46.418926527713296" lon="11.201828300655542"><ele>1347.0</ele><time>2026-04-17T11:10:12Z</time></trkpt><trkpt lat="46.41892739978386" lon="11.202024305752385"><ele>1347.0</ele><time>2026-04-17T11:10:13Z</time></trkpt><trkpt lat="46.418890271052334" lon="11.202212644865709"><ele>1347.0</ele><time>2026-04-17T11:10:14Z</time></trkpt><trkpt lat="46.4188306995407" lon="11.20240624159228"><ele>1347.0</ele><time>2026-04-17T11:10:15Z</time></trkpt><trkpt lat="46.41876358751681" lon="11.202630776969187"><ele>1347.0</ele><time>2026-04-17T11:10:16Z</time></trkpt><trkpt lat="46.41872790014223" lon="11.202861585742523"><ele>1347.0</ele><time>2026-04-17T11:10:17Z</time></trkpt><trkpt lat="46.418709946977025" lon="11.203090080847618"><ele>1347.0</ele><time>2026-04-17T11:10:18Z</time></trkpt><trkpt lat="46.41871467469122" lon="11.203296709545874"><ele>1348.75</ele><time>2026-04-17T11:10:19Z</time></trkpt><trkpt lat="46.41870644224735" lon="11.203476111008168"><ele>1350.5</ele><time>2026-04-17T11:10:20Z</time></trkpt><trkpt lat="46.41870004640237" lon="11.203646456150613"><ele>1352.25</ele><time>2026-04-17T11:10:21Z</time></trkpt><trkpt lat="46.41866576939077" lon="11.203810929397715"><ele>1354.0</ele><time>2026-04-17T11:10:22Z</time></trkpt><trkpt lat="46.418612985009275" lon="11.20397067888205"><ele>1356.0</ele><time>2026-04-17T11:10:23Z</time></trkpt><trkpt lat="46.418539614584674" lon="11.204128025383124"><ele>1358.0</ele><time>2026-04-17T11:10:24Z</time></trkpt><trkpt lat="46.41845308580122" lon="11.204287101578077"><ele>1360.0</ele><time>2026-04-17T11:10:25Z</time></trkpt><trkpt lat="46.41835011586032" lon="11.204480280653192"><ele>1362.0</ele><time>2026-04-17T11:10:26Z</time></trkpt><trkpt lat="46.4182525444191" lon="11.20467352847454"><ele>1364.0</ele><time>2026-04-17T11:10:27Z</time></trkpt><trkpt lat="46.418194044179" lon="11.204864970074642"><ele>1366.0</ele><time>2026-04-17T11:10:28Z</time></trkpt><trkpt lat="46.418128442410605" lon="11.205084459577238"><ele>1368.0</ele><time>2026-04-17T11:10:29Z</time></trkpt><trkpt lat="46.418042532802154" lon="11.20532063712781"><ele>1367.3333333333333</ele><time>2026-04-17T11:10:30Z</time></trkpt><trkpt lat="46.41797125595181" lon="11.205546927974783"><ele>1366.6666666666665</ele><time>2026-04-17T11:10:31Z</time></trkpt><trkpt lat="46.41788351628578" lon="11.205769170372294"><ele>1366.0</ele><time>2026-04-17T11:10:32Z</time></trkpt><trkpt lat="46.41779018587705" lon="11.205966634646924"><ele>1366.0</ele><time>2026-04-17T11:10:33Z</time></trkpt><trkpt lat="46.417688820741546" lon="11.206147834080287"><ele>1366.0</ele><time>2026-04-17T11:10:34Z</time></trkpt><trkpt lat="46.417576526688876" lon="11.206350518920857"><ele>1366.0</ele><time>2026-04-17T11:10:35Z</time></trkpt><trkpt lat="46.417484913219546" lon="11.206538991089474"><ele>1366.75</ele><time>2026-04-17T11:10:36Z</time></trkpt><trkpt lat="46.41739460023976" lon="11.206682476225756"><ele>1367.5</ele><time>2026-04-17T11:10:37Z</time></trkpt><trkpt lat="46.417304168362016" lon="11.206806750919355"><ele>1368.25</ele><time>2026-04-17T11:10:38Z</time></trkpt><trkpt lat="46.41720196670519" lon="11.206911427049079"><ele>1369.0</ele><time>2026-04-17T11:10:39Z</time></trkpt><trkpt lat="46.41711050368252" lon="11.206955278739244"><ele>1369.0</ele><time>2026-04-17T11:10:40Z</time></trkpt><trkpt lat="46.417035092357246" lon="11.207005817782871"><ele>1369.0</ele><time>2026-04-17T11:10:41Z</time></trkpt><trkpt lat="46.416959356461966" lon="11.207066881037202"><ele>1369.0</ele><time>2026-04-17T11:10:42Z</time></trkpt><trkpt lat="46.4168923167661" lon="11.207140892269129"><ele>1369.0</ele><time>2026-04-17T11:10:43Z</time></trkpt><trkpt lat="46.416834317941515" lon="11.207224167280478"><ele>1369.0</ele><time>2026-04-17T11:10:44Z</time></trkpt><trkpt lat="46.41678616084452" lon="11.207323099127652"><ele>1369.0</ele><time>2026-04-17T11:10:45Z</time></trkpt><trkpt lat="46.41674824913791" lon="11.207444867360755"><ele>1369.0</ele><time>2026-04-17T11:10:46Z</time></trkpt><trkpt lat="46.416718953560526" lon="11.207598949054395"><ele>1369.0</ele><time>2026-04-17T11:10:47Z</time></trkpt><trkpt lat="46.41670725751145" lon="11.207746536373568"><ele>1369.0</ele><time>2026-04-17T11:10:48Z</time></trkpt><trkpt lat="46.416716434423805" lon="11.20788153576772"><ele>1369.0</ele><time>2026-04-17T11:10:49Z</time></trkpt><trkpt lat="46.416736785129196" lon="11.20804544284927"><ele>1369.0</ele><time>2026-04-17T11:10:50Z</time></trkpt><trkpt lat="46.41676299559761" lon="11.208252285930193"><ele>1369.0</ele><time>2026-04-17T11:10:51Z</time></trkpt><trkpt lat="46.41676820975467" lon="11.208459083435262"><ele>1369.0</ele><time>2026-04-17T11:10:52Z</time></trkpt><trkpt lat="46.41680384602052" lon="11.208664378565828"><ele>1369.0</ele><time>2026-04-17T11:10:53Z</time></trkpt><trkpt lat="46.41686052492618" lon="11.20885192985642"><ele>1369.0</ele><time>2026-04-17T11:10:54Z</time></trkpt><trkpt lat="46.41693429965967" lon="11.209019127510832"><ele>1366.0</ele><time>2026-04-17T11:10:55Z</time></trkpt><trkpt lat="46.41700715876286" lon="11.209203140634127"><ele>1363.0</ele><time>2026-04-17T11:10:55.999Z</time></trkpt><trkpt lat="46.41708529562699" lon="11.209382385999302"><ele>1360.0</ele><time>2026-04-17T11:10:56.999Z</time></trkpt><trkpt lat="46.417190723055555" lon="11.209566820108638"><ele>1362.6666666666665</ele><time>2026-04-17T11:10:57.999Z</time></trkpt><trkpt lat="46.41730963271745" lon="11.209742763580426"><ele>1365.3333333333333</ele><time>2026-04-17T11:10:58.999Z</time></trkpt><trkpt lat="46.41744245102396" lon="11.209912761151829"><ele>1368.0</ele><time>2026-04-17T11:10:59.999Z</time></trkpt><trkpt lat="46.41756074246321" lon="11.210084936116965"><ele>1368.0</ele><time>2026-04-17T11:11:00.999Z</time></trkpt><trkpt lat="46.417650995058246" lon="11.210285519334496"><ele>1368.0</ele><time>2026-04-17T11:11:01.999Z</time></trkpt><trkpt lat="46.41774476799017" lon="11.210481052457034"><ele>1368.0</ele><time>2026-04-17T11:11:02.999Z</time></trkpt><trkpt lat="46.41785131263839" lon="11.210672960161709"><ele>1374.3333333333333</ele><time>2026-04-17T11:11:03.999Z</time></trkpt><trkpt lat="46.4179362440329" lon="11.210873656444022"><ele>1380.6666666666665</ele><time>2026-04-17T11:11:04.999Z</time></trkpt><trkpt lat="46.41800563846593" lon="11.211071511212264"><ele>1387.0</ele><time>2026-04-17T11:11:05.999Z</time></trkpt><trkpt lat="46.41803021826404" lon="11.21128114698824"><ele>1382.0</ele><time>2026-04-17T11:11:06.999Z</time></trkpt><trkpt lat="46.418058230784084" lon="11.211508043507012"><ele>1377.0</ele><time>2026-04-17T11:11:07.999Z</time></trkpt><trkpt lat="46.41809574932925" lon="11.211775567482603"><ele>1372.0</ele><time>2026-04-17T11:11:08.999Z</time></trkpt><trkpt lat="46.418111885903606" lon="11.212033927604821"><ele>1372.0</ele><time>2026-04-17T11:11:09.999Z</time></trkpt><trkpt lat="46.41813419566356" lon="11.21227609341875"><ele>1372.0</ele><time>2026-04-17T11:11:10.999Z</time></trkpt><trkpt lat="46.41817612749973" lon="11.212492147707101"><ele>1372.0</ele><time>2026-04-17T11:11:11.999Z</time></trkpt><trkpt lat="46.418223570511884" lon="11.212693815615843"><ele>1367.25</ele><time>2026-04-17T11:11:12.999Z</time></trkpt><trkpt lat="46.418278127368545" lon="11.212886962741763"><ele>1362.5</ele><time>2026-04-17T11:11:13.999Z</time></trkpt><trkpt lat="46.4183423645594" lon="11.213037006806314"><ele>1357.75</ele><time>2026-04-17T11:11:14.999Z</time></trkpt><trkpt lat="46.418404982138654" lon="11.213148500358633"><ele>1353.0</ele><time>2026-04-17T11:11:15.999Z</time></trkpt><trkpt lat="46.418480383807506" lon="11.213227656026941"><ele>1351.4</ele><time>2026-04-17T11:11:16.999Z</time></trkpt><trkpt lat="46.41856760894654" lon="11.213271500183444"><ele>1349.8000000000002</ele><time>2026-04-17T11:11:17.999Z</time></trkpt><trkpt lat="46.41866417570719" lon="11.21327909059096"><ele>1348.2</ele><time>2026-04-17T11:11:18.999Z</time></trkpt><trkpt lat="46.41875746314538" lon="11.213242826500181"><ele>1346.6</ele><time>2026-04-17T11:11:19.999Z</time></trkpt><trkpt lat="46.41881931214885" lon="11.213199588728124"><ele>1345.0</ele><time>2026-04-17T11:11:20.999Z</time></trkpt><trkpt lat="46.41892289304926" lon="11.213219564164817"><ele>1345.0</ele><time>2026-04-17T11:11:22.999Z</time></trkpt><trkpt lat="46.41891788700678" lon="11.213368613829369"><ele>1345.0</ele><time>2026-04-17T11:11:24.999Z</time></trkpt><trkpt lat="46.41885591775303" lon="11.213421283292147"><ele>1345.0</ele><time>2026-04-17T11:11:25.999Z</time></trkpt><trkpt lat="46.41876662988311" lon="11.213407352826138"><ele>1345.0</ele><time>2026-04-17T11:11:26.999Z</time></trkpt><trkpt lat="46.41865255105373" lon="11.21339627285919"><ele>1345.0</ele><time>2026-04-17T11:11:27.999Z</time></trkpt><trkpt lat="46.418554320938505" lon="11.21338366163957"><ele>1346.6</ele><time>2026-04-17T11:11:28.999Z</time></trkpt><trkpt lat="46.41844187721854" lon="11.213332540448379"><ele>1348.2</ele><time>2026-04-17T11:11:29.999Z</time></trkpt><trkpt lat="46.41833403557845" lon="11.213256303183776"><ele>1349.8000000000002</ele><time>2026-04-17T11:11:30.999Z</time></trkpt><trkpt lat="46.418248990690714" lon="11.21316446542927"><ele>1351.4</ele><time>2026-04-17T11:11:31.999Z</time></trkpt><trkpt lat="46.41818528353416" lon="11.21305152579964"><ele>1353.0</ele><time>2026-04-17T11:11:32.999Z</time></trkpt><trkpt lat="46.41813333916964" lon="11.212914662349668"><ele>1353.0</ele><time>2026-04-17T11:11:33.999Z</time></trkpt><trkpt lat="46.41809593633249" lon="11.21278610550727"><ele>1353.0</ele><time>2026-04-17T11:11:34.999Z</time></trkpt><trkpt lat="46.41806837436668" lon="11.212690171825518"><ele>1353.0</ele><time>2026-04-17T11:11:35.999Z</time></trkpt><trkpt lat="46.418010044729975" lon="11.212647821199695"><ele>1353.0</ele><time>2026-04-17T11:11:36.999Z</time></trkpt><trkpt lat="46.41793656187206" lon="11.212667895374024"><ele>1353.0</ele><time>2026-04-17T11:11:37.999Z</time></trkpt><trkpt lat="46.41788614861871" lon="11.212742106983951"><ele>1353.0</ele><time>2026-04-17T11:11:38.999Z</time></trkpt><trkpt lat="46.417872203713344" lon="11.212837261720537"><ele>1353.0</ele><time>2026-04-17T11:11:39.999Z</time></trkpt><trkpt lat="46.41789774820526" lon="11.212939224603714"><ele>1353.0</ele><time>2026-04-17T11:11:41Z</time></trkpt><trkpt lat="46.417957429008105" lon="11.21303526791133"><ele>1353.0</ele><time>2026-04-17T11:11:42Z</time></trkpt><trkpt lat="46.418044771929026" lon="11.213137606914637"><ele>1353.0</ele><time>2026-04-17T11:11:43Z</time></trkpt><trkpt lat="46.41813037410544" lon="11.213279457223711"><ele>1353.0</ele><time>2026-04-17T11:11:44Z</time></trkpt><trkpt lat="46.418210572672464" lon="11.213380185670175"><ele>1353.0</ele><time>2026-04-17T11:11:45Z</time></trkpt><trkpt lat="46.41826911801764" lon="11.213495518001805"><ele>1349.6000000000001</ele><time>2026-04-17T11:11:46Z</time></trkpt><trkpt lat="46.41834032659493" lon="11.213605820882274"><ele>1346.2</ele><time>2026-04-17T11:11:47Z</time></trkpt><trkpt lat="46.41840296023203" lon="11.213709728281827"><ele>1342.8</ele><time>2026-04-17T11:11:48Z</time></trkpt><trkpt lat="46.418425430285595" lon="11.213835137846301"><ele>1339.4</ele><time>2026-04-17T11:11:49Z</time></trkpt><trkpt lat="46.418409751872034" lon="11.213966810421528"><ele>1336.0</ele><time>2026-04-17T11:11:50Z</time></trkpt><trkpt lat="46.41835351792749" lon="11.21407950571696"><ele>1331.75</ele><time>2026-04-17T11:11:51Z</time></trkpt><trkpt lat="46.41824561770483" lon="11.214155319149816"><ele>1327.5</ele><time>2026-04-17T11:11:52Z</time></trkpt><trkpt lat="46.41813164613517" lon="11.21428432756155"><ele>1323.25</ele><time>2026-04-17T11:11:53Z</time></trkpt><trkpt lat="46.41800309783331" lon="11.214396300707431"><ele>1319.0</ele><time>2026-04-17T11:11:54Z</time></trkpt><trkpt lat="46.41791261538054" lon="11.214497165376317"><ele>1316.4</ele><time>2026-04-17T11:11:55Z</time></trkpt><trkpt lat="46.41782692377603" lon="11.214554145587394"><ele>1313.8000000000002</ele><time>2026-04-17T11:11:56Z</time></trkpt><trkpt lat="46.41772953883076" lon="11.214559841760973"><ele>1311.1999999999998</ele><time>2026-04-17T11:11:57Z</time></trkpt><trkpt lat="46.4176347938112" lon="11.214510528368073"><ele>1308.6</ele><time>2026-04-17T11:11:58Z</time></trkpt><trkpt lat="46.41756340097072" lon="11.214413585668103"><ele>1306.0</ele><time>2026-04-17T11:11:59Z</time></trkpt><trkpt lat="46.4175213283826" lon="11.214280038636396"><ele>1306.0</ele><time>2026-04-17T11:12:00Z</time></trkpt><trkpt lat="46.41750915352971" lon="11.214110234711754"><ele>1306.0</ele><time>2026-04-17T11:12:01Z</time></trkpt><trkpt lat="46.41752694801913" lon="11.213920529269643"><ele>1306.0</ele><time>2026-04-17T11:12:02Z</time></trkpt><trkpt lat="46.417557719440566" lon="11.213728779619622"><ele>1306.0</ele><time>2026-04-17T11:12:03Z</time></trkpt><trkpt lat="46.41757751237223" lon="11.213498689061701"><ele>1307.6666666666665</ele><time>2026-04-17T11:12:04Z</time></trkpt><trkpt lat="46.417568317540194" lon="11.213240398709047"><ele>1309.3333333333333</ele><time>2026-04-17T11:12:05Z</time></trkpt><trkpt lat="46.41753089932208" lon="11.212983755524057"><ele>1311.0</ele><time>2026-04-17T11:12:06Z</time></trkpt><trkpt lat="46.41750126026667" lon="11.21274479604584"><ele>1311.6666666666667</ele><time>2026-04-17T11:12:07Z</time></trkpt><trkpt lat="46.4174758122717" lon="11.212498176014863"><ele>1312.3333333333335</ele><time>2026-04-17T11:12:08Z</time></trkpt><trkpt lat="46.417435761000995" lon="11.212265648124792"><ele>1313.0</ele><time>2026-04-17T11:12:09Z</time></trkpt><trkpt lat="46.41737196132541" lon="11.212059652924522"><ele>1311.0</ele><time>2026-04-17T11:12:10Z</time></trkpt><trkpt lat="46.41728951481728" lon="11.21188812247441"><ele>1309.0</ele><time>2026-04-17T11:12:11Z</time></trkpt><trkpt lat="46.41719327764416" lon="11.21174737199234"><ele>1307.0</ele><time>2026-04-17T11:12:12Z</time></trkpt><trkpt lat="46.417081679566756" lon="11.211614513027484"><ele>1305.0</ele><time>2026-04-17T11:12:13Z</time></trkpt><trkpt lat="46.4169484751975" lon="11.211465780839045"><ele>1305.0</ele><time>2026-04-17T11:12:14Z</time></trkpt><trkpt lat="46.41680744563887" lon="11.211287390867565"><ele>1305.0</ele><time>2026-04-17T11:12:15Z</time></trkpt><trkpt lat="46.41667025747597" lon="11.211111623624443"><ele>1305.0</ele><time>2026-04-17T11:12:16Z</time></trkpt><trkpt lat="46.416525123035875" lon="11.210928932801323"><ele>1305.0</ele><time>2026-04-17T11:12:17Z</time></trkpt><trkpt lat="46.41641584140674" lon="11.210759411424823"><ele>1305.0</ele><time>2026-04-17T11:12:18Z</time></trkpt><trkpt lat="46.41630843911791" lon="11.21063160368427"><ele>1305.0</ele><time>2026-04-17T11:12:19Z</time></trkpt><trkpt lat="46.41618751126458" lon="11.21054496580093"><ele>1305.0</ele><time>2026-04-17T11:12:20Z</time></trkpt><trkpt lat="46.416055251854864" lon="11.210479048221343"><ele>1310.6</ele><time>2026-04-17T11:12:21Z</time></trkpt><trkpt lat="46.41594468392483" lon="11.210421592580806"><ele>1316.2</ele><time>2026-04-17T11:12:22Z</time></trkpt><trkpt lat="46.415859227742686" lon="11.210375570207852"><ele>1321.8000000000002</ele><time>2026-04-17T11:12:23Z</time></trkpt><trkpt lat="46.41578797742301" lon="11.210371208398852"><ele>1327.4</ele><time>2026-04-17T11:12:24Z</time></trkpt><trkpt lat="46.4157239598897" lon="11.21040799327307"><ele>1333.0</ele><time>2026-04-17T11:12:25Z</time></trkpt><trkpt lat="46.415679777432224" lon="11.210561220562466"><ele>1333.0</ele><time>2026-04-17T11:12:27Z</time></trkpt><trkpt lat="46.4157142287323" lon="11.21065545035722"><ele>1333.0</ele><time>2026-04-17T11:12:28Z</time></trkpt><trkpt lat="46.41578786141154" lon="11.21069365642005"><ele>1333.0</ele><time>2026-04-17T11:12:29Z</time></trkpt><trkpt lat="46.41585368825449" lon="11.210699009571544"><ele>1333.0</ele><time>2026-04-17T11:12:30Z</time></trkpt><trkpt lat="46.41591993630071" lon="11.210678125768998"><ele>1333.0</ele><time>2026-04-17T11:12:31Z</time></trkpt><trkpt lat="46.416035137068704" lon="11.210677446157632"><ele>1333.0</ele><time>2026-04-17T11:12:33Z</time></trkpt><trkpt lat="46.416133030709254" lon="11.210730285299414"><ele>1327.4</ele><time>2026-04-17T11:12:35Z</time></trkpt><trkpt lat="46.41623389637956" lon="11.210831215115718"><ele>1321.8000000000002</ele><time>2026-04-17T11:12:37Z</time></trkpt><trkpt lat="46.416289188779665" lon="11.210902505597003"><ele>1316.2</ele><time>2026-04-17T11:12:38Z</time></trkpt><trkpt lat="46.416328798375766" lon="11.211014430992993"><ele>1310.6</ele><time>2026-04-17T11:12:39Z</time></trkpt><trkpt lat="46.416338694054595" lon="11.211159662880894"><ele>1305.0</ele><time>2026-04-17T11:12:40Z</time></trkpt><trkpt lat="46.416369955403304" lon="11.211292020441189"><ele>1305.0</ele><time>2026-04-17T11:12:41Z</time></trkpt><trkpt lat="46.41641503963614" lon="11.211413664375746"><ele>1305.0</ele><time>2026-04-17T11:12:42Z</time></trkpt><trkpt lat="46.41646778831264" lon="11.211574415511718"><ele>1305.0</ele><time>2026-04-17T11:12:43Z</time></trkpt><trkpt lat="46.41654121413407" lon="11.21175014158664"><ele>1305.0</ele><time>2026-04-17T11:12:44Z</time></trkpt><trkpt lat="46.41660313825298" lon="11.211940942414843"><ele>1301.4</ele><time>2026-04-17T11:12:45Z</time></trkpt><trkpt lat="46.416683891570976" lon="11.2121019054744"><ele>1297.8</ele><time>2026-04-17T11:12:46Z</time></trkpt><trkpt lat="46.41674839610075" lon="11.212227421047947"><ele>1294.1999999999998</ele><time>2026-04-17T11:12:47Z</time></trkpt><trkpt lat="46.41680425091726" lon="11.21230293168711"><ele>1290.6</ele><time>2026-04-17T11:12:48Z</time></trkpt><trkpt lat="46.416819600978975" lon="11.21244203694962"><ele>1287.0</ele><time>2026-04-17T11:12:50Z</time></trkpt><trkpt lat="46.416715193782544" lon="11.212501814778319"><ele>1287.0</ele><time>2026-04-17T11:12:51.999Z</time></trkpt><trkpt lat="46.416662335154186" lon="11.212438123427168"><ele>1287.0</ele><time>2026-04-17T11:12:52.999Z</time></trkpt><trkpt lat="46.41662708516059" lon="11.212331111878177"><ele>1287.0</ele><time>2026-04-17T11:12:53.999Z</time></trkpt><trkpt lat="46.41658986863904" lon="11.212194431344994"><ele>1287.0</ele><time>2026-04-17T11:12:54.999Z</time></trkpt><trkpt lat="46.416524337355796" lon="11.212026767357631"><ele>1287.0</ele><time>2026-04-17T11:12:55.999Z</time></trkpt><trkpt lat="46.416441452602456" lon="11.211856081986596"><ele>1287.0</ele><time>2026-04-17T11:12:56.999Z</time></trkpt><trkpt lat="46.41635176861472" lon="11.21167844907872"><ele>1287.0</ele><time>2026-04-17T11:12:57.999Z</time></trkpt><trkpt lat="46.416288717254886" lon="11.21149331263061"><ele>1287.0</ele><time>2026-04-17T11:12:58.999Z</time></trkpt><trkpt lat="46.41624467206569" lon="11.211312060318678"><ele>1287.0</ele><time>2026-04-17T11:12:59.999Z</time></trkpt><trkpt lat="46.416218369212714" lon="11.21116392251386"><ele>1287.5</ele><time>2026-04-17T11:13:00.999Z</time></trkpt><trkpt lat="46.416196586295555" lon="11.21106490482532"><ele>1288.0</ele><time>2026-04-17T11:13:01.999Z</time></trkpt><trkpt lat="46.4161441181697" lon="11.211005249993692"><ele>1288.5</ele><time>2026-04-17T11:13:02.999Z</time></trkpt><trkpt lat="46.41607967705566" lon="11.21098329994729"><ele>1289.0</ele><time>2026-04-17T11:13:03.999Z</time></trkpt><trkpt lat="46.41602002630869" lon="11.211022595962548"><ele>1289.5</ele><time>2026-04-17T11:13:04.999Z</time></trkpt><trkpt lat="46.415969524639216" lon="11.211198943142389"><ele>1290.0</ele><time>2026-04-17T11:13:06.999Z</time></trkpt><trkpt lat="46.41601039557806" lon="11.211279200011347"><ele>1290.0</ele><time>2026-04-17T11:13:07.999Z</time></trkpt><trkpt lat="46.41608101033642" lon="11.211400065317779"><ele>1290.0</ele><time>2026-04-17T11:13:09.999Z</time></trkpt><trkpt lat="46.41616713918197" lon="11.211530363216234"><ele>1290.0</ele><time>2026-04-17T11:13:11.999Z</time></trkpt><trkpt lat="46.4161973421859" lon="11.211638600110591"><ele>1290.0</ele><time>2026-04-17T11:13:12.999Z</time></trkpt><trkpt lat="46.416219895658166" lon="11.211760398134821"><ele>1290.0</ele><time>2026-04-17T11:13:13.999Z</time></trkpt><trkpt lat="46.41624418038266" lon="11.211890644858583"><ele>1289.25</ele><time>2026-04-17T11:13:14.999Z</time></trkpt><trkpt lat="46.41628494610443" lon="11.212029852043818"><ele>1288.5</ele><time>2026-04-17T11:13:15.999Z</time></trkpt><trkpt lat="46.416326997926575" lon="11.212183139931508"><ele>1287.75</ele><time>2026-04-17T11:13:16.999Z</time></trkpt><trkpt lat="46.41637434099962" lon="11.212363003406494"><ele>1287.0</ele><time>2026-04-17T11:13:17.999Z</time></trkpt><trkpt lat="46.41641188716416" lon="11.212553477385903"><ele>1283.3333333333333</ele><time>2026-04-17T11:13:18.999Z</time></trkpt><trkpt lat="46.416443212082" lon="11.212783789053695"><ele>1279.6666666666665</ele><time>2026-04-17T11:13:19.999Z</time></trkpt><trkpt lat="46.41646423422747" lon="11.213037028282846"><ele>1276.0</ele><time>2026-04-17T11:13:20.999Z</time></trkpt><trkpt lat="46.41648290700777" lon="11.213273434416008"><ele>1272.5</ele><time>2026-04-17T11:13:21.999Z</time></trkpt><trkpt lat="46.41650390181767" lon="11.21349287399249"><ele>1269.0</ele><time>2026-04-17T11:13:22.999Z</time></trkpt><trkpt lat="46.41653679445584" lon="11.21370521136194"><ele>1265.5</ele><time>2026-04-17T11:13:23.999Z</time></trkpt><trkpt lat="46.41657291017365" lon="11.213894465379793"><ele>1262.0</ele><time>2026-04-17T11:13:24.999Z</time></trkpt><trkpt lat="46.41662236827897" lon="11.214053648024631"><ele>1260.0</ele><time>2026-04-17T11:13:25.999Z</time></trkpt><trkpt lat="46.416644746625884" lon="11.21413958348616"><ele>1258.0</ele><time>2026-04-17T11:13:26.999Z</time></trkpt><trkpt lat="46.41667332306614" lon="11.214231571915672"><ele>1256.0</ele><time>2026-04-17T11:13:27.999Z</time></trkpt><trkpt lat="46.41667519085355" lon="11.214365788945557"><ele>1254.0</ele><time>2026-04-17T11:13:29.999Z</time></trkpt><trkpt lat="46.416573105297424" lon="11.214361939098211"><ele>1252.0</ele><time>2026-04-17T11:13:31.999Z</time></trkpt><trkpt lat="46.41653997297981" lon="11.214283353841218"><ele>1250.0</ele><time>2026-04-17T11:13:32.999Z</time></trkpt><trkpt lat="46.41653266383777" lon="11.214152948366136"><ele>1250.0</ele><time>2026-04-17T11:13:33.999Z</time></trkpt><trkpt lat="46.4165107108961" lon="11.21399755332367"><ele>1250.0</ele><time>2026-04-17T11:13:34.999Z</time></trkpt><trkpt lat="46.41647040732201" lon="11.213820266222244"><ele>1250.0</ele><time>2026-04-17T11:13:35.999Z</time></trkpt><trkpt lat="46.41642464385245" lon="11.213626689294383"><ele>1250.0</ele><time>2026-04-17T11:13:36.999Z</time></trkpt><trkpt lat="46.41638170047165" lon="11.21344458746728"><ele>1253.0</ele><time>2026-04-17T11:13:37.999Z</time></trkpt><trkpt lat="46.416341772868634" lon="11.21325608323"><ele>1256.0</ele><time>2026-04-17T11:13:38.999Z</time></trkpt><trkpt lat="46.416293162556734" lon="11.21304898041706"><ele>1259.0</ele><time>2026-04-17T11:13:39.999Z</time></trkpt><trkpt lat="46.41624779162477" lon="11.212841438749617"><ele>1262.0</ele><time>2026-04-17T11:13:40.999Z</time></trkpt><trkpt lat="46.41622552885212" lon="11.212648427440374"><ele>1261.6</ele><time>2026-04-17T11:13:41.999Z</time></trkpt><trkpt lat="46.416215522464874" lon="11.212497745673053"><ele>1261.2</ele><time>2026-04-17T11:13:42.999Z</time></trkpt><trkpt lat="46.41620683610904" lon="11.21239328520778"><ele>1260.8</ele><time>2026-04-17T11:13:43.999Z</time></trkpt><trkpt lat="46.416112668067974" lon="11.212291801194048"><ele>1260.4</ele><time>2026-04-17T11:13:45.999Z</time></trkpt><trkpt lat="46.41605016419677" lon="11.212308884967127"><ele>1260.0</ele><time>2026-04-17T11:13:47Z</time></trkpt><trkpt lat="46.41596978349964" lon="11.212435871364441"><ele>1256.0</ele><time>2026-04-17T11:13:49Z</time></trkpt><trkpt lat="46.41597225405852" lon="11.21253837560709"><ele>1252.0</ele><time>2026-04-17T11:13:50Z</time></trkpt><trkpt lat="46.41602720268965" lon="11.212643383104854"><ele>1248.0</ele><time>2026-04-17T11:13:51Z</time></trkpt><trkpt lat="46.41608236120484" lon="11.212748261844263"><ele>1244.0</ele><time>2026-04-17T11:13:52Z</time></trkpt><trkpt lat="46.41611251328096" lon="11.212864541026958"><ele>1240.0</ele><time>2026-04-17T11:13:53Z</time></trkpt><trkpt lat="46.416134901815205" lon="11.212973477467107"><ele>1236.0</ele><time>2026-04-17T11:13:54Z</time></trkpt><trkpt lat="46.41616825415729" lon="11.213090669594084"><ele>1230.5</ele><time>2026-04-17T11:13:55Z</time></trkpt><trkpt lat="46.4161774116019" lon="11.213254795020767"><ele>1225.0</ele><time>2026-04-17T11:13:56Z</time></trkpt><trkpt lat="46.41618991765203" lon="11.21346999675144"><ele>1219.5</ele><time>2026-04-17T11:13:57Z</time></trkpt><trkpt lat="46.41620344287714" lon="11.213689548788148"><ele>1214.0</ele><time>2026-04-17T11:13:58Z</time></trkpt><trkpt lat="46.41622851487392" lon="11.21393620326337"><ele>1206.3333333333335</ele><time>2026-04-17T11:13:59Z</time></trkpt><trkpt lat="46.416265565477566" lon="11.214208699493994"><ele>1198.6666666666667</ele><time>2026-04-17T11:14:00Z</time></trkpt><trkpt lat="46.41629400538229" lon="11.214460598561244"><ele>1191.0</ele><time>2026-04-17T11:14:01Z</time></trkpt><trkpt lat="46.41631083885107" lon="11.214699914518228"><ele>1202.75</ele><time>2026-04-17T11:14:02Z</time></trkpt><trkpt lat="46.41633277640941" lon="11.214935175153519"><ele>1214.5</ele><time>2026-04-17T11:14:03Z</time></trkpt><trkpt lat="46.41633288995952" lon="11.21512183203907"><ele>1226.25</ele><time>2026-04-17T11:14:04Z</time></trkpt><trkpt lat="46.416338878390306" lon="11.215275074855104"><ele>1238.0</ele><time>2026-04-17T11:14:05Z</time></trkpt><trkpt lat="46.41637448630713" lon="11.215401105093665"><ele>1238.0</ele><time>2026-04-17T11:14:06Z</time></trkpt><trkpt lat="46.41641418890621" lon="11.215520406712594"><ele>1238.0</ele><time>2026-04-17T11:14:07Z</time></trkpt><trkpt lat="46.416525494805036" lon="11.215587355568061"><ele>1238.0</ele><time>2026-04-17T11:14:08Z</time></trkpt><trkpt lat="46.41666331122976" lon="11.215647632889217"><ele>1238.0</ele><time>2026-04-17T11:14:09Z</time></trkpt><trkpt lat="46.41682041502145" lon="11.21573593336658"><ele>1234.3333333333335</ele><time>2026-04-17T11:14:10Z</time></trkpt><trkpt lat="46.416967252525794" lon="11.215823217279716"><ele>1230.6666666666667</ele><time>2026-04-17T11:14:11Z</time></trkpt><trkpt lat="46.41708892738414" lon="11.215925923888435"><ele>1227.0</ele><time>2026-04-17T11:14:12Z</time></trkpt><trkpt lat="46.41723861863202" lon="11.216016962063007"><ele>1227.0</ele><time>2026-04-17T11:14:13Z</time></trkpt><trkpt lat="46.41735991971654" lon="11.216080685676275"><ele>1227.0</ele><time>2026-04-17T11:14:14Z</time></trkpt><trkpt lat="46.41746440275935" lon="11.216102534180976"><ele>1227.0</ele><time>2026-04-17T11:14:15Z</time></trkpt><trkpt lat="46.417556148819216" lon="11.216138558172643"><ele>1227.0</ele><time>2026-04-17T11:14:16Z</time></trkpt><trkpt lat="46.41762266225525" lon="11.216157514481969"><ele>1227.0</ele><time>2026-04-17T11:14:17Z</time></trkpt><trkpt lat="46.41769953308473" lon="11.216224645470355"><ele>1227.0</ele><time>2026-04-17T11:14:19Z</time></trkpt><trkpt lat="46.417617623644915" lon="11.216339449647213"><ele>1227.0</ele><time>2026-04-17T11:14:21Z</time></trkpt><trkpt lat="46.41753834249547" lon="11.21631661145118"><ele>1227.0</ele><time>2026-04-17T11:14:22Z</time></trkpt><trkpt lat="46.41744559128812" lon="11.216233162102155"><ele>1227.0</ele><time>2026-04-17T11:14:23Z</time></trkpt><trkpt lat="46.41734700495306" lon="11.216156211570278"><ele>1227.0</ele><time>2026-04-17T11:14:24Z</time></trkpt><trkpt lat="46.41722996582802" lon="11.216085241335495"><ele>1221.5</ele><time>2026-04-17T11:14:25Z</time></trkpt><trkpt lat="46.41709193721741" lon="11.21602585892346"><ele>1216.0</ele><time>2026-04-17T11:14:26Z</time></trkpt><trkpt lat="46.41694617195995" lon="11.215987657792843"><ele>1210.5</ele><time>2026-04-17T11:14:27Z</time></trkpt><trkpt lat="46.416792588314856" lon="11.215962311753275"><ele>1205.0</ele><time>2026-04-17T11:14:28Z</time></trkpt><trkpt lat="46.41665117765698" lon="11.215931045430194"><ele>1205.0</ele><time>2026-04-17T11:14:29Z</time></trkpt><trkpt lat="46.416525797739084" lon="11.215888134059586"><ele>1205.0</ele><time>2026-04-17T11:14:30Z</time></trkpt><trkpt lat="46.41642910435958" lon="11.215840214658698"><ele>1205.0</ele><time>2026-04-17T11:14:31Z</time></trkpt><trkpt lat="46.416352871432075" lon="11.215777716781176"><ele>1205.0</ele><time>2026-04-17T11:14:32Z</time></trkpt><trkpt lat="46.41628711073095" lon="11.215716348303948"><ele>1205.0</ele><time>2026-04-17T11:14:33Z</time></trkpt><trkpt lat="46.41621894987142" lon="11.21569268102674"><ele>1205.0</ele><time>2026-04-17T11:14:34Z</time></trkpt><trkpt lat="46.41615713557563" lon="11.215737534432138"><ele>1205.0</ele><time>2026-04-17T11:14:35Z</time></trkpt><trkpt lat="46.41611884690447" lon="11.215828789303801"><ele>1205.0</ele><time>2026-04-17T11:14:36Z</time></trkpt><trkpt lat="46.41612588898005" lon="11.215936927246526"><ele>1205.0</ele><time>2026-04-17T11:14:37Z</time></trkpt><trkpt lat="46.416155887518904" lon="11.216023224292165"><ele>1205.0</ele><time>2026-04-17T11:14:38Z</time></trkpt><trkpt lat="46.416235591655656" lon="11.216084303371167"><ele>1205.0</ele><time>2026-04-17T11:14:40Z</time></trkpt><trkpt lat="46.41632938523318" lon="11.216031383013304"><ele>1205.0</ele><time>2026-04-17T11:14:43Z</time></trkpt><trkpt lat="46.41639681608209" lon="11.21603395935658"><ele>1205.0</ele><time>2026-04-17T11:14:44Z</time></trkpt><trkpt lat="46.4165062665336" lon="11.21606139148311"><ele>1205.0</ele><time>2026-04-17T11:14:45Z</time></trkpt><trkpt lat="46.41662975678729" lon="11.216091535573055"><ele>1205.0</ele><time>2026-04-17T11:14:46Z</time></trkpt><trkpt lat="46.41675632407315" lon="11.216150176080909"><ele>1205.0</ele><time>2026-04-17T11:14:47Z</time></trkpt><trkpt lat="46.41690262726114" lon="11.216217602735249"><ele>1205.0</ele><time>2026-04-17T11:14:48Z</time></trkpt><trkpt lat="46.41705352545011" lon="11.216273154673898"><ele>1205.0</ele><time>2026-04-17T11:14:49Z</time></trkpt><trkpt lat="46.41718869302776" lon="11.216330331785421"><ele>1205.0</ele><time>2026-04-17T11:14:50Z</time></trkpt><trkpt lat="46.41729025511681" lon="11.216445567028698"><ele>1205.0</ele><time>2026-04-17T11:14:50.999Z</time></trkpt><trkpt lat="46.41738946504016" lon="11.21655403707392"><ele>1199.5</ele><time>2026-04-17T11:14:51.999Z</time></trkpt><trkpt lat="46.417504219269986" lon="11.216611310620808"><ele>1194.0</ele><time>2026-04-17T11:14:52.999Z</time></trkpt><trkpt lat="46.41761989370569" lon="11.216670874979302"><ele>1188.5</ele><time>2026-04-17T11:14:53.999Z</time></trkpt><trkpt lat="46.41775453607246" lon="11.216686843150297"><ele>1183.0</ele><time>2026-04-17T11:14:54.999Z</time></trkpt><trkpt lat="46.41789378630211" lon="11.216667499731683"><ele>1180.75</ele><time>2026-04-17T11:14:55.999Z</time></trkpt><trkpt lat="46.4180618031886" lon="11.216666756805836"><ele>1178.5</ele><time>2026-04-17T11:14:56.999Z</time></trkpt><trkpt lat="46.418179220097564" lon="11.216649311789114"><ele>1176.25</ele><time>2026-04-17T11:14:57.999Z</time></trkpt><trkpt lat="46.41827588095453" lon="11.216614068052431"><ele>1174.0</ele><time>2026-04-17T11:14:58.999Z</time></trkpt><trkpt lat="46.41836152676392" lon="11.216538899912086"><ele>1186.25</ele><time>2026-04-17T11:14:59.999Z</time></trkpt><trkpt lat="46.41843974282596" lon="11.216430035221"><ele>1198.5</ele><time>2026-04-17T11:15:00.999Z</time></trkpt><trkpt lat="46.41850968952973" lon="11.216321459869407"><ele>1210.75</ele><time>2026-04-17T11:15:01.999Z</time></trkpt><trkpt lat="46.4186190205378" lon="11.216243430390193"><ele>1223.0</ele><time>2026-04-17T11:15:02.999Z</time></trkpt><trkpt lat="46.41874263411346" lon="11.216143015604604"><ele>1207.0</ele><time>2026-04-17T11:15:03.999Z</time></trkpt><trkpt lat="46.41888161617795" lon="11.216012942693684"><ele>1191.0</ele><time>2026-04-17T11:15:04.999Z</time></trkpt><trkpt lat="46.41903372758962" lon="11.215923643865642"><ele>1175.0</ele><time>2026-04-17T11:15:05.999Z</time></trkpt><trkpt lat="46.419157113720985" lon="11.21583485084708"><ele>1175.0</ele><time>2026-04-17T11:15:06.999Z</time></trkpt><trkpt lat="46.419249228504434" lon="11.215776110454001"><ele>1175.0</ele><time>2026-04-17T11:15:07.999Z</time></trkpt><trkpt lat="46.41931278979107" lon="11.215732102151875"><ele>1175.0</ele><time>2026-04-17T11:15:08.999Z</time></trkpt><trkpt lat="46.419383942364966" lon="11.215637482539687"><ele>1175.0</ele><time>2026-04-17T11:15:10.999Z</time></trkpt><trkpt lat="46.419437866290174" lon="11.215580393388775"><ele>1175.0</ele><time>2026-04-17T11:15:13.999Z</time></trkpt><trkpt lat="46.4193606403661" lon="11.215576389925891"><ele>1175.0</ele><time>2026-04-17T11:15:30.999Z</time></trkpt><trkpt lat="46.419289139343554" lon="11.215674731499892"><ele>1175.0</ele><time>2026-04-17T11:15:32.999Z</time></trkpt><trkpt lat="46.419201151317125" lon="11.215743026742205"><ele>1175.0</ele><time>2026-04-17T11:15:34.999Z</time></trkpt><trkpt lat="46.41910999194722" lon="11.215809758952958"><ele>1175.0</ele><time>2026-04-17T11:15:36.999Z</time></trkpt><trkpt lat="46.41901602047153" lon="11.215893292391756"><ele>1175.0</ele><time>2026-04-17T11:15:38.999Z</time></trkpt><trkpt lat="46.41892679958257" lon="11.215952654969996"><ele>1175.0</ele><time>2026-04-17T11:15:40.999Z</time></trkpt><trkpt lat="46.41884881996317" lon="11.216015093642547"><ele>1184.6</ele><time>2026-04-17T11:15:42.999Z</time></trkpt><trkpt lat="46.41875446144483" lon="11.216083628587175"><ele>1194.2</ele><time>2026-04-17T11:15:44.999Z</time></trkpt><trkpt lat="46.41865725588572" lon="11.216163132716941"><ele>1203.8</ele><time>2026-04-17T11:15:46.999Z</time></trkpt><trkpt lat="46.41855238595759" lon="11.216241176490975"><ele>1213.4</ele><time>2026-04-17T11:15:48.999Z</time></trkpt><trkpt lat="46.418497231127034" lon="11.216291391095629"><ele>1223.0</ele><time>2026-04-17T11:15:49.999Z</time></trkpt><trkpt lat="46.41840062722583" lon="11.216413016524893"><ele>1215.0</ele><time>2026-04-17T11:15:51.999Z</time></trkpt><trkpt lat="46.418305699057306" lon="11.216540962624114"><ele>1207.0</ele><time>2026-04-17T11:15:54Z</time></trkpt><trkpt lat="46.41825272242853" lon="11.216592390542582"><ele>1199.0</ele><time>2026-04-17T11:15:55Z</time></trkpt><trkpt lat="46.418193177269764" lon="11.216625204097234"><ele>1191.0</ele><time>2026-04-17T11:15:56Z</time></trkpt><trkpt lat="46.41806085177055" lon="11.216630536779014"><ele>1183.0</ele><time>2026-04-17T11:15:58Z</time></trkpt><trkpt lat="46.417981299949226" lon="11.216637965247118"><ele>1183.0</ele><time>2026-04-17T11:15:59Z</time></trkpt><trkpt lat="46.4179169855696" lon="11.216637034560804"><ele>1183.0</ele><time>2026-04-17T11:16:00Z</time></trkpt><trkpt lat="46.417836186044696" lon="11.216644029315136"><ele>1183.0</ele><time>2026-04-17T11:16:01Z</time></trkpt><trkpt lat="46.41773416921122" lon="11.216649659308677"><ele>1183.0</ele><time>2026-04-17T11:16:02Z</time></trkpt><trkpt lat="46.41764677505347" lon="11.216639754302713"><ele>1183.0</ele><time>2026-04-17T11:16:03Z</time></trkpt><trkpt lat="46.417545785691786" lon="11.216618174287184"><ele>1183.0</ele><time>2026-04-17T11:16:04Z</time></trkpt><trkpt lat="46.41744637967268" lon="11.216543702579584"><ele>1183.0</ele><time>2026-04-17T11:16:05Z</time></trkpt><trkpt lat="46.41734728188813" lon="11.216490090869073"><ele>1183.0</ele><time>2026-04-17T11:16:06Z</time></trkpt><trkpt lat="46.417278830186476" lon="11.216376587416601"><ele>1183.0</ele><time>2026-04-17T11:16:07Z</time></trkpt><trkpt lat="46.41719168034241" lon="11.216302943543093"><ele>1183.0</ele><time>2026-04-17T11:16:08Z</time></trkpt><trkpt lat="46.41707598341791" lon="11.216246527903976"><ele>1183.0</ele><time>2026-04-17T11:16:09Z</time></trkpt><trkpt lat="46.41691706517918" lon="11.216187954333055"><ele>1188.5</ele><time>2026-04-17T11:16:10Z</time></trkpt><trkpt lat="46.41675269049194" lon="11.216128414193655"><ele>1194.0</ele><time>2026-04-17T11:16:11Z</time></trkpt><trkpt lat="46.416620480655936" lon="11.2160785163552"><ele>1199.5</ele><time>2026-04-17T11:16:12Z</time></trkpt><trkpt lat="46.416493149863655" lon="11.216028302094179"><ele>1205.0</ele><time>2026-04-17T11:16:13Z</time></trkpt><trkpt lat="46.416381539472916" lon="11.215992630767438"><ele>1205.0</ele><time>2026-04-17T11:16:14Z</time></trkpt><trkpt lat="46.41629477183708" lon="11.216006818831437"><ele>1205.0</ele><time>2026-04-17T11:16:15Z</time></trkpt><trkpt lat="46.41623247521812" lon="11.216023422983499"><ele>1205.0</ele><time>2026-04-17T11:16:16Z</time></trkpt><trkpt lat="46.4161648736516" lon="11.215912130842625"><ele>1205.0</ele><time>2026-04-17T11:16:18Z</time></trkpt><trkpt lat="46.416230407387964" lon="11.215778361432402"><ele>1205.0</ele><time>2026-04-17T11:16:20Z</time></trkpt><trkpt lat="46.4163071384161" lon="11.215806540770547"><ele>1205.0</ele><time>2026-04-17T11:16:21Z</time></trkpt><trkpt lat="46.416380862240885" lon="11.215869966925322"><ele>1205.0</ele><time>2026-04-17T11:16:22Z</time></trkpt><trkpt lat="46.41647756090644" lon="11.21593086520968"><ele>1205.0</ele><time>2026-04-17T11:16:23Z</time></trkpt><trkpt lat="46.416572792929124" lon="11.215976768396633"><ele>1205.0</ele><time>2026-04-17T11:16:24Z</time></trkpt><trkpt lat="46.416702947144806" lon="11.2160061720802"><ele>1205.0</ele><time>2026-04-17T11:16:25Z</time></trkpt><trkpt lat="46.4168538393808" lon="11.216030972677045"><ele>1205.0</ele><time>2026-04-17T11:16:26Z</time></trkpt><trkpt lat="46.417009575095484" lon="11.21604864513786"><ele>1205.0</ele><time>2026-04-17T11:16:27Z</time></trkpt><trkpt lat="46.41717248132895" lon="11.216104097195787"><ele>1205.0</ele><time>2026-04-17T11:16:28Z</time></trkpt><trkpt lat="46.41730885184587" lon="11.216171059440862"><ele>1209.4</ele><time>2026-04-17T11:16:29Z</time></trkpt><trkpt lat="46.41743049795684" lon="11.216257281752975"><ele>1213.8</ele><time>2026-04-17T11:16:30Z</time></trkpt><trkpt lat="46.41752564058269" lon="11.216356421800272"><ele>1218.2</ele><time>2026-04-17T11:16:31Z</time></trkpt><trkpt lat="46.4175905586009" lon="11.216434473310791"><ele>1222.6</ele><time>2026-04-17T11:16:32Z</time></trkpt><trkpt lat="46.417658144371885" lon="11.216441225463338"><ele>1227.0</ele><time>2026-04-17T11:16:33Z</time></trkpt><trkpt lat="46.417721725152965" lon="11.216378132498152"><ele>1227.0</ele><time>2026-04-17T11:16:34Z</time></trkpt><trkpt lat="46.417747369544934" lon="11.216264487008583"><ele>1227.0</ele><time>2026-04-17T11:16:35Z</time></trkpt><trkpt lat="46.417724672553256" lon="11.216144470301671"><ele>1227.0</ele><time>2026-04-17T11:16:36Z</time></trkpt><trkpt lat="46.417652256784756" lon="11.216064190701998"><ele>1227.0</ele><time>2026-04-17T11:16:37Z</time></trkpt><trkpt lat="46.41755390135244" lon="11.216041067321129"><ele>1227.0</ele><time>2026-04-17T11:16:38Z</time></trkpt><trkpt lat="46.417430502265134" lon="11.216055028198197"><ele>1227.0</ele><time>2026-04-17T11:16:39Z</time></trkpt><trkpt lat="46.417290502203585" lon="11.216026217174873"><ele>1227.0</ele><time>2026-04-17T11:16:40Z</time></trkpt><trkpt lat="46.41713817018256" lon="11.215907124417617"><ele>1227.0</ele><time>2026-04-17T11:16:41Z</time></trkpt><trkpt lat="46.416966830668514" lon="11.21579254352059"><ele>1230.6666666666667</ele><time>2026-04-17T11:16:42Z</time></trkpt><trkpt lat="46.41679569466659" lon="11.215697896204215"><ele>1234.3333333333335</ele><time>2026-04-17T11:16:43Z</time></trkpt><trkpt lat="46.41662504654979" lon="11.215593047207149"><ele>1238.0</ele><time>2026-04-17T11:16:44Z</time></trkpt><trkpt lat="46.41650004830078" lon="11.2155208199923"><ele>1238.0</ele><time>2026-04-17T11:16:45Z</time></trkpt><trkpt lat="46.416413954967524" lon="11.21543914868572"><ele>1238.0</ele><time>2026-04-17T11:16:46Z</time></trkpt><trkpt lat="46.41635176324549" lon="11.215325910500049"><ele>1238.0</ele><time>2026-04-17T11:16:47Z</time></trkpt><trkpt lat="46.416344003418224" lon="11.215155902224627"><ele>1238.0</ele><time>2026-04-17T11:16:48Z</time></trkpt><trkpt lat="46.41635319296545" lon="11.21496222138709"><ele>1242.0</ele><time>2026-04-17T11:16:49Z</time></trkpt><trkpt lat="46.41634472404601" lon="11.214707652693448"><ele>1246.0</ele><time>2026-04-17T11:16:50Z</time></trkpt><trkpt lat="46.416317534767046" lon="11.214461609761926"><ele>1250.0</ele><time>2026-04-17T11:16:51Z</time></trkpt><trkpt lat="46.416289780182886" lon="11.214183394663"><ele>1238.0</ele><time>2026-04-17T11:16:52Z</time></trkpt><trkpt lat="46.41624181785479" lon="11.213882691567706"><ele>1226.0</ele><time>2026-04-17T11:16:53Z</time></trkpt><trkpt lat="46.41620232850492" lon="11.213590844899331"><ele>1214.0</ele><time>2026-04-17T11:16:54Z</time></trkpt><trkpt lat="46.41618204877766" lon="11.21328198854839"><ele>1221.3333333333335</ele><time>2026-04-17T11:16:54.999Z</time></trkpt><trkpt lat="46.41617424534928" lon="11.213019806882121"><ele>1228.6666666666667</ele><time>2026-04-17T11:16:55.999Z</time></trkpt><trkpt lat="46.41613925336417" lon="11.21280922617367"><ele>1236.0</ele><time>2026-04-17T11:16:56.999Z</time></trkpt><trkpt lat="46.416086490109066" lon="11.212647881540548"><ele>1236.0</ele><time>2026-04-17T11:16:57.999Z</time></trkpt><trkpt lat="46.41603500128007" lon="11.212545988788257"><ele>1236.0</ele><time>2026-04-17T11:16:58.999Z</time></trkpt><trkpt lat="46.41601341053708" lon="11.212412735234365"><ele>1236.0</ele><time>2026-04-17T11:17:00.999Z</time></trkpt><trkpt lat="46.41614413694462" lon="11.212374630785868"><ele>1236.0</ele><time>2026-04-17T11:17:02.999Z</time></trkpt><trkpt lat="46.41619518671108" lon="11.212454110455635"><ele>1236.0</ele><time>2026-04-17T11:17:03.999Z</time></trkpt><trkpt lat="46.41618517523938" lon="11.212582188068701"><ele>1236.0</ele><time>2026-04-17T11:17:04.999Z</time></trkpt><trkpt lat="46.41620166654963" lon="11.212747180207938"><ele>1236.0</ele><time>2026-04-17T11:17:05.999Z</time></trkpt><trkpt lat="46.41623820220511" lon="11.212909280325222"><ele>1236.0</ele><time>2026-04-17T11:17:06.999Z</time></trkpt><trkpt lat="46.416273777671485" lon="11.213086889216754"><ele>1236.0</ele><time>2026-04-17T11:17:07.999Z</time></trkpt><trkpt lat="46.416326239801045" lon="11.213313285377003"><ele>1244.6666666666667</ele><time>2026-04-17T11:17:08.999Z</time></trkpt><trkpt lat="46.416379760316154" lon="11.213523965482285"><ele>1253.3333333333335</ele><time>2026-04-17T11:17:09.999Z</time></trkpt><trkpt lat="46.416434290832726" lon="11.213739195699876"><ele>1262.0</ele><time>2026-04-17T11:17:10.999Z</time></trkpt><trkpt lat="46.41647837320805" lon="11.213937490055281"><ele>1259.6</ele><time>2026-04-17T11:17:11.999Z</time></trkpt><trkpt lat="46.416487845116194" lon="11.214089955472845"><ele>1257.2</ele><time>2026-04-17T11:17:12.999Z</time></trkpt><trkpt lat="46.41649065588325" lon="11.214207528639728"><ele>1254.8</ele><time>2026-04-17T11:17:13.999Z</time></trkpt><trkpt lat="46.41651322235516" lon="11.21438133883565"><ele>1252.4</ele><time>2026-04-17T11:17:15.999Z</time></trkpt><trkpt lat="46.41663097655823" lon="11.214471613226767"><ele>1250.0</ele><time>2026-04-17T11:17:17.999Z</time></trkpt><trkpt lat="46.41669591663521" lon="11.214444248658275"><ele>1250.0</ele><time>2026-04-17T11:17:18.999Z</time></trkpt><trkpt lat="46.416736822271254" lon="11.214355905245181"><ele>1250.0</ele><time>2026-04-17T11:17:19.999Z</time></trkpt><trkpt lat="46.41672989266987" lon="11.21424357225249"><ele>1250.0</ele><time>2026-04-17T11:17:20.999Z</time></trkpt><trkpt lat="46.416673644175106" lon="11.214122990089649"><ele>1250.0</ele><time>2026-04-17T11:17:21.999Z</time></trkpt><trkpt lat="46.41661632154717" lon="11.21394831234792"><ele>1250.0</ele><time>2026-04-17T11:17:22.999Z</time></trkpt><trkpt lat="46.416573823568115" lon="11.213770069974352"><ele>1254.0</ele><time>2026-04-17T11:17:23.999Z</time></trkpt><trkpt lat="46.416535578801025" lon="11.21352119391828"><ele>1258.0</ele><time>2026-04-17T11:17:24.999Z</time></trkpt><trkpt lat="46.41649663507376" lon="11.213240449635904"><ele>1262.0</ele><time>2026-04-17T11:17:25.999Z</time></trkpt><trkpt lat="46.41648307397179" lon="11.212945220060647"><ele>1269.0</ele><time>2026-04-17T11:17:26.999Z</time></trkpt><trkpt lat="46.41645310720914" lon="11.212620179579213"><ele>1276.0</ele><time>2026-04-17T11:17:27.999Z</time></trkpt><trkpt lat="46.41639680410838" lon="11.21228963432567"><ele>1270.6666666666665</ele><time>2026-04-17T11:17:28.999Z</time></trkpt><trkpt lat="46.41631726712334" lon="11.211990160865144"><ele>1265.3333333333333</ele><time>2026-04-17T11:17:29.999Z</time></trkpt><trkpt lat="46.41624413693133" lon="11.211730991795744"><ele>1260.0</ele><time>2026-04-17T11:17:30.999Z</time></trkpt><trkpt lat="46.41619455997353" lon="11.211526945639717"><ele>1266.0</ele><time>2026-04-17T11:17:31.999Z</time></trkpt><trkpt lat="46.41614863056591" lon="11.211386794796407"><ele>1272.0</ele><time>2026-04-17T11:17:32.999Z</time></trkpt><trkpt lat="46.416088777416356" lon="11.211285179417613"><ele>1278.0</ele><time>2026-04-17T11:17:33.999Z</time></trkpt><trkpt lat="46.41603392698014" lon="11.21122214011541"><ele>1284.0</ele><time>2026-04-17T11:17:34.999Z</time></trkpt><trkpt lat="46.4160400531397" lon="11.211082520610464"><ele>1290.0</ele><time>2026-04-17T11:17:36.999Z</time></trkpt><trkpt lat="46.41615363319109" lon="11.21107272756432"><ele>1290.0</ele><time>2026-04-17T11:17:38.999Z</time></trkpt><trkpt lat="46.416189724293844" lon="11.21115676889056"><ele>1290.0</ele><time>2026-04-17T11:17:39.999Z</time></trkpt><trkpt lat="46.41620612832943" lon="11.211307349577018"><ele>1290.0</ele><time>2026-04-17T11:17:40.999Z</time></trkpt><trkpt lat="46.41624718915577" lon="11.211488330806567"><ele>1290.0</ele><time>2026-04-17T11:17:41.999Z</time></trkpt><trkpt lat="46.416296412464746" lon="11.211662482539094"><ele>1290.0</ele><time>2026-04-17T11:17:42.999Z</time></trkpt><trkpt lat="46.41638329031607" lon="11.21186984262002"><ele>1289.25</ele><time>2026-04-17T11:17:43.999Z</time></trkpt><trkpt lat="46.41648490335501" lon="11.212073980811535"><ele>1288.5</ele><time>2026-04-17T11:17:44.999Z</time></trkpt><trkpt lat="46.41657470210094" lon="11.212223328802406"><ele>1287.75</ele><time>2026-04-17T11:17:45.999Z</time></trkpt><trkpt lat="46.41662321743128" lon="11.2123644053842"><ele>1287.0</ele><time>2026-04-17T11:17:46.999Z</time></trkpt><trkpt lat="46.41663559647064" lon="11.212474804939292"><ele>1287.0</ele><time>2026-04-17T11:17:47.999Z</time></trkpt><trkpt lat="46.41666429565727" lon="11.212564959408699"><ele>1287.0</ele><time>2026-04-17T11:17:48.999Z</time></trkpt><trkpt lat="46.41672693464874" lon="11.212597386295307"><ele>1287.0</ele><time>2026-04-17T11:17:49.999Z</time></trkpt><trkpt lat="46.416804663744436" lon="11.212552005417113"><ele>1287.0</ele><time>2026-04-17T11:17:50.999Z</time></trkpt><trkpt lat="46.41685237492946" lon="11.212449187661793"><ele>1287.0</ele><time>2026-04-17T11:17:51.999Z</time></trkpt><trkpt lat="46.416852281379384" lon="11.212325439934245"><ele>1287.0</ele><time>2026-04-17T11:17:52.999Z</time></trkpt><trkpt lat="46.41681049054273" lon="11.212221969132793"><ele>1287.0</ele><time>2026-04-17T11:17:53.999Z</time></trkpt><trkpt lat="46.41671783071069" lon="11.212111829766236"><ele>1287.0</ele><time>2026-04-17T11:17:54.999Z</time></trkpt><trkpt lat="46.41664070548908" lon="11.21193789192175"><ele>1287.0</ele><time>2026-04-17T11:17:55.999Z</time></trkpt><trkpt lat="46.4165621691023" lon="11.211741600653683"><ele>1287.0</ele><time>2026-04-17T11:17:56.999Z</time></trkpt><trkpt lat="46.416477712649474" lon="11.211553519484479"><ele>1293.0</ele><time>2026-04-17T11:17:57.999Z</time></trkpt><trkpt lat="46.416398652494394" lon="11.211327305958187"><ele>1299.0</ele><time>2026-04-17T11:17:59Z</time></trkpt><trkpt lat="46.41634952639013" lon="11.211102133003486"><ele>1305.0</ele><time>2026-04-17T11:18:00Z</time></trkpt><trkpt lat="46.41633180931784" lon="11.210919419261273"><ele>1301.25</ele><time>2026-04-17T11:18:01Z</time></trkpt><trkpt lat="46.416270131875336" lon="11.21078982235299"><ele>1297.5</ele><time>2026-04-17T11:18:02Z</time></trkpt><trkpt lat="46.41617307325261" lon="11.210679904976304"><ele>1293.75</ele><time>2026-04-17T11:18:03Z</time></trkpt><trkpt lat="46.41606371064718" lon="11.21061587450184"><ele>1290.0</ele><time>2026-04-17T11:18:04Z</time></trkpt><trkpt lat="46.41594160004649" lon="11.210589721341082"><ele>1298.6</ele><time>2026-04-17T11:18:05Z</time></trkpt><trkpt lat="46.415847899520614" lon="11.210599951373553"><ele>1307.2</ele><time>2026-04-17T11:18:06Z</time></trkpt><trkpt lat="46.41573608713111" lon="11.210597809960072"><ele>1315.8000000000002</ele><time>2026-04-17T11:18:08Z</time></trkpt><trkpt lat="46.415743000253684" lon="11.210430358118517"><ele>1324.4</ele><time>2026-04-17T11:18:10Z</time></trkpt><trkpt lat="46.41581042232219" lon="11.210402558674527"><ele>1333.0</ele><time>2026-04-17T11:18:11Z</time></trkpt><trkpt lat="46.41588179790195" lon="11.210401640608389"><ele>1333.0</ele><time>2026-04-17T11:18:12Z</time></trkpt><trkpt lat="46.415975720548104" lon="11.21048794281578"><ele>1333.0</ele><time>2026-04-17T11:18:13Z</time></trkpt><trkpt lat="46.416103955059945" lon="11.210535274247613"><ele>1333.0</ele><time>2026-04-17T11:18:14Z</time></trkpt><trkpt lat="46.41622430140563" lon="11.210598910931969"><ele>1333.0</ele><time>2026-04-17T11:18:15Z</time></trkpt><trkpt lat="46.41635450006135" lon="11.210713993692966"><ele>1323.6666666666665</ele><time>2026-04-17T11:18:16Z</time></trkpt><trkpt lat="46.41646648192675" lon="11.210888927614613"><ele>1314.3333333333333</ele><time>2026-04-17T11:18:17Z</time></trkpt><trkpt lat="46.41657928826954" lon="11.211059778835786"><ele>1305.0</ele><time>2026-04-17T11:18:18Z</time></trkpt><trkpt lat="46.416727769543265" lon="11.211228908054125"><ele>1305.0</ele><time>2026-04-17T11:18:19Z</time></trkpt><trkpt lat="46.416889525597234" lon="11.211442079012045"><ele>1305.0</ele><time>2026-04-17T11:18:20Z</time></trkpt><trkpt lat="46.417058898021345" lon="11.211625556585036"><ele>1305.0</ele><time>2026-04-17T11:18:21Z</time></trkpt><trkpt lat="46.41720769426631" lon="11.21180980941658"><ele>1307.6666666666667</ele><time>2026-04-17T11:18:22Z</time></trkpt><trkpt lat="46.417322309365716" lon="11.212007360966544"><ele>1310.3333333333335</ele><time>2026-04-17T11:18:23Z</time></trkpt><trkpt lat="46.41738259256683" lon="11.212222904352622"><ele>1313.0</ele><time>2026-04-17T11:18:24Z</time></trkpt><trkpt lat="46.41743921607794" lon="11.212443682544285"><ele>1313.0</ele><time>2026-04-17T11:18:25Z</time></trkpt><trkpt lat="46.417466907099524" lon="11.212691078475139"><ele>1313.0</ele><time>2026-04-17T11:18:26Z</time></trkpt><trkpt lat="46.417507654603526" lon="11.212969195312132"><ele>1313.0</ele><time>2026-04-17T11:18:27Z</time></trkpt><trkpt lat="46.41753141998478" lon="11.213281841419477"><ele>1312.3333333333335</ele><time>2026-04-17T11:18:28Z</time></trkpt><trkpt lat="46.4175497308104" lon="11.213565752873912"><ele>1311.6666666666667</ele><time>2026-04-17T11:18:29Z</time></trkpt><trkpt lat="46.41752206919021" lon="11.213797638882616"><ele>1311.0</ele><time>2026-04-17T11:18:30Z</time></trkpt><trkpt lat="46.41749694926751" lon="11.213996423079605"><ele>1309.75</ele><time>2026-04-17T11:18:31Z</time></trkpt><trkpt lat="46.41749155787428" lon="11.214164049277537"><ele>1308.5</ele><time>2026-04-17T11:18:32Z</time></trkpt><trkpt lat="46.417508016625746" lon="11.214332728801413"><ele>1307.25</ele><time>2026-04-17T11:18:33Z</time></trkpt><trkpt lat="46.41756959724143" lon="11.21448265301391"><ele>1306.0</ele><time>2026-04-17T11:18:34Z</time></trkpt><trkpt lat="46.41766041007571" lon="11.214581006668613"><ele>1306.0</ele><time>2026-04-17T11:18:35Z</time></trkpt><trkpt lat="46.41777235454527" lon="11.214600667158162"><ele>1306.0</ele><time>2026-04-17T11:18:36Z</time></trkpt><trkpt lat="46.417880982395474" lon="11.214571169286314"><ele>1306.0</ele><time>2026-04-17T11:18:37Z</time></trkpt><trkpt lat="46.4179877420589" lon="11.214490326326969"><ele>1306.0</ele><time>2026-04-17T11:18:38Z</time></trkpt><trkpt lat="46.4180956488816" lon="11.214371873345822"><ele>1309.25</ele><time>2026-04-17T11:18:39Z</time></trkpt><trkpt lat="46.41822053746883" lon="11.214232485923839"><ele>1312.5</ele><time>2026-04-17T11:18:40Z</time></trkpt><trkpt lat="46.418338414033705" lon="11.214106446473176"><ele>1315.75</ele><time>2026-04-17T11:18:41Z</time></trkpt><trkpt lat="46.418423864031716" lon="11.214003205168186"><ele>1319.0</ele><time>2026-04-17T11:18:42Z</time></trkpt><trkpt lat="46.418467132556835" lon="11.213884170204018"><ele>1323.25</ele><time>2026-04-17T11:18:43Z</time></trkpt><trkpt lat="46.4184610786178" lon="11.213737417937175"><ele>1327.5</ele><time>2026-04-17T11:18:44Z</time></trkpt><trkpt lat="46.41841011802023" lon="11.213583646988354"><ele>1331.75</ele><time>2026-04-17T11:18:45Z</time></trkpt><trkpt lat="46.418310684596655" lon="11.213447229107414"><ele>1336.0</ele><time>2026-04-17T11:18:46Z</time></trkpt><trkpt lat="46.41818070048594" lon="11.213275147411402"><ele>1339.4</ele><time>2026-04-17T11:18:47Z</time></trkpt><trkpt lat="46.4180662953096" lon="11.213097646181124"><ele>1342.8</ele><time>2026-04-17T11:18:48Z</time></trkpt><trkpt lat="46.417982376794306" lon="11.212965921869948"><ele>1346.2</ele><time>2026-04-17T11:18:49Z</time></trkpt><trkpt lat="46.41793128378338" lon="11.212895503120343"><ele>1349.6000000000001</ele><time>2026-04-17T11:18:50Z</time></trkpt><trkpt lat="46.41793136960474" lon="11.212775060456929"><ele>1353.0</ele><time>2026-04-17T11:18:52Z</time></trkpt><trkpt lat="46.41804658138766" lon="11.212750605065343"><ele>1353.0</ele><time>2026-04-17T11:18:53.999Z</time></trkpt><trkpt lat="46.418091366251005" lon="11.2128379558917"><ele>1353.0</ele><time>2026-04-17T11:18:54.999Z</time></trkpt><trkpt lat="46.41814006661312" lon="11.212973114504484"><ele>1353.0</ele><time>2026-04-17T11:18:55.999Z</time></trkpt><trkpt lat="46.41819179759813" lon="11.213120405281858"><ele>1353.0</ele><time>2026-04-17T11:18:56.999Z</time></trkpt><trkpt lat="46.418251327345835" lon="11.213222161405234"><ele>1353.0</ele><time>2026-04-17T11:18:57.999Z</time></trkpt><trkpt lat="46.41835188126263" lon="11.213336235526628"><ele>1351.0</ele><time>2026-04-17T11:18:58.999Z</time></trkpt><trkpt lat="46.418480511850795" lon="11.213416733931073"><ele>1349.0</ele><time>2026-04-17T11:18:59.999Z</time></trkpt><trkpt lat="46.41860742276884" lon="11.213462955978954"><ele>1347.0</ele><time>2026-04-17T11:19:00.999Z</time></trkpt><trkpt lat="46.41873999739197" lon="11.213464639945544"><ele>1345.0</ele><time>2026-04-17T11:19:01.999Z</time></trkpt><trkpt lat="46.418844000714536" lon="11.213465787029762"><ele>1345.0</ele><time>2026-04-17T11:19:02.999Z</time></trkpt><trkpt lat="46.418910404168365" lon="11.213461239421198"><ele>1345.0</ele><time>2026-04-17T11:19:03.999Z</time></trkpt><trkpt lat="46.418987995591486" lon="11.213312779961049"><ele>1345.0</ele><time>2026-04-17T11:19:05.999Z</time></trkpt><trkpt lat="46.41896822945629" lon="11.21320269772564"><ele>1345.0</ele><time>2026-04-17T11:19:06.999Z</time></trkpt><trkpt lat="46.418901634448915" lon="11.213142591479174"><ele>1345.0</ele><time>2026-04-17T11:19:07.999Z</time></trkpt><trkpt lat="46.41882904897067" lon="11.213134989636794"><ele>1345.0</ele><time>2026-04-17T11:19:08.999Z</time></trkpt><trkpt lat="46.4187508881066" lon="11.213164660177005"><ele>1346.6</ele><time>2026-04-17T11:19:09.999Z</time></trkpt><trkpt lat="46.418658474365536" lon="11.21322517488776"><ele>1348.2</ele><time>2026-04-17T11:19:10.999Z</time></trkpt><trkpt lat="46.418553082413645" lon="11.213244248149532"><ele>1349.8000000000002</ele><time>2026-04-17T11:19:11.999Z</time></trkpt><trkpt lat="46.418449207629656" lon="11.2132041487195"><ele>1351.4</ele><time>2026-04-17T11:19:12.999Z</time></trkpt><trkpt lat="46.41838520805232" lon="11.213072668630614"><ele>1353.0</ele><time>2026-04-17T11:19:13.999Z</time></trkpt><trkpt lat="46.41833061410454" lon="11.21295030573035"><ele>1353.0</ele><time>2026-04-17T11:19:14.999Z</time></trkpt><trkpt lat="46.41828226256317" lon="11.21281498564643"><ele>1353.0</ele><time>2026-04-17T11:19:15.999Z</time></trkpt><trkpt lat="46.418238526657234" lon="11.212644303618362"><ele>1353.0</ele><time>2026-04-17T11:19:16.999Z</time></trkpt><trkpt lat="46.41818702864615" lon="11.212418736720275"><ele>1353.0</ele><time>2026-04-17T11:19:17.999Z</time></trkpt><trkpt lat="46.41815257932421" lon="11.212191522867732"><ele>1359.3333333333333</ele><time>2026-04-17T11:19:18.999Z</time></trkpt><trkpt lat="46.4181258663695" lon="11.211952084280952"><ele>1365.6666666666665</ele><time>2026-04-17T11:19:19.999Z</time></trkpt><trkpt lat="46.418107386013176" lon="11.21167951808483"><ele>1372.0</ele><time>2026-04-17T11:19:20.999Z</time></trkpt><trkpt lat="46.41807012575726" lon="11.211415761872297"><ele>1377.0</ele><time>2026-04-17T11:19:21.999Z</time></trkpt><trkpt lat="46.418040108162884" lon="11.211163654539256"><ele>1382.0</ele><time>2026-04-17T11:19:22.999Z</time></trkpt><trkpt lat="46.41797474720026" lon="11.210916838514166"><ele>1387.0</ele><time>2026-04-17T11:19:23.999Z</time></trkpt><trkpt lat="46.41787246465644" lon="11.210669142086338"><ele>1380.6666666666665</ele><time>2026-04-17T11:19:24.999Z</time></trkpt><trkpt lat="46.417739132816635" lon="11.210409983820291"><ele>1374.3333333333333</ele><time>2026-04-17T11:19:25.999Z</time></trkpt><trkpt lat="46.41760795293812" lon="11.210148921932198"><ele>1368.0</ele><time>2026-04-17T11:19:26.999Z</time></trkpt><trkpt lat="46.41747012581197" lon="11.209911537151495"><ele>1365.3333333333333</ele><time>2026-04-17T11:19:27.999Z</time></trkpt><trkpt lat="46.41731331575295" lon="11.209694296442377"><ele>1362.6666666666665</ele><time>2026-04-17T11:19:28.999Z</time></trkpt><trkpt lat="46.417176227759484" lon="11.209487257058298"><ele>1360.0</ele><time>2026-04-17T11:19:29.999Z</time></trkpt><trkpt lat="46.41707761255841" lon="11.209295356824237"><ele>1360.0</ele><time>2026-04-17T11:19:30.999Z</time></trkpt><trkpt lat="46.41699274044824" lon="11.20909960494353"><ele>1360.0</ele><time>2026-04-17T11:19:31.999Z</time></trkpt><trkpt lat="46.41690894526181" lon="11.208910772620486"><ele>1360.0</ele><time>2026-04-17T11:19:32.999Z</time></trkpt><trkpt lat="46.416848469544156" lon="11.208732904535543"><ele>1362.25</ele><time>2026-04-17T11:19:33.999Z</time></trkpt><trkpt lat="46.41680697493184" lon="11.208572890218209"><ele>1364.5</ele><time>2026-04-17T11:19:34.999Z</time></trkpt><trkpt lat="46.416783470882734" lon="11.208422037004883"><ele>1366.75</ele><time>2026-04-17T11:19:35.999Z</time></trkpt><trkpt lat="46.41676975298925" lon="11.208254718726447"><ele>1369.0</ele><time>2026-04-17T11:19:36.999Z</time></trkpt><trkpt lat="46.416750928420875" lon="11.208071568558827"><ele>1369.0</ele><time>2026-04-17T11:19:37.999Z</time></trkpt><trkpt lat="46.416727413650065" lon="11.207914328746721"><ele>1369.0</ele><time>2026-04-17T11:19:38.999Z</time></trkpt><trkpt lat="46.41671493815227" lon="11.207771230665317"><ele>1369.0</ele><time>2026-04-17T11:19:39.999Z</time></trkpt><trkpt lat="46.41672673243593" lon="11.207634444570857"><ele>1369.0</ele><time>2026-04-17T11:19:40.999Z</time></trkpt><trkpt lat="46.41674578571408" lon="11.20752569032466"><ele>1369.0</ele><time>2026-04-17T11:19:41.999Z</time></trkpt><trkpt lat="46.416771651643685" lon="11.207436909401956"><ele>1369.0</ele><time>2026-04-17T11:19:42.999Z</time></trkpt><trkpt lat="46.41682780784314" lon="11.207313998583865"><ele>1369.0000000000002</ele><time>2026-04-17T11:19:44.999Z</time></trkpt><trkpt lat="46.41688218006246" lon="11.20724119625318"><ele>1369.0</ele><time>2026-04-17T11:19:47.999Z</time></trkpt><trkpt lat="46.4169191739733" lon="11.207156058881516"><ele>1369.0</ele><time>2026-04-17T11:19:50.999Z</time></trkpt><trkpt lat="46.41687361189578" lon="11.20705689713479"><ele>1369.0</ele><time>2026-04-17T11:19:56.999Z</time></trkpt><trkpt lat="46.41681620483689" lon="11.207096012288249"><ele>1369.0</ele><time>2026-04-17T11:20:07Z</time></trkpt><trkpt lat="46.41680788933613" lon="11.207201919608536"><ele>1369.0000000000002</ele><time>2026-04-17T11:29:29.999Z</time></trkpt><trkpt lat="46.41687037138356" lon="11.207254867991951"><ele>1369.0</ele><time>2026-04-17T11:29:35.999Z</time></trkpt><trkpt lat="46.41695151966805" lon="11.20716604589944"><ele>1369.0</ele><time>2026-04-17T11:29:37.999Z</time></trkpt><trkpt lat="46.41702528219255" lon="11.20708765438417"><ele>1369.0</ele><time>2026-04-17T11:29:38.999Z</time></trkpt><trkpt lat="46.417104321627676" lon="11.207023158757298"><ele>1369.0</ele><time>2026-04-17T11:29:39.999Z</time></trkpt><trkpt lat="46.41717247207678" lon="11.206969685296032"><ele>1369.0</ele><time>2026-04-17T11:29:40.999Z</time></trkpt><trkpt lat="46.41723250024743" lon="11.206920595846391"><ele>1369.0</ele><time>2026-04-17T11:29:41.999Z</time></trkpt><trkpt lat="46.417290222181464" lon="11.206859307140533"><ele>1369.0</ele><time>2026-04-17T11:29:42.999Z</time></trkpt><trkpt lat="46.417341853224954" lon="11.206794687213307"><ele>1369.0000000000002</ele><time>2026-04-17T11:29:43.999Z</time></trkpt><trkpt lat="46.417393051587446" lon="11.206725256384777"><ele>1369.0</ele><time>2026-04-17T11:29:44.999Z</time></trkpt><trkpt lat="46.41744239561978" lon="11.206653998821707"><ele>1369.0</ele><time>2026-04-17T11:29:45.999Z</time></trkpt><trkpt lat="46.41749138571018" lon="11.206578674921316"><ele>1369.0</ele><time>2026-04-17T11:29:46.999Z</time></trkpt><trkpt lat="46.417536874595825" lon="11.206502815860738"><ele>1369.0</ele><time>2026-04-17T11:29:47.999Z</time></trkpt><trkpt lat="46.41758283823846" lon="11.206428147561798"><ele>1369.0000000000002</ele><time>2026-04-17T11:29:48.999Z</time></trkpt><trkpt lat="46.4176254985285" lon="11.206345573533046"><ele>1369.0</ele><time>2026-04-17T11:29:49.999Z</time></trkpt><trkpt lat="46.417683693128545" lon="11.206238592085876"><ele>1368.4</ele><time>2026-04-17T11:29:50.999Z</time></trkpt><trkpt lat="46.41775595792953" lon="11.206110365714645"><ele>1367.8000000000002</ele><time>2026-04-17T11:29:51.999Z</time></trkpt><trkpt lat="46.417825873122894" lon="11.205980560615874"><ele>1367.1999999999998</ele><time>2026-04-17T11:29:52.999Z</time></trkpt><trkpt lat="46.41787893823765" lon="11.20586954061594"><ele>1366.6</ele><time>2026-04-17T11:29:53.999Z</time></trkpt><trkpt lat="46.4179265056373" lon="11.205777146106596"><ele>1366.0</ele><time>2026-04-17T11:29:54.999Z</time></trkpt><trkpt lat="46.41796054972134" lon="11.205688443321037"><ele>1366.4</ele><time>2026-04-17T11:29:55.999Z</time></trkpt><trkpt lat="46.418015241012654" lon="11.20553416636784"><ele>1366.8</ele><time>2026-04-17T11:29:57.999Z</time></trkpt><trkpt lat="46.4180540752341" lon="11.205404066794527"><ele>1367.2</ele><time>2026-04-17T11:29:59.999Z</time></trkpt><trkpt lat="46.41809124987464" lon="11.205298701520608"><ele>1367.6000000000001</ele><time>2026-04-17T11:30:01.999Z</time></trkpt><trkpt lat="46.41813642863283" lon="11.205126183592867"><ele>1368.0</ele><time>2026-04-17T11:30:04Z</time></trkpt><trkpt lat="46.41817530683168" lon="11.204996643366595"><ele>1368.0</ele><time>2026-04-17T11:30:05Z</time></trkpt><trkpt lat="46.41822152982923" lon="11.204861456658612"><ele>1368.0</ele><time>2026-04-17T11:30:06Z</time></trkpt><trkpt lat="46.418265849604715" lon="11.20474240643821"><ele>1368.0</ele><time>2026-04-17T11:30:07Z</time></trkpt><trkpt lat="46.418332704304" lon="11.204596572896488"><ele>1368.0</ele><time>2026-04-17T11:30:08Z</time></trkpt><trkpt lat="46.41842015994473" lon="11.204436790111103"><ele>1366.5</ele><time>2026-04-17T11:30:09Z</time></trkpt><trkpt lat="46.41849461063124" lon="11.204285183495106"><ele>1365.0</ele><time>2026-04-17T11:30:10Z</time></trkpt><trkpt lat="46.41856912958215" lon="11.204138710080988"><ele>1363.5</ele><time>2026-04-17T11:30:11Z</time></trkpt><trkpt lat="46.41863973298321" lon="11.203984491131227"><ele>1362.0</ele><time>2026-04-17T11:30:12Z</time></trkpt><trkpt lat="46.41869989524898" lon="11.203831497117475"><ele>1360.3999999999999</ele><time>2026-04-17T11:30:13Z</time></trkpt><trkpt lat="46.418729572141125" lon="11.20367080948359"><ele>1358.8</ele><time>2026-04-17T11:30:14Z</time></trkpt><trkpt lat="46.41874075511805" lon="11.203510951578481"><ele>1357.2</ele><time>2026-04-17T11:30:15Z</time></trkpt><trkpt lat="46.41873929041573" lon="11.20335714707889"><ele>1355.6</ele><time>2026-04-17T11:30:16Z</time></trkpt><trkpt lat="46.41873424368037" lon="11.203186690171163"><ele>1354.0</ele><time>2026-04-17T11:30:17Z</time></trkpt><trkpt lat="46.41873691021639" lon="11.202994535365447"><ele>1351.6666666666665</ele><time>2026-04-17T11:30:18Z</time></trkpt><trkpt lat="46.41876402735466" lon="11.2027828173694"><ele>1349.3333333333333</ele><time>2026-04-17T11:30:19Z</time></trkpt><trkpt lat="46.41880664025979" lon="11.202564528755005"><ele>1347.0</ele><time>2026-04-17T11:30:20Z</time></trkpt><trkpt lat="46.418867982981446" lon="11.20234932717072"><ele>1351.5</ele><time>2026-04-17T11:30:21Z</time></trkpt><trkpt lat="46.41892495403338" lon="11.202156117687954"><ele>1356.0</ele><time>2026-04-17T11:30:22Z</time></trkpt><trkpt lat="46.418952496577745" lon="11.201967050045926"><ele>1360.5</ele><time>2026-04-17T11:30:23Z</time></trkpt><trkpt lat="46.41894722545849" lon="11.201769345481782"><ele>1365.0</ele><time>2026-04-17T11:30:24Z</time></trkpt><trkpt lat="46.41892466622911" lon="11.20156999968171"><ele>1367.3333333333333</ele><time>2026-04-17T11:30:25Z</time></trkpt><trkpt lat="46.41887242696399" lon="11.20137241074716"><ele>1369.6666666666665</ele><time>2026-04-17T11:30:26Z</time></trkpt><trkpt lat="46.41878567946138" lon="11.201160666092624"><ele>1372.0</ele><time>2026-04-17T11:30:27Z</time></trkpt><trkpt lat="46.4187139498524" lon="11.200924714250236"><ele>1363.6666666666665</ele><time>2026-04-17T11:30:28Z</time></trkpt><trkpt lat="46.4186726796787" lon="11.200687183777832"><ele>1355.3333333333333</ele><time>2026-04-17T11:30:29Z</time></trkpt><trkpt lat="46.4186258561232" lon="11.200413586033708"><ele>1347.0</ele><time>2026-04-17T11:30:30Z</time></trkpt><trkpt lat="46.418574701477596" lon="11.20017017220833"><ele>1346.75</ele><time>2026-04-17T11:30:31Z</time></trkpt><trkpt lat="46.418522874328275" lon="11.199971331855156"><ele>1346.5</ele><time>2026-04-17T11:30:32Z</time></trkpt><trkpt lat="46.418441537641435" lon="11.199795364939906"><ele>1346.25</ele><time>2026-04-17T11:30:33Z</time></trkpt><trkpt lat="46.41837746572508" lon="11.199650639017777"><ele>1346.0</ele><time>2026-04-17T11:30:34Z</time></trkpt><trkpt lat="46.418338752643976" lon="11.19950375107093"><ele>1345.25</ele><time>2026-04-17T11:30:34.999Z</time></trkpt><trkpt lat="46.41832200797609" lon="11.199338631716973"><ele>1344.5</ele><time>2026-04-17T11:30:35.999Z</time></trkpt><trkpt lat="46.41832339896754" lon="11.199148067351585"><ele>1343.75</ele><time>2026-04-17T11:30:36.999Z</time></trkpt><trkpt lat="46.41833287192324" lon="11.19897164497938"><ele>1343.0</ele><time>2026-04-17T11:30:37.999Z</time></trkpt><trkpt lat="46.41831463950931" lon="11.198795637324576"><ele>1342.8000000000002</ele><time>2026-04-17T11:30:38.999Z</time></trkpt><trkpt lat="46.41825514701598" lon="11.198631330779138"><ele>1342.6</ele><time>2026-04-17T11:30:39.999Z</time></trkpt><trkpt lat="46.41821593319205" lon="11.19847674314136"><ele>1342.4</ele><time>2026-04-17T11:30:40.999Z</time></trkpt><trkpt lat="46.41821548296812" lon="11.198333694071593"><ele>1342.1999999999998</ele><time>2026-04-17T11:30:41.999Z</time></trkpt><trkpt lat="46.41824175195758" lon="11.198201303383508"><ele>1342.0</ele><time>2026-04-17T11:30:42.999Z</time></trkpt><trkpt lat="46.41829329582168" lon="11.198078206344716"><ele>1341.25</ele><time>2026-04-17T11:30:43.999Z</time></trkpt><trkpt lat="46.41836298205042" lon="11.197954699149635"><ele>1340.5</ele><time>2026-04-17T11:30:44.999Z</time></trkpt><trkpt lat="46.41843790918007" lon="11.197819975734548"><ele>1339.75</ele><time>2026-04-17T11:30:45.999Z</time></trkpt><trkpt lat="46.4185175864511" lon="11.197678495559348"><ele>1339.0</ele><time>2026-04-17T11:30:46.999Z</time></trkpt><trkpt lat="46.41856183686681" lon="11.197533351732122"><ele>1339.0</ele><time>2026-04-17T11:30:47.999Z</time></trkpt><trkpt lat="46.418571956454436" lon="11.197350901976328"><ele>1339.0</ele><time>2026-04-17T11:30:48.999Z</time></trkpt><trkpt lat="46.41854027996251" lon="11.197160778950392"><ele>1339.0</ele><time>2026-04-17T11:30:49.999Z</time></trkpt><trkpt lat="46.41848610440452" lon="11.196976318751473"><ele>1339.0</ele><time>2026-04-17T11:30:51Z</time></trkpt><trkpt lat="46.418420701288824" lon="11.196801947964294"><ele>1342.3333333333333</ele><time>2026-04-17T11:30:52Z</time></trkpt><trkpt lat="46.4183722137401" lon="11.196610324968486"><ele>1345.6666666666667</ele><time>2026-04-17T11:30:53Z</time></trkpt><trkpt lat="46.41830185615495" lon="11.19641410061617"><ele>1349.0</ele><time>2026-04-17T11:30:54Z</time></trkpt><trkpt lat="46.41821304222101" lon="11.196225806772254"><ele>1350.3333333333335</ele><time>2026-04-17T11:30:55Z</time></trkpt><trkpt lat="46.41808068945288" lon="11.196050074955233"><ele>1351.6666666666667</ele><time>2026-04-17T11:30:56Z</time></trkpt><trkpt lat="46.41793965039887" lon="11.195870716021195"><ele>1353.0</ele><time>2026-04-17T11:30:57Z</time></trkpt><trkpt lat="46.417823455095295" lon="11.195650023728358"><ele>1348.3333333333333</ele><time>2026-04-17T11:30:58Z</time></trkpt><trkpt lat="46.41769267624326" lon="11.19543954942558"><ele>1343.6666666666665</ele><time>2026-04-17T11:30:59Z</time></trkpt><trkpt lat="46.41760076415566" lon="11.195249004413443"><ele>1339.0</ele><time>2026-04-17T11:31:00Z</time></trkpt><trkpt lat="46.41751090918869" lon="11.195089918007765"><ele>1339.0</ele><time>2026-04-17T11:31:01Z</time></trkpt><trkpt lat="46.417429133499006" lon="11.194916673349626"><ele>1339.0</ele><time>2026-04-17T11:31:02Z</time></trkpt><trkpt lat="46.41736951657719" lon="11.19474590291921"><ele>1339.0</ele><time>2026-04-17T11:31:03Z</time></trkpt><trkpt lat="46.41732624134913" lon="11.194544743619518"><ele>1339.0</ele><time>2026-04-17T11:31:04Z</time></trkpt><trkpt lat="46.41726638167618" lon="11.194321938962133"><ele>1334.6666666666665</ele><time>2026-04-17T11:31:05Z</time></trkpt><trkpt lat="46.41719546749869" lon="11.194084403253191"><ele>1330.3333333333333</ele><time>2026-04-17T11:31:06Z</time></trkpt><trkpt lat="46.41711987028183" lon="11.193859623887016"><ele>1326.0</ele><time>2026-04-17T11:31:07Z</time></trkpt><trkpt lat="46.41703182828461" lon="11.193633877093115"><ele>1326.0</ele><time>2026-04-17T11:31:08Z</time></trkpt><trkpt lat="46.416928089549224" lon="11.193396261243624"><ele>1326.0</ele><time>2026-04-17T11:31:09Z</time></trkpt><trkpt lat="46.41682922081197" lon="11.193178396967314"><ele>1326.0</ele><time>2026-04-17T11:31:10Z</time></trkpt><trkpt lat="46.41674783417517" lon="11.192985955010514"><ele>1325.75</ele><time>2026-04-17T11:31:11Z</time></trkpt><trkpt lat="46.4166976097416" lon="11.192827236142124"><ele>1325.5</ele><time>2026-04-17T11:31:12Z</time></trkpt><trkpt lat="46.4166591781379" lon="11.192657925492231"><ele>1325.25</ele><time>2026-04-17T11:31:13Z</time></trkpt><trkpt lat="46.416652029225055" lon="11.192471074288628"><ele>1325.0</ele><time>2026-04-17T11:31:14Z</time></trkpt><trkpt lat="46.4166452528394" lon="11.192279520786581"><ele>1325.0</ele><time>2026-04-17T11:31:15Z</time></trkpt><trkpt lat="46.41662176896255" lon="11.192096937267216"><ele>1325.0</ele><time>2026-04-17T11:31:16Z</time></trkpt><trkpt lat="46.41659195760732" lon="11.191938097480625"><ele>1325.0</ele><time>2026-04-17T11:31:17Z</time></trkpt><trkpt lat="46.41658048855711" lon="11.191816509996471"><ele>1325.0</ele><time>2026-04-17T11:31:18Z</time></trkpt><trkpt lat="46.41658633242268" lon="11.19169687940519"><ele>1325.0</ele><time>2026-04-17T11:31:19Z</time></trkpt><trkpt lat="46.41661614813198" lon="11.1915826726045"><ele>1322.75</ele><time>2026-04-17T11:31:20Z</time></trkpt><trkpt lat="46.416658560752474" lon="11.191467192861275"><ele>1320.5</ele><time>2026-04-17T11:31:21Z</time></trkpt><trkpt lat="46.41672913787218" lon="11.191332920099894"><ele>1318.25</ele><time>2026-04-17T11:31:22Z</time></trkpt><trkpt lat="46.41681880357314" lon="11.191172516589598"><ele>1316.0</ele><time>2026-04-17T11:31:23Z</time></trkpt><trkpt lat="46.41689980934746" lon="11.19102150497425"><ele>1316.0</ele><time>2026-04-17T11:31:24Z</time></trkpt><trkpt lat="46.41697983578156" lon="11.190820637836167"><ele>1316.0</ele><time>2026-04-17T11:31:25Z</time></trkpt><trkpt lat="46.417066649094785" lon="11.190586974197162"><ele>1316.0</ele><time>2026-04-17T11:31:26Z</time></trkpt><trkpt lat="46.41715840311037" lon="11.190404889515944"><ele>1317.25</ele><time>2026-04-17T11:31:27Z</time></trkpt><trkpt lat="46.41725082378016" lon="11.19023126342139"><ele>1318.5</ele><time>2026-04-17T11:31:28Z</time></trkpt><trkpt lat="46.417348062738306" lon="11.190058798026959"><ele>1319.75</ele><time>2026-04-17T11:31:29Z</time></trkpt><trkpt lat="46.417449915938086" lon="11.18991623325269"><ele>1321.0</ele><time>2026-04-17T11:31:30Z</time></trkpt><trkpt lat="46.41755253488086" lon="11.189808293011959"><ele>1321.5</ele><time>2026-04-17T11:31:31Z</time></trkpt><trkpt lat="46.4176543389361" lon="11.189716128818587"><ele>1322.0</ele><time>2026-04-17T11:31:32Z</time></trkpt><trkpt lat="46.417779693802" lon="11.18965890199691"><ele>1322.5</ele><time>2026-04-17T11:31:33Z</time></trkpt><trkpt lat="46.41793960497399" lon="11.189613196881924"><ele>1323.0</ele><time>2026-04-17T11:31:34Z</time></trkpt><trkpt lat="46.41812621745434" lon="11.189559149129206"><ele>1323.0</ele><time>2026-04-17T11:31:35Z</time></trkpt><trkpt lat="46.4183233750902" lon="11.189497400095906"><ele>1323.0</ele><time>2026-04-17T11:31:36Z</time></trkpt><trkpt lat="46.418482068636145" lon="11.189446589008611"><ele>1323.0</ele><time>2026-04-17T11:31:37Z</time></trkpt><trkpt lat="46.41862062946222" lon="11.189393245775008"><ele>1323.0</ele><time>2026-04-17T11:31:38Z</time></trkpt><trkpt lat="46.418734593733724" lon="11.189297152216264"><ele>1323.0</ele><time>2026-04-17T11:31:39Z</time></trkpt><trkpt lat="46.41882636775217" lon="11.189143175230189"><ele>1323.0</ele><time>2026-04-17T11:31:40Z</time></trkpt><trkpt lat="46.41892418608665" lon="11.18895375249576"><ele>1323.0</ele><time>2026-04-17T11:31:41Z</time></trkpt><trkpt lat="46.41900765488918" lon="11.18871693163917"><ele>1323.3333333333333</ele><time>2026-04-17T11:31:42Z</time></trkpt><trkpt lat="46.41910187490219" lon="11.188512655702391"><ele>1323.6666666666665</ele><time>2026-04-17T11:31:43Z</time></trkpt><trkpt lat="46.41920233398164" lon="11.188298050259254"><ele>1324.0</ele><time>2026-04-17T11:31:44Z</time></trkpt><trkpt lat="46.41928471795161" lon="11.18812700715107"><ele>1324.0</ele><time>2026-04-17T11:31:45Z</time></trkpt><trkpt lat="46.41936226754095" lon="11.188034473181359"><ele>1324.0</ele><time>2026-04-17T11:31:46Z</time></trkpt><trkpt lat="46.419450672822784" lon="11.187956314145229"><ele>1324.0</ele><time>2026-04-17T11:31:47Z</time></trkpt><trkpt lat="46.41955737688443" lon="11.187918952366088"><ele>1324.0</ele><time>2026-04-17T11:31:48Z</time></trkpt><trkpt lat="46.4196758322954" lon="11.187906826759523"><ele>1324.0</ele><time>2026-04-17T11:31:49Z</time></trkpt><trkpt lat="46.41978826192032" lon="11.187896926479274"><ele>1322.6</ele><time>2026-04-17T11:31:50Z</time></trkpt><trkpt lat="46.419897166538284" lon="11.1878827358621"><ele>1321.2</ele><time>2026-04-17T11:31:51Z</time></trkpt><trkpt lat="46.42000074692861" lon="11.18787179023926"><ele>1319.8</ele><time>2026-04-17T11:31:52Z</time></trkpt><trkpt lat="46.42009916853931" lon="11.187858548434816"><ele>1318.3999999999999</ele><time>2026-04-17T11:31:53Z</time></trkpt><trkpt lat="46.42019696526255" lon="11.187849481180724"><ele>1317.0</ele><time>2026-04-17T11:31:54Z</time></trkpt><trkpt lat="46.42029496737888" lon="11.18785358103414"><ele>1317.0</ele><time>2026-04-17T11:31:55Z</time></trkpt><trkpt lat="46.420390078770886" lon="11.187872740893658"><ele>1317.0</ele><time>2026-04-17T11:31:56Z</time></trkpt><trkpt lat="46.420484397744104" lon="11.187917189022883"><ele>1317.0</ele><time>2026-04-17T11:31:57Z</time></trkpt><trkpt lat="46.42057268199572" lon="11.187969844714106"><ele>1317.0</ele><time>2026-04-17T11:31:58Z</time></trkpt><trkpt lat="46.420652698860614" lon="11.188020731457904"><ele>1317.0</ele><time>2026-04-17T11:31:59Z</time></trkpt><trkpt lat="46.42072730431136" lon="11.188058945222664"><ele>1317.4285714285716</ele><time>2026-04-17T11:32:00Z</time></trkpt><trkpt lat="46.4208027881344" lon="11.188083724296158"><ele>1317.857142857143</ele><time>2026-04-17T11:32:01Z</time></trkpt><trkpt lat="46.42088009862212" lon="11.188086073720411"><ele>1318.2857142857142</ele><time>2026-04-17T11:32:02Z</time></trkpt><trkpt lat="46.42094296270407" lon="11.18807760538199"><ele>1318.7142857142858</ele><time>2026-04-17T11:32:03Z</time></trkpt><trkpt lat="46.42100650956141" lon="11.188042283424405"><ele>1319.142857142857</ele><time>2026-04-17T11:32:04Z</time></trkpt><trkpt lat="46.42106296092939" lon="11.187991504865549"><ele>1319.5714285714287</ele><time>2026-04-17T11:32:05Z</time></trkpt><trkpt lat="46.4211246967239" lon="11.18792523677976"><ele>1320.0</ele><time>2026-04-17T11:32:06Z</time></trkpt><trkpt lat="46.42118901893873" lon="11.187800080639779"><ele>1320.0</ele><time>2026-04-17T11:32:07Z</time></trkpt><trkpt lat="46.421245564520476" lon="11.187645076388186"><ele>1320.0</ele><time>2026-04-17T11:32:08Z</time></trkpt><trkpt lat="46.42126563511879" lon="11.187468423946402"><ele>1320.0</ele><time>2026-04-17T11:32:09Z</time></trkpt><trkpt lat="46.42130087069306" lon="11.187330984638802"><ele>1320.0</ele><time>2026-04-17T11:32:10Z</time></trkpt><trkpt lat="46.421390226996415" lon="11.187206281780124"><ele>1318.25</ele><time>2026-04-17T11:32:11Z</time></trkpt><trkpt lat="46.42148598142691" lon="11.187092614064882"><ele>1316.5</ele><time>2026-04-17T11:32:12Z</time></trkpt><trkpt lat="46.42160526569428" lon="11.187004912269172"><ele>1314.75</ele><time>2026-04-17T11:32:13Z</time></trkpt><trkpt lat="46.421744148610514" lon="11.18691763308428"><ele>1313.0</ele><time>2026-04-17T11:32:14Z</time></trkpt><trkpt lat="46.42189579368516" lon="11.186786586998647"><ele>1313.0</ele><time>2026-04-17T11:32:15Z</time></trkpt><trkpt lat="46.4220328224157" lon="11.18665743287088"><ele>1313.0</ele><time>2026-04-17T11:32:16Z</time></trkpt><trkpt lat="46.42214663922775" lon="11.18649101518641"><ele>1313.0</ele><time>2026-04-17T11:32:17Z</time></trkpt><trkpt lat="46.42223447089903" lon="11.186306439319466"><ele>1311.3333333333335</ele><time>2026-04-17T11:32:18Z</time></trkpt><trkpt lat="46.42230691168689" lon="11.186105310703539"><ele>1309.6666666666667</ele><time>2026-04-17T11:32:19Z</time></trkpt><trkpt lat="46.422398359152936" lon="11.18586178092438"><ele>1308.0</ele><time>2026-04-17T11:32:20Z</time></trkpt><trkpt lat="46.42251061251302" lon="11.185595706425945"><ele>1308.0</ele><time>2026-04-17T11:32:21Z</time></trkpt><trkpt lat="46.422621031711586" lon="11.185354544946453"><ele>1308.0</ele><time>2026-04-17T11:32:22Z</time></trkpt><trkpt lat="46.42271788568385" lon="11.185182820263154"><ele>1308.0</ele><time>2026-04-17T11:32:23Z</time></trkpt><trkpt lat="46.42282026561022" lon="11.185019751585495"><ele>1308.0</ele><time>2026-04-17T11:32:24Z</time></trkpt><trkpt lat="46.422916195449694" lon="11.184862539841825"><ele>1308.0</ele><time>2026-04-17T11:32:25Z</time></trkpt><trkpt lat="46.42303134259461" lon="11.184743464926935"><ele>1308.0</ele><time>2026-04-17T11:32:26Z</time></trkpt><trkpt lat="46.42314214198668" lon="11.184632002676443"><ele>1308.0</ele><time>2026-04-17T11:32:27Z</time></trkpt><trkpt lat="46.423219000288206" lon="11.184489544305382"><ele>1308.25</ele><time>2026-04-17T11:32:28Z</time></trkpt><trkpt lat="46.423279601996896" lon="11.184335164268658"><ele>1308.5</ele><time>2026-04-17T11:32:29Z</time></trkpt><trkpt lat="46.42331583985621" lon="11.184141990878981"><ele>1308.75</ele><time>2026-04-17T11:32:30Z</time></trkpt><trkpt lat="46.42334526411206" lon="11.183924304501234"><ele>1309.0</ele><time>2026-04-17T11:32:31Z</time></trkpt><trkpt lat="46.42336935191416" lon="11.183673652920838"><ele>1309.0</ele><time>2026-04-17T11:32:32Z</time></trkpt><trkpt lat="46.42340051797103" lon="11.183443590948066"><ele>1309.0</ele><time>2026-04-17T11:32:33Z</time></trkpt><trkpt lat="46.423448481966325" lon="11.183233179632056"><ele>1309.0</ele><time>2026-04-17T11:32:34Z</time></trkpt><trkpt lat="46.42352335200928" lon="11.182999795479041"><ele>1308.6666666666665</ele><time>2026-04-17T11:32:35Z</time></trkpt><trkpt lat="46.4236097933766" lon="11.1828005644959"><ele>1308.3333333333333</ele><time>2026-04-17T11:32:36Z</time></trkpt><trkpt lat="46.42372991442171" lon="11.182576152292974"><ele>1308.0</ele><time>2026-04-17T11:32:37Z</time></trkpt><trkpt lat="46.42386247865944" lon="11.18232936679458"><ele>1308.0</ele><time>2026-04-17T11:32:38Z</time></trkpt><trkpt lat="46.42397449974428" lon="11.18209620148503"><ele>1308.0</ele><time>2026-04-17T11:32:39Z</time></trkpt><trkpt lat="46.42406332476984" lon="11.181860085328818"><ele>1308.0</ele><time>2026-04-17T11:32:40Z</time></trkpt><trkpt lat="46.42413328090299" lon="11.181597517119542"><ele>1304.0</ele><time>2026-04-17T11:32:41Z</time></trkpt><trkpt lat="46.424188470387485" lon="11.181312097941445"><ele>1300.0</ele><time>2026-04-17T11:32:42Z</time></trkpt><trkpt lat="46.42423619528837" lon="11.181059070284347"><ele>1296.0</ele><time>2026-04-17T11:32:43Z</time></trkpt><trkpt lat="46.424278548143185" lon="11.180857530598134"><ele>1296.0</ele><time>2026-04-17T11:32:44Z</time></trkpt><trkpt lat="46.424317004926905" lon="11.18069055000354"><ele>1296.0</ele><time>2026-04-17T11:32:45Z</time></trkpt><trkpt lat="46.424365213125306" lon="11.180546433473218"><ele>1296.0</ele><time>2026-04-17T11:32:46Z</time></trkpt><trkpt lat="46.42443366946768" lon="11.180421513446715"><ele>1296.0</ele><time>2026-04-17T11:32:47Z</time></trkpt><trkpt lat="46.42452141428957" lon="11.180308368525822"><ele>1295.0</ele><time>2026-04-17T11:32:48Z</time></trkpt><trkpt lat="46.424635113508295" lon="11.180215103397764"><ele>1294.0</ele><time>2026-04-17T11:32:49Z</time></trkpt><trkpt lat="46.42475453036776" lon="11.180155093560833"><ele>1293.0</ele><time>2026-04-17T11:32:50Z</time></trkpt><trkpt lat="46.42488801002046" lon="11.18010420335426"><ele>1292.0</ele><time>2026-04-17T11:32:51Z</time></trkpt><trkpt lat="46.425026715297065" lon="11.180052558039499"><ele>1292.0</ele><time>2026-04-17T11:32:52Z</time></trkpt><trkpt lat="46.42514077253764" lon="11.180015434431512"><ele>1292.0</ele><time>2026-04-17T11:32:53Z</time></trkpt><trkpt lat="46.42523414020012" lon="11.179976239494234"><ele>1292.0</ele><time>2026-04-17T11:32:54Z</time></trkpt><trkpt lat="46.42530324694708" lon="11.179890863322932"><ele>1292.0</ele><time>2026-04-17T11:32:55Z</time></trkpt><trkpt lat="46.42534645953775" lon="11.179783179756546"><ele>1292.0</ele><time>2026-04-17T11:32:56Z</time></trkpt><trkpt lat="46.42535945974035" lon="11.179665851586368"><ele>1291.1999999999998</ele><time>2026-04-17T11:32:57Z</time></trkpt><trkpt lat="46.42533376700639" lon="11.179545934387805"><ele>1290.4</ele><time>2026-04-17T11:32:58Z</time></trkpt><trkpt lat="46.425278397896726" lon="11.17945021334288"><ele>1289.6</ele><time>2026-04-17T11:32:59Z</time></trkpt><trkpt lat="46.42519819052357" lon="11.179359386167231"><ele>1288.8000000000002</ele><time>2026-04-17T11:33:00Z</time></trkpt><trkpt lat="46.42509096774391" lon="11.17924128818404"><ele>1288.0</ele><time>2026-04-17T11:33:01Z</time></trkpt><trkpt lat="46.42496430015144" lon="11.179100525357827"><ele>1289.3333333333333</ele><time>2026-04-17T11:33:02Z</time></trkpt><trkpt lat="46.42485976829784" lon="11.178959941558626"><ele>1290.6666666666667</ele><time>2026-04-17T11:33:03Z</time></trkpt><trkpt lat="46.42474073272785" lon="11.178813308876354"><ele>1292.0</ele><time>2026-04-17T11:33:04Z</time></trkpt><trkpt lat="46.42460521055677" lon="11.178669976119993"><ele>1288.3333333333335</ele><time>2026-04-17T11:33:05Z</time></trkpt><trkpt lat="46.42446601899662" lon="11.178563815618794"><ele>1284.6666666666667</ele><time>2026-04-17T11:33:06Z</time></trkpt><trkpt lat="46.42430288006263" lon="11.178503577416883"><ele>1281.0</ele><time>2026-04-17T11:33:07Z</time></trkpt><trkpt lat="46.42412438379156" lon="11.178495330066417"><ele>1281.0</ele><time>2026-04-17T11:33:08Z</time></trkpt><trkpt lat="46.42392209220498" lon="11.17847753898608"><ele>1281.0</ele><time>2026-04-17T11:33:09Z</time></trkpt><trkpt lat="46.42375907160208" lon="11.178461773518341"><ele>1281.0</ele><time>2026-04-17T11:33:10Z</time></trkpt><trkpt lat="46.42362926849248" lon="11.178402981968484"><ele>1281.5</ele><time>2026-04-17T11:33:11Z</time></trkpt><trkpt lat="46.42350700470471" lon="11.178315851267055"><ele>1282.0</ele><time>2026-04-17T11:33:12Z</time></trkpt><trkpt lat="46.42340791267524" lon="11.178197657706558"><ele>1282.5</ele><time>2026-04-17T11:33:13Z</time></trkpt><trkpt lat="46.42332927171364" lon="11.1780469202592"><ele>1283.0</ele><time>2026-04-17T11:33:14Z</time></trkpt><trkpt lat="46.4232807996009" lon="11.177876328378463"><ele>1283.0</ele><time>2026-04-17T11:33:15Z</time></trkpt><trkpt lat="46.423248133780554" lon="11.177683346313383"><ele>1283.0</ele><time>2026-04-17T11:33:16Z</time></trkpt><trkpt lat="46.42322841110683" lon="11.177465797615284"><ele>1283.0</ele><time>2026-04-17T11:33:17Z</time></trkpt><trkpt lat="46.42321730396478" lon="11.177244733353273"><ele>1283.0</ele><time>2026-04-17T11:33:18Z</time></trkpt><trkpt lat="46.423185649203866" lon="11.177055651269049"><ele>1281.25</ele><time>2026-04-17T11:33:19Z</time></trkpt><trkpt lat="46.4231125216886" lon="11.17688717604929"><ele>1279.5</ele><time>2026-04-17T11:33:20Z</time></trkpt><trkpt lat="46.423007431205264" lon="11.176738540855569"><ele>1277.75</ele><time>2026-04-17T11:33:21Z</time></trkpt><trkpt lat="46.42288286918909" lon="11.176619821393567"><ele>1276.0</ele><time>2026-04-17T11:33:22Z</time></trkpt><trkpt lat="46.42274096441844" lon="11.176493769892598"><ele>1285.0</ele><time>2026-04-17T11:33:23Z</time></trkpt><trkpt lat="46.42257752301918" lon="11.176365516016439"><ele>1294.0</ele><time>2026-04-17T11:33:24Z</time></trkpt><trkpt lat="46.4224231056208" lon="11.176226502507754"><ele>1303.0</ele><time>2026-04-17T11:33:25Z</time></trkpt><trkpt lat="46.422262056960626" lon="11.17610341192305"><ele>1292.5</ele><time>2026-04-17T11:33:26Z</time></trkpt><trkpt lat="46.42205716368309" lon="11.17597965619301"><ele>1282.0</ele><time>2026-04-17T11:33:27Z</time></trkpt><trkpt lat="46.4218388538967" lon="11.175869446153868"><ele>1282.0</ele><time>2026-04-17T11:33:28Z</time></trkpt><trkpt lat="46.42163295431003" lon="11.17574269692476"><ele>1282.0</ele><time>2026-04-17T11:33:29Z</time></trkpt><trkpt lat="46.42144668074492" lon="11.17563315658725"><ele>1282.0</ele><time>2026-04-17T11:33:30Z</time></trkpt><trkpt lat="46.42126728846017" lon="11.175542279459096"><ele>1284.0</ele><time>2026-04-17T11:33:31Z</time></trkpt><trkpt lat="46.42108592374598" lon="11.17543518227699"><ele>1286.0</ele><time>2026-04-17T11:33:32Z</time></trkpt><trkpt lat="46.420909990655815" lon="11.175299114246416"><ele>1288.0</ele><time>2026-04-17T11:33:33Z</time></trkpt><trkpt lat="46.42074547039412" lon="11.175151427961302"><ele>1288.0</ele><time>2026-04-17T11:33:34Z</time></trkpt><trkpt lat="46.42057149407484" lon="11.174972126196359"><ele>1288.0</ele><time>2026-04-17T11:33:35Z</time></trkpt><trkpt lat="46.42039748648496" lon="11.174758537943681"><ele>1288.0</ele><time>2026-04-17T11:33:36Z</time></trkpt><trkpt lat="46.42022059738455" lon="11.17455863429956"><ele>1286.0</ele><time>2026-04-17T11:33:37Z</time></trkpt><trkpt lat="46.420062133337915" lon="11.174368937940377"><ele>1284.0</ele><time>2026-04-17T11:33:38Z</time></trkpt><trkpt lat="46.41990521403626" lon="11.174208232803107"><ele>1282.0</ele><time>2026-04-17T11:33:39Z</time></trkpt><trkpt lat="46.41976227192303" lon="11.174082730519592"><ele>1277.0</ele><time>2026-04-17T11:33:40Z</time></trkpt><trkpt lat="46.41962376694591" lon="11.17395649742303"><ele>1272.0</ele><time>2026-04-17T11:33:41Z</time></trkpt><trkpt lat="46.4195123024057" lon="11.173827228618935"><ele>1267.0</ele><time>2026-04-17T11:33:42Z</time></trkpt><trkpt lat="46.419421882904004" lon="11.17367247283234"><ele>1262.0</ele><time>2026-04-17T11:33:43Z</time></trkpt><trkpt lat="46.4193574150477" lon="11.173490516521094"><ele>1262.0</ele><time>2026-04-17T11:33:44Z</time></trkpt><trkpt lat="46.419309369379185" lon="11.173295629850921"><ele>1262.0</ele><time>2026-04-17T11:33:45Z</time></trkpt><trkpt lat="46.419290673343674" lon="11.173070639972627"><ele>1262.0</ele><time>2026-04-17T11:33:46Z</time></trkpt><trkpt lat="46.419283360508494" lon="11.172814780833713"><ele>1263.6666666666667</ele><time>2026-04-17T11:33:47Z</time></trkpt><trkpt lat="46.41927969165389" lon="11.172556151328022"><ele>1265.3333333333333</ele><time>2026-04-17T11:33:48Z</time></trkpt><trkpt lat="46.41928134704401" lon="11.172253356854307"><ele>1267.0</ele><time>2026-04-17T11:33:49Z</time></trkpt><trkpt lat="46.41929222688313" lon="11.171985046977511"><ele>1267.0</ele><time>2026-04-17T11:33:50Z</time></trkpt><trkpt lat="46.419300906689045" lon="11.171758013814074"><ele>1267.0</ele><time>2026-04-17T11:33:51Z</time></trkpt><trkpt lat="46.41929254187407" lon="11.171561038391971"><ele>1267.0</ele><time>2026-04-17T11:33:52Z</time></trkpt><trkpt lat="46.41925355484974" lon="11.171376756199434"><ele>1267.0</ele><time>2026-04-17T11:33:53Z</time></trkpt><trkpt lat="46.41918823895839" lon="11.171218322045988"><ele>1269.3333333333333</ele><time>2026-04-17T11:33:54Z</time></trkpt><trkpt lat="46.41909269862273" lon="11.171072373091516"><ele>1271.6666666666667</ele><time>2026-04-17T11:33:55Z</time></trkpt><trkpt lat="46.41896688670184" lon="11.17094271662872"><ele>1274.0</ele><time>2026-04-17T11:33:56Z</time></trkpt><trkpt lat="46.41881124903849" lon="11.170829046729457"><ele>1270.3333333333335</ele><time>2026-04-17T11:33:57Z</time></trkpt><trkpt lat="46.41867096525373" lon="11.170738406745226"><ele>1266.6666666666667</ele><time>2026-04-17T11:33:58Z</time></trkpt><trkpt lat="46.41852883559335" lon="11.170640251264446"><ele>1263.0</ele><time>2026-04-17T11:33:59Z</time></trkpt><trkpt lat="46.41840931624502" lon="11.170506976210199"><ele>1263.0</ele><time>2026-04-17T11:34:00Z</time></trkpt><trkpt lat="46.41830790143032" lon="11.170345624472693"><ele>1263.0</ele><time>2026-04-17T11:34:01Z</time></trkpt><trkpt lat="46.418222134198004" lon="11.170144951416237"><ele>1263.0</ele><time>2026-04-17T11:34:02Z</time></trkpt><trkpt lat="46.41816591411574" lon="11.169970486173664"><ele>1263.0</ele><time>2026-04-17T11:34:03Z</time></trkpt><trkpt lat="46.41813454513556" lon="11.169824921458249"><ele>1262.5</ele><time>2026-04-17T11:34:04Z</time></trkpt><trkpt lat="46.41811809907216" lon="11.169672740857036"><ele>1262.0</ele><time>2026-04-17T11:34:05Z</time></trkpt><trkpt lat="46.41814752888615" lon="11.169504578978522"><ele>1261.5</ele><time>2026-04-17T11:34:06Z</time></trkpt><trkpt lat="46.4182049660758" lon="11.16931130125866"><ele>1261.0</ele><time>2026-04-17T11:34:07Z</time></trkpt><trkpt lat="46.418273231694414" lon="11.16909701418706"><ele>1260.0</ele><time>2026-04-17T11:34:08Z</time></trkpt><trkpt lat="46.41833031482648" lon="11.168873618811613"><ele>1259.0</ele><time>2026-04-17T11:34:09Z</time></trkpt><trkpt lat="46.41838676548194" lon="11.168677045355498"><ele>1258.0</ele><time>2026-04-17T11:34:10Z</time></trkpt><trkpt lat="46.418454852650136" lon="11.168488840022523"><ele>1258.0</ele><time>2026-04-17T11:34:11Z</time></trkpt><trkpt lat="46.41854857232452" lon="11.168295216656045"><ele>1258.0</ele><time>2026-04-17T11:34:12Z</time></trkpt><trkpt lat="46.418662925310905" lon="11.168114972213543"><ele>1258.0</ele><time>2026-04-17T11:34:13Z</time></trkpt><trkpt lat="46.41875926363233" lon="11.167944731662656"><ele>1259.0</ele><time>2026-04-17T11:34:14Z</time></trkpt><trkpt lat="46.41882647077418" lon="11.167765966058964"><ele>1260.0</ele><time>2026-04-17T11:34:15Z</time></trkpt><trkpt lat="46.418855659986015" lon="11.167571635973044"><ele>1261.0</ele><time>2026-04-17T11:34:16Z</time></trkpt><trkpt lat="46.41884484546994" lon="11.167381198569663"><ele>1262.0</ele><time>2026-04-17T11:34:17Z</time></trkpt><trkpt lat="46.41880195616722" lon="11.167200267325786"><ele>1262.0</ele><time>2026-04-17T11:34:18Z</time></trkpt><trkpt lat="46.418728545047934" lon="11.167041001219161"><ele>1262.0</ele><time>2026-04-17T11:34:19Z</time></trkpt><trkpt lat="46.41863183875359" lon="11.166921088643017"><ele>1262.0</ele><time>2026-04-17T11:34:20Z</time></trkpt><trkpt lat="46.41850245727377" lon="11.166850604754568"><ele>1262.0</ele><time>2026-04-17T11:34:21Z</time></trkpt><trkpt lat="46.418347021150446" lon="11.166791193383935"><ele>1262.0</ele><time>2026-04-17T11:34:22Z</time></trkpt><trkpt lat="46.41817690103259" lon="11.166731343875368"><ele>1262.0</ele><time>2026-04-17T11:34:23Z</time></trkpt><trkpt lat="46.41804993565574" lon="11.166658845328142"><ele>1262.0</ele><time>2026-04-17T11:34:24Z</time></trkpt><trkpt lat="46.41791164635068" lon="11.166551298773777"><ele>1258.0</ele><time>2026-04-17T11:34:25Z</time></trkpt><trkpt lat="46.41778825075465" lon="11.166389067050815"><ele>1254.0</ele><time>2026-04-17T11:34:26Z</time></trkpt><trkpt lat="46.41768153840912" lon="11.166211228168264"><ele>1250.0</ele><time>2026-04-17T11:34:27Z</time></trkpt><trkpt lat="46.41760592307067" lon="11.166047869349928"><ele>1250.0</ele><time>2026-04-17T11:34:28Z</time></trkpt><trkpt lat="46.41756258572684" lon="11.16587779172629"><ele>1250.0</ele><time>2026-04-17T11:34:29Z</time></trkpt><trkpt lat="46.41754758586543" lon="11.165684609075573"><ele>1250.0</ele><time>2026-04-17T11:34:30Z</time></trkpt><trkpt lat="46.41755932558813" lon="11.165478459391482"><ele>1250.0</ele><time>2026-04-17T11:34:31Z</time></trkpt><trkpt lat="46.41759592345732" lon="11.165289339454427"><ele>1250.5</ele><time>2026-04-17T11:34:32Z</time></trkpt><trkpt lat="46.41764575767915" lon="11.165127051915611"><ele>1251.0</ele><time>2026-04-17T11:34:33Z</time></trkpt><trkpt lat="46.41772780640806" lon="11.164986032417085"><ele>1251.5</ele><time>2026-04-17T11:34:34Z</time></trkpt><trkpt lat="46.417824206724596" lon="11.164884939992474"><ele>1252.0</ele><time>2026-04-17T11:34:35Z</time></trkpt><trkpt lat="46.417940792237324" lon="11.164819400798342"><ele>1250.0</ele><time>2026-04-17T11:34:36Z</time></trkpt><trkpt lat="46.41806975889352" lon="11.164798905164202"><ele>1248.0</ele><time>2026-04-17T11:34:37Z</time></trkpt><trkpt lat="46.41820486450648" lon="11.16480640590717"><ele>1246.0</ele><time>2026-04-17T11:34:38Z</time></trkpt><trkpt lat="46.41836524204104" lon="11.164833495018094"><ele>1244.0</ele><time>2026-04-17T11:34:39Z</time></trkpt><trkpt lat="46.41853099474861" lon="11.164828075471334"><ele>1244.0</ele><time>2026-04-17T11:34:40Z</time></trkpt><trkpt lat="46.41867357346014" lon="11.16479635816351"><ele>1244.0</ele><time>2026-04-17T11:34:41Z</time></trkpt><trkpt lat="46.418802831754" lon="11.164732005016887"><ele>1244.0</ele><time>2026-04-17T11:34:42.001Z</time></trkpt><trkpt lat="46.418906805466875" lon="11.164620591488463"><ele>1244.0</ele><time>2026-04-17T11:34:43.001Z</time></trkpt><trkpt lat="46.419011185556926" lon="11.164486168643002"><ele>1244.75</ele><time>2026-04-17T11:34:44.001Z</time></trkpt><trkpt lat="46.419090665945326" lon="11.16431138247083"><ele>1245.5</ele><time>2026-04-17T11:34:45.001Z</time></trkpt><trkpt lat="46.419146299227954" lon="11.164121218892936"><ele>1246.25</ele><time>2026-04-17T11:34:46.001Z</time></trkpt><trkpt lat="46.41916949014321" lon="11.163919556883586"><ele>1247.0</ele><time>2026-04-17T11:34:47.001Z</time></trkpt><trkpt lat="46.41917885268175" lon="11.163679480734606"><ele>1245.5</ele><time>2026-04-17T11:34:48.001Z</time></trkpt><trkpt lat="46.419169340525585" lon="11.163456421678196"><ele>1244.0</ele><time>2026-04-17T11:34:49.001Z</time></trkpt><trkpt lat="46.41916687275984" lon="11.1632978594981"><ele>1242.5</ele><time>2026-04-17T11:34:50.001Z</time></trkpt><trkpt lat="46.41917461135982" lon="11.163156105823722"><ele>1241.0</ele><time>2026-04-17T11:34:51.001Z</time></trkpt><trkpt lat="46.41921640131043" lon="11.163004101553565"><ele>1238.25</ele><time>2026-04-17T11:34:52.001Z</time></trkpt><trkpt lat="46.419288722783854" lon="11.16286684391824"><ele>1235.5</ele><time>2026-04-17T11:34:53.001Z</time></trkpt><trkpt lat="46.41940298548814" lon="11.162727826589485"><ele>1232.75</ele><time>2026-04-17T11:34:54.001Z</time></trkpt><trkpt lat="46.41951060168308" lon="11.162586862989464"><ele>1230.0</ele><time>2026-04-17T11:34:55.001Z</time></trkpt><trkpt lat="46.419600061100525" lon="11.16245552482557"><ele>1229.2</ele><time>2026-04-17T11:34:56.001Z</time></trkpt><trkpt lat="46.419679893937115" lon="11.162348011781871"><ele>1228.4</ele><time>2026-04-17T11:34:57.001Z</time></trkpt><trkpt lat="46.41975595750827" lon="11.162270734648176"><ele>1227.6</ele><time>2026-04-17T11:34:58.001Z</time></trkpt><trkpt lat="46.41985437653267" lon="11.162230027393027"><ele>1226.8</ele><time>2026-04-17T11:34:59.001Z</time></trkpt><trkpt lat="46.41997117052597" lon="11.162230489854934"><ele>1226.0</ele><time>2026-04-17T11:35:00.001Z</time></trkpt><trkpt lat="46.420095030764784" lon="11.162250343350806"><ele>1226.0</ele><time>2026-04-17T11:35:01.001Z</time></trkpt><trkpt lat="46.42021160920812" lon="11.16223519508056"><ele>1226.0</ele><time>2026-04-17T11:35:02.001Z</time></trkpt><trkpt lat="46.42031407059719" lon="11.16215994348031"><ele>1226.0</ele><time>2026-04-17T11:35:03.001Z</time></trkpt><trkpt lat="46.42038339607928" lon="11.162041472826711"><ele>1226.0</ele><time>2026-04-17T11:35:04.001Z</time></trkpt><trkpt lat="46.420417622212724" lon="11.161885775238582"><ele>1226.0</ele><time>2026-04-17T11:35:05.001Z</time></trkpt><trkpt lat="46.42044351024681" lon="11.161722305150311"><ele>1226.0</ele><time>2026-04-17T11:35:06.001Z</time></trkpt><trkpt lat="46.420457962594305" lon="11.161577346818131"><ele>1226.0</ele><time>2026-04-17T11:35:07.001Z</time></trkpt><trkpt lat="46.420481032277436" lon="11.161445792892497"><ele>1226.0</ele><time>2026-04-17T11:35:08.001Z</time></trkpt><trkpt lat="46.42052476589418" lon="11.16131835242934"><ele>1226.0</ele><time>2026-04-17T11:35:09.001Z</time></trkpt><trkpt lat="46.42059046965295" lon="11.161218743925533"><ele>1224.0</ele><time>2026-04-17T11:35:10.001Z</time></trkpt><trkpt lat="46.4206684546455" lon="11.161144505598564"><ele>1222.0</ele><time>2026-04-17T11:35:11.001Z</time></trkpt><trkpt lat="46.420767681671045" lon="11.161092559935675"><ele>1220.0</ele><time>2026-04-17T11:35:12.001Z</time></trkpt><trkpt lat="46.42089266521984" lon="11.161058570369043"><ele>1218.0</ele><time>2026-04-17T11:35:13.001Z</time></trkpt><trkpt lat="46.42100843505504" lon="11.161035812358193"><ele>1216.0</ele><time>2026-04-17T11:35:14.001Z</time></trkpt><trkpt lat="46.42111283515687" lon="11.16101732244695"><ele>1216.0</ele><time>2026-04-17T11:35:15.001Z</time></trkpt><trkpt lat="46.42122492379979" lon="11.161000287689404"><ele>1216.0</ele><time>2026-04-17T11:35:16.001Z</time></trkpt><trkpt lat="46.42134425152089" lon="11.161019618864271"><ele>1216.0</ele><time>2026-04-17T11:35:17.001Z</time></trkpt><trkpt lat="46.42144797187612" lon="11.161064086296534"><ele>1216.0</ele><time>2026-04-17T11:35:18.001Z</time></trkpt><trkpt lat="46.42155769905604" lon="11.161120833442606"><ele>1215.5</ele><time>2026-04-17T11:35:19.001Z</time></trkpt><trkpt lat="46.421683017842234" lon="11.161158416231103"><ele>1215.0</ele><time>2026-04-17T11:35:20.001Z</time></trkpt><trkpt lat="46.42181080128844" lon="11.16114928368785"><ele>1214.5</ele><time>2026-04-17T11:35:21.001Z</time></trkpt><trkpt lat="46.42192092300056" lon="11.161087333649226"><ele>1214.0</ele><time>2026-04-17T11:35:22.001Z</time></trkpt><trkpt lat="46.42201538822176" lon="11.1609881261201"><ele>1214.0</ele><time>2026-04-17T11:35:23.001Z</time></trkpt><trkpt lat="46.42210018010304" lon="11.160906206740844"><ele>1214.0</ele><time>2026-04-17T11:35:24.001Z</time></trkpt><trkpt lat="46.42219743427143" lon="11.160865413615848"><ele>1214.0</ele><time>2026-04-17T11:35:25.001Z</time></trkpt><trkpt lat="46.422303792258354" lon="11.160861551482235"><ele>1214.0</ele><time>2026-04-17T11:35:26.001Z</time></trkpt><trkpt lat="46.422413410085596" lon="11.160888198057117"><ele>1214.0</ele><time>2026-04-17T11:35:27.001Z</time></trkpt><trkpt lat="46.42252485154841" lon="11.160903657275572"><ele>1213.4</ele><time>2026-04-17T11:35:28.001Z</time></trkpt><trkpt lat="46.42263052020529" lon="11.160871244801848"><ele>1212.8000000000002</ele><time>2026-04-17T11:35:29.001Z</time></trkpt><trkpt lat="46.42272212977326" lon="11.160795012516784"><ele>1212.1999999999998</ele><time>2026-04-17T11:35:30.001Z</time></trkpt><trkpt lat="46.4227964870296" lon="11.160700109765939"><ele>1211.6</ele><time>2026-04-17T11:35:31.001Z</time></trkpt><trkpt lat="46.42286879432755" lon="11.16060684421264"><ele>1211.0</ele><time>2026-04-17T11:35:32.001Z</time></trkpt><trkpt lat="46.422948756181896" lon="11.160509201668194"><ele>1207.0</ele><time>2026-04-17T11:35:33.001Z</time></trkpt><trkpt lat="46.42304859066542" lon="11.16042083148695"><ele>1203.0</ele><time>2026-04-17T11:35:34.001Z</time></trkpt><trkpt lat="46.423155375353794" lon="11.160353139370322"><ele>1199.0</ele><time>2026-04-17T11:35:35.001Z</time></trkpt><trkpt lat="46.423278770804416" lon="11.160300197340526"><ele>1195.0</ele><time>2026-04-17T11:35:36.001Z</time></trkpt><trkpt lat="46.42339644071597" lon="11.16026597491535"><ele>1195.0</ele><time>2026-04-17T11:35:37.001Z</time></trkpt><trkpt lat="46.4235121784439" lon="11.160232098812813"><ele>1195.0</ele><time>2026-04-17T11:35:38.001Z</time></trkpt><trkpt lat="46.423635398630864" lon="11.160196738501497"><ele>1195.0</ele><time>2026-04-17T11:35:39.001Z</time></trkpt><trkpt lat="46.423760707262176" lon="11.160170137441522"><ele>1195.0</ele><time>2026-04-17T11:35:40.001Z</time></trkpt><trkpt lat="46.42388368505824" lon="11.160154505514303"><ele>1193.75</ele><time>2026-04-17T11:35:41.001Z</time></trkpt><trkpt lat="46.424013780238305" lon="11.160150398839887"><ele>1192.5</ele><time>2026-04-17T11:35:42.001Z</time></trkpt><trkpt lat="46.42415033732943" lon="11.160165799505172"><ele>1191.25</ele><time>2026-04-17T11:35:43.001Z</time></trkpt><trkpt lat="46.42427211795629" lon="11.160206663199723"><ele>1190.0</ele><time>2026-04-17T11:35:44.001Z</time></trkpt><trkpt lat="46.4243708912465" lon="11.16025952888055"><ele>1190.0</ele><time>2026-04-17T11:35:45.001Z</time></trkpt><trkpt lat="46.42446187478579" lon="11.160324107770204"><ele>1190.0</ele><time>2026-04-17T11:35:46.001Z</time></trkpt><trkpt lat="46.424529752537296" lon="11.160371921347727"><ele>1190.0</ele><time>2026-04-17T11:35:47.001Z</time></trkpt><trkpt lat="46.42460268007305" lon="11.16041022545851"><ele>1190.0</ele><time>2026-04-17T11:35:49.001Z</time></trkpt><trkpt lat="46.42479266693224" lon="11.160268469641386"><ele>1189.2</ele><time>2026-04-17T11:38:08Z</time></trkpt><trkpt lat="46.424878484003884" lon="11.160263331157358"><ele>1188.4</ele><time>2026-04-17T11:38:09Z</time></trkpt><trkpt lat="46.42497508249084" lon="11.160324186055163"><ele>1187.6</ele><time>2026-04-17T11:38:10Z</time></trkpt><trkpt lat="46.42507796944765" lon="11.160316448840447"><ele>1186.8</ele><time>2026-04-17T11:38:11Z</time></trkpt><trkpt lat="46.42519870788825" lon="11.160306971404571"><ele>1186.0</ele><time>2026-04-17T11:38:12Z</time></trkpt><trkpt lat="46.42532263153659" lon="11.16029707786888"><ele>1186.0</ele><time>2026-04-17T11:38:13Z</time></trkpt><trkpt lat="46.42544307987561" lon="11.160276469198475"><ele>1186.0</ele><time>2026-04-17T11:38:14Z</time></trkpt><trkpt lat="46.42556760902156" lon="11.160224351338087"><ele>1186.0</ele><time>2026-04-17T11:38:15Z</time></trkpt><trkpt lat="46.4256938831714" lon="11.16013253902986"><ele>1186.0</ele><time>2026-04-17T11:38:16Z</time></trkpt><trkpt lat="46.42580015971803" lon="11.159988704285446"><ele>1181.0</ele><time>2026-04-17T11:38:17Z</time></trkpt><trkpt lat="46.42590663452497" lon="11.159844916662568"><ele>1176.0</ele><time>2026-04-17T11:38:18Z</time></trkpt><trkpt lat="46.426010859362044" lon="11.159693812236162"><ele>1171.0</ele><time>2026-04-17T11:38:19Z</time></trkpt><trkpt lat="46.42611770053561" lon="11.159544923526644"><ele>1166.0</ele><time>2026-04-17T11:38:20Z</time></trkpt><trkpt lat="46.42622082712165" lon="11.159391566068372"><ele>1165.3333333333335</ele><time>2026-04-17T11:38:21Z</time></trkpt><trkpt lat="46.42633839707541" lon="11.159256219404028"><ele>1164.6666666666667</ele><time>2026-04-17T11:38:22Z</time></trkpt><trkpt lat="46.42644797348275" lon="11.159104882775079"><ele>1164.0</ele><time>2026-04-17T11:38:23Z</time></trkpt><trkpt lat="46.42653925742037" lon="11.158922001762006"><ele>1164.0</ele><time>2026-04-17T11:38:24Z</time></trkpt><trkpt lat="46.426638328982705" lon="11.158726380736507"><ele>1164.0</ele><time>2026-04-17T11:38:25Z</time></trkpt><trkpt lat="46.426734181146045" lon="11.15851949704887"><ele>1164.0</ele><time>2026-04-17T11:38:26Z</time></trkpt><trkpt lat="46.42683059482638" lon="11.15833078041264"><ele>1163.0</ele><time>2026-04-17T11:38:27Z</time></trkpt><trkpt lat="46.42691432184018" lon="11.158151373614762"><ele>1162.0</ele><time>2026-04-17T11:38:28Z</time></trkpt><trkpt lat="46.42700966560952" lon="11.158005190010176"><ele>1161.0</ele><time>2026-04-17T11:38:29Z</time></trkpt><trkpt lat="46.42712340873705" lon="11.157881413711861"><ele>1160.0</ele><time>2026-04-17T11:38:30Z</time></trkpt><trkpt lat="46.427264284299625" lon="11.15777984701102"><ele>1159.3333333333335</ele><time>2026-04-17T11:38:31Z</time></trkpt><trkpt lat="46.42743048630103" lon="11.157648379311773"><ele>1158.6666666666667</ele><time>2026-04-17T11:38:32Z</time></trkpt><trkpt lat="46.42760759787038" lon="11.157538333642705"><ele>1158.0</ele><time>2026-04-17T11:38:33Z</time></trkpt><trkpt lat="46.42776195620652" lon="11.157427660181323"><ele>1154.0</ele><time>2026-04-17T11:38:34Z</time></trkpt><trkpt lat="46.427924835365175" lon="11.157326541986299"><ele>1150.0</ele><time>2026-04-17T11:38:35Z</time></trkpt><trkpt lat="46.42807469142429" lon="11.15722251223132"><ele>1146.0</ele><time>2026-04-17T11:38:36Z</time></trkpt><trkpt lat="46.42821805352018" lon="11.157141070024839"><ele>1146.0</ele><time>2026-04-17T11:38:37Z</time></trkpt><trkpt lat="46.42835160568094" lon="11.157082287167166"><ele>1146.0</ele><time>2026-04-17T11:38:38Z</time></trkpt><trkpt lat="46.42848787648762" lon="11.157035319116462"><ele>1146.0</ele><time>2026-04-17T11:38:39Z</time></trkpt><trkpt lat="46.42862903236875" lon="11.156994291458805"><ele>1146.0</ele><time>2026-04-17T11:38:40Z</time></trkpt><trkpt lat="46.428775023055955" lon="11.156945680850058"><ele>1147.0</ele><time>2026-04-17T11:38:41Z</time></trkpt><trkpt lat="46.42891885148647" lon="11.156872375963838"><ele>1148.0</ele><time>2026-04-17T11:38:42Z</time></trkpt><trkpt lat="46.429044225730145" lon="11.156793052194805"><ele>1149.0</ele><time>2026-04-17T11:38:43Z</time></trkpt><trkpt lat="46.42916533835455" lon="11.156736390341845"><ele>1150.0</ele><time>2026-04-17T11:38:44Z</time></trkpt><trkpt lat="46.42928742130114" lon="11.156709836473565"><ele>1150.0</ele><time>2026-04-17T11:38:45Z</time></trkpt><trkpt lat="46.429407483861375" lon="11.156707863690556"><ele>1150.0</ele><time>2026-04-17T11:38:46Z</time></trkpt><trkpt lat="46.429529357920735" lon="11.15672443651814"><ele>1150.0</ele><time>2026-04-17T11:38:47Z</time></trkpt><trkpt lat="46.429641573904476" lon="11.156743046981703"><ele>1150.0</ele><time>2026-04-17T11:38:48Z</time></trkpt><trkpt lat="46.42974040001295" lon="11.156759145324376"><ele>1149.6666666666665</ele><time>2026-04-17T11:38:49Z</time></trkpt><trkpt lat="46.42981008383232" lon="11.15675671213804"><ele>1149.3333333333333</ele><time>2026-04-17T11:38:50Z</time></trkpt><trkpt lat="46.429873550872024" lon="11.156715395694839"><ele>1149.0</ele><time>2026-04-17T11:38:51Z</time></trkpt><trkpt lat="46.42991434763329" lon="11.156636328416653"><ele>1148.6666666666667</ele><time>2026-04-17T11:38:52Z</time></trkpt><trkpt lat="46.42991953252776" lon="11.15652972820316"><ele>1148.3333333333335</ele><time>2026-04-17T11:38:53Z</time></trkpt><trkpt lat="46.42987989032488" lon="11.156429033485216"><ele>1148.0</ele><time>2026-04-17T11:38:54Z</time></trkpt><trkpt lat="46.4298087753382" lon="11.156348329127635"><ele>1146.25</ele><time>2026-04-17T11:38:55Z</time></trkpt><trkpt lat="46.42971268464364" lon="11.15626165056764"><ele>1144.5</ele><time>2026-04-17T11:38:56Z</time></trkpt><trkpt lat="46.42962137229849" lon="11.156174817912783"><ele>1142.75</ele><time>2026-04-17T11:38:57Z</time></trkpt><trkpt lat="46.42952649669833" lon="11.156078156488885"><ele>1141.0</ele><time>2026-04-17T11:38:58Z</time></trkpt><trkpt lat="46.429423299179376" lon="11.155974636173367"><ele>1141.0</ele><time>2026-04-17T11:38:59.001Z</time></trkpt><trkpt lat="46.429309592172025" lon="11.155867523600325"><ele>1141.0</ele><time>2026-04-17T11:39:00.001Z</time></trkpt><trkpt lat="46.42917536459784" lon="11.155744860582926"><ele>1141.0</ele><time>2026-04-17T11:39:01.001Z</time></trkpt><trkpt lat="46.42905605580945" lon="11.155634703445374"><ele>1141.0</ele><time>2026-04-17T11:39:02.001Z</time></trkpt><trkpt lat="46.42894336229412" lon="11.155530616643068"><ele>1138.0</ele><time>2026-04-17T11:39:03.001Z</time></trkpt><trkpt lat="46.428840064681665" lon="11.155426666058961"><ele>1135.0</ele><time>2026-04-17T11:39:04.001Z</time></trkpt><trkpt lat="46.42873489784089" lon="11.155316193376436"><ele>1132.0</ele><time>2026-04-17T11:39:05.001Z</time></trkpt><trkpt lat="46.42860953151643" lon="11.15518677108746"><ele>1129.0</ele><time>2026-04-17T11:39:06.001Z</time></trkpt><trkpt lat="46.42848853844676" lon="11.155050503664965"><ele>1127.75</ele><time>2026-04-17T11:39:07.001Z</time></trkpt><trkpt lat="46.42840094470989" lon="11.154881271529133"><ele>1126.5</ele><time>2026-04-17T11:39:08.001Z</time></trkpt><trkpt lat="46.428298504773274" lon="11.154731556189864"><ele>1125.25</ele><time>2026-04-17T11:39:09.001Z</time></trkpt><trkpt lat="46.42821089973327" lon="11.154595397806792"><ele>1124.0</ele><time>2026-04-17T11:39:10.001Z</time></trkpt><trkpt lat="46.428103087802086" lon="11.15448121977667"><ele>1121.0</ele><time>2026-04-17T11:39:11.001Z</time></trkpt><trkpt lat="46.42798954417145" lon="11.15440657381763"><ele>1118.0</ele><time>2026-04-17T11:39:12.001Z</time></trkpt><trkpt lat="46.427861376717345" lon="11.154368506952427"><ele>1115.0</ele><time>2026-04-17T11:39:13.001Z</time></trkpt><trkpt lat="46.42771168661721" lon="11.154365706588356"><ele>1112.0</ele><time>2026-04-17T11:39:14.001Z</time></trkpt><trkpt lat="46.42753474517015" lon="11.154374384156103"><ele>1112.0</ele><time>2026-04-17T11:39:15.001Z</time></trkpt><trkpt lat="46.4273651855032" lon="11.154355021426223"><ele>1112.0</ele><time>2026-04-17T11:39:16.001Z</time></trkpt><trkpt lat="46.427216422708405" lon="11.154298369929274"><ele>1112.0</ele><time>2026-04-17T11:39:17.001Z</time></trkpt><trkpt lat="46.427060618573485" lon="11.154209482268396"><ele>1112.0</ele><time>2026-04-17T11:39:18.001Z</time></trkpt><trkpt lat="46.42690111816459" lon="11.154081705558578"><ele>1112.0</ele><time>2026-04-17T11:39:19.001Z</time></trkpt><trkpt lat="46.42674208594422" lon="11.153918277641731"><ele>1112.0</ele><time>2026-04-17T11:39:20.001Z</time></trkpt><trkpt lat="46.42658540397008" lon="11.153740545729862"><ele>1108.6666666666667</ele><time>2026-04-17T11:39:21.001Z</time></trkpt><trkpt lat="46.4264395673607" lon="11.153584840004777"><ele>1105.3333333333333</ele><time>2026-04-17T11:39:22.001Z</time></trkpt><trkpt lat="46.42629916408831" lon="11.153439512077576"><ele>1102.0</ele><time>2026-04-17T11:39:23.001Z</time></trkpt><trkpt lat="46.42615206224512" lon="11.153321742812112"><ele>1101.3333333333333</ele><time>2026-04-17T11:39:24.001Z</time></trkpt><trkpt lat="46.4259879002117" lon="11.153238801590419"><ele>1100.6666666666667</ele><time>2026-04-17T11:39:25.001Z</time></trkpt><trkpt lat="46.42580080172381" lon="11.153192391963897"><ele>1100.0</ele><time>2026-04-17T11:39:26.001Z</time></trkpt><trkpt lat="46.425616887909925" lon="11.153169487023007"><ele>1097.3333333333335</ele><time>2026-04-17T11:39:27.001Z</time></trkpt><trkpt lat="46.425436027592845" lon="11.153146533049387"><ele>1094.6666666666667</ele><time>2026-04-17T11:39:28Z</time></trkpt><trkpt lat="46.425285454989606" lon="11.153110805486424"><ele>1092.0</ele><time>2026-04-17T11:39:29Z</time></trkpt><trkpt lat="46.425141768225544" lon="11.153051541691285"><ele>1092.0</ele><time>2026-04-17T11:39:30Z</time></trkpt><trkpt lat="46.42500431143374" lon="11.152955339379881"><ele>1092.0</ele><time>2026-04-17T11:39:31Z</time></trkpt><trkpt lat="46.42488165607004" lon="11.152820641250516"><ele>1092.0</ele><time>2026-04-17T11:39:32Z</time></trkpt><trkpt lat="46.42477173631988" lon="11.152645060423309"><ele>1092.0</ele><time>2026-04-17T11:39:33Z</time></trkpt><trkpt lat="46.424660777384176" lon="11.15243015423291"><ele>1092.0</ele><time>2026-04-17T11:39:34Z</time></trkpt><trkpt lat="46.42454919768178" lon="11.152211961191888"><ele>1092.0</ele><time>2026-04-17T11:39:35Z</time></trkpt><trkpt lat="46.424444130829166" lon="11.152003779739925"><ele>1090.3333333333333</ele><time>2026-04-17T11:39:36Z</time></trkpt><trkpt lat="46.42433543975408" lon="11.15177002266909"><ele>1088.6666666666665</ele><time>2026-04-17T11:39:37Z</time></trkpt><trkpt lat="46.42423188489667" lon="11.151517829039003"><ele>1087.0</ele><time>2026-04-17T11:39:38Z</time></trkpt><trkpt lat="46.42414164547465" lon="11.151276857625268"><ele>1083.0</ele><time>2026-04-17T11:39:39Z</time></trkpt><trkpt lat="46.42404563643343" lon="11.151052526397338"><ele>1079.0</ele><time>2026-04-17T11:39:40Z</time></trkpt><trkpt lat="46.423922550204836" lon="11.150845424816461"><ele>1075.0</ele><time>2026-04-17T11:39:41Z</time></trkpt><trkpt lat="46.423771579024844" lon="11.15063508721545"><ele>1074.5</ele><time>2026-04-17T11:39:42Z</time></trkpt><trkpt lat="46.42360458864377" lon="11.150388626011422"><ele>1074.0</ele><time>2026-04-17T11:39:43Z</time></trkpt><trkpt lat="46.4234476176752" lon="11.15014481216333"><ele>1074.0</ele><time>2026-04-17T11:39:44Z</time></trkpt><trkpt lat="46.423290321083144" lon="11.149914594681606"><ele>1074.0</ele><time>2026-04-17T11:39:45Z</time></trkpt><trkpt lat="46.42313582493068" lon="11.14969124631872"><ele>1074.0</ele><time>2026-04-17T11:39:46Z</time></trkpt><trkpt lat="46.422998982813425" lon="11.149486818050603"><ele>1072.6666666666667</ele><time>2026-04-17T11:39:47Z</time></trkpt><trkpt lat="46.4228624141309" lon="11.149274421214106"><ele>1071.3333333333335</ele><time>2026-04-17T11:39:48Z</time></trkpt><trkpt lat="46.42274086033826" lon="11.149057107093565"><ele>1070.0</ele><time>2026-04-17T11:39:49Z</time></trkpt><trkpt lat="46.422628779482785" lon="11.14887238595803"><ele>1066.6666666666667</ele><time>2026-04-17T11:39:50Z</time></trkpt><trkpt lat="46.42251009429761" lon="11.148711509602634"><ele>1063.3333333333333</ele><time>2026-04-17T11:39:51Z</time></trkpt><trkpt lat="46.42237647869282" lon="11.148585315022894"><ele>1060.0</ele><time>2026-04-17T11:39:52Z</time></trkpt><trkpt lat="46.4222223058403" lon="11.148483873183439"><ele>1061.0</ele><time>2026-04-17T11:39:53Z</time></trkpt><trkpt lat="46.42203959941359" lon="11.148385996839888"><ele>1062.0</ele><time>2026-04-17T11:39:54Z</time></trkpt><trkpt lat="46.4218495007775" lon="11.148257627455111"><ele>1063.0</ele><time>2026-04-17T11:39:55Z</time></trkpt><trkpt lat="46.421653145962715" lon="11.148098061045449"><ele>1060.0</ele><time>2026-04-17T11:39:56Z</time></trkpt><trkpt lat="46.42146529842146" lon="11.147922729951066"><ele>1057.0</ele><time>2026-04-17T11:39:57Z</time></trkpt><trkpt lat="46.421283321298915" lon="11.147751912283272"><ele>1054.0</ele><time>2026-04-17T11:39:58Z</time></trkpt><trkpt lat="46.42108621799523" lon="11.147579890349482"><ele>1054.0</ele><time>2026-04-17T11:39:59Z</time></trkpt><trkpt lat="46.42090014603403" lon="11.147411959357653"><ele>1054.0</ele><time>2026-04-17T11:40:00Z</time></trkpt><trkpt lat="46.420710064439895" lon="11.147258478467313"><ele>1054.0</ele><time>2026-04-17T11:40:01Z</time></trkpt><trkpt lat="46.42050493018722" lon="11.147125349959088"><ele>1050.0</ele><time>2026-04-17T11:40:02Z</time></trkpt><trkpt lat="46.42028569591659" lon="11.147008264503462"><ele>1046.0</ele><time>2026-04-17T11:40:03Z</time></trkpt><trkpt lat="46.42008130942163" lon="11.146910384158096"><ele>1042.0</ele><time>2026-04-17T11:40:04Z</time></trkpt><trkpt lat="46.4199071620904" lon="11.146818965065599"><ele>1042.0</ele><time>2026-04-17T11:40:05Z</time></trkpt><trkpt lat="46.419754919389234" lon="11.146731251849777"><ele>1042.0</ele><time>2026-04-17T11:40:06Z</time></trkpt><trkpt lat="46.41960735072106" lon="11.146620496359896"><ele>1042.0</ele><time>2026-04-17T11:40:07Z</time></trkpt><trkpt lat="46.419475516414636" lon="11.146469350366113"><ele>1040.6666666666665</ele><time>2026-04-17T11:40:08Z</time></trkpt><trkpt lat="46.41934798085041" lon="11.146287818102417"><ele>1039.3333333333333</ele><time>2026-04-17T11:40:09Z</time></trkpt><trkpt lat="46.41920690443751" lon="11.14611140045501"><ele>1038.0</ele><time>2026-04-17T11:40:10Z</time></trkpt><trkpt lat="46.41902714791556" lon="11.145941292125745"><ele>1038.0</ele><time>2026-04-17T11:40:11Z</time></trkpt><trkpt lat="46.41882762379764" lon="11.145771904999796"><ele>1038.0</ele><time>2026-04-17T11:40:12Z</time></trkpt><trkpt lat="46.4186350700776" lon="11.145616863068613"><ele>1031.5</ele><time>2026-04-17T11:40:13Z</time></trkpt><trkpt lat="46.41842456346945" lon="11.145442269631822"><ele>1025.0</ele><time>2026-04-17T11:40:14Z</time></trkpt><trkpt lat="46.41821858132793" lon="11.145258895059598"><ele>1025.0</ele><time>2026-04-17T11:40:15Z</time></trkpt><trkpt lat="46.41801655602309" lon="11.145066313448837"><ele>1025.0</ele><time>2026-04-17T11:40:16Z</time></trkpt><trkpt lat="46.41781092399483" lon="11.144839385099397"><ele>1020.0</ele><time>2026-04-17T11:40:17Z</time></trkpt><trkpt lat="46.41761430733866" lon="11.144594106493406"><ele>1015.0</ele><time>2026-04-17T11:40:18Z</time></trkpt><trkpt lat="46.41743543996216" lon="11.144359947012836"><ele>1015.0</ele><time>2026-04-17T11:40:19Z</time></trkpt><trkpt lat="46.41727467547061" lon="11.144154166760488"><ele>1015.0</ele><time>2026-04-17T11:40:20Z</time></trkpt><trkpt lat="46.41714507954689" lon="11.143992505991001"><ele>1015.0</ele><time>2026-04-17T11:40:21Z</time></trkpt><trkpt lat="46.4170205490243" lon="11.143851699381988"><ele>1013.0</ele><time>2026-04-17T11:40:22Z</time></trkpt><trkpt lat="46.41688114555879" lon="11.143725625148381"><ele>1011.0</ele><time>2026-04-17T11:40:23Z</time></trkpt><trkpt lat="46.41672303963335" lon="11.143617296302983"><ele>1009.0</ele><time>2026-04-17T11:40:24Z</time></trkpt><trkpt lat="46.41653988315587" lon="11.143524435823386"><ele>1009.0</ele><time>2026-04-17T11:40:25Z</time></trkpt><trkpt lat="46.41633597512925" lon="11.143443179983263"><ele>1009.0</ele><time>2026-04-17T11:40:26Z</time></trkpt><trkpt lat="46.41613420917494" lon="11.143363654427025"><ele>1009.0</ele><time>2026-04-17T11:40:27Z</time></trkpt><trkpt lat="46.41594297970499" lon="11.143312670014778"><ele>1007.6666666666666</ele><time>2026-04-17T11:40:28Z</time></trkpt><trkpt lat="46.41574802575911" lon="11.143294570968179"><ele>1006.3333333333333</ele><time>2026-04-17T11:40:29Z</time></trkpt><trkpt lat="46.41557956349198" lon="11.143290512943285"><ele>1005.0</ele><time>2026-04-17T11:40:30Z</time></trkpt><trkpt lat="46.41543153817707" lon="11.143285508965176"><ele>1005.0</ele><time>2026-04-17T11:40:31Z</time></trkpt><trkpt lat="46.415300422470544" lon="11.143278150009182"><ele>1005.0</ele><time>2026-04-17T11:40:32Z</time></trkpt><trkpt lat="46.41518662749587" lon="11.14324651983781"><ele>1005.0</ele><time>2026-04-17T11:40:33Z</time></trkpt><trkpt lat="46.41509225921767" lon="11.143173639626166"><ele>1005.0</ele><time>2026-04-17T11:40:34Z</time></trkpt><trkpt lat="46.415005495446074" lon="11.143064947727991"><ele>1002.6666666666667</ele><time>2026-04-17T11:40:35Z</time></trkpt><trkpt lat="46.41492687995644" lon="11.142909203832533"><ele>1000.3333333333334</ele><time>2026-04-17T11:40:36Z</time></trkpt><trkpt lat="46.41484603661678" lon="11.142722119750625"><ele>998.0</ele><time>2026-04-17T11:40:37Z</time></trkpt><trkpt lat="46.4147486198604" lon="11.142505060491606"><ele>996.0</ele><time>2026-04-17T11:40:38Z</time></trkpt><trkpt lat="46.41465225891552" lon="11.142294789572478"><ele>994.0</ele><time>2026-04-17T11:40:39Z</time></trkpt><trkpt lat="46.41456631663346" lon="11.142112331743219"><ele>992.0</ele><time>2026-04-17T11:40:40Z</time></trkpt><trkpt lat="46.41447534244582" lon="11.14196757992956"><ele>992.0</ele><time>2026-04-17T11:40:41Z</time></trkpt><trkpt lat="46.414359254933444" lon="11.141851737538406"><ele>992.0</ele><time>2026-04-17T11:40:42Z</time></trkpt><trkpt lat="46.414206515000835" lon="11.141748324611187"><ele>992.0</ele><time>2026-04-17T11:40:43Z</time></trkpt><trkpt lat="46.414013187746036" lon="11.141637068786686"><ele>988.3333333333334</ele><time>2026-04-17T11:40:44Z</time></trkpt><trkpt lat="46.4138357928799" lon="11.141525717595773"><ele>984.6666666666667</ele><time>2026-04-17T11:40:45Z</time></trkpt><trkpt lat="46.41365369981554" lon="11.141406373777361"><ele>981.0</ele><time>2026-04-17T11:40:46Z</time></trkpt><trkpt lat="46.41345270042021" lon="11.141273878224155"><ele>981.0</ele><time>2026-04-17T11:40:47Z</time></trkpt><trkpt lat="46.41324269524616" lon="11.141125973818477"><ele>981.0</ele><time>2026-04-17T11:40:48Z</time></trkpt><trkpt lat="46.41302807157892" lon="11.140946707402627"><ele>979.5</ele><time>2026-04-17T11:40:49Z</time></trkpt><trkpt lat="46.41283017325194" lon="11.140761687784446"><ele>978.0</ele><time>2026-04-17T11:40:50Z</time></trkpt><trkpt lat="46.412616113856416" lon="11.140548555027141"><ele>978.0</ele><time>2026-04-17T11:40:51Z</time></trkpt><trkpt lat="46.41241480788426" lon="11.140360587096453"><ele>978.0</ele><time>2026-04-17T11:40:52Z</time></trkpt><trkpt lat="46.4122205088395" lon="11.14018454857116"><ele>978.3333333333333</ele><time>2026-04-17T11:40:53Z</time></trkpt><trkpt lat="46.41203012315635" lon="11.14000901035654"><ele>978.6666666666666</ele><time>2026-04-17T11:40:54Z</time></trkpt><trkpt lat="46.41185460049033" lon="11.139831485511822"><ele>979.0</ele><time>2026-04-17T11:40:55Z</time></trkpt><trkpt lat="46.4117091210861" lon="11.139646653470102"><ele>976.0</ele><time>2026-04-17T11:40:56Z</time></trkpt><trkpt lat="46.41158239378151" lon="11.139459534771671"><ele>973.0</ele><time>2026-04-17T11:40:57Z</time></trkpt><trkpt lat="46.411467584892236" lon="11.13930213056208"><ele>970.0</ele><time>2026-04-17T11:40:58Z</time></trkpt><trkpt lat="46.41136431799823" lon="11.139194100495121"><ele>970.4999999999999</ele><time>2026-04-17T11:40:59Z</time></trkpt><trkpt lat="46.41129221712095" lon="11.139099934353194"><ele>971.0</ele><time>2026-04-17T11:41:00Z</time></trkpt><trkpt lat="46.4112384046044" lon="11.138984613598268"><ele>971.5</ele><time>2026-04-17T11:41:01Z</time></trkpt><trkpt lat="46.41121249322133" lon="11.138876611523767"><ele>972.0</ele><time>2026-04-17T11:41:02Z</time></trkpt><trkpt lat="46.4112099472718" lon="11.138780806962801"><ele>972.4999999999999</ele><time>2026-04-17T11:41:03Z</time></trkpt><trkpt lat="46.411191413844904" lon="11.138624601781272"><ele>973.0</ele><time>2026-04-17T11:41:05.001Z</time></trkpt><trkpt lat="46.41114263633196" lon="11.13856134264275"><ele>973.0</ele><time>2026-04-17T11:41:06.001Z</time></trkpt><trkpt lat="46.41106852629455" lon="11.138531045714872"><ele>973.0</ele><time>2026-04-17T11:41:07.001Z</time></trkpt><trkpt lat="46.41097430871378" lon="11.138501447661545"><ele>973.0</ele><time>2026-04-17T11:41:08.001Z</time></trkpt><trkpt lat="46.41089291670024" lon="11.138453674885419"><ele>973.0</ele><time>2026-04-17T11:41:09.001Z</time></trkpt><trkpt lat="46.41080411098689" lon="11.138366148603772"><ele>973.0</ele><time>2026-04-17T11:41:10.001Z</time></trkpt><trkpt lat="46.41070851258276" lon="11.138248577015162"><ele>971.5</ele><time>2026-04-17T11:41:11.001Z</time></trkpt><trkpt lat="46.41064227148459" lon="11.138078661205975"><ele>970.0</ele><time>2026-04-17T11:41:12.001Z</time></trkpt><trkpt lat="46.41055215516916" lon="11.137951923460397"><ele>968.5</ele><time>2026-04-17T11:41:13.001Z</time></trkpt><trkpt lat="46.410468170474836" lon="11.13781220570191"><ele>967.0</ele><time>2026-04-17T11:41:14.001Z</time></trkpt><trkpt lat="46.41036845799395" lon="11.137707314728"><ele>967.0</ele><time>2026-04-17T11:41:15.001Z</time></trkpt><trkpt lat="46.41025637423775" lon="11.137648909920888"><ele>967.0</ele><time>2026-04-17T11:41:16.001Z</time></trkpt><trkpt lat="46.410127823962505" lon="11.137622959548933"><ele>967.0</ele><time>2026-04-17T11:41:17.001Z</time></trkpt><trkpt lat="46.40997893601988" lon="11.137604422994004"><ele>967.0</ele><time>2026-04-17T11:41:18.001Z</time></trkpt><trkpt lat="46.40982315147099" lon="11.13759209797216"><ele>967.0</ele><time>2026-04-17T11:41:19.001Z</time></trkpt><trkpt lat="46.40968217965284" lon="11.137587099835864"><ele>967.0</ele><time>2026-04-17T11:41:20.001Z</time></trkpt><trkpt lat="46.409550858295745" lon="11.137579201494088"><ele>967.0</ele><time>2026-04-17T11:41:21Z</time></trkpt><trkpt lat="46.40941904101148" lon="11.137550338741653"><ele>967.0</ele><time>2026-04-17T11:41:22Z</time></trkpt><trkpt lat="46.409283614097475" lon="11.137477916895511"><ele>967.0</ele><time>2026-04-17T11:41:23Z</time></trkpt><trkpt lat="46.409155329106824" lon="11.137420318642999"><ele>967.0</ele><time>2026-04-17T11:41:24Z</time></trkpt><trkpt lat="46.409019902618724" lon="11.137379044375285"><ele>967.0</ele><time>2026-04-17T11:41:25Z</time></trkpt><trkpt lat="46.408873414800816" lon="11.137353158977131"><ele>967.0</ele><time>2026-04-17T11:41:26Z</time></trkpt><trkpt lat="46.40870540191771" lon="11.137314461920298"><ele>969.0</ele><time>2026-04-17T11:41:27Z</time></trkpt><trkpt lat="46.40853363159783" lon="11.13725984804023"><ele>971.0</ele><time>2026-04-17T11:41:28Z</time></trkpt><trkpt lat="46.408390781484954" lon="11.137194155932102"><ele>973.0</ele><time>2026-04-17T11:41:29Z</time></trkpt><trkpt lat="46.40825342546407" lon="11.13711089540692"><ele>973.0</ele><time>2026-04-17T11:41:30Z</time></trkpt><trkpt lat="46.40813028077096" lon="11.137034117154949"><ele>973.0</ele><time>2026-04-17T11:41:31Z</time></trkpt><trkpt lat="46.40802059832665" lon="11.136956266890442"><ele>973.0</ele><time>2026-04-17T11:41:32Z</time></trkpt><trkpt lat="46.407914017315655" lon="11.136917213631325"><ele>973.0</ele><time>2026-04-17T11:41:33Z</time></trkpt><trkpt lat="46.407789099023816" lon="11.136899280927524"><ele>972.4</ele><time>2026-04-17T11:41:34Z</time></trkpt><trkpt lat="46.407672357239235" lon="11.136900498005257"><ele>971.8</ele><time>2026-04-17T11:41:35Z</time></trkpt><trkpt lat="46.40755774142819" lon="11.136922183629075"><ele>971.2</ele><time>2026-04-17T11:41:36Z</time></trkpt><trkpt lat="46.40744900679806" lon="11.136937828223001"><ele>970.6</ele><time>2026-04-17T11:41:37Z</time></trkpt><trkpt lat="46.40737298538045" lon="11.136946366803972"><ele>970.0</ele><time>2026-04-17T11:41:38Z</time></trkpt><trkpt lat="46.40730817528457" lon="11.136918743489469"><ele>970.0000000000001</ele><time>2026-04-17T11:41:39Z</time></trkpt><trkpt lat="46.407250450805705" lon="11.136873109780485"><ele>970.0</ele><time>2026-04-17T11:41:40Z</time></trkpt><trkpt lat="46.40719317962863" lon="11.136794386219693"><ele>970.0000000000001</ele><time>2026-04-17T11:41:41Z</time></trkpt><trkpt lat="46.40713651954027" lon="11.136740346807654"><ele>970.0000000000001</ele><time>2026-04-17T11:41:42Z</time></trkpt><trkpt lat="46.40706733206887" lon="11.13673152665219"><ele>970.0</ele><time>2026-04-17T11:41:43Z</time></trkpt><trkpt lat="46.40698297092495" lon="11.136753039775337"><ele>970.0000000000001</ele><time>2026-04-17T11:41:44Z</time></trkpt><trkpt lat="46.406903473085876" lon="11.136764298474413"><ele>970.0000000000001</ele><time>2026-04-17T11:41:45Z</time></trkpt><trkpt lat="46.40683141909344" lon="11.136721727628434"><ele>968.25</ele><time>2026-04-17T11:41:46Z</time></trkpt><trkpt lat="46.40675564961712" lon="11.136664903338453"><ele>966.5</ele><time>2026-04-17T11:41:47Z</time></trkpt><trkpt lat="46.40667220789694" lon="11.136567593105275"><ele>964.75</ele><time>2026-04-17T11:41:48Z</time></trkpt><trkpt lat="46.406579381693845" lon="11.136426486767533"><ele>963.0</ele><time>2026-04-17T11:41:49Z</time></trkpt><trkpt lat="46.4064719439441" lon="11.136270336166708"><ele>963.0</ele><time>2026-04-17T11:41:50Z</time></trkpt><trkpt lat="46.40636370677399" lon="11.136133154900007"><ele>963.0</ele><time>2026-04-17T11:41:51Z</time></trkpt><trkpt lat="46.40626185613492" lon="11.135966748043133"><ele>963.0</ele><time>2026-04-17T11:41:52Z</time></trkpt><trkpt lat="46.4061463976467" lon="11.13580557719846"><ele>961.3333333333333</ele><time>2026-04-17T11:41:53Z</time></trkpt><trkpt lat="46.4060080822896" lon="11.135612499804823"><ele>959.6666666666666</ele><time>2026-04-17T11:41:54Z</time></trkpt><trkpt lat="46.405850526923885" lon="11.135392565000194"><ele>958.0</ele><time>2026-04-17T11:41:55Z</time></trkpt><trkpt lat="46.40569045912866" lon="11.135172101616899"><ele>958.0</ele><time>2026-04-17T11:41:56Z</time></trkpt><trkpt lat="46.405522838923495" lon="11.134945269369654"><ele>958.0</ele><time>2026-04-17T11:41:57Z</time></trkpt><trkpt lat="46.40534421646333" lon="11.134722365152992"><ele>956.6666666666666</ele><time>2026-04-17T11:41:58Z</time></trkpt><trkpt lat="46.40519269007691" lon="11.134506671226953"><ele>955.3333333333333</ele><time>2026-04-17T11:41:59Z</time></trkpt><trkpt lat="46.40505328542034" lon="11.134305239050471"><ele>954.0</ele><time>2026-04-17T11:42:00Z</time></trkpt><trkpt lat="46.40490613479229" lon="11.134110871667389"><ele>953.3333333333333</ele><time>2026-04-17T11:42:01Z</time></trkpt><trkpt lat="46.40474705733659" lon="11.133919239783804"><ele>952.6666666666666</ele><time>2026-04-17T11:42:02Z</time></trkpt><trkpt lat="46.40457423739676" lon="11.133748605692544"><ele>952.0</ele><time>2026-04-17T11:42:03Z</time></trkpt><trkpt lat="46.40440389631838" lon="11.133588180579633"><ele>950.3333333333333</ele><time>2026-04-17T11:42:04Z</time></trkpt><trkpt lat="46.40424293787064" lon="11.133430061928392"><ele>948.6666666666667</ele><time>2026-04-17T11:42:05Z</time></trkpt><trkpt lat="46.40408635717818" lon="11.13327744196961"><ele>947.0</ele><time>2026-04-17T11:42:06Z</time></trkpt><trkpt lat="46.403941486625875" lon="11.13314807165442"><ele>944.3333333333334</ele><time>2026-04-17T11:42:07Z</time></trkpt><trkpt lat="46.40379835233525" lon="11.13298458880208"><ele>941.6666666666667</ele><time>2026-04-17T11:42:08Z</time></trkpt><trkpt lat="46.40363339692011" lon="11.132823332820415"><ele>939.0</ele><time>2026-04-17T11:42:09Z</time></trkpt><trkpt lat="46.403448754649084" lon="11.132642831339945"><ele>939.0</ele><time>2026-04-17T11:42:10Z</time></trkpt><trkpt lat="46.403269282534595" lon="11.132512590108796"><ele>939.0</ele><time>2026-04-17T11:42:11Z</time></trkpt><trkpt lat="46.403137426170346" lon="11.132358246816267"><ele>939.0</ele><time>2026-04-17T11:42:12Z</time></trkpt><trkpt lat="46.40302539364741" lon="11.132230980041967"><ele>937.6</ele><time>2026-04-17T11:42:13Z</time></trkpt><trkpt lat="46.40293643377421" lon="11.13210727928725"><ele>936.2</ele><time>2026-04-17T11:42:14Z</time></trkpt><trkpt lat="46.40288073455284" lon="11.131994013897945"><ele>934.8000000000001</ele><time>2026-04-17T11:42:15Z</time></trkpt><trkpt lat="46.402843381478604" lon="11.131872263560942"><ele>933.4000000000001</ele><time>2026-04-17T11:42:16Z</time></trkpt><trkpt lat="46.402825915786195" lon="11.131748864282683"><ele>932.0</ele><time>2026-04-17T11:42:17Z</time></trkpt><trkpt lat="46.40282225925698" lon="11.131641116827316"><ele>931.6</ele><time>2026-04-17T11:42:18Z</time></trkpt><trkpt lat="46.402833284883506" lon="11.131549461751474"><ele>931.2</ele><time>2026-04-17T11:42:19Z</time></trkpt><trkpt lat="46.40286888604903" lon="11.131371433334444"><ele>930.8</ele><time>2026-04-17T11:42:21Z</time></trkpt><trkpt lat="46.40290202492769" lon="11.131230982540924"><ele>930.4</ele><time>2026-04-17T11:42:22Z</time></trkpt><trkpt lat="46.402936131919276" lon="11.13107778868483"><ele>930.0</ele><time>2026-04-17T11:42:23Z</time></trkpt><trkpt lat="46.40297051044059" lon="11.130887063258081"><ele>931.0</ele><time>2026-04-17T11:42:24Z</time></trkpt><trkpt lat="46.402969863430506" lon="11.130670887024204"><ele>932.0</ele><time>2026-04-17T11:42:25Z</time></trkpt><trkpt lat="46.402932868748955" lon="11.130469529119301"><ele>933.0</ele><time>2026-04-17T11:42:26Z</time></trkpt><trkpt lat="46.40287683180538" lon="11.130267627736659"><ele>934.0</ele><time>2026-04-17T11:42:27Z</time></trkpt><trkpt lat="46.40278730905726" lon="11.130085269856792"><ele>934.0</ele><time>2026-04-17T11:42:28Z</time></trkpt><trkpt lat="46.402650527777354" lon="11.129965002088129"><ele>934.0</ele><time>2026-04-17T11:42:29Z</time></trkpt><trkpt lat="46.402508602489725" lon="11.12983416617997"><ele>934.0</ele><time>2026-04-17T11:42:30Z</time></trkpt><trkpt lat="46.402343183767265" lon="11.129679314650783"><ele>934.6666666666666</ele><time>2026-04-17T11:42:31Z</time></trkpt><trkpt lat="46.402166709903526" lon="11.129527198430768"><ele>935.3333333333333</ele><time>2026-04-17T11:42:32Z</time></trkpt><trkpt lat="46.40200414530301" lon="11.129392442623391"><ele>936.0</ele><time>2026-04-17T11:42:33Z</time></trkpt><trkpt lat="46.40182901555771" lon="11.129243420152019"><ele>936.0</ele><time>2026-04-17T11:42:34Z</time></trkpt><trkpt lat="46.40165387742795" lon="11.12909462494043"><ele>936.0</ele><time>2026-04-17T11:42:35Z</time></trkpt><trkpt lat="46.40149487432659" lon="11.128962966801897"><ele>936.0</ele><time>2026-04-17T11:42:36Z</time></trkpt><trkpt lat="46.40135020996326" lon="11.128840018834593"><ele>937.6666666666667</ele><time>2026-04-17T11:42:37Z</time></trkpt><trkpt lat="46.40120763042908" lon="11.128712788092624"><ele>939.3333333333334</ele><time>2026-04-17T11:42:38Z</time></trkpt><trkpt lat="46.401070685141406" lon="11.128582421646419"><ele>941.0</ele><time>2026-04-17T11:42:39Z</time></trkpt><trkpt lat="46.40095105461461" lon="11.128462268618977"><ele>941.0</ele><time>2026-04-17T11:42:40Z</time></trkpt><trkpt lat="46.40083131266222" lon="11.128357215172572"><ele>941.0</ele><time>2026-04-17T11:42:41Z</time></trkpt><trkpt lat="46.400713185752906" lon="11.12825084289426"><ele>941.0</ele><time>2026-04-17T11:42:42Z</time></trkpt><trkpt lat="46.40059289965701" lon="11.128145621756094"><ele>941.0</ele><time>2026-04-17T11:42:43Z</time></trkpt><trkpt lat="46.40046683725341" lon="11.128036269814775"><ele>941.3333333333334</ele><time>2026-04-17T11:42:44Z</time></trkpt><trkpt lat="46.40033558679502" lon="11.127925653890387"><ele>941.6666666666667</ele><time>2026-04-17T11:42:45Z</time></trkpt><trkpt lat="46.4001993582152" lon="11.127809111337447"><ele>942.0</ele><time>2026-04-17T11:42:46Z</time></trkpt><trkpt lat="46.40005896420156" lon="11.127684282708818"><ele>942.0</ele><time>2026-04-17T11:42:47Z</time></trkpt><trkpt lat="46.39991441784077" lon="11.12754904748127"><ele>942.0</ele><time>2026-04-17T11:42:48Z</time></trkpt><trkpt lat="46.39976048767129" lon="11.127416733169436"><ele>942.0</ele><time>2026-04-17T11:42:49Z</time></trkpt><trkpt lat="46.39960889654743" lon="11.127277287072976"><ele>943.3333333333333</ele><time>2026-04-17T11:42:50Z</time></trkpt><trkpt lat="46.39947604853308" lon="11.127136975708016"><ele>944.6666666666666</ele><time>2026-04-17T11:42:51Z</time></trkpt><trkpt lat="46.39933429470753" lon="11.126990434632004"><ele>946.0</ele><time>2026-04-17T11:42:52Z</time></trkpt><trkpt lat="46.399186412892014" lon="11.12683632830518"><ele>946.0</ele><time>2026-04-17T11:42:53Z</time></trkpt><trkpt lat="46.39905727148229" lon="11.126694865552707"><ele>946.0</ele><time>2026-04-17T11:42:54Z</time></trkpt><trkpt lat="46.39893700384017" lon="11.126568094074354"><ele>946.0</ele><time>2026-04-17T11:42:55Z</time></trkpt><trkpt lat="46.39883212151562" lon="11.126447468350191"><ele>946.0</ele><time>2026-04-17T11:42:56Z</time></trkpt><trkpt lat="46.398727095042254" lon="11.126336494587893"><ele>946.0</ele><time>2026-04-17T11:42:57Z</time></trkpt><trkpt lat="46.39861420084246" lon="11.126229867762444"><ele>946.0</ele><time>2026-04-17T11:42:58Z</time></trkpt><trkpt lat="46.398495891080884" lon="11.126107273129747"><ele>946.0</ele><time>2026-04-17T11:42:59Z</time></trkpt><trkpt lat="46.39835992226867" lon="11.12595715107062"><ele>946.0</ele><time>2026-04-17T11:43:00Z</time></trkpt><trkpt lat="46.3982174843038" lon="11.125779446876107"><ele>946.0</ele><time>2026-04-17T11:43:01Z</time></trkpt><trkpt lat="46.39809489572285" lon="11.125558028751637"><ele>946.0</ele><time>2026-04-17T11:43:02Z</time></trkpt><trkpt lat="46.39796448891238" lon="11.12535690659987"><ele>947.5</ele><time>2026-04-17T11:43:03Z</time></trkpt><trkpt lat="46.39781690096074" lon="11.125127697086155"><ele>949.0</ele><time>2026-04-17T11:43:04Z</time></trkpt><trkpt lat="46.39764817309042" lon="11.124861946745586"><ele>952.0</ele><time>2026-04-17T11:43:05Z</time></trkpt><trkpt lat="46.39747214885229" lon="11.12458682345425"><ele>955.0</ele><time>2026-04-17T11:43:06Z</time></trkpt><trkpt lat="46.397292039021586" lon="11.124324707123156"><ele>954.0</ele><time>2026-04-17T11:43:07Z</time></trkpt><trkpt lat="46.39711559081699" lon="11.124034606225477"><ele>953.0</ele><time>2026-04-17T11:43:08Z</time></trkpt><trkpt lat="46.396944377260944" lon="11.123761848194738"><ele>953.0</ele><time>2026-04-17T11:43:09Z</time></trkpt><trkpt lat="46.39675865981689" lon="11.123477941202468"><ele>953.0</ele><time>2026-04-17T11:43:10Z</time></trkpt><trkpt lat="46.396568129386196" lon="11.12318887629882"><ele>953.0</ele><time>2026-04-17T11:43:11Z</time></trkpt><trkpt lat="46.39639386555366" lon="11.12292368415484"><ele>953.0</ele><time>2026-04-17T11:43:12Z</time></trkpt><trkpt lat="46.39624100150301" lon="11.122683817245981"><ele>953.0</ele><time>2026-04-17T11:43:13Z</time></trkpt><trkpt lat="46.39611124197311" lon="11.122481670992725"><ele>953.0</ele><time>2026-04-17T11:43:14Z</time></trkpt><trkpt lat="46.39599900441771" lon="11.122306578974872"><ele>953.0</ele><time>2026-04-17T11:43:15Z</time></trkpt><trkpt lat="46.39589650825341" lon="11.122153501566618"><ele>954.0</ele><time>2026-04-17T11:43:16Z</time></trkpt><trkpt lat="46.39581158614884" lon="11.121996250003264"><ele>955.0</ele><time>2026-04-17T11:43:17Z</time></trkpt><trkpt lat="46.39572349758752" lon="11.121858146557386"><ele>956.0</ele><time>2026-04-17T11:43:18Z</time></trkpt><trkpt lat="46.39563419302615" lon="11.12171467726579"><ele>957.0</ele><time>2026-04-17T11:43:19Z</time></trkpt><trkpt lat="46.39553693101237" lon="11.121574216658624"><ele>958.6666666666667</ele><time>2026-04-17T11:43:20Z</time></trkpt><trkpt lat="46.39544101881435" lon="11.121405503743937"><ele>960.3333333333334</ele><time>2026-04-17T11:43:21Z</time></trkpt><trkpt lat="46.39531749785443" lon="11.121236830694672"><ele>962.0</ele><time>2026-04-17T11:43:22Z</time></trkpt><trkpt lat="46.39520303341326" lon="11.12108895792408"><ele>962.0</ele><time>2026-04-17T11:43:23Z</time></trkpt><trkpt lat="46.395086082076126" lon="11.120971596119112"><ele>962.0</ele><time>2026-04-17T11:43:24Z</time></trkpt><trkpt lat="46.394989072512786" lon="11.120856036850572"><ele>962.0</ele><time>2026-04-17T11:43:25Z</time></trkpt><trkpt lat="46.39490094020993" lon="11.120762070535509"><ele>962.0</ele><time>2026-04-17T11:43:26Z</time></trkpt><trkpt lat="46.3948244892323" lon="11.120675569611716"><ele>962.2</ele><time>2026-04-17T11:43:27Z</time></trkpt><trkpt lat="46.39475864799152" lon="11.120592287480246"><ele>962.4000000000001</ele><time>2026-04-17T11:43:28Z</time></trkpt><trkpt lat="46.39467569241354" lon="11.120527620648557"><ele>962.5999999999999</ele><time>2026-04-17T11:43:29Z</time></trkpt><trkpt lat="46.39459163055983" lon="11.120455306367155"><ele>962.8</ele><time>2026-04-17T11:43:30Z</time></trkpt><trkpt lat="46.3945163353236" lon="11.120339488902996"><ele>963.0</ele><time>2026-04-17T11:43:31Z</time></trkpt><trkpt lat="46.3944387786215" lon="11.120244298869796"><ele>963.0</ele><time>2026-04-17T11:43:32Z</time></trkpt><trkpt lat="46.39436224693942" lon="11.120147960834476"><ele>963.0</ele><time>2026-04-17T11:43:33Z</time></trkpt><trkpt lat="46.394299403591226" lon="11.120072610632505"><ele>963.0</ele><time>2026-04-17T11:43:34Z</time></trkpt><trkpt lat="46.39422342743637" lon="11.120008528094258"><ele>963.0</ele><time>2026-04-17T11:43:35Z</time></trkpt><trkpt lat="46.39413617275871" lon="11.119945714742649"><ele>963.0</ele><time>2026-04-17T11:43:36Z</time></trkpt><trkpt lat="46.394043901326256" lon="11.119908661971149"><ele>963.1666666666666</ele><time>2026-04-17T11:43:37Z</time></trkpt><trkpt lat="46.393964455964934" lon="11.11989833065505"><ele>963.3333333333333</ele><time>2026-04-17T11:43:38Z</time></trkpt><trkpt lat="46.393896655952396" lon="11.119851776470105"><ele>963.5</ele><time>2026-04-17T11:43:39Z</time></trkpt><trkpt lat="46.393821074183826" lon="11.119815909596868"><ele>963.6666666666666</ele><time>2026-04-17T11:43:40Z</time></trkpt><trkpt lat="46.39373125062617" lon="11.11980589411672"><ele>963.8333333333333</ele><time>2026-04-17T11:43:41Z</time></trkpt><trkpt lat="46.39365590012318" lon="11.11981576383313"><ele>964.0</ele><time>2026-04-17T11:43:42Z</time></trkpt><trkpt lat="46.39358524753646" lon="11.119824261620963"><ele>963.9999999999999</ele><time>2026-04-17T11:43:43Z</time></trkpt><trkpt lat="46.3935154879781" lon="11.11977866421283"><ele>964.0</ele><time>2026-04-17T11:43:44Z</time></trkpt><trkpt lat="46.393469352235265" lon="11.11968339584398"><ele>964.0</ele><time>2026-04-17T11:43:45Z</time></trkpt><trkpt lat="46.39342563997372" lon="11.11958025157844"><ele>964.0</ele><time>2026-04-17T11:43:46Z</time></trkpt><trkpt lat="46.39336081076692" lon="11.119496298869969"><ele>963.9999999999999</ele><time>2026-04-17T11:43:47Z</time></trkpt><trkpt lat="46.393295100661135" lon="11.119377007483607"><ele>964.0</ele><time>2026-04-17T11:43:48Z</time></trkpt><trkpt lat="46.39324393365357" lon="11.11926191125977"><ele>963.9999999999999</ele><time>2026-04-17T11:43:49Z</time></trkpt><trkpt lat="46.39319116188406" lon="11.119172388834713"><ele>964.0</ele><time>2026-04-17T11:43:50Z</time></trkpt><trkpt lat="46.3931458379563" lon="11.119084152990926"><ele>964.0</ele><time>2026-04-17T11:43:51Z</time></trkpt><trkpt lat="46.39309596833043" lon="11.118987086670328"><ele>964.0</ele><time>2026-04-17T11:43:52Z</time></trkpt><trkpt lat="46.3930444866078" lon="11.118878301140418"><ele>963.9999999999999</ele><time>2026-04-17T11:43:53Z</time></trkpt><trkpt lat="46.39298297021171" lon="11.118772827083827"><ele>964.0</ele><time>2026-04-17T11:43:54Z</time></trkpt><trkpt lat="46.39292246070373" lon="11.118668945775774"><ele>963.4999999999999</ele><time>2026-04-17T11:43:55Z</time></trkpt><trkpt lat="46.39285950797065" lon="11.118573018706439"><ele>963.0</ele><time>2026-04-17T11:43:56Z</time></trkpt><trkpt lat="46.392793419328875" lon="11.11848523959204"><ele>962.5</ele><time>2026-04-17T11:43:57Z</time></trkpt><trkpt lat="46.39271653426176" lon="11.118394136299573"><ele>962.0</ele><time>2026-04-17T11:43:58Z</time></trkpt><trkpt lat="46.39266232160189" lon="11.1183199270287"><ele>961.4999999999999</ele><time>2026-04-17T11:43:59Z</time></trkpt><trkpt lat="46.39261188681833" lon="11.11823170371453"><ele>961.0</ele><time>2026-04-17T11:44:02Z</time></trkpt><trkpt lat="46.392551241201744" lon="11.118153266709454"><ele>961.0</ele><time>2026-04-17T11:44:12Z</time></trkpt><trkpt lat="46.39246910962526" lon="11.118011998327107"><ele>960.9999999999999</ele><time>2026-04-17T11:44:14Z</time></trkpt><trkpt lat="46.39243217456934" lon="11.117916535291686"><ele>960.9999999999999</ele><time>2026-04-17T11:44:15Z</time></trkpt><trkpt lat="46.392402191887044" lon="11.117825910265795"><ele>961.0</ele><time>2026-04-17T11:44:16Z</time></trkpt><trkpt lat="46.392353019900696" lon="11.117679532050616"><ele>961.0</ele><time>2026-04-17T11:44:18Z</time></trkpt><trkpt lat="46.39231836098813" lon="11.11758322759724"><ele>961.0</ele><time>2026-04-17T11:44:19Z</time></trkpt><trkpt lat="46.392270401354956" lon="11.117463593875367"><ele>960.9999999999999</ele><time>2026-04-17T11:44:20Z</time></trkpt><trkpt lat="46.392220629170076" lon="11.117352547100579"><ele>960.9999999999999</ele><time>2026-04-17T11:44:21Z</time></trkpt><trkpt lat="46.39215430870689" lon="11.117240575106555"><ele>961.0</ele><time>2026-04-17T11:44:22Z</time></trkpt><trkpt lat="46.392061823919626" lon="11.117113290519534"><ele>961.0</ele><time>2026-04-17T11:44:23Z</time></trkpt><trkpt lat="46.391955934212376" lon="11.116979770755407"><ele>958.75</ele><time>2026-04-17T11:44:24Z</time></trkpt><trkpt lat="46.391856467344546" lon="11.116874215363012"><ele>956.5</ele><time>2026-04-17T11:44:25Z</time></trkpt><trkpt lat="46.39175964543163" lon="11.116791742820304"><ele>954.25</ele><time>2026-04-17T11:44:26Z</time></trkpt><trkpt lat="46.391640204547556" lon="11.116705362922863"><ele>952.0</ele><time>2026-04-17T11:44:27Z</time></trkpt><trkpt lat="46.391505415429094" lon="11.116603209351458"><ele>949.75</ele><time>2026-04-17T11:44:28Z</time></trkpt><trkpt lat="46.391384565508936" lon="11.116502646322477"><ele>947.5</ele><time>2026-04-17T11:44:29Z</time></trkpt><trkpt lat="46.39126666663554" lon="11.116396428116504"><ele>945.25</ele><time>2026-04-17T11:44:30Z</time></trkpt><trkpt lat="46.39114009053379" lon="11.11627616209657"><ele>943.0</ele><time>2026-04-17T11:44:31Z</time></trkpt><trkpt lat="46.39101137293654" lon="11.116158116332468"><ele>942.75</ele><time>2026-04-17T11:44:32Z</time></trkpt><trkpt lat="46.390889995805324" lon="11.116056618715948"><ele>942.5</ele><time>2026-04-17T11:44:33Z</time></trkpt><trkpt lat="46.39077839914662" lon="11.115966717615214"><ele>942.25</ele><time>2026-04-17T11:44:34Z</time></trkpt><trkpt lat="46.39067496575178" lon="11.11587594385923"><ele>942.0</ele><time>2026-04-17T11:44:35Z</time></trkpt><trkpt lat="46.390572994610594" lon="11.11578370120223"><ele>940.5</ele><time>2026-04-17T11:44:36Z</time></trkpt><trkpt lat="46.39046729724769" lon="11.115690714334734"><ele>939.0</ele><time>2026-04-17T11:44:37Z</time></trkpt><trkpt lat="46.39035760369938" lon="11.115598201669272"><ele>937.5</ele><time>2026-04-17T11:44:38Z</time></trkpt><trkpt lat="46.390247139281" lon="11.115497999772336"><ele>936.0</ele><time>2026-04-17T11:44:39Z</time></trkpt><trkpt lat="46.39012811796369" lon="11.115388283422762"><ele>936.0</ele><time>2026-04-17T11:44:40Z</time></trkpt><trkpt lat="46.39000348042681" lon="11.115271377344893"><ele>936.0</ele><time>2026-04-17T11:44:41Z</time></trkpt><trkpt lat="46.38988575371358" lon="11.115137631895982"><ele>936.0</ele><time>2026-04-17T11:44:42Z</time></trkpt><trkpt lat="46.38977060471073" lon="11.114978594454705"><ele>934.3333333333333</ele><time>2026-04-17T11:44:43Z</time></trkpt><trkpt lat="46.38965956700137" lon="11.114786377128542"><ele>932.6666666666666</ele><time>2026-04-17T11:44:44Z</time></trkpt><trkpt lat="46.38955759551327" lon="11.114557769412341"><ele>931.0</ele><time>2026-04-17T11:44:45Z</time></trkpt><trkpt lat="46.38947627622167" lon="11.114305090485736"><ele>931.6666666666666</ele><time>2026-04-17T11:44:46Z</time></trkpt><trkpt lat="46.38942049305513" lon="11.114034713098423"><ele>932.3333333333333</ele><time>2026-04-17T11:44:47Z</time></trkpt><trkpt lat="46.38939089964392" lon="11.113752388851191"><ele>933.0</ele><time>2026-04-17T11:44:48Z</time></trkpt><trkpt lat="46.38937990956796" lon="11.11345432828087"><ele>931.5</ele><time>2026-04-17T11:44:49Z</time></trkpt><trkpt lat="46.38937534491682" lon="11.113110885450892"><ele>930.0</ele><time>2026-04-17T11:44:50Z</time></trkpt><trkpt lat="46.389363182197116" lon="11.112738669363964"><ele>930.5</ele><time>2026-04-17T11:44:51Z</time></trkpt><trkpt lat="46.38937277230045" lon="11.112373626070761"><ele>931.0</ele><time>2026-04-17T11:44:52Z</time></trkpt><trkpt lat="46.38936400742571" lon="11.111974463540808"><ele>928.5</ele><time>2026-04-17T11:44:53Z</time></trkpt><trkpt lat="46.38935430665333" lon="11.111558116901493"><ele>926.0</ele><time>2026-04-17T11:44:54Z</time></trkpt><trkpt lat="46.38934443178633" lon="11.111166793708179"><ele>926.0</ele><time>2026-04-17T11:44:55Z</time></trkpt><trkpt lat="46.38932585235817" lon="11.110799508779568"><ele>926.0</ele><time>2026-04-17T11:44:56Z</time></trkpt><trkpt lat="46.38932156215484" lon="11.11042235742262"><ele>924.5</ele><time>2026-04-17T11:44:57Z</time></trkpt><trkpt lat="46.38931417228938" lon="11.110069704796553"><ele>923.0</ele><time>2026-04-17T11:44:58Z</time></trkpt><trkpt lat="46.38931047774025" lon="11.109734630558403"><ele>922.6666666666667</ele><time>2026-04-17T11:44:59Z</time></trkpt><trkpt lat="46.38930397446196" lon="11.10941115047306"><ele>922.3333333333333</ele><time>2026-04-17T11:45:00Z</time></trkpt><trkpt lat="46.38929739116135" lon="11.109098599011734"><ele>922.0</ele><time>2026-04-17T11:45:01Z</time></trkpt><trkpt lat="46.389300120606656" lon="11.108804606683913"><ele>920.6666666666666</ele><time>2026-04-17T11:45:02Z</time></trkpt><trkpt lat="46.38931734258002" lon="11.108530054392125"><ele>919.3333333333333</ele><time>2026-04-17T11:45:03Z</time></trkpt><trkpt lat="46.38935323817025" lon="11.1082620711547"><ele>918.0</ele><time>2026-04-17T11:45:04Z</time></trkpt><trkpt lat="46.38940569025883" lon="11.107989470563286"><ele>918.6666666666667</ele><time>2026-04-17T11:45:05Z</time></trkpt><trkpt lat="46.38947428607211" lon="11.107714942657399"><ele>919.3333333333334</ele><time>2026-04-17T11:45:05.999Z</time></trkpt><trkpt lat="46.38955971019248" lon="11.10744064587179"><ele>920.0</ele><time>2026-04-17T11:45:06.999Z</time></trkpt><trkpt lat="46.38966739132255" lon="11.107151905902889"><ele>916.5</ele><time>2026-04-17T11:45:07.999Z</time></trkpt><trkpt lat="46.38980957517602" lon="11.106851281532043"><ele>913.0</ele><time>2026-04-17T11:45:08.999Z</time></trkpt><trkpt lat="46.389929139729034" lon="11.106520337441406"><ele>913.0</ele><time>2026-04-17T11:45:09.999Z</time></trkpt><trkpt lat="46.39006014683004" lon="11.106205518753038"><ele>913.0</ele><time>2026-04-17T11:45:10.999Z</time></trkpt><trkpt lat="46.39018252362111" lon="11.105910485534377"><ele>915.6666666666666</ele><time>2026-04-17T11:45:11.999Z</time></trkpt><trkpt lat="46.39029654592622" lon="11.105643637033555"><ele>918.3333333333333</ele><time>2026-04-17T11:45:12.999Z</time></trkpt><trkpt lat="46.390393032482585" lon="11.10540866559178"><ele>921.0</ele><time>2026-04-17T11:45:13.999Z</time></trkpt><trkpt lat="46.390485592524115" lon="11.105189354800773"><ele>915.0</ele><time>2026-04-17T11:45:14.999Z</time></trkpt><trkpt lat="46.39056856181473" lon="11.104978922205794"><ele>909.0</ele><time>2026-04-17T11:45:15.999Z</time></trkpt><trkpt lat="46.39062910180966" lon="11.104759239449875"><ele>903.0</ele><time>2026-04-17T11:45:17Z</time></trkpt><trkpt lat="46.39066176265155" lon="11.104534755902526"><ele>902.6666666666667</ele><time>2026-04-17T11:45:18Z</time></trkpt><trkpt lat="46.39067241585383" lon="11.104283476911585"><ele>902.3333333333334</ele><time>2026-04-17T11:45:19Z</time></trkpt><trkpt lat="46.390675708862034" lon="11.10397462471188"><ele>902.0</ele><time>2026-04-17T11:45:20Z</time></trkpt><trkpt lat="46.390674109028424" lon="11.10366640025179"><ele>900.3333333333334</ele><time>2026-04-17T11:45:21Z</time></trkpt><trkpt lat="46.39066999121163" lon="11.103386535439569"><ele>898.6666666666667</ele><time>2026-04-17T11:45:22Z</time></trkpt><trkpt lat="46.39065334325841" lon="11.10311916444971"><ele>897.0</ele><time>2026-04-17T11:45:23Z</time></trkpt><trkpt lat="46.39061550470094" lon="11.102867453353003"><ele>898.0</ele><time>2026-04-17T11:45:24Z</time></trkpt><trkpt lat="46.39055712400379" lon="11.102627395403923"><ele>899.0</ele><time>2026-04-17T11:45:25Z</time></trkpt><trkpt lat="46.390481864521675" lon="11.102399205723598"><ele>900.0</ele><time>2026-04-17T11:45:26Z</time></trkpt><trkpt lat="46.390382304447684" lon="11.102178413344648"><ele>900.0</ele><time>2026-04-17T11:45:27Z</time></trkpt><trkpt lat="46.390259481647135" lon="11.101962735334"><ele>900.0</ele><time>2026-04-17T11:45:28Z</time></trkpt><trkpt lat="46.39011070710687" lon="11.10174491037265"><ele>900.0</ele><time>2026-04-17T11:45:29Z</time></trkpt><trkpt lat="46.389951663396644" lon="11.10152031311768"><ele>899.6666666666667</ele><time>2026-04-17T11:45:30Z</time></trkpt><trkpt lat="46.38981319988284" lon="11.101340063290255"><ele>899.3333333333334</ele><time>2026-04-17T11:45:31Z</time></trkpt><trkpt lat="46.38969419859631" lon="11.101177148531962"><ele>899.0</ele><time>2026-04-17T11:45:32Z</time></trkpt><trkpt lat="46.38960195226342" lon="11.10103109285067"><ele>899.0</ele><time>2026-04-17T11:45:33Z</time></trkpt><trkpt lat="46.38952802382043" lon="11.100869173925869"><ele>899.0</ele><time>2026-04-17T11:45:34Z</time></trkpt><trkpt lat="46.3894814223419" lon="11.100684124146284"><ele>899.0</ele><time>2026-04-17T11:45:35Z</time></trkpt><trkpt lat="46.38946650007199" lon="11.100479681377172"><ele>899.0</ele><time>2026-04-17T11:45:36Z</time></trkpt><trkpt lat="46.389476884507694" lon="11.10025728220692"><ele>896.5</ele><time>2026-04-17T11:45:37Z</time></trkpt><trkpt lat="46.38948665036941" lon="11.100017738131243"><ele>894.0</ele><time>2026-04-17T11:45:38Z</time></trkpt><trkpt lat="46.389484072898206" lon="11.099799768102804"><ele>891.5</ele><time>2026-04-17T11:45:39Z</time></trkpt><trkpt lat="46.38946568272269" lon="11.099612207140458"><ele>889.0</ele><time>2026-04-17T11:45:40Z</time></trkpt><trkpt lat="46.38942124533726" lon="11.099426347500374"><ele>886.6666666666666</ele><time>2026-04-17T11:45:41Z</time></trkpt><trkpt lat="46.38934370164894" lon="11.099209959568281"><ele>884.3333333333333</ele><time>2026-04-17T11:45:42Z</time></trkpt><trkpt lat="46.38924711778973" lon="11.098961404524884"><ele>882.0</ele><time>2026-04-17T11:45:43Z</time></trkpt><trkpt lat="46.38916888098903" lon="11.098728208511082"><ele>879.6666666666667</ele><time>2026-04-17T11:45:44Z</time></trkpt><trkpt lat="46.389086608071246" lon="11.098527167464876"><ele>877.3333333333334</ele><time>2026-04-17T11:45:45Z</time></trkpt><trkpt lat="46.38898768920667" lon="11.098358364114718"><ele>875.0</ele><time>2026-04-17T11:45:46Z</time></trkpt><trkpt lat="46.38886834579388" lon="11.098215923866135"><ele>871.6666666666667</ele><time>2026-04-17T11:45:47Z</time></trkpt><trkpt lat="46.38873662191554" lon="11.098098674070405"><ele>868.3333333333333</ele><time>2026-04-17T11:45:48Z</time></trkpt><trkpt lat="46.388579716205435" lon="11.098012954219268"><ele>865.0</ele><time>2026-04-17T11:45:49Z</time></trkpt><trkpt lat="46.388392548167666" lon="11.097950586631821"><ele>865.0</ele><time>2026-04-17T11:45:50Z</time></trkpt><trkpt lat="46.38816655431188" lon="11.097896269320191"><ele>865.0</ele><time>2026-04-17T11:45:51Z</time></trkpt><trkpt lat="46.387940225712924" lon="11.097841763911903"><ele>864.0</ele><time>2026-04-17T11:45:52Z</time></trkpt><trkpt lat="46.38768698801023" lon="11.097768211826263"><ele>863.0</ele><time>2026-04-17T11:45:53Z</time></trkpt><trkpt lat="46.387434352073036" lon="11.097668639149946"><ele>863.0</ele><time>2026-04-17T11:45:54Z</time></trkpt><trkpt lat="46.38721136302478" lon="11.097550057596933"><ele>863.0</ele><time>2026-04-17T11:45:55Z</time></trkpt><trkpt lat="46.38697323634863" lon="11.097412002575508"><ele>855.5</ele><time>2026-04-17T11:45:56Z</time></trkpt><trkpt lat="46.38673125461319" lon="11.097250351085446"><ele>848.0</ele><time>2026-04-17T11:45:57Z</time></trkpt><trkpt lat="46.38650394936441" lon="11.097095636228646"><ele>847.0</ele><time>2026-04-17T11:45:58Z</time></trkpt><trkpt lat="46.38626259362665" lon="11.096947494047722"><ele>846.0</ele><time>2026-04-17T11:45:59Z</time></trkpt><trkpt lat="46.38604846575114" lon="11.096804382318286"><ele>846.0</ele><time>2026-04-17T11:46:00Z</time></trkpt><trkpt lat="46.38585451166416" lon="11.096660721664378"><ele>846.0</ele><time>2026-04-17T11:46:01Z</time></trkpt><trkpt lat="46.385666869515696" lon="11.096516362409508"><ele>846.0</ele><time>2026-04-17T11:46:02Z</time></trkpt><trkpt lat="46.385492826985775" lon="11.09638324656954"><ele>843.3333333333333</ele><time>2026-04-17T11:46:03Z</time></trkpt><trkpt lat="46.385337046336204" lon="11.096264843579249"><ele>840.6666666666666</ele><time>2026-04-17T11:46:04Z</time></trkpt><trkpt lat="46.385198435862165" lon="11.096160598325657"><ele>838.0</ele><time>2026-04-17T11:46:05Z</time></trkpt><trkpt lat="46.385074156520986" lon="11.096067325107652"><ele>838.0</ele><time>2026-04-17T11:46:06Z</time></trkpt><trkpt lat="46.38495955516345" lon="11.095981254146126"><ele>838.0</ele><time>2026-04-17T11:46:07Z</time></trkpt><trkpt lat="46.38485615322814" lon="11.095878639828848"><ele>838.0</ele><time>2026-04-17T11:46:08Z</time></trkpt><trkpt lat="46.38477611752286" lon="11.095752729858194"><ele>838.0</ele><time>2026-04-17T11:46:09Z</time></trkpt><trkpt lat="46.38471547845529" lon="11.0955960476522"><ele>835.6666666666666</ele><time>2026-04-17T11:46:10Z</time></trkpt><trkpt lat="46.38466999291156" lon="11.095405850211971"><ele>833.3333333333333</ele><time>2026-04-17T11:46:11Z</time></trkpt><trkpt lat="46.384632083242636" lon="11.095169897961693"><ele>831.0</ele><time>2026-04-17T11:46:12Z</time></trkpt><trkpt lat="46.38459025793223" lon="11.094947721130856"><ele>830.75</ele><time>2026-04-17T11:46:13Z</time></trkpt><trkpt lat="46.38454919149064" lon="11.094744168353346"><ele>830.5</ele><time>2026-04-17T11:46:14Z</time></trkpt><trkpt lat="46.384515307085316" lon="11.09454320979156"><ele>830.25</ele><time>2026-04-17T11:46:15Z</time></trkpt><trkpt lat="46.3844790685922" lon="11.094323103276206"><ele>830.0</ele><time>2026-04-17T11:46:16Z</time></trkpt><trkpt lat="46.3844495650059" lon="11.09407952869773"><ele>829.0</ele><time>2026-04-17T11:46:17Z</time></trkpt><trkpt lat="46.384444359115506" lon="11.093866145862096"><ele>828.0</ele><time>2026-04-17T11:46:18Z</time></trkpt><trkpt lat="46.38444512796699" lon="11.093664717002522"><ele>827.0</ele><time>2026-04-17T11:46:19Z</time></trkpt><trkpt lat="46.38443222794054" lon="11.093472336207212"><ele>826.0</ele><time>2026-04-17T11:46:20Z</time></trkpt><trkpt lat="46.384395446261436" lon="11.093293636538117"><ele>824.75</ele><time>2026-04-17T11:46:21Z</time></trkpt><trkpt lat="46.38432820567771" lon="11.093149455815091"><ele>823.5</ele><time>2026-04-17T11:46:22Z</time></trkpt><trkpt lat="46.38422041014618" lon="11.093033268742728"><ele>822.25</ele><time>2026-04-17T11:46:23Z</time></trkpt><trkpt lat="46.38407156395016" lon="11.092931064492998"><ele>821.0</ele><time>2026-04-17T11:46:24Z</time></trkpt><trkpt lat="46.38390480943638" lon="11.092823382575977"><ele>819.3333333333334</ele><time>2026-04-17T11:46:25Z</time></trkpt><trkpt lat="46.38375930046547" lon="11.092714391165348"><ele>817.6666666666667</ele><time>2026-04-17T11:46:26Z</time></trkpt><trkpt lat="46.383598380442145" lon="11.092598831828338"><ele>816.0</ele><time>2026-04-17T11:46:27Z</time></trkpt><trkpt lat="46.383414698963264" lon="11.092508671462483"><ele>816.0</ele><time>2026-04-17T11:46:28Z</time></trkpt><trkpt lat="46.38320698974178" lon="11.092460737019355"><ele>816.0</ele><time>2026-04-17T11:46:29Z</time></trkpt><trkpt lat="46.383024823887645" lon="11.092411221594135"><ele>816.0</ele><time>2026-04-17T11:46:30Z</time></trkpt><trkpt lat="46.38285699192422" lon="11.092343345377751"><ele>814.0</ele><time>2026-04-17T11:46:31Z</time></trkpt><trkpt lat="46.38269946796176" lon="11.09225897177911"><ele>812.0</ele><time>2026-04-17T11:46:32Z</time></trkpt><trkpt lat="46.382550077334436" lon="11.092161155058882"><ele>810.0</ele><time>2026-04-17T11:46:33Z</time></trkpt><trkpt lat="46.38240058463709" lon="11.092070676148179"><ele>810.0</ele><time>2026-04-17T11:46:34Z</time></trkpt><trkpt lat="46.382260466350516" lon="11.091993044060322"><ele>810.0</ele><time>2026-04-17T11:46:35Z</time></trkpt><trkpt lat="46.3821307271773" lon="11.091899059068794"><ele>810.0</ele><time>2026-04-17T11:46:36Z</time></trkpt><trkpt lat="46.38199589345837" lon="11.091771412732186"><ele>809.6666666666667</ele><time>2026-04-17T11:46:37Z</time></trkpt><trkpt lat="46.38185121782629" lon="11.091621581779076"><ele>809.3333333333334</ele><time>2026-04-17T11:46:38Z</time></trkpt><trkpt lat="46.38173616246877" lon="11.091479343492741"><ele>809.0</ele><time>2026-04-17T11:46:39Z</time></trkpt><trkpt lat="46.381639518190546" lon="11.091352870698291"><ele>807.5</ele><time>2026-04-17T11:46:40Z</time></trkpt><trkpt lat="46.381545732676216" lon="11.091227060062641"><ele>806.0</ele><time>2026-04-17T11:46:41Z</time></trkpt><trkpt lat="46.38146229604075" lon="11.091085186174997"><ele>804.5</ele><time>2026-04-17T11:46:42Z</time></trkpt><trkpt lat="46.381382028653256" lon="11.090915957600075"><ele>803.0</ele><time>2026-04-17T11:46:43Z</time></trkpt><trkpt lat="46.38131097505011" lon="11.09074729350655"><ele>802.5</ele><time>2026-04-17T11:46:44Z</time></trkpt><trkpt lat="46.3812352094807" lon="11.090590325032515"><ele>802.0</ele><time>2026-04-17T11:46:45Z</time></trkpt><trkpt lat="46.381151802548" lon="11.090433162555124"><ele>801.5</ele><time>2026-04-17T11:46:46Z</time></trkpt><trkpt lat="46.38106065670448" lon="11.090297598113853"><ele>801.0</ele><time>2026-04-17T11:46:47Z</time></trkpt><trkpt lat="46.38094180327894" lon="11.090165615385587"><ele>801.0</ele><time>2026-04-17T11:46:48Z</time></trkpt><trkpt lat="46.38079311055078" lon="11.090041376210133"><ele>801.0</ele><time>2026-04-17T11:46:49Z</time></trkpt><trkpt lat="46.38063486869529" lon="11.089932745075673"><ele>801.0</ele><time>2026-04-17T11:46:50Z</time></trkpt><trkpt lat="46.38050185693302" lon="11.089841166560557"><ele>798.75</ele><time>2026-04-17T11:46:51Z</time></trkpt><trkpt lat="46.38039518385952" lon="11.0897708134029"><ele>796.5</ele><time>2026-04-17T11:46:51.999Z</time></trkpt><trkpt lat="46.38029069409897" lon="11.089697872924203"><ele>794.25</ele><time>2026-04-17T11:46:52.999Z</time></trkpt><trkpt lat="46.38017853796549" lon="11.089614210994663"><ele>792.0</ele><time>2026-04-17T11:46:53.999Z</time></trkpt><trkpt lat="46.38004809673103" lon="11.089531929103654"><ele>792.0</ele><time>2026-04-17T11:46:54.999Z</time></trkpt><trkpt lat="46.37990611108762" lon="11.089467706607975"><ele>792.0</ele><time>2026-04-17T11:46:55.999Z</time></trkpt><trkpt lat="46.37975097089898" lon="11.089380050489865"><ele>792.0</ele><time>2026-04-17T11:46:56.999Z</time></trkpt><trkpt lat="46.37955277205618" lon="11.089311942810935"><ele>792.0</ele><time>2026-04-17T11:46:57.999Z</time></trkpt><trkpt lat="46.37936362828278" lon="11.089246705538715"><ele>792.0</ele><time>2026-04-17T11:46:58.999Z</time></trkpt><trkpt lat="46.37916207102403" lon="11.08917680504748"><ele>792.0</ele><time>2026-04-17T11:46:59.999Z</time></trkpt><trkpt lat="46.37895915070032" lon="11.089100389101574"><ele>787.0</ele><time>2026-04-17T11:47:00.999Z</time></trkpt><trkpt lat="46.378753165357885" lon="11.089001078809243"><ele>782.0</ele><time>2026-04-17T11:47:01.999Z</time></trkpt><trkpt lat="46.378528934020196" lon="11.088886051719827"><ele>782.0</ele><time>2026-04-17T11:47:02.999Z</time></trkpt><trkpt lat="46.378292680977836" lon="11.088778766995825"><ele>782.0</ele><time>2026-04-17T11:47:03.999Z</time></trkpt><trkpt lat="46.378076344631516" lon="11.088666389261073"><ele>780.3333333333334</ele><time>2026-04-17T11:47:04.999Z</time></trkpt><trkpt lat="46.37788541344724" lon="11.08857068959225"><ele>778.6666666666667</ele><time>2026-04-17T11:47:05.999Z</time></trkpt><trkpt lat="46.37771071765935" lon="11.088474857733088"><ele>777.0</ele><time>2026-04-17T11:47:06.999Z</time></trkpt><trkpt lat="46.37755692579593" lon="11.088394763412165"><ele>777.0</ele><time>2026-04-17T11:47:07.999Z</time></trkpt><trkpt lat="46.3774101513637" lon="11.088333114206572"><ele>777.0</ele><time>2026-04-17T11:47:08.999Z</time></trkpt><trkpt lat="46.37725331520911" lon="11.088291887486807"><ele>777.0</ele><time>2026-04-17T11:47:09.999Z</time></trkpt><trkpt lat="46.3770645553854" lon="11.088271172557366"><ele>776.6666666666667</ele><time>2026-04-17T11:47:10.999Z</time></trkpt><trkpt lat="46.37687397249639" lon="11.088289067868708"><ele>776.3333333333334</ele><time>2026-04-17T11:47:11.999Z</time></trkpt><trkpt lat="46.376718025880386" lon="11.08830479235089"><ele>776.0</ele><time>2026-04-17T11:47:12.999Z</time></trkpt><trkpt lat="46.3765914526403" lon="11.088305470378657"><ele>776.0</ele><time>2026-04-17T11:47:13.999Z</time></trkpt><trkpt lat="46.376496019928574" lon="11.088308247410803"><ele>776.0</ele><time>2026-04-17T11:47:14.999Z</time></trkpt><trkpt lat="46.37640403478671" lon="11.088294443841527"><ele>776.0</ele><time>2026-04-17T11:47:15.999Z</time></trkpt><trkpt lat="46.37632308195007" lon="11.088233237945238"><ele>776.0</ele><time>2026-04-17T11:47:16.999Z</time></trkpt><trkpt lat="46.376263971512415" lon="11.08812248492309"><ele>776.0</ele><time>2026-04-17T11:47:17.999Z</time></trkpt><trkpt lat="46.376229043607516" lon="11.087983779525729"><ele>772.5</ele><time>2026-04-17T11:47:18.999Z</time></trkpt><trkpt lat="46.376234578025766" lon="11.087825476849565"><ele>769.0</ele><time>2026-04-17T11:47:19.999Z</time></trkpt><trkpt lat="46.37629737740639" lon="11.087674936952736"><ele>765.5</ele><time>2026-04-17T11:47:20.999Z</time></trkpt><trkpt lat="46.37634981451552" lon="11.087488060568981"><ele>762.0</ele><time>2026-04-17T11:47:21.999Z</time></trkpt><trkpt lat="46.37642421342423" lon="11.087301360094099"><ele>762.0</ele><time>2026-04-17T11:47:23Z</time></trkpt><trkpt lat="46.376478295838446" lon="11.087136131596685"><ele>762.0</ele><time>2026-04-17T11:47:24Z</time></trkpt><trkpt lat="46.376500377325065" lon="11.086983220870579"><ele>762.0</ele><time>2026-04-17T11:47:25Z</time></trkpt><trkpt lat="46.37648236799874" lon="11.086833190573058"><ele>762.0</ele><time>2026-04-17T11:47:26Z</time></trkpt><trkpt lat="46.37642597195734" lon="11.086707439473813"><ele>762.0</ele><time>2026-04-17T11:47:27Z</time></trkpt><trkpt lat="46.376344586605185" lon="11.08661434069117"><ele>760.0</ele><time>2026-04-17T11:47:28Z</time></trkpt><trkpt lat="46.376240965475674" lon="11.086571134186972"><ele>758.0</ele><time>2026-04-17T11:47:29Z</time></trkpt><trkpt lat="46.376125136538995" lon="11.086591932963234"><ele>756.0</ele><time>2026-04-17T11:47:30Z</time></trkpt><trkpt lat="46.37600726140882" lon="11.0866814972423"><ele>754.0</ele><time>2026-04-17T11:47:31Z</time></trkpt><trkpt lat="46.37586966545785" lon="11.08682033861912"><ele>754.0</ele><time>2026-04-17T11:47:32Z</time></trkpt><trkpt lat="46.375725517360976" lon="11.086928021037412"><ele>754.0</ele><time>2026-04-17T11:47:33Z</time></trkpt><trkpt lat="46.37559682215624" lon="11.087064834634843"><ele>754.0</ele><time>2026-04-17T11:47:34Z</time></trkpt><trkpt lat="46.37547367384432" lon="11.087143272692687"><ele>752.75</ele><time>2026-04-17T11:47:35Z</time></trkpt><trkpt lat="46.37534951647315" lon="11.087183277959971"><ele>751.5</ele><time>2026-04-17T11:47:36Z</time></trkpt><trkpt lat="46.37522316696343" lon="11.087171572684172"><ele>750.25</ele><time>2026-04-17T11:47:37Z</time></trkpt><trkpt lat="46.37508538011593" lon="11.0871269420914"><ele>749.0</ele><time>2026-04-17T11:47:38Z</time></trkpt><trkpt lat="46.37495211312979" lon="11.087097628843093"><ele>749.0</ele><time>2026-04-17T11:47:39Z</time></trkpt><trkpt lat="46.37482906150675" lon="11.087119542268221"><ele>749.0</ele><time>2026-04-17T11:47:40Z</time></trkpt><trkpt lat="46.37471841152229" lon="11.087181334178352"><ele>749.0</ele><time>2026-04-17T11:47:41Z</time></trkpt><trkpt lat="46.374620810326746" lon="11.087287402926878"><ele>749.0</ele><time>2026-04-17T11:47:42Z</time></trkpt><trkpt lat="46.3745464126421" lon="11.087447501548516"><ele>748.8000000000001</ele><time>2026-04-17T11:47:43Z</time></trkpt><trkpt lat="46.3744915304557" lon="11.087622951874103"><ele>748.6</ele><time>2026-04-17T11:47:44Z</time></trkpt><trkpt lat="46.37444153473652" lon="11.08775028822915"><ele>748.4</ele><time>2026-04-17T11:47:45Z</time></trkpt><trkpt lat="46.374366086830186" lon="11.087840320984203"><ele>748.2</ele><time>2026-04-17T11:47:46Z</time></trkpt><trkpt lat="46.374278427701164" lon="11.08786796618666"><ele>748.0</ele><time>2026-04-17T11:47:47Z</time></trkpt><trkpt lat="46.37419357481721" lon="11.087841511982145"><ele>748.0</ele><time>2026-04-17T11:47:48Z</time></trkpt><trkpt lat="46.374078004480424" lon="11.087771293947599"><ele>748.0</ele><time>2026-04-17T11:47:49Z</time></trkpt><trkpt lat="46.373928551240475" lon="11.087660103507558"><ele>748.0</ele><time>2026-04-17T11:47:50Z</time></trkpt><trkpt lat="46.37378760960302" lon="11.087552472219972"><ele>747.5</ele><time>2026-04-17T11:47:51Z</time></trkpt><trkpt lat="46.37367011522895" lon="11.087477101004731"><ele>747.0</ele><time>2026-04-17T11:47:52Z</time></trkpt><trkpt lat="46.373568208318424" lon="11.087383687925058"><ele>746.5</ele><time>2026-04-17T11:47:53Z</time></trkpt><trkpt lat="46.373490521208375" lon="11.087248991037447"><ele>746.0</ele><time>2026-04-17T11:47:54Z</time></trkpt><trkpt lat="46.37343581670045" lon="11.087082920372172"><ele>744.25</ele><time>2026-04-17T11:47:55Z</time></trkpt><trkpt lat="46.37341726039336" lon="11.086888835203542"><ele>742.5</ele><time>2026-04-17T11:47:56Z</time></trkpt><trkpt lat="46.37343140845318" lon="11.08668873944658"><ele>740.75</ele><time>2026-04-17T11:47:57Z</time></trkpt><trkpt lat="46.37345919910722" lon="11.08651854824275"><ele>739.0</ele><time>2026-04-17T11:47:58Z</time></trkpt><trkpt lat="46.37344999380513" lon="11.086359088071362"><ele>737.0</ele><time>2026-04-17T11:47:59Z</time></trkpt><trkpt lat="46.37339313593342" lon="11.086203144896125"><ele>735.0</ele><time>2026-04-17T11:48:00Z</time></trkpt><trkpt lat="46.37329030650268" lon="11.08605873153658"><ele>733.0</ele><time>2026-04-17T11:48:01Z</time></trkpt><trkpt lat="46.37314637032008" lon="11.085941724328684"><ele>731.0</ele><time>2026-04-17T11:48:02Z</time></trkpt><trkpt lat="46.37300586459407" lon="11.085833703741226"><ele>728.3333333333333</ele><time>2026-04-17T11:48:03Z</time></trkpt><trkpt lat="46.37287718081522" lon="11.085682872173207"><ele>725.6666666666666</ele><time>2026-04-17T11:48:04Z</time></trkpt><trkpt lat="46.37277003831614" lon="11.085483995693917"><ele>723.0</ele><time>2026-04-17T11:48:05Z</time></trkpt><trkpt lat="46.37267528816538" lon="11.08526067203756"><ele>723.0</ele><time>2026-04-17T11:48:06Z</time></trkpt><trkpt lat="46.372607675099054" lon="11.08509543765886"><ele>723.0</ele><time>2026-04-17T11:48:07Z</time></trkpt><trkpt lat="46.37253599667082" lon="11.08497412013152"><ele>723.0</ele><time>2026-04-17T11:48:08Z</time></trkpt><trkpt lat="46.37244185986626" lon="11.084895906129484"><ele>723.0</ele><time>2026-04-17T11:48:09Z</time></trkpt><trkpt lat="46.37233382405898" lon="11.084866915450602"><ele>719.25</ele><time>2026-04-17T11:48:10Z</time></trkpt><trkpt lat="46.37221423611014" lon="11.084895417053874"><ele>715.5</ele><time>2026-04-17T11:48:11Z</time></trkpt><trkpt lat="46.37209631173515" lon="11.084978614841596"><ele>711.75</ele><time>2026-04-17T11:48:12Z</time></trkpt><trkpt lat="46.372009432701645" lon="11.085091015759492"><ele>708.0</ele><time>2026-04-17T11:48:13Z</time></trkpt><trkpt lat="46.37194886114287" lon="11.085218926272075"><ele>708.0</ele><time>2026-04-17T11:48:14Z</time></trkpt><trkpt lat="46.37192003148206" lon="11.085385671251307"><ele>708.0</ele><time>2026-04-17T11:48:15Z</time></trkpt><trkpt lat="46.37191824131266" lon="11.085584734853068"><ele>708.0</ele><time>2026-04-17T11:48:16Z</time></trkpt><trkpt lat="46.37190594042329" lon="11.085745032594913"><ele>708.0</ele><time>2026-04-17T11:48:17Z</time></trkpt><trkpt lat="46.37185366494762" lon="11.085877686213898"><ele>710.6666666666666</ele><time>2026-04-17T11:48:18Z</time></trkpt><trkpt lat="46.37177237469358" lon="11.08600884719673"><ele>713.3333333333333</ele><time>2026-04-17T11:48:19Z</time></trkpt><trkpt lat="46.37165271225872" lon="11.08615897066395"><ele>716.0</ele><time>2026-04-17T11:48:20Z</time></trkpt><trkpt lat="46.37152283104102" lon="11.086320753345516"><ele>716.0</ele><time>2026-04-17T11:48:21Z</time></trkpt><trkpt lat="46.371417892625985" lon="11.086472000070119"><ele>716.0</ele><time>2026-04-17T11:48:22Z</time></trkpt><trkpt lat="46.371342536724434" lon="11.086582646826606"><ele>716.0</ele><time>2026-04-17T11:48:23Z</time></trkpt><trkpt lat="46.37126733755425" lon="11.086677917668409"><ele>716.0</ele><time>2026-04-17T11:48:24Z</time></trkpt><trkpt lat="46.37118171489994" lon="11.08672787083781"><ele>716.0</ele><time>2026-04-17T11:48:25Z</time></trkpt><trkpt lat="46.37109924723495" lon="11.086725871033783"><ele>717.0</ele><time>2026-04-17T11:48:26Z</time></trkpt><trkpt lat="46.37102912861555" lon="11.086675590193279"><ele>718.0</ele><time>2026-04-17T11:48:27Z</time></trkpt><trkpt lat="46.37097839690854" lon="11.086582052741084"><ele>719.0</ele><time>2026-04-17T11:48:28Z</time></trkpt><trkpt lat="46.370934488443574" lon="11.086443503381748"><ele>720.0</ele><time>2026-04-17T11:48:29Z</time></trkpt><trkpt lat="46.37089775622606" lon="11.086256833036966"><ele>721.0</ele><time>2026-04-17T11:48:30Z</time></trkpt><trkpt lat="46.370873176906024" lon="11.08602298530953"><ele>718.0</ele><time>2026-04-17T11:48:31Z</time></trkpt><trkpt lat="46.37085317163359" lon="11.085823031814408"><ele>715.0</ele><time>2026-04-17T11:48:32Z</time></trkpt><trkpt lat="46.370831179653514" lon="11.085673657331435"><ele>712.0</ele><time>2026-04-17T11:48:33Z</time></trkpt><trkpt lat="46.37081297319288" lon="11.085571654396313"><ele>709.0</ele><time>2026-04-17T11:48:34Z</time></trkpt><trkpt lat="46.370709032431364" lon="11.085469599559614"><ele>706.0</ele><time>2026-04-17T11:48:36Z</time></trkpt><trkpt lat="46.37062805069677" lon="11.085501897256968"><ele>706.0</ele><time>2026-04-17T11:48:37Z</time></trkpt><trkpt lat="46.37056543850928" lon="11.085614530544436"><ele>706.0</ele><time>2026-04-17T11:48:38Z</time></trkpt><trkpt lat="46.3705342582435" lon="11.085777194110449"><ele>706.0</ele><time>2026-04-17T11:48:39Z</time></trkpt><trkpt lat="46.370495156540585" lon="11.086001679978606"><ele>706.0</ele><time>2026-04-17T11:48:40Z</time></trkpt><trkpt lat="46.37040512188628" lon="11.086193475709855"><ele>705.5999999999999</ele><time>2026-04-17T11:48:41Z</time></trkpt><trkpt lat="46.37034377176132" lon="11.086362590374742"><ele>705.2</ele><time>2026-04-17T11:48:42Z</time></trkpt><trkpt lat="46.370278688870094" lon="11.086492323847514"><ele>704.8</ele><time>2026-04-17T11:48:43Z</time></trkpt><trkpt lat="46.37023478430889" lon="11.086585225093545"><ele>704.4000000000001</ele><time>2026-04-17T11:48:44Z</time></trkpt><trkpt lat="46.370146427666185" lon="11.086616415935595"><ele>704.0</ele><time>2026-04-17T11:48:46Z</time></trkpt><trkpt lat="46.37010166215423" lon="11.086533939471316"><ele>704.0</ele><time>2026-04-17T11:48:47Z</time></trkpt><trkpt lat="46.37009072903572" lon="11.086423251811446"><ele>704.0</ele><time>2026-04-17T11:48:48Z</time></trkpt><trkpt lat="46.37012886401526" lon="11.086310703493554"><ele>704.0</ele><time>2026-04-17T11:48:49Z</time></trkpt><trkpt lat="46.37020761699015" lon="11.086198952116886"><ele>704.0</ele><time>2026-04-17T11:48:50Z</time></trkpt><trkpt lat="46.370288872586116" lon="11.086067911475483"><ele>704.0</ele><time>2026-04-17T11:48:51Z</time></trkpt><trkpt lat="46.370349696471344" lon="11.085912159431365"><ele>697.75</ele><time>2026-04-17T11:48:51.999Z</time></trkpt><trkpt lat="46.37038924981365" lon="11.085705945275436"><ele>691.5</ele><time>2026-04-17T11:48:52.999Z</time></trkpt><trkpt lat="46.370403490662795" lon="11.085504171581833"><ele>685.25</ele><time>2026-04-17T11:48:53.999Z</time></trkpt><trkpt lat="46.37040770149294" lon="11.08535344883626"><ele>679.0</ele><time>2026-04-17T11:48:54.999Z</time></trkpt><trkpt lat="46.370438244619606" lon="11.085223031460789"><ele>679.0</ele><time>2026-04-17T11:48:55.999Z</time></trkpt><trkpt lat="46.370520667393514" lon="11.085139372123482"><ele>679.0</ele><time>2026-04-17T11:48:56.999Z</time></trkpt><trkpt lat="46.370622669650174" lon="11.085123784276256"><ele>679.0</ele><time>2026-04-17T11:48:57.999Z</time></trkpt><trkpt lat="46.37072669459547" lon="11.085146186581202"><ele>679.0</ele><time>2026-04-17T11:48:58.999Z</time></trkpt><trkpt lat="46.3708533026705" lon="11.085145214402631"><ele>679.0</ele><time>2026-04-17T11:48:59.999Z</time></trkpt><trkpt lat="46.37098781870909" lon="11.08518943195263"><ele>678.0</ele><time>2026-04-17T11:49:00.999Z</time></trkpt><trkpt lat="46.37109413016017" lon="11.085182169299399"><ele>677.0</ele><time>2026-04-17T11:49:01.999Z</time></trkpt><trkpt lat="46.37119725177139" lon="11.085119681817137"><ele>676.0</ele><time>2026-04-17T11:49:02.999Z</time></trkpt><trkpt lat="46.3712891474689" lon="11.085004692834012"><ele>675.0</ele><time>2026-04-17T11:49:03.999Z</time></trkpt><trkpt lat="46.37135679372789" lon="11.08484742325592"><ele>683.0</ele><time>2026-04-17T11:49:04.999Z</time></trkpt><trkpt lat="46.371385778450694" lon="11.084645560617442"><ele>691.0</ele><time>2026-04-17T11:49:05.999Z</time></trkpt><trkpt lat="46.37139950290015" lon="11.084397922177637"><ele>699.0</ele><time>2026-04-17T11:49:06.999Z</time></trkpt><trkpt lat="46.37141059299008" lon="11.084145096699656"><ele>697.0</ele><time>2026-04-17T11:49:07.999Z</time></trkpt><trkpt lat="46.37141533810927" lon="11.083945137979159"><ele>695.0</ele><time>2026-04-17T11:49:08.999Z</time></trkpt><trkpt lat="46.371397032352895" lon="11.083768933448194"><ele>693.0</ele><time>2026-04-17T11:49:09.999Z</time></trkpt><trkpt lat="46.371338272633025" lon="11.083585475505933"><ele>691.0</ele><time>2026-04-17T11:49:10.999Z</time></trkpt><trkpt lat="46.371240657180834" lon="11.08339724579032"><ele>685.0</ele><time>2026-04-17T11:49:11.999Z</time></trkpt><trkpt lat="46.37112405025157" lon="11.083239653173917"><ele>679.0</ele><time>2026-04-17T11:49:12.999Z</time></trkpt><trkpt lat="46.370975760222755" lon="11.083066304616791"><ele>673.0</ele><time>2026-04-17T11:49:13.999Z</time></trkpt><trkpt lat="46.37082915737371" lon="11.082892615253373"><ele>673.0</ele><time>2026-04-17T11:49:14.999Z</time></trkpt><trkpt lat="46.37071253775157" lon="11.082736120001604"><ele>673.0</ele><time>2026-04-17T11:49:15.999Z</time></trkpt><trkpt lat="46.37061431252795" lon="11.082566031769865"><ele>673.0</ele><time>2026-04-17T11:49:16.999Z</time></trkpt><trkpt lat="46.37056939577075" lon="11.082368532942855"><ele>672.6666666666667</ele><time>2026-04-17T11:49:17.999Z</time></trkpt><trkpt lat="46.370539616518855" lon="11.082179900100096"><ele>672.3333333333334</ele><time>2026-04-17T11:49:18.999Z</time></trkpt><trkpt lat="46.370498229564184" lon="11.081962188172696"><ele>672.0</ele><time>2026-04-17T11:49:19.999Z</time></trkpt><trkpt lat="46.37046161402041" lon="11.08171401414608"><ele>673.0</ele><time>2026-04-17T11:49:20.999Z</time></trkpt><trkpt lat="46.37039011925621" lon="11.08147099038455"><ele>674.0</ele><time>2026-04-17T11:49:21.999Z</time></trkpt><trkpt lat="46.37027934287096" lon="11.08126878992715"><ele>675.0</ele><time>2026-04-17T11:49:22.999Z</time></trkpt><trkpt lat="46.370149835313576" lon="11.081059405261191"><ele>675.0</ele><time>2026-04-17T11:49:23.999Z</time></trkpt><trkpt lat="46.370008386665546" lon="11.080798870543282"><ele>675.0</ele><time>2026-04-17T11:49:24.999Z</time></trkpt><trkpt lat="46.36987224483055" lon="11.080549353406784"><ele>675.0</ele><time>2026-04-17T11:49:25.999Z</time></trkpt><trkpt lat="46.369715750025115" lon="11.080262680549968"><ele>675.5</ele><time>2026-04-17T11:49:26.999Z</time></trkpt><trkpt lat="46.36954763661782" lon="11.079973184003686"><ele>676.0</ele><time>2026-04-17T11:49:27.999Z</time></trkpt><trkpt lat="46.369402822572404" lon="11.079713868429872"><ele>675.6666666666667</ele><time>2026-04-17T11:49:29Z</time></trkpt><trkpt lat="46.36927242528288" lon="11.079469164312043"><ele>675.3333333333334</ele><time>2026-04-17T11:49:30Z</time></trkpt><trkpt lat="46.36914508536662" lon="11.079236379018269"><ele>675.0</ele><time>2026-04-17T11:49:31Z</time></trkpt><trkpt lat="46.369009518615655" lon="11.079001082221941"><ele>675.0</ele><time>2026-04-17T11:49:32Z</time></trkpt><trkpt lat="46.36886922785553" lon="11.078770178004792"><ele>675.0</ele><time>2026-04-17T11:49:33Z</time></trkpt><trkpt lat="46.368724972706076" lon="11.078549101461439"><ele>675.0</ele><time>2026-04-17T11:49:34Z</time></trkpt><trkpt lat="46.368557912926626" lon="11.078308076735143"><ele>673.0</ele><time>2026-04-17T11:49:35Z</time></trkpt><trkpt lat="46.368396023035416" lon="11.078070784342376"><ele>671.0</ele><time>2026-04-17T11:49:36Z</time></trkpt><trkpt lat="46.36823509051081" lon="11.077818652781652"><ele>671.0</ele><time>2026-04-17T11:49:37Z</time></trkpt><trkpt lat="46.368068482498245" lon="11.077537177995257"><ele>671.0</ele><time>2026-04-17T11:49:38Z</time></trkpt><trkpt lat="46.36791718147354" lon="11.077262648056294"><ele>669.5</ele><time>2026-04-17T11:49:39Z</time></trkpt><trkpt lat="46.36776582528317" lon="11.077018006779346"><ele>668.0</ele><time>2026-04-17T11:49:40Z</time></trkpt><trkpt lat="46.36759647082042" lon="11.076774290804261"><ele>667.0</ele><time>2026-04-17T11:49:41Z</time></trkpt><trkpt lat="46.36744791018569" lon="11.076547528237521"><ele>666.0</ele><time>2026-04-17T11:49:42Z</time></trkpt><trkpt lat="46.36730988324384" lon="11.0763302869969"><ele>665.0</ele><time>2026-04-17T11:49:43Z</time></trkpt><trkpt lat="46.36717536968348" lon="11.076117783054492"><ele>663.6666666666666</ele><time>2026-04-17T11:49:44Z</time></trkpt><trkpt lat="46.36705842890551" lon="11.075917120198152"><ele>662.3333333333334</ele><time>2026-04-17T11:49:45Z</time></trkpt><trkpt lat="46.36695442290692" lon="11.075728606865317"><ele>661.0</ele><time>2026-04-17T11:49:46Z</time></trkpt><trkpt lat="46.36685101633444" lon="11.075540528869178"><ele>660.3333333333334</ele><time>2026-04-17T11:49:47Z</time></trkpt><trkpt lat="46.36674455980126" lon="11.07536688429831"><ele>659.6666666666666</ele><time>2026-04-17T11:49:48Z</time></trkpt><trkpt lat="46.36662545205881" lon="11.075204450636775"><ele>659.0</ele><time>2026-04-17T11:49:49Z</time></trkpt><trkpt lat="46.366508285315604" lon="11.075057585909988"><ele>657.75</ele><time>2026-04-17T11:49:50Z</time></trkpt><trkpt lat="46.36639626633262" lon="11.074934017573936"><ele>656.5</ele><time>2026-04-17T11:49:51Z</time></trkpt><trkpt lat="46.36628959428668" lon="11.074831132751767"><ele>655.25</ele><time>2026-04-17T11:49:52Z</time></trkpt><trkpt lat="46.36619179114759" lon="11.074723883324857"><ele>654.0</ele><time>2026-04-17T11:49:53Z</time></trkpt><trkpt lat="46.366099319853056" lon="11.074622393336847"><ele>654.0</ele><time>2026-04-17T11:49:54Z</time></trkpt><trkpt lat="46.36601092177023" lon="11.074527814747311"><ele>654.0</ele><time>2026-04-17T11:49:55Z</time></trkpt><trkpt lat="46.36592788268016" lon="11.074437932185822"><ele>654.0</ele><time>2026-04-17T11:49:56Z</time></trkpt><trkpt lat="46.365850198823594" lon="11.074356409036639"><ele>654.0</ele><time>2026-04-17T11:49:57Z</time></trkpt><trkpt lat="46.36577801964923" lon="11.074271285892689"><ele>654.0</ele><time>2026-04-17T11:49:58Z</time></trkpt><trkpt lat="46.36569842373505" lon="11.074186844450676"><ele>653.25</ele><time>2026-04-17T11:49:59Z</time></trkpt><trkpt lat="46.36561423491135" lon="11.074066831453663"><ele>652.5</ele><time>2026-04-17T11:50:00Z</time></trkpt><trkpt lat="46.36551145047115" lon="11.07393529301488"><ele>651.75</ele><time>2026-04-17T11:50:01Z</time></trkpt><trkpt lat="46.365405835826934" lon="11.073775073341984"><ele>651.0</ele><time>2026-04-17T11:50:02Z</time></trkpt><trkpt lat="46.365317118859856" lon="11.073620130516034"><ele>651.0</ele><time>2026-04-17T11:50:03Z</time></trkpt><trkpt lat="46.365228308941546" lon="11.073481043213354"><ele>651.0</ele><time>2026-04-17T11:50:04Z</time></trkpt><trkpt lat="46.36514128967528" lon="11.073342569593024"><ele>651.0</ele><time>2026-04-17T11:50:05Z</time></trkpt><trkpt lat="46.365069061877136" lon="11.073202411167427"><ele>651.0</ele><time>2026-04-17T11:50:06Z</time></trkpt><trkpt lat="46.3649970886704" lon="11.07306982169408"><ele>649.75</ele><time>2026-04-17T11:50:07Z</time></trkpt><trkpt lat="46.36492008470891" lon="11.072939764922811"><ele>648.5</ele><time>2026-04-17T11:50:08Z</time></trkpt><trkpt lat="46.36483956989645" lon="11.072821202763791"><ele>647.25</ele><time>2026-04-17T11:50:09Z</time></trkpt><trkpt lat="46.36475285368463" lon="11.07272975839279"><ele>646.0</ele><time>2026-04-17T11:50:10Z</time></trkpt><trkpt lat="46.36464410519526" lon="11.072680854691887"><ele>645.5999999999999</ele><time>2026-04-17T11:50:11Z</time></trkpt><trkpt lat="46.36452552295487" lon="11.07266284735209"><ele>645.2</ele><time>2026-04-17T11:50:12Z</time></trkpt><trkpt lat="46.36441042785287" lon="11.072683388880993"><ele>644.8</ele><time>2026-04-17T11:50:13Z</time></trkpt><trkpt lat="46.36430951991495" lon="11.072729816661775"><ele>644.4000000000001</ele><time>2026-04-17T11:50:14Z</time></trkpt><trkpt lat="46.364227152985194" lon="11.072807940689517"><ele>644.0</ele><time>2026-04-17T11:50:15Z</time></trkpt><trkpt lat="46.364157355487976" lon="11.072928277119306"><ele>644.0</ele><time>2026-04-17T11:50:16Z</time></trkpt><trkpt lat="46.36410148254606" lon="11.07307545302296"><ele>644.0</ele><time>2026-04-17T11:50:17Z</time></trkpt><trkpt lat="46.36406953454377" lon="11.073230097091939"><ele>644.0</ele><time>2026-04-17T11:50:18Z</time></trkpt><trkpt lat="46.36405876779092" lon="11.073396715049395"><ele>644.0</ele><time>2026-04-17T11:50:19Z</time></trkpt><trkpt lat="46.364086211340435" lon="11.073569947340982"><ele>643.25</ele><time>2026-04-17T11:50:20Z</time></trkpt><trkpt lat="46.364140122869415" lon="11.073730858372704"><ele>642.5</ele><time>2026-04-17T11:50:21Z</time></trkpt><trkpt lat="46.364225144058395" lon="11.073866916167626"><ele>641.75</ele><time>2026-04-17T11:50:22Z</time></trkpt><trkpt lat="46.36432426183762" lon="11.073992567738243"><ele>641.0</ele><time>2026-04-17T11:50:23Z</time></trkpt><trkpt lat="46.364425585355384" lon="11.074116358518555"><ele>636.75</ele><time>2026-04-17T11:50:24Z</time></trkpt><trkpt lat="46.36450850930186" lon="11.07424365733623"><ele>632.5</ele><time>2026-04-17T11:50:25Z</time></trkpt><trkpt lat="46.36458372696746" lon="11.07439026753541"><ele>628.25</ele><time>2026-04-17T11:50:26Z</time></trkpt><trkpt lat="46.36464908409334" lon="11.074566908304606"><ele>624.0</ele><time>2026-04-17T11:50:27Z</time></trkpt><trkpt lat="46.36467696737003" lon="11.074770117709502"><ele>629.0</ele><time>2026-04-17T11:50:28Z</time></trkpt><trkpt lat="46.36471697788862" lon="11.074955586932948"><ele>634.0</ele><time>2026-04-17T11:50:29Z</time></trkpt><trkpt lat="46.36472859442229" lon="11.0751446875821"><ele>639.0</ele><time>2026-04-17T11:50:30Z</time></trkpt><trkpt lat="46.36474599486938" lon="11.075341511987158"><ele>644.0</ele><time>2026-04-17T11:50:31Z</time></trkpt><trkpt lat="46.36476993876942" lon="11.07554046679619"><ele>644.0</ele><time>2026-04-17T11:50:32Z</time></trkpt><trkpt lat="46.364791607880456" lon="11.075727294269866"><ele>644.0</ele><time>2026-04-17T11:50:33Z</time></trkpt><trkpt lat="46.36480417556102" lon="11.075907253584555"><ele>644.0</ele><time>2026-04-17T11:50:34Z</time></trkpt><trkpt lat="46.36480295594185" lon="11.076095390531163"><ele>644.0</ele><time>2026-04-17T11:50:35Z</time></trkpt><trkpt lat="46.364781390606275" lon="11.076290139622797"><ele>641.75</ele><time>2026-04-17T11:50:36Z</time></trkpt><trkpt lat="46.364735622112796" lon="11.076491996479719"><ele>639.5</ele><time>2026-04-17T11:50:37Z</time></trkpt><trkpt lat="46.364680751376575" lon="11.07668993640991"><ele>637.25</ele><time>2026-04-17T11:50:38Z</time></trkpt><trkpt lat="46.36463559367252" lon="11.076845990749963"><ele>635.0</ele><time>2026-04-17T11:50:39Z</time></trkpt><trkpt lat="46.364580964367214" lon="11.076972113378684"><ele>630.5</ele><time>2026-04-17T11:50:40Z</time></trkpt><trkpt lat="46.36450470983813" lon="11.077072405095914"><ele>626.0</ele><time>2026-04-17T11:50:41Z</time></trkpt><trkpt lat="46.36440671730851" lon="11.077146222621105"><ele>621.5</ele><time>2026-04-17T11:50:42Z</time></trkpt><trkpt lat="46.364293494204915" lon="11.077191904208462"><ele>617.0</ele><time>2026-04-17T11:50:43Z</time></trkpt><trkpt lat="46.36416259930566" lon="11.077203627655718"><ele>617.0</ele><time>2026-04-17T11:50:44Z</time></trkpt><trkpt lat="46.364024344788916" lon="11.07719218298807"><ele>617.0</ele><time>2026-04-17T11:50:45Z</time></trkpt><trkpt lat="46.36391268979851" lon="11.077183973711833"><ele>617.0</ele><time>2026-04-17T11:50:46Z</time></trkpt><trkpt lat="46.36382144813163" lon="11.077156225743453"><ele>617.0</ele><time>2026-04-17T11:50:47Z</time></trkpt><trkpt lat="46.36374592906966" lon="11.077089594690163"><ele>617.0</ele><time>2026-04-17T11:50:47.999Z</time></trkpt><trkpt lat="46.36367557571732" lon="11.076979224696704"><ele>616.0</ele><time>2026-04-17T11:50:48.999Z</time></trkpt><trkpt lat="46.36359609962757" lon="11.0768146639464"><ele>615.0</ele><time>2026-04-17T11:50:49.999Z</time></trkpt><trkpt lat="46.363494673448706" lon="11.076600375962101"><ele>614.0</ele><time>2026-04-17T11:50:50.999Z</time></trkpt><trkpt lat="46.36339083492182" lon="11.076404188211509"><ele>614.0</ele><time>2026-04-17T11:50:51.999Z</time></trkpt><trkpt lat="46.36330001581687" lon="11.076230737418584"><ele>614.0</ele><time>2026-04-17T11:50:52.999Z</time></trkpt><trkpt lat="46.36320231731784" lon="11.076054527354394"><ele>614.0</ele><time>2026-04-17T11:50:53.999Z</time></trkpt><trkpt lat="46.363094273822625" lon="11.075872025532245"><ele>615.3333333333333</ele><time>2026-04-17T11:50:54.999Z</time></trkpt><trkpt lat="46.36298176841438" lon="11.075696479406968"><ele>616.6666666666666</ele><time>2026-04-17T11:50:55.999Z</time></trkpt><trkpt lat="46.36288089956207" lon="11.07553478241098"><ele>618.0</ele><time>2026-04-17T11:50:56.999Z</time></trkpt><trkpt lat="46.3627891939554" lon="11.075388090427277"><ele>618.0</ele><time>2026-04-17T11:50:57.999Z</time></trkpt><trkpt lat="46.36269260661255" lon="11.075258272042916"><ele>618.0</ele><time>2026-04-17T11:50:58.999Z</time></trkpt><trkpt lat="46.36258046959691" lon="11.075158886314016"><ele>618.0</ele><time>2026-04-17T11:50:59.999Z</time></trkpt><trkpt lat="46.3624427940646" lon="11.075096722489546"><ele>618.0</ele><time>2026-04-17T11:51:00.999Z</time></trkpt><trkpt lat="46.3622876929532" lon="11.075068795677597"><ele>619.75</ele><time>2026-04-17T11:51:01.999Z</time></trkpt><trkpt lat="46.36214903860353" lon="11.075031044113706"><ele>621.5</ele><time>2026-04-17T11:51:02.999Z</time></trkpt><trkpt lat="46.36202281671708" lon="11.074953424316092"><ele>623.25</ele><time>2026-04-17T11:51:03.999Z</time></trkpt><trkpt lat="46.36189176262371" lon="11.074839642012437"><ele>625.0</ele><time>2026-04-17T11:51:04.999Z</time></trkpt><trkpt lat="46.36175788607516" lon="11.074702767840689"><ele>621.75</ele><time>2026-04-17T11:51:05.999Z</time></trkpt><trkpt lat="46.36164166893007" lon="11.074575464237576"><ele>618.5</ele><time>2026-04-17T11:51:06.999Z</time></trkpt><trkpt lat="46.36152456638233" lon="11.074464987266573"><ele>615.25</ele><time>2026-04-17T11:51:07.999Z</time></trkpt><trkpt lat="46.3613951186019" lon="11.074358193035831"><ele>612.0</ele><time>2026-04-17T11:51:08.999Z</time></trkpt><trkpt lat="46.36124591262733" lon="11.074265340790863"><ele>612.0</ele><time>2026-04-17T11:51:09.999Z</time></trkpt><trkpt lat="46.361093658148036" lon="11.074190713648317"><ele>612.0</ele><time>2026-04-17T11:51:10.999Z</time></trkpt><trkpt lat="46.360933454822614" lon="11.074149246314885"><ele>612.0</ele><time>2026-04-17T11:51:11.999Z</time></trkpt><trkpt lat="46.36073716507358" lon="11.074120850657629"><ele>610.0</ele><time>2026-04-17T11:51:12.999Z</time></trkpt><trkpt lat="46.36058207735898" lon="11.074070524401604"><ele>608.0</ele><time>2026-04-17T11:51:13.999Z</time></trkpt><trkpt lat="46.360427888716686" lon="11.074029510731062"><ele>606.0</ele><time>2026-04-17T11:51:14.999Z</time></trkpt><trkpt lat="46.36028184308995" lon="11.073979904814095"><ele>606.0</ele><time>2026-04-17T11:51:15.999Z</time></trkpt><trkpt lat="46.36013245607756" lon="11.07393098252906"><ele>606.0</ele><time>2026-04-17T11:51:16.999Z</time></trkpt><trkpt lat="46.3599900052177" lon="11.073858512759523"><ele>606.0</ele><time>2026-04-17T11:51:17.999Z</time></trkpt><trkpt lat="46.35985524113866" lon="11.073754013143503"><ele>606.0</ele><time>2026-04-17T11:51:18.999Z</time></trkpt><trkpt lat="46.359737473196965" lon="11.073617800748748"><ele>606.0</ele><time>2026-04-17T11:51:19.999Z</time></trkpt><trkpt lat="46.35963824727837" lon="11.073472229626235"><ele>606.0</ele><time>2026-04-17T11:51:20.999Z</time></trkpt><trkpt lat="46.359567312183465" lon="11.073319570286007"><ele>606.0</ele><time>2026-04-17T11:51:21.999Z</time></trkpt><trkpt lat="46.359515233834976" lon="11.073159434816892"><ele>609.0</ele><time>2026-04-17T11:51:22.999Z</time></trkpt><trkpt lat="46.359471298146836" lon="11.072982709913646"><ele>612.0</ele><time>2026-04-17T11:51:23.999Z</time></trkpt><trkpt lat="46.359448571084464" lon="11.072797313067065"><ele>615.0</ele><time>2026-04-17T11:51:24.999Z</time></trkpt><trkpt lat="46.35944978143078" lon="11.072602695008795"><ele>618.0</ele><time>2026-04-17T11:51:25.999Z</time></trkpt><trkpt lat="46.35946644608256" lon="11.072410175551827"><ele>618.0</ele><time>2026-04-17T11:51:26.999Z</time></trkpt><trkpt lat="46.359479170481265" lon="11.072203264352689"><ele>618.0</ele><time>2026-04-17T11:51:27.999Z</time></trkpt><trkpt lat="46.359463852876544" lon="11.071993868179227"><ele>618.0</ele><time>2026-04-17T11:51:28.999Z</time></trkpt><trkpt lat="46.35944940903329" lon="11.071806447956927"><ele>618.0</ele><time>2026-04-17T11:51:29.999Z</time></trkpt><trkpt lat="46.3594307061994" lon="11.071650213518796"><ele>613.5</ele><time>2026-04-17T11:51:30.999Z</time></trkpt><trkpt lat="46.359381372981176" lon="11.071501559571065"><ele>609.0</ele><time>2026-04-17T11:51:31.999Z</time></trkpt><trkpt lat="46.359303437435415" lon="11.071369588630876"><ele>604.5</ele><time>2026-04-17T11:51:32.999Z</time></trkpt><trkpt lat="46.35919346474756" lon="11.071247970493907"><ele>600.0</ele><time>2026-04-17T11:51:33.999Z</time></trkpt><trkpt lat="46.35904354289661" lon="11.071112972929157"><ele>600.3333333333334</ele><time>2026-04-17T11:51:35Z</time></trkpt><trkpt lat="46.35886594135604" lon="11.07095956138416"><ele>600.6666666666667</ele><time>2026-04-17T11:51:36Z</time></trkpt><trkpt lat="46.35869410305377" lon="11.070808343006256"><ele>601.0</ele><time>2026-04-17T11:51:37Z</time></trkpt><trkpt lat="46.358505182736835" lon="11.070631719942929"><ele>601.0</ele><time>2026-04-17T11:51:38Z</time></trkpt><trkpt lat="46.35833469486933" lon="11.070457726284234"><ele>601.0</ele><time>2026-04-17T11:51:39Z</time></trkpt><trkpt lat="46.35818908917758" lon="11.070284344492107"><ele>601.0</ele><time>2026-04-17T11:51:40Z</time></trkpt><trkpt lat="46.358056934177505" lon="11.070107635414894"><ele>600.3333333333334</ele><time>2026-04-17T11:51:41Z</time></trkpt><trkpt lat="46.35790356638629" lon="11.069949004468931"><ele>599.6666666666666</ele><time>2026-04-17T11:51:42Z</time></trkpt><trkpt lat="46.35772332951339" lon="11.06978406968526"><ele>599.0</ele><time>2026-04-17T11:51:43Z</time></trkpt><trkpt lat="46.35757089104603" lon="11.06962797554066"><ele>599.0</ele><time>2026-04-17T11:51:44Z</time></trkpt><trkpt lat="46.357426900281894" lon="11.069473720417939"><ele>599.0</ele><time>2026-04-17T11:51:45Z</time></trkpt><trkpt lat="46.35727896493251" lon="11.069325538854093"><ele>599.0</ele><time>2026-04-17T11:51:46Z</time></trkpt><trkpt lat="46.357128172581426" lon="11.069168983672848"><ele>596.6666666666666</ele><time>2026-04-17T11:51:47Z</time></trkpt><trkpt lat="46.356982529598646" lon="11.069026271064969"><ele>594.3333333333334</ele><time>2026-04-17T11:51:48Z</time></trkpt><trkpt lat="46.35683811183512" lon="11.068916489241595"><ele>592.0</ele><time>2026-04-17T11:51:49Z</time></trkpt><trkpt lat="46.35668044850787" lon="11.068829815988094"><ele>592.0</ele><time>2026-04-17T11:51:50Z</time></trkpt><trkpt lat="46.356494766722776" lon="11.068769957984495"><ele>592.0</ele><time>2026-04-17T11:51:51Z</time></trkpt><trkpt lat="46.3562856510134" lon="11.06872694750598"><ele>592.0</ele><time>2026-04-17T11:51:52Z</time></trkpt><trkpt lat="46.35607964324729" lon="11.068690590839584"><ele>594.6666666666667</ele><time>2026-04-17T11:51:53Z</time></trkpt><trkpt lat="46.35589538008689" lon="11.068651680986088"><ele>597.3333333333334</ele><time>2026-04-17T11:51:54Z</time></trkpt><trkpt lat="46.35571456292452" lon="11.068608376535733"><ele>600.0</ele><time>2026-04-17T11:51:55Z</time></trkpt><trkpt lat="46.355526449612974" lon="11.068570752442078"><ele>600.0</ele><time>2026-04-17T11:51:56Z</time></trkpt><trkpt lat="46.3553347004548" lon="11.06853922514203"><ele>600.0</ele><time>2026-04-17T11:51:57Z</time></trkpt><trkpt lat="46.355157503867154" lon="11.068519418699184"><ele>600.0</ele><time>2026-04-17T11:51:58Z</time></trkpt><trkpt lat="46.35497600289795" lon="11.068514099152832"><ele>600.0</ele><time>2026-04-17T11:51:59Z</time></trkpt><trkpt lat="46.354793147103145" lon="11.068509034672852"><ele>600.0</ele><time>2026-04-17T11:52:00Z</time></trkpt><trkpt lat="46.35462228195732" lon="11.068497588206482"><ele>600.0</ele><time>2026-04-17T11:52:01Z</time></trkpt><trkpt lat="46.354451333780794" lon="11.068480532295473"><ele>598.3333333333334</ele><time>2026-04-17T11:52:02Z</time></trkpt><trkpt lat="46.3542779176779" lon="11.068447106579244"><ele>596.6666666666667</ele><time>2026-04-17T11:52:03Z</time></trkpt><trkpt lat="46.354102157269836" lon="11.06838843119022"><ele>595.0</ele><time>2026-04-17T11:52:04Z</time></trkpt><trkpt lat="46.353922743642975" lon="11.068311931001164"><ele>593.3333333333334</ele><time>2026-04-17T11:52:05Z</time></trkpt><trkpt lat="46.35373886567246" lon="11.068212582922417"><ele>591.6666666666666</ele><time>2026-04-17T11:52:06Z</time></trkpt><trkpt lat="46.35355553320007" lon="11.068094070427877"><ele>590.0</ele><time>2026-04-17T11:52:07Z</time></trkpt><trkpt lat="46.35338706845947" lon="11.067981013453073"><ele>590.0</ele><time>2026-04-17T11:52:08Z</time></trkpt><trkpt lat="46.35322522320235" lon="11.067871510297158"><ele>590.0</ele><time>2026-04-17T11:52:09Z</time></trkpt><trkpt lat="46.35305948982909" lon="11.067758664615258"><ele>590.0</ele><time>2026-04-17T11:52:10Z</time></trkpt><trkpt lat="46.35289203806332" lon="11.067635622057441"><ele>588.6666666666666</ele><time>2026-04-17T11:52:11Z</time></trkpt><trkpt lat="46.35272468747966" lon="11.067505047402017"><ele>587.3333333333334</ele><time>2026-04-17T11:52:12Z</time></trkpt><trkpt lat="46.352557587304695" lon="11.067365396721428"><ele>586.0</ele><time>2026-04-17T11:52:13Z</time></trkpt><trkpt lat="46.35238958026218" lon="11.067223599389116"><ele>586.0</ele><time>2026-04-17T11:52:14Z</time></trkpt><trkpt lat="46.35221878054651" lon="11.067084326399709"><ele>586.0</ele><time>2026-04-17T11:52:15Z</time></trkpt><trkpt lat="46.35204800121" lon="11.066943015549493"><ele>586.0</ele><time>2026-04-17T11:52:16Z</time></trkpt><trkpt lat="46.35187671809297" lon="11.06680009941101"><ele>587.0</ele><time>2026-04-17T11:52:17Z</time></trkpt><trkpt lat="46.35170193154343" lon="11.066657726035567"><ele>588.0</ele><time>2026-04-17T11:52:18Z</time></trkpt><trkpt lat="46.35153972416634" lon="11.06652224356658"><ele>589.0</ele><time>2026-04-17T11:52:19Z</time></trkpt><trkpt lat="46.35138298420925" lon="11.066386275979966"><ele>586.3333333333334</ele><time>2026-04-17T11:52:20Z</time></trkpt><trkpt lat="46.35121970504521" lon="11.066247415310054"><ele>583.6666666666666</ele><time>2026-04-17T11:52:21Z</time></trkpt><trkpt lat="46.35106263542162" lon="11.066116011080853"><ele>581.0</ele><time>2026-04-17T11:52:22Z</time></trkpt><trkpt lat="46.350922470930996" lon="11.06599173543243"><ele>581.0</ele><time>2026-04-17T11:52:23Z</time></trkpt><trkpt lat="46.35077556893254" lon="11.065894964976248"><ele>581.0</ele><time>2026-04-17T11:52:24Z</time></trkpt><trkpt lat="46.350617583628946" lon="11.065823451522565"><ele>581.0</ele><time>2026-04-17T11:52:25Z</time></trkpt><trkpt lat="46.35043567974133" lon="11.06576352830242"><ele>577.6666666666666</ele><time>2026-04-17T11:52:26Z</time></trkpt><trkpt lat="46.350226439062894" lon="11.065700735284429"><ele>574.3333333333334</ele><time>2026-04-17T11:52:27Z</time></trkpt><trkpt lat="46.350039789893" lon="11.065635191189534"><ele>571.0</ele><time>2026-04-17T11:52:28Z</time></trkpt><trkpt lat="46.34986123322354" lon="11.065569710369077"><ele>571.0</ele><time>2026-04-17T11:52:29Z</time></trkpt><trkpt lat="46.34968220990737" lon="11.065506833742104"><ele>571.0</ele><time>2026-04-17T11:52:30Z</time></trkpt><trkpt lat="46.34951344688988" lon="11.06544672387326"><ele>571.0</ele><time>2026-04-17T11:52:31Z</time></trkpt><trkpt lat="46.34935354322452" lon="11.065390710193615"><ele>571.0</ele><time>2026-04-17T11:52:32Z</time></trkpt><trkpt lat="46.349200005476696" lon="11.065342688290464"><ele>571.0</ele><time>2026-04-17T11:52:33Z</time></trkpt><trkpt lat="46.34905158740532" lon="11.06530828840006"><ele>571.0</ele><time>2026-04-17T11:52:34Z</time></trkpt><trkpt lat="46.34890195501623" lon="11.065291170065453"><ele>572.3333333333334</ele><time>2026-04-17T11:52:35Z</time></trkpt><trkpt lat="46.348743370858976" lon="11.065290939919507"><ele>573.6666666666666</ele><time>2026-04-17T11:52:36Z</time></trkpt><trkpt lat="46.34858069729357" lon="11.065291659116399"><ele>575.0</ele><time>2026-04-17T11:52:37Z</time></trkpt><trkpt lat="46.34843421539148" lon="11.065256247836343"><ele>575.0</ele><time>2026-04-17T11:52:38Z</time></trkpt><trkpt lat="46.34828966001559" lon="11.065189026834291"><ele>575.0</ele><time>2026-04-17T11:52:39Z</time></trkpt><trkpt lat="46.34814047516167" lon="11.065093247012838"><ele>575.0</ele><time>2026-04-17T11:52:40Z</time></trkpt><trkpt lat="46.34799238902773" lon="11.064974996921316"><ele>572.3333333333333</ele><time>2026-04-17T11:52:41Z</time></trkpt><trkpt lat="46.34785775059293" lon="11.064862530417328"><ele>569.6666666666666</ele><time>2026-04-17T11:52:42Z</time></trkpt><trkpt lat="46.34772096018491" lon="11.06475508342004"><ele>567.0</ele><time>2026-04-17T11:52:43Z</time></trkpt><trkpt lat="46.34758428147185" lon="11.064647169290373"><ele>567.0</ele><time>2026-04-17T11:52:44Z</time></trkpt><trkpt lat="46.347446751549015" lon="11.06454065218131"><ele>567.0</ele><time>2026-04-17T11:52:45Z</time></trkpt><trkpt lat="46.34730857624833" lon="11.064438823533955"><ele>567.0</ele><time>2026-04-17T11:52:46Z</time></trkpt><trkpt lat="46.34718010669643" lon="11.06434918151687"><ele>570.0</ele><time>2026-04-17T11:52:47Z</time></trkpt><trkpt lat="46.34703281468158" lon="11.064292516845073"><ele>573.0</ele><time>2026-04-17T11:52:48Z</time></trkpt><trkpt lat="46.346860604759875" lon="11.064269827883646"><ele>576.0</ele><time>2026-04-17T11:52:49Z</time></trkpt><trkpt lat="46.34669904844489" lon="11.064256853763208"><ele>576.0</ele><time>2026-04-17T11:52:50Z</time></trkpt><trkpt lat="46.346549780666415" lon="11.064236907021488"><ele>576.0</ele><time>2026-04-17T11:52:50.999Z</time></trkpt><trkpt lat="46.34640952269781" lon="11.064214180044761"><ele>576.0</ele><time>2026-04-17T11:52:51.999Z</time></trkpt><trkpt lat="46.34627293173491" lon="11.064191914538926"><ele>576.0</ele><time>2026-04-17T11:52:52.999Z</time></trkpt><trkpt lat="46.34613688072896" lon="11.064179678538494"><ele>574.75</ele><time>2026-04-17T11:52:53.999Z</time></trkpt><trkpt lat="46.34601323272113" lon="11.064169054925461"><ele>573.5</ele><time>2026-04-17T11:52:54.999Z</time></trkpt><trkpt lat="46.34588123915243" lon="11.064157000931415"><ele>572.25</ele><time>2026-04-17T11:52:55.999Z</time></trkpt><trkpt lat="46.34574123429284" lon="11.06416994991946"><ele>571.0</ele><time>2026-04-17T11:52:56.999Z</time></trkpt><trkpt lat="46.345585249399875" lon="11.064222747958349"><ele>569.75</ele><time>2026-04-17T11:52:57.999Z</time></trkpt><trkpt lat="46.345438173866654" lon="11.064274607103709"><ele>568.5</ele><time>2026-04-17T11:52:58.999Z</time></trkpt><trkpt lat="46.34530309587118" lon="11.064314326437128"><ele>567.25</ele><time>2026-04-17T11:52:59.999Z</time></trkpt><trkpt lat="46.34516896859921" lon="11.064360967234911"><ele>566.0</ele><time>2026-04-17T11:53:00.999Z</time></trkpt><trkpt lat="46.345045579634224" lon="11.06440931231276"><ele>566.0</ele><time>2026-04-17T11:53:01.999Z</time></trkpt><trkpt lat="46.34492706154649" lon="11.064425070143344"><ele>566.0</ele><time>2026-04-17T11:53:02.999Z</time></trkpt><trkpt lat="46.344808633583334" lon="11.064420290844737"><ele>566.0</ele><time>2026-04-17T11:53:03.999Z</time></trkpt><trkpt lat="46.34468036714032" lon="11.064399972173982"><ele>566.0</ele><time>2026-04-17T11:53:04.999Z</time></trkpt><trkpt lat="46.344552704135886" lon="11.06434527081919"><ele>566.6666666666666</ele><time>2026-04-17T11:53:05.999Z</time></trkpt><trkpt lat="46.34442606978763" lon="11.06425799250154"><ele>567.3333333333334</ele><time>2026-04-17T11:53:06.999Z</time></trkpt><trkpt lat="46.34429014631996" lon="11.064134009258584"><ele>568.0</ele><time>2026-04-17T11:53:07.999Z</time></trkpt><trkpt lat="46.34415102514746" lon="11.06399786043177"><ele>567.3333333333334</ele><time>2026-04-17T11:53:08.999Z</time></trkpt><trkpt lat="46.34401157962412" lon="11.063882500302704"><ele>566.6666666666666</ele><time>2026-04-17T11:53:09.999Z</time></trkpt><trkpt lat="46.34385189741971" lon="11.063747945225993"><ele>566.0</ele><time>2026-04-17T11:53:10.999Z</time></trkpt><trkpt lat="46.34368780759768" lon="11.063626614163931"><ele>566.0</ele><time>2026-04-17T11:53:11.999Z</time></trkpt><trkpt lat="46.34353327390354" lon="11.063524423179706"><ele>566.0</ele><time>2026-04-17T11:53:12.999Z</time></trkpt><trkpt lat="46.343406560918424" lon="11.063450970926047"><ele>566.0</ele><time>2026-04-17T11:53:13.999Z</time></trkpt><trkpt lat="46.343300855735514" lon="11.063393895881276"><ele>566.0</ele><time>2026-04-17T11:53:14.999Z</time></trkpt><trkpt lat="46.343186893235746" lon="11.063333222421427"><ele>565.3333333333333</ele><time>2026-04-17T11:53:15.999Z</time></trkpt><trkpt lat="46.343012624428596" lon="11.063240441834084"><ele>564.6666666666666</ele><time>2026-04-17T11:53:16.999Z</time></trkpt><trkpt lat="46.34283329621622" lon="11.063144406285161"><ele>564.0</ele><time>2026-04-17T11:53:17.999Z</time></trkpt><trkpt lat="46.342634205271175" lon="11.063036173262306"><ele>564.0</ele><time>2026-04-17T11:53:18.999Z</time></trkpt><trkpt lat="46.34244549694506" lon="11.06295466124751"><ele>564.0</ele><time>2026-04-17T11:53:19.999Z</time></trkpt><trkpt lat="46.34228094544979" lon="11.062859297919868"><ele>564.0</ele><time>2026-04-17T11:53:20.999Z</time></trkpt><trkpt lat="46.34210618019907" lon="11.06276339421911"><ele>563.0</ele><time>2026-04-17T11:53:21.999Z</time></trkpt><trkpt lat="46.341936688094705" lon="11.062684141447875"><ele>562.0</ele><time>2026-04-17T11:53:22.999Z</time></trkpt><trkpt lat="46.34176452527035" lon="11.062631981028412"><ele>561.0</ele><time>2026-04-17T11:53:23.999Z</time></trkpt><trkpt lat="46.34158529549587" lon="11.06260229426674"><ele>561.0</ele><time>2026-04-17T11:53:24.999Z</time></trkpt><trkpt lat="46.34139109800454" lon="11.062602364084224"><ele>561.0</ele><time>2026-04-17T11:53:25.999Z</time></trkpt><trkpt lat="46.34117372975196" lon="11.06262629966291"><ele>561.0</ele><time>2026-04-17T11:53:26.999Z</time></trkpt><trkpt lat="46.3409627540542" lon="11.06267335765218"><ele>560.5</ele><time>2026-04-17T11:53:27.999Z</time></trkpt><trkpt lat="46.3407246234726" lon="11.062744071665778"><ele>560.0</ele><time>2026-04-17T11:53:28.999Z</time></trkpt><trkpt lat="46.34049768346885" lon="11.06282123734747"><ele>556.6666666666666</ele><time>2026-04-17T11:53:29.999Z</time></trkpt><trkpt lat="46.34029884733685" lon="11.062883577302427"><ele>553.3333333333334</ele><time>2026-04-17T11:53:30.999Z</time></trkpt><trkpt lat="46.3400990539485" lon="11.062927264288383"><ele>550.0</ele><time>2026-04-17T11:53:31.999Z</time></trkpt><trkpt lat="46.33988782446103" lon="11.062941060332475"><ele>548.0</ele><time>2026-04-17T11:53:32.999Z</time></trkpt><trkpt lat="46.33967863145092" lon="11.062929382059801"><ele>546.0</ele><time>2026-04-17T11:53:33.999Z</time></trkpt><trkpt lat="46.339500072364785" lon="11.062907566728784"><ele>544.0</ele><time>2026-04-17T11:53:34.999Z</time></trkpt><trkpt lat="46.33934867042515" lon="11.062893807049452"><ele>544.0</ele><time>2026-04-17T11:53:35.999Z</time></trkpt><trkpt lat="46.33922362549154" lon="11.06289362260028"><ele>544.0</ele><time>2026-04-17T11:53:36.999Z</time></trkpt><trkpt lat="46.339105693725585" lon="11.062919690683284"><ele>544.0</ele><time>2026-04-17T11:53:37.999Z</time></trkpt><trkpt lat="46.33899379432027" lon="11.062993098365917"><ele>544.0</ele><time>2026-04-17T11:53:38.999Z</time></trkpt><trkpt lat="46.338900473317764" lon="11.06312177654147"><ele>544.25</ele><time>2026-04-17T11:53:39.999Z</time></trkpt><trkpt lat="46.338842031665834" lon="11.06329088424186"><ele>544.5</ele><time>2026-04-17T11:53:41Z</time></trkpt><trkpt lat="46.33881620212277" lon="11.063475970013117"><ele>544.75</ele><time>2026-04-17T11:53:42Z</time></trkpt><trkpt lat="46.33882460554319" lon="11.063656517462068"><ele>545.0</ele><time>2026-04-17T11:53:43Z</time></trkpt><trkpt lat="46.338830919196425" lon="11.063812548392121"><ele>545.0</ele><time>2026-04-17T11:53:44Z</time></trkpt><trkpt lat="46.33880635477785" lon="11.06395832821372"><ele>545.0</ele><time>2026-04-17T11:53:45Z</time></trkpt><trkpt lat="46.338763303713336" lon="11.06407986442819"><ele>545.0</ele><time>2026-04-17T11:53:46Z</time></trkpt><trkpt lat="46.338712749781145" lon="11.06418076714866"><ele>545.0</ele><time>2026-04-17T11:53:47Z</time></trkpt><trkpt lat="46.33864362617182" lon="11.064245782109865"><ele>545.0</ele><time>2026-04-17T11:53:48Z</time></trkpt><trkpt lat="46.33856218330414" lon="11.064263095320358"><ele>545.0</ele><time>2026-04-17T11:53:49Z</time></trkpt><trkpt lat="46.33848260474678" lon="11.064239968172899"><ele>545.0</ele><time>2026-04-17T11:53:50Z</time></trkpt><trkpt lat="46.33840857420988" lon="11.06413861602617"><ele>545.0</ele><time>2026-04-17T11:53:51Z</time></trkpt><trkpt lat="46.338309690828666" lon="11.064015847066683"><ele>545.0</ele><time>2026-04-17T11:53:52Z</time></trkpt><trkpt lat="46.338204696012795" lon="11.063875376911174"><ele>545.0</ele><time>2026-04-17T11:53:53Z</time></trkpt><trkpt lat="46.33814068107907" lon="11.063772129245027"><ele>545.0</ele><time>2026-04-17T11:53:54Z</time></trkpt><trkpt lat="46.33808019911849" lon="11.063707263784794"><ele>545.0</ele><time>2026-04-17T11:53:55Z</time></trkpt><trkpt lat="46.338041175694194" lon="11.063621604806885"><ele>545.0</ele><time>2026-04-17T11:53:57Z</time></trkpt><trkpt lat="46.338026804432666" lon="11.063494498517295"><ele>545.0</ele><time>2026-04-17T11:53:59Z</time></trkpt><trkpt lat="46.33796050145511" lon="11.063415371493864"><ele>545.0</ele><time>2026-04-17T11:54:00Z</time></trkpt><trkpt lat="46.33789930431015" lon="11.063315045312509"><ele>545.0</ele><time>2026-04-17T11:54:01Z</time></trkpt><trkpt lat="46.33783461998317" lon="11.063226299389692"><ele>544.0</ele><time>2026-04-17T11:54:02Z</time></trkpt><trkpt lat="46.33775692881774" lon="11.063131545121413"><ele>543.0</ele><time>2026-04-17T11:54:03Z</time></trkpt><trkpt lat="46.33767031418886" lon="11.06301697410431"><ele>542.0</ele><time>2026-04-17T11:54:04Z</time></trkpt><trkpt lat="46.33757641118217" lon="11.062887168068244"><ele>541.0</ele><time>2026-04-17T11:54:05Z</time></trkpt><trkpt lat="46.33748020861218" lon="11.062748747365761"><ele>541.0</ele><time>2026-04-17T11:54:06Z</time></trkpt><trkpt lat="46.33739392524064" lon="11.062632023965877"><ele>541.0</ele><time>2026-04-17T11:54:07Z</time></trkpt><trkpt lat="46.33731461736003" lon="11.062534727858264"><ele>541.0</ele><time>2026-04-17T11:54:08Z</time></trkpt><trkpt lat="46.33723392365452" lon="11.062447326165797"><ele>541.0</ele><time>2026-04-17T11:54:09Z</time></trkpt><trkpt lat="46.33714263128567" lon="11.062368952571294"><ele>541.0</ele><time>2026-04-17T11:54:10Z</time></trkpt><trkpt lat="46.337043570633426" lon="11.062306667582607"><ele>539.2</ele><time>2026-04-17T11:54:11Z</time></trkpt><trkpt lat="46.336929945150246" lon="11.062263760225742"><ele>537.4000000000001</ele><time>2026-04-17T11:54:12Z</time></trkpt><trkpt lat="46.3368153915684" lon="11.062246702467814"><ele>535.6</ele><time>2026-04-17T11:54:13Z</time></trkpt><trkpt lat="46.33671442902611" lon="11.062249458922652"><ele>533.8000000000001</ele><time>2026-04-17T11:54:14Z</time></trkpt><trkpt lat="46.33661193333925" lon="11.062239988331319"><ele>532.0</ele><time>2026-04-17T11:54:15Z</time></trkpt><trkpt lat="46.33648887045921" lon="11.062300946565404"><ele>531.0</ele><time>2026-04-17T11:54:16Z</time></trkpt><trkpt lat="46.336348854394764" lon="11.062385026446455"><ele>530.0</ele><time>2026-04-17T11:54:17Z</time></trkpt><trkpt lat="46.33618646952762" lon="11.062478149138188"><ele>529.0</ele><time>2026-04-17T11:54:18Z</time></trkpt><trkpt lat="46.33600796435795" lon="11.06266030051437"><ele>527.0</ele><time>2026-04-17T11:54:19Z</time></trkpt><trkpt lat="46.33580695191797" lon="11.062791542771553"><ele>525.0</ele><time>2026-04-17T11:54:20Z</time></trkpt><trkpt lat="46.335596007203094" lon="11.062914339353775"><ele>523.0</ele><time>2026-04-17T11:54:21Z</time></trkpt><trkpt lat="46.33539777499054" lon="11.063030481471257"><ele>523.0</ele><time>2026-04-17T11:54:22Z</time></trkpt><trkpt lat="46.33522098341377" lon="11.063154316838759"><ele>523.0</ele><time>2026-04-17T11:54:23Z</time></trkpt><trkpt lat="46.33502869668894" lon="11.063294829192719"><ele>523.0</ele><time>2026-04-17T11:54:24Z</time></trkpt><trkpt lat="46.33484530362062" lon="11.063436948906663"><ele>524.3333333333334</ele><time>2026-04-17T11:54:25Z</time></trkpt><trkpt lat="46.33468474972698" lon="11.06355113093628"><ele>525.6666666666666</ele><time>2026-04-17T11:54:26Z</time></trkpt><trkpt lat="46.334533551209674" lon="11.06365279198328"><ele>527.0</ele><time>2026-04-17T11:54:27Z</time></trkpt><trkpt lat="46.334373449428185" lon="11.06372135465793"><ele>527.0</ele><time>2026-04-17T11:54:28Z</time></trkpt><trkpt lat="46.33419145766933" lon="11.063752718689468"><ele>527.0</ele><time>2026-04-17T11:54:29Z</time></trkpt><trkpt lat="46.333973371223834" lon="11.063777346417444"><ele>527.0</ele><time>2026-04-17T11:54:30Z</time></trkpt><trkpt lat="46.33372814084791" lon="11.063811361084232"><ele>522.0</ele><time>2026-04-17T11:54:31Z</time></trkpt><trkpt lat="46.33348640645271" lon="11.063848200103251"><ele>517.0</ele><time>2026-04-17T11:54:32Z</time></trkpt><trkpt lat="46.333232196290396" lon="11.063887457683274"><ele>514.5</ele><time>2026-04-17T11:54:33Z</time></trkpt><trkpt lat="46.33296046639035" lon="11.063918211459958"><ele>512.0</ele><time>2026-04-17T11:54:34Z</time></trkpt><trkpt lat="46.33267693921274" lon="11.063951843936074"><ele>512.0</ele><time>2026-04-17T11:54:35Z</time></trkpt><trkpt lat="46.332406783860314" lon="11.063984249384093"><ele>512.0</ele><time>2026-04-17T11:54:36Z</time></trkpt><trkpt lat="46.33215532579761" lon="11.064020161238888"><ele>505.5</ele><time>2026-04-17T11:54:37Z</time></trkpt><trkpt lat="46.33191410983915" lon="11.064052789885807"><ele>499.0</ele><time>2026-04-17T11:54:38Z</time></trkpt><trkpt lat="46.33167620960477" lon="11.064078686129584"><ele>499.0</ele><time>2026-04-17T11:54:39Z</time></trkpt><trkpt lat="46.33143533239641" lon="11.064097990071952"><ele>499.0</ele><time>2026-04-17T11:54:40Z</time></trkpt><trkpt lat="46.33120365422894" lon="11.064100646421679"><ele>499.0</ele><time>2026-04-17T11:54:41Z</time></trkpt><trkpt lat="46.33097512989784" lon="11.064087180292926"><ele>499.0</ele><time>2026-04-17T11:54:42Z</time></trkpt><trkpt lat="46.33074856546159" lon="11.06407152692703"><ele>504.5</ele><time>2026-04-17T11:54:43Z</time></trkpt><trkpt lat="46.33052402261778" lon="11.06405696319808"><ele>510.0</ele><time>2026-04-17T11:54:44Z</time></trkpt><trkpt lat="46.33029824983829" lon="11.064043354331249"><ele>510.0</ele><time>2026-04-17T11:54:45Z</time></trkpt><trkpt lat="46.33007233204937" lon="11.064026989663267"><ele>510.0</ele><time>2026-04-17T11:54:46Z</time></trkpt><trkpt lat="46.329854395555685" lon="11.064010569673137"><ele>510.0</ele><time>2026-04-17T11:54:47Z</time></trkpt><trkpt lat="46.329653309160484" lon="11.063999183755486"><ele>510.33333333333337</ele><time>2026-04-17T11:54:48Z</time></trkpt><trkpt lat="46.32945363504419" lon="11.063986789072157"><ele>510.6666666666667</ele><time>2026-04-17T11:54:49Z</time></trkpt><trkpt lat="46.32925473588753" lon="11.063972183930463"><ele>511.0</ele><time>2026-04-17T11:54:49.999Z</time></trkpt><trkpt lat="46.329058371308406" lon="11.063960794673676"><ele>511.6666666666667</ele><time>2026-04-17T11:54:50.999Z</time></trkpt><trkpt lat="46.32888228532006" lon="11.063927378890021"><ele>512.3333333333334</ele><time>2026-04-17T11:54:51.999Z</time></trkpt><trkpt lat="46.32871871349386" lon="11.063943170795962"><ele>513.0</ele><time>2026-04-17T11:54:52.999Z</time></trkpt><trkpt lat="46.32856580340355" lon="11.063930956136584"><ele>513.0</ele><time>2026-04-17T11:54:53.999Z</time></trkpt><trkpt lat="46.32842061453524" lon="11.06391755335637"><ele>513.0</ele><time>2026-04-17T11:54:54.999Z</time></trkpt><trkpt lat="46.328281003199685" lon="11.063913867588457"><ele>513.0</ele><time>2026-04-17T11:54:55.999Z</time></trkpt><trkpt lat="46.328137491133916" lon="11.06391998193662"><ele>513.0</ele><time>2026-04-17T11:54:56.999Z</time></trkpt><trkpt lat="46.32797481101175" lon="11.063871196848886"><ele>513.6666666666666</ele><time>2026-04-17T11:54:57.999Z</time></trkpt><trkpt lat="46.32779044915462" lon="11.063863906348471"><ele>514.3333333333333</ele><time>2026-04-17T11:54:58.999Z</time></trkpt><trkpt lat="46.32760233536425" lon="11.063874084555385"><ele>515.0</ele><time>2026-04-17T11:54:59.999Z</time></trkpt><trkpt lat="46.32743208149077" lon="11.063891194658066"><ele>515.0</ele><time>2026-04-17T11:55:00.999Z</time></trkpt><trkpt lat="46.32727452933304" lon="11.06390695650384"><ele>515.0</ele><time>2026-04-17T11:55:01.999Z</time></trkpt><trkpt lat="46.327127425024024" lon="11.063922012106344"><ele>515.0</ele><time>2026-04-17T11:55:02.999Z</time></trkpt><trkpt lat="46.32698703261493" lon="11.063936789509171"><ele>515.0</ele><time>2026-04-17T11:55:03.999Z</time></trkpt><trkpt lat="46.32684519970476" lon="11.063952286573615"><ele>514.3333333333333</ele><time>2026-04-17T11:55:04.999Z</time></trkpt><trkpt lat="46.326689031786515" lon="11.063969664456838"><ele>513.6666666666666</ele><time>2026-04-17T11:55:05.999Z</time></trkpt><trkpt lat="46.32650100665849" lon="11.063991068235188"><ele>513.0</ele><time>2026-04-17T11:55:06.999Z</time></trkpt><trkpt lat="46.32629583726973" lon="11.064012032318278"><ele>513.0</ele><time>2026-04-17T11:55:07.999Z</time></trkpt><trkpt lat="46.326092975656216" lon="11.064033346910415"><ele>513.0</ele><time>2026-04-17T11:55:08.999Z</time></trkpt><trkpt lat="46.32591157012372" lon="11.064052900617819"><ele>513.0</ele><time>2026-04-17T11:55:09.999Z</time></trkpt><trkpt lat="46.325741383176386" lon="11.064071245083184"><ele>513.0</ele><time>2026-04-17T11:55:10.999Z</time></trkpt><trkpt lat="46.32558235441796" lon="11.064086322391704"><ele>513.0</ele><time>2026-04-17T11:55:11.999Z</time></trkpt><trkpt lat="46.32543958006039" lon="11.064093076837013"><ele>513.0</ele><time>2026-04-17T11:55:12.999Z</time></trkpt><trkpt lat="46.32530045421577" lon="11.064132530723134"><ele>513.0</ele><time>2026-04-17T11:55:13.999Z</time></trkpt><trkpt lat="46.32516589444806" lon="11.064117312741196"><ele>513.75</ele><time>2026-04-17T11:55:14.999Z</time></trkpt><trkpt lat="46.325028229957844" lon="11.06407700753365"><ele>514.5</ele><time>2026-04-17T11:55:15.999Z</time></trkpt><trkpt lat="46.32488312737777" lon="11.064025756487622"><ele>515.25</ele><time>2026-04-17T11:55:16.999Z</time></trkpt><trkpt lat="46.324741346627185" lon="11.063934158497522"><ele>516.0</ele><time>2026-04-17T11:55:17.999Z</time></trkpt><trkpt lat="46.32459081861792" lon="11.063864319718824"><ele>512.6666666666666</ele><time>2026-04-17T11:55:18.999Z</time></trkpt><trkpt lat="46.32444959111263" lon="11.063799374496437"><ele>509.3333333333333</ele><time>2026-04-17T11:55:19.999Z</time></trkpt><trkpt lat="46.324306909538414" lon="11.063735802975279"><ele>506.0</ele><time>2026-04-17T11:55:20.999Z</time></trkpt><trkpt lat="46.32415805781367" lon="11.063672595263409"><ele>506.0</ele><time>2026-04-17T11:55:21.999Z</time></trkpt><trkpt lat="46.32401652977557" lon="11.063653545542316"><ele>506.0</ele><time>2026-04-17T11:55:22.999Z</time></trkpt><trkpt lat="46.32388393735629" lon="11.063601132364502"><ele>506.0</ele><time>2026-04-17T11:55:23.999Z</time></trkpt><trkpt lat="46.32375640919898" lon="11.063581998239576"><ele>506.0</ele><time>2026-04-17T11:55:24.999Z</time></trkpt><trkpt lat="46.323622729731234" lon="11.063606104195397"><ele>500.75</ele><time>2026-04-17T11:55:25.999Z</time></trkpt><trkpt lat="46.323494613795255" lon="11.063614954915945"><ele>495.5</ele><time>2026-04-17T11:55:26.999Z</time></trkpt><trkpt lat="46.32336699429446" lon="11.063638898771824"><ele>490.25</ele><time>2026-04-17T11:55:27.999Z</time></trkpt><trkpt lat="46.323239223215865" lon="11.063675425666952"><ele>485.0</ele><time>2026-04-17T11:55:28.999Z</time></trkpt><trkpt lat="46.32310876110048" lon="11.063728371297373"><ele>487.5</ele><time>2026-04-17T11:55:29.999Z</time></trkpt><trkpt lat="46.322977886201386" lon="11.063799283057236"><ele>490.0</ele><time>2026-04-17T11:55:30.999Z</time></trkpt><trkpt lat="46.322846072266856" lon="11.06387948396291"><ele>492.5</ele><time>2026-04-17T11:55:31.999Z</time></trkpt><trkpt lat="46.32272011846551" lon="11.063954848027613"><ele>495.0</ele><time>2026-04-17T11:55:32.999Z</time></trkpt><trkpt lat="46.322599883926365" lon="11.06402581920642"><ele>495.0</ele><time>2026-04-17T11:55:33.999Z</time></trkpt><trkpt lat="46.322492153109366" lon="11.06409402920845"><ele>495.0</ele><time>2026-04-17T11:55:34.999Z</time></trkpt><trkpt lat="46.32236951082709" lon="11.06417388722799"><ele>495.0</ele><time>2026-04-17T11:55:35.999Z</time></trkpt><trkpt lat="46.322242087626414" lon="11.06426404814205"><ele>495.0</ele><time>2026-04-17T11:55:36.999Z</time></trkpt><trkpt lat="46.3221216661825" lon="11.064341642524461"><ele>499.25</ele><time>2026-04-17T11:55:37.999Z</time></trkpt><trkpt lat="46.32200419137123" lon="11.0644057260101"><ele>503.5</ele><time>2026-04-17T11:55:38.999Z</time></trkpt><trkpt lat="46.3218902422657" lon="11.064471904758964"><ele>507.75</ele><time>2026-04-17T11:55:40.019Z</time></trkpt><trkpt lat="46.32178363266029" lon="11.06453586937825"><ele>512.0</ele><time>2026-04-17T11:55:41.02Z</time></trkpt><trkpt lat="46.32168127845715" lon="11.064595086368495"><ele>512.0</ele><time>2026-04-17T11:55:42.02Z</time></trkpt><trkpt lat="46.3215792725698" lon="11.064652718559781"><ele>512.0</ele><time>2026-04-17T11:55:43.017Z</time></trkpt><trkpt lat="46.31913345006791" lon="11.066096644635568"><ele>484.0</ele><time>2026-04-17T11:55:47.851Z</time></trkpt><trkpt lat="46.318777254825754" lon="11.06657973491686"><ele>484.0</ele><time>2026-04-17T11:56:01.999Z</time></trkpt><trkpt lat="46.31864560741071" lon="11.06668737072271"><ele>484.0</ele><time>2026-04-17T11:56:02.999Z</time></trkpt><trkpt lat="46.318672531258" lon="11.066442289187522"><ele>484.0</ele><time>2026-04-17T11:56:03.999Z</time></trkpt><trkpt lat="46.31853878913363" lon="11.06653346668131"><ele>480.0</ele><time>2026-04-17T11:56:04.999Z</time></trkpt><trkpt lat="46.318399176892704" lon="11.066622434061436"><ele>476.0</ele><time>2026-04-17T11:56:05.999Z</time></trkpt><trkpt lat="46.31827241854677" lon="11.066699265573849"><ele>472.0</ele><time>2026-04-17T11:56:06.999Z</time></trkpt><trkpt lat="46.318134901956974" lon="11.066784005011135"><ele>468.0</ele><time>2026-04-17T11:56:07.999Z</time></trkpt><trkpt lat="46.31799752291856" lon="11.066866532918928"><ele>464.66666666666663</ele><time>2026-04-17T11:56:08.999Z</time></trkpt><trkpt lat="46.317857606098805" lon="11.066943587284143"><ele>461.3333333333333</ele><time>2026-04-17T11:56:09.999Z</time></trkpt><trkpt lat="46.31771723904019" lon="11.067020324432962"><ele>458.0</ele><time>2026-04-17T11:56:10.999Z</time></trkpt><trkpt lat="46.31757293667981" lon="11.067099463221567"><ele>458.0</ele><time>2026-04-17T11:56:11.999Z</time></trkpt><trkpt lat="46.31743057402244" lon="11.067179444092348"><ele>458.0</ele><time>2026-04-17T11:56:12.999Z</time></trkpt><trkpt lat="46.317297360546554" lon="11.067262002144817"><ele>458.0</ele><time>2026-04-17T11:56:14Z</time></trkpt><trkpt lat="46.31716780317639" lon="11.067326387135813"><ele>458.0</ele><time>2026-04-17T11:56:15Z</time></trkpt><trkpt lat="46.317029357859155" lon="11.067382553704798"><ele>458.75</ele><time>2026-04-17T11:56:16Z</time></trkpt><trkpt lat="46.316887172370876" lon="11.067419239921808"><ele>459.5</ele><time>2026-04-17T11:56:17Z</time></trkpt><trkpt lat="46.31674709681552" lon="11.067440455302856"><ele>460.25</ele><time>2026-04-17T11:56:18Z</time></trkpt><trkpt lat="46.316602992860126" lon="11.067444668070042"><ele>461.0</ele><time>2026-04-17T11:56:19Z</time></trkpt><trkpt lat="46.31646489202871" lon="11.067427016041663"><ele>462.25</ele><time>2026-04-17T11:56:20Z</time></trkpt><trkpt lat="46.3163296998072" lon="11.067398712498525"><ele>463.5</ele><time>2026-04-17T11:56:21Z</time></trkpt><trkpt lat="46.316197350686885" lon="11.067361425458524"><ele>464.75</ele><time>2026-04-17T11:56:22Z</time></trkpt><trkpt lat="46.31606877460537" lon="11.067314463226698"><ele>466.0</ele><time>2026-04-17T11:56:23Z</time></trkpt><trkpt lat="46.31593429085617" lon="11.067263565266892"><ele>466.0</ele><time>2026-04-17T11:56:24Z</time></trkpt><trkpt lat="46.3158006910512" lon="11.067216064684649"><ele>466.0</ele><time>2026-04-17T11:56:25Z</time></trkpt><trkpt lat="46.31565948891668" lon="11.067175555976048"><ele>466.0</ele><time>2026-04-17T11:56:26Z</time></trkpt><trkpt lat="46.315515006768464" lon="11.067149765634955"><ele>466.0</ele><time>2026-04-17T11:56:27Z</time></trkpt><trkpt lat="46.31536760972446" lon="11.067138835216992"><ele>465.6666666666667</ele><time>2026-04-17T11:56:28Z</time></trkpt><trkpt lat="46.315217146148555" lon="11.067147680640224"><ele>465.33333333333337</ele><time>2026-04-17T11:56:29Z</time></trkpt><trkpt lat="46.315063583855455" lon="11.067174732123958"><ele>465.0</ele><time>2026-04-17T11:56:30Z</time></trkpt><trkpt lat="46.314908993535305" lon="11.067215851192243"><ele>465.0</ele><time>2026-04-17T11:56:31Z</time></trkpt><trkpt lat="46.314755943326766" lon="11.067283036169195"><ele>465.0</ele><time>2026-04-17T11:56:32Z</time></trkpt><trkpt lat="46.31460608272463" lon="11.067376863909628"><ele>465.0</ele><time>2026-04-17T11:56:33Z</time></trkpt><trkpt lat="46.31446357660987" lon="11.06748593055135"><ele>468.66666666666663</ele><time>2026-04-17T11:56:34Z</time></trkpt><trkpt lat="46.31434284953939" lon="11.06760303665114"><ele>472.3333333333333</ele><time>2026-04-17T11:56:35Z</time></trkpt><trkpt lat="46.31422472600351" lon="11.067748571580186"><ele>476.0</ele><time>2026-04-17T11:56:36Z</time></trkpt><trkpt lat="46.31410094300178" lon="11.067934034785582"><ele>476.0</ele><time>2026-04-17T11:56:37Z</time></trkpt><trkpt lat="46.31395142926242" lon="11.0681258268662"><ele>476.0</ele><time>2026-04-17T11:56:38Z</time></trkpt><trkpt lat="46.3137948215865" lon="11.068364169073556"><ele>476.0</ele><time>2026-04-17T11:56:39Z</time></trkpt><trkpt lat="46.313635323655596" lon="11.06860808521086"><ele>474.66666666666663</ele><time>2026-04-17T11:56:40Z</time></trkpt><trkpt lat="46.31349446977396" lon="11.068825084238565"><ele>473.33333333333337</ele><time>2026-04-17T11:56:41Z</time></trkpt><trkpt lat="46.31335504840315" lon="11.06903884086663"><ele>472.0</ele><time>2026-04-17T11:56:42Z</time></trkpt><trkpt lat="46.31321375849404" lon="11.069252520768146"><ele>476.33333333333337</ele><time>2026-04-17T11:56:43Z</time></trkpt><trkpt lat="46.31308587189037" lon="11.069442369064168"><ele>480.66666666666663</ele><time>2026-04-17T11:56:44Z</time></trkpt><trkpt lat="46.31296409139272" lon="11.069607874649849"><ele>485.0</ele><time>2026-04-17T11:56:45Z</time></trkpt><trkpt lat="46.312846768387956" lon="11.069769567524952"><ele>485.66666666666663</ele><time>2026-04-17T11:56:46Z</time></trkpt><trkpt lat="46.31271755648814" lon="11.069891104805084"><ele>486.33333333333337</ele><time>2026-04-17T11:56:47Z</time></trkpt><trkpt lat="46.31257550337635" lon="11.069969338098652"><ele>487.0</ele><time>2026-04-17T11:56:48Z</time></trkpt><trkpt lat="46.31243893111382" lon="11.070074937929991"><ele>487.5</ele><time>2026-04-17T11:56:49Z</time></trkpt><trkpt lat="46.312301469506515" lon="11.07013560039542"><ele>488.0</ele><time>2026-04-17T11:56:50Z</time></trkpt><trkpt lat="46.31216215216065" lon="11.070181652022711"><ele>488.5</ele><time>2026-04-17T11:56:51Z</time></trkpt><trkpt lat="46.31202705373883" lon="11.070208168293648"><ele>489.0</ele><time>2026-04-17T11:56:52Z</time></trkpt><trkpt lat="46.31188401663659" lon="11.070214069479196"><ele>489.66666666666663</ele><time>2026-04-17T11:56:53Z</time></trkpt><trkpt lat="46.31173806974521" lon="11.070204251322137"><ele>490.3333333333333</ele><time>2026-04-17T11:56:54Z</time></trkpt><trkpt lat="46.311587258977944" lon="11.070184611539265"><ele>491.0</ele><time>2026-04-17T11:56:55.015Z</time></trkpt><trkpt lat="46.31143446619041" lon="11.070134681868119"><ele>491.0</ele><time>2026-04-17T11:56:56.016Z</time></trkpt><trkpt lat="46.311275231481495" lon="11.070103709441788"><ele>491.0</ele><time>2026-04-17T11:56:57.016Z</time></trkpt><trkpt lat="46.31110160682486" lon="11.070068182259892"><ele>491.0</ele><time>2026-04-17T11:56:58.017Z</time></trkpt><trkpt lat="46.31091777893907" lon="11.070029582605788"><ele>487.5</ele><time>2026-04-17T11:56:59.018Z</time></trkpt><trkpt lat="46.31049497849536" lon="11.069935181218078"><ele>484.0</ele><time>2026-04-17T11:57:01Z</time></trkpt><trkpt lat="46.31028856457616" lon="11.069889610798082"><ele>484.0</ele><time>2026-04-17T11:57:02Z</time></trkpt><trkpt lat="46.310076575180155" lon="11.06984295623459"><ele>484.0</ele><time>2026-04-17T11:57:03Z</time></trkpt><trkpt lat="46.30991226239925" lon="11.06980749859529"><ele>484.0</ele><time>2026-04-17T11:57:04Z</time></trkpt><trkpt lat="46.309781705954634" lon="11.069779797464244"><ele>481.6666666666667</ele><time>2026-04-17T11:57:05Z</time></trkpt><trkpt lat="46.30962813824949" lon="11.069747356068948"><ele>479.33333333333337</ele><time>2026-04-17T11:57:06Z</time></trkpt><trkpt lat="46.30943757162697" lon="11.069701681930791"><ele>477.0</ele><time>2026-04-17T11:57:07Z</time></trkpt><trkpt lat="46.30929130383496" lon="11.069662084553928"><ele>477.0</ele><time>2026-04-17T11:57:08Z</time></trkpt><trkpt lat="46.30915524472319" lon="11.06961552946129"><ele>477.0</ele><time>2026-04-17T11:57:09Z</time></trkpt><trkpt lat="46.30900080030474" lon="11.069556409331398"><ele>477.0</ele><time>2026-04-17T11:57:10Z</time></trkpt><trkpt lat="46.3088439620072" lon="11.069472966704437"><ele>476.66666666666663</ele><time>2026-04-17T11:57:11Z</time></trkpt><trkpt lat="46.30868924008223" lon="11.069385038208537"><ele>476.3333333333333</ele><time>2026-04-17T11:57:12Z</time></trkpt><trkpt lat="46.30855256441233" lon="11.069300917050258"><ele>476.0</ele><time>2026-04-17T11:57:13Z</time></trkpt><trkpt lat="46.30842074037839" lon="11.069222352988616"><ele>476.0</ele><time>2026-04-17T11:57:14Z</time></trkpt><trkpt lat="46.30827929939274" lon="11.069152561224538"><ele>476.0</ele><time>2026-04-17T11:57:15Z</time></trkpt><trkpt lat="46.30812385151435" lon="11.06909889003733"><ele>476.0</ele><time>2026-04-17T11:57:16Z</time></trkpt><trkpt lat="46.30796729267907" lon="11.069077355861493"><ele>475.66666666666663</ele><time>2026-04-17T11:57:17Z</time></trkpt><trkpt lat="46.3078075157242" lon="11.069083530165353"><ele>475.33333333333337</ele><time>2026-04-17T11:57:18Z</time></trkpt><trkpt lat="46.307651111246926" lon="11.06912274890821"><ele>475.0</ele><time>2026-04-17T11:57:19Z</time></trkpt><trkpt lat="46.30750744781543" lon="11.069212440428306"><ele>475.0</ele><time>2026-04-17T11:57:20Z</time></trkpt><trkpt lat="46.3073637667296" lon="11.06930561208454"><ele>475.0</ele><time>2026-04-17T11:57:20.999Z</time></trkpt><trkpt lat="46.30721702894915" lon="11.069440798512106"><ele>475.0</ele><time>2026-04-17T11:57:21.999Z</time></trkpt><trkpt lat="46.30703236629342" lon="11.06959184308922"><ele>476.5</ele><time>2026-04-17T11:57:22.999Z</time></trkpt><trkpt lat="46.30683767970218" lon="11.069784264419155"><ele>478.0</ele><time>2026-04-17T11:57:23.999Z</time></trkpt><trkpt lat="46.306660324859656" lon="11.069958373919636"><ele>478.0</ele><time>2026-04-17T11:57:24.999Z</time></trkpt><trkpt lat="46.30650203916596" lon="11.070142905935528"><ele>478.0</ele><time>2026-04-17T11:57:25.999Z</time></trkpt><trkpt lat="46.306326431686315" lon="11.070293539821282"><ele>478.0</ele><time>2026-04-17T11:57:26.999Z</time></trkpt><trkpt lat="46.30615986557419" lon="11.070438735130082"><ele>477.0</ele><time>2026-04-17T11:57:27.999Z</time></trkpt><trkpt lat="46.30597436281687" lon="11.070576236874535"><ele>476.0</ele><time>2026-04-17T11:57:28.999Z</time></trkpt><trkpt lat="46.30576579473012" lon="11.070690805183935"><ele>475.0</ele><time>2026-04-17T11:57:29.999Z</time></trkpt><trkpt lat="46.3055451407533" lon="11.070779152629013"><ele>475.0</ele><time>2026-04-17T11:57:30.999Z</time></trkpt><trkpt lat="46.30531220139929" lon="11.070849790526356"><ele>475.0</ele><time>2026-04-17T11:57:31.999Z</time></trkpt><trkpt lat="46.30505513418325" lon="11.070902737538647"><ele>475.0</ele><time>2026-04-17T11:57:32.999Z</time></trkpt><trkpt lat="46.30477565236687" lon="11.070947746335678"><ele>475.0</ele><time>2026-04-17T11:57:33.999Z</time></trkpt><trkpt lat="46.30450972661084" lon="11.070985718353995"><ele>475.0</ele><time>2026-04-17T11:57:34.999Z</time></trkpt><trkpt lat="46.30422412947131" lon="11.071031266535766"><ele>475.0</ele><time>2026-04-17T11:57:35.999Z</time></trkpt><trkpt lat="46.30395393499952" lon="11.071064875656871"><ele>473.0</ele><time>2026-04-17T11:57:36.999Z</time></trkpt><trkpt lat="46.303708881005534" lon="11.071094675579547"><ele>471.0</ele><time>2026-04-17T11:57:37.999Z</time></trkpt><trkpt lat="46.303473378819966" lon="11.07112190381517"><ele>471.0</ele><time>2026-04-17T11:57:38.999Z</time></trkpt><trkpt lat="46.30325534213992" lon="11.071140326024155"><ele>471.0</ele><time>2026-04-17T11:57:39.999Z</time></trkpt><trkpt lat="46.30304843552" lon="11.071141305621321"><ele>471.0</ele><time>2026-04-17T11:57:40.999Z</time></trkpt><trkpt lat="46.302849701595306" lon="11.071111229499884"><ele>474.5</ele><time>2026-04-17T11:57:41.999Z</time></trkpt><trkpt lat="46.30263651342422" lon="11.071054910435006"><ele>478.0</ele><time>2026-04-17T11:57:42.999Z</time></trkpt><trkpt lat="46.30240604530823" lon="11.070968736958447"><ele>479.5</ele><time>2026-04-17T11:57:43.999Z</time></trkpt><trkpt lat="46.302164529541884" lon="11.070866470541343"><ele>481.0</ele><time>2026-04-17T11:57:44.999Z</time></trkpt><trkpt lat="46.30191104627176" lon="11.070754241751287"><ele>476.0</ele><time>2026-04-17T11:57:45.999Z</time></trkpt><trkpt lat="46.3016417118891" lon="11.070645645574334"><ele>471.0</ele><time>2026-04-17T11:57:46.999Z</time></trkpt><trkpt lat="46.30138851042363" lon="11.070544744041301"><ele>471.0</ele><time>2026-04-17T11:57:47.999Z</time></trkpt><trkpt lat="46.30115551377316" lon="11.070445946396852"><ele>471.0</ele><time>2026-04-17T11:57:48.999Z</time></trkpt><trkpt lat="46.300930259802975" lon="11.070346802173082"><ele>471.0</ele><time>2026-04-17T11:57:49.999Z</time></trkpt><trkpt lat="46.300697257439744" lon="11.070243086177255"><ele>471.0</ele><time>2026-04-17T11:57:50.999Z</time></trkpt><trkpt lat="46.300457518522876" lon="11.070139764689667"><ele>473.0</ele><time>2026-04-17T11:57:51.999Z</time></trkpt><trkpt lat="46.30020528603866" lon="11.070037961525736"><ele>475.0</ele><time>2026-04-17T11:57:52.999Z</time></trkpt><trkpt lat="46.29994224947968" lon="11.069925090835412"><ele>472.5</ele><time>2026-04-17T11:57:53.999Z</time></trkpt><trkpt lat="46.29969304520992" lon="11.069812456525606"><ele>470.0</ele><time>2026-04-17T11:57:54.999Z</time></trkpt><trkpt lat="46.299457300655604" lon="11.069705759198994"><ele>470.0</ele><time>2026-04-17T11:57:55.999Z</time></trkpt><trkpt lat="46.299206454854186" lon="11.069612032665244"><ele>470.0</ele><time>2026-04-17T11:57:56.999Z</time></trkpt><trkpt lat="46.29893746841038" lon="11.069531757578595"><ele>470.5</ele><time>2026-04-17T11:57:57.999Z</time></trkpt><trkpt lat="46.29868712223974" lon="11.06946399243318"><ele>471.0</ele><time>2026-04-17T11:57:58.999Z</time></trkpt><trkpt lat="46.298444578645" lon="11.06939130874213"><ele>471.0</ele><time>2026-04-17T11:57:59.999Z</time></trkpt><trkpt lat="46.298205075144345" lon="11.069300913082387"><ele>471.0</ele><time>2026-04-17T11:58:00.999Z</time></trkpt><trkpt lat="46.2979736857396" lon="11.069188076927578"><ele>465.0</ele><time>2026-04-17T11:58:01.999Z</time></trkpt><trkpt lat="46.29774863425858" lon="11.06904521841373"><ele>459.0</ele><time>2026-04-17T11:58:02.999Z</time></trkpt><trkpt lat="46.29752395650225" lon="11.068888250356903"><ele>459.0</ele><time>2026-04-17T11:58:03.999Z</time></trkpt><trkpt lat="46.29731910684547" lon="11.068739827709035"><ele>459.0</ele><time>2026-04-17T11:58:04.999Z</time></trkpt><trkpt lat="46.29712319866289" lon="11.068608536177484"><ele>459.0</ele><time>2026-04-17T11:58:05.999Z</time></trkpt><trkpt lat="46.29691391368281" lon="11.068489644395644"><ele>461.0</ele><time>2026-04-17T11:58:06.999Z</time></trkpt><trkpt lat="46.2966856100888" lon="11.06838489619663"><ele>463.0</ele><time>2026-04-17T11:58:07.999Z</time></trkpt><trkpt lat="46.29644077168993" lon="11.068290664530178"><ele>462.0</ele><time>2026-04-17T11:58:08.999Z</time></trkpt><trkpt lat="46.29617963054856" lon="11.068204797946475"><ele>461.0</ele><time>2026-04-17T11:58:09.999Z</time></trkpt><trkpt lat="46.29590549055813" lon="11.068116787692992"><ele>461.0</ele><time>2026-04-17T11:58:10.999Z</time></trkpt><trkpt lat="46.29562711443896" lon="11.06801336484936"><ele>461.0</ele><time>2026-04-17T11:58:11.999Z</time></trkpt><trkpt lat="46.29535503563117" lon="11.067890164006988"><ele>465.5</ele><time>2026-04-17T11:58:12.999Z</time></trkpt><trkpt lat="46.295082685311215" lon="11.067721666204584"><ele>470.0</ele><time>2026-04-17T11:58:14Z</time></trkpt><trkpt lat="46.294806673349086" lon="11.06760715743023"><ele>467.5</ele><time>2026-04-17T11:58:15Z</time></trkpt><trkpt lat="46.29455824426621" lon="11.067470584341837"><ele>465.0</ele><time>2026-04-17T11:58:16Z</time></trkpt><trkpt lat="46.294304997603234" lon="11.06734367548278"><ele>464.0</ele><time>2026-04-17T11:58:17Z</time></trkpt><trkpt lat="46.29405971365105" lon="11.067232477095416"><ele>463.0</ele><time>2026-04-17T11:58:18Z</time></trkpt><trkpt lat="46.293840256259244" lon="11.067128304618421"><ele>463.0</ele><time>2026-04-17T11:58:19Z</time></trkpt><trkpt lat="46.293644610617726" lon="11.067029126989809"><ele>463.0</ele><time>2026-04-17T11:58:20Z</time></trkpt><trkpt lat="46.29347492451877" lon="11.066930333697616"><ele>463.0</ele><time>2026-04-17T11:58:21Z</time></trkpt><trkpt lat="46.29331592874045" lon="11.066821958434872"><ele>463.0</ele><time>2026-04-17T11:58:22Z</time></trkpt><trkpt lat="46.29315697514009" lon="11.066686459881147"><ele>463.0</ele><time>2026-04-17T11:58:23Z</time></trkpt><trkpt lat="46.29299676833956" lon="11.066516332740965"><ele>463.0</ele><time>2026-04-17T11:58:24Z</time></trkpt><trkpt lat="46.29283256642217" lon="11.066315825149571"><ele>461.6666666666667</ele><time>2026-04-17T11:58:25Z</time></trkpt><trkpt lat="46.29267214601122" lon="11.066098102991207"><ele>460.33333333333337</ele><time>2026-04-17T11:58:26Z</time></trkpt><trkpt lat="46.292522589757056" lon="11.065878765256304"><ele>459.0</ele><time>2026-04-17T11:58:27Z</time></trkpt><trkpt lat="46.292379098048634" lon="11.065671286438945"><ele>459.33333333333337</ele><time>2026-04-17T11:58:28Z</time></trkpt><trkpt lat="46.292241110267355" lon="11.065474854410612"><ele>459.6666666666667</ele><time>2026-04-17T11:58:29Z</time></trkpt><trkpt lat="46.292120951004684" lon="11.06529987681622"><ele>460.0</ele><time>2026-04-17T11:58:30Z</time></trkpt><trkpt lat="46.2920002672235" lon="11.065136999973666"><ele>460.0</ele><time>2026-04-17T11:58:31Z</time></trkpt><trkpt lat="46.291866961128925" lon="11.064997995874366"><ele>460.0</ele><time>2026-04-17T11:58:32Z</time></trkpt><trkpt lat="46.291716196212704" lon="11.064886274093851"><ele>460.0</ele><time>2026-04-17T11:58:33Z</time></trkpt><trkpt lat="46.29155888660161" lon="11.064792341645104"><ele>451.0</ele><time>2026-04-17T11:58:34Z</time></trkpt><trkpt lat="46.29139133320325" lon="11.064730529137787"><ele>442.0</ele><time>2026-04-17T11:58:35Z</time></trkpt><trkpt lat="46.29121933910276" lon="11.064685783448033"><ele>433.0</ele><time>2026-04-17T11:58:36Z</time></trkpt><trkpt lat="46.291056724111144" lon="11.064652335972346"><ele>433.0</ele><time>2026-04-17T11:58:37Z</time></trkpt><trkpt lat="46.290905944132476" lon="11.064611532004436"><ele>433.0</ele><time>2026-04-17T11:58:38Z</time></trkpt><trkpt lat="46.290761740717194" lon="11.064551034728083"><ele>433.0</ele><time>2026-04-17T11:58:39Z</time></trkpt><trkpt lat="46.2906098381495" lon="11.064459784279334"><ele>437.0</ele><time>2026-04-17T11:58:40Z</time></trkpt><trkpt lat="46.29044394454711" lon="11.064337415149025"><ele>441.0</ele><time>2026-04-17T11:58:41Z</time></trkpt><trkpt lat="46.29029547370579" lon="11.064209529252453"><ele>445.0</ele><time>2026-04-17T11:58:42Z</time></trkpt><trkpt lat="46.29014952310387" lon="11.064070099683999"><ele>444.6666666666667</ele><time>2026-04-17T11:58:43Z</time></trkpt><trkpt lat="46.2900090098895" lon="11.063917245483339"><ele>444.33333333333337</ele><time>2026-04-17T11:58:44Z</time></trkpt><trkpt lat="46.289878152554046" lon="11.063761886791594"><ele>444.0</ele><time>2026-04-17T11:58:45Z</time></trkpt><trkpt lat="46.28975200702832" lon="11.063608519865708"><ele>444.0</ele><time>2026-04-17T11:58:46Z</time></trkpt><trkpt lat="46.28962528160941" lon="11.063464874682055"><ele>444.0</ele><time>2026-04-17T11:58:47Z</time></trkpt><trkpt lat="46.28949459381231" lon="11.06333810415535"><ele>444.0</ele><time>2026-04-17T11:58:48Z</time></trkpt><trkpt lat="46.28936078352569" lon="11.063220017249135"><ele>434.33333333333337</ele><time>2026-04-17T11:58:49Z</time></trkpt><trkpt lat="46.28921531162155" lon="11.063118537365597"><ele>424.6666666666667</ele><time>2026-04-17T11:58:50Z</time></trkpt><trkpt lat="46.289055472641465" lon="11.063026527087116"><ele>415.0</ele><time>2026-04-17T11:58:51Z</time></trkpt><trkpt lat="46.288876087263624" lon="11.06293760237354"><ele>415.0</ele><time>2026-04-17T11:58:52Z</time></trkpt><trkpt lat="46.288692563345535" lon="11.062855873729418"><ele>415.0</ele><time>2026-04-17T11:58:53Z</time></trkpt><trkpt lat="46.28851900793264" lon="11.0627860551687"><ele>415.0</ele><time>2026-04-17T11:58:54Z</time></trkpt><trkpt lat="46.28834811328188" lon="11.062730529779838"><ele>415.0</ele><time>2026-04-17T11:58:55Z</time></trkpt><trkpt lat="46.28818045072809" lon="11.062679688232217"><ele>415.0</ele><time>2026-04-17T11:58:56Z</time></trkpt><trkpt lat="46.28801443334671" lon="11.062626398566241"><ele>415.0</ele><time>2026-04-17T11:58:57Z</time></trkpt><trkpt lat="46.28784171848003" lon="11.062592351948869"><ele>414.33333333333337</ele><time>2026-04-17T11:58:58Z</time></trkpt><trkpt lat="46.287655099642095" lon="11.06258379136948"><ele>413.66666666666663</ele><time>2026-04-17T11:58:59Z</time></trkpt><trkpt lat="46.28744679999673" lon="11.062594718046016"><ele>413.0</ele><time>2026-04-17T11:59:00Z</time></trkpt><trkpt lat="46.28720853823159" lon="11.062581377243127"><ele>412.5</ele><time>2026-04-17T11:59:01Z</time></trkpt><trkpt lat="46.28695276598041" lon="11.062581994457425"><ele>412.0</ele><time>2026-04-17T11:59:02Z</time></trkpt><trkpt lat="46.28670059621649" lon="11.062596726249149"><ele>412.0</ele><time>2026-04-17T11:59:03Z</time></trkpt><trkpt lat="46.28646984755252" lon="11.062575612712672"><ele>412.0</ele><time>2026-04-17T11:59:04Z</time></trkpt><trkpt lat="46.28624808461436" lon="11.06255246855296"><ele>412.5</ele><time>2026-04-17T11:59:05Z</time></trkpt><trkpt lat="46.28601634240527" lon="11.062521561196455"><ele>413.0</ele><time>2026-04-17T11:59:06Z</time></trkpt><trkpt lat="46.28576647220987" lon="11.062475761103737"><ele>404.0</ele><time>2026-04-17T11:59:07Z</time></trkpt><trkpt lat="46.28551202039706" lon="11.062429402125007"><ele>395.0</ele><time>2026-04-17T11:59:08Z</time></trkpt><trkpt lat="46.28527621542176" lon="11.062401112022933"><ele>395.0</ele><time>2026-04-17T11:59:09Z</time></trkpt><trkpt lat="46.285040496737025" lon="11.062397173801475"><ele>395.0</ele><time>2026-04-17T11:59:10Z</time></trkpt><trkpt lat="46.284813006707864" lon="11.062421347299093"><ele>398.0</ele><time>2026-04-17T11:59:11Z</time></trkpt><trkpt lat="46.284601390134185" lon="11.062454688164348"><ele>401.0</ele><time>2026-04-17T11:59:12Z</time></trkpt><trkpt lat="46.28439457885974" lon="11.062475545055825"><ele>404.0</ele><time>2026-04-17T11:59:13Z</time></trkpt><trkpt lat="46.284192299844214" lon="11.062470255075908"><ele>400.3333333333333</ele><time>2026-04-17T11:59:14Z</time></trkpt><trkpt lat="46.28398950453037" lon="11.062432137538384"><ele>396.66666666666663</ele><time>2026-04-17T11:59:15Z</time></trkpt><trkpt lat="46.2837659813825" lon="11.06236051459543"><ele>393.0</ele><time>2026-04-17T11:59:16Z</time></trkpt><trkpt lat="46.28352526117542" lon="11.062258449587407"><ele>391.5</ele><time>2026-04-17T11:59:17Z</time></trkpt><trkpt lat="46.28330842048627" lon="11.062159741506333"><ele>390.0</ele><time>2026-04-17T11:59:18Z</time></trkpt><trkpt lat="46.28308992081129" lon="11.062082703981257"><ele>388.66666666666663</ele><time>2026-04-17T11:59:19Z</time></trkpt><trkpt lat="46.28288738422273" lon="11.062031602465273"><ele>387.3333333333333</ele><time>2026-04-17T11:59:20Z</time></trkpt><trkpt lat="46.282700601495414" lon="11.061994891289268"><ele>386.0</ele><time>2026-04-17T11:59:21Z</time></trkpt><trkpt lat="46.2825357657842" lon="11.061966124802993"><ele>386.0</ele><time>2026-04-17T11:59:22Z</time></trkpt><trkpt lat="46.28236928815917" lon="11.06195612265364"><ele>386.0</ele><time>2026-04-17T11:59:23Z</time></trkpt><trkpt lat="46.282210400153126" lon="11.061958005205533"><ele>386.0</ele><time>2026-04-17T11:59:24Z</time></trkpt><trkpt lat="46.282055185456414" lon="11.061968867635388"><ele>384.0</ele><time>2026-04-17T11:59:25Z</time></trkpt><trkpt lat="46.28190328583131" lon="11.061987782792544"><ele>382.0</ele><time>2026-04-17T11:59:26Z</time></trkpt><trkpt lat="46.28175495991652" lon="11.06200974193764"><ele>380.0</ele><time>2026-04-17T11:59:27Z</time></trkpt><trkpt lat="46.281603424907075" lon="11.062044228285458"><ele>380.0</ele><time>2026-04-17T11:59:28Z</time></trkpt><trkpt lat="46.281448297329575" lon="11.062085525476675"><ele>380.0</ele><time>2026-04-17T11:59:29Z</time></trkpt><trkpt lat="46.28129361714085" lon="11.062145377884567"><ele>380.0</ele><time>2026-04-17T11:59:30Z</time></trkpt><trkpt lat="46.281142663690616" lon="11.062221261393933"><ele>380.0</ele><time>2026-04-17T11:59:31Z</time></trkpt><trkpt lat="46.28099767886453" lon="11.062308384217202"><ele>380.0</ele><time>2026-04-17T11:59:32Z</time></trkpt><trkpt lat="46.28081577257893" lon="11.062421821057523"><ele>380.0</ele><time>2026-04-17T11:59:33Z</time></trkpt><trkpt lat="46.28061265314388" lon="11.06257002414647"><ele>372.0</ele><time>2026-04-17T11:59:34Z</time></trkpt><trkpt lat="46.280397518221115" lon="11.062745240688646"><ele>364.0</ele><time>2026-04-17T11:59:35Z</time></trkpt><trkpt lat="46.280173787397814" lon="11.062929323751257"><ele>364.0</ele><time>2026-04-17T11:59:36Z</time></trkpt><trkpt lat="46.279971486063026" lon="11.063117609245648"><ele>364.0</ele><time>2026-04-17T11:59:37Z</time></trkpt><trkpt lat="46.27974525857763" lon="11.063288910053862"><ele>362.0</ele><time>2026-04-17T11:59:38Z</time></trkpt><trkpt lat="46.27951195795199" lon="11.063481648945704"><ele>360.0</ele><time>2026-04-17T11:59:39Z</time></trkpt><trkpt lat="46.27927440633931" lon="11.06368893420568"><ele>360.0</ele><time>2026-04-17T11:59:40Z</time></trkpt><trkpt lat="46.27905065005443" lon="11.063884071462317"><ele>360.0</ele><time>2026-04-17T11:59:41Z</time></trkpt><trkpt lat="46.278837327343375" lon="11.064068248968425"><ele>358.6666666666667</ele><time>2026-04-17T11:59:42Z</time></trkpt><trkpt lat="46.278644585537194" lon="11.064227036335275"><ele>357.33333333333337</ele><time>2026-04-17T11:59:43Z</time></trkpt><trkpt lat="46.27848181895353" lon="11.064352831138804"><ele>356.0</ele><time>2026-04-17T11:59:44Z</time></trkpt><trkpt lat="46.27834531409374" lon="11.064455374448942"><ele>356.0</ele><time>2026-04-17T11:59:45Z</time></trkpt><trkpt lat="46.27822204706424" lon="11.064539816758192"><ele>356.0</ele><time>2026-04-17T11:59:46Z</time></trkpt><trkpt lat="46.27809644097901" lon="11.064609181994552"><ele>356.0</ele><time>2026-04-17T11:59:47Z</time></trkpt><trkpt lat="46.27796669849735" lon="11.064654523248246"><ele>356.0</ele><time>2026-04-17T11:59:48Z</time></trkpt><trkpt lat="46.27782909745295" lon="11.064679017731214"><ele>354.0</ele><time>2026-04-17T11:59:49Z</time></trkpt><trkpt lat="46.27766765951108" lon="11.064701378709085"><ele>352.0</ele><time>2026-04-17T11:59:50Z</time></trkpt><trkpt lat="46.27748824066414" lon="11.064729211868896"><ele>350.0</ele><time>2026-04-17T11:59:51Z</time></trkpt><trkpt lat="46.27730215135378" lon="11.064745197507992"><ele>348.33333333333337</ele><time>2026-04-17T11:59:52Z</time></trkpt><trkpt lat="46.27712885938979" lon="11.06474848891569"><ele>346.6666666666667</ele><time>2026-04-17T11:59:53Z</time></trkpt><trkpt lat="46.27694898278863" lon="11.064734872410716"><ele>345.0</ele><time>2026-04-17T11:59:54Z</time></trkpt><trkpt lat="46.27677635078761" lon="11.064697513448303"><ele>345.0</ele><time>2026-04-17T11:59:55Z</time></trkpt><trkpt lat="46.27661538553401" lon="11.064631670140626"><ele>345.0</ele><time>2026-04-17T11:59:56Z</time></trkpt><trkpt lat="46.276446948022205" lon="11.06457108310312"><ele>345.0</ele><time>2026-04-17T11:59:57Z</time></trkpt><trkpt lat="46.276273950189676" lon="11.06450499664634"><ele>342.6666666666667</ele><time>2026-04-17T11:59:58Z</time></trkpt><trkpt lat="46.27609491390158" lon="11.064420826113855"><ele>340.33333333333337</ele><time>2026-04-17T11:59:59Z</time></trkpt><trkpt lat="46.27594057884066" lon="11.064316623345302"><ele>338.0</ele><time>2026-04-17T12:00:00Z</time></trkpt><trkpt lat="46.275795809415136" lon="11.06419815605549"><ele>334.0</ele><time>2026-04-17T12:00:01Z</time></trkpt><trkpt lat="46.275641090383445" lon="11.06406710452279"><ele>330.0</ele><time>2026-04-17T12:00:02Z</time></trkpt><trkpt lat="46.27547605100213" lon="11.063927448107421"><ele>326.0</ele><time>2026-04-17T12:00:03Z</time></trkpt><trkpt lat="46.27531205381311" lon="11.06380344184119"><ele>324.25</ele><time>2026-04-17T12:00:03.999Z</time></trkpt><trkpt lat="46.275153069737435" lon="11.063715914613576"><ele>322.5</ele><time>2026-04-17T12:00:04.999Z</time></trkpt><trkpt lat="46.27502345115974" lon="11.063675947656764"><ele>320.75</ele><time>2026-04-17T12:00:05.999Z</time></trkpt><trkpt lat="46.27492362399678" lon="11.063674595888696"><ele>319.0</ele><time>2026-04-17T12:00:06.999Z</time></trkpt><trkpt lat="46.274841835276376" lon="11.063669859877486"><ele>319.0</ele><time>2026-04-17T12:00:07.999Z</time></trkpt><trkpt lat="46.2747758473877" lon="11.063670277982888"><ele>319.0</ele><time>2026-04-17T12:00:08.999Z</time></trkpt><trkpt lat="46.274684294321375" lon="11.063670858075957"><ele>319.0</ele><time>2026-04-17T12:00:10.999Z</time></trkpt><trkpt lat="46.274614485156924" lon="11.06367130042681"><ele>319.0</ele><time>2026-04-17T12:00:39Z</time></trkpt><trkpt lat="46.27461137269217" lon="11.063793272848837"><ele>319.0</ele><time>2026-04-17T12:00:50Z</time></trkpt><trkpt lat="46.27449115653534" lon="11.06375761717226"><ele>319.0</ele><time>2026-04-17T12:01:26Z</time></trkpt><trkpt lat="46.27437798854357" lon="11.063734272420895"><ele>317.3333333333333</ele><time>2026-04-17T12:01:27Z</time></trkpt><trkpt lat="46.274256545898425" lon="11.063673568355568"><ele>315.6666666666667</ele><time>2026-04-17T12:01:28Z</time></trkpt><trkpt lat="46.27410135213179" lon="11.06367380029755"><ele>314.0</ele><time>2026-04-17T12:01:29Z</time></trkpt><trkpt lat="46.273932149096815" lon="11.063674669773526"><ele>312.0</ele><time>2026-04-17T12:01:30Z</time></trkpt><trkpt lat="46.27377807784526" lon="11.063677698013507"><ele>310.0</ele><time>2026-04-17T12:01:31Z</time></trkpt><trkpt lat="46.273590140914806" lon="11.06369191290637"><ele>308.0</ele><time>2026-04-17T12:01:32Z</time></trkpt><trkpt lat="46.27341438716238" lon="11.06365530300369"><ele>308.0</ele><time>2026-04-17T12:01:33Z</time></trkpt><trkpt lat="46.273229197348634" lon="11.06361400040502"><ele>308.0</ele><time>2026-04-17T12:01:34Z</time></trkpt><trkpt lat="46.2730421575334" lon="11.063565080721077"><ele>308.0</ele><time>2026-04-17T12:01:35Z</time></trkpt><trkpt lat="46.272859314184885" lon="11.0635338400718"><ele>307.6666666666667</ele><time>2026-04-17T12:01:36Z</time></trkpt><trkpt lat="46.272695629910075" lon="11.063492583782688"><ele>307.3333333333333</ele><time>2026-04-17T12:01:37Z</time></trkpt><trkpt lat="46.27254160061166" lon="11.063465664954279"><ele>307.0</ele><time>2026-04-17T12:01:38Z</time></trkpt><trkpt lat="46.27238685713138" lon="11.063449496907793"><ele>304.66666666666663</ele><time>2026-04-17T12:01:39Z</time></trkpt><trkpt lat="46.27222103624726" lon="11.06345521757461"><ele>302.3333333333333</ele><time>2026-04-17T12:01:40Z</time></trkpt><trkpt lat="46.272055609947095" lon="11.063471459643074"><ele>300.0</ele><time>2026-04-17T12:01:41Z</time></trkpt><trkpt lat="46.27190375180121" lon="11.06350437715408"><ele>300.0</ele><time>2026-04-17T12:01:42Z</time></trkpt><trkpt lat="46.271761614636034" lon="11.063551481752015"><ele>300.0</ele><time>2026-04-17T12:01:43Z</time></trkpt><trkpt lat="46.27161754414727" lon="11.063645469570744"><ele>300.0</ele><time>2026-04-17T12:01:44Z</time></trkpt><trkpt lat="46.27145220766643" lon="11.063771743611982"><ele>301.0</ele><time>2026-04-17T12:01:45Z</time></trkpt><trkpt lat="46.27127396202672" lon="11.063919063440165"><ele>302.0</ele><time>2026-04-17T12:01:46Z</time></trkpt><trkpt lat="46.27110883924858" lon="11.064047291440247"><ele>303.0</ele><time>2026-04-17T12:01:47Z</time></trkpt><trkpt lat="46.27098787070801" lon="11.064145342018275"><ele>303.0</ele><time>2026-04-17T12:01:48Z</time></trkpt><trkpt lat="46.27088039812138" lon="11.06422006295181"><ele>303.0</ele><time>2026-04-17T12:01:49Z</time></trkpt><trkpt lat="46.27076701885394" lon="11.064305791794101"><ele>303.0</ele><time>2026-04-17T12:01:50Z</time></trkpt><trkpt lat="46.27067921218657" lon="11.064376638469676"><ele>303.0</ele><time>2026-04-17T12:01:51Z</time></trkpt><trkpt lat="46.270608838412464" lon="11.064432862611243"><ele>303.0</ele><time>2026-04-17T12:01:52Z</time></trkpt><trkpt lat="46.270544434494106" lon="11.064484542496931"><ele>301.0</ele><time>2026-04-17T12:01:53Z</time></trkpt><trkpt lat="46.27048706257197" lon="11.064529676408991"><ele>299.0</ele><time>2026-04-17T12:01:54Z</time></trkpt><trkpt lat="46.27040597352119" lon="11.064594251636663"><ele>297.0</ele><time>2026-04-17T12:01:56Z</time></trkpt><trkpt lat="46.27033555799432" lon="11.064660810945513"><ele>295.0</ele><time>2026-04-17T12:01:58Z</time></trkpt><trkpt lat="46.27027766079026" lon="11.064709219792018"><ele>293.0</ele><time>2026-04-17T12:01:59Z</time></trkpt><trkpt lat="46.27019224196765" lon="11.064808894391138"><ele>291.0</ele><time>2026-04-17T12:02:00Z</time></trkpt><trkpt lat="46.27011107386982" lon="11.064902570199548"><ele>290.5</ele><time>2026-04-17T12:02:01Z</time></trkpt><trkpt lat="46.2700146539453" lon="11.065025664857167"><ele>290.0</ele><time>2026-04-17T12:02:02Z</time></trkpt><trkpt lat="46.26989177866252" lon="11.065178978005893"><ele>289.5</ele><time>2026-04-17T12:02:03Z</time></trkpt><trkpt lat="46.26977969464766" lon="11.065314116216387"><ele>289.0</ele><time>2026-04-17T12:02:04Z</time></trkpt><trkpt lat="46.269651694039815" lon="11.06545244972006"><ele>289.0</ele><time>2026-04-17T12:02:05Z</time></trkpt><trkpt lat="46.26950658945405" lon="11.06555434776898"><ele>289.0</ele><time>2026-04-17T12:02:06Z</time></trkpt><trkpt lat="46.26933208006774" lon="11.065629340230878"><ele>289.0</ele><time>2026-04-17T12:02:07Z</time></trkpt><trkpt lat="46.26913008373007" lon="11.065697596165933"><ele>289.0</ele><time>2026-04-17T12:02:08Z</time></trkpt><trkpt lat="46.268944446557924" lon="11.065751739325766"><ele>289.0</ele><time>2026-04-17T12:02:09Z</time></trkpt><trkpt lat="46.268783598845665" lon="11.06580007368974"><ele>289.0</ele><time>2026-04-17T12:02:10Z</time></trkpt><trkpt lat="46.26863981756832" lon="11.065837289186225"><ele>292.0</ele><time>2026-04-17T12:02:11Z</time></trkpt><trkpt lat="46.268511156107905" lon="11.065902070489"><ele>295.0</ele><time>2026-04-17T12:02:12Z</time></trkpt><trkpt lat="46.268392733886614" lon="11.065997241882656"><ele>298.0</ele><time>2026-04-17T12:02:13Z</time></trkpt><trkpt lat="46.26828598065952" lon="11.06608640513559"><ele>301.0</ele><time>2026-04-17T12:02:14Z</time></trkpt><trkpt lat="46.26816312238894" lon="11.066132570853846"><ele>304.25</ele><time>2026-04-17T12:02:15Z</time></trkpt><trkpt lat="46.268022892420284" lon="11.066134344086448"><ele>307.5</ele><time>2026-04-17T12:02:16Z</time></trkpt><trkpt lat="46.26787459034848" lon="11.066139472902318"><ele>310.75</ele><time>2026-04-17T12:02:17Z</time></trkpt><trkpt lat="46.26772806098625" lon="11.066147853157391"><ele>314.0</ele><time>2026-04-17T12:02:18Z</time></trkpt><trkpt lat="46.26758720102864" lon="11.066081679485146"><ele>314.0</ele><time>2026-04-17T12:02:19Z</time></trkpt><trkpt lat="46.26742125316834" lon="11.06602426267717"><ele>314.0</ele><time>2026-04-17T12:02:20Z</time></trkpt><trkpt lat="46.26723572533177" lon="11.06592657269299"><ele>314.0</ele><time>2026-04-17T12:02:21Z</time></trkpt><trkpt lat="46.26708028221663" lon="11.06582127986549"><ele>312.0</ele><time>2026-04-17T12:02:22Z</time></trkpt><trkpt lat="46.26694559675047" lon="11.065742884416983"><ele>310.0</ele><time>2026-04-17T12:02:23Z</time></trkpt><trkpt lat="46.26681923187732" lon="11.06564588579416"><ele>308.0</ele><time>2026-04-17T12:02:24Z</time></trkpt><trkpt lat="46.266710859210896" lon="11.065530786664084"><ele>306.0</ele><time>2026-04-17T12:02:25Z</time></trkpt><trkpt lat="46.26664464640941" lon="11.065376553800466"><ele>306.0</ele><time>2026-04-17T12:02:26Z</time></trkpt><trkpt lat="46.2666065000055" lon="11.065245258158408"><ele>306.0</ele><time>2026-04-17T12:02:27Z</time></trkpt><trkpt lat="46.26657498929405" lon="11.065099319384027"><ele>306.0</ele><time>2026-04-17T12:02:28Z</time></trkpt><trkpt lat="46.26655437010296" lon="11.064922420772122"><ele>306.0</ele><time>2026-04-17T12:02:29Z</time></trkpt><trkpt lat="46.26650132619595" lon="11.064748240778263"><ele>307.0</ele><time>2026-04-17T12:02:30Z</time></trkpt><trkpt lat="46.266406939261785" lon="11.064601944581188"><ele>308.0</ele><time>2026-04-17T12:02:31Z</time></trkpt><trkpt lat="46.26630332464891" lon="11.064420570305751"><ele>309.0</ele><time>2026-04-17T12:02:32Z</time></trkpt><trkpt lat="46.26621278094906" lon="11.064300087517053"><ele>310.0</ele><time>2026-04-17T12:02:33Z</time></trkpt><trkpt lat="46.266145212143265" lon="11.064195793853356"><ele>310.0</ele><time>2026-04-17T12:02:34Z</time></trkpt><trkpt lat="46.26603177723649" lon="11.06415851581891"><ele>310.0</ele><time>2026-04-17T12:02:35Z</time></trkpt><trkpt lat="46.265897825182904" lon="11.06413543920656"><ele>310.0</ele><time>2026-04-17T12:02:36Z</time></trkpt><trkpt lat="46.26573282077032" lon="11.064121691766138"><ele>310.0</ele><time>2026-04-17T12:02:37Z</time></trkpt><trkpt lat="46.26555163003214" lon="11.064113000478871"><ele>309.66666666666663</ele><time>2026-04-17T12:02:38Z</time></trkpt><trkpt lat="46.26538715343319" lon="11.064123247262454"><ele>309.3333333333333</ele><time>2026-04-17T12:02:39Z</time></trkpt><trkpt lat="46.26519490794037" lon="11.064149245877598"><ele>309.0</ele><time>2026-04-17T12:02:40Z</time></trkpt><trkpt lat="46.26499138012367" lon="11.0641788483124"><ele>309.0</ele><time>2026-04-17T12:02:41Z</time></trkpt><trkpt lat="46.26481258127905" lon="11.064188295352622"><ele>309.0</ele><time>2026-04-17T12:02:42Z</time></trkpt><trkpt lat="46.26466666083053" lon="11.064203050009077"><ele>309.0</ele><time>2026-04-17T12:02:43Z</time></trkpt><trkpt lat="46.264541503973376" lon="11.064221268213366"><ele>307.75</ele><time>2026-04-17T12:02:44Z</time></trkpt><trkpt lat="46.26443294030346" lon="11.06427638857866"><ele>306.5</ele><time>2026-04-17T12:02:45Z</time></trkpt><trkpt lat="46.26432881225992" lon="11.064367015096305"><ele>305.25</ele><time>2026-04-17T12:02:46Z</time></trkpt><trkpt lat="46.26422006001431" lon="11.064432456629415"><ele>304.0</ele><time>2026-04-17T12:02:47Z</time></trkpt><trkpt lat="46.26410379574667" lon="11.064443868395957"><ele>304.0</ele><time>2026-04-17T12:02:48Z</time></trkpt><trkpt lat="46.26396533488871" lon="11.064384915822485"><ele>304.0</ele><time>2026-04-17T12:02:49Z</time></trkpt><trkpt lat="46.263789901782545" lon="11.064335363558934"><ele>304.0</ele><time>2026-04-17T12:02:50Z</time></trkpt><trkpt lat="46.26360126670466" lon="11.064286905155868"><ele>303.3333333333333</ele><time>2026-04-17T12:02:51Z</time></trkpt><trkpt lat="46.26343555262006" lon="11.064242700339049"><ele>302.6666666666667</ele><time>2026-04-17T12:02:52Z</time></trkpt><trkpt lat="46.263247501894305" lon="11.06417747049634"><ele>302.0</ele><time>2026-04-17T12:02:53Z</time></trkpt><trkpt lat="46.263050042493695" lon="11.064082434880435"><ele>302.0</ele><time>2026-04-17T12:02:54Z</time></trkpt><trkpt lat="46.26283990198762" lon="11.063983914751905"><ele>302.0</ele><time>2026-04-17T12:02:55Z</time></trkpt><trkpt lat="46.26264191043524" lon="11.063826409003713"><ele>302.0</ele><time>2026-04-17T12:02:56Z</time></trkpt><trkpt lat="46.26246272090447" lon="11.063703841554286"><ele>302.0</ele><time>2026-04-17T12:02:57Z</time></trkpt><trkpt lat="46.26228386207893" lon="11.06361018392222"><ele>302.0</ele><time>2026-04-17T12:02:58Z</time></trkpt><trkpt lat="46.26208102618041" lon="11.063569919680752"><ele>302.0</ele><time>2026-04-17T12:02:59Z</time></trkpt><trkpt lat="46.26185328513862" lon="11.06348428659875"><ele>303.5</ele><time>2026-04-17T12:03:00Z</time></trkpt><trkpt lat="46.261612662117955" lon="11.063417255308147"><ele>305.0</ele><time>2026-04-17T12:03:01Z</time></trkpt><trkpt lat="46.26138670619048" lon="11.063355048569262"><ele>305.0</ele><time>2026-04-17T12:03:02Z</time></trkpt><trkpt lat="46.26113489171873" lon="11.063285722858256"><ele>305.0</ele><time>2026-04-17T12:03:03Z</time></trkpt><trkpt lat="46.26087056207459" lon="11.06321306379998"><ele>300.0</ele><time>2026-04-17T12:03:04Z</time></trkpt><trkpt lat="46.260609936356964" lon="11.063140325710629"><ele>295.0</ele><time>2026-04-17T12:03:05Z</time></trkpt><trkpt lat="46.26037194370159" lon="11.063074880193376"><ele>295.0</ele><time>2026-04-17T12:03:06Z</time></trkpt><trkpt lat="46.26014662767437" lon="11.063012614936897"><ele>295.0</ele><time>2026-04-17T12:03:07Z</time></trkpt><trkpt lat="46.25991517141719" lon="11.06297173453961"><ele>296.0</ele><time>2026-04-17T12:03:08Z</time></trkpt><trkpt lat="46.25967344550629" lon="11.062881644371043"><ele>297.0</ele><time>2026-04-17T12:03:09Z</time></trkpt><trkpt lat="46.25942564209348" lon="11.062836078113799"><ele>297.0</ele><time>2026-04-17T12:03:10Z</time></trkpt><trkpt lat="46.259205742796645" lon="11.06274848203619"><ele>297.0</ele><time>2026-04-17T12:03:11Z</time></trkpt><trkpt lat="46.25897602367002" lon="11.062689396633433"><ele>296.0</ele><time>2026-04-17T12:03:12Z</time></trkpt><trkpt lat="46.25873458972882" lon="11.06267889357411"><ele>295.0</ele><time>2026-04-17T12:03:13Z</time></trkpt><trkpt lat="46.25848178863046" lon="11.062678356531777"><ele>295.0</ele><time>2026-04-17T12:03:14Z</time></trkpt><trkpt lat="46.258210342861275" lon="11.062690217834941"><ele>295.0</ele><time>2026-04-17T12:03:15Z</time></trkpt><trkpt lat="46.25792539968601" lon="11.062700066467123"><ele>296.0</ele><time>2026-04-17T12:03:16Z</time></trkpt><trkpt lat="46.25762922482478" lon="11.062706499058825"><ele>297.0</ele><time>2026-04-17T12:03:17Z</time></trkpt><trkpt lat="46.25734379664005" lon="11.062713788805576"><ele>297.0</ele><time>2026-04-17T12:03:18Z</time></trkpt><trkpt lat="46.25708244907838" lon="11.06272022463421"><ele>297.0</ele><time>2026-04-17T12:03:19Z</time></trkpt><trkpt lat="46.25683436062615" lon="11.062726007372389"><ele>297.0</ele><time>2026-04-17T12:03:20Z</time></trkpt><trkpt lat="46.25659014940759" lon="11.062735517935359"><ele>297.0</ele><time>2026-04-17T12:03:21Z</time></trkpt><trkpt lat="46.256339897655444" lon="11.062750275447218"><ele>295.5</ele><time>2026-04-17T12:03:22Z</time></trkpt><trkpt lat="46.25607991702418" lon="11.062786926751825"><ele>294.0</ele><time>2026-04-17T12:03:23Z</time></trkpt><trkpt lat="46.2558063164997" lon="11.062842419076873"><ele>292.5</ele><time>2026-04-17T12:03:24Z</time></trkpt><trkpt lat="46.2555294609341" lon="11.062916787440203"><ele>291.0</ele><time>2026-04-17T12:03:25Z</time></trkpt><trkpt lat="46.25527570313355" lon="11.062994335629053"><ele>291.0</ele><time>2026-04-17T12:03:26Z</time></trkpt><trkpt lat="46.25503565669975" lon="11.063054448381658"><ele>291.0</ele><time>2026-04-17T12:03:27Z</time></trkpt><trkpt lat="46.25479002496235" lon="11.063101652844862"><ele>291.3333333333333</ele><time>2026-04-17T12:03:28Z</time></trkpt><trkpt lat="46.25456375278483" lon="11.063128866162407"><ele>291.66666666666663</ele><time>2026-04-17T12:03:29Z</time></trkpt><trkpt lat="46.25435977128427" lon="11.063150243045873"><ele>292.0</ele><time>2026-04-17T12:03:30Z</time></trkpt><trkpt lat="46.25416478117836" lon="11.06316396193541"><ele>292.0</ele><time>2026-04-17T12:03:31Z</time></trkpt><trkpt lat="46.25396522453575" lon="11.063167443437463"><ele>292.0</ele><time>2026-04-17T12:03:32Z</time></trkpt><trkpt lat="46.253761785560535" lon="11.063136236288129"><ele>292.0</ele><time>2026-04-17T12:03:33Z</time></trkpt><trkpt lat="46.253569099983096" lon="11.063042090781382"><ele>291.0</ele><time>2026-04-17T12:03:34Z</time></trkpt><trkpt lat="46.253339836801274" lon="11.062967419213804"><ele>290.0</ele><time>2026-04-17T12:03:35Z</time></trkpt><trkpt lat="46.25309277987915" lon="11.062927911662008"><ele>289.33333333333337</ele><time>2026-04-17T12:03:36Z</time></trkpt><trkpt lat="46.25288039252534" lon="11.062870586497239"><ele>288.6666666666667</ele><time>2026-04-17T12:03:37Z</time></trkpt><trkpt lat="46.252697900790515" lon="11.062813756437759"><ele>288.0</ele><time>2026-04-17T12:03:38Z</time></trkpt><trkpt lat="46.25252949165524" lon="11.062734169484905"><ele>288.0</ele><time>2026-04-17T12:03:39Z</time></trkpt><trkpt lat="46.25236323818173" lon="11.062675170475375"><ele>288.0</ele><time>2026-04-17T12:03:40Z</time></trkpt><trkpt lat="46.252156458300504" lon="11.062643922998722"><ele>288.0</ele><time>2026-04-17T12:03:41Z</time></trkpt><trkpt lat="46.251919440981624" lon="11.062618703077685"><ele>289.5</ele><time>2026-04-17T12:03:42Z</time></trkpt><trkpt lat="46.251678816721075" lon="11.062596753566005"><ele>291.0</ele><time>2026-04-17T12:03:43Z</time></trkpt><trkpt lat="46.25144553284805" lon="11.062582185720037"><ele>291.5</ele><time>2026-04-17T12:03:44Z</time></trkpt><trkpt lat="46.25119461742387" lon="11.062560121733709"><ele>292.0</ele><time>2026-04-17T12:03:45Z</time></trkpt><trkpt lat="46.250934465800306" lon="11.062552645448939"><ele>292.0</ele><time>2026-04-17T12:03:46Z</time></trkpt><trkpt lat="46.25065954406191" lon="11.062554093681618"><ele>292.0</ele><time>2026-04-17T12:03:47Z</time></trkpt><trkpt lat="46.250407039839885" lon="11.062564274779321"><ele>291.5</ele><time>2026-04-17T12:03:48Z</time></trkpt><trkpt lat="46.25016527563803" lon="11.062563816646623"><ele>291.0</ele><time>2026-04-17T12:03:49Z</time></trkpt><trkpt lat="46.249926801618415" lon="11.06255859056579"><ele>290.3333333333333</ele><time>2026-04-17T12:03:50Z</time></trkpt><trkpt lat="46.249700825747055" lon="11.062551299848948"><ele>289.66666666666663</ele><time>2026-04-17T12:03:51Z</time></trkpt><trkpt lat="46.249482004014645" lon="11.062548856289391"><ele>289.0</ele><time>2026-04-17T12:03:52Z</time></trkpt><trkpt lat="46.249271703850816" lon="11.062549435294338"><ele>289.0</ele><time>2026-04-17T12:03:53Z</time></trkpt><trkpt lat="46.249077856446974" lon="11.062554600804116"><ele>289.0</ele><time>2026-04-17T12:03:54Z</time></trkpt><trkpt lat="46.24890387679367" lon="11.06252951694443"><ele>289.0</ele><time>2026-04-17T12:03:55Z</time></trkpt><trkpt lat="46.248737653575816" lon="11.062525205170706"><ele>287.66666666666663</ele><time>2026-04-17T12:03:56Z</time></trkpt><trkpt lat="46.24857881925022" lon="11.062521085063546"><ele>286.3333333333333</ele><time>2026-04-17T12:03:57Z</time></trkpt><trkpt lat="46.248428305448655" lon="11.062517180780148"><ele>285.0</ele><time>2026-04-17T12:03:58Z</time></trkpt><trkpt lat="46.24827696646892" lon="11.062513255211751"><ele>283.0</ele><time>2026-04-17T12:03:59Z</time></trkpt><trkpt lat="46.2480919607826" lon="11.062508529038853"><ele>281.0</ele><time>2026-04-17T12:04:00Z</time></trkpt><trkpt lat="46.24788304533323" lon="11.062502593296674"><ele>279.0</ele><time>2026-04-17T12:04:01Z</time></trkpt><trkpt lat="46.24765558300934" lon="11.062486066912507"><ele>279.0</ele><time>2026-04-17T12:04:02Z</time></trkpt><trkpt lat="46.24741435169738" lon="11.06246099715168"><ele>279.0</ele><time>2026-04-17T12:04:03Z</time></trkpt><trkpt lat="46.24716013701628" lon="11.06243349843063"><ele>275.5</ele><time>2026-04-17T12:04:04Z</time></trkpt><trkpt lat="46.2468977974955" lon="11.062405271883238"><ele>272.0</ele><time>2026-04-17T12:04:05Z</time></trkpt><trkpt lat="46.24665449051531" lon="11.06237902740311"><ele>274.0</ele><time>2026-04-17T12:04:06Z</time></trkpt><trkpt lat="46.24638833660382" lon="11.062370405375525"><ele>276.0</ele><time>2026-04-17T12:04:07Z</time></trkpt><trkpt lat="46.24611347433151" lon="11.062334904499735"><ele>276.0</ele><time>2026-04-17T12:04:08Z</time></trkpt><trkpt lat="46.245854907112104" lon="11.062275959215865"><ele>276.0</ele><time>2026-04-17T12:04:09Z</time></trkpt><trkpt lat="46.245623213604915" lon="11.06226960491833"><ele>276.0</ele><time>2026-04-17T12:04:10Z</time></trkpt><trkpt lat="46.245415498254786" lon="11.062244474523434"><ele>276.0</ele><time>2026-04-17T12:04:11Z</time></trkpt><trkpt lat="46.245226662812485" lon="11.062228798104147"><ele>276.0</ele><time>2026-04-17T12:04:12Z</time></trkpt><trkpt lat="46.24504997685939" lon="11.062185916844859"><ele>276.0</ele><time>2026-04-17T12:04:13Z</time></trkpt><trkpt lat="46.244859115271026" lon="11.062108085230552"><ele>276.0</ele><time>2026-04-17T12:04:14Z</time></trkpt><trkpt lat="46.24465652690691" lon="11.061966930961205"><ele>276.0</ele><time>2026-04-17T12:04:15Z</time></trkpt><trkpt lat="46.24442902892831" lon="11.061834919958535"><ele>274.5</ele><time>2026-04-17T12:04:16Z</time></trkpt><trkpt lat="46.24419238841347" lon="11.061715535978141"><ele>273.0</ele><time>2026-04-17T12:04:17Z</time></trkpt><trkpt lat="46.24398940937569" lon="11.061595678483497"><ele>273.6666666666667</ele><time>2026-04-17T12:04:18Z</time></trkpt><trkpt lat="46.243797936493785" lon="11.061495412041712"><ele>274.33333333333337</ele><time>2026-04-17T12:04:19Z</time></trkpt><trkpt lat="46.2436034256053" lon="11.061419293495"><ele>275.0</ele><time>2026-04-17T12:04:20Z</time></trkpt><trkpt lat="46.24338025936243" lon="11.061368778453076"><ele>275.0</ele><time>2026-04-17T12:04:21Z</time></trkpt><trkpt lat="46.24313728817041" lon="11.061328241386867"><ele>275.0</ele><time>2026-04-17T12:04:22Z</time></trkpt><trkpt lat="46.24292067817008" lon="11.061299802102953"><ele>277.6666666666667</ele><time>2026-04-17T12:04:23Z</time></trkpt><trkpt lat="46.24270223594087" lon="11.061304388890777"><ele>280.3333333333333</ele><time>2026-04-17T12:04:24Z</time></trkpt><trkpt lat="46.2424865226644" lon="11.061311028556888"><ele>283.0</ele><time>2026-04-17T12:04:25Z</time></trkpt><trkpt lat="46.242286682243176" lon="11.061339909346128"><ele>285.0</ele><time>2026-04-17T12:04:26Z</time></trkpt><trkpt lat="46.24211320669566" lon="11.061364979876236"><ele>287.0</ele><time>2026-04-17T12:04:27Z</time></trkpt><trkpt lat="46.241941011321266" lon="11.061389865418816"><ele>289.0</ele><time>2026-04-17T12:04:28Z</time></trkpt><trkpt lat="46.241730638489024" lon="11.06142026832703"><ele>289.0</ele><time>2026-04-17T12:04:29Z</time></trkpt><trkpt lat="46.24149951565139" lon="11.061464236472162"><ele>289.0</ele><time>2026-04-17T12:04:30Z</time></trkpt><trkpt lat="46.24127118345475" lon="11.061529367285889"><ele>289.0</ele><time>2026-04-17T12:04:31Z</time></trkpt><trkpt lat="46.241062842262075" lon="11.061547281075892"><ele>289.0</ele><time>2026-04-17T12:04:32Z</time></trkpt><trkpt lat="46.24085142903503" lon="11.06156150756886"><ele>289.0</ele><time>2026-04-17T12:04:33Z</time></trkpt><trkpt lat="46.24064226510879" lon="11.061588540450117"><ele>288.66666666666663</ele><time>2026-04-17T12:04:34Z</time></trkpt><trkpt lat="46.24044935961409" lon="11.061608048801876"><ele>288.3333333333333</ele><time>2026-04-17T12:04:35Z</time></trkpt><trkpt lat="46.240277018344095" lon="11.061626187414145"><ele>288.0</ele><time>2026-04-17T12:04:36Z</time></trkpt><trkpt lat="46.24012131593238" lon="11.061656519607304"><ele>289.0</ele><time>2026-04-17T12:04:37Z</time></trkpt><trkpt lat="46.23997190133154" lon="11.061706752578367"><ele>290.0</ele><time>2026-04-17T12:04:38Z</time></trkpt><trkpt lat="46.23982285901701" lon="11.061799171137821"><ele>291.0</ele><time>2026-04-17T12:04:39Z</time></trkpt><trkpt lat="46.23965811824164" lon="11.06192564148941"><ele>291.0</ele><time>2026-04-17T12:04:40Z</time></trkpt><trkpt lat="46.23947502324992" lon="11.062075915452018"><ele>291.0</ele><time>2026-04-17T12:04:41Z</time></trkpt><trkpt lat="46.23928245654078" lon="11.062220026728031"><ele>291.0</ele><time>2026-04-17T12:04:42Z</time></trkpt><trkpt lat="46.239107946165134" lon="11.06234272381222"><ele>293.0</ele><time>2026-04-17T12:04:43Z</time></trkpt><trkpt lat="46.23895065508064" lon="11.06246627469623"><ele>295.0</ele><time>2026-04-17T12:04:44Z</time></trkpt><trkpt lat="46.23880466096932" lon="11.06256789227709"><ele>297.0</ele><time>2026-04-17T12:04:45Z</time></trkpt><trkpt lat="46.23866746855774" lon="11.06264545306949"><ele>297.0</ele><time>2026-04-17T12:04:46Z</time></trkpt><trkpt lat="46.238533949040715" lon="11.062699405662016"><ele>297.0</ele><time>2026-04-17T12:04:47Z</time></trkpt><trkpt lat="46.238398203735024" lon="11.062721091520817"><ele>297.0</ele><time>2026-04-17T12:04:48Z</time></trkpt><trkpt lat="46.238268560754356" lon="11.06271139305222"><ele>297.0</ele><time>2026-04-17T12:04:49Z</time></trkpt><trkpt lat="46.238136502491166" lon="11.062668161705675"><ele>287.6666666666667</ele><time>2026-04-17T12:04:50Z</time></trkpt><trkpt lat="46.238007482006616" lon="11.062558213308032"><ele>278.33333333333337</ele><time>2026-04-17T12:04:51Z</time></trkpt><trkpt lat="46.23784787346331" lon="11.06246107250042"><ele>269.0</ele><time>2026-04-17T12:04:52Z</time></trkpt><trkpt lat="46.237719070430806" lon="11.062374063628523"><ele>269.0</ele><time>2026-04-17T12:04:53Z</time></trkpt><trkpt lat="46.23758561281921" lon="11.062338093701062"><ele>269.0</ele><time>2026-04-17T12:04:54Z</time></trkpt><trkpt lat="46.23744417268697" lon="11.062330624727027"><ele>269.0</ele><time>2026-04-17T12:04:55Z</time></trkpt><trkpt lat="46.23730212280932" lon="11.062358484975979"><ele>269.0</ele><time>2026-04-17T12:04:56Z</time></trkpt><trkpt lat="46.23716884170443" lon="11.062398411672762"><ele>267.8</ele><time>2026-04-17T12:04:57Z</time></trkpt><trkpt lat="46.23705554413938" lon="11.062411335612065"><ele>266.59999999999997</ele><time>2026-04-17T12:04:58Z</time></trkpt><trkpt lat="46.23695727976652" lon="11.062391230569228"><ele>265.4</ele><time>2026-04-17T12:04:59Z</time></trkpt><trkpt lat="46.23685548038073" lon="11.062339100236965"><ele>264.2</ele><time>2026-04-17T12:05:00Z</time></trkpt><trkpt lat="46.2367479263616" lon="11.062283221042994"><ele>263.0</ele><time>2026-04-17T12:05:01Z</time></trkpt><trkpt lat="46.236619907725014" lon="11.06226970356472"><ele>263.0</ele><time>2026-04-17T12:05:02Z</time></trkpt><trkpt lat="46.23649269120373" lon="11.062288156967488"><ele>263.0</ele><time>2026-04-17T12:05:03Z</time></trkpt><trkpt lat="46.23638726706105" lon="11.0623192025626"><ele>263.0</ele><time>2026-04-17T12:05:04Z</time></trkpt><trkpt lat="46.23627754179539" lon="11.06238138168515"><ele>263.0</ele><time>2026-04-17T12:05:05Z</time></trkpt><trkpt lat="46.236154702467864" lon="11.062487578016889"><ele>267.25</ele><time>2026-04-17T12:05:06Z</time></trkpt><trkpt lat="46.236017099347436" lon="11.0625642357697"><ele>271.5</ele><time>2026-04-17T12:05:07Z</time></trkpt><trkpt lat="46.23587895711464" lon="11.062616652565914"><ele>275.75</ele><time>2026-04-17T12:05:08Z</time></trkpt><trkpt lat="46.23573341262569" lon="11.062668222164046"><ele>280.0</ele><time>2026-04-17T12:05:09Z</time></trkpt><trkpt lat="46.23559554223215" lon="11.062717072719023"><ele>280.0</ele><time>2026-04-17T12:05:10Z</time></trkpt><trkpt lat="46.23547787556271" lon="11.062759557273111"><ele>280.0</ele><time>2026-04-17T12:05:11Z</time></trkpt><trkpt lat="46.23537163602002" lon="11.062818292472477"><ele>280.0</ele><time>2026-04-17T12:05:12Z</time></trkpt><trkpt lat="46.23524120415105" lon="11.062845177325945"><ele>280.0</ele><time>2026-04-17T12:05:13Z</time></trkpt><trkpt lat="46.23511855414939" lon="11.062888208664715"><ele>280.0</ele><time>2026-04-17T12:05:14Z</time></trkpt><trkpt lat="46.23499957811263" lon="11.062920799174812"><ele>280.0</ele><time>2026-04-17T12:05:15Z</time></trkpt><trkpt lat="46.23487436226467" lon="11.062915437178773"><ele>280.0</ele><time>2026-04-17T12:05:16Z</time></trkpt><trkpt lat="46.234752760211464" lon="11.062897110405885"><ele>280.0</ele><time>2026-04-17T12:05:17Z</time></trkpt><trkpt lat="46.23464668095441" lon="11.062944103199634"><ele>279.6</ele><time>2026-04-17T12:05:18Z</time></trkpt><trkpt lat="46.23454570733788" lon="11.062954216939303"><ele>279.2</ele><time>2026-04-17T12:05:19Z</time></trkpt><trkpt lat="46.23444738789223" lon="11.062945069472448"><ele>278.8</ele><time>2026-04-17T12:05:20Z</time></trkpt><trkpt lat="46.23435932303006" lon="11.062920992462617"><ele>278.4</ele><time>2026-04-17T12:05:21Z</time></trkpt><trkpt lat="46.23425605656819" lon="11.062887273380749"><ele>278.0</ele><time>2026-04-17T12:05:22Z</time></trkpt><trkpt lat="46.23413213891376" lon="11.06284841857834"><ele>278.0</ele><time>2026-04-17T12:05:23Z</time></trkpt><trkpt lat="46.233998676849886" lon="11.062811143435459"><ele>278.0</ele><time>2026-04-17T12:05:24Z</time></trkpt><trkpt lat="46.23386603777644" lon="11.06280598493058"><ele>278.0</ele><time>2026-04-17T12:05:25Z</time></trkpt><trkpt lat="46.23372454272174" lon="11.062827918323208"><ele>278.0</ele><time>2026-04-17T12:05:26Z</time></trkpt><trkpt lat="46.23357914724179" lon="11.06287689083974"><ele>278.5</ele><time>2026-04-17T12:05:27Z</time></trkpt><trkpt lat="46.233431994757005" lon="11.06294113285008"><ele>279.0</ele><time>2026-04-17T12:05:28Z</time></trkpt><trkpt lat="46.23329138528711" lon="11.063003157918061"><ele>279.5</ele><time>2026-04-17T12:05:29Z</time></trkpt><trkpt lat="46.23317276975291" lon="11.063059889346611"><ele>280.0</ele><time>2026-04-17T12:05:30Z</time></trkpt><trkpt lat="46.23307960000487" lon="11.063117665370898"><ele>277.5</ele><time>2026-04-17T12:05:31Z</time></trkpt><trkpt lat="46.233001731867134" lon="11.063204340771678"><ele>275.0</ele><time>2026-04-17T12:05:32Z</time></trkpt><trkpt lat="46.232931954858046" lon="11.063334014775483"><ele>272.5</ele><time>2026-04-17T12:05:33Z</time></trkpt><trkpt lat="46.2328507440679" lon="11.063498922921202"><ele>270.0</ele><time>2026-04-17T12:05:34Z</time></trkpt><trkpt lat="46.232749419858955" lon="11.063696740776482"><ele>270.0</ele><time>2026-04-17T12:05:35Z</time></trkpt><trkpt lat="46.23267667075801" lon="11.063909997401556"><ele>270.0</ele><time>2026-04-17T12:05:36Z</time></trkpt><trkpt lat="46.23260128619552" lon="11.06408686560265"><ele>270.0</ele><time>2026-04-17T12:05:37Z</time></trkpt><trkpt lat="46.23254104943625" lon="11.064259273455809"><ele>270.0</ele><time>2026-04-17T12:05:38Z</time></trkpt><trkpt lat="46.232488837918254" lon="11.064432426365427"><ele>273.0</ele><time>2026-04-17T12:05:39Z</time></trkpt><trkpt lat="46.23244782516098" lon="11.064643352219782"><ele>276.0</ele><time>2026-04-17T12:05:40Z</time></trkpt><trkpt lat="46.232428211395536" lon="11.064899845576765"><ele>279.0</ele><time>2026-04-17T12:05:41Z</time></trkpt><trkpt lat="46.2323862164864" lon="11.065201302786072"><ele>279.0</ele><time>2026-04-17T12:05:42Z</time></trkpt><trkpt lat="46.232358841782414" lon="11.065517794199524"><ele>279.0</ele><time>2026-04-17T12:05:43Z</time></trkpt><trkpt lat="46.23233103427616" lon="11.065845045854466"><ele>279.0</ele><time>2026-04-17T12:05:44Z</time></trkpt><trkpt lat="46.23232031478838" lon="11.066140210526678"><ele>278.6666666666667</ele><time>2026-04-17T12:05:45Z</time></trkpt><trkpt lat="46.232291505486714" lon="11.066407550083664"><ele>278.33333333333337</ele><time>2026-04-17T12:05:46Z</time></trkpt><trkpt lat="46.232272995096395" lon="11.066647807071647"><ele>278.0</ele><time>2026-04-17T12:05:47Z</time></trkpt><trkpt lat="46.232263372488774" lon="11.066863598506174"><ele>278.0</ele><time>2026-04-17T12:05:48Z</time></trkpt><trkpt lat="46.232264384949744" lon="11.067053205856315"><ele>278.0</ele><time>2026-04-17T12:05:49Z</time></trkpt><trkpt lat="46.232283131535006" lon="11.067199593034845"><ele>278.0</ele><time>2026-04-17T12:05:50Z</time></trkpt><trkpt lat="46.23228204929474" lon="11.067359551967284"><ele>278.0</ele><time>2026-04-17T12:05:51Z</time></trkpt><trkpt lat="46.23225647359595" lon="11.067488779441677"><ele>278.0</ele><time>2026-04-17T12:05:52Z</time></trkpt><trkpt lat="46.2322110543403" lon="11.067606330697012"><ele>276.6</ele><time>2026-04-17T12:05:53Z</time></trkpt><trkpt lat="46.232145640452316" lon="11.06770579374956"><ele>275.20000000000005</ele><time>2026-04-17T12:05:54Z</time></trkpt><trkpt lat="46.232077354074896" lon="11.067792550973099"><ele>273.8</ele><time>2026-04-17T12:05:55Z</time></trkpt><trkpt lat="46.23199609537062" lon="11.06787640729974"><ele>272.40000000000003</ele><time>2026-04-17T12:05:56Z</time></trkpt><trkpt lat="46.23190388101813" lon="11.067974674340842"><ele>271.0</ele><time>2026-04-17T12:05:57Z</time></trkpt><trkpt lat="46.23180117088024" lon="11.068085209894477"><ele>271.0</ele><time>2026-04-17T12:05:58Z</time></trkpt><trkpt lat="46.231688977194345" lon="11.06820346221045"><ele>271.0</ele><time>2026-04-17T12:05:59Z</time></trkpt><trkpt lat="46.23157150813039" lon="11.068309956312312"><ele>271.0</ele><time>2026-04-17T12:06:00Z</time></trkpt><trkpt lat="46.23142831816836" lon="11.068410073843484"><ele>271.0</ele><time>2026-04-17T12:06:01Z</time></trkpt><trkpt lat="46.23129498300987" lon="11.0684892884956"><ele>280.5</ele><time>2026-04-17T12:06:02Z</time></trkpt><trkpt lat="46.23118873772252" lon="11.068565766950995"><ele>290.0</ele><time>2026-04-17T12:06:03Z</time></trkpt><trkpt lat="46.23108840428653" lon="11.068654360387413"><ele>299.5</ele><time>2026-04-17T12:06:04Z</time></trkpt><trkpt lat="46.23100686770277" lon="11.068763930270787"><ele>309.0</ele><time>2026-04-17T12:06:05Z</time></trkpt><trkpt lat="46.23094531331841" lon="11.068896020060617"><ele>309.0</ele><time>2026-04-17T12:06:06Z</time></trkpt><trkpt lat="46.2308973765883" lon="11.069051355404843"><ele>309.0</ele><time>2026-04-17T12:06:07Z</time></trkpt><trkpt lat="46.230873350798774" lon="11.069222034422822"><ele>309.0</ele><time>2026-04-17T12:06:08Z</time></trkpt><trkpt lat="46.23087426086652" lon="11.069372060543925"><ele>309.0</ele><time>2026-04-17T12:06:09Z</time></trkpt><trkpt lat="46.23087690277752" lon="11.069502836292628"><ele>309.0</ele><time>2026-04-17T12:06:10Z</time></trkpt><trkpt lat="46.23085474614754" lon="11.069633553703778"><ele>307.75</ele><time>2026-04-17T12:06:11Z</time></trkpt><trkpt lat="46.230807975788096" lon="11.069753251751806"><ele>306.5</ele><time>2026-04-17T12:06:12Z</time></trkpt><trkpt lat="46.23073839085476" lon="11.069871794603225"><ele>305.25</ele><time>2026-04-17T12:06:13Z</time></trkpt><trkpt lat="46.23064223458585" lon="11.06999767270886"><ele>304.0</ele><time>2026-04-17T12:06:14Z</time></trkpt><trkpt lat="46.230516641319085" lon="11.070154358422313"><ele>304.0</ele><time>2026-04-17T12:06:15Z</time></trkpt><trkpt lat="46.23039487078628" lon="11.07031635013702"><ele>304.0</ele><time>2026-04-17T12:06:16Z</time></trkpt><trkpt lat="46.230249342920594" lon="11.070519495153604"><ele>304.0</ele><time>2026-04-17T12:06:17Z</time></trkpt><trkpt lat="46.230095748894705" lon="11.070727269599729"><ele>301.3333333333333</ele><time>2026-04-17T12:06:18Z</time></trkpt><trkpt lat="46.22996609209835" lon="11.070897216808618"><ele>298.6666666666667</ele><time>2026-04-17T12:06:19Z</time></trkpt><trkpt lat="46.229861452747016" lon="11.07107650673734"><ele>296.0</ele><time>2026-04-17T12:06:20Z</time></trkpt><trkpt lat="46.22977814842864" lon="11.071288791289684"><ele>296.0</ele><time>2026-04-17T12:06:21Z</time></trkpt><trkpt lat="46.229717377377106" lon="11.071506428668588"><ele>296.0</ele><time>2026-04-17T12:06:22Z</time></trkpt><trkpt lat="46.22965174248007" lon="11.071695206273406"><ele>296.0</ele><time>2026-04-17T12:06:23Z</time></trkpt><trkpt lat="46.229617903399614" lon="11.071893115504269"><ele>294.0</ele><time>2026-04-17T12:06:24Z</time></trkpt><trkpt lat="46.22962120609158" lon="11.072096525818774"><ele>292.0</ele><time>2026-04-17T12:06:25Z</time></trkpt><trkpt lat="46.229637500895144" lon="11.072277135409344"><ele>290.0</ele><time>2026-04-17T12:06:26Z</time></trkpt><trkpt lat="46.229639950575624" lon="11.072433245454585"><ele>288.0</ele><time>2026-04-17T12:06:27Z</time></trkpt><trkpt lat="46.22962100111176" lon="11.0725777287201"><ele>284.5</ele><time>2026-04-17T12:06:28Z</time></trkpt><trkpt lat="46.229572021029725" lon="11.072704013799342"><ele>281.0</ele><time>2026-04-17T12:06:29Z</time></trkpt><trkpt lat="46.229499087975285" lon="11.07281504761003"><ele>277.5</ele><time>2026-04-17T12:06:30Z</time></trkpt><trkpt lat="46.22939207519347" lon="11.072896992251414"><ele>274.0</ele><time>2026-04-17T12:06:31Z</time></trkpt><trkpt lat="46.229251191645645" lon="11.072977654946218"><ele>274.0</ele><time>2026-04-17T12:06:32Z</time></trkpt><trkpt lat="46.22911722814634" lon="11.073077979100441"><ele>274.0</ele><time>2026-04-17T12:06:33Z</time></trkpt><trkpt lat="46.22899042753625" lon="11.073179652368422"><ele>274.0</ele><time>2026-04-17T12:06:34Z</time></trkpt><trkpt lat="46.22885110170358" lon="11.073337118491603"><ele>272.0</ele><time>2026-04-17T12:06:35Z</time></trkpt><trkpt lat="46.22871110674396" lon="11.073511171595054"><ele>270.0</ele><time>2026-04-17T12:06:36Z</time></trkpt><trkpt lat="46.228561622660585" lon="11.073748193531996"><ele>268.0</ele><time>2026-04-17T12:06:37Z</time></trkpt><trkpt lat="46.22842453540807" lon="11.074005906293324"><ele>268.66666666666663</ele><time>2026-04-17T12:06:38Z</time></trkpt><trkpt lat="46.228275210609254" lon="11.074258418496171"><ele>269.3333333333333</ele><time>2026-04-17T12:06:39Z</time></trkpt><trkpt lat="46.22814984159369" lon="11.074501314695878"><ele>270.0</ele><time>2026-04-17T12:06:40Z</time></trkpt><trkpt lat="46.22803903501908" lon="11.07471645847342"><ele>270.0</ele><time>2026-04-17T12:06:41Z</time></trkpt><trkpt lat="46.227939270911556" lon="11.074912595913956"><ele>270.0</ele><time>2026-04-17T12:06:42Z</time></trkpt><trkpt lat="46.227841974022994" lon="11.075105835591108"><ele>270.0</ele><time>2026-04-17T12:06:43Z</time></trkpt><trkpt lat="46.227767197174636" lon="11.075299193561717"><ele>266.0</ele><time>2026-04-17T12:06:44Z</time></trkpt><trkpt lat="46.227681192211435" lon="11.075480170256633"><ele>262.0</ele><time>2026-04-17T12:06:45Z</time></trkpt><trkpt lat="46.2276117809413" lon="11.07569080543298"><ele>258.0</ele><time>2026-04-17T12:06:46Z</time></trkpt><trkpt lat="46.22755350328918" lon="11.075910735881951"><ele>256.25</ele><time>2026-04-17T12:06:47Z</time></trkpt><trkpt lat="46.22751293011139" lon="11.07612374089986"><ele>254.5</ele><time>2026-04-17T12:06:48Z</time></trkpt><trkpt lat="46.227500064515816" lon="11.076324236498417"><ele>252.75</ele><time>2026-04-17T12:06:49Z</time></trkpt><trkpt lat="46.227493160228654" lon="11.076507773120294"><ele>251.0</ele><time>2026-04-17T12:06:50Z</time></trkpt><trkpt lat="46.227483599334676" lon="11.076679360150482"><ele>250.75</ele><time>2026-04-17T12:06:51Z</time></trkpt><trkpt lat="46.227465850641885" lon="11.076845705375952"><ele>250.5</ele><time>2026-04-17T12:06:52Z</time></trkpt><trkpt lat="46.22743029205805" lon="11.07702679486086"><ele>250.25</ele><time>2026-04-17T12:06:53Z</time></trkpt><trkpt lat="46.22736641232397" lon="11.077200306457067"><ele>250.0</ele><time>2026-04-17T12:06:54Z</time></trkpt><trkpt lat="46.227269021489604" lon="11.077368285216316"><ele>246.66666666666666</ele><time>2026-04-17T12:06:55Z</time></trkpt><trkpt lat="46.227136506363074" lon="11.077534560838329"><ele>243.33333333333331</ele><time>2026-04-17T12:06:56Z</time></trkpt><trkpt lat="46.226998505283575" lon="11.077733880337027"><ele>240.0</ele><time>2026-04-17T12:06:57Z</time></trkpt><trkpt lat="46.226849252980344" lon="11.077949450376435"><ele>240.0</ele><time>2026-04-17T12:06:58Z</time></trkpt><trkpt lat="46.22667398214722" lon="11.078202599764639"><ele>240.0</ele><time>2026-04-17T12:06:59Z</time></trkpt><trkpt lat="46.22652014770831" lon="11.078424787935434"><ele>240.0</ele><time>2026-04-17T12:07:00Z</time></trkpt><trkpt lat="46.22636685321295" lon="11.078646196219372"><ele>240.0</ele><time>2026-04-17T12:07:01Z</time></trkpt><trkpt lat="46.226216433803856" lon="11.078863452000597"><ele>240.0</ele><time>2026-04-17T12:07:02Z</time></trkpt><trkpt lat="46.226082054879456" lon="11.079057179658124"><ele>239.66666666666669</ele><time>2026-04-17T12:07:03Z</time></trkpt><trkpt lat="46.225967016992556" lon="11.079250351869032"><ele>239.33333333333334</ele><time>2026-04-17T12:07:04Z</time></trkpt><trkpt lat="46.22585341617981" lon="11.079409302148651"><ele>239.0</ele><time>2026-04-17T12:07:05Z</time></trkpt><trkpt lat="46.22573330306913" lon="11.079542006797626"><ele>243.33333333333334</ele><time>2026-04-17T12:07:06Z</time></trkpt><trkpt lat="46.22561488792224" lon="11.07969216057536"><ele>247.66666666666669</ele><time>2026-04-17T12:07:07Z</time></trkpt><trkpt lat="46.22548820410065" lon="11.079844230325214"><ele>252.0</ele><time>2026-04-17T12:07:08Z</time></trkpt><trkpt lat="46.22536322706868" lon="11.080005410587066"><ele>252.0</ele><time>2026-04-17T12:07:09Z</time></trkpt><trkpt lat="46.22523011216252" lon="11.080140465112041"><ele>252.0</ele><time>2026-04-17T12:07:10Z</time></trkpt><trkpt lat="46.22510568808926" lon="11.080266323899366"><ele>252.0</ele><time>2026-04-17T12:07:11Z</time></trkpt><trkpt lat="46.224984079937876" lon="11.080380902436685"><ele>252.0</ele><time>2026-04-17T12:07:12Z</time></trkpt><trkpt lat="46.22486012751285" lon="11.080493209667514"><ele>252.0</ele><time>2026-04-17T12:07:13Z</time></trkpt><trkpt lat="46.224729605196934" lon="11.08060299320826"><ele>252.0</ele><time>2026-04-17T12:07:14Z</time></trkpt><trkpt lat="46.224591625136256" lon="11.08070644273081"><ele>249.33333333333331</ele><time>2026-04-17T12:07:15Z</time></trkpt><trkpt lat="46.22444739034755" lon="11.080805734340093"><ele>246.66666666666666</ele><time>2026-04-17T12:07:16Z</time></trkpt><trkpt lat="46.224300975450625" lon="11.08089694531252"><ele>244.0</ele><time>2026-04-17T12:07:17Z</time></trkpt><trkpt lat="46.22413929873016" lon="11.080992692995"><ele>251.66666666666666</ele><time>2026-04-17T12:07:18Z</time></trkpt><trkpt lat="46.22397615862659" lon="11.08108099158979"><ele>259.3333333333333</ele><time>2026-04-17T12:07:19Z</time></trkpt><trkpt lat="46.223828944147776" lon="11.08115117870335"><ele>267.0</ele><time>2026-04-17T12:07:20Z</time></trkpt><trkpt lat="46.223680880161034" lon="11.081210989404878"><ele>267.0</ele><time>2026-04-17T12:07:21Z</time></trkpt><trkpt lat="46.223520888922394" lon="11.081268791863847"><ele>267.0</ele><time>2026-04-17T12:07:22Z</time></trkpt><trkpt lat="46.22333754591276" lon="11.081326643152643"><ele>267.0</ele><time>2026-04-17T12:07:23Z</time></trkpt><trkpt lat="46.22313940932211" lon="11.081381278229825"><ele>295.0</ele><time>2026-04-17T12:07:24Z</time></trkpt><trkpt lat="46.222946812430465" lon="11.081416827892385"><ele>323.0</ele><time>2026-04-17T12:07:25Z</time></trkpt><trkpt lat="46.22275122426798" lon="11.08144395688349"><ele>351.0</ele><time>2026-04-17T12:07:26Z</time></trkpt><trkpt lat="46.22255374627863" lon="11.081459439577587"><ele>351.0</ele><time>2026-04-17T12:07:27.015Z</time></trkpt><trkpt lat="46.22236282736533" lon="11.08146724624573"><ele>351.0</ele><time>2026-04-17T12:07:28.015Z</time></trkpt><trkpt lat="46.22217282435151" lon="11.081463133889535"><ele>351.0</ele><time>2026-04-17T12:07:29.016Z</time></trkpt><trkpt lat="46.22198145641296" lon="11.081455924202343"><ele>507.0</ele><time>2026-04-17T12:07:30.016Z</time></trkpt><trkpt lat="46.21931904380886" lon="11.080547015345998"><ele>531.0</ele><time>2026-04-17T12:07:34.848Z</time></trkpt><trkpt lat="46.218601636908296" lon="11.080503426634024"><ele>557.0</ele><time>2026-04-17T12:07:35.847Z</time></trkpt><trkpt lat="46.21788504757711" lon="11.080604965197672"><ele>589.0</ele><time>2026-04-17T12:07:36.848Z</time></trkpt><trkpt lat="46.217172203863385" lon="11.080744303649272"><ele>616.0</ele><time>2026-04-17T12:07:37.848Z</time></trkpt><trkpt lat="46.21645778600817" lon="11.080872073432817"><ele>616.0</ele><time>2026-04-17T12:07:38.848Z</time></trkpt><trkpt lat="46.215743178957176" lon="11.08099492304287"><ele>640.0</ele><time>2026-04-17T12:07:39.848Z</time></trkpt><trkpt lat="46.21503010492598" lon="11.081135139978674"><ele>661.0</ele><time>2026-04-17T12:07:40.848Z</time></trkpt><trkpt lat="46.214319140418716" lon="11.081296470505157"><ele>693.0</ele><time>2026-04-17T12:07:41.848Z</time></trkpt><trkpt lat="46.21360570728543" lon="11.081432497896607"><ele>719.0</ele><time>2026-04-17T12:07:42.848Z</time></trkpt><trkpt lat="46.21289195240151" lon="11.081564860297167"><ele>709.0</ele><time>2026-04-17T12:07:43.848Z</time></trkpt><trkpt lat="46.21217652035795" lon="11.081688770787508"><ele>729.0</ele><time>2026-04-17T12:07:44.85Z</time></trkpt><trkpt lat="46.21146499147332" lon="11.08183467280223"><ele>729.0</ele><time>2026-04-17T12:07:45.848Z</time></trkpt><trkpt lat="46.210753598532165" lon="11.081991555770388"><ele>753.0</ele><time>2026-04-17T12:07:46.848Z</time></trkpt><trkpt lat="46.21004501459443" lon="11.082179194413369"><ele>777.0</ele><time>2026-04-17T12:07:47.849Z</time></trkpt><trkpt lat="46.209342035301866" lon="11.08239585391617"><ele>738.0</ele><time>2026-04-17T12:07:48.848Z</time></trkpt><trkpt lat="46.20864442303818" lon="11.082650465337416"><ele>729.0</ele><time>2026-04-17T12:07:49.848Z</time></trkpt><trkpt lat="46.207951437787244" lon="11.082930006650464"><ele>700.0</ele><time>2026-04-17T12:07:50.848Z</time></trkpt><trkpt lat="46.207265191896646" lon="11.08324248341719"><ele>674.0</ele><time>2026-04-17T12:07:51.848Z</time></trkpt><trkpt lat="46.206587851788804" lon="11.083592742613135"><ele>659.0</ele><time>2026-04-17T12:07:52.848Z</time></trkpt><trkpt lat="46.20591786491702" lon="11.08397127107243"><ele>654.0</ele><time>2026-04-17T12:07:53.848Z</time></trkpt><trkpt lat="46.205255239602344" lon="11.084375811435981"><ele>676.0</ele><time>2026-04-17T12:07:54.848Z</time></trkpt><trkpt lat="46.20460423758275" lon="11.084817452949364"><ele>650.0</ele><time>2026-04-17T12:07:55.848Z</time></trkpt><trkpt lat="46.20396091553258" lon="11.085284284114051"><ele>641.0</ele><time>2026-04-17T12:07:56.849Z</time></trkpt><trkpt lat="46.203329193057435" lon="11.085779715269638"><ele>652.0</ele><time>2026-04-17T12:07:57.849Z</time></trkpt><trkpt lat="46.20270565508281" lon="11.086296554676405"><ele>687.0</ele><time>2026-04-17T12:07:58.848Z</time></trkpt><trkpt lat="46.20209208899961" lon="11.086838571691409"><ele>703.0</ele><time>2026-04-17T12:07:59.849Z</time></trkpt><trkpt lat="46.20147976247406" lon="11.08738512148166"><ele>747.0</ele><time>2026-04-17T12:08:00.849Z</time></trkpt><trkpt lat="46.200871196585524" lon="11.087936110898532"><ele>810.0</ele><time>2026-04-17T12:08:01.848Z</time></trkpt><trkpt lat="46.20026060567796" lon="11.08848685148865"><ele>823.0</ele><time>2026-04-17T12:08:02.849Z</time></trkpt><trkpt lat="46.19965103322713" lon="11.089034678654372"><ele>841.0</ele><time>2026-04-17T12:08:03.848Z</time></trkpt><trkpt lat="46.199040650058166" lon="11.089585051548186"><ele>835.0</ele><time>2026-04-17T12:08:04.848Z</time></trkpt><trkpt lat="46.198432670191025" lon="11.090139717020142"><ele>841.0</ele><time>2026-04-17T12:08:05.848Z</time></trkpt><trkpt lat="46.19782273461239" lon="11.090689841834724"><ele>833.0</ele><time>2026-04-17T12:08:06.848Z</time></trkpt><trkpt lat="46.19721338759509" lon="11.091242978989406"><ele>802.0</ele><time>2026-04-17T12:08:07.849Z</time></trkpt><trkpt lat="46.196606602221735" lon="11.091798629678346"><ele>837.0</ele><time>2026-04-17T12:08:08.848Z</time></trkpt><trkpt lat="46.196004136922824" lon="11.092365850315309"><ele>783.0</ele><time>2026-04-17T12:08:09.848Z</time></trkpt><trkpt lat="46.195399392851584" lon="11.092927659035178"><ele>728.0</ele><time>2026-04-17T12:08:10.848Z</time></trkpt><trkpt lat="46.1948324112841" lon="11.093563018961525"><ele>728.0</ele><time>2026-04-17T12:08:11.847Z</time></trkpt><trkpt lat="46.194276315019025" lon="11.094222324948884"><ele>728.0</ele><time>2026-04-17T12:08:12.848Z</time></trkpt><trkpt lat="46.193685972596114" lon="11.094814682946682"><ele>728.0</ele><time>2026-04-17T12:08:13.848Z</time></trkpt><trkpt lat="46.19313900017577" lon="11.095265846093584"><ele>728.0</ele><time>2026-04-17T12:08:14.849Z</time></trkpt><trkpt lat="46.19259501872621" lon="11.095720873685526"><ele>728.0</ele><time>2026-04-17T12:08:15.849Z</time></trkpt><trkpt lat="46.19343574308733" lon="11.095306795112021"><ele>728.0</ele><time>2026-04-17T12:08:18.848Z</time></trkpt><trkpt lat="46.19408291664607" lon="11.094854095933174"><ele>728.0</ele><time>2026-04-17T12:08:19.848Z</time></trkpt><trkpt lat="46.1946969968823" lon="11.094312752106175"><ele>732.0</ele><time>2026-04-17T12:08:20.849Z</time></trkpt><trkpt lat="46.195307447576816" lon="11.093764829963735"><ele>793.0</ele><time>2026-04-17T12:08:21.848Z</time></trkpt><trkpt lat="46.19591747174617" lon="11.093214897971295"><ele>772.0</ele><time>2026-04-17T12:08:22.848Z</time></trkpt><trkpt lat="46.19652781366335" lon="11.092665007681425"><ele>802.0</ele><time>2026-04-17T12:08:23.849Z</time></trkpt><trkpt lat="46.197139666538355" lon="11.092119379796689"><ele>809.0</ele><time>2026-04-17T12:08:24.849Z</time></trkpt><trkpt lat="46.19775547170402" lon="11.091585135709696"><ele>799.0</ele><time>2026-04-17T12:08:25.848Z</time></trkpt><trkpt lat="46.19836052537439" lon="11.091024014217156"><ele>835.0</ele><time>2026-04-17T12:08:26.848Z</time></trkpt><trkpt lat="46.1989671596228" lon="11.090466344224662"><ele>841.0</ele><time>2026-04-17T12:08:27.848Z</time></trkpt><trkpt lat="46.1995730825413" lon="11.08990710642208"><ele>824.0</ele><time>2026-04-17T12:08:28.848Z</time></trkpt><trkpt lat="46.2001797875152" lon="11.08934958454424"><ele>787.0</ele><time>2026-04-17T12:08:29.848Z</time></trkpt><trkpt lat="46.200787215667624" lon="11.08879139811301"><ele>747.0</ele><time>2026-04-17T12:08:30.849Z</time></trkpt><trkpt lat="46.20139440675259" lon="11.088237154055822"><ele>732.0</ele><time>2026-04-17T12:08:31.848Z</time></trkpt><trkpt lat="46.20201024719152" lon="11.08770097660269"><ele>674.0</ele><time>2026-04-17T12:08:32.848Z</time></trkpt><trkpt lat="46.20263229432799" lon="11.087179834631876"><ele>671.0</ele><time>2026-04-17T12:08:33.848Z</time></trkpt><trkpt lat="46.20324520078113" lon="11.086636720079227"><ele>641.0</ele><time>2026-04-17T12:08:34.848Z</time></trkpt><trkpt lat="46.20386371646068" lon="11.086106796898402"><ele>638.0</ele><time>2026-04-17T12:08:35.848Z</time></trkpt><trkpt lat="46.20449360189662" lon="11.08560547645349"><ele>618.0</ele><time>2026-04-17T12:08:36.848Z</time></trkpt><trkpt lat="46.20513299499506" lon="11.085129819907003"><ele>629.0</ele><time>2026-04-17T12:08:37.848Z</time></trkpt><trkpt lat="46.20578702037191" lon="11.08469724005167"><ele>629.0</ele><time>2026-04-17T12:08:38.848Z</time></trkpt><trkpt lat="46.20644584347893" lon="11.084282521837151"><ele>674.0</ele><time>2026-04-17T12:08:39.847Z</time></trkpt><trkpt lat="46.20711853457254" lon="11.083911466460043"><ele>698.0</ele><time>2026-04-17T12:08:40.848Z</time></trkpt><trkpt lat="46.20779797481903" lon="11.08356963927723"><ele>738.0</ele><time>2026-04-17T12:08:41.848Z</time></trkpt><trkpt lat="46.20848345101245" lon="11.083252661521524"><ele>738.0</ele><time>2026-04-17T12:08:42.848Z</time></trkpt><trkpt lat="46.20917580667131" lon="11.082968108195752"><ele>715.0</ele><time>2026-04-17T12:08:43.849Z</time></trkpt><trkpt lat="46.20987362566296" lon="11.082718090817743"><ele>715.0</ele><time>2026-04-17T12:08:44.848Z</time></trkpt><trkpt lat="46.21057721629877" lon="11.082500067477474"><ele>729.0</ele><time>2026-04-17T12:08:45.848Z</time></trkpt><trkpt lat="46.21128493118277" lon="11.082311874869065"><ele>709.0</ele><time>2026-04-17T12:08:46.848Z</time></trkpt><trkpt lat="46.21199626557275" lon="11.082154051768299"><ele>700.0</ele><time>2026-04-17T12:08:47.848Z</time></trkpt><trkpt lat="46.21270916133321" lon="11.082012144395236"><ele>678.0</ele><time>2026-04-17T12:08:48.848Z</time></trkpt><trkpt lat="46.21342239357485" lon="11.081873388045846"><ele>656.0</ele><time>2026-04-17T12:08:49.848Z</time></trkpt><trkpt lat="46.21413577291193" lon="11.081736280507934"><ele>640.0</ele><time>2026-04-17T12:08:50.848Z</time></trkpt><trkpt lat="46.214849024169794" lon="11.081597368869609"><ele>640.0</ele><time>2026-04-17T12:08:51.848Z</time></trkpt><trkpt lat="46.21556201483988" lon="11.08145625546039"><ele>616.0</ele><time>2026-04-17T12:08:52.848Z</time></trkpt><trkpt lat="46.21627579490637" lon="11.081331780303719"><ele>589.0</ele><time>2026-04-17T12:08:53.847Z</time></trkpt><trkpt lat="46.21698901832891" lon="11.081185825322091"><ele>564.0</ele><time>2026-04-17T12:08:54.848Z</time></trkpt><trkpt lat="46.2177024307838" lon="11.081039424633392"><ele>533.0</ele><time>2026-04-17T12:08:55.849Z</time></trkpt><trkpt lat="46.21841698532177" lon="11.080929515872835"><ele>507.0</ele><time>2026-04-17T12:08:56.848Z</time></trkpt><trkpt lat="46.2191356840908" lon="11.08095693461044"><ele>475.0</ele><time>2026-04-17T12:08:57.848Z</time></trkpt><trkpt lat="46.219841187978375" lon="11.081156495904112"><ele>475.0</ele><time>2026-04-17T12:08:58.848Z</time></trkpt><trkpt lat="46.220532419805544" lon="11.081445158432002"><ele>444.0</ele><time>2026-04-17T12:08:59.848Z</time></trkpt><trkpt lat="46.221148707621005" lon="11.081628005263408"><ele>398.0</ele><time>2026-04-17T12:09:00.848Z</time></trkpt><trkpt lat="46.22177583339218" lon="11.081704580904532"><ele>326.0</ele><time>2026-04-17T12:09:01.848Z</time></trkpt><trkpt lat="46.222405046845005" lon="11.081679787203166"><ele>351.0</ele><time>2026-04-17T12:09:02.848Z</time></trkpt><trkpt lat="46.22302857654714" lon="11.081560674721329"><ele>419.0</ele><time>2026-04-17T12:09:03.848Z</time></trkpt><trkpt lat="46.22209240531243" lon="11.081441686229084"><ele>449.0</ele><time>2026-04-17T12:09:06.848Z</time></trkpt><trkpt lat="46.22137709844781" lon="11.081324081708987"><ele>449.0</ele><time>2026-04-17T12:09:07.849Z</time></trkpt><trkpt lat="46.22068203153403" lon="11.08106098283971"><ele>475.0</ele><time>2026-04-17T12:09:08.848Z</time></trkpt><trkpt lat="46.21999724385627" lon="11.080742774596011"><ele>507.0</ele><time>2026-04-17T12:09:09.848Z</time></trkpt><trkpt lat="46.219291957276674" lon="11.080542202238199"><ele>531.0</ele><time>2026-04-17T12:09:10.848Z</time></trkpt><trkpt lat="46.21857366505943" lon="11.080504957999077"><ele>557.0</ele><time>2026-04-17T12:09:11.848Z</time></trkpt><trkpt lat="46.217857989114385" lon="11.080610039376937"><ele>589.0</ele><time>2026-04-17T12:09:12.848Z</time></trkpt><trkpt lat="46.217144836424154" lon="11.080749348011125"><ele>616.0</ele><time>2026-04-17T12:09:13.848Z</time></trkpt><trkpt lat="46.21643061685615" lon="11.080875639217703"><ele>616.0</ele><time>2026-04-17T12:09:14.848Z</time></trkpt><trkpt lat="46.21571571720138" lon="11.081000323047752"><ele>640.0</ele><time>2026-04-17T12:09:15.849Z</time></trkpt><trkpt lat="46.21500306387531" lon="11.081140457257245"><ele>661.0</ele><time>2026-04-17T12:09:16.848Z</time></trkpt><trkpt lat="46.21429218279265" lon="11.081301583736469"><ele>693.0</ele><time>2026-04-17T12:09:17.848Z</time></trkpt><trkpt lat="46.21357871761874" lon="11.08143781259969"><ele>719.0</ele><time>2026-04-17T12:09:18.848Z</time></trkpt><trkpt lat="46.21286484702148" lon="11.081569384715687"><ele>208.0</ele><time>2026-04-17T12:09:19.848Z</time></trkpt><trkpt lat="46.19172982294196" lon="11.09682464337319"><ele>208.0</ele><time>2026-04-17T12:09:20.999Z</time></trkpt><trkpt lat="46.19158696077503" lon="11.09701121208001"><ele>208.0</ele><time>2026-04-17T12:09:21.999Z</time></trkpt><trkpt lat="46.19146903601343" lon="11.09721935300564"><ele>208.0</ele><time>2026-04-17T12:09:22.999Z</time></trkpt><trkpt lat="46.19135783030784" lon="11.097468703693274"><ele>208.0</ele><time>2026-04-17T12:09:23.999Z</time></trkpt><trkpt lat="46.191266371350956" lon="11.09773007494472"><ele>208.0</ele><time>2026-04-17T12:09:24.999Z</time></trkpt><trkpt lat="46.19119969508118" lon="11.097990241754985"><ele>208.0</ele><time>2026-04-17T12:09:26Z</time></trkpt><trkpt lat="46.19115621680439" lon="11.098259456880053"><ele>208.0</ele><time>2026-04-17T12:09:27Z</time></trkpt><trkpt lat="46.19113001039756" lon="11.098539452433732"><ele>208.0</ele><time>2026-04-17T12:09:28Z</time></trkpt><trkpt lat="46.1911226471848" lon="11.098840780338561"><ele>208.0</ele><time>2026-04-17T12:09:29Z</time></trkpt><trkpt lat="46.191131918163414" lon="11.099140549302588"><ele>208.33333333333331</ele><time>2026-04-17T12:09:30Z</time></trkpt><trkpt lat="46.19114536084027" lon="11.09940620801579"><ele>208.66666666666669</ele><time>2026-04-17T12:09:31Z</time></trkpt><trkpt lat="46.19114818390203" lon="11.09965061494403"><ele>209.0</ele><time>2026-04-17T12:09:32Z</time></trkpt><trkpt lat="46.19113580032748" lon="11.099907540093588"><ele>209.0</ele><time>2026-04-17T12:09:33Z</time></trkpt><trkpt lat="46.19111117213443" lon="11.100171510436734"><ele>209.0</ele><time>2026-04-17T12:09:34Z</time></trkpt><trkpt lat="46.19106005478337" lon="11.100438887433315"><ele>209.0</ele><time>2026-04-17T12:09:35Z</time></trkpt><trkpt lat="46.190990425732544" lon="11.100697304460097"><ele>209.33333333333334</ele><time>2026-04-17T12:09:36Z</time></trkpt><trkpt lat="46.190907143696904" lon="11.100935819066244"><ele>209.66666666666669</ele><time>2026-04-17T12:09:37Z</time></trkpt><trkpt lat="46.190813321669985" lon="11.101146597629025"><ele>210.0</ele><time>2026-04-17T12:09:38Z</time></trkpt><trkpt lat="46.19070142613915" lon="11.10134094424457"><ele>209.0</ele><time>2026-04-17T12:09:39Z</time></trkpt><trkpt lat="46.19056546756796" lon="11.101539116925272"><ele>208.0</ele><time>2026-04-17T12:09:40Z</time></trkpt><trkpt lat="46.190407719829935" lon="11.10171718945792"><ele>207.0</ele><time>2026-04-17T12:09:41Z</time></trkpt><trkpt lat="46.19024295893052" lon="11.101869455112414"><ele>206.66666666666669</ele><time>2026-04-17T12:09:42Z</time></trkpt><trkpt lat="46.19008094470216" lon="11.1019868687388"><ele>206.33333333333334</ele><time>2026-04-17T12:09:43Z</time></trkpt><trkpt lat="46.18991055910573" lon="11.102077875181585"><ele>206.0</ele><time>2026-04-17T12:09:44Z</time></trkpt><trkpt lat="46.18972552469287" lon="11.102147488465386"><ele>207.33333333333334</ele><time>2026-04-17T12:09:45Z</time></trkpt><trkpt lat="46.189540966511686" lon="11.102181175463178"><ele>208.66666666666669</ele><time>2026-04-17T12:09:46Z</time></trkpt><trkpt lat="46.1893608463531" lon="11.102189352056566"><ele>210.0</ele><time>2026-04-17T12:09:47Z</time></trkpt><trkpt lat="46.18917952310728" lon="11.102171611807107"><ele>210.0</ele><time>2026-04-17T12:09:48Z</time></trkpt><trkpt lat="46.18899506510422" lon="11.102131080025266"><ele>210.0</ele><time>2026-04-17T12:09:49Z</time></trkpt><trkpt lat="46.18882265067573" lon="11.102063287834127"><ele>210.0</ele><time>2026-04-17T12:09:50Z</time></trkpt><trkpt lat="46.18865923614368" lon="11.10197140171318"><ele>210.0</ele><time>2026-04-17T12:09:51Z</time></trkpt><trkpt lat="46.18849004210929" lon="11.101849668514294"><ele>210.0</ele><time>2026-04-17T12:09:52Z</time></trkpt><trkpt lat="46.188323757979326" lon="11.101695661073162"><ele>210.0</ele><time>2026-04-17T12:09:53Z</time></trkpt><trkpt lat="46.18816365871421" lon="11.10151009515406"><ele>209.33333333333331</ele><time>2026-04-17T12:09:54Z</time></trkpt><trkpt lat="46.18801004720886" lon="11.101299499178506"><ele>208.66666666666666</ele><time>2026-04-17T12:09:55Z</time></trkpt><trkpt lat="46.18785813264048" lon="11.101054851727381"><ele>208.0</ele><time>2026-04-17T12:09:56Z</time></trkpt><trkpt lat="46.18769202127299" lon="11.100784362500438"><ele>206.0</ele><time>2026-04-17T12:09:57Z</time></trkpt><trkpt lat="46.187535572592815" lon="11.100528884948208"><ele>204.0</ele><time>2026-04-17T12:09:58Z</time></trkpt><trkpt lat="46.18737307067407" lon="11.100279363892641"><ele>204.0</ele><time>2026-04-17T12:09:59Z</time></trkpt><trkpt lat="46.1871946076073" lon="11.100028233488883"><ele>204.0</ele><time>2026-04-17T12:10:00Z</time></trkpt><trkpt lat="46.187006914191514" lon="11.099789881362675"><ele>203.5</ele><time>2026-04-17T12:10:01Z</time></trkpt><trkpt lat="46.18682572240936" lon="11.099578043038184"><ele>203.0</ele><time>2026-04-17T12:10:02Z</time></trkpt><trkpt lat="46.186634944499154" lon="11.099382982259806"><ele>203.5</ele><time>2026-04-17T12:10:03Z</time></trkpt><trkpt lat="46.18643524805183" lon="11.09920529416256"><ele>204.0</ele><time>2026-04-17T12:10:04Z</time></trkpt><trkpt lat="46.18624516312146" lon="11.099057510181144"><ele>204.0</ele><time>2026-04-17T12:10:05Z</time></trkpt><trkpt lat="46.186059303076334" lon="11.098924466904158"><ele>204.0</ele><time>2026-04-17T12:10:06Z</time></trkpt><trkpt lat="46.18587308649998" lon="11.098809432741813"><ele>204.0</ele><time>2026-04-17T12:10:07Z</time></trkpt><trkpt lat="46.185690778893544" lon="11.098698044346701"><ele>204.66666666666669</ele><time>2026-04-17T12:10:08Z</time></trkpt><trkpt lat="46.1855020440044" lon="11.098577595129605"><ele>205.33333333333334</ele><time>2026-04-17T12:10:09Z</time></trkpt><trkpt lat="46.185293666981224" lon="11.09842545843696"><ele>206.0</ele><time>2026-04-17T12:10:10Z</time></trkpt><trkpt lat="46.18507179530343" lon="11.098280828229734"><ele>205.66666666666669</ele><time>2026-04-17T12:10:11Z</time></trkpt><trkpt lat="46.18487051603272" lon="11.098147149894073"><ele>205.33333333333331</ele><time>2026-04-17T12:10:12Z</time></trkpt><trkpt lat="46.18467475256686" lon="11.098017134836152"><ele>205.0</ele><time>2026-04-17T12:10:13Z</time></trkpt><trkpt lat="46.18447264630215" lon="11.097886761420881"><ele>205.0</ele><time>2026-04-17T12:10:14Z</time></trkpt><trkpt lat="46.18427987105486" lon="11.097763319933986"><ele>205.0</ele><time>2026-04-17T12:10:15Z</time></trkpt><trkpt lat="46.184095659361" lon="11.097644031477829"><ele>205.0</ele><time>2026-04-17T12:10:16Z</time></trkpt><trkpt lat="46.18390918094681" lon="11.097523240005303"><ele>204.66666666666666</ele><time>2026-04-17T12:10:17Z</time></trkpt><trkpt lat="46.18372659545542" lon="11.09740497017445"><ele>204.33333333333331</ele><time>2026-04-17T12:10:18Z</time></trkpt><trkpt lat="46.18355594207281" lon="11.09729317178393"><ele>204.0</ele><time>2026-04-17T12:10:19Z</time></trkpt><trkpt lat="46.18339486143112" lon="11.097186344744756"><ele>204.0</ele><time>2026-04-17T12:10:20Z</time></trkpt><trkpt lat="46.18321175186487" lon="11.09706728009335"><ele>204.0</ele><time>2026-04-17T12:10:21Z</time></trkpt><trkpt lat="46.18302157882784" lon="11.096944671211068"><ele>204.0</ele><time>2026-04-17T12:10:22Z</time></trkpt><trkpt lat="46.1828356562921" lon="11.09682480272967"><ele>204.0</ele><time>2026-04-17T12:10:23Z</time></trkpt><trkpt lat="46.18265963989236" lon="11.096711320960507"><ele>204.0</ele><time>2026-04-17T12:10:24Z</time></trkpt><trkpt lat="46.182484529554365" lon="11.096598336923023"><ele>204.0</ele><time>2026-04-17T12:10:25Z</time></trkpt><trkpt lat="46.182305365967444" lon="11.09648192223741"><ele>203.66666666666669</ele><time>2026-04-17T12:10:26Z</time></trkpt><trkpt lat="46.18212398042901" lon="11.09636406182464"><ele>203.33333333333334</ele><time>2026-04-17T12:10:27Z</time></trkpt><trkpt lat="46.181943461583764" lon="11.096246764574097"><ele>203.0</ele><time>2026-04-17T12:10:28Z</time></trkpt><trkpt lat="46.18176220481694" lon="11.096129206556334"><ele>203.0</ele><time>2026-04-17T12:10:29Z</time></trkpt><trkpt lat="46.18157098804572" lon="11.096005627980281"><ele>203.0</ele><time>2026-04-17T12:10:30Z</time></trkpt><trkpt lat="46.18136170138255" lon="11.095868823490482"><ele>203.0</ele><time>2026-04-17T12:10:31Z</time></trkpt><trkpt lat="46.181135721876046" lon="11.095720725443764"><ele>203.0</ele><time>2026-04-17T12:10:32Z</time></trkpt><trkpt lat="46.18088095141246" lon="11.095556883469627"><ele>203.0</ele><time>2026-04-17T12:10:33Z</time></trkpt><trkpt lat="46.18060918277937" lon="11.095382477292073"><ele>202.0</ele><time>2026-04-17T12:10:34Z</time></trkpt><trkpt lat="46.18032372576146" lon="11.095197595006262"><ele>201.0</ele><time>2026-04-17T12:10:35Z</time></trkpt><trkpt lat="46.180025466583764" lon="11.095003222319521"><ele>200.5</ele><time>2026-04-17T12:10:36Z</time></trkpt><trkpt lat="46.17975279236409" lon="11.09482552317867"><ele>200.0</ele><time>2026-04-17T12:10:37Z</time></trkpt><trkpt lat="46.179494461328204" lon="11.094657171478586"><ele>200.0</ele><time>2026-04-17T12:10:38Z</time></trkpt><trkpt lat="46.17921653704349" lon="11.09447876296209"><ele>200.0</ele><time>2026-04-17T12:10:39Z</time></trkpt><trkpt lat="46.17891305909632" lon="11.094326147345974"><ele>199.5</ele><time>2026-04-17T12:10:40Z</time></trkpt><trkpt lat="46.17862749180344" lon="11.094133573945307"><ele>199.0</ele><time>2026-04-17T12:10:41Z</time></trkpt><trkpt lat="46.17836431877603" lon="11.093959954958253"><ele>198.0</ele><time>2026-04-17T12:10:42Z</time></trkpt><trkpt lat="46.17809855167481" lon="11.093781371601771"><ele>197.0</ele><time>2026-04-17T12:10:43Z</time></trkpt><trkpt lat="46.177823486923685" lon="11.093600650126655"><ele>197.0</ele><time>2026-04-17T12:10:44Z</time></trkpt><trkpt lat="46.177537790940946" lon="11.093416078272243"><ele>197.0</ele><time>2026-04-17T12:10:45Z</time></trkpt><trkpt lat="46.177247842211585" lon="11.093227560826598"><ele>198.5</ele><time>2026-04-17T12:10:46Z</time></trkpt><trkpt lat="46.17695449548488" lon="11.09303794461658"><ele>200.0</ele><time>2026-04-17T12:10:47Z</time></trkpt><trkpt lat="46.17665801513116" lon="11.092847507756197"><ele>199.5</ele><time>2026-04-17T12:10:48Z</time></trkpt><trkpt lat="46.176358191511184" lon="11.092654763157931"><ele>199.0</ele><time>2026-04-17T12:10:49Z</time></trkpt><trkpt lat="46.17604947614437" lon="11.092456644559114"><ele>199.5</ele><time>2026-04-17T12:10:50Z</time></trkpt><trkpt lat="46.17573517944994" lon="11.092250481000482"><ele>200.0</ele><time>2026-04-17T12:10:51Z</time></trkpt><trkpt lat="46.17541702269445" lon="11.092036759547264"><ele>200.0</ele><time>2026-04-17T12:10:52Z</time></trkpt><trkpt lat="46.17509742094161" lon="11.091817609360907"><ele>200.0</ele><time>2026-04-17T12:10:53Z</time></trkpt><trkpt lat="46.17479686295055" lon="11.09160774582093"><ele>201.0</ele><time>2026-04-17T12:10:54Z</time></trkpt><trkpt lat="46.17451788694979" lon="11.091408021323053"><ele>202.0</ele><time>2026-04-17T12:10:55Z</time></trkpt><trkpt lat="46.174238623521724" lon="11.091198407618004"><ele>202.0</ele><time>2026-04-17T12:10:56Z</time></trkpt><trkpt lat="46.17394857543118" lon="11.090979200221174"><ele>202.0</ele><time>2026-04-17T12:10:57Z</time></trkpt><trkpt lat="46.17365165199767" lon="11.090747241271824"><ele>202.0</ele><time>2026-04-17T12:10:58Z</time></trkpt><trkpt lat="46.17334840870032" lon="11.090506470727362"><ele>202.0</ele><time>2026-04-17T12:10:59Z</time></trkpt><trkpt lat="46.17304188662057" lon="11.090254522321427"><ele>202.0</ele><time>2026-04-17T12:11:00Z</time></trkpt><trkpt lat="46.1727338202812" lon="11.089991698766195"><ele>202.0</ele><time>2026-04-17T12:11:01Z</time></trkpt><trkpt lat="46.17242867706405" lon="11.089717468577758"><ele>200.5</ele><time>2026-04-17T12:11:02Z</time></trkpt><trkpt lat="46.17211960561485" lon="11.089433397943516"><ele>199.0</ele><time>2026-04-17T12:11:03Z</time></trkpt><trkpt lat="46.17181162229684" lon="11.089139758135664"><ele>200.5</ele><time>2026-04-17T12:11:04Z</time></trkpt><trkpt lat="46.17150359185696" lon="11.088838634718956"><ele>202.0</ele><time>2026-04-17T12:11:05Z</time></trkpt><trkpt lat="46.171215885575776" lon="11.088544886809876"><ele>202.0</ele><time>2026-04-17T12:11:06Z</time></trkpt><trkpt lat="46.17094107811976" lon="11.088261666928634"><ele>202.0</ele><time>2026-04-17T12:11:07Z</time></trkpt><trkpt lat="46.17065319344232" lon="11.087962101281125"><ele>202.5</ele><time>2026-04-17T12:11:08Z</time></trkpt><trkpt lat="46.17036239243369" lon="11.08765051615242"><ele>203.0</ele><time>2026-04-17T12:11:09Z</time></trkpt><trkpt lat="46.17006899958535" lon="11.087336153589824"><ele>201.5</ele><time>2026-04-17T12:11:10Z</time></trkpt><trkpt lat="46.16977509724083" lon="11.087020203138287"><ele>200.0</ele><time>2026-04-17T12:11:11Z</time></trkpt><trkpt lat="46.16949805649494" lon="11.086720090197165"><ele>200.0</ele><time>2026-04-17T12:11:12Z</time></trkpt><trkpt lat="46.16924182190633" lon="11.086445347015342"><ele>200.0</ele><time>2026-04-17T12:11:13Z</time></trkpt><trkpt lat="46.16899770995461" lon="11.086183300923087"><ele>200.0</ele><time>2026-04-17T12:11:14Z</time></trkpt><trkpt lat="46.16876680505436" lon="11.085934065723956"><ele>200.0</ele><time>2026-04-17T12:11:15Z</time></trkpt><trkpt lat="46.168548505015586" lon="11.085695354807873"><ele>199.5</ele><time>2026-04-17T12:11:16Z</time></trkpt><trkpt lat="46.16833289876649" lon="11.085459267352096"><ele>199.0</ele><time>2026-04-17T12:11:17Z</time></trkpt><trkpt lat="46.16811329018573" lon="11.08522130221089"><ele>200.0</ele><time>2026-04-17T12:11:18Z</time></trkpt><trkpt lat="46.16788958732225" lon="11.084976623262362"><ele>201.0</ele><time>2026-04-17T12:11:19Z</time></trkpt><trkpt lat="46.16765071925776" lon="11.084729554925053"><ele>201.0</ele><time>2026-04-17T12:11:20Z</time></trkpt><trkpt lat="46.16743298189513" lon="11.084498267570646"><ele>201.0</ele><time>2026-04-17T12:11:21Z</time></trkpt><trkpt lat="46.16722688286597" lon="11.084271818823424"><ele>199.0</ele><time>2026-04-17T12:11:22Z</time></trkpt><trkpt lat="46.16704562907493" lon="11.084026725613082"><ele>197.0</ele><time>2026-04-17T12:11:23Z</time></trkpt><trkpt lat="46.16685368725798" lon="11.083817291998562"><ele>197.0</ele><time>2026-04-17T12:11:24Z</time></trkpt><trkpt lat="46.166664654487505" lon="11.083612968333835"><ele>197.0</ele><time>2026-04-17T12:11:25Z</time></trkpt><trkpt lat="46.16649085474055" lon="11.083425109923434"><ele>197.66666666666669</ele><time>2026-04-17T12:11:26Z</time></trkpt><trkpt lat="46.166319366252495" lon="11.08323974971545"><ele>198.33333333333331</ele><time>2026-04-17T12:11:27Z</time></trkpt><trkpt lat="46.16614454089381" lon="11.08305132973569"><ele>199.0</ele><time>2026-04-17T12:11:28Z</time></trkpt><trkpt lat="46.165970325275126" lon="11.0828643963837"><ele>199.0</ele><time>2026-04-17T12:11:29Z</time></trkpt><trkpt lat="46.16579244375136" lon="11.082678061540364"><ele>199.0</ele><time>2026-04-17T12:11:30Z</time></trkpt><trkpt lat="46.16559998781525" lon="11.082483323301581"><ele>199.0</ele><time>2026-04-17T12:11:31Z</time></trkpt><trkpt lat="46.165381020901734" lon="11.08226617599925"><ele>199.0</ele><time>2026-04-17T12:11:32Z</time></trkpt><trkpt lat="46.165138279230355" lon="11.082046631739868"><ele>199.0</ele><time>2026-04-17T12:11:33Z</time></trkpt><trkpt lat="46.164893717558414" lon="11.08183823012916"><ele>199.0</ele><time>2026-04-17T12:11:34Z</time></trkpt><trkpt lat="46.16466001552784" lon="11.08165996779482"><ele>199.0</ele><time>2026-04-17T12:11:35Z</time></trkpt><trkpt lat="46.16441103215206" lon="11.081487197166139"><ele>199.0</ele><time>2026-04-17T12:11:36Z</time></trkpt><trkpt lat="46.16414145953203" lon="11.081313757396549"><ele>200.0</ele><time>2026-04-17T12:11:37Z</time></trkpt><trkpt lat="46.16387690543039" lon="11.081162052104721"><ele>201.0</ele><time>2026-04-17T12:11:38Z</time></trkpt><trkpt lat="46.16360948452195" lon="11.081015757556186"><ele>201.0</ele><time>2026-04-17T12:11:39Z</time></trkpt><trkpt lat="46.16334499320789" lon="11.08087484854674"><ele>201.0</ele><time>2026-04-17T12:11:40Z</time></trkpt><trkpt lat="46.16308688925842" lon="11.08074666106467"><ele>199.5</ele><time>2026-04-17T12:11:41Z</time></trkpt><trkpt lat="46.16282281562947" lon="11.080642458767427"><ele>198.0</ele><time>2026-04-17T12:11:42Z</time></trkpt><trkpt lat="46.16256611401917" lon="11.08051702292374"><ele>198.5</ele><time>2026-04-17T12:11:43Z</time></trkpt><trkpt lat="46.16231528097493" lon="11.080391678291697"><ele>199.0</ele><time>2026-04-17T12:11:44Z</time></trkpt><trkpt lat="46.16206733307193" lon="11.080269018447261"><ele>199.0</ele><time>2026-04-17T12:11:45Z</time></trkpt><trkpt lat="46.161819482636304" lon="11.080144241205543"><ele>199.0</ele><time>2026-04-17T12:11:46Z</time></trkpt><trkpt lat="46.16157143582098" lon="11.080019635118008"><ele>199.5</ele><time>2026-04-17T12:11:47Z</time></trkpt><trkpt lat="46.161337254059816" lon="11.079902738399722"><ele>200.0</ele><time>2026-04-17T12:11:48Z</time></trkpt><trkpt lat="46.16109148816735" lon="11.079787293479344"><ele>200.0</ele><time>2026-04-17T12:11:49Z</time></trkpt><trkpt lat="46.16083198266546" lon="11.079674301390286"><ele>200.0</ele><time>2026-04-17T12:11:50Z</time></trkpt><trkpt lat="46.160575521473476" lon="11.079582708493284"><ele>199.5</ele><time>2026-04-17T12:11:51Z</time></trkpt><trkpt lat="46.16032392195437" lon="11.079512208646229"><ele>199.0</ele><time>2026-04-17T12:11:52Z</time></trkpt><trkpt lat="46.16007360020312" lon="11.079460014747196"><ele>200.0</ele><time>2026-04-17T12:11:53Z</time></trkpt><trkpt lat="46.159828207187225" lon="11.079423179491387"><ele>201.0</ele><time>2026-04-17T12:11:54Z</time></trkpt><trkpt lat="46.15958792274025" lon="11.079396065461252"><ele>201.0</ele><time>2026-04-17T12:11:55Z</time></trkpt><trkpt lat="46.15935045817151" lon="11.079367994293477"><ele>201.0</ele><time>2026-04-17T12:11:56Z</time></trkpt><trkpt lat="46.15912181958333" lon="11.079338959804433"><ele>201.33333333333331</ele><time>2026-04-17T12:11:57Z</time></trkpt><trkpt lat="46.15889809193517" lon="11.079302904125786"><ele>201.66666666666666</ele><time>2026-04-17T12:11:58Z</time></trkpt><trkpt lat="46.158685437176864" lon="11.079262916157713"><ele>202.0</ele><time>2026-04-17T12:11:59Z</time></trkpt><trkpt lat="46.1584860913035" lon="11.079217175834723"><ele>202.0</ele><time>2026-04-17T12:12:00Z</time></trkpt><trkpt lat="46.15830753526557" lon="11.079162381200081"><ele>202.0</ele><time>2026-04-17T12:12:01Z</time></trkpt><trkpt lat="46.15814207755702" lon="11.079099896593934"><ele>202.0</ele><time>2026-04-17T12:12:02Z</time></trkpt><trkpt lat="46.157988439758604" lon="11.079031955461424"><ele>201.0</ele><time>2026-04-17T12:12:03Z</time></trkpt><trkpt lat="46.15784577138021" lon="11.078963502642003"><ele>200.0</ele><time>2026-04-17T12:12:04Z</time></trkpt><trkpt lat="46.15771292819447" lon="11.078893768009475"><ele>199.0</ele><time>2026-04-17T12:12:05Z</time></trkpt><trkpt lat="46.157587390755474" lon="11.078820322693078"><ele>198.0</ele><time>2026-04-17T12:12:06Z</time></trkpt><trkpt lat="46.15747556153719" lon="11.078748680187184"><ele>198.0</ele><time>2026-04-17T12:12:07Z</time></trkpt><trkpt lat="46.157372713267996" lon="11.07869408341268"><ele>198.0</ele><time>2026-04-17T12:12:08Z</time></trkpt><trkpt lat="46.157283046360064" lon="11.078656485985753"><ele>198.0</ele><time>2026-04-17T12:12:09Z</time></trkpt><trkpt lat="46.15720489005415" lon="11.078619606342455"><ele>198.0</ele><time>2026-04-17T12:12:10Z</time></trkpt><trkpt lat="46.15710900467817" lon="11.078555455717401"><ele>198.0</ele><time>2026-04-17T12:12:12Z</time></trkpt><trkpt lat="46.15702663828168" lon="11.078434172259678"><ele>198.0</ele><time>2026-04-17T12:12:14Z</time></trkpt><trkpt lat="46.15698292277175" lon="11.078342442731001"><ele>198.0</ele><time>2026-04-17T12:12:15Z</time></trkpt><trkpt lat="46.15693709472324" lon="11.07825629662217"><ele>198.0</ele><time>2026-04-17T12:12:16Z</time></trkpt><trkpt lat="46.1568737152172" lon="11.078176243889104"><ele>198.0</ele><time>2026-04-17T12:12:17Z</time></trkpt><trkpt lat="46.15678213288466" lon="11.07812027241977"><ele>198.0</ele><time>2026-04-17T12:12:18Z</time></trkpt><trkpt lat="46.15668307047225" lon="11.078096109432702"><ele>198.0</ele><time>2026-04-17T12:12:19Z</time></trkpt><trkpt lat="46.156581981352176" lon="11.078080156786369"><ele>198.25</ele><time>2026-04-17T12:12:20Z</time></trkpt><trkpt lat="46.156494591429684" lon="11.078025848467712"><ele>198.5</ele><time>2026-04-17T12:12:21Z</time></trkpt><trkpt lat="46.156404420499115" lon="11.077923426197836"><ele>198.75</ele><time>2026-04-17T12:12:22Z</time></trkpt><trkpt lat="46.15629615925237" lon="11.077793657464788"><ele>199.0</ele><time>2026-04-17T12:12:23Z</time></trkpt><trkpt lat="46.15617024383569" lon="11.077685589480163"><ele>199.0</ele><time>2026-04-17T12:12:24Z</time></trkpt><trkpt lat="46.15600741267047" lon="11.077524987956261"><ele>199.0</ele><time>2026-04-17T12:12:25Z</time></trkpt><trkpt lat="46.155835326982555" lon="11.077352999830872"><ele>199.0</ele><time>2026-04-17T12:12:26Z</time></trkpt><trkpt lat="46.15562937122004" lon="11.07719912586917"><ele>198.66666666666666</ele><time>2026-04-17T12:12:27Z</time></trkpt><trkpt lat="46.155434977773425" lon="11.07709045983378"><ele>198.33333333333331</ele><time>2026-04-17T12:12:28Z</time></trkpt><trkpt lat="46.15525595197674" lon="11.077006516873457"><ele>198.0</ele><time>2026-04-17T12:12:29Z</time></trkpt><trkpt lat="46.15508689258897" lon="11.076937050510239"><ele>198.0</ele><time>2026-04-17T12:12:30Z</time></trkpt><trkpt lat="46.15491708654508" lon="11.076880638304367"><ele>198.0</ele><time>2026-04-17T12:12:31Z</time></trkpt><trkpt lat="46.15473708736337" lon="11.076834730934028"><ele>198.0</ele><time>2026-04-17T12:12:32Z</time></trkpt><trkpt lat="46.154562871486085" lon="11.076806998647527"><ele>198.33333333333331</ele><time>2026-04-17T12:12:33Z</time></trkpt><trkpt lat="46.15438614730441" lon="11.076766341959456"><ele>198.66666666666666</ele><time>2026-04-17T12:12:34Z</time></trkpt><trkpt lat="46.15417192871032" lon="11.07675663793486"><ele>199.0</ele><time>2026-04-17T12:12:35Z</time></trkpt><trkpt lat="46.15392331157519" lon="11.076757643846848"><ele>199.0</ele><time>2026-04-17T12:12:36Z</time></trkpt><trkpt lat="46.15370333513677" lon="11.076789131496023"><ele>199.0</ele><time>2026-04-17T12:12:37Z</time></trkpt><trkpt lat="46.15350356598753" lon="11.07679619515612"><ele>199.0</ele><time>2026-04-17T12:12:38Z</time></trkpt><trkpt lat="46.15330205434635" lon="11.076814026618822"><ele>198.33333333333331</ele><time>2026-04-17T12:12:39Z</time></trkpt><trkpt lat="46.153106921500545" lon="11.07682708408625"><ele>197.66666666666669</ele><time>2026-04-17T12:12:40Z</time></trkpt><trkpt lat="46.15290826133145" lon="11.076840472099777"><ele>197.0</ele><time>2026-04-17T12:12:41Z</time></trkpt><trkpt lat="46.152701047238956" lon="11.076854923216835"><ele>197.0</ele><time>2026-04-17T12:12:42Z</time></trkpt><trkpt lat="46.152503258816715" lon="11.076871902412272"><ele>197.0</ele><time>2026-04-17T12:12:43Z</time></trkpt><trkpt lat="46.152320308120906" lon="11.076882635196153"><ele>197.0</ele><time>2026-04-17T12:12:44Z</time></trkpt><trkpt lat="46.15214166063963" lon="11.076893683536758"><ele>197.0</ele><time>2026-04-17T12:12:45Z</time></trkpt><trkpt lat="46.15195385086007" lon="11.076912106495177"><ele>197.0</ele><time>2026-04-17T12:12:46Z</time></trkpt><trkpt lat="46.151728628598015" lon="11.076903441409733"><ele>197.0</ele><time>2026-04-17T12:12:47Z</time></trkpt><trkpt lat="46.15148031928216" lon="11.07692035704296"><ele>198.0</ele><time>2026-04-17T12:12:48Z</time></trkpt><trkpt lat="46.15121359780601" lon="11.076939976710548"><ele>199.0</ele><time>2026-04-17T12:12:49Z</time></trkpt><trkpt lat="46.150971522086806" lon="11.076977429155095"><ele>199.0</ele><time>2026-04-17T12:12:50Z</time></trkpt><trkpt lat="46.15075526096348" lon="11.076991768810872"><ele>199.0</ele><time>2026-04-17T12:12:51Z</time></trkpt><trkpt lat="46.150558435544326" lon="11.077007773962414"><ele>199.0</ele><time>2026-04-17T12:12:52Z</time></trkpt><trkpt lat="46.15036861436374" lon="11.07702125714433"><ele>199.0</ele><time>2026-04-17T12:12:53Z</time></trkpt><trkpt lat="46.15019190902967" lon="11.077031892739347"><ele>199.0</ele><time>2026-04-17T12:12:54Z</time></trkpt><trkpt lat="46.15001298391226" lon="11.077051126718795"><ele>199.0</ele><time>2026-04-17T12:12:55Z</time></trkpt><trkpt lat="46.14980603584434" lon="11.077088092857915"><ele>198.33333333333331</ele><time>2026-04-17T12:12:56Z</time></trkpt><trkpt lat="46.14958818136412" lon="11.077144921149818"><ele>197.66666666666669</ele><time>2026-04-17T12:12:57Z</time></trkpt><trkpt lat="46.14939599790551" lon="11.077212642484897"><ele>197.0</ele><time>2026-04-17T12:12:58Z</time></trkpt><trkpt lat="46.149210897874255" lon="11.07728435859003"><ele>197.66666666666669</ele><time>2026-04-17T12:12:59Z</time></trkpt><trkpt lat="46.14902195831535" lon="11.077372781218164"><ele>198.33333333333331</ele><time>2026-04-17T12:13:00Z</time></trkpt><trkpt lat="46.148813899403144" lon="11.077500105554625"><ele>199.0</ele><time>2026-04-17T12:13:01Z</time></trkpt><trkpt lat="46.148590835223295" lon="11.077646821126352"><ele>199.5</ele><time>2026-04-17T12:13:02Z</time></trkpt><trkpt lat="46.14837394875125" lon="11.07777946758796"><ele>200.0</ele><time>2026-04-17T12:13:03Z</time></trkpt><trkpt lat="46.14817199738531" lon="11.077911594049967"><ele>199.66666666666669</ele><time>2026-04-17T12:13:04Z</time></trkpt><trkpt lat="46.147971208045405" lon="11.078049299020988"><ele>199.33333333333331</ele><time>2026-04-17T12:13:05Z</time></trkpt><trkpt lat="46.147767152250914" lon="11.07816703897669"><ele>199.0</ele><time>2026-04-17T12:13:06Z</time></trkpt><trkpt lat="46.14757274178138" lon="11.078296619991969"><ele>199.0</ele><time>2026-04-17T12:13:07Z</time></trkpt><trkpt lat="46.14739084340515" lon="11.07843437718477"><ele>199.0</ele><time>2026-04-17T12:13:08Z</time></trkpt><trkpt lat="46.147219507700065" lon="11.07854840121715"><ele>199.0</ele><time>2026-04-17T12:13:09Z</time></trkpt><trkpt lat="46.14706507914969" lon="11.078658508224132"><ele>200.0</ele><time>2026-04-17T12:13:10Z</time></trkpt><trkpt lat="46.14689500062932" lon="11.078751946813927"><ele>201.0</ele><time>2026-04-17T12:13:11Z</time></trkpt><trkpt lat="46.146733953834634" lon="11.07885832476753"><ele>202.0</ele><time>2026-04-17T12:13:12Z</time></trkpt><trkpt lat="46.14660186074808" lon="11.078941873178223"><ele>201.5</ele><time>2026-04-17T12:13:13Z</time></trkpt><trkpt lat="46.14648179481085" lon="11.07901428391195"><ele>201.0</ele><time>2026-04-17T12:13:14Z</time></trkpt><trkpt lat="46.14635339016983" lon="11.07908755104605"><ele>200.5</ele><time>2026-04-17T12:13:15Z</time></trkpt><trkpt lat="46.146220432814694" lon="11.079176801241484"><ele>200.0</ele><time>2026-04-17T12:13:16Z</time></trkpt><trkpt lat="46.14608462773421" lon="11.079236729609931"><ele>199.5</ele><time>2026-04-17T12:13:17Z</time></trkpt><trkpt lat="46.145948604495025" lon="11.079283308499944"><ele>199.0</ele><time>2026-04-17T12:13:18Z</time></trkpt><trkpt lat="46.145805219429356" lon="11.079330898557352"><ele>198.5</ele><time>2026-04-17T12:13:19Z</time></trkpt><trkpt lat="46.145651636259934" lon="11.079378013852999"><ele>198.0</ele><time>2026-04-17T12:13:20Z</time></trkpt><trkpt lat="46.14548807546604" lon="11.079399782309768"><ele>198.0</ele><time>2026-04-17T12:13:21Z</time></trkpt><trkpt lat="46.14532100699955" lon="11.07941582475142"><ele>198.0</ele><time>2026-04-17T12:13:22Z</time></trkpt><trkpt lat="46.145169547212234" lon="11.079422774153654"><ele>198.0</ele><time>2026-04-17T12:13:23Z</time></trkpt><trkpt lat="46.14502459227112" lon="11.079421184697313"><ele>198.0</ele><time>2026-04-17T12:13:24Z</time></trkpt><trkpt lat="46.14487354292214" lon="11.079415000111913"><ele>198.0</ele><time>2026-04-17T12:13:25Z</time></trkpt><trkpt lat="46.144717206467185" lon="11.079411725906724"><ele>198.0</ele><time>2026-04-17T12:13:26Z</time></trkpt><trkpt lat="46.14456323591919" lon="11.079402581471072"><ele>198.0</ele><time>2026-04-17T12:13:27Z</time></trkpt><trkpt lat="46.14440991211255" lon="11.079393623808567"><ele>198.0</ele><time>2026-04-17T12:13:28Z</time></trkpt><trkpt lat="46.14425429374111" lon="11.079387935381112"><ele>198.0</ele><time>2026-04-17T12:13:29Z</time></trkpt><trkpt lat="46.14409879066454" lon="11.079383668742263"><ele>197.66666666666669</ele><time>2026-04-17T12:13:30Z</time></trkpt><trkpt lat="46.143939320184735" lon="11.079376172231601"><ele>197.33333333333334</ele><time>2026-04-17T12:13:31Z</time></trkpt><trkpt lat="46.1437777263711" lon="11.079380022287758"><ele>197.0</ele><time>2026-04-17T12:13:32Z</time></trkpt><trkpt lat="46.14361374344596" lon="11.07939357661264"><ele>197.0</ele><time>2026-04-17T12:13:33Z</time></trkpt><trkpt lat="46.14344743780474" lon="11.079418052203922"><ele>197.0</ele><time>2026-04-17T12:13:34Z</time></trkpt><trkpt lat="46.14328142020316" lon="11.079452399439916"><ele>197.0</ele><time>2026-04-17T12:13:35Z</time></trkpt><trkpt lat="46.143112261011474" lon="11.079504850425892"><ele>197.33333333333334</ele><time>2026-04-17T12:13:36Z</time></trkpt><trkpt lat="46.142945069105686" lon="11.079567854168484"><ele>197.66666666666669</ele><time>2026-04-17T12:13:37Z</time></trkpt><trkpt lat="46.142784648447446" lon="11.07964816198692"><ele>198.0</ele><time>2026-04-17T12:13:38Z</time></trkpt><trkpt lat="46.14262499745135" lon="11.079749875879237"><ele>198.0</ele><time>2026-04-17T12:13:39Z</time></trkpt><trkpt lat="46.14246820207767" lon="11.079869967399432"><ele>198.0</ele><time>2026-04-17T12:13:40Z</time></trkpt><trkpt lat="46.142328151290286" lon="11.080000627773908"><ele>198.0</ele><time>2026-04-17T12:13:41Z</time></trkpt><trkpt lat="46.14219948962273" lon="11.080137478179704"><ele>197.66666666666669</ele><time>2026-04-17T12:13:42Z</time></trkpt><trkpt lat="46.14208385538046" lon="11.080272217730007"><ele>197.33333333333334</ele><time>2026-04-17T12:13:43Z</time></trkpt><trkpt lat="46.141972225823416" lon="11.080418087185818"><ele>197.0</ele><time>2026-04-17T12:13:44Z</time></trkpt><trkpt lat="46.1418633133936" lon="11.080578479286554"><ele>197.0</ele><time>2026-04-17T12:13:45Z</time></trkpt><trkpt lat="46.141758129950105" lon="11.080748754341242"><ele>197.0</ele><time>2026-04-17T12:13:46Z</time></trkpt><trkpt lat="46.1416559846799" lon="11.080927837593949"><ele>197.0</ele><time>2026-04-17T12:13:47Z</time></trkpt><trkpt lat="46.14155700830842" lon="11.081108825533022"><ele>197.33333333333334</ele><time>2026-04-17T12:13:48Z</time></trkpt><trkpt lat="46.141458710291374" lon="11.081290917588666"><ele>197.66666666666669</ele><time>2026-04-17T12:13:49Z</time></trkpt><trkpt lat="46.141363112745395" lon="11.081480590859165"><ele>198.0</ele><time>2026-04-17T12:13:50Z</time></trkpt><trkpt lat="46.14126705167819" lon="11.081675575912094"><ele>198.33333333333331</ele><time>2026-04-17T12:13:51Z</time></trkpt><trkpt lat="46.1411665562212" lon="11.08187954000623"><ele>198.66666666666666</ele><time>2026-04-17T12:13:52Z</time></trkpt><trkpt lat="46.141067355686644" lon="11.08208740826108"><ele>199.0</ele><time>2026-04-17T12:13:53Z</time></trkpt><trkpt lat="46.14097449349009" lon="11.082301737472147"><ele>199.0</ele><time>2026-04-17T12:13:54Z</time></trkpt><trkpt lat="46.14087268524004" lon="11.08251030217578"><ele>199.0</ele><time>2026-04-17T12:13:55Z</time></trkpt><trkpt lat="46.140774084518235" lon="11.082700161363555"><ele>199.0</ele><time>2026-04-17T12:13:56Z</time></trkpt><trkpt lat="46.14065465048224" lon="11.082904282063339"><ele>198.66666666666666</ele><time>2026-04-17T12:13:57Z</time></trkpt><trkpt lat="46.140512467905694" lon="11.083125823978367"><ele>198.33333333333331</ele><time>2026-04-17T12:13:58Z</time></trkpt><trkpt lat="46.14035339903002" lon="11.083350132295328"><ele>198.0</ele><time>2026-04-17T12:13:59Z</time></trkpt><trkpt lat="46.14018118109358" lon="11.083559508394634"><ele>198.33333333333331</ele><time>2026-04-17T12:14:00Z</time></trkpt><trkpt lat="46.14001275412004" lon="11.083719562170645"><ele>198.66666666666666</ele><time>2026-04-17T12:14:01Z</time></trkpt><trkpt lat="46.139839639424686" lon="11.08386569444242"><ele>199.0</ele><time>2026-04-17T12:14:02Z</time></trkpt><trkpt lat="46.139657888127445" lon="11.084007255301547"><ele>200.33333333333331</ele><time>2026-04-17T12:14:03Z</time></trkpt><trkpt lat="46.13946946201619" lon="11.084134588870267"><ele>201.66666666666669</ele><time>2026-04-17T12:14:04Z</time></trkpt><trkpt lat="46.13927858884845" lon="11.084236875921528"><ele>203.0</ele><time>2026-04-17T12:14:05Z</time></trkpt><trkpt lat="46.1390891150043" lon="11.084317142066801"><ele>200.66666666666669</ele><time>2026-04-17T12:14:06Z</time></trkpt><trkpt lat="46.138893402959084" lon="11.084379564312705"><ele>198.33333333333331</ele><time>2026-04-17T12:14:07Z</time></trkpt><trkpt lat="46.13869633067225" lon="11.084421717584434"><ele>196.0</ele><time>2026-04-17T12:14:08Z</time></trkpt><trkpt lat="46.1385045244264" lon="11.084444714501968"><ele>196.0</ele><time>2026-04-17T12:14:09Z</time></trkpt><trkpt lat="46.138314837248224" lon="11.084447672098234"><ele>196.0</ele><time>2026-04-17T12:14:10Z</time></trkpt><trkpt lat="46.13812490256285" lon="11.084432880636536"><ele>196.0</ele><time>2026-04-17T12:14:11Z</time></trkpt><trkpt lat="46.13793116128369" lon="11.08440784808818"><ele>195.66666666666666</ele><time>2026-04-17T12:14:12Z</time></trkpt><trkpt lat="46.13773377905749" lon="11.084366386949661"><ele>195.33333333333331</ele><time>2026-04-17T12:14:13Z</time></trkpt><trkpt lat="46.13755367378068" lon="11.084308537446374"><ele>195.0</ele><time>2026-04-17T12:14:14Z</time></trkpt><trkpt lat="46.13738562541163" lon="11.084240741902878"><ele>196.0</ele><time>2026-04-17T12:14:15Z</time></trkpt><trkpt lat="46.13721654571421" lon="11.084157834144662"><ele>197.0</ele><time>2026-04-17T12:14:16Z</time></trkpt><trkpt lat="46.13702965467616" lon="11.084062318587641"><ele>198.0</ele><time>2026-04-17T12:14:17Z</time></trkpt><trkpt lat="46.13683085744026" lon="11.083967573278125"><ele>198.66666666666669</ele><time>2026-04-17T12:14:18Z</time></trkpt><trkpt lat="46.13663111630806" lon="11.083867871503141"><ele>199.33333333333334</ele><time>2026-04-17T12:14:19Z</time></trkpt><trkpt lat="46.136430093221456" lon="11.083766024518626"><ele>200.0</ele><time>2026-04-17T12:14:20Z</time></trkpt><trkpt lat="46.13623081217403" lon="11.083663417861436"><ele>200.0</ele><time>2026-04-17T12:14:21Z</time></trkpt><trkpt lat="46.136040712610345" lon="11.083568669461735"><ele>200.0</ele><time>2026-04-17T12:14:22Z</time></trkpt><trkpt lat="46.13586018058832" lon="11.08347613053755"><ele>200.0</ele><time>2026-04-17T12:14:23Z</time></trkpt><trkpt lat="46.1356745999421" lon="11.083381030003817"><ele>200.0</ele><time>2026-04-17T12:14:24Z</time></trkpt><trkpt lat="46.13546612098498" lon="11.083278905252534"><ele>200.0</ele><time>2026-04-17T12:14:25Z</time></trkpt><trkpt lat="46.13522676771756" lon="11.08316246110706"><ele>199.5</ele><time>2026-04-17T12:14:26Z</time></trkpt><trkpt lat="46.13498106697703" lon="11.083038434803305"><ele>199.0</ele><time>2026-04-17T12:14:27Z</time></trkpt><trkpt lat="46.134725165757985" lon="11.08291211181942"><ele>198.5</ele><time>2026-04-17T12:14:28Z</time></trkpt><trkpt lat="46.13446834621394" lon="11.082787657992737"><ele>198.0</ele><time>2026-04-17T12:14:29Z</time></trkpt><trkpt lat="46.13422332835268" lon="11.082667288271605"><ele>199.0</ele><time>2026-04-17T12:14:30Z</time></trkpt><trkpt lat="46.13396817877047" lon="11.082536679427438"><ele>200.0</ele><time>2026-04-17T12:14:31Z</time></trkpt><trkpt lat="46.13370605600711" lon="11.08240481728949"><ele>200.0</ele><time>2026-04-17T12:14:32Z</time></trkpt><trkpt lat="46.13343958221035" lon="11.082278547943178"><ele>200.0</ele><time>2026-04-17T12:14:33Z</time></trkpt><trkpt lat="46.13316198145054" lon="11.082160012592462"><ele>200.5</ele><time>2026-04-17T12:14:34Z</time></trkpt><trkpt lat="46.13287589093547" lon="11.0820496706049"><ele>201.0</ele><time>2026-04-17T12:14:35Z</time></trkpt><trkpt lat="46.13258311448071" lon="11.081949010429314"><ele>201.0</ele><time>2026-04-17T12:14:36Z</time></trkpt><trkpt lat="46.13228174459315" lon="11.08185670089151"><ele>201.0</ele><time>2026-04-17T12:14:37Z</time></trkpt><trkpt lat="46.13196827288738" lon="11.081773628175258"><ele>201.0</ele><time>2026-04-17T12:14:38Z</time></trkpt><trkpt lat="46.13165014406751" lon="11.081704823221203"><ele>201.0</ele><time>2026-04-17T12:14:39Z</time></trkpt><trkpt lat="46.13133286906031" lon="11.081650196040352"><ele>201.0</ele><time>2026-04-17T12:14:40Z</time></trkpt><trkpt lat="46.13102141205214" lon="11.081614870033446"><ele>201.0</ele><time>2026-04-17T12:14:41Z</time></trkpt><trkpt lat="46.1307203759234" lon="11.081588001761586"><ele>201.0</ele><time>2026-04-17T12:14:42Z</time></trkpt><trkpt lat="46.130437772492016" lon="11.081567871798141"><ele>201.0</ele><time>2026-04-17T12:14:43Z</time></trkpt><trkpt lat="46.13014721335495" lon="11.081559857831438"><ele>199.5</ele><time>2026-04-17T12:14:44Z</time></trkpt><trkpt lat="46.12986143599035" lon="11.08156222917481"><ele>198.0</ele><time>2026-04-17T12:14:45Z</time></trkpt><trkpt lat="46.1295801423831" lon="11.081583106529727"><ele>198.0</ele><time>2026-04-17T12:14:46Z</time></trkpt><trkpt lat="46.1292952648362" lon="11.081613584392741"><ele>198.0</ele><time>2026-04-17T12:14:47Z</time></trkpt><trkpt lat="46.12899910922203" lon="11.0816527522767"><ele>198.0</ele><time>2026-04-17T12:14:48Z</time></trkpt><trkpt lat="46.128699167429744" lon="11.081707779444567"><ele>198.0</ele><time>2026-04-17T12:14:49Z</time></trkpt><trkpt lat="46.12839031771888" lon="11.08177508712487"><ele>197.5</ele><time>2026-04-17T12:14:50Z</time></trkpt><trkpt lat="46.12807995277935" lon="11.081857453214322"><ele>197.0</ele><time>2026-04-17T12:14:51Z</time></trkpt><trkpt lat="46.127788894070946" lon="11.081944169852267"><ele>197.0</ele><time>2026-04-17T12:14:52Z</time></trkpt><trkpt lat="46.127519886381" lon="11.082029279637993"><ele>197.0</ele><time>2026-04-17T12:14:53Z</time></trkpt><trkpt lat="46.12726047634848" lon="11.082119791805269"><ele>198.0</ele><time>2026-04-17T12:14:54Z</time></trkpt><trkpt lat="46.126994510922785" lon="11.082211948942556"><ele>199.0</ele><time>2026-04-17T12:14:55Z</time></trkpt><trkpt lat="46.12672003987745" lon="11.0823010392292"><ele>198.0</ele><time>2026-04-17T12:14:56Z</time></trkpt><trkpt lat="46.126437723712286" lon="11.082392494717794"><ele>197.0</ele><time>2026-04-17T12:14:57Z</time></trkpt><trkpt lat="46.12614649608257" lon="11.08249237490221"><ele>197.0</ele><time>2026-04-17T12:14:58Z</time></trkpt><trkpt lat="46.12584402636313" lon="11.082593318796533"><ele>197.0</ele><time>2026-04-17T12:14:59Z</time></trkpt><trkpt lat="46.125543374526515" lon="11.082694025477505"><ele>199.5</ele><time>2026-04-17T12:15:00Z</time></trkpt><trkpt lat="46.12526579430837" lon="11.082789471197291"><ele>202.0</ele><time>2026-04-17T12:15:01Z</time></trkpt><trkpt lat="46.12500528269757" lon="11.082886172260121"><ele>201.0</ele><time>2026-04-17T12:15:02Z</time></trkpt><trkpt lat="46.12475392857247" lon="11.082990964156412"><ele>200.0</ele><time>2026-04-17T12:15:03Z</time></trkpt><trkpt lat="46.12450860556697" lon="11.083118726807117"><ele>199.5</ele><time>2026-04-17T12:15:04Z</time></trkpt><trkpt lat="46.12426790531089" lon="11.083275018100155"><ele>199.0</ele><time>2026-04-17T12:15:05Z</time></trkpt><trkpt lat="46.124033327618925" lon="11.083463192426073"><ele>199.0</ele><time>2026-04-17T12:15:06Z</time></trkpt><trkpt lat="46.12381183247374" lon="11.083672507455113"><ele>199.0</ele><time>2026-04-17T12:15:07Z</time></trkpt><trkpt lat="46.12361497183754" lon="11.083888607191689"><ele>199.5</ele><time>2026-04-17T12:15:08Z</time></trkpt><trkpt lat="46.12343036199949" lon="11.084124419673156"><ele>200.0</ele><time>2026-04-17T12:15:09Z</time></trkpt><trkpt lat="46.12325178190346" lon="11.084382997851197"><ele>199.0</ele><time>2026-04-17T12:15:10Z</time></trkpt><trkpt lat="46.123077784354344" lon="11.084655570978017"><ele>198.0</ele><time>2026-04-17T12:15:11Z</time></trkpt><trkpt lat="46.12290702039628" lon="11.084928444510549"><ele>198.5</ele><time>2026-04-17T12:15:12Z</time></trkpt><trkpt lat="46.12274094387497" lon="11.085171781333093"><ele>199.0</ele><time>2026-04-17T12:15:13Z</time></trkpt><trkpt lat="46.12256946786604" lon="11.085395347208376"><ele>199.5</ele><time>2026-04-17T12:15:14Z</time></trkpt><trkpt lat="46.122386166332895" lon="11.085607171588114"><ele>200.0</ele><time>2026-04-17T12:15:15Z</time></trkpt><trkpt lat="46.12218771487609" lon="11.085807964714922"><ele>200.0</ele><time>2026-04-17T12:15:16Z</time></trkpt><trkpt lat="46.12197145338469" lon="11.086002609052581"><ele>200.0</ele><time>2026-04-17T12:15:17Z</time></trkpt><trkpt lat="46.121743545462806" lon="11.086196663568336"><ele>199.0</ele><time>2026-04-17T12:15:18Z</time></trkpt><trkpt lat="46.12150494387317" lon="11.086397075264061"><ele>198.0</ele><time>2026-04-17T12:15:19Z</time></trkpt><trkpt lat="46.12124815618456" lon="11.086609142649"><ele>198.0</ele><time>2026-04-17T12:15:20Z</time></trkpt><trkpt lat="46.120981033456545" lon="11.086831564416194"><ele>198.0</ele><time>2026-04-17T12:15:21Z</time></trkpt><trkpt lat="46.12070735803559" lon="11.087060793430837"><ele>198.0</ele><time>2026-04-17T12:15:22Z</time></trkpt><trkpt lat="46.12044949470433" lon="11.087269964050558"><ele>198.0</ele><time>2026-04-17T12:15:23Z</time></trkpt><trkpt lat="46.120204884424176" lon="11.087470295010448"><ele>197.5</ele><time>2026-04-17T12:15:24Z</time></trkpt><trkpt lat="46.11995989744772" lon="11.087673171953819"><ele>197.0</ele><time>2026-04-17T12:15:25Z</time></trkpt><trkpt lat="46.119732783264425" lon="11.087859566580468"><ele>197.0</ele><time>2026-04-17T12:15:26Z</time></trkpt><trkpt lat="46.119519093946806" lon="11.08803150311378"><ele>197.0</ele><time>2026-04-17T12:15:27Z</time></trkpt><trkpt lat="46.11930990261572" lon="11.088186429949683"><ele>198.0</ele><time>2026-04-17T12:15:28Z</time></trkpt><trkpt lat="46.11909526588876" lon="11.088327123299399"><ele>199.0</ele><time>2026-04-17T12:15:29Z</time></trkpt><trkpt lat="46.1188716747291" lon="11.088456026536024"><ele>199.0</ele><time>2026-04-17T12:15:30Z</time></trkpt><trkpt lat="46.118642465549485" lon="11.088568385844335"><ele>199.0</ele><time>2026-04-17T12:15:31Z</time></trkpt><trkpt lat="46.11840992855837" lon="11.088657374545077"><ele>199.0</ele><time>2026-04-17T12:15:32Z</time></trkpt><trkpt lat="46.118167409614095" lon="11.088725667627047"><ele>199.0</ele><time>2026-04-17T12:15:33Z</time></trkpt><trkpt lat="46.117907937963054" lon="11.088784223269393"><ele>199.0</ele><time>2026-04-17T12:15:34Z</time></trkpt><trkpt lat="46.11763707962641" lon="11.088822104129017"><ele>199.0</ele><time>2026-04-17T12:15:35Z</time></trkpt><trkpt lat="46.11739305167049" lon="11.08882896256037"><ele>197.0</ele><time>2026-04-17T12:15:36Z</time></trkpt><trkpt lat="46.117144062909" lon="11.088815462487567"><ele>195.0</ele><time>2026-04-17T12:15:37Z</time></trkpt><trkpt lat="46.11689477455135" lon="11.088782870651155"><ele>195.0</ele><time>2026-04-17T12:15:38Z</time></trkpt><trkpt lat="46.116647862511726" lon="11.08873139299014"><ele>195.0</ele><time>2026-04-17T12:15:39Z</time></trkpt><trkpt lat="46.11639190120639" lon="11.088656169933685"><ele>197.0</ele><time>2026-04-17T12:15:40Z</time></trkpt><trkpt lat="46.11615051477254" lon="11.088572437926734"><ele>199.0</ele><time>2026-04-17T12:15:41Z</time></trkpt><trkpt lat="46.11591406854176" lon="11.08849779744173"><ele>198.0</ele><time>2026-04-17T12:15:42Z</time></trkpt><trkpt lat="46.11567601730509" lon="11.08842501590464"><ele>197.0</ele><time>2026-04-17T12:15:43Z</time></trkpt><trkpt lat="46.115448214655935" lon="11.088351828829785"><ele>197.0</ele><time>2026-04-17T12:15:44Z</time></trkpt><trkpt lat="46.1152335735545" lon="11.088281538184406"><ele>197.0</ele><time>2026-04-17T12:15:45Z</time></trkpt><trkpt lat="46.115019549775894" lon="11.088213296230276"><ele>197.0</ele><time>2026-04-17T12:15:46Z</time></trkpt><trkpt lat="46.11480325116255" lon="11.088143792201654"><ele>196.0</ele><time>2026-04-17T12:15:47Z</time></trkpt><trkpt lat="46.11458551314032" lon="11.088074215908925"><ele>195.0</ele><time>2026-04-17T12:15:48Z</time></trkpt><trkpt lat="46.1143669301749" lon="11.088004773995847"><ele>194.0</ele><time>2026-04-17T12:15:49Z</time></trkpt><trkpt lat="46.1141386015735" lon="11.087943936587875"><ele>195.0</ele><time>2026-04-17T12:15:50Z</time></trkpt><trkpt lat="46.11389407241958" lon="11.087895879227617"><ele>196.0</ele><time>2026-04-17T12:15:51Z</time></trkpt><trkpt lat="46.11363996412386" lon="11.087872594416472"><ele>196.0</ele><time>2026-04-17T12:15:52Z</time></trkpt><trkpt lat="46.11339266000583" lon="11.08787879815712"><ele>196.0</ele><time>2026-04-17T12:15:53Z</time></trkpt><trkpt lat="46.113163390808225" lon="11.08790635292587"><ele>195.0</ele><time>2026-04-17T12:15:54Z</time></trkpt><trkpt lat="46.112943239924334" lon="11.087950291319773"><ele>194.0</ele><time>2026-04-17T12:15:55Z</time></trkpt><trkpt lat="46.11271060323739" lon="11.088016218394994"><ele>194.0</ele><time>2026-04-17T12:15:56Z</time></trkpt><trkpt lat="46.11245590306394" lon="11.088096167431377"><ele>194.0</ele><time>2026-04-17T12:15:57Z</time></trkpt><trkpt lat="46.11219815734552" lon="11.08816994865525"><ele>194.0</ele><time>2026-04-17T12:15:58Z</time></trkpt><trkpt lat="46.11195588554467" lon="11.088239835515063"><ele>194.0</ele><time>2026-04-17T12:15:59Z</time></trkpt><trkpt lat="46.11171431465843" lon="11.088308829587227"><ele>194.5</ele><time>2026-04-17T12:16:00Z</time></trkpt><trkpt lat="46.111466983847436" lon="11.088378596147837"><ele>195.0</ele><time>2026-04-17T12:16:01Z</time></trkpt><trkpt lat="46.111212191302634" lon="11.08844998627489"><ele>195.0</ele><time>2026-04-17T12:16:02Z</time></trkpt><trkpt lat="46.11094689666511" lon="11.088525360674453"><ele>195.0</ele><time>2026-04-17T12:16:03Z</time></trkpt><trkpt lat="46.11066254424402" lon="11.088610207676398"><ele>195.0</ele><time>2026-04-17T12:16:04Z</time></trkpt><trkpt lat="46.110367812091596" lon="11.088697504142438"><ele>195.0</ele><time>2026-04-17T12:16:05Z</time></trkpt><trkpt lat="46.11006345878173" lon="11.088784665552607"><ele>194.5</ele><time>2026-04-17T12:16:06Z</time></trkpt><trkpt lat="46.10975210208588" lon="11.08887572578885"><ele>194.0</ele><time>2026-04-17T12:16:07Z</time></trkpt><trkpt lat="46.10943288268838" lon="11.088966322503126"><ele>194.0</ele><time>2026-04-17T12:16:08Z</time></trkpt><trkpt lat="46.109109129534595" lon="11.089057594302801"><ele>194.0</ele><time>2026-04-17T12:16:09Z</time></trkpt><trkpt lat="46.108778068776836" lon="11.089149494482985"><ele>194.0</ele><time>2026-04-17T12:16:10Z</time></trkpt><trkpt lat="46.108447961268965" lon="11.089245362840527"><ele>194.0</ele><time>2026-04-17T12:16:11Z</time></trkpt><trkpt lat="46.10814153564364" lon="11.08933424599387"><ele>192.5</ele><time>2026-04-17T12:16:12Z</time></trkpt><trkpt lat="46.10785316567236" lon="11.089416545048831"><ele>191.0</ele><time>2026-04-17T12:16:13Z</time></trkpt><trkpt lat="46.10757919277065" lon="11.089496314526532"><ele>192.5</ele><time>2026-04-17T12:16:14Z</time></trkpt><trkpt lat="46.107318169467696" lon="11.089571505121489"><ele>194.0</ele><time>2026-04-17T12:16:15Z</time></trkpt><trkpt lat="46.1070697216351" lon="11.089640175604293"><ele>194.0</ele><time>2026-04-17T12:16:16Z</time></trkpt><trkpt lat="46.10682550503766" lon="11.089708504815846"><ele>194.0</ele><time>2026-04-17T12:16:17Z</time></trkpt><trkpt lat="46.10657760383858" lon="11.089777509872476"><ele>193.0</ele><time>2026-04-17T12:16:18Z</time></trkpt><trkpt lat="46.106317558443294" lon="11.089852770037728"><ele>192.0</ele><time>2026-04-17T12:16:19Z</time></trkpt><trkpt lat="46.10605526971437" lon="11.089926454956528"><ele>192.0</ele><time>2026-04-17T12:16:20Z</time></trkpt><trkpt lat="46.10580369923463" lon="11.089999582879702"><ele>192.0</ele><time>2026-04-17T12:16:21Z</time></trkpt><trkpt lat="46.105557354486166" lon="11.090074205163116"><ele>192.0</ele><time>2026-04-17T12:16:22Z</time></trkpt><trkpt lat="46.10530742417842" lon="11.090149051731276"><ele>192.0</ele><time>2026-04-17T12:16:23Z</time></trkpt><trkpt lat="46.10505231791787" lon="11.090227941490879"><ele>191.5</ele><time>2026-04-17T12:16:24Z</time></trkpt><trkpt lat="46.104812580686584" lon="11.090308083871799"><ele>191.0</ele><time>2026-04-17T12:16:25Z</time></trkpt><trkpt lat="46.10458004692541" lon="11.090389247243776"><ele>191.0</ele><time>2026-04-17T12:16:26Z</time></trkpt><trkpt lat="46.104345867753814" lon="11.090473542747977"><ele>191.0</ele><time>2026-04-17T12:16:27Z</time></trkpt><trkpt lat="46.104105677462634" lon="11.090561838362914"><ele>191.5</ele><time>2026-04-17T12:16:28Z</time></trkpt><trkpt lat="46.103850242402906" lon="11.090666656252163"><ele>192.0</ele><time>2026-04-17T12:16:29Z</time></trkpt><trkpt lat="46.103594265741684" lon="11.090779899821282"><ele>193.5</ele><time>2026-04-17T12:16:30Z</time></trkpt><trkpt lat="46.103336265602024" lon="11.090903461779236"><ele>195.0</ele><time>2026-04-17T12:16:31Z</time></trkpt><trkpt lat="46.10307915571188" lon="11.09103137514785"><ele>195.0</ele><time>2026-04-17T12:16:32Z</time></trkpt><trkpt lat="46.102815835508814" lon="11.091173371026603"><ele>195.0</ele><time>2026-04-17T12:16:33Z</time></trkpt><trkpt lat="46.10254138086719" lon="11.091323700129193"><ele>194.5</ele><time>2026-04-17T12:16:34Z</time></trkpt><trkpt lat="46.102263242564405" lon="11.091489621577749"><ele>194.0</ele><time>2026-04-17T12:16:35Z</time></trkpt><trkpt lat="46.101981134477136" lon="11.091672461193639"><ele>193.0</ele><time>2026-04-17T12:16:36Z</time></trkpt><trkpt lat="46.10169787279838" lon="11.091863487990835"><ele>192.0</ele><time>2026-04-17T12:16:37Z</time></trkpt><trkpt lat="46.10141108792512" lon="11.092066376214943"><ele>192.0</ele><time>2026-04-17T12:16:38Z</time></trkpt><trkpt lat="46.101122808918085" lon="11.092281190001426"><ele>192.0</ele><time>2026-04-17T12:16:39Z</time></trkpt><trkpt lat="46.10083481149345" lon="11.092507024943428"><ele>193.0</ele><time>2026-04-17T12:16:40Z</time></trkpt><trkpt lat="46.100543192770445" lon="11.092745810657059"><ele>194.0</ele><time>2026-04-17T12:16:41Z</time></trkpt><trkpt lat="46.10025522791477" lon="11.092994788580837"><ele>194.0</ele><time>2026-04-17T12:16:42Z</time></trkpt><trkpt lat="46.09996989585122" lon="11.09325441624456"><ele>194.0</ele><time>2026-04-17T12:16:43Z</time></trkpt><trkpt lat="46.09968249144018" lon="11.093518316220988"><ele>192.0</ele><time>2026-04-17T12:16:44Z</time></trkpt><trkpt lat="46.09941325401355" lon="11.093775425897178"><ele>190.0</ele><time>2026-04-17T12:16:45Z</time></trkpt><trkpt lat="46.0991649576741" lon="11.094001065691229"><ele>191.0</ele><time>2026-04-17T12:16:46Z</time></trkpt><trkpt lat="46.09895016362658" lon="11.094200452018933"><ele>192.0</ele><time>2026-04-17T12:16:47Z</time></trkpt><trkpt lat="46.09874962888409" lon="11.094390428861121"><ele>192.0</ele><time>2026-04-17T12:16:48Z</time></trkpt><trkpt lat="46.098561941902894" lon="11.094569009611982"><ele>192.0</ele><time>2026-04-17T12:16:49Z</time></trkpt><trkpt lat="46.098382095453324" lon="11.094741144147743"><ele>192.0</ele><time>2026-04-17T12:16:50Z</time></trkpt><trkpt lat="46.09820523838609" lon="11.094906347736988"><ele>191.66666666666666</ele><time>2026-04-17T12:16:51Z</time></trkpt><trkpt lat="46.09802565191042" lon="11.095076838801607"><ele>191.33333333333331</ele><time>2026-04-17T12:16:52Z</time></trkpt><trkpt lat="46.09783266468913" lon="11.095258063195475"><ele>191.0</ele><time>2026-04-17T12:16:53Z</time></trkpt><trkpt lat="46.09763751484271" lon="11.095440865147046"><ele>191.0</ele><time>2026-04-17T12:16:54Z</time></trkpt><trkpt lat="46.09745805067626" lon="11.095608993366822"><ele>191.0</ele><time>2026-04-17T12:16:55Z</time></trkpt><trkpt lat="46.09728519924218" lon="11.095769783868"><ele>191.0</ele><time>2026-04-17T12:16:56Z</time></trkpt><trkpt lat="46.097110083038416" lon="11.09592744225635"><ele>192.0</ele><time>2026-04-17T12:16:57Z</time></trkpt><trkpt lat="46.0969239646445" lon="11.096100909442557"><ele>193.0</ele><time>2026-04-17T12:16:58Z</time></trkpt><trkpt lat="46.09672984536151" lon="11.096295132446901"><ele>193.0</ele><time>2026-04-17T12:16:59Z</time></trkpt><trkpt lat="46.096528087178555" lon="11.096488590951772"><ele>193.0</ele><time>2026-04-17T12:17:00Z</time></trkpt><trkpt lat="46.09632053236845" lon="11.096685040571142"><ele>192.5</ele><time>2026-04-17T12:17:01Z</time></trkpt><trkpt lat="46.09610968093715" lon="11.096883840033597"><ele>192.0</ele><time>2026-04-17T12:17:02Z</time></trkpt><trkpt lat="46.09589094340665" lon="11.097088907567949"><ele>191.5</ele><time>2026-04-17T12:17:03Z</time></trkpt><trkpt lat="46.09567192447102" lon="11.097294274064884"><ele>191.0</ele><time>2026-04-17T12:17:04Z</time></trkpt><trkpt lat="46.09546477218923" lon="11.097488890473679"><ele>191.0</ele><time>2026-04-17T12:17:05Z</time></trkpt><trkpt lat="46.095252967523265" lon="11.097688302145254"><ele>191.0</ele><time>2026-04-17T12:17:06Z</time></trkpt><trkpt lat="46.09504255566112" lon="11.097889432901152"><ele>190.5</ele><time>2026-04-17T12:17:07Z</time></trkpt><trkpt lat="46.09484095068557" lon="11.09807753023234"><ele>190.0</ele><time>2026-04-17T12:17:08Z</time></trkpt><trkpt lat="46.09464497571412" lon="11.09825971534207"><ele>190.0</ele><time>2026-04-17T12:17:09Z</time></trkpt><trkpt lat="46.09444491282789" lon="11.098451890605013"><ele>190.0</ele><time>2026-04-17T12:17:10Z</time></trkpt><trkpt lat="46.09425422871436" lon="11.098631454136095"><ele>190.0</ele><time>2026-04-17T12:17:11Z</time></trkpt><trkpt lat="46.09408828694388" lon="11.098787323533893"><ele>190.0</ele><time>2026-04-17T12:17:12Z</time></trkpt><trkpt lat="46.09393360776081" lon="11.09894215546305"><ele>190.0</ele><time>2026-04-17T12:17:13Z</time></trkpt><trkpt lat="46.093788792690034" lon="11.099115821813207"><ele>190.0</ele><time>2026-04-17T12:17:14Z</time></trkpt><trkpt lat="46.09365681463831" lon="11.099312638773124"><ele>190.0</ele><time>2026-04-17T12:17:15Z</time></trkpt><trkpt lat="46.09354206110328" lon="11.099535576616724"><ele>190.0</ele><time>2026-04-17T12:17:16Z</time></trkpt><trkpt lat="46.0934371199351" lon="11.09979156849801"><ele>190.0</ele><time>2026-04-17T12:17:17Z</time></trkpt><trkpt lat="46.09334454269027" lon="11.100077338039606"><ele>190.0</ele><time>2026-04-17T12:17:18Z</time></trkpt><trkpt lat="46.093251627280054" lon="11.100395655276747"><ele>189.5</ele><time>2026-04-17T12:17:19Z</time></trkpt><trkpt lat="46.09315221672047" lon="11.100730950444458"><ele>189.0</ele><time>2026-04-17T12:17:20Z</time></trkpt><trkpt lat="46.09304561492337" lon="11.101077849991514"><ele>189.0</ele><time>2026-04-17T12:17:21Z</time></trkpt><trkpt lat="46.092946095749745" lon="11.101403515033516"><ele>189.0</ele><time>2026-04-17T12:17:22Z</time></trkpt><trkpt lat="46.092851070517504" lon="11.10171747692616"><ele>189.66666666666666</ele><time>2026-04-17T12:17:23Z</time></trkpt><trkpt lat="46.092760923721706" lon="11.102016982159599"><ele>190.33333333333331</ele><time>2026-04-17T12:17:24Z</time></trkpt><trkpt lat="46.09268211054742" lon="11.102284760155452"><ele>191.0</ele><time>2026-04-17T12:17:25Z</time></trkpt><trkpt lat="46.09261390323837" lon="11.102515694590155"><ele>191.0</ele><time>2026-04-17T12:17:26Z</time></trkpt><trkpt lat="46.09254604614769" lon="11.102724905339226"><ele>191.0</ele><time>2026-04-17T12:17:27Z</time></trkpt><trkpt lat="46.09247010426987" lon="11.102902414894052"><ele>191.0</ele><time>2026-04-17T12:17:28Z</time></trkpt><trkpt lat="46.09237845061515" lon="11.10304493975374"><ele>191.0</ele><time>2026-04-17T12:17:29Z</time></trkpt><trkpt lat="46.092277887380625" lon="11.103160673998579"><ele>191.0</ele><time>2026-04-17T12:17:30Z</time></trkpt><trkpt lat="46.092153313237844" lon="11.103255626891812"><ele>191.0</ele><time>2026-04-17T12:17:31Z</time></trkpt><trkpt lat="46.092031477422715" lon="11.103307296021208"><ele>191.0</ele><time>2026-04-17T12:17:32Z</time></trkpt><trkpt lat="46.09192525781496" lon="11.103322227129375"><ele>191.0</ele><time>2026-04-17T12:17:33Z</time></trkpt><trkpt lat="46.09182708161531" lon="11.103304276247055"><ele>191.0</ele><time>2026-04-17T12:17:34Z</time></trkpt><trkpt lat="46.09173541540524" lon="11.103244346982784"><ele>191.0</ele><time>2026-04-17T12:17:35Z</time></trkpt><trkpt lat="46.09165523802234" lon="11.10314505104485"><ele>191.0</ele><time>2026-04-17T12:17:36Z</time></trkpt><trkpt lat="46.091600481656975" lon="11.103011862784262"><ele>191.0</ele><time>2026-04-17T12:17:37Z</time></trkpt><trkpt lat="46.091572263442075" lon="11.102867553830025"><ele>191.0</ele><time>2026-04-17T12:17:38Z</time></trkpt><trkpt lat="46.09157860690566" lon="11.102720447059651"><ele>191.0</ele><time>2026-04-17T12:17:39Z</time></trkpt><trkpt lat="46.09161808524025" lon="11.1025882086496"><ele>191.0</ele><time>2026-04-17T12:17:40Z</time></trkpt><trkpt lat="46.091680617513774" lon="11.102467939939094"><ele>191.0</ele><time>2026-04-17T12:17:41Z</time></trkpt><trkpt lat="46.09176603651352" lon="11.102378924177179"><ele>191.0</ele><time>2026-04-17T12:17:42Z</time></trkpt><trkpt lat="46.09186855741529" lon="11.102332471338666"><ele>191.0</ele><time>2026-04-17T12:17:43Z</time></trkpt><trkpt lat="46.09197807854205" lon="11.102325897188283"><ele>191.0</ele><time>2026-04-17T12:17:44Z</time></trkpt><trkpt lat="46.09209116544807" lon="11.102341438372052"><ele>191.0</ele><time>2026-04-17T12:17:45Z</time></trkpt><trkpt lat="46.09220783790456" lon="11.102353244192244"><ele>191.0</ele><time>2026-04-17T12:17:46Z</time></trkpt><trkpt lat="46.092338086529196" lon="11.10237489973012"><ele>191.0</ele><time>2026-04-17T12:17:47Z</time></trkpt><trkpt lat="46.09246964377002" lon="11.102410948440875"><ele>191.0</ele><time>2026-04-17T12:17:48Z</time></trkpt><trkpt lat="46.09259359848959" lon="11.10245642272517"><ele>191.0</ele><time>2026-04-17T12:17:49Z</time></trkpt><trkpt lat="46.09272641325735" lon="11.102530705907123"><ele>191.0</ele><time>2026-04-17T12:17:50Z</time></trkpt><trkpt lat="46.09285834760587" lon="11.10263851202767"><ele>191.0</ele><time>2026-04-17T12:17:51Z</time></trkpt><trkpt lat="46.09299010892703" lon="11.102766827818252"><ele>191.0</ele><time>2026-04-17T12:17:52Z</time></trkpt><trkpt lat="46.093120085418434" lon="11.102913009416596"><ele>191.0</ele><time>2026-04-17T12:17:53Z</time></trkpt><trkpt lat="46.093242832449604" lon="11.10306515981822"><ele>191.0</ele><time>2026-04-17T12:17:54Z</time></trkpt><trkpt lat="46.09334861978017" lon="11.103216282392628"><ele>191.66666666666666</ele><time>2026-04-17T12:17:55Z</time></trkpt><trkpt lat="46.09345813250617" lon="11.103391516812653"><ele>192.33333333333331</ele><time>2026-04-17T12:17:56Z</time></trkpt><trkpt lat="46.09355861859004" lon="11.103589278991063"><ele>193.0</ele><time>2026-04-17T12:17:57Z</time></trkpt><trkpt lat="46.09364712223692" lon="11.103814900144236"><ele>193.0</ele><time>2026-04-17T12:17:58Z</time></trkpt><trkpt lat="46.09373363336233" lon="11.10402705576748"><ele>193.0</ele><time>2026-04-17T12:17:59Z</time></trkpt><trkpt lat="46.093823012968556" lon="11.104246573988577"><ele>193.0</ele><time>2026-04-17T12:18:00Z</time></trkpt><trkpt lat="46.09391996735796" lon="11.104490949678727"><ele>192.66666666666666</ele><time>2026-04-17T12:18:01Z</time></trkpt><trkpt lat="46.09401755742563" lon="11.104752219376953"><ele>192.33333333333331</ele><time>2026-04-17T12:18:02Z</time></trkpt><trkpt lat="46.09411375208935" lon="11.105015427943957"><ele>192.0</ele><time>2026-04-17T12:18:03Z</time></trkpt><trkpt lat="46.09421915549764" lon="11.1053145076014"><ele>192.0</ele><time>2026-04-17T12:18:04Z</time></trkpt><trkpt lat="46.0943242116653" lon="11.105629942265384"><ele>192.0</ele><time>2026-04-17T12:18:05Z</time></trkpt><trkpt lat="46.09442656819864" lon="11.105935680556595"><ele>193.0</ele><time>2026-04-17T12:18:06Z</time></trkpt><trkpt lat="46.09452824278797" lon="11.106227546891581"><ele>194.0</ele><time>2026-04-17T12:18:07Z</time></trkpt><trkpt lat="46.094631631531634" lon="11.1065308878855"><ele>194.0</ele><time>2026-04-17T12:18:08Z</time></trkpt><trkpt lat="46.09473267733932" lon="11.10683137158107"><ele>194.0</ele><time>2026-04-17T12:18:09Z</time></trkpt><trkpt lat="46.09482619106817" lon="11.107115084199158"><ele>194.0</ele><time>2026-04-17T12:18:10Z</time></trkpt><trkpt lat="46.09491189060169" lon="11.107398382200317"><ele>193.5</ele><time>2026-04-17T12:18:11Z</time></trkpt><trkpt lat="46.09499056150407" lon="11.107701727069362"><ele>193.0</ele><time>2026-04-17T12:18:12Z</time></trkpt><trkpt lat="46.0950618154863" lon="11.108020905388615"><ele>192.5</ele><time>2026-04-17T12:18:13Z</time></trkpt><trkpt lat="46.0951291800846" lon="11.108358216219292"><ele>192.0</ele><time>2026-04-17T12:18:14Z</time></trkpt><trkpt lat="46.09519469906886" lon="11.108720636714791"><ele>192.5</ele><time>2026-04-17T12:18:15Z</time></trkpt><trkpt lat="46.09526254931864" lon="11.109087776312819"><ele>193.0</ele><time>2026-04-17T12:18:16Z</time></trkpt><trkpt lat="46.09533204142262" lon="11.10946073497845"><ele>193.0</ele><time>2026-04-17T12:18:17Z</time></trkpt><trkpt lat="46.09540603875629" lon="11.109859859044168"><ele>193.0</ele><time>2026-04-17T12:18:18Z</time></trkpt><trkpt lat="46.095485546081335" lon="11.11027030783867"><ele>192.5</ele><time>2026-04-17T12:18:19Z</time></trkpt><trkpt lat="46.095562883104904" lon="11.110691426168055"><ele>192.0</ele><time>2026-04-17T12:18:20Z</time></trkpt><trkpt lat="46.09563325906158" lon="11.11107758664926"><ele>191.5</ele><time>2026-04-17T12:18:21Z</time></trkpt><trkpt lat="46.09569770215163" lon="11.111443064663025"><ele>191.0</ele><time>2026-04-17T12:18:22Z</time></trkpt><trkpt lat="46.09576218898548" lon="11.111799885691884"><ele>191.0</ele><time>2026-04-17T12:18:23Z</time></trkpt><trkpt lat="46.095822224298445" lon="11.112140955956153"><ele>191.0</ele><time>2026-04-17T12:18:24Z</time></trkpt><trkpt lat="46.095886442351166" lon="11.112484102472076"><ele>193.0</ele><time>2026-04-17T12:18:25Z</time></trkpt><trkpt lat="46.095955525177104" lon="11.112848047492975"><ele>195.0</ele><time>2026-04-17T12:18:26Z</time></trkpt><trkpt lat="46.09602816443828" lon="11.113231900599754"><ele>194.0</ele><time>2026-04-17T12:18:27Z</time></trkpt><trkpt lat="46.096102277606086" lon="11.113632808274266"><ele>193.0</ele><time>2026-04-17T12:18:28Z</time></trkpt><trkpt lat="46.096173245964785" lon="11.11402711766236"><ele>191.5</ele><time>2026-04-17T12:18:29Z</time></trkpt><trkpt lat="46.09624319330814" lon="11.114394915651797"><ele>190.0</ele><time>2026-04-17T12:18:30Z</time></trkpt><trkpt lat="46.09630975680482" lon="11.11475420989924"><ele>190.0</ele><time>2026-04-17T12:18:31Z</time></trkpt><trkpt lat="46.09637448628722" lon="11.115104853440927"><ele>190.0</ele><time>2026-04-17T12:18:32Z</time></trkpt><trkpt lat="46.09643284723261" lon="11.115415256279856"><ele>190.0</ele><time>2026-04-17T12:18:33Z</time></trkpt><trkpt lat="46.09648568310728" lon="11.115713401942529"><ele>190.0</ele><time>2026-04-17T12:18:34Z</time></trkpt><trkpt lat="46.09652067597128" lon="11.115999882474085"><ele>190.0</ele><time>2026-04-17T12:18:35Z</time></trkpt><trkpt lat="46.09654945629857" lon="11.11630364501215"><ele>191.0</ele><time>2026-04-17T12:18:36Z</time></trkpt><trkpt lat="46.096558046848834" lon="11.116621813320622"><ele>192.0</ele><time>2026-04-17T12:18:37Z</time></trkpt><trkpt lat="46.09654794906743" lon="11.11695260768257"><ele>192.0</ele><time>2026-04-17T12:18:38Z</time></trkpt><trkpt lat="46.09651625329553" lon="11.11728435637591"><ele>192.0</ele><time>2026-04-17T12:18:39Z</time></trkpt><trkpt lat="46.09646336237919" lon="11.117617272694371"><ele>192.5</ele><time>2026-04-17T12:18:40Z</time></trkpt><trkpt lat="46.096392891017665" lon="11.117952605214828"><ele>193.0</ele><time>2026-04-17T12:18:41Z</time></trkpt><trkpt lat="46.096305256452105" lon="11.118305148081085"><ele>193.0</ele><time>2026-04-17T12:18:42Z</time></trkpt><trkpt lat="46.096208413786556" lon="11.118656538450495"><ele>193.0</ele><time>2026-04-17T12:18:43Z</time></trkpt><trkpt lat="46.09611287994241" lon="11.118984400457688"><ele>191.5</ele><time>2026-04-17T12:18:44Z</time></trkpt><trkpt lat="46.096027641234" lon="11.11930618199418"><ele>190.0</ele><time>2026-04-17T12:18:45Z</time></trkpt><trkpt lat="46.095946185166035" lon="11.119603861186478"><ele>190.33333333333334</ele><time>2026-04-17T12:18:46Z</time></trkpt><trkpt lat="46.09585582204442" lon="11.119904049053202"><ele>190.66666666666666</ele><time>2026-04-17T12:18:47Z</time></trkpt><trkpt lat="46.09574970571831" lon="11.120183148399557"><ele>191.0</ele><time>2026-04-17T12:18:48Z</time></trkpt><trkpt lat="46.09562327186571" lon="11.120439400582928"><ele>191.0</ele><time>2026-04-17T12:18:49Z</time></trkpt><trkpt lat="46.09547872892435" lon="11.120678287225815"><ele>191.0</ele><time>2026-04-17T12:18:50Z</time></trkpt><trkpt lat="46.09532197570288" lon="11.12090062369141"><ele>191.0</ele><time>2026-04-17T12:18:51Z</time></trkpt><trkpt lat="46.095155541250136" lon="11.121098688776348"><ele>191.66666666666666</ele><time>2026-04-17T12:18:52Z</time></trkpt><trkpt lat="46.09497907010676" lon="11.121272417984565"><ele>192.33333333333331</ele><time>2026-04-17T12:18:53Z</time></trkpt><trkpt lat="46.09479165762721" lon="11.121420249608171"><ele>193.0</ele><time>2026-04-17T12:18:54Z</time></trkpt><trkpt lat="46.09459164074981" lon="11.121534741838706"><ele>202.5</ele><time>2026-04-17T12:18:55Z</time></trkpt><trkpt lat="46.09437952549938" lon="11.121621620300028"><ele>212.0</ele><time>2026-04-17T12:18:56Z</time></trkpt><trkpt lat="46.094153225631864" lon="11.121690770287442"><ele>213.5</ele><time>2026-04-17T12:18:57Z</time></trkpt><trkpt lat="46.09391644970211" lon="11.121747413085362"><ele>215.0</ele><time>2026-04-17T12:18:58Z</time></trkpt><trkpt lat="46.09366086400462" lon="11.121797039854815"><ele>215.0</ele><time>2026-04-17T12:18:59Z</time></trkpt><trkpt lat="46.09339008189658" lon="11.121860568426149"><ele>215.0</ele><time>2026-04-17T12:19:00Z</time></trkpt><trkpt lat="46.09311927382907" lon="11.12192212876502"><ele>213.0</ele><time>2026-04-17T12:19:01Z</time></trkpt><trkpt lat="46.09286820269636" lon="11.121981078237354"><ele>211.0</ele><time>2026-04-17T12:19:02Z</time></trkpt><trkpt lat="46.09262651310258" lon="11.122037283817873"><ele>207.66666666666666</ele><time>2026-04-17T12:19:03Z</time></trkpt><trkpt lat="46.09239881817237" lon="11.122089147003198"><ele>204.33333333333331</ele><time>2026-04-17T12:19:04Z</time></trkpt><trkpt lat="46.09218390093662" lon="11.122142774432444"><ele>201.0</ele><time>2026-04-17T12:19:05Z</time></trkpt><trkpt lat="46.09198016442643" lon="11.122201774110861"><ele>201.0</ele><time>2026-04-17T12:19:06Z</time></trkpt><trkpt lat="46.09176295043192" lon="11.122270881226344"><ele>201.0</ele><time>2026-04-17T12:19:07Z</time></trkpt><trkpt lat="46.09153469760877" lon="11.122364146215322"><ele>215.0</ele><time>2026-04-17T12:19:08Z</time></trkpt><trkpt lat="46.091301822355746" lon="11.122479331470323"><ele>229.0</ele><time>2026-04-17T12:19:09Z</time></trkpt><trkpt lat="46.09106581735895" lon="11.122610115928946"><ele>229.0</ele><time>2026-04-17T12:19:10Z</time></trkpt><trkpt lat="46.090839031008876" lon="11.122756886913054"><ele>229.0</ele><time>2026-04-17T12:19:11Z</time></trkpt><trkpt lat="46.090628279830554" lon="11.122911848211329"><ele>225.5</ele><time>2026-04-17T12:19:12Z</time></trkpt><trkpt lat="46.09042985067271" lon="11.12308152541753"><ele>222.0</ele><time>2026-04-17T12:19:13Z</time></trkpt><trkpt lat="46.09023851317864" lon="11.123268025729262"><ele>226.0</ele><time>2026-04-17T12:19:14Z</time></trkpt><trkpt lat="46.090052978460385" lon="11.1234480652068"><ele>230.0</ele><time>2026-04-17T12:19:15Z</time></trkpt><trkpt lat="46.08988660661852" lon="11.123635902110761"><ele>234.0</ele><time>2026-04-17T12:19:16Z</time></trkpt><trkpt lat="46.089732079243156" lon="11.123822018822512"><ele>234.0</ele><time>2026-04-17T12:19:17Z</time></trkpt><trkpt lat="46.089577093630446" lon="11.124008016730112"><ele>234.0</ele><time>2026-04-17T12:19:18.018Z</time></trkpt><trkpt lat="46.089426805789664" lon="11.124203062285428"><ele>234.0</ele><time>2026-04-17T12:19:19.019Z</time></trkpt><trkpt lat="46.089267019112675" lon="11.124424519198813"><ele>237.33333333333331</ele><time>2026-04-17T12:19:20.019Z</time></trkpt><trkpt lat="46.08911443193844" lon="11.124638324454512"><ele>240.66666666666666</ele><time>2026-04-17T12:19:21.018Z</time></trkpt><trkpt lat="46.088965235253426" lon="11.124839354471776"><ele>244.0</ele><time>2026-04-17T12:19:22.019Z</time></trkpt><trkpt lat="46.08688262577279" lon="11.12760320505208"><ele>341.0</ele><time>2026-04-17T12:19:26.846Z</time></trkpt><trkpt lat="46.08628432350079" lon="11.128387298791479"><ele>371.0</ele><time>2026-04-17T12:19:27.846Z</time></trkpt><trkpt lat="46.08568622873563" lon="11.129172720550475"><ele>391.0</ele><time>2026-04-17T12:19:28.846Z</time></trkpt><trkpt lat="46.0850858298795" lon="11.129953852782299"><ele>400.0</ele><time>2026-04-17T12:19:29.847Z</time></trkpt><trkpt lat="46.08448778149265" lon="11.130736744602169"><ele>391.0</ele><time>2026-04-17T12:19:30.846Z</time></trkpt><trkpt lat="46.08389024437539" lon="11.131523731156992"><ele>379.0</ele><time>2026-04-17T12:19:31.847Z</time></trkpt><trkpt lat="46.08328961642055" lon="11.132303740440197"><ele>366.0</ele><time>2026-04-17T12:19:32.847Z</time></trkpt><trkpt lat="46.082691067537255" lon="11.133087426341609"><ele>357.0</ele><time>2026-04-17T12:19:33.847Z</time></trkpt><trkpt lat="46.08209280316501" lon="11.133869949031578"><ele>355.5</ele><time>2026-04-17T12:19:34.846Z</time></trkpt><trkpt lat="46.0819477" lon="11.1340608"><ele>354.0</ele><time>2026-04-17T12:19:35.845Z</time></trkpt><trkpt lat="46.0772745917049" lon="11.153960740204113"><ele>357.5</ele><time>2026-04-17T12:20:51.999Z</time></trkpt><trkpt lat="46.07734988563918" lon="11.15422653841151"><ele>361.0</ele><time>2026-04-17T12:20:52.999Z</time></trkpt><trkpt lat="46.0776533117134" lon="11.15471856683816"><ele>355.66666666666663</ele><time>2026-04-17T12:20:53.999Z</time></trkpt><trkpt lat="46.07772705158597" lon="11.15492171655386"><ele>350.3333333333333</ele><time>2026-04-17T12:20:54.999Z</time></trkpt><trkpt lat="46.0778003856451" lon="11.155137392011726"><ele>345.0</ele><time>2026-04-17T12:20:55.999Z</time></trkpt><trkpt lat="46.077863378327905" lon="11.15536077881189"><ele>345.0</ele><time>2026-04-17T12:20:56.999Z</time></trkpt><trkpt lat="46.07790547000365" lon="11.155613020831492"><ele>345.0</ele><time>2026-04-17T12:20:58Z</time></trkpt><trkpt lat="46.07793227954414" lon="11.155878518141707"><ele>345.0</ele><time>2026-04-17T12:20:59Z</time></trkpt><trkpt lat="46.07793694687071" lon="11.156151771929014"><ele>345.3333333333333</ele><time>2026-04-17T12:21:00Z</time></trkpt><trkpt lat="46.077932741829684" lon="11.156452277377316"><ele>345.66666666666663</ele><time>2026-04-17T12:21:01Z</time></trkpt><trkpt lat="46.077927601406486" lon="11.156790846071525"><ele>346.0</ele><time>2026-04-17T12:21:02Z</time></trkpt><trkpt lat="46.077923960946976" lon="11.157105836289048"><ele>347.3333333333333</ele><time>2026-04-17T12:21:03Z</time></trkpt><trkpt lat="46.07792150329257" lon="11.157388146904186"><ele>348.6666666666667</ele><time>2026-04-17T12:21:04Z</time></trkpt><trkpt lat="46.077938461267294" lon="11.15765244100021"><ele>350.0</ele><time>2026-04-17T12:21:05Z</time></trkpt><trkpt lat="46.07797052260459" lon="11.157915809383589"><ele>355.0</ele><time>2026-04-17T12:21:06Z</time></trkpt><trkpt lat="46.0780189845981" lon="11.158216629994968"><ele>360.0</ele><time>2026-04-17T12:21:07Z</time></trkpt><trkpt lat="46.07808305794421" lon="11.158518823365123"><ele>365.0</ele><time>2026-04-17T12:21:08Z</time></trkpt><trkpt lat="46.07816541148557" lon="11.158806989609719"><ele>358.6666666666667</ele><time>2026-04-17T12:21:09Z</time></trkpt><trkpt lat="46.07825894546242" lon="11.159080043419548"><ele>352.3333333333333</ele><time>2026-04-17T12:21:10Z</time></trkpt><trkpt lat="46.078364355777076" lon="11.15932944731832"><ele>346.0</ele><time>2026-04-17T12:21:11Z</time></trkpt><trkpt lat="46.078489323016974" lon="11.159573553287025"><ele>346.0</ele><time>2026-04-17T12:21:12Z</time></trkpt><trkpt lat="46.07862667600965" lon="11.159812490193977"><ele>346.0</ele><time>2026-04-17T12:21:13Z</time></trkpt><trkpt lat="46.07878099002394" lon="11.160038984923123"><ele>346.0</ele><time>2026-04-17T12:21:14Z</time></trkpt><trkpt lat="46.078951075561164" lon="11.160257392034971"><ele>348.0</ele><time>2026-04-17T12:21:15Z</time></trkpt><trkpt lat="46.07913907537537" lon="11.160461013554844"><ele>350.0</ele><time>2026-04-17T12:21:16Z</time></trkpt><trkpt lat="46.07934052872347" lon="11.16066034257293"><ele>360.0</ele><time>2026-04-17T12:21:17Z</time></trkpt><trkpt lat="46.07955126292513" lon="11.160880269846464"><ele>370.0</ele><time>2026-04-17T12:21:18Z</time></trkpt><trkpt lat="46.079768375946784" lon="11.161119986733693"><ele>362.0</ele><time>2026-04-17T12:21:19Z</time></trkpt><trkpt lat="46.07996781894502" lon="11.16136018562253"><ele>354.0</ele><time>2026-04-17T12:21:20Z</time></trkpt><trkpt lat="46.08014517117286" lon="11.16159758953998"><ele>354.0</ele><time>2026-04-17T12:21:21Z</time></trkpt><trkpt lat="46.080309785252375" lon="11.161850360740965"><ele>354.0</ele><time>2026-04-17T12:21:22Z</time></trkpt><trkpt lat="46.080469530412735" lon="11.16212107170778"><ele>373.5</ele><time>2026-04-17T12:21:23Z</time></trkpt><trkpt lat="46.08062229556312" lon="11.162404105841288"><ele>393.0</ele><time>2026-04-17T12:21:24Z</time></trkpt><trkpt lat="46.08076095011829" lon="11.162672725477774"><ele>393.0</ele><time>2026-04-17T12:21:25Z</time></trkpt><trkpt lat="46.080883724076344" lon="11.162931062123311"><ele>393.0</ele><time>2026-04-17T12:21:26Z</time></trkpt><trkpt lat="46.08099293630434" lon="11.163179896331696"><ele>393.0</ele><time>2026-04-17T12:21:27Z</time></trkpt><trkpt lat="46.08109196487855" lon="11.16343061612396"><ele>393.0</ele><time>2026-04-17T12:21:28.015Z</time></trkpt><trkpt lat="46.08118058423345" lon="11.163691052103145"><ele>393.0</ele><time>2026-04-17T12:21:29.02Z</time></trkpt><trkpt lat="46.081256676464996" lon="11.16395754865987"><ele>393.0</ele><time>2026-04-17T12:21:30.019Z</time></trkpt><trkpt lat="46.081334147001904" lon="11.164223495498783"><ele>393.0</ele><time>2026-04-17T12:21:31.021Z</time></trkpt><trkpt lat="46.0814409954464" lon="11.168024699369859"><ele>393.0</ele><time>2026-04-17T12:21:35.847Z</time></trkpt><trkpt lat="46.08144501222763" lon="11.168928576368145"><ele>398.0</ele><time>2026-04-17T12:21:36.846Z</time></trkpt><trkpt lat="46.08145300967387" lon="11.169833439348675"><ele>396.0</ele><time>2026-04-17T12:21:37.846Z</time></trkpt><trkpt lat="46.081559675090666" lon="11.170722842846644"><ele>396.0</ele><time>2026-04-17T12:21:38.846Z</time></trkpt><trkpt lat="46.08174782543209" lon="11.171586449493024"><ele>396.0</ele><time>2026-04-17T12:21:39.846Z</time></trkpt><trkpt lat="46.08193481046786" lon="11.172451071441943"><ele>390.0</ele><time>2026-04-17T12:21:40.846Z</time></trkpt><trkpt lat="46.08212239585073" lon="11.173314457419373"><ele>402.0</ele><time>2026-04-17T12:21:41.846Z</time></trkpt><trkpt lat="46.082308429859594" lon="11.174179058218927"><ele>446.0</ele><time>2026-04-17T12:21:42.846Z</time></trkpt><trkpt lat="46.082494975645375" lon="11.175043456967513"><ele>397.0</ele><time>2026-04-17T12:21:43.846Z</time></trkpt><trkpt lat="46.08268558165417" lon="11.175906565884606"><ele>377.0</ele><time>2026-04-17T12:21:44.846Z</time></trkpt><trkpt lat="46.08286427338243" lon="11.176933860416689"><ele>377.0</ele><time>2026-04-17T12:22:21Z</time></trkpt><trkpt lat="46.08290030446628" lon="11.177135321198815"><ele>377.0</ele><time>2026-04-17T12:22:22Z</time></trkpt><trkpt lat="46.08291947547537" lon="11.177358211875045"><ele>377.0</ele><time>2026-04-17T12:22:23Z</time></trkpt><trkpt lat="46.08294384786806" lon="11.177591713550896"><ele>377.33333333333337</ele><time>2026-04-17T12:22:24Z</time></trkpt><trkpt lat="46.08297625406484" lon="11.177846114754272"><ele>377.6666666666667</ele><time>2026-04-17T12:22:25Z</time></trkpt><trkpt lat="46.0829918772738" lon="11.17813019723334"><ele>378.0</ele><time>2026-04-17T12:22:26Z</time></trkpt><trkpt lat="46.08299038046482" lon="11.178361511379265"><ele>378.0</ele><time>2026-04-17T12:22:27Z</time></trkpt><trkpt lat="46.08297776258922" lon="11.178594309706632"><ele>378.0</ele><time>2026-04-17T12:22:28Z</time></trkpt><trkpt lat="46.082968929290736" lon="11.17880933803949"><ele>378.0</ele><time>2026-04-17T12:22:29Z</time></trkpt><trkpt lat="46.08295680354819" lon="11.17904144853836"><ele>378.6666666666667</ele><time>2026-04-17T12:22:30Z</time></trkpt><trkpt lat="46.08293835201967" lon="11.179288587601736"><ele>379.33333333333337</ele><time>2026-04-17T12:22:31Z</time></trkpt><trkpt lat="46.082924829469555" lon="11.179630002306753"><ele>380.0</ele><time>2026-04-17T12:22:32Z</time></trkpt><trkpt lat="46.08291673120128" lon="11.179940849645417"><ele>380.0</ele><time>2026-04-17T12:22:33Z</time></trkpt><trkpt lat="46.082894556871786" lon="11.180225834016392"><ele>380.0</ele><time>2026-04-17T12:22:34Z</time></trkpt><trkpt lat="46.08287914155156" lon="11.180504431626247"><ele>380.0</ele><time>2026-04-17T12:22:35Z</time></trkpt><trkpt lat="46.08289493225751" lon="11.180806767678515"><ele>379.6666666666667</ele><time>2026-04-17T12:22:36Z</time></trkpt><trkpt lat="46.08293956134782" lon="11.181128800933127"><ele>379.3333333333333</ele><time>2026-04-17T12:22:37Z</time></trkpt><trkpt lat="46.082971907088435" lon="11.181414844003044"><ele>379.0</ele><time>2026-04-17T12:22:38Z</time></trkpt><trkpt lat="46.08300611960873" lon="11.181659938929583"><ele>379.0</ele><time>2026-04-17T12:22:39Z</time></trkpt><trkpt lat="46.08303822053435" lon="11.181904875337858"><ele>379.0</ele><time>2026-04-17T12:22:40Z</time></trkpt><trkpt lat="46.08307165224672" lon="11.182154845809363"><ele>379.0</ele><time>2026-04-17T12:22:41Z</time></trkpt><trkpt lat="46.08309945908815" lon="11.18241543702717"><ele>379.0</ele><time>2026-04-17T12:22:42Z</time></trkpt><trkpt lat="46.083107195819" lon="11.182688156841738"><ele>379.0</ele><time>2026-04-17T12:22:43Z</time></trkpt><trkpt lat="46.08311152620143" lon="11.182927074203066"><ele>379.0</ele><time>2026-04-17T12:22:44Z</time></trkpt><trkpt lat="46.08310138294466" lon="11.18318459216143"><ele>380.3333333333333</ele><time>2026-04-17T12:22:45Z</time></trkpt><trkpt lat="46.083077426843715" lon="11.183470024097321"><ele>381.6666666666667</ele><time>2026-04-17T12:22:46Z</time></trkpt><trkpt lat="46.08302270987828" lon="11.183799065682958"><ele>383.0</ele><time>2026-04-17T12:22:47Z</time></trkpt><trkpt lat="46.08295868793268" lon="11.1840999644553"><ele>384.0</ele><time>2026-04-17T12:22:48Z</time></trkpt><trkpt lat="46.08287859674616" lon="11.184358203430673"><ele>385.0</ele><time>2026-04-17T12:22:49Z</time></trkpt><trkpt lat="46.08277082062931" lon="11.184624238106474"><ele>386.0</ele><time>2026-04-17T12:22:50Z</time></trkpt><trkpt lat="46.082644092617215" lon="11.184940076752197"><ele>386.5</ele><time>2026-04-17T12:22:51Z</time></trkpt><trkpt lat="46.082520509228594" lon="11.185252942293122"><ele>387.0</ele><time>2026-04-17T12:22:52Z</time></trkpt><trkpt lat="46.08241870914956" lon="11.185530709673852"><ele>386.66666666666663</ele><time>2026-04-17T12:22:53Z</time></trkpt><trkpt lat="46.08233416097273" lon="11.185789007274634"><ele>386.3333333333333</ele><time>2026-04-17T12:22:54Z</time></trkpt><trkpt lat="46.08227610144914" lon="11.1860701432326"><ele>386.0</ele><time>2026-04-17T12:22:55Z</time></trkpt><trkpt lat="46.0822341916501" lon="11.186365864844946"><ele>385.3333333333333</ele><time>2026-04-17T12:22:56Z</time></trkpt><trkpt lat="46.08222225373721" lon="11.186671663629166"><ele>384.66666666666663</ele><time>2026-04-17T12:22:57Z</time></trkpt><trkpt lat="46.082238594436106" lon="11.186983679918118"><ele>384.0</ele><time>2026-04-17T12:22:58Z</time></trkpt><trkpt lat="46.08226853146208" lon="11.187311828645973"><ele>383.0</ele><time>2026-04-17T12:22:59Z</time></trkpt><trkpt lat="46.08229699519888" lon="11.18766668640113"><ele>382.0</ele><time>2026-04-17T12:23:00Z</time></trkpt><trkpt lat="46.08234499536534" lon="11.187992456741341"><ele>382.66666666666663</ele><time>2026-04-17T12:23:01Z</time></trkpt><trkpt lat="46.08237425713831" lon="11.188292544850826"><ele>383.3333333333333</ele><time>2026-04-17T12:23:02Z</time></trkpt><trkpt lat="46.082400975699464" lon="11.188583534859912"><ele>384.0</ele><time>2026-04-17T12:23:03Z</time></trkpt><trkpt lat="46.08242684735558" lon="11.18887071199771"><ele>384.33333333333337</ele><time>2026-04-17T12:23:04Z</time></trkpt><trkpt lat="46.082443023107814" lon="11.189179233155219"><ele>384.6666666666667</ele><time>2026-04-17T12:23:05Z</time></trkpt><trkpt lat="46.082443284272806" lon="11.189494751950527"><ele>385.0</ele><time>2026-04-17T12:23:06Z</time></trkpt><trkpt lat="46.082427012711705" lon="11.189827039833132"><ele>385.0</ele><time>2026-04-17T12:23:07Z</time></trkpt><trkpt lat="46.082394623166756" lon="11.190167533942617"><ele>385.0</ele><time>2026-04-17T12:23:08Z</time></trkpt><trkpt lat="46.08235899685157" lon="11.190497247111796"><ele>385.33333333333337</ele><time>2026-04-17T12:23:09Z</time></trkpt><trkpt lat="46.08232513082604" lon="11.190794661184583"><ele>385.66666666666663</ele><time>2026-04-17T12:23:10Z</time></trkpt><trkpt lat="46.08229625161843" lon="11.191076931935479"><ele>386.0</ele><time>2026-04-17T12:23:11Z</time></trkpt><trkpt lat="46.08226064157046" lon="11.191362325390498"><ele>387.0</ele><time>2026-04-17T12:23:12Z</time></trkpt><trkpt lat="46.08222950324507" lon="11.191661822520496"><ele>388.0</ele><time>2026-04-17T12:23:13Z</time></trkpt><trkpt lat="46.082205211993184" lon="11.191988465944345"><ele>389.0</ele><time>2026-04-17T12:23:14Z</time></trkpt><trkpt lat="46.082178133998625" lon="11.192338215464668"><ele>390.5</ele><time>2026-04-17T12:23:15Z</time></trkpt><trkpt lat="46.08215110028103" lon="11.19269205734901"><ele>392.0</ele><time>2026-04-17T12:23:16Z</time></trkpt><trkpt lat="46.08212271728348" lon="11.193047830444359"><ele>394.0</ele><time>2026-04-17T12:23:17Z</time></trkpt><trkpt lat="46.08209477850406" lon="11.193405777428723"><ele>396.0</ele><time>2026-04-17T12:23:18Z</time></trkpt><trkpt lat="46.08206169068535" lon="11.193762680078748"><ele>397.5</ele><time>2026-04-17T12:23:19Z</time></trkpt><trkpt lat="46.082032933987705" lon="11.194120276403137"><ele>399.0</ele><time>2026-04-17T12:23:20Z</time></trkpt><trkpt lat="46.08200583273635" lon="11.194475811863791"><ele>399.0</ele><time>2026-04-17T12:23:21Z</time></trkpt><trkpt lat="46.08197947574854" lon="11.194829637397765"><ele>399.0</ele><time>2026-04-17T12:23:22Z</time></trkpt><trkpt lat="46.08195042706136" lon="11.195181583842091"><ele>400.5</ele><time>2026-04-17T12:23:23Z</time></trkpt><trkpt lat="46.081920754800244" lon="11.195512321610185"><ele>402.0</ele><time>2026-04-17T12:23:24Z</time></trkpt><trkpt lat="46.08189978549765" lon="11.195825677863969"><ele>402.66666666666663</ele><time>2026-04-17T12:23:25Z</time></trkpt><trkpt lat="46.08186989886032" lon="11.196145924456356"><ele>403.3333333333333</ele><time>2026-04-17T12:23:26Z</time></trkpt><trkpt lat="46.081842405528164" lon="11.196460805304785"><ele>404.0</ele><time>2026-04-17T12:23:27Z</time></trkpt><trkpt lat="46.081803830408674" lon="11.196775499607257"><ele>404.0</ele><time>2026-04-17T12:23:28Z</time></trkpt><trkpt lat="46.08174182483674" lon="11.197080514754804"><ele>404.0</ele><time>2026-04-17T12:23:29Z</time></trkpt><trkpt lat="46.081665038347396" lon="11.197366216608037"><ele>404.0</ele><time>2026-04-17T12:23:30Z</time></trkpt><trkpt lat="46.08156996727116" lon="11.197641940092595"><ele>406.0</ele><time>2026-04-17T12:23:31Z</time></trkpt><trkpt lat="46.08145503254167" lon="11.197934041441274"><ele>408.0</ele><time>2026-04-17T12:23:32Z</time></trkpt><trkpt lat="46.08132860096646" lon="11.1982405117801"><ele>408.0</ele><time>2026-04-17T12:23:33Z</time></trkpt><trkpt lat="46.081188487150456" lon="11.19856276161032"><ele>408.0</ele><time>2026-04-17T12:23:34Z</time></trkpt><trkpt lat="46.081043970215276" lon="11.198883615812944"><ele>409.0</ele><time>2026-04-17T12:23:35Z</time></trkpt><trkpt lat="46.08091609348681" lon="11.199178552252153"><ele>410.0</ele><time>2026-04-17T12:23:36Z</time></trkpt><trkpt lat="46.08079868681986" lon="11.199449388263817"><ele>412.3333333333333</ele><time>2026-04-17T12:23:37Z</time></trkpt><trkpt lat="46.08068184272907" lon="11.199716911776484"><ele>414.66666666666663</ele><time>2026-04-17T12:23:38Z</time></trkpt><trkpt lat="46.08056707596923" lon="11.199984205428771"><ele>417.0</ele><time>2026-04-17T12:23:39Z</time></trkpt><trkpt lat="46.080454462954336" lon="11.200249463356915"><ele>417.0</ele><time>2026-04-17T12:23:40Z</time></trkpt><trkpt lat="46.08033838185612" lon="11.200520386507021"><ele>417.0</ele><time>2026-04-17T12:23:41Z</time></trkpt><trkpt lat="46.080214495591086" lon="11.200801792414062"><ele>416.5</ele><time>2026-04-17T12:23:42Z</time></trkpt><trkpt lat="46.080087502072125" lon="11.201076900039457"><ele>416.0</ele><time>2026-04-17T12:23:43Z</time></trkpt><trkpt lat="46.07994782271958" lon="11.20134044783879"><ele>418.5</ele><time>2026-04-17T12:23:44Z</time></trkpt><trkpt lat="46.079792246795336" lon="11.201590865675161"><ele>421.0</ele><time>2026-04-17T12:23:45Z</time></trkpt><trkpt lat="46.07961508934251" lon="11.201839572210197"><ele>421.0</ele><time>2026-04-17T12:23:46Z</time></trkpt><trkpt lat="46.07941574995884" lon="11.202101239950718"><ele>421.0</ele><time>2026-04-17T12:23:47Z</time></trkpt><trkpt lat="46.079208956826186" lon="11.202366907139487"><ele>421.5</ele><time>2026-04-17T12:23:48Z</time></trkpt><trkpt lat="46.079006998493185" lon="11.202638094769995"><ele>422.0</ele><time>2026-04-17T12:23:49Z</time></trkpt><trkpt lat="46.078817409475334" lon="11.202903681652138"><ele>422.0</ele><time>2026-04-17T12:23:50Z</time></trkpt><trkpt lat="46.07864367874865" lon="11.203146852026688"><ele>422.0</ele><time>2026-04-17T12:23:51Z</time></trkpt><trkpt lat="46.078477774533155" lon="11.203368199473783"><ele>422.0</ele><time>2026-04-17T12:23:52Z</time></trkpt><trkpt lat="46.07832080152916" lon="11.203581584511804"><ele>422.0</ele><time>2026-04-17T12:23:53Z</time></trkpt><trkpt lat="46.07816460749767" lon="11.203792933109385"><ele>422.0</ele><time>2026-04-17T12:23:54Z</time></trkpt><trkpt lat="46.078003560333734" lon="11.204010293546173"><ele>423.0</ele><time>2026-04-17T12:23:55Z</time></trkpt><trkpt lat="46.07784100121901" lon="11.20423301155402"><ele>424.0</ele><time>2026-04-17T12:23:56Z</time></trkpt><trkpt lat="46.07768064029242" lon="11.204450461417323"><ele>425.0</ele><time>2026-04-17T12:23:57Z</time></trkpt><trkpt lat="46.077508872863916" lon="11.204688398550546"><ele>425.5</ele><time>2026-04-17T12:23:58Z</time></trkpt><trkpt lat="46.07733988283451" lon="11.204925506593414"><ele>426.0</ele><time>2026-04-17T12:23:59Z</time></trkpt><trkpt lat="46.0771779307911" lon="11.205165979320684"><ele>426.0</ele><time>2026-04-17T12:24:00Z</time></trkpt><trkpt lat="46.07702655549618" lon="11.205409149813624"><ele>426.0</ele><time>2026-04-17T12:24:01Z</time></trkpt><trkpt lat="46.076883417610716" lon="11.205661390227913"><ele>427.0</ele><time>2026-04-17T12:24:02Z</time></trkpt><trkpt lat="46.076742602276646" lon="11.205932685679395"><ele>428.0</ele><time>2026-04-17T12:24:03Z</time></trkpt><trkpt lat="46.07660151001815" lon="11.206223599084604"><ele>427.0</ele><time>2026-04-17T12:24:04Z</time></trkpt><trkpt lat="46.07646667613132" lon="11.206529932315288"><ele>426.0</ele><time>2026-04-17T12:24:05Z</time></trkpt><trkpt lat="46.07634783413893" lon="11.206842255703425"><ele>426.0</ele><time>2026-04-17T12:24:06Z</time></trkpt><trkpt lat="46.07623791740367" lon="11.207168691154905"><ele>426.0</ele><time>2026-04-17T12:24:07Z</time></trkpt><trkpt lat="46.07613441607935" lon="11.207484437501948"><ele>426.5</ele><time>2026-04-17T12:24:08Z</time></trkpt><trkpt lat="46.07603444662243" lon="11.207787713012342"><ele>427.0</ele><time>2026-04-17T12:24:09Z</time></trkpt><trkpt lat="46.07593844841703" lon="11.208072192517283"><ele>427.0</ele><time>2026-04-17T12:24:10Z</time></trkpt><trkpt lat="46.07584347178909" lon="11.208344587521893"><ele>427.0</ele><time>2026-04-17T12:24:11Z</time></trkpt><trkpt lat="46.07574575641177" lon="11.208629411683782"><ele>427.0</ele><time>2026-04-17T12:24:12Z</time></trkpt><trkpt lat="46.075638544569095" lon="11.208939512653595"><ele>429.0</ele><time>2026-04-17T12:24:13Z</time></trkpt><trkpt lat="46.0755327040958" lon="11.209241304012437"><ele>431.0</ele><time>2026-04-17T12:24:14Z</time></trkpt><trkpt lat="46.0754319248909" lon="11.209519436466195"><ele>431.0</ele><time>2026-04-17T12:24:15Z</time></trkpt><trkpt lat="46.07532398125821" lon="11.209797582686724"><ele>431.0</ele><time>2026-04-17T12:24:16Z</time></trkpt><trkpt lat="46.07519459588357" lon="11.210091939175598"><ele>432.0</ele><time>2026-04-17T12:24:17Z</time></trkpt><trkpt lat="46.075044297212976" lon="11.210402478208776"><ele>433.0</ele><time>2026-04-17T12:24:18Z</time></trkpt><trkpt lat="46.07488136212828" lon="11.210722229559467"><ele>433.0</ele><time>2026-04-17T12:24:19Z</time></trkpt><trkpt lat="46.07471265921625" lon="11.21102806175474"><ele>433.0</ele><time>2026-04-17T12:24:20Z</time></trkpt><trkpt lat="46.07456152752671" lon="11.211308066790643"><ele>434.0</ele><time>2026-04-17T12:24:21Z</time></trkpt><trkpt lat="46.07442402297533" lon="11.211573230801205"><ele>435.0</ele><time>2026-04-17T12:24:22Z</time></trkpt><trkpt lat="46.07429078320839" lon="11.211827354188593"><ele>435.0</ele><time>2026-04-17T12:24:23Z</time></trkpt><trkpt lat="46.07415586844147" lon="11.212082062745912"><ele>435.0</ele><time>2026-04-17T12:24:24Z</time></trkpt><trkpt lat="46.07402344763024" lon="11.212332687214175"><ele>435.0</ele><time>2026-04-17T12:24:25Z</time></trkpt><trkpt lat="46.073890981389354" lon="11.212584058251505"><ele>434.0</ele><time>2026-04-17T12:24:26Z</time></trkpt><trkpt lat="46.07375522160421" lon="11.212838576955189"><ele>433.0</ele><time>2026-04-17T12:24:27Z</time></trkpt><trkpt lat="46.07361959395285" lon="11.213100028730805"><ele>432.0</ele><time>2026-04-17T12:24:28Z</time></trkpt><trkpt lat="46.07348602782373" lon="11.213358028779417"><ele>432.66666666666663</ele><time>2026-04-17T12:24:29Z</time></trkpt><trkpt lat="46.073359200741855" lon="11.213595825244742"><ele>433.3333333333333</ele><time>2026-04-17T12:24:30Z</time></trkpt><trkpt lat="46.073241427826865" lon="11.213815307620765"><ele>434.0</ele><time>2026-04-17T12:24:31Z</time></trkpt><trkpt lat="46.073126498760324" lon="11.214032540447873"><ele>435.3333333333333</ele><time>2026-04-17T12:24:32Z</time></trkpt><trkpt lat="46.07301132051041" lon="11.214255790548734"><ele>436.66666666666663</ele><time>2026-04-17T12:24:33Z</time></trkpt><trkpt lat="46.07289284249149" lon="11.214483281358607"><ele>438.0</ele><time>2026-04-17T12:24:34Z</time></trkpt><trkpt lat="46.07276828891302" lon="11.214712772570305"><ele>437.33333333333337</ele><time>2026-04-17T12:24:35Z</time></trkpt><trkpt lat="46.072638226320194" lon="11.214946796588375"><ele>436.6666666666667</ele><time>2026-04-17T12:24:36Z</time></trkpt><trkpt lat="46.07249873528142" lon="11.215184055441206"><ele>436.0</ele><time>2026-04-17T12:24:37Z</time></trkpt><trkpt lat="46.07234179502147" lon="11.21541901829242"><ele>436.0</ele><time>2026-04-17T12:24:38Z</time></trkpt><trkpt lat="46.07216780826503" lon="11.215645596473486"><ele>436.0</ele><time>2026-04-17T12:24:39Z</time></trkpt><trkpt lat="46.07198321118688" lon="11.215873858661684"><ele>438.5</ele><time>2026-04-17T12:24:40Z</time></trkpt><trkpt lat="46.07179841666321" lon="11.216116658778763"><ele>441.0</ele><time>2026-04-17T12:24:41Z</time></trkpt><trkpt lat="46.071618805458876" lon="11.216356046691004"><ele>442.0</ele><time>2026-04-17T12:24:42Z</time></trkpt><trkpt lat="46.07145269090331" lon="11.216580486654449"><ele>443.0</ele><time>2026-04-17T12:24:43Z</time></trkpt><trkpt lat="46.071290643686794" lon="11.21679354407615"><ele>444.0</ele><time>2026-04-17T12:24:44Z</time></trkpt><trkpt lat="46.071125987472335" lon="11.217009095121092"><ele>444.0</ele><time>2026-04-17T12:24:45Z</time></trkpt><trkpt lat="46.070960122278585" lon="11.217230382934483"><ele>444.0</ele><time>2026-04-17T12:24:46Z</time></trkpt><trkpt lat="46.070793072761546" lon="11.217454626715545"><ele>443.66666666666663</ele><time>2026-04-17T12:24:47Z</time></trkpt><trkpt lat="46.07062878683429" lon="11.217674844594235"><ele>443.3333333333333</ele><time>2026-04-17T12:24:48Z</time></trkpt><trkpt lat="46.07047382157674" lon="11.21787756122831"><ele>443.0</ele><time>2026-04-17T12:24:49Z</time></trkpt><trkpt lat="46.07032941568156" lon="11.218069059069522"><ele>442.66666666666663</ele><time>2026-04-17T12:24:50Z</time></trkpt><trkpt lat="46.070186705957155" lon="11.218254695315423"><ele>442.33333333333337</ele><time>2026-04-17T12:24:51Z</time></trkpt><trkpt lat="46.070041124840586" lon="11.218445736204743"><ele>442.0</ele><time>2026-04-17T12:24:52Z</time></trkpt><trkpt lat="46.069892694241226" lon="11.2186427862849"><ele>442.0</ele><time>2026-04-17T12:24:53Z</time></trkpt><trkpt lat="46.06973887029842" lon="11.218849768782519"><ele>442.0</ele><time>2026-04-17T12:24:54Z</time></trkpt><trkpt lat="46.069572063096835" lon="11.219074187123512"><ele>442.0</ele><time>2026-04-17T12:24:55Z</time></trkpt><trkpt lat="46.06939399648841" lon="11.219309502786643"><ele>443.0</ele><time>2026-04-17T12:24:56Z</time></trkpt><trkpt lat="46.069213053344214" lon="11.219548584285942"><ele>444.0</ele><time>2026-04-17T12:24:57Z</time></trkpt><trkpt lat="46.06903711381844" lon="11.21978120602129"><ele>446.0</ele><time>2026-04-17T12:24:58Z</time></trkpt><trkpt lat="46.068860274861585" lon="11.220018457866638"><ele>448.0</ele><time>2026-04-17T12:24:59Z</time></trkpt><trkpt lat="46.06868188129202" lon="11.220256332330182"><ele>448.0</ele><time>2026-04-17T12:25:00Z</time></trkpt><trkpt lat="46.06850526217023" lon="11.220492387084184"><ele>448.0</ele><time>2026-04-17T12:25:01Z</time></trkpt><trkpt lat="46.068329711601095" lon="11.220729459014882"><ele>448.5</ele><time>2026-04-17T12:25:02Z</time></trkpt><trkpt lat="46.068148775128854" lon="11.220964741403009"><ele>449.0</ele><time>2026-04-17T12:25:03Z</time></trkpt><trkpt lat="46.06796798767264" lon="11.221197908692726"><ele>449.0</ele><time>2026-04-17T12:25:04Z</time></trkpt><trkpt lat="46.067799096723945" lon="11.221419301297193"><ele>449.0</ele><time>2026-04-17T12:25:05Z</time></trkpt><trkpt lat="46.06764068289533" lon="11.221625474486538"><ele>449.0</ele><time>2026-04-17T12:25:06Z</time></trkpt><trkpt lat="46.06749355947327" lon="11.221820351358426"><ele>448.0</ele><time>2026-04-17T12:25:07Z</time></trkpt><trkpt lat="46.06735335403616" lon="11.222007424316477"><ele>447.0</ele><time>2026-04-17T12:25:08Z</time></trkpt><trkpt lat="46.06721616594676" lon="11.222188445550607"><ele>446.0</ele><time>2026-04-17T12:25:09Z</time></trkpt><trkpt lat="46.0670868749614" lon="11.222358792390473"><ele>449.0</ele><time>2026-04-17T12:25:10Z</time></trkpt><trkpt lat="46.06694858658055" lon="11.222540149138934"><ele>452.0</ele><time>2026-04-17T12:25:11Z</time></trkpt><trkpt lat="46.066794161959955" lon="11.222741177087988"><ele>455.0</ele><time>2026-04-17T12:25:12Z</time></trkpt><trkpt lat="46.066629356778854" lon="11.222963391023029"><ele>455.5</ele><time>2026-04-17T12:25:13Z</time></trkpt><trkpt lat="46.066453570108216" lon="11.22320204694479"><ele>456.0</ele><time>2026-04-17T12:25:14Z</time></trkpt><trkpt lat="46.06626624391272" lon="11.223456240015587"><ele>456.0</ele><time>2026-04-17T12:25:15Z</time></trkpt><trkpt lat="46.06608386562267" lon="11.22369905443902"><ele>456.0</ele><time>2026-04-17T12:25:16Z</time></trkpt><trkpt lat="46.06591525699887" lon="11.223923615476634"><ele>455.33333333333337</ele><time>2026-04-17T12:25:17Z</time></trkpt><trkpt lat="46.065753528926486" lon="11.224140020141798"><ele>454.6666666666667</ele><time>2026-04-17T12:25:18Z</time></trkpt><trkpt lat="46.065596773943504" lon="11.224345843732268"><ele>454.0</ele><time>2026-04-17T12:25:19Z</time></trkpt><trkpt lat="46.06544195750113" lon="11.224548943441219"><ele>454.0</ele><time>2026-04-17T12:25:20Z</time></trkpt><trkpt lat="46.065290894078224" lon="11.224750195432103"><ele>454.0</ele><time>2026-04-17T12:25:21Z</time></trkpt><trkpt lat="46.06514305645589" lon="11.224949925954085"><ele>454.0</ele><time>2026-04-17T12:25:22Z</time></trkpt><trkpt lat="46.06499542101904" lon="11.225146399358787"><ele>454.33333333333337</ele><time>2026-04-17T12:25:23Z</time></trkpt><trkpt lat="46.064845845441916" lon="11.225339752010965"><ele>454.66666666666663</ele><time>2026-04-17T12:25:24Z</time></trkpt><trkpt lat="46.06469628194072" lon="11.225530367146279"><ele>455.0</ele><time>2026-04-17T12:25:25Z</time></trkpt><trkpt lat="46.064545511426914" lon="11.22571733893844"><ele>456.0</ele><time>2026-04-17T12:25:26Z</time></trkpt><trkpt lat="46.06439030412221" lon="11.225900037652641"><ele>457.0</ele><time>2026-04-17T12:25:27Z</time></trkpt><trkpt lat="46.06423427789221" lon="11.226071492732052"><ele>458.0</ele><time>2026-04-17T12:25:28Z</time></trkpt><trkpt lat="46.06408212324959" lon="11.2262293368685"><ele>458.66666666666663</ele><time>2026-04-17T12:25:29Z</time></trkpt><trkpt lat="46.06392741163918" lon="11.226385716974564"><ele>459.33333333333337</ele><time>2026-04-17T12:25:30Z</time></trkpt><trkpt lat="46.063769063326944" lon="11.226537587348728"><ele>460.0</ele><time>2026-04-17T12:25:31Z</time></trkpt><trkpt lat="46.06360282397687" lon="11.226690707085414"><ele>460.33333333333337</ele><time>2026-04-17T12:25:32Z</time></trkpt><trkpt lat="46.06341920911931" lon="11.226855816737075"><ele>460.66666666666663</ele><time>2026-04-17T12:25:33Z</time></trkpt><trkpt lat="46.06321775587917" lon="11.227024691291135"><ele>461.0</ele><time>2026-04-17T12:25:34Z</time></trkpt><trkpt lat="46.062999300418014" lon="11.227200628779707"><ele>460.5</ele><time>2026-04-17T12:25:35Z</time></trkpt><trkpt lat="46.06276262767444" lon="11.227383324121167"><ele>460.0</ele><time>2026-04-17T12:25:36Z</time></trkpt><trkpt lat="46.062510956998246" lon="11.227564886505562"><ele>459.5</ele><time>2026-04-17T12:25:37Z</time></trkpt><trkpt lat="46.062246952233075" lon="11.227753491238785"><ele>459.0</ele><time>2026-04-17T12:25:38Z</time></trkpt><trkpt lat="46.061975867946636" lon="11.227952633142364"><ele>458.5</ele><time>2026-04-17T12:25:39Z</time></trkpt><trkpt lat="46.06170459969902" lon="11.228153722578408"><ele>458.0</ele><time>2026-04-17T12:25:40Z</time></trkpt><trkpt lat="46.06144552455374" lon="11.228342814463055"><ele>460.0</ele><time>2026-04-17T12:25:41Z</time></trkpt><trkpt lat="46.06120402294963" lon="11.228519917581835"><ele>462.0</ele><time>2026-04-17T12:25:42Z</time></trkpt><trkpt lat="46.06095999095593" lon="11.228698275034512"><ele>462.5</ele><time>2026-04-17T12:25:43Z</time></trkpt><trkpt lat="46.06071308134302" lon="11.228876686781126"><ele>463.0</ele><time>2026-04-17T12:25:44Z</time></trkpt><trkpt lat="46.060471885862945" lon="11.229058341354968"><ele>463.5</ele><time>2026-04-17T12:25:45Z</time></trkpt><trkpt lat="46.06023307986658" lon="11.229234108415696"><ele>464.0</ele><time>2026-04-17T12:25:46Z</time></trkpt><trkpt lat="46.05999903130685" lon="11.229412294238031"><ele>464.0</ele><time>2026-04-17T12:25:47Z</time></trkpt><trkpt lat="46.059761340556875" lon="11.229583766546819"><ele>464.0</ele><time>2026-04-17T12:25:48Z</time></trkpt><trkpt lat="46.059524967586036" lon="11.229754333042154"><ele>464.0</ele><time>2026-04-17T12:25:49Z</time></trkpt><trkpt lat="46.05929322244278" lon="11.229924591497443"><ele>464.0</ele><time>2026-04-17T12:25:50Z</time></trkpt><trkpt lat="46.05906234036345" lon="11.230093738856487"><ele>464.0</ele><time>2026-04-17T12:25:51Z</time></trkpt><trkpt lat="46.05882132895733" lon="11.23026653317664"><ele>464.0</ele><time>2026-04-17T12:25:52Z</time></trkpt><trkpt lat="46.05856377287856" lon="11.23045487081795"><ele>464.0</ele><time>2026-04-17T12:25:53Z</time></trkpt><trkpt lat="46.05829820239389" lon="11.230655630224394"><ele>464.0</ele><time>2026-04-17T12:25:54Z</time></trkpt><trkpt lat="46.05802377122051" lon="11.230861655257494"><ele>464.0</ele><time>2026-04-17T12:25:55Z</time></trkpt><trkpt lat="46.057741355484964" lon="11.231069424327252"><ele>464.0</ele><time>2026-04-17T12:25:56Z</time></trkpt><trkpt lat="46.05746264269494" lon="11.231273562473747"><ele>463.5</ele><time>2026-04-17T12:25:57Z</time></trkpt><trkpt lat="46.057205518298545" lon="11.231460961349118"><ele>463.0</ele><time>2026-04-17T12:25:58Z</time></trkpt><trkpt lat="46.05695637748106" lon="11.231642151880727"><ele>463.0</ele><time>2026-04-17T12:25:59Z</time></trkpt><trkpt lat="46.056701449016565" lon="11.231827296069886"><ele>463.0</ele><time>2026-04-17T12:26:00Z</time></trkpt><trkpt lat="46.05644382334599" lon="11.232009954994636"><ele>463.0</ele><time>2026-04-17T12:26:01Z</time></trkpt><trkpt lat="46.056185526340705" lon="11.232182425968299"><ele>463.0</ele><time>2026-04-17T12:26:02Z</time></trkpt><trkpt lat="46.05591885962924" lon="11.232342720471657"><ele>463.0</ele><time>2026-04-17T12:26:03Z</time></trkpt><trkpt lat="46.05563981865979" lon="11.232490466601872"><ele>463.0</ele><time>2026-04-17T12:26:04Z</time></trkpt><trkpt lat="46.055346270434804" lon="11.23263210326453"><ele>463.0</ele><time>2026-04-17T12:26:05Z</time></trkpt><trkpt lat="46.055039132268" lon="11.232771641734994"><ele>463.0</ele><time>2026-04-17T12:26:06Z</time></trkpt><trkpt lat="46.05472273668542" lon="11.232914087050128"><ele>462.5</ele><time>2026-04-17T12:26:07Z</time></trkpt><trkpt lat="46.054402214381476" lon="11.233059985228982"><ele>462.0</ele><time>2026-04-17T12:26:08Z</time></trkpt><trkpt lat="46.05407357170754" lon="11.233208303889327"><ele>461.5</ele><time>2026-04-17T12:26:09Z</time></trkpt><trkpt lat="46.05372874952564" lon="11.233364392560482"><ele>461.0</ele><time>2026-04-17T12:26:10Z</time></trkpt><trkpt lat="46.05339737036254" lon="11.233510877413943"><ele>462.0</ele><time>2026-04-17T12:26:11Z</time></trkpt><trkpt lat="46.05309438586177" lon="11.233645540020433"><ele>463.0</ele><time>2026-04-17T12:26:12Z</time></trkpt><trkpt lat="46.052789989934816" lon="11.233778242384568"><ele>463.0</ele><time>2026-04-17T12:26:13Z</time></trkpt><trkpt lat="46.052491826685454" lon="11.233913433239696"><ele>463.0</ele><time>2026-04-17T12:26:14Z</time></trkpt><trkpt lat="46.0522240240496" lon="11.234036109474513"><ele>462.0</ele><time>2026-04-17T12:26:15Z</time></trkpt><trkpt lat="46.05198043529168" lon="11.234139058028676"><ele>461.0</ele><time>2026-04-17T12:26:16Z</time></trkpt><trkpt lat="46.05174901559432" lon="11.23423231261903"><ele>460.0</ele><time>2026-04-17T12:26:17Z</time></trkpt><trkpt lat="46.051524058977165" lon="11.234325564556183"><ele>459.0</ele><time>2026-04-17T12:26:18Z</time></trkpt><trkpt lat="46.05129056306386" lon="11.234421093116863"><ele>459.0</ele><time>2026-04-17T12:26:19Z</time></trkpt><trkpt lat="46.05103660489423" lon="11.234514499063485"><ele>459.0</ele><time>2026-04-17T12:26:20Z</time></trkpt><trkpt lat="46.050763261634124" lon="11.234603538111417"><ele>458.0</ele><time>2026-04-17T12:26:21Z</time></trkpt><trkpt lat="46.05047292927616" lon="11.234690040593044"><ele>457.0</ele><time>2026-04-17T12:26:22Z</time></trkpt><trkpt lat="46.05016781936489" lon="11.234777496307263"><ele>456.0</ele><time>2026-04-17T12:26:23Z</time></trkpt><trkpt lat="46.04985092039514" lon="11.23487253639424"><ele>455.0</ele><time>2026-04-17T12:26:24Z</time></trkpt><trkpt lat="46.04955108146498" lon="11.23496665708243"><ele>455.0</ele><time>2026-04-17T12:26:25Z</time></trkpt><trkpt lat="46.049264655802006" lon="11.235046741988505"><ele>455.0</ele><time>2026-04-17T12:26:26Z</time></trkpt><trkpt lat="46.04896847306811" lon="11.235108086435254"><ele>456.0</ele><time>2026-04-17T12:26:27Z</time></trkpt><trkpt lat="46.04866420558515" lon="11.235150659984715"><ele>457.0</ele><time>2026-04-17T12:26:28Z</time></trkpt><trkpt lat="46.04834368288604" lon="11.235186193741843"><ele>456.0</ele><time>2026-04-17T12:26:29Z</time></trkpt><trkpt lat="46.0480122511332" lon="11.23521599515936"><ele>455.0</ele><time>2026-04-17T12:26:30Z</time></trkpt><trkpt lat="46.047669412435916" lon="11.235236170504452"><ele>454.5</ele><time>2026-04-17T12:26:31Z</time></trkpt><trkpt lat="46.04731192482027" lon="11.235265902704977"><ele>454.0</ele><time>2026-04-17T12:26:32Z</time></trkpt><trkpt lat="46.046943192344145" lon="11.235298907619345"><ele>454.5</ele><time>2026-04-17T12:26:33Z</time></trkpt><trkpt lat="46.04656594251584" lon="11.235326134068636"><ele>455.0</ele><time>2026-04-17T12:26:34Z</time></trkpt><trkpt lat="46.04618177611638" lon="11.235354074751843"><ele>455.0</ele><time>2026-04-17T12:26:35Z</time></trkpt><trkpt lat="46.04580543893975" lon="11.235382542657625"><ele>455.0</ele><time>2026-04-17T12:26:36Z</time></trkpt><trkpt lat="46.045473309414376" lon="11.235412625893005"><ele>454.5</ele><time>2026-04-17T12:26:37Z</time></trkpt><trkpt lat="46.045173734497034" lon="11.235439831573101"><ele>454.0</ele><time>2026-04-17T12:26:38Z</time></trkpt><trkpt lat="46.04489807232643" lon="11.235460758160507"><ele>453.5</ele><time>2026-04-17T12:26:39Z</time></trkpt><trkpt lat="46.04463093794315" lon="11.235460132876044"><ele>453.0</ele><time>2026-04-17T12:26:40Z</time></trkpt><trkpt lat="46.04437356563296" lon="11.235477656527271"><ele>452.5</ele><time>2026-04-17T12:26:41Z</time></trkpt><trkpt lat="46.0440955194408" lon="11.235496835414622"><ele>452.0</ele><time>2026-04-17T12:26:42Z</time></trkpt><trkpt lat="46.04380184327099" lon="11.235519302957776"><ele>452.0</ele><time>2026-04-17T12:26:43Z</time></trkpt><trkpt lat="46.04351876155819" lon="11.235539690141481"><ele>452.0</ele><time>2026-04-17T12:26:44Z</time></trkpt><trkpt lat="46.04326078143237" lon="11.23557548896324"><ele>452.0</ele><time>2026-04-17T12:26:45Z</time></trkpt><trkpt lat="46.043021458402315" lon="11.235592797012782"><ele>452.0</ele><time>2026-04-17T12:26:46Z</time></trkpt><trkpt lat="46.04279930370385" lon="11.23560905136714"><ele>452.0</ele><time>2026-04-17T12:26:47Z</time></trkpt><trkpt lat="46.04258625546023" lon="11.235630216187113"><ele>452.0</ele><time>2026-04-17T12:26:48Z</time></trkpt><trkpt lat="46.04238021291067" lon="11.235679857120921"><ele>452.0</ele><time>2026-04-17T12:26:49Z</time></trkpt><trkpt lat="46.04217938039041" lon="11.235758064186157"><ele>452.3333333333333</ele><time>2026-04-17T12:26:50Z</time></trkpt><trkpt lat="46.041986105929425" lon="11.235859906541277"><ele>452.66666666666663</ele><time>2026-04-17T12:26:51Z</time></trkpt><trkpt lat="46.04180048551287" lon="11.235971672421652"><ele>453.0</ele><time>2026-04-17T12:26:52Z</time></trkpt><trkpt lat="46.04163279480767" lon="11.236091357374457"><ele>453.0</ele><time>2026-04-17T12:26:53Z</time></trkpt><trkpt lat="46.04147736761238" lon="11.236213594444456"><ele>453.0</ele><time>2026-04-17T12:26:54Z</time></trkpt><trkpt lat="46.04133838410779" lon="11.236346416343533"><ele>453.0</ele><time>2026-04-17T12:26:55Z</time></trkpt><trkpt lat="46.04121518311689" lon="11.236486615250703"><ele>453.0</ele><time>2026-04-17T12:26:56Z</time></trkpt><trkpt lat="46.04109601208219" lon="11.236637342651887"><ele>453.0</ele><time>2026-04-17T12:26:57Z</time></trkpt><trkpt lat="46.0409777877897" lon="11.236799868079085"><ele>453.0</ele><time>2026-04-17T12:26:58Z</time></trkpt><trkpt lat="46.04086345013506" lon="11.236974834970109"><ele>453.0</ele><time>2026-04-17T12:26:59Z</time></trkpt><trkpt lat="46.04075770258765" lon="11.237164554249178"><ele>453.0</ele><time>2026-04-17T12:27:00Z</time></trkpt><trkpt lat="46.04066968620904" lon="11.2373513962171"><ele>453.0</ele><time>2026-04-17T12:27:01Z</time></trkpt><trkpt lat="46.04058655849313" lon="11.237541024686816"><ele>453.0</ele><time>2026-04-17T12:27:02Z</time></trkpt><trkpt lat="46.040505853823376" lon="11.237741052100233"><ele>453.0</ele><time>2026-04-17T12:27:03Z</time></trkpt><trkpt lat="46.0404360796103" lon="11.237947938303675"><ele>453.0</ele><time>2026-04-17T12:27:04Z</time></trkpt><trkpt lat="46.040374547928096" lon="11.238167943255865"><ele>452.75</ele><time>2026-04-17T12:27:05Z</time></trkpt><trkpt lat="46.04032252433591" lon="11.23838587744744"><ele>452.5</ele><time>2026-04-17T12:27:06Z</time></trkpt><trkpt lat="46.04027647700685" lon="11.238576975625284"><ele>452.25</ele><time>2026-04-17T12:27:07Z</time></trkpt><trkpt lat="46.04022705007466" lon="11.238764915015198"><ele>452.0</ele><time>2026-04-17T12:27:08Z</time></trkpt><trkpt lat="46.04017337868" lon="11.238972229481064"><ele>452.0</ele><time>2026-04-17T12:27:09Z</time></trkpt><trkpt lat="46.04012091599031" lon="11.23919574890137"><ele>452.0</ele><time>2026-04-17T12:27:10Z</time></trkpt><trkpt lat="46.04004638277496" lon="11.23944595053242"><ele>452.0</ele><time>2026-04-17T12:27:11Z</time></trkpt><trkpt lat="46.03997491502939" lon="11.239725598992386"><ele>451.66666666666663</ele><time>2026-04-17T12:27:12Z</time></trkpt><trkpt lat="46.039914544574" lon="11.240005155222908"><ele>451.33333333333337</ele><time>2026-04-17T12:27:13Z</time></trkpt><trkpt lat="46.039837833884434" lon="11.240268613887817"><ele>451.0</ele><time>2026-04-17T12:27:14Z</time></trkpt><trkpt lat="46.039774407836106" lon="11.240512644295295"><ele>451.33333333333337</ele><time>2026-04-17T12:27:15Z</time></trkpt><trkpt lat="46.03971927041443" lon="11.24072912909457"><ele>451.66666666666663</ele><time>2026-04-17T12:27:16Z</time></trkpt><trkpt lat="46.03966548939618" lon="11.240930099318243"><ele>452.0</ele><time>2026-04-17T12:27:17Z</time></trkpt><trkpt lat="46.03961447472519" lon="11.241123227045088"><ele>452.0</ele><time>2026-04-17T12:27:18Z</time></trkpt><trkpt lat="46.03956657470441" lon="11.241321620996205"><ele>452.0</ele><time>2026-04-17T12:27:19Z</time></trkpt><trkpt lat="46.03951483002613" lon="11.241530102812254"><ele>452.0</ele><time>2026-04-17T12:27:20Z</time></trkpt><trkpt lat="46.03945965267482" lon="11.241742797151366"><ele>452.25</ele><time>2026-04-17T12:27:21Z</time></trkpt><trkpt lat="46.039406961287355" lon="11.241959645920687"><ele>452.5</ele><time>2026-04-17T12:27:22Z</time></trkpt><trkpt lat="46.039354754166105" lon="11.24215683181124"><ele>452.75</ele><time>2026-04-17T12:27:23Z</time></trkpt><trkpt lat="46.039295304910766" lon="11.242342115063273"><ele>453.0</ele><time>2026-04-17T12:27:24Z</time></trkpt><trkpt lat="46.039215704396156" lon="11.242525598364619"><ele>451.66666666666663</ele><time>2026-04-17T12:27:25Z</time></trkpt><trkpt lat="46.03911265763284" lon="11.242709005928086"><ele>450.3333333333333</ele><time>2026-04-17T12:27:26Z</time></trkpt><trkpt lat="46.03899323710262" lon="11.242880440913408"><ele>449.0</ele><time>2026-04-17T12:27:27Z</time></trkpt><trkpt lat="46.03887640083781" lon="11.243017932126206"><ele>452.0</ele><time>2026-04-17T12:27:28Z</time></trkpt><trkpt lat="46.03874384755435" lon="11.243146447392725"><ele>455.0</ele><time>2026-04-17T12:27:29Z</time></trkpt><trkpt lat="46.038586329670956" lon="11.243260964746005"><ele>458.0</ele><time>2026-04-17T12:27:30Z</time></trkpt><trkpt lat="46.0384214219818" lon="11.243335998459386"><ele>456.3333333333333</ele><time>2026-04-17T12:27:31Z</time></trkpt><trkpt lat="46.03826452361713" lon="11.243375606779901"><ele>454.66666666666663</ele><time>2026-04-17T12:27:32Z</time></trkpt><trkpt lat="46.03809308682975" lon="11.243405155164165"><ele>453.0</ele><time>2026-04-17T12:27:33Z</time></trkpt><trkpt lat="46.037933817029135" lon="11.243428505142303"><ele>453.0</ele><time>2026-04-17T12:27:34Z</time></trkpt><trkpt lat="46.03777601344002" lon="11.243460328239356"><ele>453.0</ele><time>2026-04-17T12:27:35Z</time></trkpt><trkpt lat="46.03761200225162" lon="11.243494479927262"><ele>453.0</ele><time>2026-04-17T12:27:36Z</time></trkpt><trkpt lat="46.03744390294207" lon="11.243555286643659"><ele>451.33333333333337</ele><time>2026-04-17T12:27:37Z</time></trkpt><trkpt lat="46.03725356584476" lon="11.243664525484602"><ele>449.6666666666667</ele><time>2026-04-17T12:27:38Z</time></trkpt><trkpt lat="46.03704434396987" lon="11.243771454845701"><ele>448.0</ele><time>2026-04-17T12:27:39Z</time></trkpt><trkpt lat="46.03688203883279" lon="11.243917158091309"><ele>451.0</ele><time>2026-04-17T12:27:40Z</time></trkpt><trkpt lat="46.03672573846494" lon="11.24403367973134"><ele>454.0</ele><time>2026-04-17T12:27:41Z</time></trkpt><trkpt lat="46.03657110769416" lon="11.244148087876516"><ele>457.0</ele><time>2026-04-17T12:27:42Z</time></trkpt><trkpt lat="46.036434716058956" lon="11.24424462253048"><ele>457.0</ele><time>2026-04-17T12:27:43Z</time></trkpt><trkpt lat="46.03628707434815" lon="11.244298187466356"><ele>457.0</ele><time>2026-04-17T12:27:44Z</time></trkpt><trkpt lat="46.036116135307864" lon="11.244333677668498"><ele>457.0</ele><time>2026-04-17T12:27:45Z</time></trkpt><trkpt lat="46.03596035670302" lon="11.244337975790994"><ele>458.0</ele><time>2026-04-17T12:27:46Z</time></trkpt><trkpt lat="46.03579709297138" lon="11.244318397279338"><ele>459.0</ele><time>2026-04-17T12:27:47Z</time></trkpt><trkpt lat="46.03564017526324" lon="11.244255965039876"><ele>460.0</ele><time>2026-04-17T12:27:48Z</time></trkpt><trkpt lat="46.03549450838734" lon="11.244189697155129"><ele>460.0</ele><time>2026-04-17T12:27:49Z</time></trkpt><trkpt lat="46.03534072803142" lon="11.244143214585419"><ele>460.0</ele><time>2026-04-17T12:27:50Z</time></trkpt><trkpt lat="46.03519051204568" lon="11.244099010971143"><ele>460.0</ele><time>2026-04-17T12:27:51Z</time></trkpt><trkpt lat="46.03503203949094" lon="11.244096935127255"><ele>458.6666666666667</ele><time>2026-04-17T12:27:52Z</time></trkpt><trkpt lat="46.034875227713954" lon="11.244116563919473"><ele>457.33333333333337</ele><time>2026-04-17T12:27:53Z</time></trkpt><trkpt lat="46.03472562975636" lon="11.244162142222711"><ele>456.0</ele><time>2026-04-17T12:27:54Z</time></trkpt><trkpt lat="46.034569513269815" lon="11.244217267618493"><ele>456.0</ele><time>2026-04-17T12:27:55Z</time></trkpt><trkpt lat="46.03440244304481" lon="11.244285371459506"><ele>456.0</ele><time>2026-04-17T12:27:56Z</time></trkpt><trkpt lat="46.034251461532754" lon="11.244367462704307"><ele>456.0</ele><time>2026-04-17T12:27:57Z</time></trkpt><trkpt lat="46.03410359344429" lon="11.244455094994843"><ele>453.33333333333337</ele><time>2026-04-17T12:27:58Z</time></trkpt><trkpt lat="46.03395247050814" lon="11.244560127027897"><ele>450.6666666666667</ele><time>2026-04-17T12:27:59Z</time></trkpt><trkpt lat="46.03381528156724" lon="11.244671856193179"><ele>448.0</ele><time>2026-04-17T12:28:00Z</time></trkpt><trkpt lat="46.03368743808314" lon="11.244770917799654"><ele>450.0</ele><time>2026-04-17T12:28:01Z</time></trkpt><trkpt lat="46.03354903477049" lon="11.244875557464596"><ele>452.0</ele><time>2026-04-17T12:28:02Z</time></trkpt><trkpt lat="46.03340541342204" lon="11.244978849395824"><ele>454.0</ele><time>2026-04-17T12:28:03Z</time></trkpt><trkpt lat="46.033259660262466" lon="11.245062128549531"><ele>454.0</ele><time>2026-04-17T12:28:04Z</time></trkpt><trkpt lat="46.03310739063267" lon="11.245120959002655"><ele>454.0</ele><time>2026-04-17T12:28:05Z</time></trkpt><trkpt lat="46.0329449917496" lon="11.245161849865148"><ele>454.0</ele><time>2026-04-17T12:28:06Z</time></trkpt><trkpt lat="46.03278239832575" lon="11.245189717151057"><ele>454.0</ele><time>2026-04-17T12:28:07Z</time></trkpt><trkpt lat="46.032623768537796" lon="11.24520359954666"><ele>454.0</ele><time>2026-04-17T12:28:08Z</time></trkpt><trkpt lat="46.032453786311365" lon="11.245198138636145"><ele>454.0</ele><time>2026-04-17T12:28:09Z</time></trkpt><trkpt lat="46.03227805507444" lon="11.245195992602065"><ele>453.6666666666667</ele><time>2026-04-17T12:28:10Z</time></trkpt><trkpt lat="46.03209981751808" lon="11.245205283969355"><ele>453.33333333333337</ele><time>2026-04-17T12:28:11Z</time></trkpt><trkpt lat="46.03192637403856" lon="11.245181129975505"><ele>453.0</ele><time>2026-04-17T12:28:12Z</time></trkpt><trkpt lat="46.03176330588137" lon="11.245179502421221"><ele>452.0</ele><time>2026-04-17T12:28:13Z</time></trkpt><trkpt lat="46.03160138184187" lon="11.24517787806845"><ele>451.0</ele><time>2026-04-17T12:28:14Z</time></trkpt><trkpt lat="46.031430233025645" lon="11.24517616117174"><ele>450.0</ele><time>2026-04-17T12:28:15Z</time></trkpt><trkpt lat="46.03123495528292" lon="11.24521184660713"><ele>450.0</ele><time>2026-04-17T12:28:16Z</time></trkpt><trkpt lat="46.03105027878858" lon="11.245243896016094"><ele>450.0</ele><time>2026-04-17T12:28:17Z</time></trkpt><trkpt lat="46.03088161225464" lon="11.245293675036539"><ele>450.0</ele><time>2026-04-17T12:28:18Z</time></trkpt><trkpt lat="46.030716520040215" lon="11.245366913967008"><ele>449.66666666666663</ele><time>2026-04-17T12:28:19Z</time></trkpt><trkpt lat="46.03053959288421" lon="11.245474757987175"><ele>449.3333333333333</ele><time>2026-04-17T12:28:20Z</time></trkpt><trkpt lat="46.030345632411496" lon="11.245570188170557"><ele>449.0</ele><time>2026-04-17T12:28:21Z</time></trkpt><trkpt lat="46.03017506694485" lon="11.245676508937686"><ele>452.0</ele><time>2026-04-17T12:28:22Z</time></trkpt><trkpt lat="46.030017387310984" lon="11.24577451501221"><ele>455.0</ele><time>2026-04-17T12:28:23Z</time></trkpt><trkpt lat="46.02985976114064" lon="11.245864459262345"><ele>458.0</ele><time>2026-04-17T12:28:24Z</time></trkpt><trkpt lat="46.029688926257045" lon="11.245939007795604"><ele>458.0</ele><time>2026-04-17T12:28:25Z</time></trkpt><trkpt lat="46.029510448961375" lon="11.245997135480277"><ele>458.0</ele><time>2026-04-17T12:28:26Z</time></trkpt><trkpt lat="46.029324068637244" lon="11.246052146414852"><ele>458.0</ele><time>2026-04-17T12:28:27Z</time></trkpt><trkpt lat="46.02913087193881" lon="11.246060948212973"><ele>457.66666666666663</ele><time>2026-04-17T12:28:28Z</time></trkpt><trkpt lat="46.02893949879924" lon="11.246034384683712"><ele>457.33333333333337</ele><time>2026-04-17T12:28:29Z</time></trkpt><trkpt lat="46.02876538623106" lon="11.246035044678898"><ele>457.0</ele><time>2026-04-17T12:28:30Z</time></trkpt><trkpt lat="46.02859815550065" lon="11.246011628875065"><ele>457.0</ele><time>2026-04-17T12:28:31Z</time></trkpt><trkpt lat="46.02842605055469" lon="11.245997520814266"><ele>457.0</ele><time>2026-04-17T12:28:32Z</time></trkpt><trkpt lat="46.028249783772765" lon="11.245983276624552"><ele>457.0</ele><time>2026-04-17T12:28:33Z</time></trkpt><trkpt lat="46.02807475873695" lon="11.245967051618841"><ele>461.33333333333337</ele><time>2026-04-17T12:28:34Z</time></trkpt><trkpt lat="46.02790620862994" lon="11.245926452465909"><ele>465.66666666666663</ele><time>2026-04-17T12:28:35Z</time></trkpt><trkpt lat="46.02773999759787" lon="11.245910816015042"><ele>470.0</ele><time>2026-04-17T12:28:36Z</time></trkpt><trkpt lat="46.02757454702034" lon="11.245916836094764"><ele>475.3333333333333</ele><time>2026-04-17T12:28:37Z</time></trkpt><trkpt lat="46.02741264342588" lon="11.245898642918842"><ele>480.66666666666663</ele><time>2026-04-17T12:28:38Z</time></trkpt><trkpt lat="46.02724356767091" lon="11.245879272293125"><ele>486.0</ele><time>2026-04-17T12:28:39Z</time></trkpt><trkpt lat="46.02707071887832" lon="11.24586212846717"><ele>486.0</ele><time>2026-04-17T12:28:40Z</time></trkpt><trkpt lat="46.02689833737101" lon="11.245825176267932"><ele>486.0</ele><time>2026-04-17T12:28:41.019Z</time></trkpt><trkpt lat="46.02673734882555" lon="11.245807742630232"><ele>486.0</ele><time>2026-04-17T12:28:42.019Z</time></trkpt><trkpt lat="46.02658535334578" lon="11.245791282924316"><ele>487.0</ele><time>2026-04-17T12:28:43.018Z</time></trkpt><trkpt lat="46.02643115180474" lon="11.245774778878351"><ele>488.0</ele><time>2026-04-17T12:28:44.02Z</time></trkpt><trkpt lat="46.026271328591264" lon="11.245758462756427"><ele>489.0</ele><time>2026-04-17T12:28:45.019Z</time></trkpt><trkpt lat="46.026109746338335" lon="11.245741967073"><ele>468.0</ele><time>2026-04-17T12:28:46.017Z</time></trkpt><trkpt lat="46.025081779850666" lon="11.24571844005142"><ele>463.0</ele><time>2026-04-17T12:28:52Z</time></trkpt><trkpt lat="46.024915176988195" lon="11.245736081941851"><ele>458.0</ele><time>2026-04-17T12:28:53Z</time></trkpt><trkpt lat="46.024738766098736" lon="11.245812905750858"><ele>453.0</ele><time>2026-04-17T12:28:54Z</time></trkpt><trkpt lat="46.02458057227217" lon="11.245931194406642"><ele>453.0</ele><time>2026-04-17T12:28:55Z</time></trkpt><trkpt lat="46.02443134641407" lon="11.246096437199185"><ele>453.0</ele><time>2026-04-17T12:28:56Z</time></trkpt><trkpt lat="46.02431099925126" lon="11.246298193793246"><ele>453.0</ele><time>2026-04-17T12:28:57Z</time></trkpt><trkpt lat="46.02416955737377" lon="11.24652107336899"><ele>451.33333333333337</ele><time>2026-04-17T12:28:58Z</time></trkpt><trkpt lat="46.02402167856833" lon="11.246766588806977"><ele>449.6666666666667</ele><time>2026-04-17T12:28:59Z</time></trkpt><trkpt lat="46.02388813023686" lon="11.246981915296532"><ele>448.0</ele><time>2026-04-17T12:29:00Z</time></trkpt><trkpt lat="46.02375668537602" lon="11.247184103676656"><ele>452.0</ele><time>2026-04-17T12:29:01Z</time></trkpt><trkpt lat="46.0236120197813" lon="11.247381033928603"><ele>456.0</ele><time>2026-04-17T12:29:02Z</time></trkpt><trkpt lat="46.02346797403794" lon="11.247558893312842"><ele>460.0</ele><time>2026-04-17T12:29:03Z</time></trkpt><trkpt lat="46.0233325748888" lon="11.247725253666905"><ele>458.6666666666667</ele><time>2026-04-17T12:29:04Z</time></trkpt><trkpt lat="46.02319284975753" lon="11.24789228330235"><ele>457.33333333333337</ele><time>2026-04-17T12:29:05Z</time></trkpt><trkpt lat="46.023050605523835" lon="11.248062809848484"><ele>456.0</ele><time>2026-04-17T12:29:06Z</time></trkpt><trkpt lat="46.02291006000508" lon="11.248232747075212"><ele>456.0</ele><time>2026-04-17T12:29:07Z</time></trkpt><trkpt lat="46.02277129950926" lon="11.248401611197227"><ele>456.0</ele><time>2026-04-17T12:29:08Z</time></trkpt><trkpt lat="46.02263405736284" lon="11.248563186145832"><ele>456.0</ele><time>2026-04-17T12:29:09Z</time></trkpt><trkpt lat="46.02249927266652" lon="11.248722071417383"><ele>454.66666666666663</ele><time>2026-04-17T12:29:10Z</time></trkpt><trkpt lat="46.02237678236049" lon="11.248868364812614"><ele>453.3333333333333</ele><time>2026-04-17T12:29:11Z</time></trkpt><trkpt lat="46.022257018790036" lon="11.249009868767345"><ele>452.0</ele><time>2026-04-17T12:29:12Z</time></trkpt><trkpt lat="46.02212263849841" lon="11.249161971016544"><ele>452.0</ele><time>2026-04-17T12:29:13Z</time></trkpt><trkpt lat="46.02197725618093" lon="11.249339052624439"><ele>452.0</ele><time>2026-04-17T12:29:14Z</time></trkpt><trkpt lat="46.021826006033756" lon="11.249525061715488"><ele>452.0</ele><time>2026-04-17T12:29:15Z</time></trkpt><trkpt lat="46.021685232042394" lon="11.249693640243471"><ele>451.3333333333333</ele><time>2026-04-17T12:29:16Z</time></trkpt><trkpt lat="46.02154146994892" lon="11.249863779698668"><ele>450.66666666666663</ele><time>2026-04-17T12:29:17Z</time></trkpt><trkpt lat="46.02141104754339" lon="11.250034446786804"><ele>450.0</ele><time>2026-04-17T12:29:18Z</time></trkpt><trkpt lat="46.021289254755175" lon="11.250199714718931"><ele>450.0</ele><time>2026-04-17T12:29:19Z</time></trkpt><trkpt lat="46.02116683428492" lon="11.250364959042"><ele>450.0</ele><time>2026-04-17T12:29:20Z</time></trkpt><trkpt lat="46.02104453543358" lon="11.250540383741125"><ele>450.0</ele><time>2026-04-17T12:29:21Z</time></trkpt><trkpt lat="46.02092358940206" lon="11.25071717647269"><ele>448.66666666666663</ele><time>2026-04-17T12:29:22Z</time></trkpt><trkpt lat="46.020806025645065" lon="11.250894230781817"><ele>447.3333333333333</ele><time>2026-04-17T12:29:23Z</time></trkpt><trkpt lat="46.02069226405369" lon="11.251072181676303"><ele>446.0</ele><time>2026-04-17T12:29:24Z</time></trkpt><trkpt lat="46.02058708899919" lon="11.251254416436469"><ele>446.0</ele><time>2026-04-17T12:29:25Z</time></trkpt><trkpt lat="46.020481136900344" lon="11.251442894681666"><ele>446.0</ele><time>2026-04-17T12:29:26Z</time></trkpt><trkpt lat="46.02037496870709" lon="11.251641512706238"><ele>446.0</ele><time>2026-04-17T12:29:27Z</time></trkpt><trkpt lat="46.02026839909539" lon="11.25184829076012"><ele>448.0</ele><time>2026-04-17T12:29:28Z</time></trkpt><trkpt lat="46.020167355515085" lon="11.252056732951655"><ele>450.0</ele><time>2026-04-17T12:29:29Z</time></trkpt><trkpt lat="46.02007188821752" lon="11.25225426801518"><ele>452.0</ele><time>2026-04-17T12:29:30Z</time></trkpt><trkpt lat="46.019979361225246" lon="11.252446559609355"><ele>452.0</ele><time>2026-04-17T12:29:31Z</time></trkpt><trkpt lat="46.019886368755905" lon="11.25263577422435"><ele>452.0</ele><time>2026-04-17T12:29:32Z</time></trkpt><trkpt lat="46.01979695549925" lon="11.252817879631717"><ele>452.0</ele><time>2026-04-17T12:29:33.015Z</time></trkpt><trkpt lat="46.01969843720724" lon="11.2530095663289"><ele>459.0</ele><time>2026-04-17T12:29:34.018Z</time></trkpt><trkpt lat="46.01959522589071" lon="11.253216865507794"><ele>466.0</ele><time>2026-04-17T12:29:35.018Z</time></trkpt><trkpt lat="46.01949169660165" lon="11.253435324444256"><ele>473.0</ele><time>2026-04-17T12:29:36.017Z</time></trkpt><trkpt lat="46.019386902312334" lon="11.253652407096984"><ele>446.0</ele><time>2026-04-17T12:29:37.019Z</time></trkpt><trkpt lat="46.01824969057554" lon="11.256114011640898"><ele>446.0</ele><time>2026-04-17T12:29:49Z</time></trkpt><trkpt lat="46.01814733415562" lon="11.256322619858926"><ele>446.0</ele><time>2026-04-17T12:29:50Z</time></trkpt><trkpt lat="46.01801832541232" lon="11.256483873371343"><ele>446.0</ele><time>2026-04-17T12:29:51Z</time></trkpt><trkpt lat="46.01789490283586" lon="11.25665503962303"><ele>447.3333333333333</ele><time>2026-04-17T12:29:52Z</time></trkpt><trkpt lat="46.01777643751497" lon="11.256794452152992"><ele>448.66666666666663</ele><time>2026-04-17T12:29:53Z</time></trkpt><trkpt lat="46.01764202139558" lon="11.256932269360155"><ele>450.0</ele><time>2026-04-17T12:29:54Z</time></trkpt><trkpt lat="46.01746908499096" lon="11.257038098899015"><ele>450.0</ele><time>2026-04-17T12:29:55Z</time></trkpt><trkpt lat="46.01729713542016" lon="11.257142769480188"><ele>450.0</ele><time>2026-04-17T12:29:56Z</time></trkpt><trkpt lat="46.01713336815324" lon="11.25723369794305"><ele>450.0</ele><time>2026-04-17T12:29:57Z</time></trkpt><trkpt lat="46.01696805567719" lon="11.25733249087068"><ele>449.0</ele><time>2026-04-17T12:29:58Z</time></trkpt><trkpt lat="46.01679514970801" lon="11.257446532699655"><ele>448.0</ele><time>2026-04-17T12:29:59Z</time></trkpt><trkpt lat="46.016635508767116" lon="11.257581850957127"><ele>447.0</ele><time>2026-04-17T12:30:00Z</time></trkpt><trkpt lat="46.016483220502096" lon="11.257725935502926"><ele>447.0</ele><time>2026-04-17T12:30:01Z</time></trkpt><trkpt lat="46.01629991270449" lon="11.257889697847785"><ele>447.0</ele><time>2026-04-17T12:30:02Z</time></trkpt><trkpt lat="46.016104787096474" lon="11.258099994288981"><ele>448.5</ele><time>2026-04-17T12:30:03Z</time></trkpt><trkpt lat="46.01589476891364" lon="11.258326341098316"><ele>450.0</ele><time>2026-04-17T12:30:04Z</time></trkpt><trkpt lat="46.01568198342412" lon="11.25855567059764"><ele>450.0</ele><time>2026-04-17T12:30:05Z</time></trkpt><trkpt lat="46.01548763653605" lon="11.258789919397135"><ele>450.0</ele><time>2026-04-17T12:30:06Z</time></trkpt><trkpt lat="46.015275221776974" lon="11.259011506522874"><ele>449.5</ele><time>2026-04-17T12:30:07Z</time></trkpt><trkpt lat="46.01505776003001" lon="11.259241911397284"><ele>449.0</ele><time>2026-04-17T12:30:08Z</time></trkpt><trkpt lat="46.01485535423434" lon="11.259456896545501"><ele>449.0</ele><time>2026-04-17T12:30:09Z</time></trkpt><trkpt lat="46.01466461170267" lon="11.259658342041337"><ele>449.0</ele><time>2026-04-17T12:30:10Z</time></trkpt><trkpt lat="46.01448605729759" lon="11.259851091899964"><ele>449.0</ele><time>2026-04-17T12:30:11Z</time></trkpt><trkpt lat="46.0143138120276" lon="11.260035745049692"><ele>449.0</ele><time>2026-04-17T12:30:12Z</time></trkpt><trkpt lat="46.014143629966945" lon="11.260216239327809"><ele>449.0</ele><time>2026-04-17T12:30:13Z</time></trkpt><trkpt lat="46.01397465464231" lon="11.260398322989692"><ele>449.0</ele><time>2026-04-17T12:30:14Z</time></trkpt><trkpt lat="46.01380427738476" lon="11.26058423158478"><ele>449.0</ele><time>2026-04-17T12:30:15Z</time></trkpt><trkpt lat="46.01362501942044" lon="11.260777454207293"><ele>449.0</ele><time>2026-04-17T12:30:16Z</time></trkpt><trkpt lat="46.01344247534243" lon="11.260977794574279"><ele>450.0</ele><time>2026-04-17T12:30:17Z</time></trkpt><trkpt lat="46.013260576223594" lon="11.26117640575584"><ele>451.0</ele><time>2026-04-17T12:30:18Z</time></trkpt><trkpt lat="46.01308138568928" lon="11.261367711517487"><ele>452.0</ele><time>2026-04-17T12:30:19Z</time></trkpt><trkpt lat="46.01291311285891" lon="11.261549260613858"><ele>453.0</ele><time>2026-04-17T12:30:20Z</time></trkpt><trkpt lat="46.01275335107009" lon="11.261726321658882"><ele>454.0</ele><time>2026-04-17T12:30:21Z</time></trkpt><trkpt lat="46.01260103912735" lon="11.26189375728843"><ele>454.33333333333337</ele><time>2026-04-17T12:30:22Z</time></trkpt><trkpt lat="46.012451017923944" lon="11.262049230332433"><ele>454.66666666666663</ele><time>2026-04-17T12:30:23Z</time></trkpt><trkpt lat="46.01230073358661" lon="11.26220119073468"><ele>455.0</ele><time>2026-04-17T12:30:24Z</time></trkpt><trkpt lat="46.012148689625135" lon="11.262351827672786"><ele>455.0</ele><time>2026-04-17T12:30:25Z</time></trkpt><trkpt lat="46.01199257343725" lon="11.262496722652427"><ele>455.0</ele><time>2026-04-17T12:30:26Z</time></trkpt><trkpt lat="46.011828300034615" lon="11.26262640189281"><ele>455.0</ele><time>2026-04-17T12:30:27Z</time></trkpt><trkpt lat="46.0116484322228" lon="11.26273588336076"><ele>453.66666666666663</ele><time>2026-04-17T12:30:28Z</time></trkpt><trkpt lat="46.011445428824835" lon="11.262839662770658"><ele>452.33333333333337</ele><time>2026-04-17T12:30:29Z</time></trkpt><trkpt lat="46.01123372396327" lon="11.262928601011911"><ele>451.0</ele><time>2026-04-17T12:30:30Z</time></trkpt><trkpt lat="46.01104041195469" lon="11.263000703751015"><ele>451.0</ele><time>2026-04-17T12:30:31Z</time></trkpt><trkpt lat="46.010856802547686" lon="11.263072364734072"><ele>451.0</ele><time>2026-04-17T12:30:32Z</time></trkpt><trkpt lat="46.010681121263886" lon="11.26314825820754"><ele>451.0</ele><time>2026-04-17T12:30:33Z</time></trkpt><trkpt lat="46.010512236733824" lon="11.26321859419867"><ele>453.0</ele><time>2026-04-17T12:30:34Z</time></trkpt><trkpt lat="46.01034663579122" lon="11.263284637691374"><ele>455.0</ele><time>2026-04-17T12:30:35Z</time></trkpt><trkpt lat="46.01017491089151" lon="11.26335541415154"><ele>457.0</ele><time>2026-04-17T12:30:36Z</time></trkpt><trkpt lat="46.010000422203426" lon="11.263449709962362"><ele>454.33333333333337</ele><time>2026-04-17T12:30:37Z</time></trkpt><trkpt lat="46.00982524870407" lon="11.2635803305631"><ele>451.66666666666663</ele><time>2026-04-17T12:30:38Z</time></trkpt><trkpt lat="46.00964880366115" lon="11.263743705029093"><ele>449.0</ele><time>2026-04-17T12:30:39Z</time></trkpt><trkpt lat="46.00947668334903" lon="11.263938663615896"><ele>449.66666666666663</ele><time>2026-04-17T12:30:40Z</time></trkpt><trkpt lat="46.009314992810566" lon="11.264147536708192"><ele>450.33333333333337</ele><time>2026-04-17T12:30:41Z</time></trkpt><trkpt lat="46.00916068004216" lon="11.26437011297539"><ele>451.0</ele><time>2026-04-17T12:30:42Z</time></trkpt><trkpt lat="46.00897318421457" lon="11.264609864233478"><ele>452.0</ele><time>2026-04-17T12:30:43Z</time></trkpt><trkpt lat="46.008784418652276" lon="11.264864872824305"><ele>453.0</ele><time>2026-04-17T12:30:44Z</time></trkpt><trkpt lat="46.008606898508305" lon="11.265108063713246"><ele>453.0</ele><time>2026-04-17T12:30:45Z</time></trkpt><trkpt lat="46.00844625575468" lon="11.26536102584978"><ele>453.0</ele><time>2026-04-17T12:30:46Z</time></trkpt><trkpt lat="46.00824191468768" lon="11.265606473553122"><ele>452.0</ele><time>2026-04-17T12:30:47Z</time></trkpt><trkpt lat="46.00807201201428" lon="11.265870064079989"><ele>451.0</ele><time>2026-04-17T12:30:48Z</time></trkpt><trkpt lat="46.007908047863395" lon="11.266081069715348"><ele>451.0</ele><time>2026-04-17T12:30:49Z</time></trkpt><trkpt lat="46.00775738037725" lon="11.266287839674803"><ele>451.0</ele><time>2026-04-17T12:30:50Z</time></trkpt><trkpt lat="46.007621367436705" lon="11.26648601374112"><ele>451.0</ele><time>2026-04-17T12:30:51Z</time></trkpt><trkpt lat="46.007500736808126" lon="11.266685579318573"><ele>450.6666666666667</ele><time>2026-04-17T12:30:52Z</time></trkpt><trkpt lat="46.00739586770534" lon="11.266900756193314"><ele>450.33333333333337</ele><time>2026-04-17T12:30:53Z</time></trkpt><trkpt lat="46.00727920475521" lon="11.267121838359593"><ele>450.0</ele><time>2026-04-17T12:30:54Z</time></trkpt><trkpt lat="46.007195006670926" lon="11.267372808684097"><ele>450.0</ele><time>2026-04-17T12:30:55Z</time></trkpt><trkpt lat="46.00710627973631" lon="11.267617099434839"><ele>450.0</ele><time>2026-04-17T12:30:56Z</time></trkpt><trkpt lat="46.00700982650658" lon="11.267847527953403"><ele>450.0</ele><time>2026-04-17T12:30:57Z</time></trkpt><trkpt lat="46.00692970620796" lon="11.26807642378644"><ele>450.66666666666663</ele><time>2026-04-17T12:30:58Z</time></trkpt><trkpt lat="46.006860376072744" lon="11.268324227373013"><ele>451.3333333333333</ele><time>2026-04-17T12:30:59Z</time></trkpt><trkpt lat="46.00675920794886" lon="11.268566551523689"><ele>452.0</ele><time>2026-04-17T12:31:00Z</time></trkpt><trkpt lat="46.006668766915475" lon="11.268826539388915"><ele>451.0</ele><time>2026-04-17T12:31:01Z</time></trkpt><trkpt lat="46.00658458868292" lon="11.269069033589085"><ele>450.0</ele><time>2026-04-17T12:31:02Z</time></trkpt><trkpt lat="46.006505897846104" lon="11.269297573167377"><ele>449.0</ele><time>2026-04-17T12:31:03Z</time></trkpt><trkpt lat="46.00643781994753" lon="11.269540959781649"><ele>449.66666666666663</ele><time>2026-04-17T12:31:04Z</time></trkpt><trkpt lat="46.00635389862307" lon="11.269788342490198"><ele>450.33333333333337</ele><time>2026-04-17T12:31:05Z</time></trkpt><trkpt lat="46.006266185122776" lon="11.270044297535724"><ele>451.0</ele><time>2026-04-17T12:31:06Z</time></trkpt><trkpt lat="46.006173012696095" lon="11.270304334843619"><ele>451.0</ele><time>2026-04-17T12:31:07Z</time></trkpt><trkpt lat="46.00608537957925" lon="11.270560054104568"><ele>451.0</ele><time>2026-04-17T12:31:08Z</time></trkpt><trkpt lat="46.00600532299985" lon="11.270796345686392"><ele>451.0</ele><time>2026-04-17T12:31:09Z</time></trkpt><trkpt lat="46.005913030863134" lon="11.271066064176688"><ele>451.5</ele><time>2026-04-17T12:31:10Z</time></trkpt><trkpt lat="46.005801266605026" lon="11.27135565227333"><ele>452.0</ele><time>2026-04-17T12:31:11Z</time></trkpt><trkpt lat="46.00568703531847" lon="11.271689308584518"><ele>452.5</ele><time>2026-04-17T12:31:12Z</time></trkpt><trkpt lat="46.00557881347764" lon="11.27200946397864"><ele>453.0</ele><time>2026-04-17T12:31:13Z</time></trkpt><trkpt lat="46.00549983786118" lon="11.272311072377521"><ele>453.0</ele><time>2026-04-17T12:31:14Z</time></trkpt><trkpt lat="46.005409557015476" lon="11.272587701784317"><ele>453.0</ele><time>2026-04-17T12:31:15Z</time></trkpt><trkpt lat="46.00532602254685" lon="11.272855106122197"><ele>453.0</ele><time>2026-04-17T12:31:16Z</time></trkpt><trkpt lat="46.00525014485558" lon="11.273108299893428"><ele>452.66666666666663</ele><time>2026-04-17T12:31:17Z</time></trkpt><trkpt lat="46.00517448810097" lon="11.273370077309508"><ele>452.3333333333333</ele><time>2026-04-17T12:31:18Z</time></trkpt><trkpt lat="46.00509345126213" lon="11.27364065948304"><ele>452.0</ele><time>2026-04-17T12:31:19Z</time></trkpt><trkpt lat="46.00500822499976" lon="11.273917558578118"><ele>451.3333333333333</ele><time>2026-04-17T12:31:20Z</time></trkpt><trkpt lat="46.00492551895621" lon="11.274191151287566"><ele>450.66666666666663</ele><time>2026-04-17T12:31:21Z</time></trkpt><trkpt lat="46.00484418560141" lon="11.274457852144602"><ele>450.0</ele><time>2026-04-17T12:31:22Z</time></trkpt><trkpt lat="46.00476705410358" lon="11.274708562916835"><ele>450.66666666666663</ele><time>2026-04-17T12:31:23Z</time></trkpt><trkpt lat="46.0046861151665" lon="11.274969313113663"><ele>451.3333333333333</ele><time>2026-04-17T12:31:24Z</time></trkpt><trkpt lat="46.00460133715887" lon="11.275246627598284"><ele>452.0</ele><time>2026-04-17T12:31:25Z</time></trkpt><trkpt lat="46.00451325495629" lon="11.275564066363835"><ele>452.5</ele><time>2026-04-17T12:31:26Z</time></trkpt><trkpt lat="46.00441376956597" lon="11.275926846641864"><ele>453.0</ele><time>2026-04-17T12:31:27Z</time></trkpt><trkpt lat="46.004295320077425" lon="11.276312267598458"><ele>451.5</ele><time>2026-04-17T12:31:28Z</time></trkpt><trkpt lat="46.00416852734499" lon="11.276688524551288"><ele>450.0</ele><time>2026-04-17T12:31:29Z</time></trkpt><trkpt lat="46.0040566118662" lon="11.277024901251435"><ele>449.66666666666663</ele><time>2026-04-17T12:31:30Z</time></trkpt><trkpt lat="46.00396079631934" lon="11.277332641187575"><ele>449.3333333333333</ele><time>2026-04-17T12:31:31Z</time></trkpt><trkpt lat="46.00388198652394" lon="11.277617356499034"><ele>449.0</ele><time>2026-04-17T12:31:32Z</time></trkpt><trkpt lat="46.003814712588046" lon="11.277887819093975"><ele>449.66666666666663</ele><time>2026-04-17T12:31:33Z</time></trkpt><trkpt lat="46.00375512514677" lon="11.27815523989379"><ele>450.33333333333337</ele><time>2026-04-17T12:31:34Z</time></trkpt><trkpt lat="46.00369614926358" lon="11.278434208483713"><ele>451.0</ele><time>2026-04-17T12:31:35Z</time></trkpt><trkpt lat="46.00363741067503" lon="11.278732717271414"><ele>452.5</ele><time>2026-04-17T12:31:36Z</time></trkpt><trkpt lat="46.00357309102643" lon="11.279076704354678"><ele>454.0</ele><time>2026-04-17T12:31:37Z</time></trkpt><trkpt lat="46.00349238668031" lon="11.279449181859874"><ele>455.0</ele><time>2026-04-17T12:31:38Z</time></trkpt><trkpt lat="46.00341071330412" lon="11.279812611223022"><ele>456.0</ele><time>2026-04-17T12:31:39Z</time></trkpt><trkpt lat="46.00332150143895" lon="11.280207283950478"><ele>454.0</ele><time>2026-04-17T12:31:40Z</time></trkpt><trkpt lat="46.00323202350072" lon="11.280612566513193"><ele>452.0</ele><time>2026-04-17T12:31:41Z</time></trkpt><trkpt lat="46.0031537998893" lon="11.280993386363468"><ele>452.0</ele><time>2026-04-17T12:31:42Z</time></trkpt><trkpt lat="46.00307465810575" lon="11.281377878902466"><ele>452.0</ele><time>2026-04-17T12:31:43Z</time></trkpt><trkpt lat="46.002989796346604" lon="11.281776768711993"><ele>452.0</ele><time>2026-04-17T12:31:44Z</time></trkpt><trkpt lat="46.002906783817366" lon="11.282185854534438"><ele>452.0</ele><time>2026-04-17T12:31:45Z</time></trkpt><trkpt lat="46.00283364321498" lon="11.282574742665494"><ele>452.0</ele><time>2026-04-17T12:31:46Z</time></trkpt><trkpt lat="46.00276222966682" lon="11.282972659884177"><ele>452.0</ele><time>2026-04-17T12:31:47Z</time></trkpt><trkpt lat="46.00269352915699" lon="11.283376437714672"><ele>451.5</ele><time>2026-04-17T12:31:48Z</time></trkpt><trkpt lat="46.00263269628012" lon="11.283745881388793"><ele>451.0</ele><time>2026-04-17T12:31:49Z</time></trkpt><trkpt lat="46.002579689070494" lon="11.284102026401882"><ele>450.5</ele><time>2026-04-17T12:31:50Z</time></trkpt><trkpt lat="46.002529917443574" lon="11.284430967417679"><ele>450.0</ele><time>2026-04-17T12:31:51Z</time></trkpt><trkpt lat="46.002484451112444" lon="11.284736981549054"><ele>449.66666666666663</ele><time>2026-04-17T12:31:52Z</time></trkpt><trkpt lat="46.002449558380235" lon="11.285031444487991"><ele>449.3333333333333</ele><time>2026-04-17T12:31:53Z</time></trkpt><trkpt lat="46.002425053780044" lon="11.285337113454286"><ele>449.0</ele><time>2026-04-17T12:31:54Z</time></trkpt><trkpt lat="46.00241434199909" lon="11.285633194110988"><ele>448.66666666666663</ele><time>2026-04-17T12:31:55Z</time></trkpt><trkpt lat="46.00241994719412" lon="11.285930992026238"><ele>448.33333333333337</ele><time>2026-04-17T12:31:56Z</time></trkpt><trkpt lat="46.00243656783441" lon="11.286253546946241"><ele>448.0</ele><time>2026-04-17T12:31:57Z</time></trkpt><trkpt lat="46.002455054379176" lon="11.286552414231673"><ele>448.0</ele><time>2026-04-17T12:31:58Z</time></trkpt><trkpt lat="46.00247074537351" lon="11.286817544544023"><ele>448.0</ele><time>2026-04-17T12:31:59Z</time></trkpt><trkpt lat="46.002483037005845" lon="11.287073284913335"><ele>448.0</ele><time>2026-04-17T12:32:00Z</time></trkpt><trkpt lat="46.00249722855202" lon="11.287315853295413"><ele>447.6666666666667</ele><time>2026-04-17T12:32:01Z</time></trkpt><trkpt lat="46.00251472420157" lon="11.287571813280032"><ele>447.33333333333337</ele><time>2026-04-17T12:32:02Z</time></trkpt><trkpt lat="46.00253424758167" lon="11.287859830518006"><ele>447.0</ele><time>2026-04-17T12:32:03Z</time></trkpt><trkpt lat="46.00255237714909" lon="11.288188462675372"><ele>446.5</ele><time>2026-04-17T12:32:04Z</time></trkpt><trkpt lat="46.00257377912438" lon="11.28854162111678"><ele>446.0</ele><time>2026-04-17T12:32:05Z</time></trkpt><trkpt lat="46.00259436980461" lon="11.288867813457266"><ele>444.5</ele><time>2026-04-17T12:32:06Z</time></trkpt><trkpt lat="46.00261703537268" lon="11.289232359990365"><ele>443.0</ele><time>2026-04-17T12:32:07Z</time></trkpt><trkpt lat="46.002643604235786" lon="11.289599167266394"><ele>444.0</ele><time>2026-04-17T12:32:08Z</time></trkpt><trkpt lat="46.002672485281316" lon="11.289991457394965"><ele>445.0</ele><time>2026-04-17T12:32:09Z</time></trkpt><trkpt lat="46.0027067007919" lon="11.290411191371462"><ele>444.0</ele><time>2026-04-17T12:32:10Z</time></trkpt><trkpt lat="46.00269280462324" lon="11.29083718897762"><ele>443.0</ele><time>2026-04-17T12:32:11Z</time></trkpt><trkpt lat="46.002716171070254" lon="11.291245087786148"><ele>442.0</ele><time>2026-04-17T12:32:12Z</time></trkpt><trkpt lat="46.00273958385384" lon="11.291653794760975"><ele>441.0</ele><time>2026-04-17T12:32:13Z</time></trkpt><trkpt lat="46.00276360174791" lon="11.292073065372284"><ele>440.5</ele><time>2026-04-17T12:32:14Z</time></trkpt><trkpt lat="46.00278895879583" lon="11.292511356057664"><ele>440.0</ele><time>2026-04-17T12:32:15Z</time></trkpt><trkpt lat="46.0028145451625" lon="11.292948180984146"><ele>440.0</ele><time>2026-04-17T12:32:16Z</time></trkpt><trkpt lat="46.00283911121586" lon="11.293367586043985"><ele>440.0</ele><time>2026-04-17T12:32:17Z</time></trkpt><trkpt lat="46.002867153895174" lon="11.293778634095325"><ele>440.0</ele><time>2026-04-17T12:32:18Z</time></trkpt><trkpt lat="46.00290067531092" lon="11.29417405663715"><ele>440.0</ele><time>2026-04-17T12:32:19Z</time></trkpt><trkpt lat="46.00294137312758" lon="11.294544269658614"><ele>441.0</ele><time>2026-04-17T12:32:20Z</time></trkpt><trkpt lat="46.002985712668576" lon="11.294902144369754"><ele>442.0</ele><time>2026-04-17T12:32:21Z</time></trkpt><trkpt lat="46.003058570651106" lon="11.295263331036931"><ele>441.5</ele><time>2026-04-17T12:32:22Z</time></trkpt><trkpt lat="46.00311801499818" lon="11.295615557919593"><ele>441.0</ele><time>2026-04-17T12:32:23Z</time></trkpt><trkpt lat="46.00318098436619" lon="11.295945969469123"><ele>441.0</ele><time>2026-04-17T12:32:24Z</time></trkpt><trkpt lat="46.00325201244735" lon="11.296272574032372"><ele>441.0</ele><time>2026-04-17T12:32:25Z</time></trkpt><trkpt lat="46.00332863432685" lon="11.296605818272635"><ele>440.0</ele><time>2026-04-17T12:32:26Z</time></trkpt><trkpt lat="46.00338731021326" lon="11.296971468872412"><ele>439.0</ele><time>2026-04-17T12:32:27Z</time></trkpt><trkpt lat="46.00346602665445" lon="11.297349442200847"><ele>439.0</ele><time>2026-04-17T12:32:28Z</time></trkpt><trkpt lat="46.00353973634387" lon="11.297701038071502"><ele>439.0</ele><time>2026-04-17T12:32:29Z</time></trkpt><trkpt lat="46.003608513826094" lon="11.29802630922432"><ele>438.33333333333337</ele><time>2026-04-17T12:32:30Z</time></trkpt><trkpt lat="46.003684034889176" lon="11.298330229425712"><ele>437.66666666666663</ele><time>2026-04-17T12:32:31Z</time></trkpt><trkpt lat="46.00373977571771" lon="11.298630751886268"><ele>437.0</ele><time>2026-04-17T12:32:32Z</time></trkpt><trkpt lat="46.00379187520892" lon="11.298926398096043"><ele>437.0</ele><time>2026-04-17T12:32:33Z</time></trkpt><trkpt lat="46.003840319105144" lon="11.29922126627738"><ele>437.0</ele><time>2026-04-17T12:32:34Z</time></trkpt><trkpt lat="46.00387732703014" lon="11.299510942162605"><ele>437.0</ele><time>2026-04-17T12:32:35Z</time></trkpt><trkpt lat="46.003912642049485" lon="11.299802213127037"><ele>437.0</ele><time>2026-04-17T12:32:36Z</time></trkpt><trkpt lat="46.00394476379944" lon="11.300084495473019"><ele>437.0</ele><time>2026-04-17T12:32:37Z</time></trkpt><trkpt lat="46.003967917159336" lon="11.300355018490603"><ele>437.0</ele><time>2026-04-17T12:32:38Z</time></trkpt><trkpt lat="46.003987389583436" lon="11.300630536899535"><ele>437.3333333333333</ele><time>2026-04-17T12:32:39Z</time></trkpt><trkpt lat="46.00400256230592" lon="11.300897821305934"><ele>437.66666666666663</ele><time>2026-04-17T12:32:40Z</time></trkpt><trkpt lat="46.00401157306722" lon="11.301158799528073"><ele>438.0</ele><time>2026-04-17T12:32:41Z</time></trkpt><trkpt lat="46.00401846684334" lon="11.301420794580816"><ele>438.0</ele><time>2026-04-17T12:32:42Z</time></trkpt><trkpt lat="46.00402311339998" lon="11.301679454804855"><ele>438.0</ele><time>2026-04-17T12:32:43Z</time></trkpt><trkpt lat="46.00402370820923" lon="11.301931341949235"><ele>438.0</ele><time>2026-04-17T12:32:44Z</time></trkpt><trkpt lat="46.0040227315862" lon="11.302188942219377"><ele>437.66666666666663</ele><time>2026-04-17T12:32:45Z</time></trkpt><trkpt lat="46.00401815432684" lon="11.302457950712967"><ele>437.3333333333333</ele><time>2026-04-17T12:32:46Z</time></trkpt><trkpt lat="46.00401189996061" lon="11.302740309848629"><ele>437.0</ele><time>2026-04-17T12:32:47Z</time></trkpt><trkpt lat="46.00400562050137" lon="11.303036710265424"><ele>437.0</ele><time>2026-04-17T12:32:48Z</time></trkpt><trkpt lat="46.00399797102124" lon="11.303341553895354"><ele>437.0</ele><time>2026-04-17T12:32:49Z</time></trkpt><trkpt lat="46.003989950114" lon="11.303624532184072"><ele>437.0</ele><time>2026-04-17T12:32:50Z</time></trkpt><trkpt lat="46.00398307122752" lon="11.303898927144267"><ele>437.3333333333333</ele><time>2026-04-17T12:32:51Z</time></trkpt><trkpt lat="46.00397223884848" lon="11.304199092729407"><ele>437.66666666666663</ele><time>2026-04-17T12:32:52Z</time></trkpt><trkpt lat="46.003964068940284" lon="11.304467650385616"><ele>438.0</ele><time>2026-04-17T12:32:53Z</time></trkpt><trkpt lat="46.00395715112056" lon="11.304723657359478"><ele>437.66666666666663</ele><time>2026-04-17T12:32:54Z</time></trkpt><trkpt lat="46.00394901753929" lon="11.304969497359702"><ele>437.3333333333333</ele><time>2026-04-17T12:32:55Z</time></trkpt><trkpt lat="46.00393987270538" lon="11.305220852478751"><ele>437.0</ele><time>2026-04-17T12:32:56Z</time></trkpt><trkpt lat="46.003933518481176" lon="11.30547871918079"><ele>437.66666666666663</ele><time>2026-04-17T12:32:57Z</time></trkpt><trkpt lat="46.00392813704902" lon="11.305738647063446"><ele>438.33333333333337</ele><time>2026-04-17T12:32:58Z</time></trkpt><trkpt lat="46.00392114199006" lon="11.305989872867483"><ele>439.0</ele><time>2026-04-17T12:32:59Z</time></trkpt><trkpt lat="46.00391309964682" lon="11.306236299183857"><ele>438.6666666666667</ele><time>2026-04-17T12:33:00Z</time></trkpt><trkpt lat="46.0039041741741" lon="11.306477343384529"><ele>438.33333333333337</ele><time>2026-04-17T12:33:01Z</time></trkpt><trkpt lat="46.003897493734776" lon="11.3067148434704"><ele>438.0</ele><time>2026-04-17T12:33:02Z</time></trkpt><trkpt lat="46.00389172777426" lon="11.306947615353552"><ele>438.0</ele><time>2026-04-17T12:33:03Z</time></trkpt><trkpt lat="46.00388560733557" lon="11.307180596684546"><ele>438.0</ele><time>2026-04-17T12:33:04Z</time></trkpt><trkpt lat="46.00387970071144" lon="11.307412791450066"><ele>438.0</ele><time>2026-04-17T12:33:05Z</time></trkpt><trkpt lat="46.00387401288519" lon="11.307644394008541"><ele>437.66666666666663</ele><time>2026-04-17T12:33:06Z</time></trkpt><trkpt lat="46.0038653396693" lon="11.30787733278567"><ele>437.3333333333333</ele><time>2026-04-17T12:33:07Z</time></trkpt><trkpt lat="46.00385743053479" lon="11.308118281577855"><ele>437.0</ele><time>2026-04-17T12:33:08Z</time></trkpt><trkpt lat="46.00385431097195" lon="11.308368726045057"><ele>437.66666666666663</ele><time>2026-04-17T12:33:09Z</time></trkpt><trkpt lat="46.003850804101184" lon="11.308633050366877"><ele>438.33333333333337</ele><time>2026-04-17T12:33:10Z</time></trkpt><trkpt lat="46.00384180856772" lon="11.30890126071487"><ele>439.0</ele><time>2026-04-17T12:33:11Z</time></trkpt><trkpt lat="46.00383735753885" lon="11.309148860763559"><ele>439.6666666666667</ele><time>2026-04-17T12:33:12Z</time></trkpt><trkpt lat="46.003837004514125" lon="11.309383614929923"><ele>440.33333333333337</ele><time>2026-04-17T12:33:13Z</time></trkpt><trkpt lat="46.0038414682448" lon="11.309624140543885"><ele>441.0</ele><time>2026-04-17T12:33:14Z</time></trkpt><trkpt lat="46.00385643229919" lon="11.309888956937634"><ele>441.0</ele><time>2026-04-17T12:33:15Z</time></trkpt><trkpt lat="46.00387579785781" lon="11.310182585847498"><ele>441.0</ele><time>2026-04-17T12:33:16Z</time></trkpt><trkpt lat="46.003877075966834" lon="11.310496758826307"><ele>441.0</ele><time>2026-04-17T12:33:17Z</time></trkpt><trkpt lat="46.003896633111815" lon="11.310831407437492"><ele>440.5</ele><time>2026-04-17T12:33:18Z</time></trkpt><trkpt lat="46.0039247991761" lon="11.311202469077301"><ele>440.0</ele><time>2026-04-17T12:33:19Z</time></trkpt><trkpt lat="46.00395905022753" lon="11.31157854224011"><ele>440.0</ele><time>2026-04-17T12:33:20Z</time></trkpt><trkpt lat="46.00399475167703" lon="11.31192086768982"><ele>440.0</ele><time>2026-04-17T12:33:21Z</time></trkpt><trkpt lat="46.004046998696964" lon="11.312229916090292"><ele>439.3333333333333</ele><time>2026-04-17T12:33:22Z</time></trkpt><trkpt lat="46.00408482675174" lon="11.312523527454136"><ele>438.66666666666663</ele><time>2026-04-17T12:33:23Z</time></trkpt><trkpt lat="46.00412461675285" lon="11.312797537109166"><ele>438.0</ele><time>2026-04-17T12:33:24Z</time></trkpt><trkpt lat="46.00416752797433" lon="11.313079901869411"><ele>439.0</ele><time>2026-04-17T12:33:25Z</time></trkpt><trkpt lat="46.0042174833385" lon="11.313377944865728"><ele>440.0</ele><time>2026-04-17T12:33:26Z</time></trkpt><trkpt lat="46.00427436923047" lon="11.313684237012016"><ele>441.0</ele><time>2026-04-17T12:33:27Z</time></trkpt><trkpt lat="46.004334995163326" lon="11.313983110485344"><ele>441.0</ele><time>2026-04-17T12:33:28Z</time></trkpt><trkpt lat="46.004397711023884" lon="11.314281042849853"><ele>441.0</ele><time>2026-04-17T12:33:29Z</time></trkpt><trkpt lat="46.00445476147345" lon="11.31460556602965"><ele>441.0</ele><time>2026-04-17T12:33:30Z</time></trkpt><trkpt lat="46.004538769685404" lon="11.314960156234235"><ele>440.0</ele><time>2026-04-17T12:33:31Z</time></trkpt><trkpt lat="46.0046276809863" lon="11.315312226120652"><ele>439.0</ele><time>2026-04-17T12:33:32Z</time></trkpt><trkpt lat="46.00472497001613" lon="11.315617639929021"><ele>438.0</ele><time>2026-04-17T12:33:33Z</time></trkpt><trkpt lat="46.00480565788012" lon="11.315923631221606"><ele>437.0</ele><time>2026-04-17T12:33:34Z</time></trkpt><trkpt lat="46.004893418131296" lon="11.316227406582543"><ele>436.5</ele><time>2026-04-17T12:33:35Z</time></trkpt><trkpt lat="46.00499156942782" lon="11.316546975789564"><ele>436.0</ele><time>2026-04-17T12:33:36Z</time></trkpt><trkpt lat="46.00510518250822" lon="11.316877972121988"><ele>438.5</ele><time>2026-04-17T12:33:37Z</time></trkpt><trkpt lat="46.005213914964024" lon="11.317239584118447"><ele>441.0</ele><time>2026-04-17T12:33:38Z</time></trkpt><trkpt lat="46.005343880492575" lon="11.317593442862629"><ele>441.0</ele><time>2026-04-17T12:33:39Z</time></trkpt><trkpt lat="46.00548750624067" lon="11.317965156370109"><ele>441.0</ele><time>2026-04-17T12:33:40Z</time></trkpt><trkpt lat="46.005641568833425" lon="11.318347710214907"><ele>441.0</ele><time>2026-04-17T12:33:41Z</time></trkpt><trkpt lat="46.00578559588554" lon="11.318686660719045"><ele>441.0</ele><time>2026-04-17T12:33:42Z</time></trkpt><trkpt lat="46.0059352265393" lon="11.318994213481435"><ele>441.0</ele><time>2026-04-17T12:33:43Z</time></trkpt><trkpt lat="46.006054523749455" lon="11.319280558529426"><ele>441.0</ele><time>2026-04-17T12:33:44Z</time></trkpt><trkpt lat="46.006171372249014" lon="11.319551816951519"><ele>440.66666666666663</ele><time>2026-04-17T12:33:45Z</time></trkpt><trkpt lat="46.00628215048807" lon="11.319808400812546"><ele>440.3333333333333</ele><time>2026-04-17T12:33:46Z</time></trkpt><trkpt lat="46.0063902494121" lon="11.320054106511785"><ele>440.0</ele><time>2026-04-17T12:33:47Z</time></trkpt><trkpt lat="46.00649297838269" lon="11.320289714843467"><ele>440.0</ele><time>2026-04-17T12:33:48Z</time></trkpt><trkpt lat="46.00659863184188" lon="11.320528579734624"><ele>440.0</ele><time>2026-04-17T12:33:49Z</time></trkpt><trkpt lat="46.00671172368036" lon="11.320779099854594"><ele>440.0</ele><time>2026-04-17T12:33:50Z</time></trkpt><trkpt lat="46.00682206213747" lon="11.321027217998818"><ele>440.0</ele><time>2026-04-17T12:33:51Z</time></trkpt><trkpt lat="46.00692427344295" lon="11.321265322224075"><ele>440.0</ele><time>2026-04-17T12:33:52Z</time></trkpt><trkpt lat="46.00703022595996" lon="11.321509336356996"><ele>440.0</ele><time>2026-04-17T12:33:53Z</time></trkpt><trkpt lat="46.00713937620716" lon="11.32175528596212"><ele>440.0</ele><time>2026-04-17T12:33:54Z</time></trkpt><trkpt lat="46.00725028652892" lon="11.3220047619244"><ele>440.0</ele><time>2026-04-17T12:33:55Z</time></trkpt><trkpt lat="46.00734960124888" lon="11.322265672158537"><ele>440.0</ele><time>2026-04-17T12:33:56Z</time></trkpt><trkpt lat="46.00745737904415" lon="11.322500604226468"><ele>439.66666666666663</ele><time>2026-04-17T12:33:57Z</time></trkpt><trkpt lat="46.007564554998815" lon="11.322731277856263"><ele>439.33333333333337</ele><time>2026-04-17T12:33:58Z</time></trkpt><trkpt lat="46.007679850680496" lon="11.32296213683312"><ele>439.0</ele><time>2026-04-17T12:33:59Z</time></trkpt><trkpt lat="46.0078173867539" lon="11.323178200353905"><ele>438.0</ele><time>2026-04-17T12:34:00Z</time></trkpt><trkpt lat="46.007949397228074" lon="11.323414568838768"><ele>437.0</ele><time>2026-04-17T12:34:01Z</time></trkpt><trkpt lat="46.00808976213288" lon="11.323643222571787"><ele>436.0</ele><time>2026-04-17T12:34:02Z</time></trkpt><trkpt lat="46.008225238922826" lon="11.323852525633818"><ele>436.0</ele><time>2026-04-17T12:34:03Z</time></trkpt><trkpt lat="46.0083463793941" lon="11.324064299527382"><ele>436.0</ele><time>2026-04-17T12:34:04Z</time></trkpt><trkpt lat="46.008488094493096" lon="11.324230109808441"><ele>436.0</ele><time>2026-04-17T12:34:05Z</time></trkpt><trkpt lat="46.00861983633555" lon="11.324403818972026"><ele>436.0</ele><time>2026-04-17T12:34:06Z</time></trkpt><trkpt lat="46.008758049618955" lon="11.324577857331294"><ele>436.0</ele><time>2026-04-17T12:34:07Z</time></trkpt><trkpt lat="46.00890106709203" lon="11.324753747872549"><ele>436.0</ele><time>2026-04-17T12:34:08Z</time></trkpt><trkpt lat="46.00905069445002" lon="11.324927332750281"><ele>435.6666666666667</ele><time>2026-04-17T12:34:09Z</time></trkpt><trkpt lat="46.00920575146975" lon="11.325096761262031"><ele>435.33333333333337</ele><time>2026-04-17T12:34:10Z</time></trkpt><trkpt lat="46.009353877281484" lon="11.325285902368904"><ele>435.0</ele><time>2026-04-17T12:34:11Z</time></trkpt><trkpt lat="46.0095119473372" lon="11.325456115399776"><ele>435.0</ele><time>2026-04-17T12:34:12Z</time></trkpt><trkpt lat="46.00966888597146" lon="11.325625110584506"><ele>435.0</ele><time>2026-04-17T12:34:13Z</time></trkpt><trkpt lat="46.00986375568986" lon="11.32569377917398"><ele>435.0</ele><time>2026-04-17T12:34:14Z</time></trkpt><trkpt lat="46.01001747664423" lon="11.325817694112093"><ele>435.66666666666663</ele><time>2026-04-17T12:34:15Z</time></trkpt><trkpt lat="46.01016816925235" lon="11.325940342839319"><ele>436.3333333333333</ele><time>2026-04-17T12:34:16Z</time></trkpt><trkpt lat="46.010329350163936" lon="11.326055352764053"><ele>437.0</ele><time>2026-04-17T12:34:17Z</time></trkpt><trkpt lat="46.010514676354845" lon="11.326182289903533"><ele>437.0</ele><time>2026-04-17T12:34:18Z</time></trkpt><trkpt lat="46.01068580935226" lon="11.326307246872824"><ele>437.0</ele><time>2026-04-17T12:34:19Z</time></trkpt><trkpt lat="46.01084287822461" lon="11.326433345584796"><ele>437.0</ele><time>2026-04-17T12:34:20Z</time></trkpt><trkpt lat="46.01098778946192" lon="11.326570450225043"><ele>435.66666666666663</ele><time>2026-04-17T12:34:21Z</time></trkpt><trkpt lat="46.01112612683509" lon="11.326710692067762"><ele>434.33333333333337</ele><time>2026-04-17T12:34:22Z</time></trkpt><trkpt lat="46.011270423946826" lon="11.326849681791458"><ele>433.0</ele><time>2026-04-17T12:34:23Z</time></trkpt><trkpt lat="46.01142363467563" lon="11.32700439140798"><ele>433.0</ele><time>2026-04-17T12:34:24Z</time></trkpt><trkpt lat="46.01158512794088" lon="11.327180904314737"><ele>433.0</ele><time>2026-04-17T12:34:25Z</time></trkpt><trkpt lat="46.01174733929829" lon="11.327369480170653"><ele>433.0</ele><time>2026-04-17T12:34:26Z</time></trkpt><trkpt lat="46.01189776113973" lon="11.327561418147157"><ele>433.0</ele><time>2026-04-17T12:34:27Z</time></trkpt><trkpt lat="46.01203046664254" lon="11.327745250005101"><ele>433.0</ele><time>2026-04-17T12:34:28Z</time></trkpt><trkpt lat="46.0121623901384" lon="11.327933650136202"><ele>433.0</ele><time>2026-04-17T12:34:29Z</time></trkpt><trkpt lat="46.01230236368105" lon="11.328141723691122"><ele>432.6666666666667</ele><time>2026-04-17T12:34:30Z</time></trkpt><trkpt lat="46.012447392012206" lon="11.328380452182317"><ele>432.33333333333337</ele><time>2026-04-17T12:34:31Z</time></trkpt><trkpt lat="46.01257451456729" lon="11.328610693333166"><ele>432.0</ele><time>2026-04-17T12:34:32Z</time></trkpt><trkpt lat="46.0126934595102" lon="11.328849182046527"><ele>431.66666666666663</ele><time>2026-04-17T12:34:33Z</time></trkpt><trkpt lat="46.01281560654898" lon="11.32910427236605"><ele>431.3333333333333</ele><time>2026-04-17T12:34:34Z</time></trkpt><trkpt lat="46.01293693865839" lon="11.329371905242413"><ele>431.0</ele><time>2026-04-17T12:34:35Z</time></trkpt><trkpt lat="46.013052093320525" lon="11.329652513625279"><ele>429.5</ele><time>2026-04-17T12:34:36Z</time></trkpt><trkpt lat="46.0131678910865" lon="11.329946632608559"><ele>428.0</ele><time>2026-04-17T12:34:37Z</time></trkpt><trkpt lat="46.01328955346594" lon="11.330260372541227"><ele>428.0</ele><time>2026-04-17T12:34:38Z</time></trkpt><trkpt lat="46.013428137116954" lon="11.330607439444124"><ele>428.0</ele><time>2026-04-17T12:34:39Z</time></trkpt><trkpt lat="46.01358133912497" lon="11.33097105115082"><ele>428.0</ele><time>2026-04-17T12:34:40Z</time></trkpt><trkpt lat="46.01371297556193" lon="11.3313132880683"><ele>428.0</ele><time>2026-04-17T12:34:41Z</time></trkpt><trkpt lat="46.01382665233266" lon="11.33162347532247"><ele>428.0</ele><time>2026-04-17T12:34:42Z</time></trkpt><trkpt lat="46.01392907594734" lon="11.33191310972147"><ele>428.0</ele><time>2026-04-17T12:34:43Z</time></trkpt><trkpt lat="46.01402730007903" lon="11.332172792745842"><ele>428.0</ele><time>2026-04-17T12:34:44Z</time></trkpt><trkpt lat="46.0141317122974" lon="11.33243995296381"><ele>428.66666666666663</ele><time>2026-04-17T12:34:45Z</time></trkpt><trkpt lat="46.01423967916841" lon="11.332716395573305"><ele>429.33333333333337</ele><time>2026-04-17T12:34:46Z</time></trkpt><trkpt lat="46.014346110113244" lon="11.33298680921028"><ele>430.0</ele><time>2026-04-17T12:34:47Z</time></trkpt><trkpt lat="46.014469356651574" lon="11.333281812672508"><ele>430.0</ele><time>2026-04-17T12:34:48Z</time></trkpt><trkpt lat="46.0145977523725" lon="11.33360720619056"><ele>430.0</ele><time>2026-04-17T12:34:49Z</time></trkpt><trkpt lat="46.01472611766148" lon="11.333959959513475"><ele>430.0</ele><time>2026-04-17T12:34:50Z</time></trkpt><trkpt lat="46.01484564822267" lon="11.334288133208776"><ele>430.0</ele><time>2026-04-17T12:34:51Z</time></trkpt><trkpt lat="46.014960707448374" lon="11.334582566147793"><ele>430.6666666666667</ele><time>2026-04-17T12:34:52Z</time></trkpt><trkpt lat="46.015068859541884" lon="11.334855883389183"><ele>431.33333333333337</ele><time>2026-04-17T12:34:53Z</time></trkpt><trkpt lat="46.01516628402356" lon="11.335105025573442"><ele>432.0</ele><time>2026-04-17T12:34:54Z</time></trkpt><trkpt lat="46.01526339000111" lon="11.335347974725355"><ele>431.0</ele><time>2026-04-17T12:34:55Z</time></trkpt><trkpt lat="46.01538067539854" lon="11.335625919894571"><ele>430.0</ele><time>2026-04-17T12:34:56Z</time></trkpt><trkpt lat="46.015509588701526" lon="11.335936835352982"><ele>430.0</ele><time>2026-04-17T12:34:57Z</time></trkpt><trkpt lat="46.01562548389291" lon="11.336253201382574"><ele>430.0</ele><time>2026-04-17T12:34:58Z</time></trkpt><trkpt lat="46.01572294639821" lon="11.336534060592264"><ele>430.0</ele><time>2026-04-17T12:34:59Z</time></trkpt><trkpt lat="46.01581843756558" lon="11.33678888796446"><ele>430.0</ele><time>2026-04-17T12:35:00Z</time></trkpt><trkpt lat="46.01590766118791" lon="11.337024597310055"><ele>430.0</ele><time>2026-04-17T12:35:01Z</time></trkpt><trkpt lat="46.015992840978996" lon="11.337247881119868"><ele>435.0</ele><time>2026-04-17T12:35:02Z</time></trkpt><trkpt lat="46.01608070390954" lon="11.337480902129675"><ele>440.0</ele><time>2026-04-17T12:35:03Z</time></trkpt><trkpt lat="46.01617333507529" lon="11.337726826547721"><ele>445.0</ele><time>2026-04-17T12:35:04Z</time></trkpt><trkpt lat="46.016256853519955" lon="11.337970348126234"><ele>446.0</ele><time>2026-04-17T12:35:05Z</time></trkpt><trkpt lat="46.01633541160516" lon="11.338214734204218"><ele>447.0</ele><time>2026-04-17T12:35:06Z</time></trkpt><trkpt lat="46.016408442604636" lon="11.33845380513254"><ele>448.0</ele><time>2026-04-17T12:35:07Z</time></trkpt><trkpt lat="46.016475572954704" lon="11.338684338230626"><ele>447.6666666666667</ele><time>2026-04-17T12:35:08Z</time></trkpt><trkpt lat="46.01654051384733" lon="11.338923002199436"><ele>447.33333333333337</ele><time>2026-04-17T12:35:09Z</time></trkpt><trkpt lat="46.016603552004504" lon="11.339174730090832"><ele>447.0</ele><time>2026-04-17T12:35:10Z</time></trkpt><trkpt lat="46.01666890085647" lon="11.339433372780798"><ele>446.33333333333337</ele><time>2026-04-17T12:35:11Z</time></trkpt><trkpt lat="46.01673668264394" lon="11.339706510093166"><ele>445.6666666666667</ele><time>2026-04-17T12:35:12Z</time></trkpt><trkpt lat="46.01680948349418" lon="11.340021457663562"><ele>445.0</ele><time>2026-04-17T12:35:13Z</time></trkpt><trkpt lat="46.01687208467534" lon="11.34035079143168"><ele>443.0</ele><time>2026-04-17T12:35:14Z</time></trkpt><trkpt lat="46.01692593324502" lon="11.340686528103696"><ele>441.0</ele><time>2026-04-17T12:35:15Z</time></trkpt><trkpt lat="46.01697200578029" lon="11.341000253814014"><ele>441.0</ele><time>2026-04-17T12:35:16Z</time></trkpt><trkpt lat="46.01701154860257" lon="11.341302347324866"><ele>441.0</ele><time>2026-04-17T12:35:17Z</time></trkpt><trkpt lat="46.017045715271706" lon="11.341596482868036"><ele>441.0</ele><time>2026-04-17T12:35:18Z</time></trkpt><trkpt lat="46.01708309318243" lon="11.341890358351822"><ele>438.66666666666663</ele><time>2026-04-17T12:35:19Z</time></trkpt><trkpt lat="46.017122932924444" lon="11.342185116260508"><ele>436.3333333333333</ele><time>2026-04-17T12:35:20Z</time></trkpt><trkpt lat="46.01716594580807" lon="11.342485773539595"><ele>434.0</ele><time>2026-04-17T12:35:21Z</time></trkpt><trkpt lat="46.01720723202267" lon="11.342792296679944"><ele>432.3333333333333</ele><time>2026-04-17T12:35:22Z</time></trkpt><trkpt lat="46.01723010800929" lon="11.34310243423907"><ele>430.66666666666663</ele><time>2026-04-17T12:35:23Z</time></trkpt><trkpt lat="46.017269659828834" lon="11.343411882899677"><ele>429.0</ele><time>2026-04-17T12:35:24Z</time></trkpt><trkpt lat="46.01730880238225" lon="11.343717482200544"><ele>429.0</ele><time>2026-04-17T12:35:25Z</time></trkpt><trkpt lat="46.01734785388303" lon="11.344021536019067"><ele>429.0</ele><time>2026-04-17T12:35:26Z</time></trkpt><trkpt lat="46.01738731429893" lon="11.344328773633576"><ele>429.0</ele><time>2026-04-17T12:35:27Z</time></trkpt><trkpt lat="46.01744132821279" lon="11.344629165569811"><ele>429.0</ele><time>2026-04-17T12:35:28Z</time></trkpt><trkpt lat="46.01747406760494" lon="11.344927644618009"><ele>429.0</ele><time>2026-04-17T12:35:29Z</time></trkpt><trkpt lat="46.017510813194626" lon="11.345240572009114"><ele>429.0</ele><time>2026-04-17T12:35:30Z</time></trkpt><trkpt lat="46.0175532884307" lon="11.345595176418088"><ele>432.5</ele><time>2026-04-17T12:35:31Z</time></trkpt><trkpt lat="46.01759647386678" lon="11.345974066175357"><ele>436.0</ele><time>2026-04-17T12:35:32Z</time></trkpt><trkpt lat="46.01764174353744" lon="11.346371775275648"><ele>437.0</ele><time>2026-04-17T12:35:33Z</time></trkpt><trkpt lat="46.01769104243076" lon="11.346782651152173"><ele>438.0</ele><time>2026-04-17T12:35:34Z</time></trkpt><trkpt lat="46.01774204586193" lon="11.347202447553359"><ele>438.5</ele><time>2026-04-17T12:35:35Z</time></trkpt><trkpt lat="46.017790185092814" lon="11.347611789312985"><ele>439.0</ele><time>2026-04-17T12:35:36Z</time></trkpt><trkpt lat="46.01784272371255" lon="11.348052768595663"><ele>439.0</ele><time>2026-04-17T12:35:37Z</time></trkpt><trkpt lat="46.01789561708168" lon="11.34850852805047"><ele>439.0</ele><time>2026-04-17T12:35:38Z</time></trkpt><trkpt lat="46.017954763013414" lon="11.348981300553268"><ele>439.5</ele><time>2026-04-17T12:35:39Z</time></trkpt><trkpt lat="46.01801767599313" lon="11.349467488837737"><ele>440.0</ele><time>2026-04-17T12:35:40Z</time></trkpt><trkpt lat="46.018080215550654" lon="11.349966310513897"><ele>440.5</ele><time>2026-04-17T12:35:41Z</time></trkpt><trkpt lat="46.01814295249156" lon="11.350471725576384"><ele>441.0</ele><time>2026-04-17T12:35:42Z</time></trkpt><trkpt lat="46.01820228837667" lon="11.35096751701696"><ele>440.0</ele><time>2026-04-17T12:35:43Z</time></trkpt><trkpt lat="46.01825994861741" lon="11.351418598122349"><ele>439.0</ele><time>2026-04-17T12:35:44Z</time></trkpt><trkpt lat="46.0183217466689" lon="11.351864733037557"><ele>443.0</ele><time>2026-04-17T12:35:45Z</time></trkpt><trkpt lat="46.01838370466249" lon="11.35231082475321"><ele>447.0</ele><time>2026-04-17T12:35:46Z</time></trkpt><trkpt lat="46.01844861045714" lon="11.3527591328466"><ele>447.0</ele><time>2026-04-17T12:35:47Z</time></trkpt><trkpt lat="46.01851727971656" lon="11.353221402234817"><ele>447.0</ele><time>2026-04-17T12:35:48Z</time></trkpt><trkpt lat="46.018585887324434" lon="11.35369719561707"><ele>447.0</ele><time>2026-04-17T12:35:49Z</time></trkpt><trkpt lat="46.01865423989491" lon="11.354183367483895"><ele>447.0</ele><time>2026-04-17T12:35:50Z</time></trkpt><trkpt lat="46.0187218028626" lon="11.354679659016817"><ele>446.5</ele><time>2026-04-17T12:35:51Z</time></trkpt><trkpt lat="46.01878758737974" lon="11.355184418109898"><ele>446.0</ele><time>2026-04-17T12:35:52Z</time></trkpt><trkpt lat="46.01884977059959" lon="11.355697820995642"><ele>445.5</ele><time>2026-04-17T12:35:53Z</time></trkpt><trkpt lat="46.01891058477804" lon="11.356215170210188"><ele>445.0</ele><time>2026-04-17T12:35:54Z</time></trkpt><trkpt lat="46.018968455038866" lon="11.35673508775765"><ele>442.5</ele><time>2026-04-17T12:35:55Z</time></trkpt><trkpt lat="46.01902567904714" lon="11.357258221627658"><ele>440.0</ele><time>2026-04-17T12:35:56Z</time></trkpt><trkpt lat="46.019084532022326" lon="11.357787034803238"><ele>440.5</ele><time>2026-04-17T12:35:57Z</time></trkpt><trkpt lat="46.019141970586894" lon="11.358309197901667"><ele>441.0</ele><time>2026-04-17T12:35:58Z</time></trkpt><trkpt lat="46.01919339401394" lon="11.358785242970441"><ele>447.5</ele><time>2026-04-17T12:35:59Z</time></trkpt><trkpt lat="46.019237734625435" lon="11.359219301683508"><ele>454.0</ele><time>2026-04-17T12:36:00Z</time></trkpt><trkpt lat="46.01927765919683" lon="11.359609515754293"><ele>455.0</ele><time>2026-04-17T12:36:01Z</time></trkpt><trkpt lat="46.01931572750913" lon="11.359976115899391"><ele>456.0</ele><time>2026-04-17T12:36:02Z</time></trkpt><trkpt lat="46.01934907245254" lon="11.360307981311243"><ele>455.0</ele><time>2026-04-17T12:36:03Z</time></trkpt><trkpt lat="46.01938106825417" lon="11.360606504567167"><ele>454.0</ele><time>2026-04-17T12:36:04Z</time></trkpt><trkpt lat="46.01941485209557" lon="11.36089505955725"><ele>453.0</ele><time>2026-04-17T12:36:05Z</time></trkpt><trkpt lat="46.01944617902493" lon="11.361173674367839"><ele>451.66666666666663</ele><time>2026-04-17T12:36:06Z</time></trkpt><trkpt lat="46.01947448360249" lon="11.36144418248642"><ele>450.3333333333333</ele><time>2026-04-17T12:36:07Z</time></trkpt><trkpt lat="46.01950795956975" lon="11.361740807314396"><ele>449.0</ele><time>2026-04-17T12:36:08Z</time></trkpt><trkpt lat="46.01955888258969" lon="11.362058069198126"><ele>448.0</ele><time>2026-04-17T12:36:09Z</time></trkpt><trkpt lat="46.01962768365371" lon="11.362397940238347"><ele>447.0</ele><time>2026-04-17T12:36:10Z</time></trkpt><trkpt lat="46.01970564406195" lon="11.362759328046588"><ele>446.5</ele><time>2026-04-17T12:36:11Z</time></trkpt><trkpt lat="46.01979419892536" lon="11.363140479298009"><ele>446.0</ele><time>2026-04-17T12:36:12Z</time></trkpt><trkpt lat="46.0198918768996" lon="11.363538567789735"><ele>449.5</ele><time>2026-04-17T12:36:13Z</time></trkpt><trkpt lat="46.01999864145807" lon="11.363945818173908"><ele>453.0</ele><time>2026-04-17T12:36:14Z</time></trkpt><trkpt lat="46.020116320759314" lon="11.364362395504047"><ele>452.0</ele><time>2026-04-17T12:36:15Z</time></trkpt><trkpt lat="46.020239887734505" lon="11.364791012918836"><ele>451.0</ele><time>2026-04-17T12:36:16Z</time></trkpt><trkpt lat="46.02036738694624" lon="11.365230550882703"><ele>449.0</ele><time>2026-04-17T12:36:17Z</time></trkpt><trkpt lat="46.020496272249325" lon="11.365680446778445"><ele>447.0</ele><time>2026-04-17T12:36:18Z</time></trkpt><trkpt lat="46.02062389302343" lon="11.366139026994068"><ele>445.0</ele><time>2026-04-17T12:36:19Z</time></trkpt><trkpt lat="46.02075626761264" lon="11.36660611519872"><ele>443.0</ele><time>2026-04-17T12:36:20Z</time></trkpt><trkpt lat="46.020886437636925" lon="11.367058247481687"><ele>446.0</ele><time>2026-04-17T12:36:21Z</time></trkpt><trkpt lat="46.02099735951381" lon="11.367442940743581"><ele>449.0</ele><time>2026-04-17T12:36:22Z</time></trkpt><trkpt lat="46.0211050064852" lon="11.36779602287927"><ele>446.5</ele><time>2026-04-17T12:36:23Z</time></trkpt><trkpt lat="46.02121566584849" lon="11.368134914803477"><ele>444.0</ele><time>2026-04-17T12:36:24Z</time></trkpt><trkpt lat="46.02133225991951" lon="11.368463328348772"><ele>444.0</ele><time>2026-04-17T12:36:25Z</time></trkpt><trkpt lat="46.02146882418479" lon="11.368790364977123"><ele>444.0</ele><time>2026-04-17T12:36:26Z</time></trkpt><trkpt lat="46.02162792157647" lon="11.369116745821774"><ele>446.0</ele><time>2026-04-17T12:36:27Z</time></trkpt><trkpt lat="46.0218041877598" lon="11.369439068120993"><ele>448.0</ele><time>2026-04-17T12:36:28Z</time></trkpt><trkpt lat="46.021997860217105" lon="11.369752958767151"><ele>448.0</ele><time>2026-04-17T12:36:29Z</time></trkpt><trkpt lat="46.02220626556633" lon="11.370053461999774"><ele>448.0</ele><time>2026-04-17T12:36:30Z</time></trkpt><trkpt lat="46.02242145262489" lon="11.370328120408061"><ele>447.0</ele><time>2026-04-17T12:36:31Z</time></trkpt><trkpt lat="46.022639779539425" lon="11.37056367318035"><ele>446.0</ele><time>2026-04-17T12:36:32Z</time></trkpt><trkpt lat="46.02287588372208" lon="11.370785258094855"><ele>446.0</ele><time>2026-04-17T12:36:33Z</time></trkpt><trkpt lat="46.02312624322715" lon="11.37100589206619"><ele>446.0</ele><time>2026-04-17T12:36:34Z</time></trkpt><trkpt lat="46.02339273601107" lon="11.371238588436595"><ele>444.0</ele><time>2026-04-17T12:36:35Z</time></trkpt><trkpt lat="46.02367360044589" lon="11.371467370915386"><ele>442.0</ele><time>2026-04-17T12:36:36Z</time></trkpt><trkpt lat="46.023959096464566" lon="11.371711014894164"><ele>442.5</ele><time>2026-04-17T12:36:37Z</time></trkpt><trkpt lat="46.024252870447434" lon="11.371961890857472"><ele>443.0</ele><time>2026-04-17T12:36:38Z</time></trkpt><trkpt lat="46.02455276987034" lon="11.372217126639447"><ele>440.0</ele><time>2026-04-17T12:36:39Z</time></trkpt><trkpt lat="46.02485976835742" lon="11.372476454388622"><ele>437.0</ele><time>2026-04-17T12:36:40Z</time></trkpt><trkpt lat="46.02516359340386" lon="11.372731798356556"><ele>437.0</ele><time>2026-04-17T12:36:41Z</time></trkpt><trkpt lat="46.02544364315755" lon="11.372968857542892"><ele>437.0</ele><time>2026-04-17T12:36:42Z</time></trkpt><trkpt lat="46.025715048564095" lon="11.373198874916294"><ele>435.0</ele><time>2026-04-17T12:36:43Z</time></trkpt><trkpt lat="46.025985023182585" lon="11.373425825236465"><ele>433.0</ele><time>2026-04-17T12:36:44Z</time></trkpt><trkpt lat="46.02624883465624" lon="11.373643768675857"><ele>430.0</ele><time>2026-04-17T12:36:45Z</time></trkpt><trkpt lat="46.02650272164073" lon="11.37385629263619"><ele>427.0</ele><time>2026-04-17T12:36:46Z</time></trkpt><trkpt lat="46.026747075695305" lon="11.374075565382453"><ele>427.0</ele><time>2026-04-17T12:36:47Z</time></trkpt><trkpt lat="46.026989988771824" lon="11.374306614797575"><ele>427.0</ele><time>2026-04-17T12:36:48Z</time></trkpt><trkpt lat="46.02721396869226" lon="11.37454962165911"><ele>427.5</ele><time>2026-04-17T12:36:49Z</time></trkpt><trkpt lat="46.027426801641184" lon="11.374809821949055"><ele>428.0</ele><time>2026-04-17T12:36:50Z</time></trkpt><trkpt lat="46.02762692285205" lon="11.375083737989973"><ele>428.0</ele><time>2026-04-17T12:36:51Z</time></trkpt><trkpt lat="46.02781125203869" lon="11.375370676052853"><ele>428.0</ele><time>2026-04-17T12:36:52Z</time></trkpt><trkpt lat="46.02798365229952" lon="11.37567774269917"><ele>427.5</ele><time>2026-04-17T12:36:53Z</time></trkpt><trkpt lat="46.028151801186375" lon="11.376003327262756"><ele>427.0</ele><time>2026-04-17T12:36:54Z</time></trkpt><trkpt lat="46.02830406590445" lon="11.37633550092557"><ele>426.0</ele><time>2026-04-17T12:36:55Z</time></trkpt><trkpt lat="46.028437064409076" lon="11.376674137749688"><ele>425.0</ele><time>2026-04-17T12:36:56Z</time></trkpt><trkpt lat="46.028550716606496" lon="11.377022670562619"><ele>425.0</ele><time>2026-04-17T12:36:57Z</time></trkpt><trkpt lat="46.02864326923011" lon="11.377377126511051"><ele>425.0</ele><time>2026-04-17T12:36:58Z</time></trkpt><trkpt lat="46.02872191003807" lon="11.377732324923434"><ele>424.0</ele><time>2026-04-17T12:36:59Z</time></trkpt><trkpt lat="46.02879040944022" lon="11.378099990625497"><ele>423.0</ele><time>2026-04-17T12:37:00Z</time></trkpt><trkpt lat="46.02884775483914" lon="11.378472159384208"><ele>422.0</ele><time>2026-04-17T12:37:01Z</time></trkpt><trkpt lat="46.02889009944536" lon="11.378853615780175"><ele>421.0</ele><time>2026-04-17T12:37:02Z</time></trkpt><trkpt lat="46.02892311961802" lon="11.379249580134198"><ele>421.0</ele><time>2026-04-17T12:37:03Z</time></trkpt><trkpt lat="46.028952568526975" lon="11.379671908074348"><ele>421.0</ele><time>2026-04-17T12:37:04Z</time></trkpt><trkpt lat="46.028985402961155" lon="11.380110299412"><ele>421.5</ele><time>2026-04-17T12:37:05Z</time></trkpt><trkpt lat="46.02902156817472" lon="11.380562508509783"><ele>422.0</ele><time>2026-04-17T12:37:06Z</time></trkpt><trkpt lat="46.0290614163547" lon="11.381028088488453"><ele>422.0</ele><time>2026-04-17T12:37:07Z</time></trkpt><trkpt lat="46.029101001910696" lon="11.38150832687665"><ele>422.0</ele><time>2026-04-17T12:37:08Z</time></trkpt><trkpt lat="46.029138054981104" lon="11.381999221513142"><ele>423.5</ele><time>2026-04-17T12:37:09Z</time></trkpt><trkpt lat="46.02917358331774" lon="11.382499472731613"><ele>425.0</ele><time>2026-04-17T12:37:10Z</time></trkpt><trkpt lat="46.029207286979386" lon="11.382979944786477"><ele>424.0</ele><time>2026-04-17T12:37:11Z</time></trkpt><trkpt lat="46.029237862637416" lon="11.383413277168557"><ele>423.0</ele><time>2026-04-17T12:37:12Z</time></trkpt><trkpt lat="46.029267080505306" lon="11.38380807290974"><ele>423.5</ele><time>2026-04-17T12:37:13Z</time></trkpt><trkpt lat="46.02928837664093" lon="11.384189865856698"><ele>424.0</ele><time>2026-04-17T12:37:14Z</time></trkpt><trkpt lat="46.02929611737416" lon="11.384575143443113"><ele>423.5</ele><time>2026-04-17T12:37:15Z</time></trkpt><trkpt lat="46.02928339826167" lon="11.384969602544212"><ele>423.0</ele><time>2026-04-17T12:37:16Z</time></trkpt><trkpt lat="46.02925256661205" lon="11.385384916227919"><ele>422.5</ele><time>2026-04-17T12:37:17Z</time></trkpt><trkpt lat="46.029214167018175" lon="11.385820990004321"><ele>422.0</ele><time>2026-04-17T12:37:18Z</time></trkpt><trkpt lat="46.02917609481588" lon="11.386225331646058"><ele>422.0</ele><time>2026-04-17T12:37:19Z</time></trkpt><trkpt lat="46.02914396245356" lon="11.38659718519911"><ele>422.0</ele><time>2026-04-17T12:37:20Z</time></trkpt><trkpt lat="46.029122283578886" lon="11.386939387004348"><ele>421.66666666666663</ele><time>2026-04-17T12:37:21Z</time></trkpt><trkpt lat="46.02912649157319" lon="11.387250561326635"><ele>421.33333333333337</ele><time>2026-04-17T12:37:22Z</time></trkpt><trkpt lat="46.02914653376752" lon="11.387574049447137"><ele>421.0</ele><time>2026-04-17T12:37:23Z</time></trkpt><trkpt lat="46.02918651502052" lon="11.38790454854603"><ele>422.5</ele><time>2026-04-17T12:37:24Z</time></trkpt><trkpt lat="46.029240152104705" lon="11.38822662735469"><ele>424.0</ele><time>2026-04-17T12:37:25Z</time></trkpt><trkpt lat="46.02931698193488" lon="11.388526042452138"><ele>424.0</ele><time>2026-04-17T12:37:26Z</time></trkpt><trkpt lat="46.02941447431085" lon="11.388829666634855"><ele>424.0</ele><time>2026-04-17T12:37:27Z</time></trkpt><trkpt lat="46.0295272504713" lon="11.38913472684224"><ele>424.5</ele><time>2026-04-17T12:37:28Z</time></trkpt><trkpt lat="46.029659778987565" lon="11.389421209369466"><ele>425.0</ele><time>2026-04-17T12:37:29Z</time></trkpt><trkpt lat="46.0298119355559" lon="11.389693979067696"><ele>423.5</ele><time>2026-04-17T12:37:30Z</time></trkpt><trkpt lat="46.0299805434895" lon="11.389942952563889"><ele>422.0</ele><time>2026-04-17T12:37:31Z</time></trkpt><trkpt lat="46.030170539375206" lon="11.390164045358908"><ele>422.0</ele><time>2026-04-17T12:37:32Z</time></trkpt><trkpt lat="46.030381751511165" lon="11.39038447967818"><ele>422.0</ele><time>2026-04-17T12:37:33Z</time></trkpt><trkpt lat="46.03061372156304" lon="11.39062326094974"><ele>422.0</ele><time>2026-04-17T12:37:34Z</time></trkpt><trkpt lat="46.03085388824115" lon="11.390877399004191"><ele>422.0</ele><time>2026-04-17T12:37:35Z</time></trkpt><trkpt lat="46.03110031412214" lon="11.391142325494481"><ele>423.0</ele><time>2026-04-17T12:37:36Z</time></trkpt><trkpt lat="46.03135328344818" lon="11.391412742162382"><ele>424.0</ele><time>2026-04-17T12:37:37Z</time></trkpt><trkpt lat="46.03160799554921" lon="11.391690681013182"><ele>424.5</ele><time>2026-04-17T12:37:38Z</time></trkpt><trkpt lat="46.03186454529336" lon="11.391973192884683"><ele>425.0</ele><time>2026-04-17T12:37:39Z</time></trkpt><trkpt lat="46.032126127780685" lon="11.392263603161638"><ele>425.0</ele><time>2026-04-17T12:37:40Z</time></trkpt><trkpt lat="46.03239634102001" lon="11.39256305205774"><ele>425.0</ele><time>2026-04-17T12:37:41Z</time></trkpt><trkpt lat="46.032665080589176" lon="11.392871544425315"><ele>424.0</ele><time>2026-04-17T12:37:42Z</time></trkpt><trkpt lat="46.032909348463214" lon="11.393163510406946"><ele>423.0</ele><time>2026-04-17T12:37:43Z</time></trkpt><trkpt lat="46.03314277181591" lon="11.39344668219112"><ele>422.5</ele><time>2026-04-17T12:37:44Z</time></trkpt><trkpt lat="46.033366335959535" lon="11.39372636142658"><ele>422.0</ele><time>2026-04-17T12:37:45Z</time></trkpt><trkpt lat="46.03358583189921" lon="11.394018166977208"><ele>421.0</ele><time>2026-04-17T12:37:46Z</time></trkpt><trkpt lat="46.033809664751054" lon="11.394322196025994"><ele>420.0</ele><time>2026-04-17T12:37:47Z</time></trkpt><trkpt lat="46.03403461887736" lon="11.394630072401187"><ele>418.5</ele><time>2026-04-17T12:37:48Z</time></trkpt><trkpt lat="46.0342587283667" lon="11.394927660127209"><ele>417.0</ele><time>2026-04-17T12:37:49Z</time></trkpt><trkpt lat="46.03448099486895" lon="11.395213901659604"><ele>417.0</ele><time>2026-04-17T12:37:50Z</time></trkpt><trkpt lat="46.03470221261527" lon="11.395502092093942"><ele>417.0</ele><time>2026-04-17T12:37:51Z</time></trkpt><trkpt lat="46.034908665170356" lon="11.395787882199855"><ele>416.5</ele><time>2026-04-17T12:37:52Z</time></trkpt><trkpt lat="46.03511293497101" lon="11.396087374222953"><ele>416.0</ele><time>2026-04-17T12:37:53Z</time></trkpt><trkpt lat="46.03532264134035" lon="11.396404155560207"><ele>415.0</ele><time>2026-04-17T12:37:54Z</time></trkpt><trkpt lat="46.035529862294254" lon="11.3967281046195"><ele>414.0</ele><time>2026-04-17T12:37:55Z</time></trkpt><trkpt lat="46.03571848499701" lon="11.397032398227575"><ele>415.0</ele><time>2026-04-17T12:37:56Z</time></trkpt><trkpt lat="46.035898695223125" lon="11.397324282708711"><ele>416.0</ele><time>2026-04-17T12:37:57Z</time></trkpt><trkpt lat="46.03607248998817" lon="11.39759938243188"><ele>416.0</ele><time>2026-04-17T12:37:58Z</time></trkpt><trkpt lat="46.036242588912614" lon="11.39786494442127"><ele>416.0</ele><time>2026-04-17T12:37:59Z</time></trkpt><trkpt lat="46.03641094410623" lon="11.398131847099439"><ele>416.0</ele><time>2026-04-17T12:38:00Z</time></trkpt><trkpt lat="46.03658425373959" lon="11.398408273669913"><ele>416.0</ele><time>2026-04-17T12:38:01Z</time></trkpt><trkpt lat="46.03676760401903" lon="11.398706565062302"><ele>417.0</ele><time>2026-04-17T12:38:02Z</time></trkpt><trkpt lat="46.03695955920388" lon="11.399018599429159"><ele>418.0</ele><time>2026-04-17T12:38:03Z</time></trkpt><trkpt lat="46.03715895081043" lon="11.399337213305893"><ele>418.0</ele><time>2026-04-17T12:38:04Z</time></trkpt><trkpt lat="46.03735122537282" lon="11.399647444236205"><ele>418.0</ele><time>2026-04-17T12:38:05Z</time></trkpt><trkpt lat="46.037527445330284" lon="11.399930950295444"><ele>419.5</ele><time>2026-04-17T12:38:06Z</time></trkpt><trkpt lat="46.037695441031154" lon="11.400200480443024"><ele>421.0</ele><time>2026-04-17T12:38:07Z</time></trkpt><trkpt lat="46.03786396286966" lon="11.400467907040868"><ele>419.0</ele><time>2026-04-17T12:38:08Z</time></trkpt><trkpt lat="46.038038060056984" lon="11.400752277821194"><ele>417.0</ele><time>2026-04-17T12:38:09Z</time></trkpt><trkpt lat="46.03821166715994" lon="11.401055275671485"><ele>418.0</ele><time>2026-04-17T12:38:10Z</time></trkpt><trkpt lat="46.03837298928108" lon="11.40136092254841"><ele>419.0</ele><time>2026-04-17T12:38:11Z</time></trkpt><trkpt lat="46.038524891628704" lon="11.40167904485267"><ele>419.0</ele><time>2026-04-17T12:38:12Z</time></trkpt><trkpt lat="46.0386648202813" lon="11.402015377071475"><ele>419.0</ele><time>2026-04-17T12:38:13Z</time></trkpt><trkpt lat="46.03880044535367" lon="11.40237206138044"><ele>417.0</ele><time>2026-04-17T12:38:14Z</time></trkpt><trkpt lat="46.0389208430896" lon="11.402736359070655"><ele>415.0</ele><time>2026-04-17T12:38:15Z</time></trkpt><trkpt lat="46.03903009771624" lon="11.403118393026741"><ele>415.0</ele><time>2026-04-17T12:38:16Z</time></trkpt><trkpt lat="46.039124491784825" lon="11.403508227584377"><ele>415.0</ele><time>2026-04-17T12:38:17Z</time></trkpt><trkpt lat="46.03920609204947" lon="11.403908332832577"><ele>415.5</ele><time>2026-04-17T12:38:18Z</time></trkpt><trkpt lat="46.03927562907003" lon="11.404320201461822"><ele>416.0</ele><time>2026-04-17T12:38:19Z</time></trkpt><trkpt lat="46.03932858980417" lon="11.404734789658395"><ele>416.0</ele><time>2026-04-17T12:38:20Z</time></trkpt><trkpt lat="46.03936656961628" lon="11.405160147731143"><ele>416.0</ele><time>2026-04-17T12:38:21Z</time></trkpt><trkpt lat="46.039397626111594" lon="11.405616228253544"><ele>414.5</ele><time>2026-04-17T12:38:22Z</time></trkpt><trkpt lat="46.039426390319996" lon="11.40608461933331"><ele>413.0</ele><time>2026-04-17T12:38:23Z</time></trkpt><trkpt lat="46.03946006658277" lon="11.406564394226564"><ele>413.0</ele><time>2026-04-17T12:38:24Z</time></trkpt><trkpt lat="46.03949517664282" lon="11.407057283431781"><ele>413.0</ele><time>2026-04-17T12:38:25Z</time></trkpt><trkpt lat="46.03953123551494" lon="11.407556209003216"><ele>412.5</ele><time>2026-04-17T12:38:26Z</time></trkpt><trkpt lat="46.039563913140434" lon="11.408033257092981"><ele>412.0</ele><time>2026-04-17T12:38:27Z</time></trkpt><trkpt lat="46.03959367150543" lon="11.408480444591904"><ele>412.5</ele><time>2026-04-17T12:38:28Z</time></trkpt><trkpt lat="46.03962386707311" lon="11.408947480059481"><ele>413.0</ele><time>2026-04-17T12:38:29Z</time></trkpt><trkpt lat="46.039653543532175" lon="11.409429849487948"><ele>414.0</ele><time>2026-04-17T12:38:30Z</time></trkpt><trkpt lat="46.03968374015541" lon="11.409871332996344"><ele>415.0</ele><time>2026-04-17T12:38:31Z</time></trkpt><trkpt lat="46.039713638221826" lon="11.410289016949333"><ele>415.5</ele><time>2026-04-17T12:38:32Z</time></trkpt><trkpt lat="46.03974740336078" lon="11.410698334753484"><ele>416.0</ele><time>2026-04-17T12:38:33Z</time></trkpt><trkpt lat="46.039793758636485" lon="11.411117389893167"><ele>419.5</ele><time>2026-04-17T12:38:34Z</time></trkpt><trkpt lat="46.03985562267266" lon="11.411542423276355"><ele>423.0</ele><time>2026-04-17T12:38:35Z</time></trkpt><trkpt lat="46.039929397145954" lon="11.411964919974588"><ele>418.0</ele><time>2026-04-17T12:38:36Z</time></trkpt><trkpt lat="46.04001665295352" lon="11.412378144893173"><ele>413.0</ele><time>2026-04-17T12:38:37Z</time></trkpt><trkpt lat="46.040122534820014" lon="11.412792370264553"><ele>413.0</ele><time>2026-04-17T12:38:38Z</time></trkpt><trkpt lat="46.04024308378585" lon="11.413208630777573"><ele>413.0</ele><time>2026-04-17T12:38:39Z</time></trkpt><trkpt lat="46.040370930041156" lon="11.413627277149695"><ele>414.0</ele><time>2026-04-17T12:38:40Z</time></trkpt><trkpt lat="46.04051416340053" lon="11.414056844942893"><ele>415.0</ele><time>2026-04-17T12:38:41Z</time></trkpt><trkpt lat="46.04065155777379" lon="11.41447456087219"><ele>414.0</ele><time>2026-04-17T12:38:42Z</time></trkpt><trkpt lat="46.040778347502126" lon="11.414860004468435"><ele>413.0</ele><time>2026-04-17T12:38:43Z</time></trkpt><trkpt lat="46.040905333424845" lon="11.415243211619995"><ele>412.0</ele><time>2026-04-17T12:38:44Z</time></trkpt><trkpt lat="46.04102433638308" lon="11.415608625601353"><ele>411.0</ele><time>2026-04-17T12:38:45Z</time></trkpt><trkpt lat="46.041137496358814" lon="11.415961198833346"><ele>411.0</ele><time>2026-04-17T12:38:46Z</time></trkpt><trkpt lat="46.041251360916654" lon="11.416307658083895"><ele>411.0</ele><time>2026-04-17T12:38:47Z</time></trkpt><trkpt lat="46.04136185527331" lon="11.41663624962163"><ele>411.5</ele><time>2026-04-17T12:38:48Z</time></trkpt><trkpt lat="46.04147361549762" lon="11.416949537134672"><ele>412.0</ele><time>2026-04-17T12:38:49Z</time></trkpt><trkpt lat="46.04160233050743" lon="11.417256078088823"><ele>411.0</ele><time>2026-04-17T12:38:50Z</time></trkpt><trkpt lat="46.04175371360677" lon="11.417577465173588"><ele>410.0</ele><time>2026-04-17T12:38:51Z</time></trkpt><trkpt lat="46.04192579628366" lon="11.417907867810753"><ele>410.0</ele><time>2026-04-17T12:38:52Z</time></trkpt><trkpt lat="46.042108352220794" lon="11.418249839326341"><ele>410.0</ele><time>2026-04-17T12:38:53Z</time></trkpt><trkpt lat="46.04229757883465" lon="11.418607786463687"><ele>408.5</ele><time>2026-04-17T12:38:54Z</time></trkpt><trkpt lat="46.04248687892749" lon="11.418978704623173"><ele>407.0</ele><time>2026-04-17T12:38:55Z</time></trkpt><trkpt lat="46.04268187977601" lon="11.419362359875604"><ele>405.5</ele><time>2026-04-17T12:38:56Z</time></trkpt><trkpt lat="46.04288466763631" lon="11.419748599786388"><ele>404.0</ele><time>2026-04-17T12:38:57Z</time></trkpt><trkpt lat="46.04309576384955" lon="11.42014527367727"><ele>403.5</ele><time>2026-04-17T12:38:58Z</time></trkpt><trkpt lat="46.04330714414089" lon="11.420547560934887"><ele>403.0</ele><time>2026-04-17T12:38:59Z</time></trkpt><trkpt lat="46.04351890813315" lon="11.42095429216182"><ele>402.0</ele><time>2026-04-17T12:39:00Z</time></trkpt><trkpt lat="46.043733307215525" lon="11.421369042791257"><ele>401.0</ele><time>2026-04-17T12:39:01Z</time></trkpt><trkpt lat="46.04394926728402" lon="11.421781926665703"><ele>401.5</ele><time>2026-04-17T12:39:02Z</time></trkpt><trkpt lat="46.044170047355315" lon="11.422199298019814"><ele>402.0</ele><time>2026-04-17T12:39:03Z</time></trkpt><trkpt lat="46.04439089408889" lon="11.422616601750304"><ele>400.5</ele><time>2026-04-17T12:39:04Z</time></trkpt><trkpt lat="46.04461001509285" lon="11.423033166171553"><ele>399.0</ele><time>2026-04-17T12:39:05Z</time></trkpt><trkpt lat="46.0448111660095" lon="11.42342044888367"><ele>399.5</ele><time>2026-04-17T12:39:06Z</time></trkpt><trkpt lat="46.04499904305638" lon="11.423779308178117"><ele>400.0</ele><time>2026-04-17T12:39:07Z</time></trkpt><trkpt lat="46.04517803419418" lon="11.424118650155574"><ele>400.0</ele><time>2026-04-17T12:39:08Z</time></trkpt><trkpt lat="46.04534757157555" lon="11.4244447539558"><ele>400.0</ele><time>2026-04-17T12:39:09Z</time></trkpt><trkpt lat="46.04550313886385" lon="11.424759732985736"><ele>398.5</ele><time>2026-04-17T12:39:10Z</time></trkpt><trkpt lat="46.04564864109483" lon="11.425064609526144"><ele>397.0</ele><time>2026-04-17T12:39:11Z</time></trkpt><trkpt lat="46.04578421872072" lon="11.425365281554855"><ele>397.5</ele><time>2026-04-17T12:39:12Z</time></trkpt><trkpt lat="46.0459048863916" lon="11.425662651371074"><ele>398.0</ele><time>2026-04-17T12:39:13Z</time></trkpt><trkpt lat="46.046015845686966" lon="11.425973692359612"><ele>396.5</ele><time>2026-04-17T12:39:14Z</time></trkpt><trkpt lat="46.046126393992054" lon="11.426315325424921"><ele>395.0</ele><time>2026-04-17T12:39:15Z</time></trkpt><trkpt lat="46.04622841577934" lon="11.426664977539028"><ele>395.0</ele><time>2026-04-17T12:39:16Z</time></trkpt><trkpt lat="46.04632023598322" lon="11.427025099252813"><ele>395.0</ele><time>2026-04-17T12:39:17Z</time></trkpt><trkpt lat="46.046394053783345" lon="11.427380219394777"><ele>395.5</ele><time>2026-04-17T12:39:18Z</time></trkpt><trkpt lat="46.04644672092245" lon="11.427715793555317"><ele>396.0</ele><time>2026-04-17T12:39:19Z</time></trkpt><trkpt lat="46.04648819601846" lon="11.428055634309207"><ele>395.0</ele><time>2026-04-17T12:39:20Z</time></trkpt><trkpt lat="46.046525836825346" lon="11.428420127845298"><ele>394.0</ele><time>2026-04-17T12:39:21Z</time></trkpt><trkpt lat="46.046553110359575" lon="11.428788706376677"><ele>393.0</ele><time>2026-04-17T12:39:22Z</time></trkpt><trkpt lat="46.04657149026261" lon="11.429161703158782"><ele>392.0</ele><time>2026-04-17T12:39:23Z</time></trkpt><trkpt lat="46.046572323260506" lon="11.429536769592234"><ele>391.5</ele><time>2026-04-17T12:39:24Z</time></trkpt><trkpt lat="46.04655724518885" lon="11.429914139110855"><ele>391.0</ele><time>2026-04-17T12:39:25Z</time></trkpt><trkpt lat="46.0465296009955" lon="11.430299344342965"><ele>391.5</ele><time>2026-04-17T12:39:26Z</time></trkpt><trkpt lat="46.04648834224258" lon="11.430705858977193"><ele>392.0</ele><time>2026-04-17T12:39:27Z</time></trkpt><trkpt lat="46.046441307129435" lon="11.431127931351057"><ele>394.5</ele><time>2026-04-17T12:39:28Z</time></trkpt><trkpt lat="46.04638714721083" lon="11.431561220553283"><ele>397.0</ele><time>2026-04-17T12:39:29Z</time></trkpt><trkpt lat="46.04632715710951" lon="11.432001337770684"><ele>397.0</ele><time>2026-04-17T12:39:30Z</time></trkpt><trkpt lat="46.0462681248551" lon="11.432450330579387"><ele>397.0</ele><time>2026-04-17T12:39:31Z</time></trkpt><trkpt lat="46.04620723792428" lon="11.432908571268682"><ele>396.5</ele><time>2026-04-17T12:39:32Z</time></trkpt><trkpt lat="46.04615116287748" lon="11.4333750626085"><ele>396.0</ele><time>2026-04-17T12:39:33Z</time></trkpt><trkpt lat="46.04609640011294" lon="11.433847054987938"><ele>395.5</ele><time>2026-04-17T12:39:34Z</time></trkpt><trkpt lat="46.046043058501134" lon="11.434321150480606"><ele>395.0</ele><time>2026-04-17T12:39:35Z</time></trkpt><trkpt lat="46.04599550488678" lon="11.434801477984086"><ele>397.0</ele><time>2026-04-17T12:39:36Z</time></trkpt><trkpt lat="46.04595803898862" lon="11.435272735855586"><ele>399.0</ele><time>2026-04-17T12:39:37Z</time></trkpt><trkpt lat="46.045937304950456" lon="11.435712590060682"><ele>400.0</ele><time>2026-04-17T12:39:38Z</time></trkpt><trkpt lat="46.04592978868929" lon="11.43616505698554"><ele>401.0</ele><time>2026-04-17T12:39:39Z</time></trkpt><trkpt lat="46.04593640939648" lon="11.43663181314359"><ele>401.5</ele><time>2026-04-17T12:39:40Z</time></trkpt><trkpt lat="46.04595196486737" lon="11.437102210399535"><ele>402.0</ele><time>2026-04-17T12:39:41Z</time></trkpt><trkpt lat="46.04597838328633" lon="11.437579676219299"><ele>407.5</ele><time>2026-04-17T12:39:42Z</time></trkpt><trkpt lat="46.04601650486437" lon="11.438052166759848"><ele>413.0</ele><time>2026-04-17T12:39:43Z</time></trkpt><trkpt lat="46.04606114501318" lon="11.43852860633668"><ele>415.5</ele><time>2026-04-17T12:39:44Z</time></trkpt><trkpt lat="46.046107065748956" lon="11.439018196079044"><ele>418.0</ele><time>2026-04-17T12:39:45Z</time></trkpt><trkpt lat="46.04615771868878" lon="11.43951729123289"><ele>421.0</ele><time>2026-04-17T12:39:46Z</time></trkpt><trkpt lat="46.04620976581899" lon="11.440021263572197"><ele>424.0</ele><time>2026-04-17T12:39:47Z</time></trkpt><trkpt lat="46.04625793998647" lon="11.440533793996664"><ele>425.0</ele><time>2026-04-17T12:39:48Z</time></trkpt><trkpt lat="46.04630836639881" lon="11.441054777970662"><ele>426.0</ele><time>2026-04-17T12:39:49Z</time></trkpt><trkpt lat="46.04635519692877" lon="11.441542108855"><ele>429.0</ele><time>2026-04-17T12:39:50Z</time></trkpt><trkpt lat="46.04639389344755" lon="11.441987555236702"><ele>432.0</ele><time>2026-04-17T12:39:51Z</time></trkpt><trkpt lat="46.04643703711666" lon="11.442415072342365"><ele>434.5</ele><time>2026-04-17T12:39:52Z</time></trkpt><trkpt lat="46.04648476935927" lon="11.44286167551707"><ele>437.0</ele><time>2026-04-17T12:39:53Z</time></trkpt><trkpt lat="46.046533891169865" lon="11.44332088543653"><ele>437.0</ele><time>2026-04-17T12:39:54Z</time></trkpt><trkpt lat="46.04657908494249" lon="11.443788271692476"><ele>437.0</ele><time>2026-04-17T12:39:55Z</time></trkpt><trkpt lat="46.04662224143054" lon="11.444252291545359"><ele>432.0</ele><time>2026-04-17T12:39:56Z</time></trkpt><trkpt lat="46.04666503331923" lon="11.444675091442878"><ele>427.0</ele><time>2026-04-17T12:39:57Z</time></trkpt><trkpt lat="46.04670820972843" lon="11.445093869337805"><ele>426.5</ele><time>2026-04-17T12:39:58Z</time></trkpt><trkpt lat="46.046745897527735" lon="11.445507010624647"><ele>426.0</ele><time>2026-04-17T12:39:59Z</time></trkpt><trkpt lat="46.046772885161765" lon="11.445916896108733"><ele>426.0</ele><time>2026-04-17T12:40:00Z</time></trkpt><trkpt lat="46.04678848420736" lon="11.446334166221114"><ele>426.0</ele><time>2026-04-17T12:40:01Z</time></trkpt><trkpt lat="46.046790347845" lon="11.446756383855963"><ele>427.0</ele><time>2026-04-17T12:40:02Z</time></trkpt><trkpt lat="46.04677856627934" lon="11.447176943075862"><ele>428.0</ele><time>2026-04-17T12:40:03Z</time></trkpt><trkpt lat="46.04675358269874" lon="11.447603529092763"><ele>426.0</ele><time>2026-04-17T12:40:04Z</time></trkpt><trkpt lat="46.04671664504855" lon="11.448031260501676"><ele>424.0</ele><time>2026-04-17T12:40:05Z</time></trkpt><trkpt lat="46.046667570206694" lon="11.448462043086808"><ele>431.0</ele><time>2026-04-17T12:40:06Z</time></trkpt><trkpt lat="46.046606268446354" lon="11.44889818904188"><ele>438.0</ele><time>2026-04-17T12:40:07Z</time></trkpt><trkpt lat="46.046533639843844" lon="11.449349343365817"><ele>445.5</ele><time>2026-04-17T12:40:08Z</time></trkpt><trkpt lat="46.04646171077984" lon="11.449782998375714"><ele>453.0</ele><time>2026-04-17T12:40:09Z</time></trkpt><trkpt lat="46.046392496862246" lon="11.450174726259966"><ele>472.0</ele><time>2026-04-17T12:40:10Z</time></trkpt><trkpt lat="46.04632844108538" lon="11.450562997415947"><ele>491.0</ele><time>2026-04-17T12:40:11Z</time></trkpt><trkpt lat="46.04626402034332" lon="11.450958864842315"><ele>506.5</ele><time>2026-04-17T12:40:12Z</time></trkpt><trkpt lat="46.046193221548435" lon="11.45139395927028"><ele>522.0</ele><time>2026-04-17T12:40:13.017Z</time></trkpt><trkpt lat="46.046117010772726" lon="11.45184136252091"><ele>519.5</ele><time>2026-04-17T12:40:14.017Z</time></trkpt><trkpt lat="46.04604168658786" lon="11.452289119607576"><ele>517.0</ele><time>2026-04-17T12:40:15.016Z</time></trkpt><trkpt lat="46.0459707726661" lon="11.452701299514468"><ele>500.0</ele><time>2026-04-17T12:40:16.019Z</time></trkpt><trkpt lat="46.04589825361343" lon="11.453100509135748"><ele>483.0</ele><time>2026-04-17T12:40:17.015Z</time></trkpt><trkpt lat="46.04582589824233" lon="11.453510729562469"><ele>468.0</ele><time>2026-04-17T12:40:18.018Z</time></trkpt><trkpt lat="46.045650970233645" lon="11.457407930876554"><ele>468.0</ele><time>2026-04-17T12:40:27Z</time></trkpt><trkpt lat="46.04563055914525" lon="11.457841536977384"><ele>468.0</ele><time>2026-04-17T12:40:28Z</time></trkpt><trkpt lat="46.045564464747734" lon="11.458292221911497"><ele>457.0</ele><time>2026-04-17T12:40:29Z</time></trkpt><trkpt lat="46.04552533512967" lon="11.458714901104582"><ele>446.0</ele><time>2026-04-17T12:40:30Z</time></trkpt><trkpt lat="46.04548081902468" lon="11.459154550834459"><ele>434.5</ele><time>2026-04-17T12:40:31Z</time></trkpt><trkpt lat="46.0454250694962" lon="11.459592783308942"><ele>423.0</ele><time>2026-04-17T12:40:32Z</time></trkpt><trkpt lat="46.045377279702855" lon="11.460035355133925"><ele>421.5</ele><time>2026-04-17T12:40:33Z</time></trkpt><trkpt lat="46.045330917877514" lon="11.46049041312969"><ele>420.0</ele><time>2026-04-17T12:40:34Z</time></trkpt><trkpt lat="46.0452826028075" lon="11.460970404063692"><ele>419.0</ele><time>2026-04-17T12:40:35.015Z</time></trkpt><trkpt lat="46.04523487746871" lon="11.461459186816278"><ele>418.0</ele><time>2026-04-17T12:40:36.021Z</time></trkpt><trkpt lat="46.045190302518016" lon="11.461913841014974"><ele>417.0</ele><time>2026-04-17T12:40:37.02Z</time></trkpt><trkpt lat="46.04515115114687" lon="11.46234299170637"><ele>416.0</ele><time>2026-04-17T12:40:38.018Z</time></trkpt><trkpt lat="46.04504131250646" lon="11.464296011264867"><ele>412.5</ele><time>2026-04-17T12:40:43Z</time></trkpt><trkpt lat="46.04505126526439" lon="11.464684089832573"><ele>409.0</ele><time>2026-04-17T12:40:44Z</time></trkpt><trkpt lat="46.045088206933535" lon="11.465079933126159"><ele>409.0</ele><time>2026-04-17T12:40:45Z</time></trkpt><trkpt lat="46.04513927225015" lon="11.465471515816615"><ele>409.0</ele><time>2026-04-17T12:40:46Z</time></trkpt><trkpt lat="46.045195648183025" lon="11.465859898732111"><ele>409.0</ele><time>2026-04-17T12:40:47Z</time></trkpt><trkpt lat="46.04526978785282" lon="11.466200112178964"><ele>409.0</ele><time>2026-04-17T12:40:48Z</time></trkpt><trkpt lat="46.04535943563093" lon="11.46647706462568"><ele>409.0</ele><time>2026-04-17T12:40:49Z</time></trkpt><trkpt lat="46.04545570676984" lon="11.466809795244002"><ele>409.0</ele><time>2026-04-17T12:40:50Z</time></trkpt><trkpt lat="46.04556896666438" lon="11.467143919906947"><ele>410.5</ele><time>2026-04-17T12:40:51Z</time></trkpt><trkpt lat="46.04569873657112" lon="11.467492702368547"><ele>412.0</ele><time>2026-04-17T12:40:52Z</time></trkpt><trkpt lat="46.0458396944306" lon="11.46785260761017"><ele>409.5</ele><time>2026-04-17T12:40:53Z</time></trkpt><trkpt lat="46.04598579281248" lon="11.46822508174355"><ele>407.0</ele><time>2026-04-17T12:40:54Z</time></trkpt><trkpt lat="46.04613484200914" lon="11.468607443521705"><ele>408.0</ele><time>2026-04-17T12:40:55Z</time></trkpt><trkpt lat="46.0462892350092" lon="11.468999233840721"><ele>409.0</ele><time>2026-04-17T12:40:56Z</time></trkpt><trkpt lat="46.04644943414183" lon="11.469397290497191"><ele>408.0</ele><time>2026-04-17T12:40:57Z</time></trkpt><trkpt lat="46.046612644243474" lon="11.46980490399242"><ele>407.0</ele><time>2026-04-17T12:40:58Z</time></trkpt><trkpt lat="46.0467783893439" lon="11.470224058350396"><ele>403.5</ele><time>2026-04-17T12:40:59Z</time></trkpt><trkpt lat="46.04694723392189" lon="11.470655873704093"><ele>400.0</ele><time>2026-04-17T12:41:00Z</time></trkpt><trkpt lat="46.0471258679664" lon="11.471107709345716"><ele>402.0</ele><time>2026-04-17T12:41:01Z</time></trkpt><trkpt lat="46.047310413284684" lon="11.47157275979482"><ele>404.0</ele><time>2026-04-17T12:41:02Z</time></trkpt><trkpt lat="46.047502638497946" lon="11.472050194749679"><ele>399.0</ele><time>2026-04-17T12:41:03Z</time></trkpt><trkpt lat="46.04769670500196" lon="11.472538925463445"><ele>394.0</ele><time>2026-04-17T12:41:04Z</time></trkpt><trkpt lat="46.047895046914014" lon="11.473036242720342"><ele>394.0</ele><time>2026-04-17T12:41:05Z</time></trkpt><trkpt lat="46.04809479464143" lon="11.473541940801484"><ele>394.0</ele><time>2026-04-17T12:41:06Z</time></trkpt><trkpt lat="46.04829149402447" lon="11.474044112478678"><ele>388.5</ele><time>2026-04-17T12:41:07Z</time></trkpt><trkpt lat="46.04847275974025" lon="11.474501789879836"><ele>383.0</ele><time>2026-04-17T12:41:08Z</time></trkpt><trkpt lat="46.048644073546065" lon="11.474929264089326"><ele>383.0</ele><time>2026-04-17T12:41:09Z</time></trkpt><trkpt lat="46.04880295621251" lon="11.475327635488265"><ele>383.0</ele><time>2026-04-17T12:41:10Z</time></trkpt><trkpt lat="46.0489548232871" lon="11.475703159343295"><ele>383.5</ele><time>2026-04-17T12:41:11Z</time></trkpt><trkpt lat="46.04909777644159" lon="11.476060232307155"><ele>384.0</ele><time>2026-04-17T12:41:12Z</time></trkpt><trkpt lat="46.04923158007978" lon="11.476401520394838"><ele>379.0</ele><time>2026-04-17T12:41:13Z</time></trkpt><trkpt lat="46.04936516765514" lon="11.476736579647058"><ele>374.0</ele><time>2026-04-17T12:41:14Z</time></trkpt><trkpt lat="46.04949853787982" lon="11.4770672018036"><ele>374.0</ele><time>2026-04-17T12:41:15Z</time></trkpt><trkpt lat="46.049628549180085" lon="11.477398407182791"><ele>374.0</ele><time>2026-04-17T12:41:16Z</time></trkpt><trkpt lat="46.04975782323204" lon="11.477733179746338"><ele>374.0</ele><time>2026-04-17T12:41:17Z</time></trkpt><trkpt lat="46.04989096707162" lon="11.478089154203756"><ele>374.0</ele><time>2026-04-17T12:41:18Z</time></trkpt><trkpt lat="46.05002637983577" lon="11.478462680915557"><ele>369.5</ele><time>2026-04-17T12:41:19Z</time></trkpt><trkpt lat="46.05015546070841" lon="11.478854862435442"><ele>365.0</ele><time>2026-04-17T12:41:20Z</time></trkpt><trkpt lat="46.05027553960188" lon="11.479252344548444"><ele>364.0</ele><time>2026-04-17T12:41:21Z</time></trkpt><trkpt lat="46.050384892298624" lon="11.479652391794346"><ele>363.0</ele><time>2026-04-17T12:41:22Z</time></trkpt><trkpt lat="46.0504858532762" lon="11.480069247149459"><ele>363.0</ele><time>2026-04-17T12:41:23Z</time></trkpt><trkpt lat="46.050577419804696" lon="11.48050062323685"><ele>363.0</ele><time>2026-04-17T12:41:24Z</time></trkpt><trkpt lat="46.05065943918924" lon="11.480938521861306"><ele>362.5</ele><time>2026-04-17T12:41:25Z</time></trkpt><trkpt lat="46.05073083231845" lon="11.481382688847054"><ele>362.0</ele><time>2026-04-17T12:41:26Z</time></trkpt><trkpt lat="46.05079063973393" lon="11.481821664731806"><ele>362.0</ele><time>2026-04-17T12:41:27Z</time></trkpt><trkpt lat="46.05083526472708" lon="11.48225373495773"><ele>362.0</ele><time>2026-04-17T12:41:28Z</time></trkpt><trkpt lat="46.050873816727524" lon="11.482683961012176"><ele>360.5</ele><time>2026-04-17T12:41:29Z</time></trkpt><trkpt lat="46.05090954437539" lon="11.483119627404903"><ele>359.0</ele><time>2026-04-17T12:41:30Z</time></trkpt><trkpt lat="46.05094460386524" lon="11.483574839678255"><ele>359.5</ele><time>2026-04-17T12:41:31Z</time></trkpt><trkpt lat="46.05098167169797" lon="11.48404402603309"><ele>360.0</ele><time>2026-04-17T12:41:32Z</time></trkpt><trkpt lat="46.05101981027675" lon="11.484518671109159"><ele>360.0</ele><time>2026-04-17T12:41:33Z</time></trkpt><trkpt lat="46.05105890042539" lon="11.485001891778802"><ele>360.0</ele><time>2026-04-17T12:41:34Z</time></trkpt><trkpt lat="46.051095346497604" lon="11.485491817889962"><ele>358.5</ele><time>2026-04-17T12:41:35Z</time></trkpt><trkpt lat="46.05112967389458" lon="11.4859843130631"><ele>357.0</ele><time>2026-04-17T12:41:36Z</time></trkpt><trkpt lat="46.051164444733935" lon="11.48646711733051"><ele>355.5</ele><time>2026-04-17T12:41:37Z</time></trkpt><trkpt lat="46.05119592327174" lon="11.486913087089734"><ele>354.0</ele><time>2026-04-17T12:41:38Z</time></trkpt><trkpt lat="46.051223687228145" lon="11.48735582071884"><ele>353.5</ele><time>2026-04-17T12:41:39Z</time></trkpt><trkpt lat="46.051245012196965" lon="11.487816299008186"><ele>353.0</ele><time>2026-04-17T12:41:40Z</time></trkpt><trkpt lat="46.05125529066848" lon="11.488284673803491"><ele>353.0</ele><time>2026-04-17T12:41:41Z</time></trkpt><trkpt lat="46.05125119740117" lon="11.488739014157522"><ele>353.0</ele><time>2026-04-17T12:41:42Z</time></trkpt><trkpt lat="46.05123472350944" lon="11.489195698978422"><ele>353.0</ele><time>2026-04-17T12:41:43Z</time></trkpt><trkpt lat="46.05120979655699" lon="11.489652859755997"><ele>353.0</ele><time>2026-04-17T12:41:44Z</time></trkpt><trkpt lat="46.051173043083374" lon="11.490119426711395"><ele>352.5</ele><time>2026-04-17T12:41:45Z</time></trkpt><trkpt lat="46.051132032752" lon="11.490598554546086"><ele>352.0</ele><time>2026-04-17T12:41:46Z</time></trkpt><trkpt lat="46.0510917849644" lon="11.491088444079299"><ele>351.0</ele><time>2026-04-17T12:41:47Z</time></trkpt><trkpt lat="46.051052256931335" lon="11.491582898223966"><ele>350.0</ele><time>2026-04-17T12:41:48Z</time></trkpt><trkpt lat="46.05101349216315" lon="11.492084269771098"><ele>350.5</ele><time>2026-04-17T12:41:49Z</time></trkpt><trkpt lat="46.050974347654275" lon="11.492586228962283"><ele>351.0</ele><time>2026-04-17T12:41:50Z</time></trkpt><trkpt lat="46.05093218346425" lon="11.493087350641654"><ele>351.5</ele><time>2026-04-17T12:41:51Z</time></trkpt><trkpt lat="46.050889739993366" lon="11.493587261194175"><ele>352.0</ele><time>2026-04-17T12:41:52Z</time></trkpt><trkpt lat="46.050846786278576" lon="11.494091571082055"><ele>351.5</ele><time>2026-04-17T12:41:53Z</time></trkpt><trkpt lat="46.050802951122286" lon="11.494604909574388"><ele>351.0</ele><time>2026-04-17T12:41:54Z</time></trkpt><trkpt lat="46.050760898405954" lon="11.495102325372612"><ele>351.0</ele><time>2026-04-17T12:41:55Z</time></trkpt><trkpt lat="46.05072247040835" lon="11.495560657981516"><ele>351.0</ele><time>2026-04-17T12:41:56Z</time></trkpt><trkpt lat="46.050684850054445" lon="11.496004108296747"><ele>349.5</ele><time>2026-04-17T12:41:57Z</time></trkpt><trkpt lat="46.050648849198204" lon="11.496451129355417"><ele>348.0</ele><time>2026-04-17T12:41:58Z</time></trkpt><trkpt lat="46.05061173964574" lon="11.496904195056025"><ele>347.0</ele><time>2026-04-17T12:41:59Z</time></trkpt><trkpt lat="46.050573052743474" lon="11.49737183205918"><ele>346.0</ele><time>2026-04-17T12:42:00Z</time></trkpt><trkpt lat="46.05053390608729" lon="11.497838089800942"><ele>345.5</ele><time>2026-04-17T12:42:01Z</time></trkpt><trkpt lat="46.05049593197924" lon="11.498273307153768"><ele>345.0</ele><time>2026-04-17T12:42:02Z</time></trkpt><trkpt lat="46.0504629449114" lon="11.498685389899574"><ele>344.5</ele><time>2026-04-17T12:42:03Z</time></trkpt><trkpt lat="46.050432420156284" lon="11.499099610668116"><ele>344.0</ele><time>2026-04-17T12:42:04Z</time></trkpt><trkpt lat="46.05040434167971" lon="11.49950991645897"><ele>344.5</ele><time>2026-04-17T12:42:05Z</time></trkpt><trkpt lat="46.050391528146335" lon="11.499932524629669"><ele>345.0</ele><time>2026-04-17T12:42:06Z</time></trkpt><trkpt lat="46.050395106455554" lon="11.50037273647551"><ele>345.0</ele><time>2026-04-17T12:42:07Z</time></trkpt><trkpt lat="46.05041351345858" lon="11.500825105131481"><ele>345.0</ele><time>2026-04-17T12:42:08Z</time></trkpt><trkpt lat="46.05044602798822" lon="11.501282300833736"><ele>345.0</ele><time>2026-04-17T12:42:09Z</time></trkpt><trkpt lat="46.05048837705147" lon="11.501699859807395"><ele>345.0</ele><time>2026-04-17T12:42:10Z</time></trkpt><trkpt lat="46.050544599237654" lon="11.50211096066615"><ele>345.0</ele><time>2026-04-17T12:42:11Z</time></trkpt><trkpt lat="46.05061337313796" lon="11.50251834080427"><ele>345.0</ele><time>2026-04-17T12:42:12Z</time></trkpt><trkpt lat="46.050688941917656" lon="11.502917155665148"><ele>345.5</ele><time>2026-04-17T12:42:13Z</time></trkpt><trkpt lat="46.05076806040646" lon="11.503312333842873"><ele>346.0</ele><time>2026-04-17T12:42:14Z</time></trkpt><trkpt lat="46.05084714979113" lon="11.503710786627"><ele>346.0</ele><time>2026-04-17T12:42:15Z</time></trkpt><trkpt lat="46.050945639364734" lon="11.504139603997706"><ele>346.0</ele><time>2026-04-17T12:42:16Z</time></trkpt><trkpt lat="46.05103684561264" lon="11.504561148891355"><ele>346.0</ele><time>2026-04-17T12:42:17Z</time></trkpt><trkpt lat="46.05111659665577" lon="11.504946751455485"><ele>346.0</ele><time>2026-04-17T12:42:18Z</time></trkpt><trkpt lat="46.05118455631771" lon="11.50529183082803"><ele>346.3333333333333</ele><time>2026-04-17T12:42:19Z</time></trkpt><trkpt lat="46.051244259585545" lon="11.505598926106826"><ele>346.6666666666667</ele><time>2026-04-17T12:42:20Z</time></trkpt><trkpt lat="46.05129900533087" lon="11.505876584481603"><ele>347.0</ele><time>2026-04-17T12:42:21Z</time></trkpt><trkpt lat="46.0513605486113" lon="11.506169289400951"><ele>347.5</ele><time>2026-04-17T12:42:22Z</time></trkpt><trkpt lat="46.05143612356323" lon="11.506494062981286"><ele>348.0</ele><time>2026-04-17T12:42:23Z</time></trkpt><trkpt lat="46.05150434022444" lon="11.506821067732439"><ele>348.0</ele><time>2026-04-17T12:42:24Z</time></trkpt><trkpt lat="46.0515610845882" lon="11.507143969776763"><ele>348.0</ele><time>2026-04-17T12:42:25Z</time></trkpt><trkpt lat="46.05161567544719" lon="11.507449201477748"><ele>348.6666666666667</ele><time>2026-04-17T12:42:26Z</time></trkpt><trkpt lat="46.05167060201775" lon="11.507737446262594"><ele>349.33333333333337</ele><time>2026-04-17T12:42:27Z</time></trkpt><trkpt lat="46.05172328959427" lon="11.508007358235727"><ele>350.0</ele><time>2026-04-17T12:42:28Z</time></trkpt><trkpt lat="46.05177664202473" lon="11.508264272547322"><ele>350.33333333333337</ele><time>2026-04-17T12:42:29Z</time></trkpt><trkpt lat="46.0518266842257" lon="11.508511434284674"><ele>350.6666666666667</ele><time>2026-04-17T12:42:30Z</time></trkpt><trkpt lat="46.051877955904374" lon="11.508753621913824"><ele>351.0</ele><time>2026-04-17T12:42:31Z</time></trkpt><trkpt lat="46.05192793535176" lon="11.508994156496898"><ele>350.3333333333333</ele><time>2026-04-17T12:42:32Z</time></trkpt><trkpt lat="46.0519774663307" lon="11.50923146176679"><ele>349.66666666666663</ele><time>2026-04-17T12:42:33Z</time></trkpt><trkpt lat="46.05202614086208" lon="11.50946614526938"><ele>349.0</ele><time>2026-04-17T12:42:34Z</time></trkpt><trkpt lat="46.05207208281757" lon="11.509699345936259"><ele>348.3333333333333</ele><time>2026-04-17T12:42:35Z</time></trkpt><trkpt lat="46.05211192691123" lon="11.509924834682998"><ele>347.6666666666667</ele><time>2026-04-17T12:42:36Z</time></trkpt><trkpt lat="46.052147240533614" lon="11.510146970382015"><ele>347.0</ele><time>2026-04-17T12:42:37Z</time></trkpt><trkpt lat="46.052170299105214" lon="11.510366437549553"><ele>347.0</ele><time>2026-04-17T12:42:38Z</time></trkpt><trkpt lat="46.052177863850524" lon="11.510577601027386"><ele>347.0</ele><time>2026-04-17T12:42:39Z</time></trkpt><trkpt lat="46.0521683894889" lon="11.510799353631898"><ele>347.0</ele><time>2026-04-17T12:42:40Z</time></trkpt><trkpt lat="46.05214716710548" lon="11.51102910340661"><ele>347.6666666666667</ele><time>2026-04-17T12:42:41Z</time></trkpt><trkpt lat="46.05212348013695" lon="11.511270801512548"><ele>348.3333333333333</ele><time>2026-04-17T12:42:42Z</time></trkpt><trkpt lat="46.052100134551125" lon="11.511522132702755"><ele>349.0</ele><time>2026-04-17T12:42:43Z</time></trkpt><trkpt lat="46.05207581719184" lon="11.511779895692511"><ele>349.0</ele><time>2026-04-17T12:42:44Z</time></trkpt><trkpt lat="46.052040947866004" lon="11.512043438287984"><ele>349.0</ele><time>2026-04-17T12:42:45Z</time></trkpt><trkpt lat="46.05199536962457" lon="11.51230931567254"><ele>349.0</ele><time>2026-04-17T12:42:46Z</time></trkpt><trkpt lat="46.051944360672096" lon="11.51257241257197"><ele>349.0</ele><time>2026-04-17T12:42:47Z</time></trkpt><trkpt lat="46.0518905754773" lon="11.512824874120547"><ele>349.0</ele><time>2026-04-17T12:42:48Z</time></trkpt><trkpt lat="46.05183716152152" lon="11.513065173330432"><ele>349.0</ele><time>2026-04-17T12:42:49Z</time></trkpt><trkpt lat="46.05178739655761" lon="11.513293391857328"><ele>349.0</ele><time>2026-04-17T12:42:50Z</time></trkpt><trkpt lat="46.0517359671041" lon="11.51352613459822"><ele>349.0</ele><time>2026-04-17T12:42:51Z</time></trkpt><trkpt lat="46.051685059610854" lon="11.513769780602"><ele>349.0</ele><time>2026-04-17T12:42:52Z</time></trkpt><trkpt lat="46.05163106455498" lon="11.514028145317754"><ele>348.3333333333333</ele><time>2026-04-17T12:42:53Z</time></trkpt><trkpt lat="46.051571069929295" lon="11.514292108783135"><ele>347.6666666666667</ele><time>2026-04-17T12:42:54Z</time></trkpt><trkpt lat="46.051513810228684" lon="11.514546213328128"><ele>347.0</ele><time>2026-04-17T12:42:55Z</time></trkpt><trkpt lat="46.05146024523771" lon="11.514787826766545"><ele>346.6666666666667</ele><time>2026-04-17T12:42:56Z</time></trkpt><trkpt lat="46.05140719980235" lon="11.515014995738268"><ele>346.3333333333333</ele><time>2026-04-17T12:42:57Z</time></trkpt><trkpt lat="46.05135721269275" lon="11.515233466326713"><ele>346.0</ele><time>2026-04-17T12:42:58Z</time></trkpt><trkpt lat="46.051309339542044" lon="11.515443000785783"><ele>346.0</ele><time>2026-04-17T12:42:59Z</time></trkpt><trkpt lat="46.05126239649088" lon="11.515655076659751"><ele>346.0</ele><time>2026-04-17T12:43:00Z</time></trkpt><trkpt lat="46.05121748502198" lon="11.515868492773343"><ele>346.0</ele><time>2026-04-17T12:43:01Z</time></trkpt><trkpt lat="46.05117091825937" lon="11.516081921465746"><ele>346.66666666666663</ele><time>2026-04-17T12:43:02Z</time></trkpt><trkpt lat="46.05112007870905" lon="11.5162955573851"><ele>347.3333333333333</ele><time>2026-04-17T12:43:03Z</time></trkpt><trkpt lat="46.051068801389015" lon="11.51651578288751"><ele>348.0</ele><time>2026-04-17T12:43:04Z</time></trkpt><trkpt lat="46.05101733952612" lon="11.516744559503858"><ele>348.0</ele><time>2026-04-17T12:43:05Z</time></trkpt><trkpt lat="46.05096517419747" lon="11.516982859175737"><ele>348.0</ele><time>2026-04-17T12:43:06Z</time></trkpt><trkpt lat="46.050914043125566" lon="11.517230090163352"><ele>348.0</ele><time>2026-04-17T12:43:07Z</time></trkpt><trkpt lat="46.0508596337673" lon="11.517487361518864"><ele>348.0</ele><time>2026-04-17T12:43:08Z</time></trkpt><trkpt lat="46.05080199595144" lon="11.517750525548172"><ele>348.0</ele><time>2026-04-17T12:43:09Z</time></trkpt><trkpt lat="46.05074568582647" lon="11.518012668938308"><ele>348.0</ele><time>2026-04-17T12:43:10Z</time></trkpt><trkpt lat="46.05069372677674" lon="11.518252292582563"><ele>348.0</ele><time>2026-04-17T12:43:11Z</time></trkpt><trkpt lat="46.050645533090425" lon="11.51846978138262"><ele>348.0</ele><time>2026-04-17T12:43:12Z</time></trkpt><trkpt lat="46.05059849872164" lon="11.518668207676535"><ele>348.0</ele><time>2026-04-17T12:43:13Z</time></trkpt><trkpt lat="46.05054822860679" lon="11.518881212581256"><ele>348.6666666666667</ele><time>2026-04-17T12:43:14Z</time></trkpt><trkpt lat="46.050498134854166" lon="11.519107500852218"><ele>349.33333333333337</ele><time>2026-04-17T12:43:15Z</time></trkpt><trkpt lat="46.05044611245522" lon="11.519345794111164"><ele>350.0</ele><time>2026-04-17T12:43:16Z</time></trkpt><trkpt lat="46.050393213599406" lon="11.519590538920307"><ele>350.33333333333337</ele><time>2026-04-17T12:43:17Z</time></trkpt><trkpt lat="46.05034265970174" lon="11.51982495869676"><ele>350.6666666666667</ele><time>2026-04-17T12:43:18Z</time></trkpt><trkpt lat="46.05028904656032" lon="11.520054339475546"><ele>351.0</ele><time>2026-04-17T12:43:19Z</time></trkpt><trkpt lat="46.05023211190923" lon="11.52028215446961"><ele>351.0</ele><time>2026-04-17T12:43:20Z</time></trkpt><trkpt lat="46.05017838028048" lon="11.520511993075516"><ele>351.0</ele><time>2026-04-17T12:43:21Z</time></trkpt><trkpt lat="46.050128840905636" lon="11.520745988202064"><ele>351.0</ele><time>2026-04-17T12:43:22Z</time></trkpt><trkpt lat="46.05007968847356" lon="11.520981851364878"><ele>351.0</ele><time>2026-04-17T12:43:23Z</time></trkpt><trkpt lat="46.05002826276256" lon="11.52121974616261"><ele>351.0</ele><time>2026-04-17T12:43:24Z</time></trkpt><trkpt lat="46.0499739655947" lon="11.521459986271045"><ele>351.0</ele><time>2026-04-17T12:43:25Z</time></trkpt><trkpt lat="46.049918520457055" lon="11.521706827644532"><ele>349.6666666666667</ele><time>2026-04-17T12:43:26Z</time></trkpt><trkpt lat="46.049861388967955" lon="11.521967075107666"><ele>348.33333333333337</ele><time>2026-04-17T12:43:27Z</time></trkpt><trkpt lat="46.04980055856128" lon="11.522238211713551"><ele>347.0</ele><time>2026-04-17T12:43:28Z</time></trkpt><trkpt lat="46.049740517274714" lon="11.522520101996992"><ele>347.0</ele><time>2026-04-17T12:43:29Z</time></trkpt><trkpt lat="46.04968146322138" lon="11.522816696888938"><ele>347.0</ele><time>2026-04-17T12:43:30Z</time></trkpt><trkpt lat="46.04960071371211" lon="11.523112180484247"><ele>347.0</ele><time>2026-04-17T12:43:31Z</time></trkpt><trkpt lat="46.04953855387783" lon="11.523394090854133"><ele>346.33333333333337</ele><time>2026-04-17T12:43:32Z</time></trkpt><trkpt lat="46.04949287783729" lon="11.523671018648372"><ele>345.6666666666667</ele><time>2026-04-17T12:43:33Z</time></trkpt><trkpt lat="46.049434294072505" lon="11.523931751746384"><ele>345.0</ele><time>2026-04-17T12:43:34Z</time></trkpt><trkpt lat="46.04937740764481" lon="11.524185107691327"><ele>345.0</ele><time>2026-04-17T12:43:35Z</time></trkpt><trkpt lat="46.049319933710215" lon="11.52443395419904"><ele>345.0</ele><time>2026-04-17T12:43:36Z</time></trkpt><trkpt lat="46.049265732013616" lon="11.524676829842592"><ele>345.0</ele><time>2026-04-17T12:43:37Z</time></trkpt><trkpt lat="46.04921048689814" lon="11.524925395429465"><ele>344.0</ele><time>2026-04-17T12:43:38Z</time></trkpt><trkpt lat="46.04915497720278" lon="11.525183452002077"><ele>343.0</ele><time>2026-04-17T12:43:39Z</time></trkpt><trkpt lat="46.04909729415774" lon="11.525461225411721"><ele>342.0</ele><time>2026-04-17T12:43:40Z</time></trkpt><trkpt lat="46.04903482119918" lon="11.525752132854729"><ele>341.0</ele><time>2026-04-17T12:43:41Z</time></trkpt><trkpt lat="46.04896921819432" lon="11.526049990653545"><ele>340.0</ele><time>2026-04-17T12:43:42Z</time></trkpt><trkpt lat="46.04890467271688" lon="11.526330465423639"><ele>339.0</ele><time>2026-04-17T12:43:43Z</time></trkpt><trkpt lat="46.048840689330405" lon="11.526615593759914"><ele>337.6666666666667</ele><time>2026-04-17T12:43:44Z</time></trkpt><trkpt lat="46.04877445519178" lon="11.526911901826884"><ele>336.33333333333337</ele><time>2026-04-17T12:43:45Z</time></trkpt><trkpt lat="46.04870889180483" lon="11.52720761993443"><ele>335.0</ele><time>2026-04-17T12:43:46Z</time></trkpt><trkpt lat="46.04865014276417" lon="11.527491349631283"><ele>334.6666666666667</ele><time>2026-04-17T12:43:47Z</time></trkpt><trkpt lat="46.048589577788995" lon="11.527766221652485"><ele>334.3333333333333</ele><time>2026-04-17T12:43:48Z</time></trkpt><trkpt lat="46.0485309491778" lon="11.528032746026904"><ele>334.0</ele><time>2026-04-17T12:43:49Z</time></trkpt><trkpt lat="46.04847750477703" lon="11.5282898027592"><ele>334.0</ele><time>2026-04-17T12:43:50Z</time></trkpt><trkpt lat="46.04842014107926" lon="11.528536914342144"><ele>334.0</ele><time>2026-04-17T12:43:51Z</time></trkpt><trkpt lat="46.04836520479259" lon="11.528775217131722"><ele>334.0</ele><time>2026-04-17T12:43:52Z</time></trkpt><trkpt lat="46.048309469510684" lon="11.529024595758548"><ele>332.3333333333333</ele><time>2026-04-17T12:43:53Z</time></trkpt><trkpt lat="46.04824923639244" lon="11.529277954823483"><ele>330.6666666666667</ele><time>2026-04-17T12:43:54Z</time></trkpt><trkpt lat="46.04818949607775" lon="11.529537005808926"><ele>329.0</ele><time>2026-04-17T12:43:55Z</time></trkpt><trkpt lat="46.048119369986495" lon="11.52979987630531"><ele>329.0</ele><time>2026-04-17T12:43:56Z</time></trkpt><trkpt lat="46.04803657453344" lon="11.530058710385944"><ele>329.0</ele><time>2026-04-17T12:43:57Z</time></trkpt><trkpt lat="46.04795358954138" lon="11.530320822537531"><ele>329.0</ele><time>2026-04-17T12:43:58Z</time></trkpt><trkpt lat="46.047882342625144" lon="11.530574751107663"><ele>329.0</ele><time>2026-04-17T12:43:59Z</time></trkpt><trkpt lat="46.047809806821164" lon="11.530818457477022"><ele>329.0</ele><time>2026-04-17T12:44:00Z</time></trkpt><trkpt lat="46.047727549757596" lon="11.53106265552545"><ele>329.0</ele><time>2026-04-17T12:44:01Z</time></trkpt><trkpt lat="46.04762274206767" lon="11.531293276207492"><ele>329.6666666666667</ele><time>2026-04-17T12:44:02Z</time></trkpt><trkpt lat="46.047531440204864" lon="11.531528962401609"><ele>330.3333333333333</ele><time>2026-04-17T12:44:03Z</time></trkpt><trkpt lat="46.04744363328056" lon="11.531755626788483"><ele>331.0</ele><time>2026-04-17T12:44:04Z</time></trkpt><trkpt lat="46.04735669552533" lon="11.531980047498234"><ele>328.3333333333333</ele><time>2026-04-17T12:44:05Z</time></trkpt><trkpt lat="46.04726472384705" lon="11.532213459778472"><ele>325.6666666666667</ele><time>2026-04-17T12:44:06Z</time></trkpt><trkpt lat="46.047169830454585" lon="11.53245400348721"><ele>323.0</ele><time>2026-04-17T12:44:07Z</time></trkpt><trkpt lat="46.04707359877101" lon="11.53269793962286"><ele>323.0</ele><time>2026-04-17T12:44:08Z</time></trkpt><trkpt lat="46.04697611535803" lon="11.532946824071713"><ele>323.0</ele><time>2026-04-17T12:44:09Z</time></trkpt><trkpt lat="46.046881206069756" lon="11.533192227342404"><ele>323.0</ele><time>2026-04-17T12:44:10Z</time></trkpt><trkpt lat="46.04678589708021" lon="11.533438012612473"><ele>323.0</ele><time>2026-04-17T12:44:11Z</time></trkpt><trkpt lat="46.046690787475185" lon="11.53368088134815"><ele>323.0</ele><time>2026-04-17T12:44:12Z</time></trkpt><trkpt lat="46.046593763989556" lon="11.533928637229774"><ele>323.0</ele><time>2026-04-17T12:44:13Z</time></trkpt><trkpt lat="46.0465007897493" lon="11.5341660530838"><ele>321.0</ele><time>2026-04-17T12:44:14Z</time></trkpt><trkpt lat="46.04639346689549" lon="11.534437510860434"><ele>319.0</ele><time>2026-04-17T12:44:15Z</time></trkpt><trkpt lat="46.0462665992115" lon="11.534759058530025"><ele>319.0</ele><time>2026-04-17T12:44:16Z</time></trkpt><trkpt lat="46.046129539418594" lon="11.535109206750146"><ele>319.0</ele><time>2026-04-17T12:44:17Z</time></trkpt><trkpt lat="46.04600062326433" lon="11.535438550297048"><ele>319.0</ele><time>2026-04-17T12:44:18Z</time></trkpt><trkpt lat="46.04586109580773" lon="11.535793715739679"><ele>319.0</ele><time>2026-04-17T12:44:19Z</time></trkpt><trkpt lat="46.045708352994225" lon="11.536180834293184"><ele>317.0</ele><time>2026-04-17T12:44:20Z</time></trkpt><trkpt lat="46.045554333088006" lon="11.53657149534709"><ele>315.0</ele><time>2026-04-17T12:44:21Z</time></trkpt><trkpt lat="46.04540707016191" lon="11.53694636572933"><ele>315.0</ele><time>2026-04-17T12:44:22Z</time></trkpt><trkpt lat="46.04524652113698" lon="11.537356545169642"><ele>315.0</ele><time>2026-04-17T12:44:23Z</time></trkpt><trkpt lat="46.0450793340263" lon="11.53778322171802"><ele>313.5</ele><time>2026-04-17T12:44:24Z</time></trkpt><trkpt lat="46.044906875084266" lon="11.538221968911872"><ele>312.0</ele><time>2026-04-17T12:44:25Z</time></trkpt><trkpt lat="46.04473000519333" lon="11.538671937802965"><ele>311.5</ele><time>2026-04-17T12:44:26Z</time></trkpt><trkpt lat="46.044550095952474" lon="11.539129639146651"><ele>311.0</ele><time>2026-04-17T12:44:27Z</time></trkpt><trkpt lat="46.04436716581628" lon="11.5395950257716"><ele>310.5</ele><time>2026-04-17T12:44:28Z</time></trkpt><trkpt lat="46.04418189632583" lon="11.540066363851471"><ele>310.0</ele><time>2026-04-17T12:44:29Z</time></trkpt><trkpt lat="46.04399300331321" lon="11.540545240283896"><ele>310.0</ele><time>2026-04-17T12:44:30Z</time></trkpt><trkpt lat="46.04380191102584" lon="11.541030578205353"><ele>310.0</ele><time>2026-04-17T12:44:31Z</time></trkpt><trkpt lat="46.04361206153302" lon="11.54151494823008"><ele>310.0</ele><time>2026-04-17T12:44:32Z</time></trkpt><trkpt lat="46.04344012947997" lon="11.541950561361322"><ele>310.0</ele><time>2026-04-17T12:44:33Z</time></trkpt><trkpt lat="46.04328072929383" lon="11.54235627052429"><ele>309.5</ele><time>2026-04-17T12:44:34Z</time></trkpt><trkpt lat="46.04313054794135" lon="11.542738134836771"><ele>309.0</ele><time>2026-04-17T12:44:35Z</time></trkpt><trkpt lat="46.04298760807291" lon="11.54309720705795"><ele>308.5</ele><time>2026-04-17T12:44:36Z</time></trkpt><trkpt lat="46.04284670017796" lon="11.543452397329858"><ele>308.0</ele><time>2026-04-17T12:44:37Z</time></trkpt><trkpt lat="46.0427024745905" lon="11.543817798903472"><ele>308.0</ele><time>2026-04-17T12:44:38Z</time></trkpt><trkpt lat="46.0425587323637" lon="11.544182663904097"><ele>308.0</ele><time>2026-04-17T12:44:39Z</time></trkpt><trkpt lat="46.04242567803336" lon="11.544520399446606"><ele>307.0</ele><time>2026-04-17T12:44:40Z</time></trkpt><trkpt lat="46.04230036680059" lon="11.544838480552436"><ele>306.0</ele><time>2026-04-17T12:44:41Z</time></trkpt><trkpt lat="46.0421848514993" lon="11.54513136798337"><ele>305.6666666666667</ele><time>2026-04-17T12:44:42Z</time></trkpt><trkpt lat="46.042077010392894" lon="11.545402873846625"><ele>305.33333333333337</ele><time>2026-04-17T12:44:43Z</time></trkpt><trkpt lat="46.0419730402984" lon="11.54566463387458"><ele>305.0</ele><time>2026-04-17T12:44:44Z</time></trkpt><trkpt lat="46.04186321963012" lon="11.545941123452412"><ele>306.5</ele><time>2026-04-17T12:44:45Z</time></trkpt><trkpt lat="46.04175142055635" lon="11.546222595572342"><ele>308.0</ele><time>2026-04-17T12:44:46Z</time></trkpt><trkpt lat="46.0416387503907" lon="11.546506224289852"><ele>307.0</ele><time>2026-04-17T12:44:47Z</time></trkpt><trkpt lat="46.041535645185334" lon="11.546765785964258"><ele>306.0</ele><time>2026-04-17T12:44:48Z</time></trkpt><trkpt lat="46.04143294337046" lon="11.547029461351915"><ele>305.0</ele><time>2026-04-17T12:44:49Z</time></trkpt><trkpt lat="46.041356656108526" lon="11.547319555051848"><ele>305.0</ele><time>2026-04-17T12:44:50Z</time></trkpt><trkpt lat="46.04125252118244" lon="11.547585822470497"><ele>305.0</ele><time>2026-04-17T12:44:51Z</time></trkpt><trkpt lat="46.04114924498455" lon="11.54785006771449"><ele>305.0</ele><time>2026-04-17T12:44:52Z</time></trkpt><trkpt lat="46.04104890065319" lon="11.54811053900777"><ele>305.0</ele><time>2026-04-17T12:44:53Z</time></trkpt><trkpt lat="46.04094676078015" lon="11.548372440755049"><ele>305.0</ele><time>2026-04-17T12:44:54Z</time></trkpt><trkpt lat="46.04083872863654" lon="11.548640992637901"><ele>305.0</ele><time>2026-04-17T12:44:55Z</time></trkpt><trkpt lat="46.040732870253024" lon="11.548939732094395"><ele>304.0</ele><time>2026-04-17T12:44:56Z</time></trkpt><trkpt lat="46.0406160339044" lon="11.549272269653382"><ele>303.0</ele><time>2026-04-17T12:44:57Z</time></trkpt><trkpt lat="46.04048405455046" lon="11.549620236821122"><ele>303.0</ele><time>2026-04-17T12:44:58Z</time></trkpt><trkpt lat="46.04034945007688" lon="11.549966203446633"><ele>303.0</ele><time>2026-04-17T12:44:59Z</time></trkpt><trkpt lat="46.04020120310418" lon="11.550339992625053"><ele>302.5</ele><time>2026-04-17T12:45:00Z</time></trkpt><trkpt lat="46.04004538371871" lon="11.550735912762843"><ele>302.0</ele><time>2026-04-17T12:45:01Z</time></trkpt><trkpt lat="46.039888344949745" lon="11.55113206940297"><ele>301.5</ele><time>2026-04-17T12:45:02Z</time></trkpt><trkpt lat="46.039742527513084" lon="11.551498924886802"><ele>301.0</ele><time>2026-04-17T12:45:03Z</time></trkpt><trkpt lat="46.03958890474025" lon="11.551886702306165"><ele>301.5</ele><time>2026-04-17T12:45:04Z</time></trkpt><trkpt lat="46.03942283117922" lon="11.552288172172636"><ele>302.0</ele><time>2026-04-17T12:45:05Z</time></trkpt><trkpt lat="46.03924682599058" lon="11.552699129409358"><ele>301.0</ele><time>2026-04-17T12:45:06Z</time></trkpt><trkpt lat="46.03906841073137" lon="11.55312284771427"><ele>300.0</ele><time>2026-04-17T12:45:07Z</time></trkpt><trkpt lat="46.03888989099202" lon="11.553553260064781"><ele>300.0</ele><time>2026-04-17T12:45:08Z</time></trkpt><trkpt lat="46.038711386345874" lon="11.554001881129196"><ele>300.0</ele><time>2026-04-17T12:45:09Z</time></trkpt><trkpt lat="46.038528702926946" lon="11.554462940952401"><ele>299.5</ele><time>2026-04-17T12:45:10Z</time></trkpt><trkpt lat="46.038346087460134" lon="11.554928791864581"><ele>299.0</ele><time>2026-04-17T12:45:11Z</time></trkpt><trkpt lat="46.03816372382457" lon="11.555391919899364"><ele>299.0</ele><time>2026-04-17T12:45:12Z</time></trkpt><trkpt lat="46.037996658333135" lon="11.55580987030676"><ele>299.0</ele><time>2026-04-17T12:45:13Z</time></trkpt><trkpt lat="46.03784062882829" lon="11.556199633475494"><ele>299.5</ele><time>2026-04-17T12:45:14Z</time></trkpt><trkpt lat="46.037688603554834" lon="11.556581000202156"><ele>300.0</ele><time>2026-04-17T12:45:15Z</time></trkpt><trkpt lat="46.037539650244874" lon="11.556953159352748"><ele>299.0</ele><time>2026-04-17T12:45:16Z</time></trkpt><trkpt lat="46.037392601249756" lon="11.55731899583935"><ele>298.0</ele><time>2026-04-17T12:45:17Z</time></trkpt><trkpt lat="46.03724988501742" lon="11.557682495533605"><ele>298.5</ele><time>2026-04-17T12:45:18Z</time></trkpt><trkpt lat="46.03710660639589" lon="11.55804592565377"><ele>299.0</ele><time>2026-04-17T12:45:19Z</time></trkpt><trkpt lat="46.03696217838127" lon="11.558416502281869"><ele>300.5</ele><time>2026-04-17T12:45:20Z</time></trkpt><trkpt lat="46.03682826834859" lon="11.558762603590633"><ele>302.0</ele><time>2026-04-17T12:45:21Z</time></trkpt><trkpt lat="46.0367039855931" lon="11.559087839325572"><ele>299.0</ele><time>2026-04-17T12:45:22Z</time></trkpt><trkpt lat="46.036585580216276" lon="11.559392753009996"><ele>296.0</ele><time>2026-04-17T12:45:23Z</time></trkpt><trkpt lat="46.03647358815205" lon="11.559684276117054"><ele>295.6666666666667</ele><time>2026-04-17T12:45:24Z</time></trkpt><trkpt lat="46.03636799471125" lon="11.559961319353766"><ele>295.3333333333333</ele><time>2026-04-17T12:45:25Z</time></trkpt><trkpt lat="46.03626175686806" lon="11.560242675769834"><ele>295.0</ele><time>2026-04-17T12:45:26Z</time></trkpt><trkpt lat="46.03616288690216" lon="11.560506873234067"><ele>295.0</ele><time>2026-04-17T12:45:27Z</time></trkpt><trkpt lat="46.036062451331134" lon="11.560770057755803"><ele>295.0</ele><time>2026-04-17T12:45:28Z</time></trkpt><trkpt lat="46.03595469709749" lon="11.5610386122694"><ele>295.0</ele><time>2026-04-17T12:45:29Z</time></trkpt><trkpt lat="46.03584721341132" lon="11.561310007045444"><ele>293.66666666666663</ele><time>2026-04-17T12:45:30Z</time></trkpt><trkpt lat="46.035741035281255" lon="11.561582514959392"><ele>292.3333333333333</ele><time>2026-04-17T12:45:31Z</time></trkpt><trkpt lat="46.03563351180023" lon="11.561857016750203"><ele>291.0</ele><time>2026-04-17T12:45:32Z</time></trkpt><trkpt lat="46.03551810028019" lon="11.562157011416499"><ele>291.0</ele><time>2026-04-17T12:45:33Z</time></trkpt><trkpt lat="46.035399635062284" lon="11.562490810923203"><ele>291.0</ele><time>2026-04-17T12:45:34Z</time></trkpt><trkpt lat="46.0352824422111" lon="11.562826938226971"><ele>290.0</ele><time>2026-04-17T12:45:35Z</time></trkpt><trkpt lat="46.03516484880887" lon="11.563121112071109"><ele>289.0</ele><time>2026-04-17T12:45:36Z</time></trkpt><trkpt lat="46.03504847736248" lon="11.563388144518159"><ele>289.3333333333333</ele><time>2026-04-17T12:45:37Z</time></trkpt><trkpt lat="46.03492227378689" lon="11.563622046566659"><ele>289.6666666666667</ele><time>2026-04-17T12:45:38Z</time></trkpt><trkpt lat="46.034829195652605" lon="11.563858490367378"><ele>290.0</ele><time>2026-04-17T12:45:39Z</time></trkpt><trkpt lat="46.03475321102148" lon="11.564094432054995"><ele>290.0</ele><time>2026-04-17T12:45:40Z</time></trkpt><trkpt lat="46.034669065558205" lon="11.564309499977966"><ele>290.0</ele><time>2026-04-17T12:45:41Z</time></trkpt><trkpt lat="46.03458508029886" lon="11.564522526158113"><ele>290.0</ele><time>2026-04-17T12:45:42Z</time></trkpt><trkpt lat="46.03449795676849" lon="11.56474837328552"><ele>289.6666666666667</ele><time>2026-04-17T12:45:43Z</time></trkpt><trkpt lat="46.03440828761315" lon="11.564980403048203"><ele>289.3333333333333</ele><time>2026-04-17T12:45:44Z</time></trkpt><trkpt lat="46.03431962169815" lon="11.565214133858492"><ele>289.0</ele><time>2026-04-17T12:45:45Z</time></trkpt><trkpt lat="46.034232701482715" lon="11.565451365554013"><ele>289.0</ele><time>2026-04-17T12:45:46Z</time></trkpt><trkpt lat="46.03415152093572" lon="11.565690345638409"><ele>289.0</ele><time>2026-04-17T12:45:47Z</time></trkpt><trkpt lat="46.03407851163548" lon="11.565928150884687"><ele>289.0</ele><time>2026-04-17T12:45:48Z</time></trkpt><trkpt lat="46.03399315552195" lon="11.566155627556986"><ele>288.66666666666663</ele><time>2026-04-17T12:45:49Z</time></trkpt><trkpt lat="46.03392121679862" lon="11.566391612892184"><ele>288.3333333333333</ele><time>2026-04-17T12:45:50Z</time></trkpt><trkpt lat="46.033851230414975" lon="11.566631624206178"><ele>288.0</ele><time>2026-04-17T12:45:51Z</time></trkpt><trkpt lat="46.033785590450876" lon="11.56687249501316"><ele>287.6666666666667</ele><time>2026-04-17T12:45:52Z</time></trkpt><trkpt lat="46.03372228171465" lon="11.567109052577733"><ele>287.33333333333337</ele><time>2026-04-17T12:45:53Z</time></trkpt><trkpt lat="46.03366495176601" lon="11.567334795226555"><ele>287.0</ele><time>2026-04-17T12:45:54Z</time></trkpt><trkpt lat="46.03361029385785" lon="11.567549877596123"><ele>287.0</ele><time>2026-04-17T12:45:55Z</time></trkpt><trkpt lat="46.033555778131436" lon="11.567764400550297"><ele>287.0</ele><time>2026-04-17T12:45:56Z</time></trkpt><trkpt lat="46.03350034837609" lon="11.567984744904832"><ele>287.0</ele><time>2026-04-17T12:45:57Z</time></trkpt><trkpt lat="46.033459452824204" lon="11.568216032816535"><ele>287.0</ele><time>2026-04-17T12:45:58Z</time></trkpt><trkpt lat="46.03340050373216" lon="11.568440748006584"><ele>287.0</ele><time>2026-04-17T12:45:59Z</time></trkpt><trkpt lat="46.03334233914301" lon="11.568668785944467"><ele>287.0</ele><time>2026-04-17T12:46:00Z</time></trkpt><trkpt lat="46.03328165364252" lon="11.56889762975888"><ele>286.6666666666667</ele><time>2026-04-17T12:46:01Z</time></trkpt><trkpt lat="46.033222023115876" lon="11.56913245948149"><ele>286.3333333333333</ele><time>2026-04-17T12:46:02Z</time></trkpt><trkpt lat="46.03314367894912" lon="11.569396126137802"><ele>286.0</ele><time>2026-04-17T12:46:03Z</time></trkpt><trkpt lat="46.0330670569187" lon="11.569699609520155"><ele>285.66666666666663</ele><time>2026-04-17T12:46:03.999Z</time></trkpt><trkpt lat="46.032992962554154" lon="11.56999737824597"><ele>285.3333333333333</ele><time>2026-04-17T12:46:04.999Z</time></trkpt><trkpt lat="46.03292361656636" lon="11.570276313416807"><ele>285.0</ele><time>2026-04-17T12:46:05.999Z</time></trkpt><trkpt lat="46.03285770596818" lon="11.570541429931222"><ele>285.0</ele><time>2026-04-17T12:46:06.999Z</time></trkpt><trkpt lat="46.03281030753495" lon="11.570802441359847"><ele>285.0</ele><time>2026-04-17T12:46:07.999Z</time></trkpt><trkpt lat="46.03274953238468" lon="11.571044593069544"><ele>285.0</ele><time>2026-04-17T12:46:08.999Z</time></trkpt><trkpt lat="46.03267220570221" lon="11.571285745651668"><ele>285.0</ele><time>2026-04-17T12:46:10Z</time></trkpt><trkpt lat="46.03260986710058" lon="11.571535294779569"><ele>285.0</ele><time>2026-04-17T12:46:11Z</time></trkpt><trkpt lat="46.03255012091908" lon="11.571774467011931"><ele>285.0</ele><time>2026-04-17T12:46:12Z</time></trkpt><trkpt lat="46.03250517385578" lon="11.57201295563734"><ele>285.0</ele><time>2026-04-17T12:46:13Z</time></trkpt><trkpt lat="46.03244491335737" lon="11.572236409887493"><ele>285.0</ele><time>2026-04-17T12:46:14Z</time></trkpt><trkpt lat="46.032383408340344" lon="11.572472914846506"><ele>285.0</ele><time>2026-04-17T12:46:15Z</time></trkpt><trkpt lat="46.03232414672085" lon="11.57271725471044"><ele>285.0</ele><time>2026-04-17T12:46:16Z</time></trkpt><trkpt lat="46.03226508390598" lon="11.572966910313706"><ele>285.0</ele><time>2026-04-17T12:46:17Z</time></trkpt><trkpt lat="46.03220174913112" lon="11.57322721180553"><ele>285.0</ele><time>2026-04-17T12:46:18Z</time></trkpt><trkpt lat="46.0321192381673" lon="11.573499349241338"><ele>284.5</ele><time>2026-04-17T12:46:19Z</time></trkpt><trkpt lat="46.032040918342155" lon="11.573812874500138"><ele>284.0</ele><time>2026-04-17T12:46:20Z</time></trkpt><trkpt lat="46.03195367486862" lon="11.574161767556104"><ele>284.0</ele><time>2026-04-17T12:46:21Z</time></trkpt><trkpt lat="46.03186614973298" lon="11.574510309310304"><ele>284.0</ele><time>2026-04-17T12:46:22Z</time></trkpt><trkpt lat="46.031774639990275" lon="11.574874717131651"><ele>283.5</ele><time>2026-04-17T12:46:23Z</time></trkpt><trkpt lat="46.03167668369734" lon="11.5752647958355"><ele>283.0</ele><time>2026-04-17T12:46:24Z</time></trkpt><trkpt lat="46.031581804933474" lon="11.575642619431276"><ele>282.5</ele><time>2026-04-17T12:46:25Z</time></trkpt><trkpt lat="46.031491312951076" lon="11.576002973021803"><ele>282.0</ele><time>2026-04-17T12:46:26Z</time></trkpt><trkpt lat="46.031400947511685" lon="11.576363702185176"><ele>281.0</ele><time>2026-04-17T12:46:27Z</time></trkpt><trkpt lat="46.03131007567084" lon="11.576726379396039"><ele>280.0</ele><time>2026-04-17T12:46:28Z</time></trkpt><trkpt lat="46.03121843199886" lon="11.577091366341545"><ele>280.0</ele><time>2026-04-17T12:46:29Z</time></trkpt><trkpt lat="46.03112626094668" lon="11.577457196309819"><ele>280.0</ele><time>2026-04-17T12:46:30Z</time></trkpt><trkpt lat="46.03103078393978" lon="11.577835124717796"><ele>279.5</ele><time>2026-04-17T12:46:31Z</time></trkpt><trkpt lat="46.03094500080372" lon="11.578234962086306"><ele>279.0</ele><time>2026-04-17T12:46:32Z</time></trkpt><trkpt lat="46.0308414677589" lon="11.578639674398623"><ele>278.0</ele><time>2026-04-17T12:46:33Z</time></trkpt><trkpt lat="46.03073703285971" lon="11.57906365927762"><ele>277.0</ele><time>2026-04-17T12:46:34Z</time></trkpt><trkpt lat="46.030627048985906" lon="11.579496709123791"><ele>277.5</ele><time>2026-04-17T12:46:35Z</time></trkpt><trkpt lat="46.030513109300266" lon="11.579935292459712"><ele>278.0</ele><time>2026-04-17T12:46:36Z</time></trkpt><trkpt lat="46.0303918587741" lon="11.580373946319403"><ele>279.0</ele><time>2026-04-17T12:46:37Z</time></trkpt><trkpt lat="46.03026324780702" lon="11.580803177677097"><ele>280.0</ele><time>2026-04-17T12:46:38Z</time></trkpt><trkpt lat="46.03013651815445" lon="11.58118839311465"><ele>280.5</ele><time>2026-04-17T12:46:39Z</time></trkpt><trkpt lat="46.03000967000486" lon="11.581549427874458"><ele>281.0</ele><time>2026-04-17T12:46:40Z</time></trkpt><trkpt lat="46.02987026490731" lon="11.581920138710306"><ele>280.0</ele><time>2026-04-17T12:46:41Z</time></trkpt><trkpt lat="46.0297154641347" lon="11.582293888507248"><ele>279.0</ele><time>2026-04-17T12:46:42Z</time></trkpt><trkpt lat="46.02954803261511" lon="11.582666104065153"><ele>281.0</ele><time>2026-04-17T12:46:43Z</time></trkpt><trkpt lat="46.02937021370928" lon="11.58303761005625"><ele>283.0</ele><time>2026-04-17T12:46:44Z</time></trkpt><trkpt lat="46.029185527658946" lon="11.583411140779628"><ele>280.5</ele><time>2026-04-17T12:46:45Z</time></trkpt><trkpt lat="46.02899176065757" lon="11.58378721154825"><ele>278.0</ele><time>2026-04-17T12:46:46Z</time></trkpt><trkpt lat="46.028797350568034" lon="11.584153572681453"><ele>278.0</ele><time>2026-04-17T12:46:47Z</time></trkpt><trkpt lat="46.028616742122665" lon="11.584491554287741"><ele>278.0</ele><time>2026-04-17T12:46:48Z</time></trkpt><trkpt lat="46.028441970368846" lon="11.584831309729866"><ele>276.0</ele><time>2026-04-17T12:46:49Z</time></trkpt><trkpt lat="46.02827886893825" lon="11.585145624032755"><ele>274.0</ele><time>2026-04-17T12:46:50Z</time></trkpt><trkpt lat="46.02812105419806" lon="11.585441171784296"><ele>273.5</ele><time>2026-04-17T12:46:51Z</time></trkpt><trkpt lat="46.027958263316236" lon="11.585707664176589"><ele>273.0</ele><time>2026-04-17T12:46:52Z</time></trkpt><trkpt lat="46.027804827100944" lon="11.585997062329243"><ele>273.5</ele><time>2026-04-17T12:46:53Z</time></trkpt><trkpt lat="46.02763900653249" lon="11.58630983238011"><ele>274.0</ele><time>2026-04-17T12:46:54Z</time></trkpt><trkpt lat="46.02746000066197" lon="11.586647482545404"><ele>273.0</ele><time>2026-04-17T12:46:55Z</time></trkpt><trkpt lat="46.0272737633983" lon="11.587003557906542"><ele>272.0</ele><time>2026-04-17T12:46:56Z</time></trkpt><trkpt lat="46.02710871742215" lon="11.587398727672452"><ele>272.0</ele><time>2026-04-17T12:46:57Z</time></trkpt><trkpt lat="46.02693204450642" lon="11.587723152651147"><ele>272.0</ele><time>2026-04-17T12:46:58Z</time></trkpt><trkpt lat="46.0267620029846" lon="11.58803042531345"><ele>273.0</ele><time>2026-04-17T12:46:59Z</time></trkpt><trkpt lat="46.026598674221226" lon="11.588314445393628"><ele>274.0</ele><time>2026-04-17T12:47:00Z</time></trkpt><trkpt lat="46.026438004330224" lon="11.588606401224672"><ele>273.0</ele><time>2026-04-17T12:47:01Z</time></trkpt><trkpt lat="46.02627310378401" lon="11.58891396352678"><ele>272.0</ele><time>2026-04-17T12:47:02Z</time></trkpt><trkpt lat="46.02611168847998" lon="11.58921595639227"><ele>272.0</ele><time>2026-04-17T12:47:03Z</time></trkpt><trkpt lat="46.02593599523333" lon="11.58954261168497"><ele>272.0</ele><time>2026-04-17T12:47:04Z</time></trkpt><trkpt lat="46.02576038390191" lon="11.58989057384027"><ele>272.0</ele><time>2026-04-17T12:47:05Z</time></trkpt><trkpt lat="46.02558481480838" lon="11.590238883102543"><ele>272.0</ele><time>2026-04-17T12:47:06Z</time></trkpt><trkpt lat="46.02542078786401" lon="11.59053633677174"><ele>271.5</ele><time>2026-04-17T12:47:07Z</time></trkpt><trkpt lat="46.025268270230264" lon="11.590797212799826"><ele>271.0</ele><time>2026-04-17T12:47:08Z</time></trkpt><trkpt lat="46.0251271123672" lon="11.591061980398003"><ele>269.5</ele><time>2026-04-17T12:47:09Z</time></trkpt><trkpt lat="46.024976945648774" lon="11.591367771734522"><ele>268.0</ele><time>2026-04-17T12:47:10Z</time></trkpt><trkpt lat="46.02481085887804" lon="11.591676639785467"><ele>268.0</ele><time>2026-04-17T12:47:11Z</time></trkpt><trkpt lat="46.024638301625814" lon="11.591998901155733"><ele>268.0</ele><time>2026-04-17T12:47:12Z</time></trkpt><trkpt lat="46.02447874472933" lon="11.592293559347784"><ele>269.0</ele><time>2026-04-17T12:47:13Z</time></trkpt><trkpt lat="46.02433549332031" lon="11.592562941097446"><ele>270.0</ele><time>2026-04-17T12:47:14Z</time></trkpt><trkpt lat="46.02419968963501" lon="11.592823138163387"><ele>269.0</ele><time>2026-04-17T12:47:15Z</time></trkpt><trkpt lat="46.02406129819267" lon="11.593087385923369"><ele>268.0</ele><time>2026-04-17T12:47:16Z</time></trkpt><trkpt lat="46.02392754275397" lon="11.593340732129445"><ele>268.0</ele><time>2026-04-17T12:47:17Z</time></trkpt><trkpt lat="46.02380690135042" lon="11.593571906271537"><ele>268.0</ele><time>2026-04-17T12:47:18Z</time></trkpt><trkpt lat="46.02369891239453" lon="11.593789359629072"><ele>268.0</ele><time>2026-04-17T12:47:19Z</time></trkpt><trkpt lat="46.02360541936664" lon="11.593991640963498"><ele>268.66666666666663</ele><time>2026-04-17T12:47:20Z</time></trkpt><trkpt lat="46.023511415851196" lon="11.594203056273786"><ele>269.3333333333333</ele><time>2026-04-17T12:47:21Z</time></trkpt><trkpt lat="46.023413871635256" lon="11.594425446782562"><ele>270.0</ele><time>2026-04-17T12:47:22Z</time></trkpt><trkpt lat="46.0233157588967" lon="11.594657032010222"><ele>270.6666666666667</ele><time>2026-04-17T12:47:23Z</time></trkpt><trkpt lat="46.02322717587315" lon="11.594886572553436"><ele>271.33333333333337</ele><time>2026-04-17T12:47:24Z</time></trkpt><trkpt lat="46.02314546438259" lon="11.595105932265726"><ele>272.0</ele><time>2026-04-17T12:47:25Z</time></trkpt><trkpt lat="46.02306512230948" lon="11.595338667510136"><ele>270.0</ele><time>2026-04-17T12:47:26Z</time></trkpt><trkpt lat="46.02298570132722" lon="11.595574346615011"><ele>268.0</ele><time>2026-04-17T12:47:27Z</time></trkpt><trkpt lat="46.02290863465349" lon="11.595809304213706"><ele>266.0</ele><time>2026-04-17T12:47:28Z</time></trkpt><trkpt lat="46.022830870852076" lon="11.596041318227948"><ele>264.6666666666667</ele><time>2026-04-17T12:47:29Z</time></trkpt><trkpt lat="46.02275614997636" lon="11.59627658753909"><ele>263.3333333333333</ele><time>2026-04-17T12:47:30Z</time></trkpt><trkpt lat="46.02267942462466" lon="11.596510721022478"><ele>262.0</ele><time>2026-04-17T12:47:31Z</time></trkpt><trkpt lat="46.02260372656196" lon="11.596747471755682"><ele>260.3333333333333</ele><time>2026-04-17T12:47:32Z</time></trkpt><trkpt lat="46.02252761196098" lon="11.597003132097477"><ele>258.6666666666667</ele><time>2026-04-17T12:47:33Z</time></trkpt><trkpt lat="46.022440507592194" lon="11.597316647279548"><ele>257.0</ele><time>2026-04-17T12:47:34Z</time></trkpt><trkpt lat="46.02233208049972" lon="11.597652045609134"><ele>262.5</ele><time>2026-04-17T12:47:35Z</time></trkpt><trkpt lat="46.022201863669295" lon="11.598004638293215"><ele>268.0</ele><time>2026-04-17T12:47:36Z</time></trkpt><trkpt lat="46.0220753592454" lon="11.59833966291105"><ele>265.5</ele><time>2026-04-17T12:47:37Z</time></trkpt><trkpt lat="46.02194489081078" lon="11.598699898031478"><ele>263.0</ele><time>2026-04-17T12:47:38Z</time></trkpt><trkpt lat="46.02182817301348" lon="11.599065045537767"><ele>263.0</ele><time>2026-04-17T12:47:39Z</time></trkpt><trkpt lat="46.021711002054" lon="11.599444794965347"><ele>263.0</ele><time>2026-04-17T12:47:40Z</time></trkpt><trkpt lat="46.021583162539514" lon="11.599841047152514"><ele>266.5</ele><time>2026-04-17T12:47:41Z</time></trkpt><trkpt lat="46.021450392638904" lon="11.600241794404125"><ele>270.0</ele><time>2026-04-17T12:47:42Z</time></trkpt><trkpt lat="46.02132362501332" lon="11.600627750584065"><ele>270.0</ele><time>2026-04-17T12:47:43Z</time></trkpt><trkpt lat="46.02121118283982" lon="11.601002003419781"><ele>270.0</ele><time>2026-04-17T12:47:44Z</time></trkpt><trkpt lat="46.02110030364666" lon="11.601384973488692"><ele>270.0</ele><time>2026-04-17T12:47:45Z</time></trkpt><trkpt lat="46.02099256561964" lon="11.601791153771972"><ele>270.0</ele><time>2026-04-17T12:47:46Z</time></trkpt><trkpt lat="46.020887757378205" lon="11.602212146509487"><ele>267.0</ele><time>2026-04-17T12:47:47Z</time></trkpt><trkpt lat="46.02078165622145" lon="11.602645720519122"><ele>264.0</ele><time>2026-04-17T12:47:48Z</time></trkpt><trkpt lat="46.02067091085357" lon="11.603100302686139"><ele>264.0</ele><time>2026-04-17T12:47:49Z</time></trkpt><trkpt lat="46.02055288202885" lon="11.603565235946903"><ele>264.0</ele><time>2026-04-17T12:47:50Z</time></trkpt><trkpt lat="46.02043578969408" lon="11.604018251983605"><ele>265.0</ele><time>2026-04-17T12:47:51Z</time></trkpt><trkpt lat="46.0203202877309" lon="11.60445361219691"><ele>266.0</ele><time>2026-04-17T12:47:52Z</time></trkpt><trkpt lat="46.02020606344676" lon="11.60487302108023"><ele>268.0</ele><time>2026-04-17T12:47:53Z</time></trkpt><trkpt lat="46.020085467835905" lon="11.60528202035513"><ele>270.0</ele><time>2026-04-17T12:47:54Z</time></trkpt><trkpt lat="46.01997211667798" lon="11.605670632808884"><ele>265.0</ele><time>2026-04-17T12:47:55Z</time></trkpt><trkpt lat="46.019867420482676" lon="11.606024683097194"><ele>260.0</ele><time>2026-04-17T12:47:56Z</time></trkpt><trkpt lat="46.01977182185375" lon="11.606359196894141"><ele>259.0</ele><time>2026-04-17T12:47:57Z</time></trkpt><trkpt lat="46.019673730080065" lon="11.606669112875505"><ele>258.0</ele><time>2026-04-17T12:47:58Z</time></trkpt><trkpt lat="46.01957913031097" lon="11.606969465314334"><ele>259.0</ele><time>2026-04-17T12:47:59Z</time></trkpt><trkpt lat="46.01946542644637" lon="11.607262837067683"><ele>260.0</ele><time>2026-04-17T12:48:00Z</time></trkpt><trkpt lat="46.01933552412114" lon="11.607548789201061"><ele>260.0</ele><time>2026-04-17T12:48:01Z</time></trkpt><trkpt lat="46.01918510792928" lon="11.607819665112647"><ele>260.0</ele><time>2026-04-17T12:48:02Z</time></trkpt><trkpt lat="46.01900656258403" lon="11.608080588263176"><ele>260.0</ele><time>2026-04-17T12:48:03Z</time></trkpt><trkpt lat="46.01880780671227" lon="11.608335312879028"><ele>260.0</ele><time>2026-04-17T12:48:04Z</time></trkpt><trkpt lat="46.01859646215408" lon="11.608600978770884"><ele>260.0</ele><time>2026-04-17T12:48:05Z</time></trkpt><trkpt lat="46.01837743053771" lon="11.608878986721706"><ele>260.0</ele><time>2026-04-17T12:48:06Z</time></trkpt><trkpt lat="46.0181723977096" lon="11.609146743821839"><ele>260.0</ele><time>2026-04-17T12:48:07Z</time></trkpt><trkpt lat="46.017951523767664" lon="11.609426706342111"><ele>260.0</ele><time>2026-04-17T12:48:08Z</time></trkpt><trkpt lat="46.01772475723121" lon="11.609715520788594"><ele>260.5</ele><time>2026-04-17T12:48:09Z</time></trkpt><trkpt lat="46.01749229099705" lon="11.610012790511776"><ele>261.0</ele><time>2026-04-17T12:48:10Z</time></trkpt><trkpt lat="46.01726998668446" lon="11.610302280794615"><ele>259.5</ele><time>2026-04-17T12:48:11Z</time></trkpt><trkpt lat="46.01705873095094" lon="11.610568376852067"><ele>258.0</ele><time>2026-04-17T12:48:12Z</time></trkpt><trkpt lat="46.016846011424136" lon="11.610853164269392"><ele>259.0</ele><time>2026-04-17T12:48:13Z</time></trkpt><trkpt lat="46.01663498971931" lon="11.611161808696536"><ele>260.0</ele><time>2026-04-17T12:48:14Z</time></trkpt><trkpt lat="46.01642613528089" lon="11.611487219733686"><ele>260.0</ele><time>2026-04-17T12:48:15Z</time></trkpt><trkpt lat="46.01623289505178" lon="11.611826761119673"><ele>260.0</ele><time>2026-04-17T12:48:16Z</time></trkpt><trkpt lat="46.01605808073165" lon="11.612168117985895"><ele>260.0</ele><time>2026-04-17T12:48:17Z</time></trkpt><trkpt lat="46.015903683786604" lon="11.612490018481017"><ele>260.0</ele><time>2026-04-17T12:48:18Z</time></trkpt><trkpt lat="46.015765191049624" lon="11.612799308659941"><ele>259.5</ele><time>2026-04-17T12:48:19Z</time></trkpt><trkpt lat="46.015644363846114" lon="11.613100420663915"><ele>259.0</ele><time>2026-04-17T12:48:20Z</time></trkpt><trkpt lat="46.015536916133186" lon="11.613390314086384"><ele>258.0</ele><time>2026-04-17T12:48:21Z</time></trkpt><trkpt lat="46.01544111832876" lon="11.613669659853327"><ele>257.0</ele><time>2026-04-17T12:48:22Z</time></trkpt><trkpt lat="46.0153564689355" lon="11.613936989995539"><ele>256.0</ele><time>2026-04-17T12:48:23Z</time></trkpt><trkpt lat="46.015279780303324" lon="11.614193685473863"><ele>256.0</ele><time>2026-04-17T12:48:24Z</time></trkpt><trkpt lat="46.01520824811701" lon="11.614455692794618"><ele>256.0</ele><time>2026-04-17T12:48:25Z</time></trkpt><trkpt lat="46.015141876689434" lon="11.614733428351977"><ele>256.0</ele><time>2026-04-17T12:48:26Z</time></trkpt><trkpt lat="46.01508177206824" lon="11.615020373319949"><ele>255.5</ele><time>2026-04-17T12:48:27Z</time></trkpt><trkpt lat="46.01502311200129" lon="11.615317798369064"><ele>255.0</ele><time>2026-04-17T12:48:28Z</time></trkpt><trkpt lat="46.014964517758735" lon="11.615646467768443"><ele>255.0</ele><time>2026-04-17T12:48:29Z</time></trkpt><trkpt lat="46.01490467756133" lon="11.616007543915032"><ele>255.0</ele><time>2026-04-17T12:48:30Z</time></trkpt><trkpt lat="46.014847218895035" lon="11.616394351703057"><ele>255.0</ele><time>2026-04-17T12:48:31Z</time></trkpt><trkpt lat="46.01478341654301" lon="11.61679571722682"><ele>255.0</ele><time>2026-04-17T12:48:32Z</time></trkpt><trkpt lat="46.01471380691604" lon="11.617219036725373"><ele>255.5</ele><time>2026-04-17T12:48:33Z</time></trkpt><trkpt lat="46.014637728339686" lon="11.617653158192873"><ele>256.0</ele><time>2026-04-17T12:48:34Z</time></trkpt><trkpt lat="46.01455845881944" lon="11.618104096902957"><ele>254.5</ele><time>2026-04-17T12:48:35Z</time></trkpt><trkpt lat="46.01447571248631" lon="11.618574077494307"><ele>253.0</ele><time>2026-04-17T12:48:36Z</time></trkpt><trkpt lat="46.01439415915112" lon="11.619058850524361"><ele>253.0</ele><time>2026-04-17T12:48:37Z</time></trkpt><trkpt lat="46.014311769422584" lon="11.619559834402375"><ele>253.0</ele><time>2026-04-17T12:48:38Z</time></trkpt><trkpt lat="46.01422919258325" lon="11.62006914450136"><ele>254.0</ele><time>2026-04-17T12:48:39Z</time></trkpt><trkpt lat="46.01414565039844" lon="11.620583109298606"><ele>255.0</ele><time>2026-04-17T12:48:40Z</time></trkpt><trkpt lat="46.01405828440158" lon="11.621104285538328"><ele>253.5</ele><time>2026-04-17T12:48:41Z</time></trkpt><trkpt lat="46.013971468086375" lon="11.621627370234952"><ele>252.0</ele><time>2026-04-17T12:48:42Z</time></trkpt><trkpt lat="46.01388264180439" lon="11.622149384621649"><ele>252.0</ele><time>2026-04-17T12:48:43Z</time></trkpt><trkpt lat="46.013800739726065" lon="11.622627218669052"><ele>252.0</ele><time>2026-04-17T12:48:44Z</time></trkpt><trkpt lat="46.01372300980246" lon="11.623081316583644"><ele>252.0</ele><time>2026-04-17T12:48:45Z</time></trkpt><trkpt lat="46.01364927767505" lon="11.623544572051006"><ele>252.0</ele><time>2026-04-17T12:48:46Z</time></trkpt><trkpt lat="46.013575396877705" lon="11.62400568809533"><ele>251.5</ele><time>2026-04-17T12:48:47Z</time></trkpt><trkpt lat="46.01349927641599" lon="11.624470808447118"><ele>251.0</ele><time>2026-04-17T12:48:48Z</time></trkpt><trkpt lat="46.01342198044941" lon="11.624942122365056"><ele>251.0</ele><time>2026-04-17T12:48:49Z</time></trkpt><trkpt lat="46.01334274758603" lon="11.62541864072935"><ele>251.0</ele><time>2026-04-17T12:48:50Z</time></trkpt><trkpt lat="46.01326055861292" lon="11.62590518904157"><ele>251.5</ele><time>2026-04-17T12:48:51Z</time></trkpt><trkpt lat="46.01317880799289" lon="11.626400786407112"><ele>252.0</ele><time>2026-04-17T12:48:52Z</time></trkpt><trkpt lat="46.01309563291248" lon="11.6269023526034"><ele>252.0</ele><time>2026-04-17T12:48:53Z</time></trkpt><trkpt lat="46.01301210816181" lon="11.627406187923894"><ele>252.0</ele><time>2026-04-17T12:48:54Z</time></trkpt><trkpt lat="46.01292754191009" lon="11.62791188654185"><ele>251.5</ele><time>2026-04-17T12:48:55Z</time></trkpt><trkpt lat="46.01284217739904" lon="11.62841593769083"><ele>251.0</ele><time>2026-04-17T12:48:56Z</time></trkpt><trkpt lat="46.012755117777516" lon="11.628918852893266"><ele>250.0</ele><time>2026-04-17T12:48:57Z</time></trkpt><trkpt lat="46.012666995944215" lon="11.629424714066909"><ele>249.0</ele><time>2026-04-17T12:48:58Z</time></trkpt><trkpt lat="46.01258081714401" lon="11.62993692822184"><ele>249.0</ele><time>2026-04-17T12:48:59Z</time></trkpt><trkpt lat="46.012493211772785" lon="11.630450800106638"><ele>249.0</ele><time>2026-04-17T12:49:00Z</time></trkpt><trkpt lat="46.01241071298812" lon="11.630966311606864"><ele>249.5</ele><time>2026-04-17T12:49:01Z</time></trkpt><trkpt lat="46.012344896847075" lon="11.631451132024143"><ele>250.0</ele><time>2026-04-17T12:49:02Z</time></trkpt><trkpt lat="46.01230164039018" lon="11.631907180177782"><ele>250.0</ele><time>2026-04-17T12:49:03Z</time></trkpt><trkpt lat="46.0122696306227" lon="11.63239163498945"><ele>250.0</ele><time>2026-04-17T12:49:04Z</time></trkpt><trkpt lat="46.01224527281521" lon="11.632895892847225"><ele>249.5</ele><time>2026-04-17T12:49:05Z</time></trkpt><trkpt lat="46.012222161192895" lon="11.63340908910336"><ele>249.0</ele><time>2026-04-17T12:49:06Z</time></trkpt><trkpt lat="46.012195873063504" lon="11.633931360879027"><ele>248.5</ele><time>2026-04-17T12:49:07Z</time></trkpt><trkpt lat="46.01216902819487" lon="11.63446432977206"><ele>248.0</ele><time>2026-04-17T12:49:08Z</time></trkpt><trkpt lat="46.01214210667472" lon="11.635000904719051"><ele>249.0</ele><time>2026-04-17T12:49:09Z</time></trkpt><trkpt lat="46.01211677529823" lon="11.635493370942223"><ele>250.0</ele><time>2026-04-17T12:49:10Z</time></trkpt><trkpt lat="46.012094087092976" lon="11.635950113930027"><ele>249.5</ele><time>2026-04-17T12:49:11Z</time></trkpt><trkpt lat="46.01207146368009" lon="11.636397563317995"><ele>249.0</ele><time>2026-04-17T12:49:12Z</time></trkpt><trkpt lat="46.01205281681317" lon="11.636842191338545"><ele>249.5</ele><time>2026-04-17T12:49:13Z</time></trkpt><trkpt lat="46.01203654428209" lon="11.63727764762842"><ele>250.0</ele><time>2026-04-17T12:49:14Z</time></trkpt><trkpt lat="46.012016173148" lon="11.637715076277832"><ele>250.0</ele><time>2026-04-17T12:49:15Z</time></trkpt><trkpt lat="46.01199215938207" lon="11.638164878532212"><ele>250.0</ele><time>2026-04-17T12:49:16Z</time></trkpt><trkpt lat="46.01196728049472" lon="11.638624109065177"><ele>250.0</ele><time>2026-04-17T12:49:17Z</time></trkpt><trkpt lat="46.011942628531486" lon="11.639051388750675"><ele>250.0</ele><time>2026-04-17T12:49:18Z</time></trkpt><trkpt lat="46.0119070087271" lon="11.639464842673721"><ele>250.0</ele><time>2026-04-17T12:49:19Z</time></trkpt><trkpt lat="46.01185640063874" lon="11.639875694898857"><ele>250.0</ele><time>2026-04-17T12:49:20Z</time></trkpt><trkpt lat="46.01179444758242" lon="11.640291126888222"><ele>249.0</ele><time>2026-04-17T12:49:21Z</time></trkpt><trkpt lat="46.011719621897036" lon="11.640703530792283"><ele>248.0</ele><time>2026-04-17T12:49:22Z</time></trkpt><trkpt lat="46.01163304313542" lon="11.641117581965739"><ele>246.5</ele><time>2026-04-17T12:49:23Z</time></trkpt><trkpt lat="46.01153217494536" lon="11.641530066927755"><ele>245.0</ele><time>2026-04-17T12:49:24Z</time></trkpt><trkpt lat="46.01141781270611" lon="11.641935537130687"><ele>245.0</ele><time>2026-04-17T12:49:25Z</time></trkpt><trkpt lat="46.01129218620392" lon="11.64233019685127"><ele>245.0</ele><time>2026-04-17T12:49:26Z</time></trkpt><trkpt lat="46.01115543150847" lon="11.642703860162058"><ele>245.5</ele><time>2026-04-17T12:49:27Z</time></trkpt><trkpt lat="46.01100402444495" lon="11.643082917943708"><ele>246.0</ele><time>2026-04-17T12:49:28Z</time></trkpt><trkpt lat="46.01085373276466" lon="11.643424810809426"><ele>243.5</ele><time>2026-04-17T12:49:29Z</time></trkpt><trkpt lat="46.010689495912565" lon="11.643761028457302"><ele>241.0</ele><time>2026-04-17T12:49:30Z</time></trkpt><trkpt lat="46.01051776584005" lon="11.6440912742139"><ele>241.0</ele><time>2026-04-17T12:49:31Z</time></trkpt><trkpt lat="46.010340407937605" lon="11.644400880538754"><ele>241.0</ele><time>2026-04-17T12:49:32Z</time></trkpt><trkpt lat="46.01015496564727" lon="11.644698606714687"><ele>240.0</ele><time>2026-04-17T12:49:33Z</time></trkpt><trkpt lat="46.00995503317551" lon="11.644993786855267"><ele>239.0</ele><time>2026-04-17T12:49:34Z</time></trkpt><trkpt lat="46.00974390385338" lon="11.64528178921594"><ele>239.5</ele><time>2026-04-17T12:49:35Z</time></trkpt><trkpt lat="46.00951556932578" lon="11.645579592020939"><ele>240.0</ele><time>2026-04-17T12:49:36Z</time></trkpt><trkpt lat="46.009280555220336" lon="11.645896263242765"><ele>240.5</ele><time>2026-04-17T12:49:37Z</time></trkpt><trkpt lat="46.00903792085719" lon="11.646230155693244"><ele>241.0</ele><time>2026-04-17T12:49:38Z</time></trkpt><trkpt lat="46.00878786632516" lon="11.646569534975171"><ele>241.0</ele><time>2026-04-17T12:49:39Z</time></trkpt><trkpt lat="46.00853150781433" lon="11.646919996668816"><ele>241.0</ele><time>2026-04-17T12:49:40Z</time></trkpt><trkpt lat="46.008267121584105" lon="11.647274927919156"><ele>241.0</ele><time>2026-04-17T12:49:41Z</time></trkpt><trkpt lat="46.007997705790515" lon="11.647635244817396"><ele>241.0</ele><time>2026-04-17T12:49:42Z</time></trkpt><trkpt lat="46.00772429346337" lon="11.64800478713372"><ele>240.5</ele><time>2026-04-17T12:49:43Z</time></trkpt><trkpt lat="46.0074517145955" lon="11.648370001197934"><ele>240.0</ele><time>2026-04-17T12:49:44Z</time></trkpt><trkpt lat="46.007185040171" lon="11.648729709528554"><ele>240.0</ele><time>2026-04-17T12:49:45Z</time></trkpt><trkpt lat="46.00694313488993" lon="11.649058283866772"><ele>240.0</ele><time>2026-04-17T12:49:46Z</time></trkpt><trkpt lat="46.0067175920456" lon="11.649363911068829"><ele>238.5</ele><time>2026-04-17T12:49:47Z</time></trkpt><trkpt lat="46.00650681082418" lon="11.649649321723688"><ele>237.0</ele><time>2026-04-17T12:49:48Z</time></trkpt><trkpt lat="46.00630796852441" lon="11.649920111227962"><ele>237.0</ele><time>2026-04-17T12:49:49Z</time></trkpt><trkpt lat="46.00611655887411" lon="11.650184429415566"><ele>237.0</ele><time>2026-04-17T12:49:50Z</time></trkpt><trkpt lat="46.00593544781839" lon="11.650451676554079"><ele>237.0</ele><time>2026-04-17T12:49:51Z</time></trkpt><trkpt lat="46.00577094883073" lon="11.650740302364529"><ele>237.0</ele><time>2026-04-17T12:49:52Z</time></trkpt><trkpt lat="46.00561734943635" lon="11.651055434345949"><ele>238.0</ele><time>2026-04-17T12:49:53Z</time></trkpt><trkpt lat="46.00546875108842" lon="11.651401159760622"><ele>239.0</ele><time>2026-04-17T12:49:54Z</time></trkpt><trkpt lat="46.00533254356634" lon="11.651765018482214"><ele>239.0</ele><time>2026-04-17T12:49:55Z</time></trkpt><trkpt lat="46.005208244147305" lon="11.652143495933878"><ele>239.0</ele><time>2026-04-17T12:49:56Z</time></trkpt><trkpt lat="46.00510290943435" lon="11.652540171546596"><ele>239.0</ele><time>2026-04-17T12:49:57Z</time></trkpt><trkpt lat="46.005001880465706" lon="11.652963391479139"><ele>239.0</ele><time>2026-04-17T12:49:58Z</time></trkpt><trkpt lat="46.0048934014035" lon="11.653405084104598"><ele>238.5</ele><time>2026-04-17T12:49:59Z</time></trkpt><trkpt lat="46.00478014629983" lon="11.65385666382553"><ele>238.0</ele><time>2026-04-17T12:50:00Z</time></trkpt><trkpt lat="46.00466248125784" lon="11.654318747017252"><ele>238.0</ele><time>2026-04-17T12:50:01Z</time></trkpt><trkpt lat="46.004541923181506" lon="11.654797872485865"><ele>238.0</ele><time>2026-04-17T12:50:02Z</time></trkpt><trkpt lat="46.00442143915951" lon="11.655285471224232"><ele>238.0</ele><time>2026-04-17T12:50:03Z</time></trkpt><trkpt lat="46.00429622953776" lon="11.655789237123802"><ele>238.0</ele><time>2026-04-17T12:50:04Z</time></trkpt><trkpt lat="46.00416573536674" lon="11.656300121156043"><ele>237.5</ele><time>2026-04-17T12:50:05Z</time></trkpt><trkpt lat="46.004042326921564" lon="11.656795852381084"><ele>237.0</ele><time>2026-04-17T12:50:06Z</time></trkpt><trkpt lat="46.0039294043202" lon="11.65724518989686"><ele>237.0</ele><time>2026-04-17T12:50:07Z</time></trkpt><trkpt lat="46.00382189152037" lon="11.657665824836705"><ele>237.0</ele><time>2026-04-17T12:50:08Z</time></trkpt><trkpt lat="46.003718425155775" lon="11.658091144563215"><ele>238.0</ele><time>2026-04-17T12:50:09Z</time></trkpt><trkpt lat="46.00361090648356" lon="11.658528584402639"><ele>239.0</ele><time>2026-04-17T12:50:10Z</time></trkpt><trkpt lat="46.00350399224161" lon="11.658963820104324"><ele>239.0</ele><time>2026-04-17T12:50:11Z</time></trkpt><trkpt lat="46.00340667995218" lon="11.659351489620889"><ele>239.0</ele><time>2026-04-17T12:50:12Z</time></trkpt><trkpt lat="46.00331490576892" lon="11.659728888039892"><ele>238.0</ele><time>2026-04-17T12:50:13Z</time></trkpt><trkpt lat="46.00321886873021" lon="11.660088451380004"><ele>237.0</ele><time>2026-04-17T12:50:14Z</time></trkpt><trkpt lat="46.00312339039857" lon="11.66042973466723"><ele>237.0</ele><time>2026-04-17T12:50:15Z</time></trkpt><trkpt lat="46.003012855098426" lon="11.66076616504328"><ele>237.0</ele><time>2026-04-17T12:50:16Z</time></trkpt><trkpt lat="46.002887478447796" lon="11.661109222989078"><ele>237.0</ele><time>2026-04-17T12:50:17Z</time></trkpt><trkpt lat="46.00274561268799" lon="11.661458456800753"><ele>237.0</ele><time>2026-04-17T12:50:18Z</time></trkpt><trkpt lat="46.00259228014331" lon="11.661789136506401"><ele>237.5</ele><time>2026-04-17T12:50:19Z</time></trkpt><trkpt lat="46.00242415503671" lon="11.662111845150159"><ele>238.0</ele><time>2026-04-17T12:50:20Z</time></trkpt><trkpt lat="46.00224070924238" lon="11.662425746177105"><ele>238.0</ele><time>2026-04-17T12:50:21Z</time></trkpt><trkpt lat="46.0020448405953" lon="11.662727038956529"><ele>238.0</ele><time>2026-04-17T12:50:22Z</time></trkpt><trkpt lat="46.00183773842971" lon="11.663017192730175"><ele>236.5</ele><time>2026-04-17T12:50:23Z</time></trkpt><trkpt lat="46.00161981831565" lon="11.663296982779128"><ele>235.0</ele><time>2026-04-17T12:50:24Z</time></trkpt><trkpt lat="46.00139756384337" lon="11.663555929962664"><ele>236.0</ele><time>2026-04-17T12:50:25Z</time></trkpt><trkpt lat="46.001176867316204" lon="11.663782361107137"><ele>237.0</ele><time>2026-04-17T12:50:26Z</time></trkpt><trkpt lat="46.00094098066106" lon="11.663992277319924"><ele>235.5</ele><time>2026-04-17T12:50:27Z</time></trkpt><trkpt lat="46.00068965277007" lon="11.664188082672569"><ele>234.0</ele><time>2026-04-17T12:50:28Z</time></trkpt><trkpt lat="46.00042331929825" lon="11.664375681763454"><ele>233.5</ele><time>2026-04-17T12:50:29Z</time></trkpt><trkpt lat="46.000155262136765" lon="11.664544370486905"><ele>233.0</ele><time>2026-04-17T12:50:30Z</time></trkpt><trkpt lat="45.99988436110545" lon="11.664687270581604"><ele>233.0</ele><time>2026-04-17T12:50:31Z</time></trkpt><trkpt lat="45.999602753103645" lon="11.664811160676866"><ele>233.0</ele><time>2026-04-17T12:50:32Z</time></trkpt><trkpt lat="45.99930814332493" lon="11.664923654322187"><ele>233.0</ele><time>2026-04-17T12:50:33Z</time></trkpt><trkpt lat="45.99899888041798" lon="11.665039192328758"><ele>233.0</ele><time>2026-04-17T12:50:34Z</time></trkpt><trkpt lat="45.99868193554513" lon="11.665166477784844"><ele>233.0</ele><time>2026-04-17T12:50:35Z</time></trkpt><trkpt lat="45.99835971689216" lon="11.665295045442804"><ele>233.0</ele><time>2026-04-17T12:50:36Z</time></trkpt><trkpt lat="45.99803082330364" lon="11.66543076132926"><ele>233.0</ele><time>2026-04-17T12:50:37Z</time></trkpt><trkpt lat="45.99771653681004" lon="11.665554929448422"><ele>233.0</ele><time>2026-04-17T12:50:38Z</time></trkpt><trkpt lat="45.99741436587627" lon="11.665669140030738"><ele>233.0</ele><time>2026-04-17T12:50:39Z</time></trkpt><trkpt lat="45.99709884033337" lon="11.665790935885559"><ele>233.0</ele><time>2026-04-17T12:50:40Z</time></trkpt><trkpt lat="45.996811480211676" lon="11.665905955278122"><ele>233.0</ele><time>2026-04-17T12:50:41Z</time></trkpt><trkpt lat="45.99652374496773" lon="11.666021608525892"><ele>233.0</ele><time>2026-04-17T12:50:42Z</time></trkpt><trkpt lat="45.99621708416895" lon="11.666138228226291"><ele>233.0</ele><time>2026-04-17T12:50:43Z</time></trkpt><trkpt lat="45.99593874489022" lon="11.66624464622603"><ele>233.0</ele><time>2026-04-17T12:50:44Z</time></trkpt><trkpt lat="45.99567990785047" lon="11.66635057521385"><ele>233.0</ele><time>2026-04-17T12:50:45Z</time></trkpt><trkpt lat="45.995419009523275" lon="11.66645242039736"><ele>233.0</ele><time>2026-04-17T12:50:46Z</time></trkpt><trkpt lat="45.995156581181256" lon="11.666559540986846"><ele>233.0</ele><time>2026-04-17T12:50:47Z</time></trkpt><trkpt lat="45.99489395827787" lon="11.666679540097432"><ele>233.0</ele><time>2026-04-17T12:50:48Z</time></trkpt><trkpt lat="45.99462711441266" lon="11.6668110511421"><ele>232.5</ele><time>2026-04-17T12:50:49Z</time></trkpt><trkpt lat="45.99435740621823" lon="11.666947592346594"><ele>232.0</ele><time>2026-04-17T12:50:50Z</time></trkpt><trkpt lat="45.994085899538575" lon="11.66709507768272"><ele>231.5</ele><time>2026-04-17T12:50:51Z</time></trkpt><trkpt lat="45.993812104895" lon="11.667256026748598"><ele>231.0</ele><time>2026-04-17T12:50:52Z</time></trkpt><trkpt lat="45.99353800268484" lon="11.667426970511654"><ele>231.5</ele><time>2026-04-17T12:50:53Z</time></trkpt><trkpt lat="45.99326529594819" lon="11.667607601241178"><ele>232.0</ele><time>2026-04-17T12:50:54Z</time></trkpt><trkpt lat="45.9929961460225" lon="11.667790827868684"><ele>232.5</ele><time>2026-04-17T12:50:55Z</time></trkpt><trkpt lat="45.99271772913983" lon="11.667995879321014"><ele>233.0</ele><time>2026-04-17T12:50:56Z</time></trkpt><trkpt lat="45.99242837656027" lon="11.668219326495661"><ele>232.0</ele><time>2026-04-17T12:50:57Z</time></trkpt><trkpt lat="45.99213411841429" lon="11.668462839317835"><ele>231.0</ele><time>2026-04-17T12:50:58Z</time></trkpt><trkpt lat="45.99183216445944" lon="11.66871221506926"><ele>230.5</ele><time>2026-04-17T12:50:59Z</time></trkpt><trkpt lat="45.991535325901474" lon="11.668984969455318"><ele>230.0</ele><time>2026-04-17T12:51:00Z</time></trkpt><trkpt lat="45.99122979612948" lon="11.669271479029524"><ele>230.0</ele><time>2026-04-17T12:51:01Z</time></trkpt><trkpt lat="45.99092171924682" lon="11.669565612716971"><ele>230.0</ele><time>2026-04-17T12:51:02Z</time></trkpt><trkpt lat="45.990609750927334" lon="11.66986074887059"><ele>230.0</ele><time>2026-04-17T12:51:03Z</time></trkpt><trkpt lat="45.99029393624588" lon="11.670153327279968"><ele>230.0</ele><time>2026-04-17T12:51:04Z</time></trkpt><trkpt lat="45.98997317733407" lon="11.670451865567898"><ele>230.0</ele><time>2026-04-17T12:51:05Z</time></trkpt><trkpt lat="45.98965292176485" lon="11.670748497917257"><ele>230.0</ele><time>2026-04-17T12:51:06Z</time></trkpt><trkpt lat="45.98935668959244" lon="11.671022175427984"><ele>229.0</ele><time>2026-04-17T12:51:07Z</time></trkpt><trkpt lat="45.98908398694935" lon="11.671274871593297"><ele>228.0</ele><time>2026-04-17T12:51:08Z</time></trkpt><trkpt lat="45.98880803757215" lon="11.671533059415008"><ele>228.0</ele><time>2026-04-17T12:51:09Z</time></trkpt><trkpt lat="45.98853233701006" lon="11.671803184000835"><ele>228.0</ele><time>2026-04-17T12:51:10Z</time></trkpt><trkpt lat="45.98825450549421" lon="11.67207704137779"><ele>228.0</ele><time>2026-04-17T12:51:11Z</time></trkpt><trkpt lat="45.98798029646407" lon="11.67235818306472"><ele>228.0</ele><time>2026-04-17T12:51:12Z</time></trkpt><trkpt lat="45.98770270227582" lon="11.6726551046732"><ele>227.5</ele><time>2026-04-17T12:51:13Z</time></trkpt><trkpt lat="45.98741746421304" lon="11.672968697373555"><ele>227.0</ele><time>2026-04-17T12:51:14Z</time></trkpt><trkpt lat="45.98712765838213" lon="11.67328278776129"><ele>227.0</ele><time>2026-04-17T12:51:15Z</time></trkpt><trkpt lat="45.98684816250372" lon="11.673582071904008"><ele>227.0</ele><time>2026-04-17T12:51:16Z</time></trkpt><trkpt lat="45.98659414454182" lon="11.67385159498314"><ele>228.5</ele><time>2026-04-17T12:51:17Z</time></trkpt><trkpt lat="45.98635916920587" lon="11.674102480381695"><ele>230.0</ele><time>2026-04-17T12:51:18Z</time></trkpt><trkpt lat="45.98612793878758" lon="11.674353956552702"><ele>233.0</ele><time>2026-04-17T12:51:19Z</time></trkpt><trkpt lat="45.98589681052203" lon="11.674603747895292"><ele>236.0</ele><time>2026-04-17T12:51:20Z</time></trkpt><trkpt lat="45.985670574065345" lon="11.674842118221328"><ele>236.0</ele><time>2026-04-17T12:51:21Z</time></trkpt><trkpt lat="45.985437628729194" lon="11.675070311771396"><ele>236.0</ele><time>2026-04-17T12:51:22Z</time></trkpt><trkpt lat="45.98519414130638" lon="11.67528762342664"><ele>241.5</ele><time>2026-04-17T12:51:23Z</time></trkpt><trkpt lat="45.984940993464186" lon="11.675505880269952"><ele>247.0</ele><time>2026-04-17T12:51:24Z</time></trkpt><trkpt lat="45.9846849876907" lon="11.675713526567947"><ele>247.0</ele><time>2026-04-17T12:51:25Z</time></trkpt><trkpt lat="45.98441319940901" lon="11.675912173617954"><ele>247.0</ele><time>2026-04-17T12:51:26Z</time></trkpt><trkpt lat="45.984129603101096" lon="11.676095407001892"><ele>252.0</ele><time>2026-04-17T12:51:27Z</time></trkpt><trkpt lat="45.983849326019715" lon="11.676266843832911"><ele>257.0</ele><time>2026-04-17T12:51:28Z</time></trkpt><trkpt lat="45.98358120892608" lon="11.6764086093006"><ele>251.5</ele><time>2026-04-17T12:51:29Z</time></trkpt><trkpt lat="45.983290690890364" lon="11.676558799224571"><ele>246.0</ele><time>2026-04-17T12:51:30Z</time></trkpt><trkpt lat="45.98300034700137" lon="11.67668477090808"><ele>246.0</ele><time>2026-04-17T12:51:31Z</time></trkpt><trkpt lat="45.982689086313414" lon="11.676811722381093"><ele>246.0</ele><time>2026-04-17T12:51:32Z</time></trkpt><trkpt lat="45.98237258768162" lon="11.676938400885405"><ele>246.0</ele><time>2026-04-17T12:51:33Z</time></trkpt><trkpt lat="45.98205167462332" lon="11.677065423791115"><ele>246.0</ele><time>2026-04-17T12:51:34Z</time></trkpt><trkpt lat="45.981717274591" lon="11.677203488848082"><ele>243.0</ele><time>2026-04-17T12:51:35Z</time></trkpt><trkpt lat="45.98138154535925" lon="11.677337417536222"><ele>240.0</ele><time>2026-04-17T12:51:36Z</time></trkpt><trkpt lat="45.98103971753634" lon="11.677468910769413"><ele>237.5</ele><time>2026-04-17T12:51:37Z</time></trkpt><trkpt lat="45.98071929614902" lon="11.677585884543436"><ele>235.0</ele><time>2026-04-17T12:51:38Z</time></trkpt><trkpt lat="45.98040813755706" lon="11.677702619354958"><ele>235.5</ele><time>2026-04-17T12:51:39Z</time></trkpt><trkpt lat="45.98008695171325" lon="11.677826957566428"><ele>236.0</ele><time>2026-04-17T12:51:40Z</time></trkpt><trkpt lat="45.97975641391125" lon="11.677958521475047"><ele>236.0</ele><time>2026-04-17T12:51:41Z</time></trkpt><trkpt lat="45.979434312498675" lon="11.67808714020207"><ele>236.0</ele><time>2026-04-17T12:51:42Z</time></trkpt><trkpt lat="45.97911506536016" lon="11.678214205890075"><ele>232.5</ele><time>2026-04-17T12:51:43Z</time></trkpt><trkpt lat="45.97882201857251" lon="11.678332700530532"><ele>229.0</ele><time>2026-04-17T12:51:44Z</time></trkpt><trkpt lat="45.978533434435136" lon="11.678456102493994"><ele>229.0</ele><time>2026-04-17T12:51:45Z</time></trkpt><trkpt lat="45.97826530946417" lon="11.678580888756409"><ele>229.0</ele><time>2026-04-17T12:51:46Z</time></trkpt><trkpt lat="45.9780060951847" lon="11.678719255655418"><ele>228.0</ele><time>2026-04-17T12:51:47Z</time></trkpt><trkpt lat="45.97775558686457" lon="11.678883146328833"><ele>227.0</ele><time>2026-04-17T12:51:48Z</time></trkpt><trkpt lat="45.97751163743244" lon="11.679063781710044"><ele>225.5</ele><time>2026-04-17T12:51:49Z</time></trkpt><trkpt lat="45.977272014766534" lon="11.67926605345838"><ele>224.0</ele><time>2026-04-17T12:51:50Z</time></trkpt><trkpt lat="45.97703638894835" lon="11.679480802644699"><ele>224.0</ele><time>2026-04-17T12:51:51Z</time></trkpt><trkpt lat="45.97680012246555" lon="11.679727660190293"><ele>224.0</ele><time>2026-04-17T12:51:52Z</time></trkpt><trkpt lat="45.976555485476254" lon="11.679998005505002"><ele>224.0</ele><time>2026-04-17T12:51:53Z</time></trkpt><trkpt lat="45.97631554235077" lon="11.680258482406693"><ele>224.0</ele><time>2026-04-17T12:51:54Z</time></trkpt><trkpt lat="45.976095956288134" lon="11.680493847991112"><ele>223.5</ele><time>2026-04-17T12:51:55Z</time></trkpt><trkpt lat="45.97587351615657" lon="11.680724926166734"><ele>223.0</ele><time>2026-04-17T12:51:56Z</time></trkpt><trkpt lat="45.97565423781591" lon="11.680937182474953"><ele>225.0</ele><time>2026-04-17T12:51:57Z</time></trkpt><trkpt lat="45.975443972577104" lon="11.68113242165978"><ele>227.0</ele><time>2026-04-17T12:51:58Z</time></trkpt><trkpt lat="45.975243888451686" lon="11.681301810221758"><ele>227.0</ele><time>2026-04-17T12:51:59Z</time></trkpt><trkpt lat="45.97504892666637" lon="11.68145063607663"><ele>227.0</ele><time>2026-04-17T12:52:00Z</time></trkpt><trkpt lat="45.97487046866746" lon="11.68156759569182"><ele>227.0</ele><time>2026-04-17T12:52:01Z</time></trkpt><trkpt lat="45.97471173818268" lon="11.681671379058336"><ele>226.75</ele><time>2026-04-17T12:52:02Z</time></trkpt><trkpt lat="45.97456851565101" lon="11.681772920434282"><ele>226.5</ele><time>2026-04-17T12:52:03Z</time></trkpt><trkpt lat="45.974436624024" lon="11.681869336569617"><ele>226.25</ele><time>2026-04-17T12:52:04Z</time></trkpt><trkpt lat="45.97431239787162" lon="11.681958004920856"><ele>226.0</ele><time>2026-04-17T12:52:05Z</time></trkpt><trkpt lat="45.97418642224542" lon="11.682047782544041"><ele>225.33333333333331</ele><time>2026-04-17T12:52:06Z</time></trkpt><trkpt lat="45.974050997791764" lon="11.682140507954447"><ele>224.66666666666669</ele><time>2026-04-17T12:52:07Z</time></trkpt><trkpt lat="45.973911875372984" lon="11.682235411078919"><ele>224.0</ele><time>2026-04-17T12:52:08Z</time></trkpt><trkpt lat="45.9737675712989" lon="11.682334345712386"><ele>224.0</ele><time>2026-04-17T12:52:09Z</time></trkpt><trkpt lat="45.97361963138845" lon="11.68243478844569"><ele>224.0</ele><time>2026-04-17T12:52:10Z</time></trkpt><trkpt lat="45.97346891318584" lon="11.682542490649357"><ele>224.0</ele><time>2026-04-17T12:52:11Z</time></trkpt><trkpt lat="45.97329709462811" lon="11.682663393444038"><ele>224.0</ele><time>2026-04-17T12:52:12Z</time></trkpt><trkpt lat="45.97308366041287" lon="11.682812321348864"><ele>224.0</ele><time>2026-04-17T12:52:13Z</time></trkpt><trkpt lat="45.97285617063765" lon="11.682972187042141"><ele>224.0</ele><time>2026-04-17T12:52:14Z</time></trkpt><trkpt lat="45.97261378787772" lon="11.683141469576542"><ele>224.0</ele><time>2026-04-17T12:52:15Z</time></trkpt><trkpt lat="45.97234299187755" lon="11.683323351267079"><ele>223.5</ele><time>2026-04-17T12:52:16Z</time></trkpt><trkpt lat="45.97208089164817" lon="11.68350337259667"><ele>223.0</ele><time>2026-04-17T12:52:17Z</time></trkpt><trkpt lat="45.97182539985713" lon="11.683680885429697"><ele>222.0</ele><time>2026-04-17T12:52:18Z</time></trkpt><trkpt lat="45.97158408221313" lon="11.683845400054665"><ele>221.0</ele><time>2026-04-17T12:52:19Z</time></trkpt><trkpt lat="45.971336683491664" lon="11.684010623632377"><ele>221.0</ele><time>2026-04-17T12:52:20Z</time></trkpt><trkpt lat="45.97106748600219" lon="11.684171679169753"><ele>221.0</ele><time>2026-04-17T12:52:21Z</time></trkpt><trkpt lat="45.97078704223159" lon="11.684309528410376"><ele>221.0</ele><time>2026-04-17T12:52:22Z</time></trkpt><trkpt lat="45.97049583160334" lon="11.68443039490619"><ele>221.0</ele><time>2026-04-17T12:52:23Z</time></trkpt><trkpt lat="45.970194408395486" lon="11.684536175269816"><ele>220.5</ele><time>2026-04-17T12:52:24Z</time></trkpt><trkpt lat="45.969889206381964" lon="11.684635169147416"><ele>220.0</ele><time>2026-04-17T12:52:25Z</time></trkpt><trkpt lat="45.9696169738683" lon="11.684730270934123"><ele>220.0</ele><time>2026-04-17T12:52:26Z</time></trkpt><trkpt lat="45.96935268404167" lon="11.6848338710468"><ele>220.0</ele><time>2026-04-17T12:52:27Z</time></trkpt><trkpt lat="45.969090214908135" lon="11.684951038602714"><ele>220.5</ele><time>2026-04-17T12:52:28Z</time></trkpt><trkpt lat="45.96883254604976" lon="11.685090393700397"><ele>221.0</ele><time>2026-04-17T12:52:29Z</time></trkpt><trkpt lat="45.968564188256494" lon="11.685177008904441"><ele>222.0</ele><time>2026-04-17T12:52:30Z</time></trkpt><trkpt lat="45.96832725901103" lon="11.685433822211696"><ele>223.0</ele><time>2026-04-17T12:52:31Z</time></trkpt><trkpt lat="45.96807755379103" lon="11.68562967655638"><ele>223.0</ele><time>2026-04-17T12:52:32Z</time></trkpt><trkpt lat="45.967825439428154" lon="11.685840562881966"><ele>223.0</ele><time>2026-04-17T12:52:33Z</time></trkpt><trkpt lat="45.967570702259984" lon="11.686054567979049"><ele>221.0</ele><time>2026-04-17T12:52:34Z</time></trkpt><trkpt lat="45.96733796479349" lon="11.686246780824368"><ele>219.0</ele><time>2026-04-17T12:52:35Z</time></trkpt><trkpt lat="45.9671153632643" lon="11.686439768085785"><ele>219.0</ele><time>2026-04-17T12:52:36Z</time></trkpt><trkpt lat="45.96689575446828" lon="11.686645176248568"><ele>219.0</ele><time>2026-04-17T12:52:37Z</time></trkpt><trkpt lat="45.966674636023306" lon="11.68687788932862"><ele>219.5</ele><time>2026-04-17T12:52:38Z</time></trkpt><trkpt lat="45.966462663257" lon="11.687129347319834"><ele>220.0</ele><time>2026-04-17T12:52:39Z</time></trkpt><trkpt lat="45.96625753270195" lon="11.687394315018985"><ele>220.0</ele><time>2026-04-17T12:52:40Z</time></trkpt><trkpt lat="45.96605294423887" lon="11.687677606215344"><ele>220.0</ele><time>2026-04-17T12:52:41Z</time></trkpt><trkpt lat="45.96585184011362" lon="11.687983451642202"><ele>220.5</ele><time>2026-04-17T12:52:42Z</time></trkpt><trkpt lat="45.96566224823802" lon="11.688310766803882"><ele>221.0</ele><time>2026-04-17T12:52:43Z</time></trkpt><trkpt lat="45.96547408828422" lon="11.688673345679065"><ele>219.5</ele><time>2026-04-17T12:52:44Z</time></trkpt><trkpt lat="45.96527924783044" lon="11.689052980844426"><ele>218.0</ele><time>2026-04-17T12:52:45Z</time></trkpt><trkpt lat="45.965075798356416" lon="11.68944309019763"><ele>218.5</ele><time>2026-04-17T12:52:46Z</time></trkpt><trkpt lat="45.964884857828125" lon="11.689799632264243"><ele>219.0</ele><time>2026-04-17T12:52:47Z</time></trkpt><trkpt lat="45.96470519246404" lon="11.690127841704"><ele>219.5</ele><time>2026-04-17T12:52:48Z</time></trkpt><trkpt lat="45.96453159037072" lon="11.690445675126917"><ele>220.0</ele><time>2026-04-17T12:52:49Z</time></trkpt><trkpt lat="45.96435831529384" lon="11.690772216945103"><ele>217.5</ele><time>2026-04-17T12:52:50Z</time></trkpt><trkpt lat="45.964193185719076" lon="11.691101765194245"><ele>215.0</ele><time>2026-04-17T12:52:51Z</time></trkpt><trkpt lat="45.964034755207074" lon="11.691447316758872"><ele>215.0</ele><time>2026-04-17T12:52:52Z</time></trkpt><trkpt lat="45.96389423582906" lon="11.69180736861217"><ele>215.0</ele><time>2026-04-17T12:52:53Z</time></trkpt><trkpt lat="45.963769224356476" lon="11.692189583399237"><ele>215.5</ele><time>2026-04-17T12:52:54Z</time></trkpt><trkpt lat="45.96365938758572" lon="11.692585053179148"><ele>216.0</ele><time>2026-04-17T12:52:55Z</time></trkpt><trkpt lat="45.96356867536863" lon="11.6929818136162"><ele>217.0</ele><time>2026-04-17T12:52:56Z</time></trkpt><trkpt lat="45.963498615717896" lon="11.693367881076052"><ele>218.0</ele><time>2026-04-17T12:52:57Z</time></trkpt><trkpt lat="45.96344464358552" lon="11.693763973497818"><ele>218.0</ele><time>2026-04-17T12:52:58Z</time></trkpt><trkpt lat="45.96340949090612" lon="11.694174707487372"><ele>218.0</ele><time>2026-04-17T12:52:59Z</time></trkpt><trkpt lat="45.96339296411375" lon="11.69459564048132"><ele>217.5</ele><time>2026-04-17T12:53:00Z</time></trkpt><trkpt lat="45.96339656112713" lon="11.69501723535153"><ele>217.0</ele><time>2026-04-17T12:53:01Z</time></trkpt><trkpt lat="45.96341795475767" lon="11.69544254972395"><ele>217.0</ele><time>2026-04-17T12:53:02Z</time></trkpt><trkpt lat="45.963456218461666" lon="11.695870957906052"><ele>217.0</ele><time>2026-04-17T12:53:03Z</time></trkpt><trkpt lat="45.96351254074346" lon="11.696287187678543"><ele>216.5</ele><time>2026-04-17T12:53:04Z</time></trkpt><trkpt lat="45.963591020184744" lon="11.696703131137415"><ele>216.0</ele><time>2026-04-17T12:53:05Z</time></trkpt><trkpt lat="45.96367598549066" lon="11.697133448387971"><ele>215.5</ele><time>2026-04-17T12:53:06Z</time></trkpt><trkpt lat="45.96375184051797" lon="11.69752533675809"><ele>215.0</ele><time>2026-04-17T12:53:07Z</time></trkpt><trkpt lat="45.9638220736812" lon="11.69789756184312"><ele>214.5</ele><time>2026-04-17T12:53:08Z</time></trkpt><trkpt lat="45.963892361445545" lon="11.698283603479913"><ele>214.0</ele><time>2026-04-17T12:53:09Z</time></trkpt><trkpt lat="45.963955309191164" lon="11.698665963301535"><ele>214.0</ele><time>2026-04-17T12:53:10Z</time></trkpt><trkpt lat="45.96400501865833" lon="11.699053741257913"><ele>214.0</ele><time>2026-04-17T12:53:11Z</time></trkpt><trkpt lat="45.96403649394711" lon="11.699436079424387"><ele>214.0</ele><time>2026-04-17T12:53:12Z</time></trkpt><trkpt lat="45.96405739475566" lon="11.699814512881463"><ele>214.0</ele><time>2026-04-17T12:53:13Z</time></trkpt><trkpt lat="45.96405702795231" lon="11.700191000440075"><ele>214.5</ele><time>2026-04-17T12:53:14Z</time></trkpt><trkpt lat="45.96404066414838" lon="11.700566922330257"><ele>215.0</ele><time>2026-04-17T12:53:15Z</time></trkpt><trkpt lat="45.96401012596941" lon="11.70095028336515"><ele>215.5</ele><time>2026-04-17T12:53:16Z</time></trkpt><trkpt lat="45.963962514382956" lon="11.701336615062427"><ele>216.0</ele><time>2026-04-17T12:53:17Z</time></trkpt><trkpt lat="45.963898986188006" lon="11.701714266037046"><ele>215.0</ele><time>2026-04-17T12:53:18Z</time></trkpt><trkpt lat="45.96381351427564" lon="11.702083357212532"><ele>214.0</ele><time>2026-04-17T12:53:19Z</time></trkpt><trkpt lat="45.96371500343274" lon="11.702470987260348"><ele>214.0</ele><time>2026-04-17T12:53:20Z</time></trkpt><trkpt lat="45.96360777700747" lon="11.70287156649568"><ele>214.0</ele><time>2026-04-17T12:53:21Z</time></trkpt><trkpt lat="45.96350060216958" lon="11.703254710935143"><ele>214.0</ele><time>2026-04-17T12:53:22Z</time></trkpt><trkpt lat="45.96339903616955" lon="11.703607286223736"><ele>214.0</ele><time>2026-04-17T12:53:23Z</time></trkpt><trkpt lat="45.963298258052816" lon="11.703946333146849"><ele>214.0</ele><time>2026-04-17T12:53:24Z</time></trkpt><trkpt lat="45.963190496125364" lon="11.704262534128059"><ele>214.0</ele><time>2026-04-17T12:53:25Z</time></trkpt><trkpt lat="45.96308002571562" lon="11.70455764820942"><ele>214.0</ele><time>2026-04-17T12:53:26Z</time></trkpt><trkpt lat="45.962961020438094" lon="11.704834910382532"><ele>214.0</ele><time>2026-04-17T12:53:27Z</time></trkpt><trkpt lat="45.96282942092716" lon="11.705115508066877"><ele>214.5</ele><time>2026-04-17T12:53:28Z</time></trkpt><trkpt lat="45.96268554596094" lon="11.70539560536672"><ele>215.0</ele><time>2026-04-17T12:53:29Z</time></trkpt><trkpt lat="45.96253054172681" lon="11.705672455674655"><ele>215.5</ele><time>2026-04-17T12:53:30Z</time></trkpt><trkpt lat="45.96236360495957" lon="11.70593628656617"><ele>216.0</ele><time>2026-04-17T12:53:31Z</time></trkpt><trkpt lat="45.962180603429616" lon="11.706185902863087"><ele>215.0</ele><time>2026-04-17T12:53:32Z</time></trkpt><trkpt lat="45.961980990097906" lon="11.706432863212441"><ele>214.0</ele><time>2026-04-17T12:53:33Z</time></trkpt><trkpt lat="45.96176698340349" lon="11.70667117932331"><ele>215.0</ele><time>2026-04-17T12:53:34Z</time></trkpt><trkpt lat="45.96153956916885" lon="11.70690614792744"><ele>216.0</ele><time>2026-04-17T12:53:35Z</time></trkpt><trkpt lat="45.96130237766895" lon="11.70713258548419"><ele>217.0</ele><time>2026-04-17T12:53:36Z</time></trkpt><trkpt lat="45.96105873004926" lon="11.707352331929059"><ele>218.0</ele><time>2026-04-17T12:53:37Z</time></trkpt><trkpt lat="45.960817790831115" lon="11.70757313038545"><ele>216.0</ele><time>2026-04-17T12:53:38Z</time></trkpt><trkpt lat="45.9605807815948" lon="11.707795628441678"><ele>214.0</ele><time>2026-04-17T12:53:39Z</time></trkpt><trkpt lat="45.96034748507051" lon="11.708016242200436"><ele>214.0</ele><time>2026-04-17T12:53:40Z</time></trkpt><trkpt lat="45.96011815801416" lon="11.708236027128978"><ele>214.0</ele><time>2026-04-17T12:53:41Z</time></trkpt><trkpt lat="45.95989335781836" lon="11.70845568475935"><ele>219.0</ele><time>2026-04-17T12:53:42Z</time></trkpt><trkpt lat="45.95966510485364" lon="11.708687224863676"><ele>224.0</ele><time>2026-04-17T12:53:43Z</time></trkpt><trkpt lat="45.9594244955828" lon="11.708924239630406"><ele>220.0</ele><time>2026-04-17T12:53:44Z</time></trkpt><trkpt lat="45.95917554211353" lon="11.709158611117092"><ele>216.0</ele><time>2026-04-17T12:53:45Z</time></trkpt><trkpt lat="45.958922218144394" lon="11.70939490923908"><ele>221.0</ele><time>2026-04-17T12:53:46Z</time></trkpt><trkpt lat="45.958666011338615" lon="11.709635183970432"><ele>226.0</ele><time>2026-04-17T12:53:47Z</time></trkpt><trkpt lat="45.9584130695157" lon="11.70987211039063"><ele>230.5</ele><time>2026-04-17T12:53:48Z</time></trkpt><trkpt lat="45.958179466819836" lon="11.710088116715552"><ele>235.0</ele><time>2026-04-17T12:53:49Z</time></trkpt><trkpt lat="45.957959725113305" lon="11.710289481258895"><ele>235.0</ele><time>2026-04-17T12:53:50Z</time></trkpt><trkpt lat="45.957743860340564" lon="11.710492617883826"><ele>235.0</ele><time>2026-04-17T12:53:51Z</time></trkpt><trkpt lat="45.957529121553044" lon="11.710704884368837"><ele>240.0</ele><time>2026-04-17T12:53:52Z</time></trkpt><trkpt lat="45.95730096084191" lon="11.710922392049271"><ele>245.0</ele><time>2026-04-17T12:53:53Z</time></trkpt><trkpt lat="45.957072657938106" lon="11.711132041656308"><ele>245.0</ele><time>2026-04-17T12:53:54Z</time></trkpt><trkpt lat="45.95684496511347" lon="11.711345197016435"><ele>245.0</ele><time>2026-04-17T12:53:55Z</time></trkpt><trkpt lat="45.95661815370051" lon="11.711576035818332"><ele>246.0</ele><time>2026-04-17T12:53:56Z</time></trkpt><trkpt lat="45.956399379280526" lon="11.711827699209147"><ele>247.0</ele><time>2026-04-17T12:53:57Z</time></trkpt><trkpt lat="45.95617732851108" lon="11.712108637762029"><ele>247.0</ele><time>2026-04-17T12:53:58Z</time></trkpt><trkpt lat="45.95597207604098" lon="11.712390861910379"><ele>247.0</ele><time>2026-04-17T12:53:59Z</time></trkpt><trkpt lat="45.95579108532903" lon="11.712647992839923"><ele>244.33333333333331</ele><time>2026-04-17T12:54:00Z</time></trkpt><trkpt lat="45.95562574511973" lon="11.71288380106286"><ele>241.66666666666669</ele><time>2026-04-17T12:54:01Z</time></trkpt><trkpt lat="45.95548175892268" lon="11.713086791030662"><ele>239.0</ele><time>2026-04-17T12:54:02Z</time></trkpt><trkpt lat="45.95535614818372" lon="11.713268108850857"><ele>239.0</ele><time>2026-04-17T12:54:03Z</time></trkpt><trkpt lat="45.955244502799786" lon="11.71344546635475"><ele>239.0</ele><time>2026-04-17T12:54:04Z</time></trkpt><trkpt lat="45.95514804642923" lon="11.713629420408292"><ele>239.0</ele><time>2026-04-17T12:54:05Z</time></trkpt><trkpt lat="45.95506312550974" lon="11.713811295727307"><ele>236.0</ele><time>2026-04-17T12:54:06Z</time></trkpt><trkpt lat="45.9549888923886" lon="11.713987859149299"><ele>233.0</ele><time>2026-04-17T12:54:07Z</time></trkpt><trkpt lat="45.95492185761793" lon="11.714160956295059"><ele>230.0</ele><time>2026-04-17T12:54:08Z</time></trkpt><trkpt lat="45.95486189179745" lon="11.714345152763217"><ele>227.0</ele><time>2026-04-17T12:54:09Z</time></trkpt><trkpt lat="45.95480869321479" lon="11.714542169872692"><ele>227.0</ele><time>2026-04-17T12:54:10Z</time></trkpt><trkpt lat="45.95475677023119" lon="11.7147530999381"><ele>227.0</ele><time>2026-04-17T12:54:11Z</time></trkpt><trkpt lat="45.95471421701376" lon="11.714951284892745"><ele>227.0</ele><time>2026-04-17T12:54:12Z</time></trkpt><trkpt lat="45.95467469933464" lon="11.715171803273783"><ele>225.66666666666669</ele><time>2026-04-17T12:54:13Z</time></trkpt><trkpt lat="45.95463524466734" lon="11.71543374713298"><ele>224.33333333333331</ele><time>2026-04-17T12:54:14Z</time></trkpt><trkpt lat="45.95460028035556" lon="11.715741490822479"><ele>223.0</ele><time>2026-04-17T12:54:15Z</time></trkpt><trkpt lat="45.954568834524565" lon="11.716076766000967"><ele>223.0</ele><time>2026-04-17T12:54:16Z</time></trkpt><trkpt lat="45.954546131151425" lon="11.716384547976732"><ele>223.0</ele><time>2026-04-17T12:54:17Z</time></trkpt><trkpt lat="45.95452762240195" lon="11.716666366773838"><ele>223.0</ele><time>2026-04-17T12:54:18Z</time></trkpt><trkpt lat="45.954506975756665" lon="11.716954263864332"><ele>226.33333333333331</ele><time>2026-04-17T12:54:19Z</time></trkpt><trkpt lat="45.9544822155264" lon="11.717269757172875"><ele>229.66666666666669</ele><time>2026-04-17T12:54:20Z</time></trkpt><trkpt lat="45.954453219327846" lon="11.717586476305346"><ele>233.0</ele><time>2026-04-17T12:54:21Z</time></trkpt><trkpt lat="45.95441723970018" lon="11.717903048106871"><ele>243.0</ele><time>2026-04-17T12:54:22Z</time></trkpt><trkpt lat="45.9543662729438" lon="11.71822698855563"><ele>253.0</ele><time>2026-04-17T12:54:23Z</time></trkpt><trkpt lat="45.95430476161445" lon="11.718540419154644"><ele>258.3333333333333</ele><time>2026-04-17T12:54:24Z</time></trkpt><trkpt lat="45.954234132301295" lon="11.718834530605918"><ele>263.6666666666667</ele><time>2026-04-17T12:54:25Z</time></trkpt><trkpt lat="45.95415711145134" lon="11.719113951893082"><ele>269.0</ele><time>2026-04-17T12:54:26Z</time></trkpt><trkpt lat="45.954071930851434" lon="11.719380162052882"><ele>253.0</ele><time>2026-04-17T12:54:27Z</time></trkpt><trkpt lat="45.95397774429997" lon="11.71963486655297"><ele>237.0</ele><time>2026-04-17T12:54:28Z</time></trkpt><trkpt lat="45.95387691080611" lon="11.719876099172126"><ele>221.0</ele><time>2026-04-17T12:54:29Z</time></trkpt><trkpt lat="45.953767943667394" lon="11.720101951576915"><ele>227.0</ele><time>2026-04-17T12:54:30Z</time></trkpt><trkpt lat="45.9536494685184" lon="11.720309322712327"><ele>233.0</ele><time>2026-04-17T12:54:31Z</time></trkpt><trkpt lat="45.9535290675042" lon="11.720516390235657"><ele>239.0</ele><time>2026-04-17T12:54:32Z</time></trkpt><trkpt lat="45.953405880420796" lon="11.720720799172309"><ele>233.0</ele><time>2026-04-17T12:54:33Z</time></trkpt><trkpt lat="45.95327676567332" lon="11.720919926715434"><ele>227.0</ele><time>2026-04-17T12:54:34Z</time></trkpt><trkpt lat="45.9531455501767" lon="11.721128371828836"><ele>221.0</ele><time>2026-04-17T12:54:35Z</time></trkpt><trkpt lat="45.953016866054504" lon="11.7213425828775"><ele>221.0</ele><time>2026-04-17T12:54:36Z</time></trkpt><trkpt lat="45.95289170107381" lon="11.721552898258855"><ele>221.0</ele><time>2026-04-17T12:54:37Z</time></trkpt><trkpt lat="45.952769593210576" lon="11.721760559260819"><ele>221.0</ele><time>2026-04-17T12:54:38Z</time></trkpt><trkpt lat="45.9526468649734" lon="11.721965287284247"><ele>222.0</ele><time>2026-04-17T12:54:39Z</time></trkpt><trkpt lat="45.95253142438002" lon="11.722153729612156"><ele>223.0</ele><time>2026-04-17T12:54:40Z</time></trkpt><trkpt lat="45.95242042632405" lon="11.722332703558898"><ele>224.0</ele><time>2026-04-17T12:54:41Z</time></trkpt><trkpt lat="45.95230668529904" lon="11.722512850056967"><ele>224.0</ele><time>2026-04-17T12:54:42Z</time></trkpt><trkpt lat="45.95219513423583" lon="11.72269044247421"><ele>224.0</ele><time>2026-04-17T12:54:43Z</time></trkpt><trkpt lat="45.952082338703605" lon="11.722876335840853"><ele>224.0</ele><time>2026-04-17T12:54:44Z</time></trkpt><trkpt lat="45.9519646307103" lon="11.723063252908188"><ele>252.66666666666669</ele><time>2026-04-17T12:54:45Z</time></trkpt><trkpt lat="45.9518434042565" lon="11.723249808958318"><ele>281.3333333333333</ele><time>2026-04-17T12:54:46Z</time></trkpt><trkpt lat="45.951722527106185" lon="11.723419437785994"><ele>310.0</ele><time>2026-04-17T12:54:47Z</time></trkpt><trkpt lat="45.9516029003085" lon="11.723565202151024"><ele>323.0</ele><time>2026-04-17T12:54:48Z</time></trkpt><trkpt lat="45.95147481173073" lon="11.723692619602772"><ele>336.0</ele><time>2026-04-17T12:54:49Z</time></trkpt><trkpt lat="45.95133383090735" lon="11.723812916871443"><ele>349.0</ele><time>2026-04-17T12:54:50Z</time></trkpt><trkpt lat="45.95117244620051" lon="11.723917849830537"><ele>349.0</ele><time>2026-04-17T12:54:51Z</time></trkpt><trkpt lat="45.950991000716925" lon="11.724020519693644"><ele>349.0</ele><time>2026-04-17T12:54:52Z</time></trkpt><trkpt lat="45.950798347883186" lon="11.724139368273596"><ele>349.0</ele><time>2026-04-17T12:54:53Z</time></trkpt><trkpt lat="45.95061016386714" lon="11.72424487427154"><ele>360.66666666666663</ele><time>2026-04-17T12:54:54Z</time></trkpt><trkpt lat="45.950438257723" lon="11.724336499627029"><ele>372.3333333333333</ele><time>2026-04-17T12:54:55Z</time></trkpt><trkpt lat="45.95026339494855" lon="11.724433237900044"><ele>384.0</ele><time>2026-04-17T12:54:56Z</time></trkpt><trkpt lat="45.95008294570489" lon="11.724531581964495"><ele>385.0</ele><time>2026-04-17T12:54:57Z</time></trkpt><trkpt lat="45.94990091367564" lon="11.724631573563476"><ele>386.0</ele><time>2026-04-17T12:54:58Z</time></trkpt><trkpt lat="45.949718217272874" lon="11.724734481205369"><ele>387.0</ele><time>2026-04-17T12:54:59Z</time></trkpt><trkpt lat="45.94953273958776" lon="11.724841510252052"><ele>387.0</ele><time>2026-04-17T12:55:00Z</time></trkpt><trkpt lat="45.94934796173774" lon="11.724954103237248"><ele>387.0</ele><time>2026-04-17T12:55:01Z</time></trkpt><trkpt lat="45.94916678769748" lon="11.72507531900034"><ele>387.0</ele><time>2026-04-17T12:55:02Z</time></trkpt><trkpt lat="45.94898509546566" lon="11.725195129042353"><ele>380.6666666666667</ele><time>2026-04-17T12:55:03Z</time></trkpt><trkpt lat="45.948810322894495" lon="11.725316822934483"><ele>374.33333333333337</ele><time>2026-04-17T12:55:04Z</time></trkpt><trkpt lat="45.94863033330972" lon="11.72543841636489"><ele>368.0</ele><time>2026-04-17T12:55:05Z</time></trkpt><trkpt lat="45.94844934424041" lon="11.725558919816276"><ele>364.6666666666667</ele><time>2026-04-17T12:55:06Z</time></trkpt><trkpt lat="45.94825665393625" lon="11.725682962467395"><ele>361.3333333333333</ele><time>2026-04-17T12:55:07Z</time></trkpt><trkpt lat="45.94805285056066" lon="11.725811193117888"><ele>358.0</ele><time>2026-04-17T12:55:08Z</time></trkpt><trkpt lat="45.94786236420329" lon="11.72590943931037"><ele>358.0</ele><time>2026-04-17T12:55:09Z</time></trkpt><trkpt lat="45.94766473842512" lon="11.72599934938138"><ele>358.0</ele><time>2026-04-17T12:55:10Z</time></trkpt><trkpt lat="45.947468396412674" lon="11.726083980603153"><ele>358.0</ele><time>2026-04-17T12:55:11Z</time></trkpt><trkpt lat="45.9472785528961" lon="11.72616157593608"><ele>358.0</ele><time>2026-04-17T12:55:12Z</time></trkpt><trkpt lat="45.947089990324706" lon="11.726239109549232"><ele>358.0</ele><time>2026-04-17T12:55:13Z</time></trkpt><trkpt lat="45.94690848163408" lon="11.726307772712882"><ele>358.0</ele><time>2026-04-17T12:55:14Z</time></trkpt><trkpt lat="45.94672404415081" lon="11.726366286566911"><ele>358.0</ele><time>2026-04-17T12:55:15Z</time></trkpt><trkpt lat="45.94653454757222" lon="11.72641917158216"><ele>358.0</ele><time>2026-04-17T12:55:16Z</time></trkpt><trkpt lat="45.9463329568229" lon="11.726468503611962"><ele>358.0</ele><time>2026-04-17T12:55:17Z</time></trkpt><trkpt lat="45.94610899859396" lon="11.726516114129216"><ele>358.0</ele><time>2026-04-17T12:55:18Z</time></trkpt><trkpt lat="45.94586397898527" lon="11.726575392786375"><ele>358.0</ele><time>2026-04-17T12:55:19Z</time></trkpt><trkpt lat="45.945608054102706" lon="11.72662913018162"><ele>358.0</ele><time>2026-04-17T12:55:20Z</time></trkpt><trkpt lat="45.945353960292024" lon="11.726675737124468"><ele>358.0</ele><time>2026-04-17T12:55:21Z</time></trkpt><trkpt lat="45.94511545144744" lon="11.72671939370387"><ele>358.0</ele><time>2026-04-17T12:55:22Z</time></trkpt><trkpt lat="45.944885915509424" lon="11.72675890642397"><ele>358.0</ele><time>2026-04-17T12:55:23Z</time></trkpt><trkpt lat="45.94465364651325" lon="11.72678926881174"><ele>358.0</ele><time>2026-04-17T12:55:24Z</time></trkpt><trkpt lat="45.944429308514806" lon="11.726807643383403"><ele>358.0</ele><time>2026-04-17T12:55:25Z</time></trkpt><trkpt lat="45.94421541612937" lon="11.726799847690183"><ele>358.0</ele><time>2026-04-17T12:55:26Z</time></trkpt><trkpt lat="45.94399514302997" lon="11.726760938067178"><ele>358.0</ele><time>2026-04-17T12:55:27Z</time></trkpt><trkpt lat="45.943777823039866" lon="11.726691505496213"><ele>358.0</ele><time>2026-04-17T12:55:28Z</time></trkpt><trkpt lat="45.94355098962187" lon="11.726597807746504"><ele>290.0</ele><time>2026-04-17T12:55:29Z</time></trkpt><trkpt lat="45.94331692460489" lon="11.726484279812208"><ele>222.0</ele><time>2026-04-17T12:55:30Z</time></trkpt><trkpt lat="45.943058161892154" lon="11.726366413848407"><ele>222.0</ele><time>2026-04-17T12:55:31Z</time></trkpt><trkpt lat="45.94280376306002" lon="11.726258248844205"><ele>222.0</ele><time>2026-04-17T12:55:32Z</time></trkpt><trkpt lat="45.942561486775276" lon="11.726151539778057"><ele>215.5</ele><time>2026-04-17T12:55:33Z</time></trkpt><trkpt lat="45.94230222346049" lon="11.726041893484506"><ele>209.0</ele><time>2026-04-17T12:55:34Z</time></trkpt><trkpt lat="45.94204116604514" lon="11.725930755794176"><ele>209.0</ele><time>2026-04-17T12:55:35Z</time></trkpt><trkpt lat="45.94179803319249" lon="11.725827086335753"><ele>209.0</ele><time>2026-04-17T12:55:36Z</time></trkpt><trkpt lat="45.94156003640665" lon="11.725722836750647"><ele>216.5</ele><time>2026-04-17T12:55:37Z</time></trkpt><trkpt lat="45.94132377932361" lon="11.725623615466704"><ele>224.0</ele><time>2026-04-17T12:55:38Z</time></trkpt><trkpt lat="45.94109405245295" lon="11.725536443259516"><ele>224.0</ele><time>2026-04-17T12:55:39Z</time></trkpt><trkpt lat="45.94085744494135" lon="11.72546035860907"><ele>224.0</ele><time>2026-04-17T12:55:40Z</time></trkpt><trkpt lat="45.94061977964323" lon="11.725400454426536"><ele>224.0</ele><time>2026-04-17T12:55:41Z</time></trkpt><trkpt lat="45.94037428174906" lon="11.725363932864415"><ele>224.0</ele><time>2026-04-17T12:55:42Z</time></trkpt><trkpt lat="45.940117857454396" lon="11.725344203599446"><ele>224.0</ele><time>2026-04-17T12:55:43Z</time></trkpt><trkpt lat="45.939840692117144" lon="11.725326441657069"><ele>224.0</ele><time>2026-04-17T12:55:44Z</time></trkpt><trkpt lat="45.93955424228895" lon="11.72530468864385"><ele>224.0</ele><time>2026-04-17T12:55:45Z</time></trkpt><trkpt lat="45.93925909577092" lon="11.725279938143514"><ele>224.0</ele><time>2026-04-17T12:55:46Z</time></trkpt><trkpt lat="45.93896235846832" lon="11.725254658453931"><ele>224.0</ele><time>2026-04-17T12:55:47Z</time></trkpt><trkpt lat="45.93868552073886" lon="11.725232019658065"><ele>224.0</ele><time>2026-04-17T12:55:48Z</time></trkpt><trkpt lat="45.93842603291005" lon="11.72520945494477"><ele>224.0</ele><time>2026-04-17T12:55:49Z</time></trkpt><trkpt lat="45.9381777720053" lon="11.725186088302452"><ele>224.0</ele><time>2026-04-17T12:55:50Z</time></trkpt><trkpt lat="45.93793008596546" lon="11.725163864679919"><ele>224.0</ele><time>2026-04-17T12:55:51Z</time></trkpt><trkpt lat="45.93769380060165" lon="11.72514164348848"><ele>224.0</ele><time>2026-04-17T12:55:52Z</time></trkpt><trkpt lat="45.937469308900674" lon="11.72512470242253"><ele>224.0</ele><time>2026-04-17T12:55:53Z</time></trkpt><trkpt lat="45.93724467502606" lon="11.725118835036143"><ele>224.0</ele><time>2026-04-17T12:55:54Z</time></trkpt><trkpt lat="45.93701678239648" lon="11.725126879727206"><ele>224.0</ele><time>2026-04-17T12:55:55Z</time></trkpt><trkpt lat="45.93678754661339" lon="11.725160238493896"><ele>224.0</ele><time>2026-04-17T12:55:56Z</time></trkpt><trkpt lat="45.936562626869076" lon="11.725212524849953"><ele>224.0</ele><time>2026-04-17T12:55:57Z</time></trkpt><trkpt lat="45.936339794040514" lon="11.725274681358384"><ele>224.0</ele><time>2026-04-17T12:55:58Z</time></trkpt><trkpt lat="45.93611339344486" lon="11.725337329011776"><ele>224.0</ele><time>2026-04-17T12:55:59Z</time></trkpt><trkpt lat="45.935874502898216" lon="11.72539674317824"><ele>224.0</ele><time>2026-04-17T12:56:00Z</time></trkpt><trkpt lat="45.93563303642462" lon="11.725454773461006"><ele>224.0</ele><time>2026-04-17T12:56:01Z</time></trkpt><trkpt lat="45.93541712376565" lon="11.725512905489142"><ele>224.0</ele><time>2026-04-17T12:56:02Z</time></trkpt><trkpt lat="45.93521182030027" lon="11.725567690084125"><ele>224.0</ele><time>2026-04-17T12:56:03Z</time></trkpt><trkpt lat="45.935013184517295" lon="11.7256215167174"><ele>224.0</ele><time>2026-04-17T12:56:04Z</time></trkpt><trkpt lat="45.93481755345627" lon="11.725677432603584"><ele>224.0</ele><time>2026-04-17T12:56:05Z</time></trkpt><trkpt lat="45.93462171007449" lon="11.725734559088119"><ele>224.0</ele><time>2026-04-17T12:56:06Z</time></trkpt><trkpt lat="45.934433235118355" lon="11.725795145362323"><ele>224.0</ele><time>2026-04-17T12:56:07Z</time></trkpt><trkpt lat="45.93424996148503" lon="11.725869747935278"><ele>224.0</ele><time>2026-04-17T12:56:08Z</time></trkpt><trkpt lat="45.93407814901584" lon="11.725945890780201"><ele>224.0</ele><time>2026-04-17T12:56:09Z</time></trkpt><trkpt lat="45.93392021350226" lon="11.726020298145514"><ele>224.0</ele><time>2026-04-17T12:56:10Z</time></trkpt><trkpt lat="45.93377362279682" lon="11.726094006577526"><ele>224.0</ele><time>2026-04-17T12:56:11Z</time></trkpt><trkpt lat="45.93363722300916" lon="11.726169697376502"><ele>224.0</ele><time>2026-04-17T12:56:12Z</time></trkpt><trkpt lat="45.93352021121234" lon="11.726230315479244"><ele>224.0</ele><time>2026-04-17T12:56:13Z</time></trkpt><trkpt lat="45.93341313277044" lon="11.72627365929546"><ele>219.2</ele><time>2026-04-17T12:56:14Z</time></trkpt><trkpt lat="45.93331541529706" lon="11.726297482688453"><ele>214.39999999999998</ele><time>2026-04-17T12:56:15Z</time></trkpt><trkpt lat="45.93322642573342" lon="11.726325155233702"><ele>209.6</ele><time>2026-04-17T12:56:16Z</time></trkpt><trkpt lat="45.93313792661425" lon="11.726380246675598"><ele>204.8</ele><time>2026-04-17T12:56:17Z</time></trkpt><trkpt lat="45.93302602437826" lon="11.726457059595589"><ele>200.0</ele><time>2026-04-17T12:56:18Z</time></trkpt><trkpt lat="45.932882345068535" lon="11.72654192742053"><ele>200.0</ele><time>2026-04-17T12:56:19Z</time></trkpt><trkpt lat="45.93270870164817" lon="11.726642706427425"><ele>200.0</ele><time>2026-04-17T12:56:20Z</time></trkpt><trkpt lat="45.932522775807946" lon="11.72675486865441"><ele>200.0</ele><time>2026-04-17T12:56:21Z</time></trkpt><trkpt lat="45.932359224502335" lon="11.726853806544323"><ele>230.75</ele><time>2026-04-17T12:56:22Z</time></trkpt><trkpt lat="45.93220810991754" lon="11.726947175256868"><ele>261.5</ele><time>2026-04-17T12:56:23Z</time></trkpt><trkpt lat="45.932073884935505" lon="11.727024467341503"><ele>292.25</ele><time>2026-04-17T12:56:24Z</time></trkpt><trkpt lat="45.93197779782186" lon="11.727086433858878"><ele>323.0</ele><time>2026-04-17T12:56:25Z</time></trkpt><trkpt lat="45.93191136766231" lon="11.727152148788988"><ele>323.0</ele><time>2026-04-17T12:56:26Z</time></trkpt><trkpt lat="45.931858487210036" lon="11.727243332066019"><ele>323.0</ele><time>2026-04-17T12:56:27Z</time></trkpt><trkpt lat="45.93183575487401" lon="11.727346608363277"><ele>323.0</ele><time>2026-04-17T12:56:28Z</time></trkpt><trkpt lat="45.9318148657454" lon="11.727452313987888"><ele>323.0</ele><time>2026-04-17T12:56:29Z</time></trkpt><trkpt lat="45.93179579337808" lon="11.727543594732339"><ele>323.0</ele><time>2026-04-17T12:56:30Z</time></trkpt><trkpt lat="45.931764118825086" lon="11.727658201845495"><ele>323.0</ele><time>2026-04-17T12:56:32Z</time></trkpt><trkpt lat="45.93174717033041" lon="11.727747269676943"><ele>323.0</ele><time>2026-04-17T12:56:34Z</time></trkpt><trkpt lat="45.93188267195939" lon="11.72782108958027"><ele>323.0</ele><time>2026-04-17T12:56:38Z</time></trkpt><trkpt lat="45.93194664295401" lon="11.72774454598542"><ele>323.0</ele><time>2026-04-17T12:56:39Z</time></trkpt><trkpt lat="45.93204725731857" lon="11.727674833728367"><ele>323.0</ele><time>2026-04-17T12:56:40Z</time></trkpt><trkpt lat="45.93215170669156" lon="11.727610067661875"><ele>323.0</ele><time>2026-04-17T12:56:41Z</time></trkpt><trkpt lat="45.93228391339217" lon="11.72750989415074"><ele>323.0</ele><time>2026-04-17T12:56:42Z</time></trkpt><trkpt lat="45.93244277416978" lon="11.727374880030096"><ele>323.0</ele><time>2026-04-17T12:56:43Z</time></trkpt><trkpt lat="45.93258428351754" lon="11.727220232794544"><ele>364.0</ele><time>2026-04-17T12:56:44Z</time></trkpt><trkpt lat="45.9327568824205" lon="11.727092855487244"><ele>405.0</ele><time>2026-04-17T12:56:45Z</time></trkpt><trkpt lat="45.93291586598202" lon="11.726955677739742"><ele>446.0</ele><time>2026-04-17T12:56:46Z</time></trkpt><trkpt lat="45.933068092441374" lon="11.726816121957137"><ele>364.0</ele><time>2026-04-17T12:56:47Z</time></trkpt><trkpt lat="45.933211382951" lon="11.726684781734582"><ele>282.0</ele><time>2026-04-17T12:56:48Z</time></trkpt><trkpt lat="45.93334275558336" lon="11.726566451122626"><ele>200.0</ele><time>2026-04-17T12:56:49Z</time></trkpt><trkpt lat="45.933467912570165" lon="11.72646620285876"><ele>200.0</ele><time>2026-04-17T12:56:50Z</time></trkpt><trkpt lat="45.93356248204703" lon="11.726340404287798"><ele>200.0</ele><time>2026-04-17T12:56:51Z</time></trkpt><trkpt lat="45.93371137619372" lon="11.726275590371408"><ele>200.0</ele><time>2026-04-17T12:56:52Z</time></trkpt><trkpt lat="45.93387197756167" lon="11.726156877329018"><ele>200.0</ele><time>2026-04-17T12:56:53Z</time></trkpt><trkpt lat="45.934051941517666" lon="11.726052395878735"><ele>200.0</ele><time>2026-04-17T12:56:54Z</time></trkpt><trkpt lat="45.934254883028615" lon="11.725965530002975"><ele>200.0</ele><time>2026-04-17T12:56:55Z</time></trkpt><trkpt lat="45.93448739108263" lon="11.72587572659933"><ele>200.0</ele><time>2026-04-17T12:56:56Z</time></trkpt><trkpt lat="45.934735855977436" lon="11.725789419128468"><ele>200.0</ele><time>2026-04-17T12:56:57Z</time></trkpt><trkpt lat="45.9349866227484" lon="11.725711471534538"><ele>200.0</ele><time>2026-04-17T12:56:58Z</time></trkpt><trkpt lat="45.93525589212023" lon="11.72563340700155"><ele>200.0</ele><time>2026-04-17T12:56:59Z</time></trkpt><trkpt lat="45.93553155670792" lon="11.725560122113228"><ele>200.0</ele><time>2026-04-17T12:57:00Z</time></trkpt><trkpt lat="45.93581395807384" lon="11.725498348304601"><ele>200.0</ele><time>2026-04-17T12:57:01Z</time></trkpt><trkpt lat="45.936092932708256" lon="11.72542615698743"><ele>200.0</ele><time>2026-04-17T12:57:02Z</time></trkpt><trkpt lat="45.93636538696903" lon="11.725343730507118"><ele>200.0</ele><time>2026-04-17T12:57:03Z</time></trkpt><trkpt lat="45.936605866848005" lon="11.725276396603219"><ele>200.0</ele><time>2026-04-17T12:57:04Z</time></trkpt><trkpt lat="45.936825913553655" lon="11.725219002682831"><ele>200.0</ele><time>2026-04-17T12:57:05Z</time></trkpt><trkpt lat="45.93704737029962" lon="11.72517501133412"><ele>200.0</ele><time>2026-04-17T12:57:06Z</time></trkpt><trkpt lat="45.937271632395614" lon="11.72516093621109"><ele>200.0</ele><time>2026-04-17T12:57:07Z</time></trkpt><trkpt lat="45.937515167412506" lon="11.725171914992218"><ele>200.0</ele><time>2026-04-17T12:57:08Z</time></trkpt><trkpt lat="45.937784500454555" lon="11.725198323176338"><ele>200.0</ele><time>2026-04-17T12:57:09Z</time></trkpt><trkpt lat="45.938067102906516" lon="11.72522779342831"><ele>200.0</ele><time>2026-04-17T12:57:10Z</time></trkpt><trkpt lat="45.93837211732248" lon="11.725257990256718"><ele>200.0</ele><time>2026-04-17T12:57:11Z</time></trkpt><trkpt lat="45.93865212383742" lon="11.725282600789692"><ele>200.0</ele><time>2026-04-17T12:57:12Z</time></trkpt><trkpt lat="45.93893659872018" lon="11.725308045128717"><ele>200.0</ele><time>2026-04-17T12:57:13Z</time></trkpt><trkpt lat="45.93924308678096" lon="11.725332157054599"><ele>200.0</ele><time>2026-04-17T12:57:14Z</time></trkpt><trkpt lat="45.93955611766692" lon="11.725358866024012"><ele>200.0</ele><time>2026-04-17T12:57:15Z</time></trkpt><trkpt lat="45.93986505544662" lon="11.725385972981165"><ele>200.0</ele><time>2026-04-17T12:57:16Z</time></trkpt><trkpt lat="45.94014966507643" lon="11.725409099754557"><ele>200.0</ele><time>2026-04-17T12:57:17Z</time></trkpt><trkpt lat="45.94041158082811" lon="11.725433434860538"><ele>200.0</ele><time>2026-04-17T12:57:18Z</time></trkpt><trkpt lat="45.940642597613326" lon="11.725477006935341"><ele>212.0</ele><time>2026-04-17T12:57:19Z</time></trkpt><trkpt lat="45.94088611890602" lon="11.725558326528434"><ele>224.0</ele><time>2026-04-17T12:57:20Z</time></trkpt><trkpt lat="45.941159266440756" lon="11.725661279485294"><ele>224.0</ele><time>2026-04-17T12:57:21Z</time></trkpt><trkpt lat="45.94144969856891" lon="11.725782246472619"><ele>224.0</ele><time>2026-04-17T12:57:22Z</time></trkpt><trkpt lat="45.94176151325779" lon="11.725918260150364"><ele>223.0</ele><time>2026-04-17T12:57:23Z</time></trkpt><trkpt lat="45.942029505556434" lon="11.726039516952484"><ele>222.0</ele><time>2026-04-17T12:57:24Z</time></trkpt><trkpt lat="45.94233112006372" lon="11.72616957127199"><ele>222.0</ele><time>2026-04-17T12:57:25Z</time></trkpt><trkpt lat="45.942645965719834" lon="11.72628884166689"><ele>222.0</ele><time>2026-04-17T12:57:26Z</time></trkpt><trkpt lat="45.94291471568397" lon="11.726399866665465"><ele>222.0</ele><time>2026-04-17T12:57:27Z</time></trkpt><trkpt lat="45.94317219357518" lon="11.726509496623457"><ele>222.0</ele><time>2026-04-17T12:57:28Z</time></trkpt><trkpt lat="45.94341686179526" lon="11.726610891222622"><ele>222.0</ele><time>2026-04-17T12:57:29Z</time></trkpt><trkpt lat="45.94367044233969" lon="11.726713533658861"><ele>222.0</ele><time>2026-04-17T12:57:30Z</time></trkpt><trkpt lat="45.943905561183094" lon="11.726794343418339"><ele>222.0</ele><time>2026-04-17T12:57:31Z</time></trkpt><trkpt lat="45.94413976091982" lon="11.726850980704654"><ele>222.0</ele><time>2026-04-17T12:57:32Z</time></trkpt><trkpt lat="45.944374978610306" lon="11.726872570482204"><ele>222.0</ele><time>2026-04-17T12:57:33Z</time></trkpt><trkpt lat="45.94461719782157" lon="11.726869176179179"><ele>222.0</ele><time>2026-04-17T12:57:34Z</time></trkpt><trkpt lat="45.944873397308754" lon="11.726833781834328"><ele>222.0</ele><time>2026-04-17T12:57:35Z</time></trkpt><trkpt lat="45.94514871637122" lon="11.726777139105732"><ele>222.0</ele><time>2026-04-17T12:57:36Z</time></trkpt><trkpt lat="45.945435908951" lon="11.726715401956131"><ele>222.0</ele><time>2026-04-17T12:57:37Z</time></trkpt><trkpt lat="45.94572967818853" lon="11.726648216069293"><ele>222.0</ele><time>2026-04-17T12:57:38Z</time></trkpt><trkpt lat="45.946026978542335" lon="11.72658668319254"><ele>222.0</ele><time>2026-04-17T12:57:39Z</time></trkpt><trkpt lat="45.9463242485307" lon="11.726554696440541"><ele>222.0</ele><time>2026-04-17T12:57:40Z</time></trkpt><trkpt lat="45.94660111365373" lon="11.726482896623764"><ele>222.0</ele><time>2026-04-17T12:57:41Z</time></trkpt><trkpt lat="45.946880420373624" lon="11.726393454625125"><ele>222.0</ele><time>2026-04-17T12:57:42Z</time></trkpt><trkpt lat="45.9471781737685" lon="11.72627825560009"><ele>290.0</ele><time>2026-04-17T12:57:43Z</time></trkpt><trkpt lat="45.94749251591275" lon="11.726135678657101"><ele>358.0</ele><time>2026-04-17T12:57:44Z</time></trkpt><trkpt lat="45.947789416239395" lon="11.725996075564444"><ele>358.0</ele><time>2026-04-17T12:57:45Z</time></trkpt><trkpt lat="45.948068882403525" lon="11.725853235592774"><ele>358.0</ele><time>2026-04-17T12:57:46Z</time></trkpt><trkpt lat="45.94834755839387" lon="11.725674496291852"><ele>363.0</ele><time>2026-04-17T12:57:47Z</time></trkpt><trkpt lat="45.94863108440814" lon="11.725479789726059"><ele>368.0</ele><time>2026-04-17T12:57:48Z</time></trkpt><trkpt lat="45.94892853603929" lon="11.725282819003016"><ele>377.5</ele><time>2026-04-17T12:57:49Z</time></trkpt><trkpt lat="45.94923974728155" lon="11.725101998704337"><ele>387.0</ele><time>2026-04-17T12:57:50Z</time></trkpt><trkpt lat="45.949530065047995" lon="11.724927489395524"><ele>387.0</ele><time>2026-04-17T12:57:51Z</time></trkpt><trkpt lat="45.94981691567881" lon="11.724775341042301"><ele>387.0</ele><time>2026-04-17T12:57:52Z</time></trkpt><trkpt lat="45.95010688959069" lon="11.724622624155497"><ele>385.5</ele><time>2026-04-17T12:57:53Z</time></trkpt><trkpt lat="45.95037865504291" lon="11.724473290054261"><ele>384.0</ele><time>2026-04-17T12:57:54Z</time></trkpt><trkpt lat="45.950633848091016" lon="11.724336941803491"><ele>366.5</ele><time>2026-04-17T12:57:55Z</time></trkpt><trkpt lat="45.950870911035445" lon="11.724203629331361"><ele>349.0</ele><time>2026-04-17T12:57:56Z</time></trkpt><trkpt lat="45.95109049825237" lon="11.724073591587436"><ele>349.0</ele><time>2026-04-17T12:57:57Z</time></trkpt><trkpt lat="45.95128289217432" lon="11.723957457215635"><ele>349.0</ele><time>2026-04-17T12:57:58Z</time></trkpt><trkpt lat="45.951465788964015" lon="11.723829600715229"><ele>349.0</ele><time>2026-04-17T12:57:59Z</time></trkpt><trkpt lat="45.95163810834019" lon="11.723666169940836"><ele>329.5</ele><time>2026-04-17T12:58:00Z</time></trkpt><trkpt lat="45.951814801154995" lon="11.723459372303221"><ele>310.0</ele><time>2026-04-17T12:58:01Z</time></trkpt><trkpt lat="45.952003295263" lon="11.723212194413493"><ele>310.0</ele><time>2026-04-17T12:58:02Z</time></trkpt><trkpt lat="45.95219166397585" lon="11.722949176255343"><ele>310.0</ele><time>2026-04-17T12:58:03Z</time></trkpt><trkpt lat="45.95238109667537" lon="11.722664877376623"><ele>287.0</ele><time>2026-04-17T12:58:04Z</time></trkpt><trkpt lat="45.952554415894674" lon="11.722391760682306"><ele>264.0</ele><time>2026-04-17T12:58:05Z</time></trkpt><trkpt lat="45.95270880801339" lon="11.72213857553779"><ele>264.0</ele><time>2026-04-17T12:58:06Z</time></trkpt><trkpt lat="45.95283861372926" lon="11.721926017431537"><ele>264.0</ele><time>2026-04-17T12:58:07Z</time></trkpt><trkpt lat="45.95293873255597" lon="11.721763183720547"><ele>264.0</ele><time>2026-04-17T12:58:08Z</time></trkpt><trkpt lat="45.95301166643486" lon="11.721640034560737"><ele>267.59999999999997</ele><time>2026-04-17T12:58:09Z</time></trkpt><trkpt lat="45.95307785909091" lon="11.721532860609853"><ele>271.2</ele><time>2026-04-17T12:58:10Z</time></trkpt><trkpt lat="45.95314297635809" lon="11.721443261864467"><ele>274.79999999999995</ele><time>2026-04-17T12:58:11Z</time></trkpt><trkpt lat="45.95320850885422" lon="11.721381009724256"><ele>278.4</ele><time>2026-04-17T12:58:12Z</time></trkpt><trkpt lat="45.953271739146096" lon="11.72134191015411"><ele>282.0</ele><time>2026-04-17T12:58:13Z</time></trkpt><trkpt lat="45.95339548755337" lon="11.721296205107771"><ele>282.0</ele><time>2026-04-17T12:58:15Z</time></trkpt><trkpt lat="45.9534635332542" lon="11.72128797719784"><ele>282.0</ele><time>2026-04-17T12:58:16Z</time></trkpt><trkpt lat="45.953538233871285" lon="11.7212894840485"><ele>282.0</ele><time>2026-04-17T12:58:17Z</time></trkpt><trkpt lat="45.95361395639255" lon="11.721305030367889"><ele>282.0</ele><time>2026-04-17T12:58:18Z</time></trkpt><trkpt lat="45.95372054106412" lon="11.721367661569301"><ele>282.0</ele><time>2026-04-17T12:58:20Z</time></trkpt><trkpt lat="45.95382392214286" lon="11.72147117300876"><ele>282.0</ele><time>2026-04-17T12:58:22Z</time></trkpt><trkpt lat="45.953875876844" lon="11.721548060644169"><ele>282.0</ele><time>2026-04-17T12:58:23Z</time></trkpt><trkpt lat="45.953935185132295" lon="11.721657091807511"><ele>282.0</ele><time>2026-04-17T12:58:24Z</time></trkpt><trkpt lat="45.95401651252001" lon="11.721812171211145"><ele>282.0</ele><time>2026-04-17T12:58:25.016Z</time></trkpt><trkpt lat="45.95409723367667" lon="11.72202895520573"><ele>282.0</ele><time>2026-04-17T12:58:26.016Z</time></trkpt><trkpt lat="45.954015677559994" lon="11.721848674746761"><ele>282.0</ele><time>2026-04-17T12:58:27.016Z</time></trkpt><trkpt lat="45.95405163871025" lon="11.721928167180472"><ele>282.0</ele><time>2026-04-17T12:58:28.016Z</time></trkpt><trkpt lat="45.954087551865435" lon="11.722007553462076"><ele>282.0</ele><time>2026-04-17T12:58:29.016Z</time></trkpt><trkpt lat="45.95412339958932" lon="11.722086795110185"><ele>282.0</ele><time>2026-04-17T12:58:30.015Z</time></trkpt><trkpt lat="45.95524744696865" lon="11.724500362980475"><ele>455.0</ele><time>2026-04-17T12:58:33.838Z</time></trkpt><trkpt lat="45.95554407470986" lon="11.725147138692217"><ele>481.0</ele><time>2026-04-17T12:58:34.838Z</time></trkpt><trkpt lat="45.955839505747356" lon="11.72579438883592"><ele>538.0</ele><time>2026-04-17T12:58:35.837Z</time></trkpt><trkpt lat="45.956137358989935" lon="11.726440975199058"><ele>538.0</ele><time>2026-04-17T12:58:36.839Z</time></trkpt><trkpt lat="45.9562057" lon="11.7265875"><ele>538.0</ele><time>2026-04-17T12:58:37.838Z</time></trkpt><trkpt lat="45.96899750181098" lon="11.754630384977679"><ele>413.0</ele><time>2026-04-17T13:00:18.999Z</time></trkpt><trkpt lat="45.96910875834305" lon="11.7548629413921"><ele>288.0</ele><time>2026-04-17T13:00:19.999Z</time></trkpt><trkpt lat="45.969317748188914" lon="11.75515445667345"><ele>286.0</ele><time>2026-04-17T13:00:20.999Z</time></trkpt><trkpt lat="45.9694330797698" lon="11.755488081845764"><ele>284.0</ele><time>2026-04-17T13:00:21.999Z</time></trkpt><trkpt lat="45.96958703974266" lon="11.755824101125134"><ele>283.0</ele><time>2026-04-17T13:00:22.999Z</time></trkpt><trkpt lat="45.96975039102665" lon="11.756179753629072"><ele>282.0</ele><time>2026-04-17T13:00:23.999Z</time></trkpt><trkpt lat="45.96992803093041" lon="11.756563216709571"><ele>283.3333333333333</ele><time>2026-04-17T13:00:25Z</time></trkpt><trkpt lat="45.97008155467037" lon="11.756883751594223"><ele>284.66666666666663</ele><time>2026-04-17T13:00:26Z</time></trkpt><trkpt lat="45.97016581094864" lon="11.757056760220596"><ele>286.0</ele><time>2026-04-17T13:00:27Z</time></trkpt><trkpt lat="45.97028854082108" lon="11.757241037014339"><ele>286.0</ele><time>2026-04-17T13:00:28Z</time></trkpt><trkpt lat="45.9704049673159" lon="11.757441990832064"><ele>286.0</ele><time>2026-04-17T13:00:29Z</time></trkpt><trkpt lat="45.97063211712039" lon="11.757739692949157"><ele>287.5</ele><time>2026-04-17T13:00:30Z</time></trkpt><trkpt lat="45.970827831412215" lon="11.75796593413184"><ele>289.0</ele><time>2026-04-17T13:00:31Z</time></trkpt><trkpt lat="45.971021710801274" lon="11.758206335753318"><ele>289.3333333333333</ele><time>2026-04-17T13:00:32Z</time></trkpt><trkpt lat="45.97117914168215" lon="11.758318863264856"><ele>289.6666666666667</ele><time>2026-04-17T13:00:33Z</time></trkpt><trkpt lat="45.97138270576645" lon="11.758446978798688"><ele>290.0</ele><time>2026-04-17T13:00:34Z</time></trkpt><trkpt lat="45.9715940355931" lon="11.758554880067"><ele>293.0</ele><time>2026-04-17T13:00:35Z</time></trkpt><trkpt lat="45.971832194667094" lon="11.758662712814694"><ele>296.0</ele><time>2026-04-17T13:00:36Z</time></trkpt><trkpt lat="45.97209113339727" lon="11.758764041056"><ele>296.0</ele><time>2026-04-17T13:00:37Z</time></trkpt><trkpt lat="45.97236999010362" lon="11.758845489451687"><ele>296.0</ele><time>2026-04-17T13:00:38Z</time></trkpt><trkpt lat="45.972663938765734" lon="11.758912607993345"><ele>295.5</ele><time>2026-04-17T13:00:39Z</time></trkpt><trkpt lat="45.97296976574697" lon="11.758962235755897"><ele>295.0</ele><time>2026-04-17T13:00:40Z</time></trkpt><trkpt lat="45.973298355525515" lon="11.75900336925773"><ele>297.5</ele><time>2026-04-17T13:00:41Z</time></trkpt><trkpt lat="45.9736414174733" lon="11.759047453459322"><ele>300.0</ele><time>2026-04-17T13:00:42Z</time></trkpt><trkpt lat="45.97399737261121" lon="11.759090947278777"><ele>297.0</ele><time>2026-04-17T13:00:43Z</time></trkpt><trkpt lat="45.97436542418064" lon="11.759138698342065"><ele>294.0</ele><time>2026-04-17T13:00:44Z</time></trkpt><trkpt lat="45.97474419619966" lon="11.759187984463392"><ele>293.0</ele><time>2026-04-17T13:00:45Z</time></trkpt><trkpt lat="45.975133476808246" lon="11.759244333316062"><ele>292.0</ele><time>2026-04-17T13:00:46Z</time></trkpt><trkpt lat="45.975510701187595" lon="11.759299818495606"><ele>292.0</ele><time>2026-04-17T13:00:47Z</time></trkpt><trkpt lat="45.975850687359426" lon="11.759345005726365"><ele>292.0</ele><time>2026-04-17T13:00:48Z</time></trkpt><trkpt lat="45.9761633159307" lon="11.759393692716216"><ele>298.0</ele><time>2026-04-17T13:00:49Z</time></trkpt><trkpt lat="45.97645745387892" lon="11.759436897192574"><ele>304.0</ele><time>2026-04-17T13:00:50Z</time></trkpt><trkpt lat="45.97674393913776" lon="11.759486770296283"><ele>304.0</ele><time>2026-04-17T13:00:51Z</time></trkpt><trkpt lat="45.97701265140145" lon="11.759542981720212"><ele>304.0</ele><time>2026-04-17T13:00:52Z</time></trkpt><trkpt lat="45.97726295511822" lon="11.759601730531823"><ele>304.0</ele><time>2026-04-17T13:00:53Z</time></trkpt><trkpt lat="45.97748869651519" lon="11.75969818520648"><ele>304.0</ele><time>2026-04-17T13:00:54Z</time></trkpt><trkpt lat="45.97769639460392" lon="11.759765048080762"><ele>304.0</ele><time>2026-04-17T13:00:55Z</time></trkpt><trkpt lat="45.97791429332675" lon="11.759882294477507"><ele>302.66666666666663</ele><time>2026-04-17T13:00:56Z</time></trkpt><trkpt lat="45.97812990243481" lon="11.760009095072455"><ele>301.3333333333333</ele><time>2026-04-17T13:00:57Z</time></trkpt><trkpt lat="45.978302290307376" lon="11.760144356034663"><ele>300.0</ele><time>2026-04-17T13:00:58Z</time></trkpt><trkpt lat="45.9784412520289" lon="11.760267874623352"><ele>300.0</ele><time>2026-04-17T13:00:59Z</time></trkpt><trkpt lat="45.97855777058829" lon="11.760375580941037"><ele>300.0</ele><time>2026-04-17T13:01:00Z</time></trkpt><trkpt lat="45.97866404567218" lon="11.76049189045415"><ele>300.0</ele><time>2026-04-17T13:01:01Z</time></trkpt><trkpt lat="45.97878716008646" lon="11.76061596934987"><ele>300.0</ele><time>2026-04-17T13:01:02Z</time></trkpt><trkpt lat="45.97888914892823" lon="11.760751206349623"><ele>300.0</ele><time>2026-04-17T13:01:03Z</time></trkpt><trkpt lat="45.97899593295185" lon="11.760898754298912"><ele>300.0</ele><time>2026-04-17T13:01:04Z</time></trkpt><trkpt lat="45.97911164899325" lon="11.761068061513951"><ele>300.0</ele><time>2026-04-17T13:01:05Z</time></trkpt><trkpt lat="45.97923206848083" lon="11.761268850601516"><ele>301.0</ele><time>2026-04-17T13:01:06Z</time></trkpt><trkpt lat="45.97936326202607" lon="11.761513611569029"><ele>302.0</ele><time>2026-04-17T13:01:07Z</time></trkpt><trkpt lat="45.979505337606014" lon="11.761782596644515"><ele>303.0</ele><time>2026-04-17T13:01:08Z</time></trkpt><trkpt lat="45.97962028051371" lon="11.76205065490523"><ele>304.0</ele><time>2026-04-17T13:01:09Z</time></trkpt><trkpt lat="45.9797276035956" lon="11.762351854110166"><ele>304.0</ele><time>2026-04-17T13:01:10Z</time></trkpt><trkpt lat="45.97982010486798" lon="11.762684475698146"><ele>304.0</ele><time>2026-04-17T13:01:11Z</time></trkpt><trkpt lat="45.979894972303924" lon="11.763025472869911"><ele>305.5</ele><time>2026-04-17T13:01:12Z</time></trkpt><trkpt lat="45.979955454816285" lon="11.763353995289059"><ele>307.0</ele><time>2026-04-17T13:01:13Z</time></trkpt><trkpt lat="45.9800063451214" lon="11.763691097082475"><ele>309.0</ele><time>2026-04-17T13:01:14Z</time></trkpt><trkpt lat="45.980042012551806" lon="11.764050908775916"><ele>311.0</ele><time>2026-04-17T13:01:15Z</time></trkpt><trkpt lat="45.98005934916988" lon="11.764434445594693"><ele>313.0</ele><time>2026-04-17T13:01:16Z</time></trkpt><trkpt lat="45.98006826657077" lon="11.764835153858586"><ele>315.0</ele><time>2026-04-17T13:01:17Z</time></trkpt><trkpt lat="45.980075457572596" lon="11.765263183614179"><ele>315.5</ele><time>2026-04-17T13:01:18Z</time></trkpt><trkpt lat="45.98009019015386" lon="11.765692362001548"><ele>316.0</ele><time>2026-04-17T13:01:19Z</time></trkpt><trkpt lat="45.9801045514889" lon="11.766110725579983"><ele>314.5</ele><time>2026-04-17T13:01:20.023Z</time></trkpt><trkpt lat="45.98011888603581" lon="11.766520060033077"><ele>313.0</ele><time>2026-04-17T13:01:21.018Z</time></trkpt><trkpt lat="45.980132643132784" lon="11.766926230007293"><ele>312.5</ele><time>2026-04-17T13:01:22.018Z</time></trkpt><trkpt lat="45.980147291252564" lon="11.767337852276247"><ele>312.0</ele><time>2026-04-17T13:01:23.034Z</time></trkpt><trkpt lat="45.98016098536838" lon="11.76772694432839"><ele>311.0</ele><time>2026-04-17T13:01:24Z</time></trkpt><trkpt lat="45.9801801333087" lon="11.768250829679202"><ele>310.0</ele><time>2026-04-17T13:01:25Z</time></trkpt><trkpt lat="45.98021143811618" lon="11.768691650707527"><ele>307.5</ele><time>2026-04-17T13:01:26Z</time></trkpt><trkpt lat="45.9802227081889" lon="11.769105888042583"><ele>305.0</ele><time>2026-04-17T13:01:27Z</time></trkpt><trkpt lat="45.98023430332455" lon="11.769494030707538"><ele>302.0</ele><time>2026-04-17T13:01:28Z</time></trkpt><trkpt lat="45.98024781470214" lon="11.769855716126173"><ele>299.0</ele><time>2026-04-17T13:01:29Z</time></trkpt><trkpt lat="45.980260174357674" lon="11.770208694171421"><ele>294.5</ele><time>2026-04-17T13:01:30Z</time></trkpt><trkpt lat="45.98026811762398" lon="11.770546569259512"><ele>290.0</ele><time>2026-04-17T13:01:31Z</time></trkpt><trkpt lat="45.980272184220254" lon="11.77087184256077"><ele>288.0</ele><time>2026-04-17T13:01:32Z</time></trkpt><trkpt lat="45.98024466202999" lon="11.771197837810954"><ele>286.0</ele><time>2026-04-17T13:01:33Z</time></trkpt><trkpt lat="45.98021857156385" lon="11.771537919807603"><ele>284.5</ele><time>2026-04-17T13:01:34Z</time></trkpt><trkpt lat="45.98017915021188" lon="11.771883126361757"><ele>283.0</ele><time>2026-04-17T13:01:35Z</time></trkpt><trkpt lat="45.980153773946" lon="11.772233840570797"><ele>283.0</ele><time>2026-04-17T13:01:36Z</time></trkpt><trkpt lat="45.980112873463625" lon="11.772561782778094"><ele>283.0</ele><time>2026-04-17T13:01:37Z</time></trkpt><trkpt lat="45.980080357066946" lon="11.772877624560794"><ele>280.3333333333333</ele><time>2026-04-17T13:01:38Z</time></trkpt><trkpt lat="45.98006008213966" lon="11.773171300636658"><ele>277.6666666666667</ele><time>2026-04-17T13:01:39Z</time></trkpt><trkpt lat="45.98004863634975" lon="11.773464230936797"><ele>275.0</ele><time>2026-04-17T13:01:40Z</time></trkpt><trkpt lat="45.980056880403275" lon="11.773766968860564"><ele>274.33333333333337</ele><time>2026-04-17T13:01:41Z</time></trkpt><trkpt lat="45.98007722831238" lon="11.77407754238124"><ele>273.6666666666667</ele><time>2026-04-17T13:01:42Z</time></trkpt><trkpt lat="45.98010424345739" lon="11.774380686016718"><ele>273.0</ele><time>2026-04-17T13:01:43Z</time></trkpt><trkpt lat="45.980146958721846" lon="11.774667254414517"><ele>273.0</ele><time>2026-04-17T13:01:44Z</time></trkpt><trkpt lat="45.98018411384883" lon="11.774951676965113"><ele>273.0</ele><time>2026-04-17T13:01:45Z</time></trkpt><trkpt lat="45.98026467812869" lon="11.775236856504891"><ele>273.0</ele><time>2026-04-17T13:01:46Z</time></trkpt><trkpt lat="45.98034163284374" lon="11.77553228070079"><ele>273.0</ele><time>2026-04-17T13:01:47Z</time></trkpt><trkpt lat="45.98043308318845" lon="11.775848127795111"><ele>273.0</ele><time>2026-04-17T13:01:48Z</time></trkpt><trkpt lat="45.98056476398732" lon="11.776195364044613"><ele>271.5</ele><time>2026-04-17T13:01:49Z</time></trkpt><trkpt lat="45.98071802571968" lon="11.776561381778222"><ele>270.0</ele><time>2026-04-17T13:01:50Z</time></trkpt><trkpt lat="45.98086825500483" lon="11.77692311191609"><ele>288.0</ele><time>2026-04-17T13:01:51Z</time></trkpt><trkpt lat="45.981026161647286" lon="11.777305332450853"><ele>306.0</ele><time>2026-04-17T13:01:52Z</time></trkpt><trkpt lat="45.98119207372058" lon="11.777662805573163"><ele>309.5</ele><time>2026-04-17T13:01:53Z</time></trkpt><trkpt lat="45.981326473138076" lon="11.777991818858604"><ele>313.0</ele><time>2026-04-17T13:01:54Z</time></trkpt><trkpt lat="45.98143964438168" lon="11.778317174346032"><ele>312.5</ele><time>2026-04-17T13:01:55Z</time></trkpt><trkpt lat="45.98156708487955" lon="11.778639512803704"><ele>312.0</ele><time>2026-04-17T13:01:56Z</time></trkpt><trkpt lat="45.981691256302824" lon="11.77897360005955"><ele>338.0</ele><time>2026-04-17T13:01:57.019Z</time></trkpt><trkpt lat="45.98180264089819" lon="11.779299484034437"><ele>364.0</ele><time>2026-04-17T13:01:58.016Z</time></trkpt><trkpt lat="45.98190544980524" lon="11.779632496560932"><ele>364.0</ele><time>2026-04-17T13:01:59.023Z</time></trkpt><trkpt lat="45.98199775653067" lon="11.779956818804758"><ele>364.0</ele><time>2026-04-17T13:02:00.016Z</time></trkpt><trkpt lat="45.982518056450395" lon="11.782221179466491"><ele>316.5</ele><time>2026-04-17T13:02:05Z</time></trkpt><trkpt lat="45.98262307182702" lon="11.78264218739811"><ele>269.0</ele><time>2026-04-17T13:02:06Z</time></trkpt><trkpt lat="45.98275651466426" lon="11.782997953736754"><ele>269.0</ele><time>2026-04-17T13:02:07Z</time></trkpt><trkpt lat="45.9828810703646" lon="11.7832719159244"><ele>269.0</ele><time>2026-04-17T13:02:08Z</time></trkpt><trkpt lat="45.983009659796714" lon="11.783547371655002"><ele>269.0</ele><time>2026-04-17T13:02:09Z</time></trkpt><trkpt lat="45.98315828625312" lon="11.783850917077642"><ele>269.0</ele><time>2026-04-17T13:02:10Z</time></trkpt><trkpt lat="45.98335633194085" lon="11.784136894594628"><ele>269.0</ele><time>2026-04-17T13:02:11Z</time></trkpt><trkpt lat="45.98354345930807" lon="11.784416128959302"><ele>269.0</ele><time>2026-04-17T13:02:12Z</time></trkpt><trkpt lat="45.98374830761458" lon="11.784673477430884"><ele>269.0</ele><time>2026-04-17T13:02:13Z</time></trkpt><trkpt lat="45.983961211473655" lon="11.784897653734209"><ele>269.0</ele><time>2026-04-17T13:02:14Z</time></trkpt><trkpt lat="45.984178245023855" lon="11.78509558225904"><ele>269.5</ele><time>2026-04-17T13:02:15Z</time></trkpt><trkpt lat="45.9844048814329" lon="11.785270143842194"><ele>270.0</ele><time>2026-04-17T13:02:16Z</time></trkpt><trkpt lat="45.984656758669324" lon="11.785437118248346"><ele>270.0</ele><time>2026-04-17T13:02:17Z</time></trkpt><trkpt lat="45.984927629219676" lon="11.785603034967474"><ele>270.0</ele><time>2026-04-17T13:02:18Z</time></trkpt><trkpt lat="45.985216518346256" lon="11.785779945488315"><ele>270.0</ele><time>2026-04-17T13:02:19Z</time></trkpt><trkpt lat="45.98550682610757" lon="11.785970826157747"><ele>270.0</ele><time>2026-04-17T13:02:20Z</time></trkpt><trkpt lat="45.985805194916225" lon="11.786163881551047"><ele>271.5</ele><time>2026-04-17T13:02:21Z</time></trkpt><trkpt lat="45.98611312830405" lon="11.786356223814808"><ele>273.0</ele><time>2026-04-17T13:02:22Z</time></trkpt><trkpt lat="45.986427603171094" lon="11.786550045709111"><ele>274.0</ele><time>2026-04-17T13:02:23Z</time></trkpt><trkpt lat="45.98674474351801" lon="11.786751978640705"><ele>275.0</ele><time>2026-04-17T13:02:24Z</time></trkpt><trkpt lat="45.98706613765355" lon="11.786956252899671"><ele>276.0</ele><time>2026-04-17T13:02:25Z</time></trkpt><trkpt lat="45.98738803711237" lon="11.78716567790142"><ele>277.0</ele><time>2026-04-17T13:02:26Z</time></trkpt><trkpt lat="45.98771535558525" lon="11.787375937032003"><ele>278.0</ele><time>2026-04-17T13:02:27Z</time></trkpt><trkpt lat="45.988050902374425" lon="11.787579428554569"><ele>279.0</ele><time>2026-04-17T13:02:28Z</time></trkpt><trkpt lat="45.98835985576862" lon="11.787777371917283"><ele>280.5</ele><time>2026-04-17T13:02:29Z</time></trkpt><trkpt lat="45.98863834387469" lon="11.787961568467955"><ele>282.0</ele><time>2026-04-17T13:02:30Z</time></trkpt><trkpt lat="45.9888995981809" lon="11.788135824326323"><ele>282.0</ele><time>2026-04-17T13:02:31Z</time></trkpt><trkpt lat="45.98914494290592" lon="11.78831260681907"><ele>282.0</ele><time>2026-04-17T13:02:32Z</time></trkpt><trkpt lat="45.989377460100776" lon="11.788480958436175"><ele>286.0</ele><time>2026-04-17T13:02:33Z</time></trkpt><trkpt lat="45.98959303798712" lon="11.78865639976807"><ele>290.0</ele><time>2026-04-17T13:02:34Z</time></trkpt><trkpt lat="45.98978876714819" lon="11.788856299231577"><ele>290.0</ele><time>2026-04-17T13:02:35Z</time></trkpt><trkpt lat="45.98997218312998" lon="11.789086258873901"><ele>290.0</ele><time>2026-04-17T13:02:36Z</time></trkpt><trkpt lat="45.99014674749899" lon="11.78933785824811"><ele>290.5</ele><time>2026-04-17T13:02:37Z</time></trkpt><trkpt lat="45.990328676807636" lon="11.789623776562818"><ele>291.0</ele><time>2026-04-17T13:02:38Z</time></trkpt><trkpt lat="45.990517547580325" lon="11.789924131827128"><ele>288.0</ele><time>2026-04-17T13:02:39Z</time></trkpt><trkpt lat="45.990726294528976" lon="11.790221113652743"><ele>285.0</ele><time>2026-04-17T13:02:40Z</time></trkpt><trkpt lat="45.99095107821071" lon="11.790506736115095"><ele>285.0</ele><time>2026-04-17T13:02:41Z</time></trkpt><trkpt lat="45.99118879812749" lon="11.790786424175062"><ele>285.0</ele><time>2026-04-17T13:02:42Z</time></trkpt><trkpt lat="45.991443967978164" lon="11.791054950080543"><ele>283.5</ele><time>2026-04-17T13:02:43Z</time></trkpt><trkpt lat="45.99170790822257" lon="11.791314386627867"><ele>282.0</ele><time>2026-04-17T13:02:44Z</time></trkpt><trkpt lat="45.9919750303275" lon="11.791564360197402"><ele>282.0</ele><time>2026-04-17T13:02:45Z</time></trkpt><trkpt lat="45.99222745354156" lon="11.791793938635308"><ele>282.0</ele><time>2026-04-17T13:02:46Z</time></trkpt><trkpt lat="45.99246093139106" lon="11.792005974868434"><ele>280.5</ele><time>2026-04-17T13:02:47Z</time></trkpt><trkpt lat="45.992682182325076" lon="11.792226395679632"><ele>279.0</ele><time>2026-04-17T13:02:48Z</time></trkpt><trkpt lat="45.99288305017337" lon="11.79246200366537"><ele>283.0</ele><time>2026-04-17T13:02:49Z</time></trkpt><trkpt lat="45.99307350525282" lon="11.792729926101902"><ele>287.0</ele><time>2026-04-17T13:02:50Z</time></trkpt><trkpt lat="45.99325626247114" lon="11.793032611866957"><ele>284.5</ele><time>2026-04-17T13:02:51Z</time></trkpt><trkpt lat="45.993425063146574" lon="11.79336543064608"><ele>282.0</ele><time>2026-04-17T13:02:52Z</time></trkpt><trkpt lat="45.99358719575819" lon="11.79372455422068"><ele>282.0</ele><time>2026-04-17T13:02:53Z</time></trkpt><trkpt lat="45.99375625363779" lon="11.794101988026545"><ele>282.0</ele><time>2026-04-17T13:02:54Z</time></trkpt><trkpt lat="45.99393767309123" lon="11.794488033904358"><ele>282.5</ele><time>2026-04-17T13:02:55Z</time></trkpt><trkpt lat="45.994125760948734" lon="11.794882966137132"><ele>283.0</ele><time>2026-04-17T13:02:56Z</time></trkpt><trkpt lat="45.994324078939194" lon="11.795275455891511"><ele>283.0</ele><time>2026-04-17T13:02:57Z</time></trkpt><trkpt lat="45.99453079252495" lon="11.795669785044938"><ele>283.0</ele><time>2026-04-17T13:02:58Z</time></trkpt><trkpt lat="45.99474564194392" lon="11.796059040404979"><ele>284.5</ele><time>2026-04-17T13:02:59Z</time></trkpt><trkpt lat="45.994968378596944" lon="11.796447226825473"><ele>286.0</ele><time>2026-04-17T13:03:00Z</time></trkpt><trkpt lat="45.9951921034015" lon="11.796826815762437"><ele>287.0</ele><time>2026-04-17T13:03:01Z</time></trkpt><trkpt lat="45.99541903241791" lon="11.797207534674563"><ele>288.0</ele><time>2026-04-17T13:03:02Z</time></trkpt><trkpt lat="45.99565129473278" lon="11.79758469941558"><ele>287.0</ele><time>2026-04-17T13:03:03Z</time></trkpt><trkpt lat="45.99589256420435" lon="11.797968672623254"><ele>286.0</ele><time>2026-04-17T13:03:04Z</time></trkpt><trkpt lat="45.99612361972558" lon="11.798341498713741"><ele>288.5</ele><time>2026-04-17T13:03:05Z</time></trkpt><trkpt lat="45.99633734344789" lon="11.798675916067959"><ele>291.0</ele><time>2026-04-17T13:03:06Z</time></trkpt><trkpt lat="45.996548436477" lon="11.799016082576221"><ele>293.5</ele><time>2026-04-17T13:03:07Z</time></trkpt><trkpt lat="45.996765995972666" lon="11.799356965438058"><ele>296.0</ele><time>2026-04-17T13:03:08Z</time></trkpt><trkpt lat="45.99698080046979" lon="11.799694463898817"><ele>296.0</ele><time>2026-04-17T13:03:09Z</time></trkpt><trkpt lat="45.997178351285385" lon="11.800010997367599"><ele>296.0</ele><time>2026-04-17T13:03:10Z</time></trkpt><trkpt lat="45.99736255251089" lon="11.800308935614188"><ele>293.0</ele><time>2026-04-17T13:03:11Z</time></trkpt><trkpt lat="45.99754242354376" lon="11.800593747914188"><ele>290.0</ele><time>2026-04-17T13:03:12Z</time></trkpt><trkpt lat="45.997717801523606" lon="11.800909354813383"><ele>292.5</ele><time>2026-04-17T13:03:13Z</time></trkpt><trkpt lat="45.99791858490011" lon="11.801231977931717"><ele>295.0</ele><time>2026-04-17T13:03:14Z</time></trkpt><trkpt lat="45.99812474093448" lon="11.801563944365856"><ele>295.0</ele><time>2026-04-17T13:03:15Z</time></trkpt><trkpt lat="45.998332789010306" lon="11.801901610093244"><ele>295.0</ele><time>2026-04-17T13:03:16Z</time></trkpt><trkpt lat="45.99853793298645" lon="11.802228297566666"><ele>295.0</ele><time>2026-04-17T13:03:17Z</time></trkpt><trkpt lat="45.99873363455852" lon="11.802527988424298"><ele>295.0</ele><time>2026-04-17T13:03:18Z</time></trkpt><trkpt lat="45.9989446990365" lon="11.802809377620962"><ele>293.0</ele><time>2026-04-17T13:03:19Z</time></trkpt><trkpt lat="45.99914621337653" lon="11.80308364540598"><ele>291.0</ele><time>2026-04-17T13:03:20Z</time></trkpt><trkpt lat="45.99933885471489" lon="11.803333762948393"><ele>296.0</ele><time>2026-04-17T13:03:21Z</time></trkpt><trkpt lat="45.99951158887105" lon="11.803591923611595"><ele>301.0</ele><time>2026-04-17T13:03:22Z</time></trkpt><trkpt lat="45.99969340207587" lon="11.803805140026812"><ele>301.0</ele><time>2026-04-17T13:03:23Z</time></trkpt><trkpt lat="45.99985550294481" lon="11.804024629436334"><ele>301.0</ele><time>2026-04-17T13:03:24Z</time></trkpt><trkpt lat="46.00001095851888" lon="11.804233876986155"><ele>301.0</ele><time>2026-04-17T13:03:25Z</time></trkpt><trkpt lat="46.000160743158126" lon="11.804438661756567"><ele>303.0</ele><time>2026-04-17T13:03:26Z</time></trkpt><trkpt lat="46.00031948467827" lon="11.804653503076802"><ele>305.0</ele><time>2026-04-17T13:03:27Z</time></trkpt><trkpt lat="46.00048066124704" lon="11.804875598990305"><ele>307.0</ele><time>2026-04-17T13:03:28Z</time></trkpt><trkpt lat="46.00063300293814" lon="11.805104784749096"><ele>309.0</ele><time>2026-04-17T13:03:29Z</time></trkpt><trkpt lat="46.00077054051044" lon="11.805340650573205"><ele>311.0</ele><time>2026-04-17T13:03:30Z</time></trkpt><trkpt lat="46.00089607735407" lon="11.805583739449666"><ele>313.0</ele><time>2026-04-17T13:03:31Z</time></trkpt><trkpt lat="46.00100942794179" lon="11.80583003474796"><ele>306.66666666666663</ele><time>2026-04-17T13:03:32Z</time></trkpt><trkpt lat="46.001106254299025" lon="11.80606720932148"><ele>300.3333333333333</ele><time>2026-04-17T13:03:33Z</time></trkpt><trkpt lat="46.001192672901375" lon="11.806294905629128"><ele>294.0</ele><time>2026-04-17T13:03:34Z</time></trkpt><trkpt lat="46.00127443856987" lon="11.806525034265045"><ele>294.0</ele><time>2026-04-17T13:03:35Z</time></trkpt><trkpt lat="46.001357080629404" lon="11.806792520553845"><ele>294.0</ele><time>2026-04-17T13:03:36Z</time></trkpt><trkpt lat="46.00142941262147" lon="11.80707764326109"><ele>294.0</ele><time>2026-04-17T13:03:37Z</time></trkpt><trkpt lat="46.00148910326007" lon="11.807366577596335"><ele>293.6666666666667</ele><time>2026-04-17T13:03:38Z</time></trkpt><trkpt lat="46.001539979763145" lon="11.807654036621708"><ele>293.33333333333337</ele><time>2026-04-17T13:03:39Z</time></trkpt><trkpt lat="46.00157860681225" lon="11.807932940084559"><ele>293.0</ele><time>2026-04-17T13:03:40Z</time></trkpt><trkpt lat="46.00160698967101" lon="11.808182699928944"><ele>293.0</ele><time>2026-04-17T13:03:41Z</time></trkpt><trkpt lat="46.00163157260489" lon="11.808412548172871"><ele>293.0</ele><time>2026-04-17T13:03:42Z</time></trkpt><trkpt lat="46.00164620618143" lon="11.808671595720273"><ele>293.0</ele><time>2026-04-17T13:03:43Z</time></trkpt><trkpt lat="46.001659992125525" lon="11.808972521082186"><ele>293.0</ele><time>2026-04-17T13:03:44Z</time></trkpt><trkpt lat="46.00168780277516" lon="11.809305161069053"><ele>293.0</ele><time>2026-04-17T13:03:45Z</time></trkpt><trkpt lat="46.001715426760725" lon="11.80967365770248"><ele>293.0</ele><time>2026-04-17T13:03:46Z</time></trkpt><trkpt lat="46.00174278685758" lon="11.810075078013673"><ele>293.0</ele><time>2026-04-17T13:03:47Z</time></trkpt><trkpt lat="46.00177265555047" lon="11.810500677998212"><ele>293.0</ele><time>2026-04-17T13:03:48Z</time></trkpt><trkpt lat="46.00180351606526" lon="11.810930769348689"><ele>293.0</ele><time>2026-04-17T13:03:49Z</time></trkpt><trkpt lat="46.001831281466856" lon="11.811331462564397"><ele>292.5</ele><time>2026-04-17T13:03:50Z</time></trkpt><trkpt lat="46.00185902409806" lon="11.811750077674635"><ele>292.0</ele><time>2026-04-17T13:03:51Z</time></trkpt><trkpt lat="46.00188349218932" lon="11.812180352500594"><ele>293.0</ele><time>2026-04-17T13:03:52Z</time></trkpt><trkpt lat="46.00190010399703" lon="11.812617808676196"><ele>294.0</ele><time>2026-04-17T13:03:53Z</time></trkpt><trkpt lat="46.00190926603025" lon="11.813065610495318"><ele>296.0</ele><time>2026-04-17T13:03:54Z</time></trkpt><trkpt lat="46.00192107853379" lon="11.813522886399468"><ele>298.0</ele><time>2026-04-17T13:03:55Z</time></trkpt><trkpt lat="46.001931766069575" lon="11.813981924279004"><ele>298.5</ele><time>2026-04-17T13:03:56Z</time></trkpt><trkpt lat="46.001939553232226" lon="11.814399568829355"><ele>299.0</ele><time>2026-04-17T13:03:57Z</time></trkpt><trkpt lat="46.0019482439811" lon="11.814792355179296"><ele>299.5</ele><time>2026-04-17T13:03:58Z</time></trkpt><trkpt lat="46.00194180026517" lon="11.815188698916286"><ele>300.0</ele><time>2026-04-17T13:03:59Z</time></trkpt><trkpt lat="46.00194733436571" lon="11.815595997436475"><ele>301.5</ele><time>2026-04-17T13:04:00Z</time></trkpt><trkpt lat="46.0019525933498" lon="11.816000796932569"><ele>303.0</ele><time>2026-04-17T13:04:01Z</time></trkpt><trkpt lat="46.001958683507" lon="11.816417499773205"><ele>303.0</ele><time>2026-04-17T13:04:02Z</time></trkpt><trkpt lat="46.00196554700453" lon="11.81685231740559"><ele>303.0</ele><time>2026-04-17T13:04:03Z</time></trkpt><trkpt lat="46.00197244594374" lon="11.817296714405053"><ele>303.0</ele><time>2026-04-17T13:04:04Z</time></trkpt><trkpt lat="46.00197895317268" lon="11.81773728294296"><ele>303.0</ele><time>2026-04-17T13:04:05Z</time></trkpt><trkpt lat="46.001985424908696" lon="11.81817544842881"><ele>304.0</ele><time>2026-04-17T13:04:06Z</time></trkpt><trkpt lat="46.00200554734912" lon="11.818611931529164"><ele>305.0</ele><time>2026-04-17T13:04:07Z</time></trkpt><trkpt lat="46.002008394308525" lon="11.819016500872907"><ele>305.0</ele><time>2026-04-17T13:04:08Z</time></trkpt><trkpt lat="46.00201153512169" lon="11.819400220745012"><ele>305.0</ele><time>2026-04-17T13:04:09Z</time></trkpt><trkpt lat="46.00201893090164" lon="11.819789144273582"><ele>305.5</ele><time>2026-04-17T13:04:10Z</time></trkpt><trkpt lat="46.002029304346266" lon="11.820197344552657"><ele>306.0</ele><time>2026-04-17T13:04:11Z</time></trkpt><trkpt lat="46.002036442903176" lon="11.820601793631829"><ele>307.0</ele><time>2026-04-17T13:04:12Z</time></trkpt><trkpt lat="46.00204196358529" lon="11.82099249704621"><ele>308.0</ele><time>2026-04-17T13:04:13Z</time></trkpt><trkpt lat="46.002047711240195" lon="11.821361873938178"><ele>308.0</ele><time>2026-04-17T13:04:14Z</time></trkpt><trkpt lat="46.002054248461434" lon="11.821718456668595"><ele>308.0</ele><time>2026-04-17T13:04:15Z</time></trkpt><trkpt lat="46.002059922158935" lon="11.822079288138895"><ele>308.5</ele><time>2026-04-17T13:04:16Z</time></trkpt><trkpt lat="46.00206446285106" lon="11.822438883919553"><ele>309.0</ele><time>2026-04-17T13:04:17Z</time></trkpt><trkpt lat="46.00205375324043" lon="11.822803660418097"><ele>308.0</ele><time>2026-04-17T13:04:18Z</time></trkpt><trkpt lat="46.00205958018211" lon="11.823192345051602"><ele>307.0</ele><time>2026-04-17T13:04:19Z</time></trkpt><trkpt lat="46.002065663510365" lon="11.823598131682338"><ele>309.0</ele><time>2026-04-17T13:04:20Z</time></trkpt><trkpt lat="46.00207161072725" lon="11.823994838511249"><ele>311.0</ele><time>2026-04-17T13:04:21Z</time></trkpt><trkpt lat="46.002093085412376" lon="11.824411804377418"><ele>312.0</ele><time>2026-04-17T13:04:22Z</time></trkpt><trkpt lat="46.00209833595787" lon="11.824811963068116"><ele>313.0</ele><time>2026-04-17T13:04:23Z</time></trkpt><trkpt lat="46.00210587280057" lon="11.82517808396342"><ele>313.5</ele><time>2026-04-17T13:04:24Z</time></trkpt><trkpt lat="46.00209453852413" lon="11.82552422966127"><ele>314.0</ele><time>2026-04-17T13:04:25Z</time></trkpt><trkpt lat="46.002099332737814" lon="11.825844081548341"><ele>314.33333333333337</ele><time>2026-04-17T13:04:26Z</time></trkpt><trkpt lat="46.00210402797648" lon="11.826157345661686"><ele>314.6666666666667</ele><time>2026-04-17T13:04:27Z</time></trkpt><trkpt lat="46.00210901747599" lon="11.826490241372166"><ele>315.0</ele><time>2026-04-17T13:04:28Z</time></trkpt><trkpt lat="46.00211441903584" lon="11.826850630198857"><ele>315.0</ele><time>2026-04-17T13:04:29Z</time></trkpt><trkpt lat="46.00212067662471" lon="11.827225918096374"><ele>315.0</ele><time>2026-04-17T13:04:30Z</time></trkpt><trkpt lat="46.002126802114965" lon="11.827616567988464"><ele>314.5</ele><time>2026-04-17T13:04:31Z</time></trkpt><trkpt lat="46.00213331882025" lon="11.828024771595446"><ele>314.0</ele><time>2026-04-17T13:04:32Z</time></trkpt><trkpt lat="46.002140018890024" lon="11.828443885069731"><ele>314.0</ele><time>2026-04-17T13:04:33Z</time></trkpt><trkpt lat="46.0021603772191" lon="11.828853751288229"><ele>314.0</ele><time>2026-04-17T13:04:34Z</time></trkpt><trkpt lat="46.00216175899648" lon="11.829235832978599"><ele>315.0</ele><time>2026-04-17T13:04:35Z</time></trkpt><trkpt lat="46.00216795265013" lon="11.829619970774228"><ele>316.0</ele><time>2026-04-17T13:04:36Z</time></trkpt><trkpt lat="46.00217517748824" lon="11.830011897583601"><ele>317.0</ele><time>2026-04-17T13:04:37Z</time></trkpt><trkpt lat="46.00218055328616" lon="11.830393074490926"><ele>318.0</ele><time>2026-04-17T13:04:38Z</time></trkpt><trkpt lat="46.002185347924744" lon="11.830743396361337"><ele>317.5</ele><time>2026-04-17T13:04:39Z</time></trkpt><trkpt lat="46.002194852121164" lon="11.831074631881268"><ele>317.0</ele><time>2026-04-17T13:04:40Z</time></trkpt><trkpt lat="46.00220183024105" lon="11.831390378583038"><ele>317.0</ele><time>2026-04-17T13:04:41Z</time></trkpt><trkpt lat="46.00220600830908" lon="11.831688507491119"><ele>317.0</ele><time>2026-04-17T13:04:42Z</time></trkpt><trkpt lat="46.00221052080582" lon="11.831991720898698"><ele>317.0</ele><time>2026-04-17T13:04:43Z</time></trkpt><trkpt lat="46.002199227990815" lon="11.832293294480037"><ele>317.33333333333337</ele><time>2026-04-17T13:04:44Z</time></trkpt><trkpt lat="46.00220348931835" lon="11.832570394658791"><ele>317.6666666666667</ele><time>2026-04-17T13:04:45Z</time></trkpt><trkpt lat="46.00220779335831" lon="11.832850272835985"><ele>318.0</ele><time>2026-04-17T13:04:46Z</time></trkpt><trkpt lat="46.00221200493939" lon="11.833135893225021"><ele>318.0</ele><time>2026-04-17T13:04:47Z</time></trkpt><trkpt lat="46.002216119752724" lon="11.833429690433803"><ele>318.0</ele><time>2026-04-17T13:04:48Z</time></trkpt><trkpt lat="46.002221373361806" lon="11.833749903031746"><ele>318.0</ele><time>2026-04-17T13:04:49Z</time></trkpt><trkpt lat="46.00222662516715" lon="11.8340637038388"><ele>318.0</ele><time>2026-04-17T13:04:50Z</time></trkpt><trkpt lat="46.00223124109054" lon="11.834339510161474"><ele>318.0</ele><time>2026-04-17T13:04:51Z</time></trkpt><trkpt lat="46.002235766842446" lon="11.834609928793176"><ele>318.0</ele><time>2026-04-17T13:04:52Z</time></trkpt><trkpt lat="46.00225053122638" lon="11.834883171485751"><ele>318.0</ele><time>2026-04-17T13:04:53Z</time></trkpt><trkpt lat="46.00223681518783" lon="11.83513301767007"><ele>318.0</ele><time>2026-04-17T13:04:54Z</time></trkpt><trkpt lat="46.00222679223662" lon="11.835354860893778"><ele>318.0</ele><time>2026-04-17T13:04:55Z</time></trkpt><trkpt lat="46.00221996093937" lon="11.835558901548973"><ele>318.25</ele><time>2026-04-17T13:04:56Z</time></trkpt><trkpt lat="46.00221190117983" lon="11.835744980994312"><ele>318.5</ele><time>2026-04-17T13:04:57Z</time></trkpt><trkpt lat="46.00219945661" lon="11.83592144618333"><ele>318.75</ele><time>2026-04-17T13:04:58Z</time></trkpt><trkpt lat="46.002173553098025" lon="11.836095821792552"><ele>319.0</ele><time>2026-04-17T13:04:59Z</time></trkpt><trkpt lat="46.00213597173458" lon="11.836267053461356"><ele>319.0</ele><time>2026-04-17T13:05:00Z</time></trkpt><trkpt lat="46.00210926483175" lon="11.836434788070319"><ele>319.0</ele><time>2026-04-17T13:05:01Z</time></trkpt><trkpt lat="46.00211037987759" lon="11.836613861596925"><ele>319.0</ele><time>2026-04-17T13:05:02Z</time></trkpt><trkpt lat="46.00214372910359" lon="11.836768622996836"><ele>319.0</ele><time>2026-04-17T13:05:03Z</time></trkpt><trkpt lat="46.00220850599956" lon="11.836877528058762"><ele>319.0</ele><time>2026-04-17T13:05:04Z</time></trkpt><trkpt lat="46.002301723660686" lon="11.836935113856637"><ele>319.0</ele><time>2026-04-17T13:05:05Z</time></trkpt><trkpt lat="46.00241169445929" lon="11.836936397984013"><ele>319.0</ele><time>2026-04-17T13:05:06Z</time></trkpt><trkpt lat="46.0025175599364" lon="11.836917690301421"><ele>319.0</ele><time>2026-04-17T13:05:07Z</time></trkpt><trkpt lat="46.00261149292583" lon="11.836944035892838"><ele>319.0</ele><time>2026-04-17T13:05:08Z</time></trkpt><trkpt lat="46.002709090979245" lon="11.837025330574882"><ele>319.0</ele><time>2026-04-17T13:05:09Z</time></trkpt><trkpt lat="46.002801420179296" lon="11.83714741398135"><ele>319.0</ele><time>2026-04-17T13:05:10Z</time></trkpt><trkpt lat="46.00289244945731" lon="11.837319192906632"><ele>319.0</ele><time>2026-04-17T13:05:11Z</time></trkpt><trkpt lat="46.002986590343255" lon="11.837530094230022"><ele>318.66666666666663</ele><time>2026-04-17T13:05:12Z</time></trkpt><trkpt lat="46.00306928376835" lon="11.837738881830708"><ele>318.3333333333333</ele><time>2026-04-17T13:05:13Z</time></trkpt><trkpt lat="46.003165825409496" lon="11.837990304476827"><ele>318.0</ele><time>2026-04-17T13:05:14Z</time></trkpt><trkpt lat="46.00327292196586" lon="11.838265087116381"><ele>318.25</ele><time>2026-04-17T13:05:15Z</time></trkpt><trkpt lat="46.00336685020547" lon="11.83850054114435"><ele>318.5</ele><time>2026-04-17T13:05:16Z</time></trkpt><trkpt lat="46.00342749149155" lon="11.83869573316333"><ele>318.75</ele><time>2026-04-17T13:05:17Z</time></trkpt><trkpt lat="46.003485421038164" lon="11.838828652741748"><ele>319.0</ele><time>2026-04-17T13:05:18Z</time></trkpt><trkpt lat="46.00355207294321" lon="11.838888040226001"><ele>319.0</ele><time>2026-04-17T13:05:19Z</time></trkpt><trkpt lat="46.00356507041717" lon="11.838977653146877"><ele>319.0</ele><time>2026-04-17T13:05:22Z</time></trkpt><trkpt lat="46.003570469818534" lon="11.83907052205713"><ele>319.0</ele><time>2026-04-17T13:05:24Z</time></trkpt><trkpt lat="46.003581658046926" lon="11.83924810005315"><ele>319.0</ele><time>2026-04-17T13:05:26Z</time></trkpt><trkpt lat="46.00362608936729" lon="11.839359257449923"><ele>319.0</ele><time>2026-04-17T13:05:27Z</time></trkpt><trkpt lat="46.003665549906415" lon="11.83945951481265"><ele>319.0</ele><time>2026-04-17T13:05:28Z</time></trkpt><trkpt lat="46.00362580941614" lon="11.839590689965668"><ele>319.6</ele><time>2026-04-17T13:05:29Z</time></trkpt><trkpt lat="46.00360941941986" lon="11.83972633190481"><ele>320.2</ele><time>2026-04-17T13:05:30Z</time></trkpt><trkpt lat="46.00357976458877" lon="11.839860752676811"><ele>320.8</ele><time>2026-04-17T13:05:31Z</time></trkpt><trkpt lat="46.00353309196063" lon="11.840011429193899"><ele>321.40000000000003</ele><time>2026-04-17T13:05:32Z</time></trkpt><trkpt lat="46.003485114349466" lon="11.84017529029521"><ele>322.0</ele><time>2026-04-17T13:05:33Z</time></trkpt><trkpt lat="46.00344771301152" lon="11.840318259563182"><ele>322.25</ele><time>2026-04-17T13:05:34Z</time></trkpt><trkpt lat="46.00341167629476" lon="11.840455505277468"><ele>322.5</ele><time>2026-04-17T13:05:35Z</time></trkpt><trkpt lat="46.00338338457824" lon="11.840615725378315"><ele>322.75</ele><time>2026-04-17T13:05:36Z</time></trkpt><trkpt lat="46.003334148609746" lon="11.840778400811129"><ele>323.0</ele><time>2026-04-17T13:05:37Z</time></trkpt><trkpt lat="46.00328547745178" lon="11.840948672355893"><ele>322.59999999999997</ele><time>2026-04-17T13:05:38Z</time></trkpt><trkpt lat="46.00323893800553" lon="11.841104401241795"><ele>322.2</ele><time>2026-04-17T13:05:39Z</time></trkpt><trkpt lat="46.00319570845153" lon="11.841244628066562"><ele>321.8</ele><time>2026-04-17T13:05:40Z</time></trkpt><trkpt lat="46.00315307712243" lon="11.841377150327583"><ele>321.4</ele><time>2026-04-17T13:05:41Z</time></trkpt><trkpt lat="46.003107141492336" lon="11.841519566617949"><ele>321.0</ele><time>2026-04-17T13:05:42Z</time></trkpt><trkpt lat="46.0030609567352" lon="11.841682598683144"><ele>321.4</ele><time>2026-04-17T13:05:43Z</time></trkpt><trkpt lat="46.00302737384449" lon="11.841841557263372"><ele>321.8</ele><time>2026-04-17T13:05:44Z</time></trkpt><trkpt lat="46.00301068277973" lon="11.841986030647982"><ele>322.2</ele><time>2026-04-17T13:05:45Z</time></trkpt><trkpt lat="46.003001182288585" lon="11.842134763835643"><ele>322.59999999999997</ele><time>2026-04-17T13:05:46Z</time></trkpt><trkpt lat="46.00298941625911" lon="11.842311759306186"><ele>323.0</ele><time>2026-04-17T13:05:47Z</time></trkpt><trkpt lat="46.002985060744486" lon="11.84251883744084"><ele>322.75</ele><time>2026-04-17T13:05:48Z</time></trkpt><trkpt lat="46.00299203305057" lon="11.842704212963133"><ele>322.5</ele><time>2026-04-17T13:05:49Z</time></trkpt><trkpt lat="46.00300826379799" lon="11.842866105044353"><ele>322.25</ele><time>2026-04-17T13:05:50Z</time></trkpt><trkpt lat="46.003003168554386" lon="11.843012699516782"><ele>322.0</ele><time>2026-04-17T13:05:51Z</time></trkpt><trkpt lat="46.00301874527581" lon="11.843173206142556"><ele>322.0</ele><time>2026-04-17T13:05:52Z</time></trkpt><trkpt lat="46.00303907588104" lon="11.843359377672385"><ele>322.0</ele><time>2026-04-17T13:05:53Z</time></trkpt><trkpt lat="46.00306433636643" lon="11.843580852100665"><ele>322.0</ele><time>2026-04-17T13:05:54Z</time></trkpt><trkpt lat="46.003101113937575" lon="11.843810620225609"><ele>321.5</ele><time>2026-04-17T13:05:55Z</time></trkpt><trkpt lat="46.00313765965263" lon="11.844006611627197"><ele>321.0</ele><time>2026-04-17T13:05:56Z</time></trkpt><trkpt lat="46.00317655028955" lon="11.844179978829462"><ele>320.5</ele><time>2026-04-17T13:05:57Z</time></trkpt><trkpt lat="46.003220373739765" lon="11.844349582202236"><ele>320.0</ele><time>2026-04-17T13:05:58Z</time></trkpt><trkpt lat="46.00327001174984" lon="11.844527999214147"><ele>320.33333333333337</ele><time>2026-04-17T13:05:59Z</time></trkpt><trkpt lat="46.00334047534052" lon="11.844707248113167"><ele>320.6666666666667</ele><time>2026-04-17T13:06:00Z</time></trkpt><trkpt lat="46.003402385872356" lon="11.84490755495208"><ele>321.0</ele><time>2026-04-17T13:06:01Z</time></trkpt><trkpt lat="46.00345858043847" lon="11.845127968298986"><ele>319.3333333333333</ele><time>2026-04-17T13:06:02Z</time></trkpt><trkpt lat="46.003543157661454" lon="11.845343201983503"><ele>317.66666666666663</ele><time>2026-04-17T13:06:03Z</time></trkpt><trkpt lat="46.003648368614854" lon="11.845586580829723"><ele>316.0</ele><time>2026-04-17T13:06:04Z</time></trkpt><trkpt lat="46.00377882402422" lon="11.845873602929503"><ele>315.0</ele><time>2026-04-17T13:06:05Z</time></trkpt><trkpt lat="46.00390679560901" lon="11.846154664805995"><ele>314.0</ele><time>2026-04-17T13:06:06Z</time></trkpt><trkpt lat="46.00404474253309" lon="11.846456553579952"><ele>314.0</ele><time>2026-04-17T13:06:07Z</time></trkpt><trkpt lat="46.00418910171385" lon="11.846767870536816"><ele>314.0</ele><time>2026-04-17T13:06:08Z</time></trkpt><trkpt lat="46.0043271045514" lon="11.847065479299191"><ele>314.0</ele><time>2026-04-17T13:06:09Z</time></trkpt><trkpt lat="46.00447999740754" lon="11.847387427833633"><ele>314.0</ele><time>2026-04-17T13:06:10Z</time></trkpt><trkpt lat="46.00465157443891" lon="11.847677237122284"><ele>312.5</ele><time>2026-04-17T13:06:11Z</time></trkpt><trkpt lat="46.004812526882034" lon="11.847960901900043"><ele>311.0</ele><time>2026-04-17T13:06:12Z</time></trkpt><trkpt lat="46.00496643132242" lon="11.84827001847936"><ele>311.0</ele><time>2026-04-17T13:06:13Z</time></trkpt><trkpt lat="46.005136734429065" lon="11.84856707743312"><ele>311.0</ele><time>2026-04-17T13:06:14Z</time></trkpt><trkpt lat="46.00531250535478" lon="11.848836617461064"><ele>311.0</ele><time>2026-04-17T13:06:15Z</time></trkpt><trkpt lat="46.005448187381674" lon="11.849121294515093"><ele>311.0</ele><time>2026-04-17T13:06:16Z</time></trkpt><trkpt lat="46.005575460696726" lon="11.849414376894487"><ele>311.0</ele><time>2026-04-17T13:06:17Z</time></trkpt><trkpt lat="46.005698959033836" lon="11.849719511699305"><ele>311.0</ele><time>2026-04-17T13:06:18Z</time></trkpt><trkpt lat="46.00579567578071" lon="11.850049021155785"><ele>311.0</ele><time>2026-04-17T13:06:19Z</time></trkpt><trkpt lat="46.00592581442109" lon="11.850376140215868"><ele>311.0</ele><time>2026-04-17T13:06:20Z</time></trkpt><trkpt lat="46.006050237694666" lon="11.850739513829025"><ele>310.5</ele><time>2026-04-17T13:06:21Z</time></trkpt><trkpt lat="46.00616639853856" lon="11.851126134579472"><ele>310.0</ele><time>2026-04-17T13:06:22Z</time></trkpt><trkpt lat="46.006316675738915" lon="11.85151978080477"><ele>308.5</ele><time>2026-04-17T13:06:23Z</time></trkpt><trkpt lat="46.00645357768108" lon="11.851921510813384"><ele>307.0</ele><time>2026-04-17T13:06:24Z</time></trkpt><trkpt lat="46.006598499996954" lon="11.852345403439704"><ele>306.5</ele><time>2026-04-17T13:06:25Z</time></trkpt><trkpt lat="46.00673359320261" lon="11.852739615524941"><ele>306.0</ele><time>2026-04-17T13:06:26Z</time></trkpt><trkpt lat="46.006865366968526" lon="11.853118422272233"><ele>306.0</ele><time>2026-04-17T13:06:27Z</time></trkpt><trkpt lat="46.006992364305965" lon="11.853494036962214"><ele>306.0</ele><time>2026-04-17T13:06:28Z</time></trkpt><trkpt lat="46.00712366939897" lon="11.853872226702945"><ele>306.0</ele><time>2026-04-17T13:06:29Z</time></trkpt><trkpt lat="46.00725653133252" lon="11.854255001053906"><ele>306.0</ele><time>2026-04-17T13:06:30Z</time></trkpt><trkpt lat="46.00739395990417" lon="11.854650916359395"><ele>305.5</ele><time>2026-04-17T13:06:31Z</time></trkpt><trkpt lat="46.00753485292345" lon="11.855057910222284"><ele>305.0</ele><time>2026-04-17T13:06:32Z</time></trkpt><trkpt lat="46.0076633021207" lon="11.855436042400205"><ele>304.0</ele><time>2026-04-17T13:06:33Z</time></trkpt><trkpt lat="46.0077830847627" lon="11.855792305391823"><ele>303.0</ele><time>2026-04-17T13:06:34Z</time></trkpt><trkpt lat="46.00790336591142" lon="11.856146522220474"><ele>302.0</ele><time>2026-04-17T13:06:35Z</time></trkpt><trkpt lat="46.00803289196426" lon="11.856513292459603"><ele>301.0</ele><time>2026-04-17T13:06:36Z</time></trkpt><trkpt lat="46.008165333856006" lon="11.85690053326335"><ele>300.0</ele><time>2026-04-17T13:06:37Z</time></trkpt><trkpt lat="46.00830069438167" lon="11.85730250961283"><ele>299.0</ele><time>2026-04-17T13:06:38Z</time></trkpt><trkpt lat="46.008441937204175" lon="11.857714134069663"><ele>299.0</ele><time>2026-04-17T13:06:39Z</time></trkpt><trkpt lat="46.00858640604784" lon="11.85813242593335"><ele>299.0</ele><time>2026-04-17T13:06:40Z</time></trkpt><trkpt lat="46.00871964366903" lon="11.858531598537246"><ele>297.5</ele><time>2026-04-17T13:06:41Z</time></trkpt><trkpt lat="46.00884988055093" lon="11.858900053775134"><ele>296.0</ele><time>2026-04-17T13:06:42Z</time></trkpt><trkpt lat="46.00897259335587" lon="11.859259579679685"><ele>295.5</ele><time>2026-04-17T13:06:43Z</time></trkpt><trkpt lat="46.009075873099555" lon="11.85959078748891"><ele>295.0</ele><time>2026-04-17T13:06:44Z</time></trkpt><trkpt lat="46.00919256803362" lon="11.859878010889867"><ele>294.5</ele><time>2026-04-17T13:06:45Z</time></trkpt><trkpt lat="46.00929569003556" lon="11.86017659639926"><ele>294.0</ele><time>2026-04-17T13:06:46Z</time></trkpt><trkpt lat="46.00940364869808" lon="11.860486993511786"><ele>294.0</ele><time>2026-04-17T13:06:47Z</time></trkpt><trkpt lat="46.00950738430685" lon="11.860838610381759"><ele>294.0</ele><time>2026-04-17T13:06:48Z</time></trkpt><trkpt lat="46.00963196677277" lon="11.861198871475732"><ele>292.5</ele><time>2026-04-17T13:06:49Z</time></trkpt><trkpt lat="46.00975920324069" lon="11.861567430025167"><ele>291.0</ele><time>2026-04-17T13:06:50Z</time></trkpt><trkpt lat="46.00989913025461" lon="11.86193184381955"><ele>291.0</ele><time>2026-04-17T13:06:51Z</time></trkpt><trkpt lat="46.01002862944393" lon="11.862311510500124"><ele>291.0</ele><time>2026-04-17T13:06:52Z</time></trkpt><trkpt lat="46.01015255700433" lon="11.862716403832648"><ele>291.0</ele><time>2026-04-17T13:06:53Z</time></trkpt><trkpt lat="46.010277686018604" lon="11.863081913281741"><ele>291.0</ele><time>2026-04-17T13:06:54Z</time></trkpt><trkpt lat="46.01040733076439" lon="11.863404767998034"><ele>291.5</ele><time>2026-04-17T13:06:55Z</time></trkpt><trkpt lat="46.010511634750436" lon="11.863699967573305"><ele>292.0</ele><time>2026-04-17T13:06:56Z</time></trkpt><trkpt lat="46.01060958167556" lon="11.863989700414235"><ele>292.0</ele><time>2026-04-17T13:06:57Z</time></trkpt><trkpt lat="46.01070500487531" lon="11.864267092759963"><ele>292.0</ele><time>2026-04-17T13:06:58Z</time></trkpt><trkpt lat="46.010801995796506" lon="11.864544583707158"><ele>292.0</ele><time>2026-04-17T13:06:59Z</time></trkpt><trkpt lat="46.0108922008681" lon="11.864805897740872"><ele>291.0</ele><time>2026-04-17T13:07:00Z</time></trkpt><trkpt lat="46.01095231885492" lon="11.865034174493614"><ele>290.0</ele><time>2026-04-17T13:07:01Z</time></trkpt><trkpt lat="46.011024990572416" lon="11.86524501475428"><ele>289.0</ele><time>2026-04-17T13:07:02Z</time></trkpt><trkpt lat="46.01110025123806" lon="11.865463949578833"><ele>288.3333333333333</ele><time>2026-04-17T13:07:03Z</time></trkpt><trkpt lat="46.01118132432411" lon="11.865699792747504"><ele>287.6666666666667</ele><time>2026-04-17T13:07:04Z</time></trkpt><trkpt lat="46.011277759251854" lon="11.86598032378815"><ele>287.0</ele><time>2026-04-17T13:07:05Z</time></trkpt><trkpt lat="46.011385371162056" lon="11.866293368894333"><ele>286.5</ele><time>2026-04-17T13:07:06Z</time></trkpt><trkpt lat="46.011500900781954" lon="11.866629446760285"><ele>286.0</ele><time>2026-04-17T13:07:07Z</time></trkpt><trkpt lat="46.01161313057022" lon="11.86695549166064"><ele>286.0</ele><time>2026-04-17T13:07:08Z</time></trkpt><trkpt lat="46.01173295741486" lon="11.86725452801014"><ele>286.0</ele><time>2026-04-17T13:07:09Z</time></trkpt><trkpt lat="46.0118389930411" lon="11.86757382972183"><ele>286.0</ele><time>2026-04-17T13:07:10Z</time></trkpt><trkpt lat="46.0119531124546" lon="11.867909565355786"><ele>286.0</ele><time>2026-04-17T13:07:11Z</time></trkpt><trkpt lat="46.01207371369304" lon="11.868262003704347"><ele>284.5</ele><time>2026-04-17T13:07:12Z</time></trkpt><trkpt lat="46.0121958350811" lon="11.868613447684831"><ele>283.0</ele><time>2026-04-17T13:07:13Z</time></trkpt><trkpt lat="46.012305205825406" lon="11.868931161372004"><ele>283.0</ele><time>2026-04-17T13:07:14Z</time></trkpt><trkpt lat="46.012409175235014" lon="11.869234725759858"><ele>283.0</ele><time>2026-04-17T13:07:15Z</time></trkpt><trkpt lat="46.01251425428619" lon="11.869536901485478"><ele>283.0</ele><time>2026-04-17T13:07:16Z</time></trkpt><trkpt lat="46.0126319633778" lon="11.869866096035217"><ele>283.0</ele><time>2026-04-17T13:07:17Z</time></trkpt><trkpt lat="46.01275100769208" lon="11.870210643378195"><ele>283.0</ele><time>2026-04-17T13:07:18Z</time></trkpt><trkpt lat="46.01287213132233" lon="11.87056722701799"><ele>283.0</ele><time>2026-04-17T13:07:19Z</time></trkpt><trkpt lat="46.012997324147456" lon="11.870939814442963"><ele>282.5</ele><time>2026-04-17T13:07:20Z</time></trkpt><trkpt lat="46.01313509749905" lon="11.871324500645631"><ele>282.0</ele><time>2026-04-17T13:07:21Z</time></trkpt><trkpt lat="46.013273162601614" lon="11.871723983191938"><ele>281.5</ele><time>2026-04-17T13:07:22Z</time></trkpt><trkpt lat="46.013404100830456" lon="11.87211216757999"><ele>281.0</ele><time>2026-04-17T13:07:23Z</time></trkpt><trkpt lat="46.01352539549404" lon="11.872468245368468"><ele>281.0</ele><time>2026-04-17T13:07:24Z</time></trkpt><trkpt lat="46.01364126315632" lon="11.872806713170926"><ele>281.0</ele><time>2026-04-17T13:07:25Z</time></trkpt><trkpt lat="46.01375680575439" lon="11.873141491015662"><ele>280.0</ele><time>2026-04-17T13:07:26Z</time></trkpt><trkpt lat="46.01386468770498" lon="11.873448352404095"><ele>279.0</ele><time>2026-04-17T13:07:27Z</time></trkpt><trkpt lat="46.013951021074064" lon="11.873746293432529"><ele>279.0</ele><time>2026-04-17T13:07:28Z</time></trkpt><trkpt lat="46.01405043560483" lon="11.874034975594196"><ele>279.0</ele><time>2026-04-17T13:07:29Z</time></trkpt><trkpt lat="46.01415113707659" lon="11.874327941000917"><ele>279.0</ele><time>2026-04-17T13:07:30Z</time></trkpt><trkpt lat="46.0142547436287" lon="11.87462936805932"><ele>279.0</ele><time>2026-04-17T13:07:31Z</time></trkpt><trkpt lat="46.014361236965485" lon="11.874938517998341"><ele>278.6666666666667</ele><time>2026-04-17T13:07:32Z</time></trkpt><trkpt lat="46.01445238373339" lon="11.875202758608667"><ele>278.33333333333337</ele><time>2026-04-17T13:07:33Z</time></trkpt><trkpt lat="46.01455212394679" lon="11.875438834936745"><ele>278.0</ele><time>2026-04-17T13:07:34Z</time></trkpt><trkpt lat="46.014629760144494" lon="11.875663640240811"><ele>278.0</ele><time>2026-04-17T13:07:35Z</time></trkpt><trkpt lat="46.014686106932594" lon="11.875881398815904"><ele>278.0</ele><time>2026-04-17T13:07:36Z</time></trkpt><trkpt lat="46.0147543836076" lon="11.876080851403193"><ele>278.0</ele><time>2026-04-17T13:07:37Z</time></trkpt><trkpt lat="46.01482836310805" lon="11.876297544088075"><ele>277.0</ele><time>2026-04-17T13:07:38Z</time></trkpt><trkpt lat="46.01492126175259" lon="11.876569098509831"><ele>276.0</ele><time>2026-04-17T13:07:39Z</time></trkpt><trkpt lat="46.01502894186956" lon="11.876882807772724"><ele>275.5</ele><time>2026-04-17T13:07:40Z</time></trkpt><trkpt lat="46.01513349583914" lon="11.877185540110245"><ele>275.0</ele><time>2026-04-17T13:07:41Z</time></trkpt><trkpt lat="46.01525421272083" lon="11.877534961590602"><ele>275.0</ele><time>2026-04-17T13:07:42Z</time></trkpt><trkpt lat="46.01537512726044" lon="11.87788495519048"><ele>275.0</ele><time>2026-04-17T13:07:43Z</time></trkpt><trkpt lat="46.015491247122384" lon="11.878221070357748"><ele>275.5</ele><time>2026-04-17T13:07:44Z</time></trkpt><trkpt lat="46.015607469378516" lon="11.878557481909175"><ele>276.0</ele><time>2026-04-17T13:07:45Z</time></trkpt><trkpt lat="46.015728891425404" lon="11.878857254387"><ele>275.0</ele><time>2026-04-17T13:07:46Z</time></trkpt><trkpt lat="46.01583820368773" lon="11.87917277134968"><ele>274.0</ele><time>2026-04-17T13:07:47Z</time></trkpt><trkpt lat="46.01594318813421" lon="11.879528999606327"><ele>274.0</ele><time>2026-04-17T13:07:48Z</time></trkpt><trkpt lat="46.01608261003728" lon="11.879884677426368"><ele>274.0</ele><time>2026-04-17T13:07:49Z</time></trkpt><trkpt lat="46.01621301180605" lon="11.88026357584775"><ele>272.5</ele><time>2026-04-17T13:07:50Z</time></trkpt><trkpt lat="46.016343693770146" lon="11.880644527985408"><ele>271.0</ele><time>2026-04-17T13:07:51Z</time></trkpt><trkpt lat="46.01646081472016" lon="11.880983535007319"><ele>271.0</ele><time>2026-04-17T13:07:52Z</time></trkpt><trkpt lat="46.01656326895869" lon="11.881280259810572"><ele>271.0</ele><time>2026-04-17T13:07:53Z</time></trkpt><trkpt lat="46.016653092416604" lon="11.881549896671507"><ele>271.0</ele><time>2026-04-17T13:07:54Z</time></trkpt><trkpt lat="46.016738959300646" lon="11.881799044161141"><ele>271.0</ele><time>2026-04-17T13:07:55Z</time></trkpt><trkpt lat="46.016816718457875" lon="11.882021624661752"><ele>271.0</ele><time>2026-04-17T13:07:56Z</time></trkpt><trkpt lat="46.01688871319571" lon="11.88222830512997"><ele>271.0</ele><time>2026-04-17T13:07:57Z</time></trkpt><trkpt lat="46.01695823280731" lon="11.882435602342339"><ele>271.66666666666663</ele><time>2026-04-17T13:07:58Z</time></trkpt><trkpt lat="46.01703536995986" lon="11.882660445896333"><ele>272.3333333333333</ele><time>2026-04-17T13:07:59Z</time></trkpt><trkpt lat="46.017108687037556" lon="11.882923155711813"><ele>273.0</ele><time>2026-04-17T13:08:00Z</time></trkpt><trkpt lat="46.01720749708208" lon="11.88321099684432"><ele>272.0</ele><time>2026-04-17T13:08:01Z</time></trkpt><trkpt lat="46.017319370939994" lon="11.883536893930593"><ele>271.0</ele><time>2026-04-17T13:08:02Z</time></trkpt><trkpt lat="46.01743675073936" lon="11.883878830197379"><ele>270.0</ele><time>2026-04-17T13:08:03Z</time></trkpt><trkpt lat="46.017554169855174" lon="11.884220569357527"><ele>269.0</ele><time>2026-04-17T13:08:04Z</time></trkpt><trkpt lat="46.017685331457805" lon="11.884598910459808"><ele>268.0</ele><time>2026-04-17T13:08:05Z</time></trkpt><trkpt lat="46.01782088444146" lon="11.884989323133638"><ele>267.0</ele><time>2026-04-17T13:08:06Z</time></trkpt><trkpt lat="46.01794200472861" lon="11.885335405637177"><ele>267.0</ele><time>2026-04-17T13:08:07Z</time></trkpt><trkpt lat="46.01806852060848" lon="11.885643971275748"><ele>267.0</ele><time>2026-04-17T13:08:08Z</time></trkpt><trkpt lat="46.018167481712815" lon="11.885932304141457"><ele>267.0</ele><time>2026-04-17T13:08:09Z</time></trkpt><trkpt lat="46.018257010493365" lon="11.88618743423964"><ele>267.0</ele><time>2026-04-17T13:08:10Z</time></trkpt><trkpt lat="46.01833497557961" lon="11.88641618538605"><ele>267.0</ele><time>2026-04-17T13:08:11Z</time></trkpt><trkpt lat="46.01840622057163" lon="11.886630022648754"><ele>267.0</ele><time>2026-04-17T13:08:12Z</time></trkpt><trkpt lat="46.018456506896285" lon="11.886838995188157"><ele>267.0</ele><time>2026-04-17T13:08:13Z</time></trkpt><trkpt lat="46.01849539905554" lon="11.88705008059833"><ele>267.0</ele><time>2026-04-17T13:08:14Z</time></trkpt><trkpt lat="46.01852192522821" lon="11.887242543160257"><ele>267.0</ele><time>2026-04-17T13:08:15Z</time></trkpt><trkpt lat="46.01851966486115" lon="11.887414776661242"><ele>267.0</ele><time>2026-04-17T13:08:16Z</time></trkpt><trkpt lat="46.01849251095133" lon="11.887567189870998"><ele>267.0</ele><time>2026-04-17T13:08:17Z</time></trkpt><trkpt lat="46.018445716539354" lon="11.887704964676338"><ele>267.0</ele><time>2026-04-17T13:08:18Z</time></trkpt><trkpt lat="46.018404481203916" lon="11.887832836409396"><ele>267.0</ele><time>2026-04-17T13:08:19Z</time></trkpt><trkpt lat="46.01837167439216" lon="11.88794258903254"><ele>267.0</ele><time>2026-04-17T13:08:20Z</time></trkpt><trkpt lat="46.01831716974415" lon="11.888052677734196"><ele>267.0</ele><time>2026-04-17T13:08:21Z</time></trkpt><trkpt lat="46.01823957295488" lon="11.888174597885023"><ele>267.0</ele><time>2026-04-17T13:08:22Z</time></trkpt><trkpt lat="46.01815509910494" lon="11.888280545387818"><ele>267.0</ele><time>2026-04-17T13:08:23Z</time></trkpt><trkpt lat="46.01807111636759" lon="11.888343859526639"><ele>267.0</ele><time>2026-04-17T13:08:24Z</time></trkpt><trkpt lat="46.01797271426247" lon="11.888386368435897"><ele>267.0</ele><time>2026-04-17T13:08:25Z</time></trkpt><trkpt lat="46.017846440911754" lon="11.88843046870589"><ele>267.6</ele><time>2026-04-17T13:08:26Z</time></trkpt><trkpt lat="46.01772420613158" lon="11.88847859399954"><ele>268.2</ele><time>2026-04-17T13:08:27Z</time></trkpt><trkpt lat="46.017644595530605" lon="11.888514199516122"><ele>268.8</ele><time>2026-04-17T13:08:28Z</time></trkpt><trkpt lat="46.017556762489846" lon="11.888583361373751"><ele>269.4</ele><time>2026-04-17T13:08:30Z</time></trkpt><trkpt lat="46.01754299621022" lon="11.888751517286483"><ele>270.0</ele><time>2026-04-17T13:08:32Z</time></trkpt><trkpt lat="46.017568109826165" lon="11.888869639174544"><ele>270.0</ele><time>2026-04-17T13:08:33Z</time></trkpt><trkpt lat="46.01757725591831" lon="11.889024714787523"><ele>270.0</ele><time>2026-04-17T13:08:34Z</time></trkpt><trkpt lat="46.01759074878409" lon="11.889176226339837"><ele>270.0</ele><time>2026-04-17T13:08:35Z</time></trkpt><trkpt lat="46.01760491694698" lon="11.889317587768668"><ele>270.0</ele><time>2026-04-17T13:08:36Z</time></trkpt><trkpt lat="46.01763265718583" lon="11.889443889667772"><ele>270.0</ele><time>2026-04-17T13:08:37Z</time></trkpt><trkpt lat="46.017639476739625" lon="11.889536328054504"><ele>270.2</ele><time>2026-04-17T13:08:38Z</time></trkpt><trkpt lat="46.01761934349984" lon="11.889629292748186"><ele>270.4</ele><time>2026-04-17T13:08:39.999Z</time></trkpt><trkpt lat="46.01749086694709" lon="11.889641128571455"><ele>270.6</ele><time>2026-04-17T13:08:41.999Z</time></trkpt><trkpt lat="46.01740239943221" lon="11.8896580202935"><ele>270.8</ele><time>2026-04-17T13:08:42.999Z</time></trkpt><trkpt lat="46.01729846487575" lon="11.88965944919815"><ele>271.0</ele><time>2026-04-17T13:08:43.999Z</time></trkpt><trkpt lat="46.017222370464815" lon="11.88969454146398"><ele>270.5</ele><time>2026-04-17T13:08:44.999Z</time></trkpt><trkpt lat="46.01713479032964" lon="11.88970233590676"><ele>270.0</ele><time>2026-04-17T13:08:46.999Z</time></trkpt><trkpt lat="46.01703295667618" lon="11.889760518864714"><ele>269.5</ele><time>2026-04-17T13:08:49Z</time></trkpt><trkpt lat="46.01723788600546" lon="11.889778174195968"><ele>269.0</ele><time>2026-04-17T13:08:58Z</time></trkpt><trkpt lat="46.01731695417894" lon="11.889761896724748"><ele>269.0</ele><time>2026-04-17T13:09:00Z</time></trkpt><trkpt lat="46.01736901234687" lon="11.889822196648826"><ele>269.0</ele><time>2026-04-17T13:09:02Z</time></trkpt><trkpt lat="46.017379162775214" lon="11.889965217623837"><ele>269.0</ele><time>2026-04-17T13:09:05Z</time></trkpt><trkpt lat="46.01739553475159" lon="11.890060219585465"><ele>269.0</ele><time>2026-04-17T13:09:06Z</time></trkpt><trkpt lat="46.01737555060301" lon="11.890160666162885"><ele>269.0</ele><time>2026-04-17T13:09:07Z</time></trkpt><trkpt lat="46.01741626982126" lon="11.890319976698734"><ele>269.0</ele><time>2026-04-17T13:09:09Z</time></trkpt><trkpt lat="46.0174186325299" lon="11.890467650954637"><ele>268.8571428571429</ele><time>2026-04-17T13:09:11Z</time></trkpt><trkpt lat="46.017375936560214" lon="11.890549515068265"><ele>268.7142857142857</ele><time>2026-04-17T13:09:13Z</time></trkpt><trkpt lat="46.017353942172875" lon="11.890449131129417"><ele>268.57142857142856</ele><time>2026-04-17T13:10:35Z</time></trkpt><trkpt lat="46.017287554489315" lon="11.89052072568925"><ele>268.42857142857144</ele><time>2026-04-17T13:10:41.999Z</time></trkpt><trkpt lat="46.01735738682792" lon="11.890485658400111"><ele>268.2857142857143</ele><time>2026-04-17T13:10:43.999Z</time></trkpt><trkpt lat="46.017315717500665" lon="11.890411749640595"><ele>268.14285714285717</ele><time>2026-04-17T13:11:17.999Z</time></trkpt><trkpt lat="46.01737722178656" lon="11.890464819463777"><ele>268.0</ele><time>2026-04-17T13:11:24Z</time></trkpt><trkpt lat="46.0173235545975" lon="11.890383996959349"><ele>268.0</ele><time>2026-04-17T13:12:42.999Z</time></trkpt><trkpt lat="46.01725332261294" lon="11.890488226146052"><ele>268.0</ele><time>2026-04-17T13:13:19.216Z</time></trkpt><trkpt lat="46.01726026650872" lon="11.890592093883397"><ele>268.0</ele><time>2026-04-17T13:15:02.999Z</time></trkpt><trkpt lat="46.017289203572616" lon="11.890701433684383"><ele>268.0</ele><time>2026-04-17T13:15:08.02Z</time></trkpt><trkpt lat="46.017249710067716" lon="11.890591903037953"><ele>268.0</ele><time>2026-04-17T13:15:17.021Z</time></trkpt><trkpt lat="46.01721814995689" lon="11.890508076596888"><ele>268.0</ele><time>2026-04-17T13:15:19.999Z</time></trkpt><trkpt lat="46.017276994280344" lon="11.890560944212405"><ele>268.0</ele><time>2026-04-17T13:24:03Z</time></trkpt><trkpt lat="46.017333437823496" lon="11.890608625120706"><ele>268.0</ele><time>2026-04-17T13:30:55Z</time></trkpt><trkpt lat="46.01728668805894" lon="11.8905428951079"><ele>268.0</ele><time>2026-04-17T13:31:38Z</time></trkpt></trkseg></trk></gpx>